<?xml version="1.0" encoding="UTF-8" standalone="no" ?>
<gpx xmlns="http://www.topografix.com/GPX/1/1" xmlns:xsi="http://www.w3.org/2001/XMLSchema-instance" xsi:schemaLocation="http://www.topografix.com/GPX/1/1 http://www.topografix.com/GPX/1/1/gpx.xsd" version="1.1" creator="VisuGPX - https://www.visugpx.com">
  <metadata>
    <name>BTTAlt800-ActivitéTerminée-J04</name>
  </metadata>
  <trk>
    <name><![CDATA[BTTAlt800-ActivitéTerminée-J04_1]]></name>
    <trkseg>
      <trkpt lat="46.14932" lon="4.45457">
        <ele>556.2</ele>
        <time>2025-09-08T08:00:37Z</time>
      </trkpt>
      <trkpt lat="46.14931" lon="4.45456">
        <ele>556.2</ele>
        <time>2025-09-08T08:00:38Z</time>
      </trkpt>
      <trkpt lat="46.14929" lon="4.45456">
        <ele>556</ele>
        <time>2025-09-08T08:00:39Z</time>
      </trkpt>
      <trkpt lat="46.14928" lon="4.45455">
        <ele>556</ele>
        <time>2025-09-08T08:00:40Z</time>
      </trkpt>
      <trkpt lat="46.14926" lon="4.45455">
        <ele>556</ele>
        <time>2025-09-08T08:00:41Z</time>
      </trkpt>
      <trkpt lat="46.14927" lon="4.45456">
        <ele>556</ele>
        <time>2025-09-08T08:00:42Z</time>
      </trkpt>
      <trkpt lat="46.14924" lon="4.45456">
        <ele>556.4</ele>
        <time>2025-09-08T08:01:28Z</time>
      </trkpt>
      <trkpt lat="46.14923" lon="4.45457">
        <ele>556.4</ele>
        <time>2025-09-08T08:01:29Z</time>
      </trkpt>
      <trkpt lat="46.14923" lon="4.45458">
        <ele>556.4</ele>
        <time>2025-09-08T08:01:30Z</time>
      </trkpt>
      <trkpt lat="46.14922" lon="4.45458">
        <ele>556.4</ele>
        <time>2025-09-08T08:01:31Z</time>
      </trkpt>
      <trkpt lat="46.14922" lon="4.45458">
        <ele>556</ele>
        <time>2025-09-08T08:01:32Z</time>
      </trkpt>
      <trkpt lat="46.14921" lon="4.45459">
        <ele>556</ele>
        <time>2025-09-08T08:01:35Z</time>
      </trkpt>
      <trkpt lat="46.14919" lon="4.45459">
        <ele>556</ele>
        <time>2025-09-08T08:01:36Z</time>
      </trkpt>
      <trkpt lat="46.14917" lon="4.45459">
        <ele>556</ele>
        <time>2025-09-08T08:01:37Z</time>
      </trkpt>
      <trkpt lat="46.14915" lon="4.45459">
        <ele>556</ele>
        <time>2025-09-08T08:01:38Z</time>
      </trkpt>
      <trkpt lat="46.14913" lon="4.45459">
        <ele>555.2</ele>
        <time>2025-09-08T08:01:39Z</time>
      </trkpt>
      <trkpt lat="46.14911" lon="4.45459">
        <ele>556</ele>
        <time>2025-09-08T08:01:40Z</time>
      </trkpt>
      <trkpt lat="46.1491" lon="4.45459">
        <ele>556</ele>
        <time>2025-09-08T08:01:41Z</time>
      </trkpt>
      <trkpt lat="46.14908" lon="4.45458">
        <ele>556.6</ele>
        <time>2025-09-08T08:01:42Z</time>
      </trkpt>
      <trkpt lat="46.14907" lon="4.45458">
        <ele>556</ele>
        <time>2025-09-08T08:01:43Z</time>
      </trkpt>
      <trkpt lat="46.14906" lon="4.45457">
        <ele>556</ele>
        <time>2025-09-08T08:01:44Z</time>
      </trkpt>
      <trkpt lat="46.14905" lon="4.45455">
        <ele>556</ele>
        <time>2025-09-08T08:01:45Z</time>
      </trkpt>
      <trkpt lat="46.14905" lon="4.45453">
        <ele>556</ele>
        <time>2025-09-08T08:01:46Z</time>
      </trkpt>
      <trkpt lat="46.14904" lon="4.45451">
        <ele>556</ele>
        <time>2025-09-08T08:01:47Z</time>
      </trkpt>
      <trkpt lat="46.14905" lon="4.45447">
        <ele>556</ele>
        <time>2025-09-08T08:01:48Z</time>
      </trkpt>
      <trkpt lat="46.14906" lon="4.45441">
        <ele>556</ele>
        <time>2025-09-08T08:01:49Z</time>
      </trkpt>
      <trkpt lat="46.1491" lon="4.45435">
        <ele>555.4</ele>
        <time>2025-09-08T08:01:50Z</time>
      </trkpt>
      <trkpt lat="46.14911" lon="4.45429">
        <ele>555</ele>
        <time>2025-09-08T08:01:51Z</time>
      </trkpt>
      <trkpt lat="46.14913" lon="4.45422">
        <ele>554.6</ele>
        <time>2025-09-08T08:01:52Z</time>
      </trkpt>
      <trkpt lat="46.14914" lon="4.45417">
        <ele>554</ele>
        <time>2025-09-08T08:01:53Z</time>
      </trkpt>
      <trkpt lat="46.14916" lon="4.45412">
        <ele>553.4</ele>
        <time>2025-09-08T08:01:54Z</time>
      </trkpt>
      <trkpt lat="46.14917" lon="4.45407">
        <ele>553</ele>
        <time>2025-09-08T08:01:55Z</time>
      </trkpt>
      <trkpt lat="46.14917" lon="4.45402">
        <ele>553</ele>
        <time>2025-09-08T08:01:56Z</time>
      </trkpt>
      <trkpt lat="46.14918" lon="4.45397">
        <ele>552.6</ele>
        <time>2025-09-08T08:01:57Z</time>
      </trkpt>
      <trkpt lat="46.14918" lon="4.45392">
        <ele>552.2</ele>
        <time>2025-09-08T08:01:58Z</time>
      </trkpt>
      <trkpt lat="46.14919" lon="4.45387">
        <ele>552</ele>
        <time>2025-09-08T08:01:59Z</time>
      </trkpt>
      <trkpt lat="46.14919" lon="4.45387">
        <ele>551.8</ele>
        <time>2025-09-08T08:02:00Z</time>
      </trkpt>
      <trkpt lat="46.14919" lon="4.45387">
        <ele>551.6</ele>
        <time>2025-09-08T08:02:01Z</time>
      </trkpt>
      <trkpt lat="46.14921" lon="4.45379">
        <ele>551.6</ele>
        <time>2025-09-08T08:02:02Z</time>
      </trkpt>
      <trkpt lat="46.14922" lon="4.45375">
        <ele>552</ele>
        <time>2025-09-08T08:02:03Z</time>
      </trkpt>
      <trkpt lat="46.14922" lon="4.4537">
        <ele>551.8</ele>
        <time>2025-09-08T08:02:04Z</time>
      </trkpt>
      <trkpt lat="46.14922" lon="4.45366">
        <ele>551.8</ele>
        <time>2025-09-08T08:02:05Z</time>
      </trkpt>
      <trkpt lat="46.14923" lon="4.45362">
        <ele>551.6</ele>
        <time>2025-09-08T08:02:06Z</time>
      </trkpt>
      <trkpt lat="46.14922" lon="4.45357">
        <ele>551.6</ele>
        <time>2025-09-08T08:02:07Z</time>
      </trkpt>
      <trkpt lat="46.14922" lon="4.45353">
        <ele>551.6</ele>
        <time>2025-09-08T08:02:08Z</time>
      </trkpt>
      <trkpt lat="46.14921" lon="4.45348">
        <ele>551.6</ele>
        <time>2025-09-08T08:02:09Z</time>
      </trkpt>
      <trkpt lat="46.14921" lon="4.45343">
        <ele>551.6</ele>
        <time>2025-09-08T08:02:10Z</time>
      </trkpt>
      <trkpt lat="46.14921" lon="4.45339">
        <ele>551.6</ele>
        <time>2025-09-08T08:02:11Z</time>
      </trkpt>
      <trkpt lat="46.14921" lon="4.45334">
        <ele>551.6</ele>
        <time>2025-09-08T08:02:12Z</time>
      </trkpt>
      <trkpt lat="46.14921" lon="4.4533">
        <ele>551.6</ele>
        <time>2025-09-08T08:02:13Z</time>
      </trkpt>
      <trkpt lat="46.14921" lon="4.45326">
        <ele>551.8</ele>
        <time>2025-09-08T08:02:14Z</time>
      </trkpt>
      <trkpt lat="46.14921" lon="4.45321">
        <ele>551.8</ele>
        <time>2025-09-08T08:02:15Z</time>
      </trkpt>
      <trkpt lat="46.14922" lon="4.45317">
        <ele>551.8</ele>
        <time>2025-09-08T08:02:16Z</time>
      </trkpt>
      <trkpt lat="46.14922" lon="4.45314">
        <ele>551.8</ele>
        <time>2025-09-08T08:02:17Z</time>
      </trkpt>
      <trkpt lat="46.14922" lon="4.4531">
        <ele>551.8</ele>
        <time>2025-09-08T08:02:18Z</time>
      </trkpt>
      <trkpt lat="46.14922" lon="4.45306">
        <ele>552.2</ele>
        <time>2025-09-08T08:02:19Z</time>
      </trkpt>
      <trkpt lat="46.14922" lon="4.45303">
        <ele>552.2</ele>
        <time>2025-09-08T08:02:20Z</time>
      </trkpt>
      <trkpt lat="46.14922" lon="4.453">
        <ele>552.2</ele>
        <time>2025-09-08T08:02:21Z</time>
      </trkpt>
      <trkpt lat="46.14923" lon="4.45297">
        <ele>552.2</ele>
        <time>2025-09-08T08:02:22Z</time>
      </trkpt>
      <trkpt lat="46.14923" lon="4.45294">
        <ele>552.2</ele>
        <time>2025-09-08T08:02:23Z</time>
      </trkpt>
      <trkpt lat="46.14923" lon="4.45291">
        <ele>552.6</ele>
        <time>2025-09-08T08:02:24Z</time>
      </trkpt>
      <trkpt lat="46.14922" lon="4.45288">
        <ele>552.8</ele>
        <time>2025-09-08T08:02:25Z</time>
      </trkpt>
      <trkpt lat="46.14922" lon="4.45286">
        <ele>553.2</ele>
        <time>2025-09-08T08:02:26Z</time>
      </trkpt>
      <trkpt lat="46.14922" lon="4.45284">
        <ele>553.4</ele>
        <time>2025-09-08T08:02:27Z</time>
      </trkpt>
      <trkpt lat="46.14921" lon="4.45281">
        <ele>553.6</ele>
        <time>2025-09-08T08:02:28Z</time>
      </trkpt>
      <trkpt lat="46.14921" lon="4.45279">
        <ele>553.8</ele>
        <time>2025-09-08T08:02:29Z</time>
      </trkpt>
      <trkpt lat="46.14922" lon="4.45277">
        <ele>553.8</ele>
        <time>2025-09-08T08:02:30Z</time>
      </trkpt>
      <trkpt lat="46.14922" lon="4.45275">
        <ele>554.2</ele>
        <time>2025-09-08T08:02:31Z</time>
      </trkpt>
      <trkpt lat="46.14923" lon="4.45273">
        <ele>554.2</ele>
        <time>2025-09-08T08:02:32Z</time>
      </trkpt>
      <trkpt lat="46.14923" lon="4.45271">
        <ele>554.6</ele>
        <time>2025-09-08T08:02:33Z</time>
      </trkpt>
      <trkpt lat="46.14924" lon="4.45269">
        <ele>555</ele>
        <time>2025-09-08T08:02:34Z</time>
      </trkpt>
      <trkpt lat="46.14924" lon="4.45268">
        <ele>555.4</ele>
        <time>2025-09-08T08:02:35Z</time>
      </trkpt>
      <trkpt lat="46.14924" lon="4.45266">
        <ele>555.8</ele>
        <time>2025-09-08T08:02:36Z</time>
      </trkpt>
      <trkpt lat="46.14925" lon="4.45265">
        <ele>555.8</ele>
        <time>2025-09-08T08:02:37Z</time>
      </trkpt>
      <trkpt lat="46.14925" lon="4.45263">
        <ele>556</ele>
        <time>2025-09-08T08:02:38Z</time>
      </trkpt>
      <trkpt lat="46.14926" lon="4.45261">
        <ele>556</ele>
        <time>2025-09-08T08:02:39Z</time>
      </trkpt>
      <trkpt lat="46.14926" lon="4.45259">
        <ele>556.4</ele>
        <time>2025-09-08T08:02:40Z</time>
      </trkpt>
      <trkpt lat="46.14926" lon="4.45257">
        <ele>556.4</ele>
        <time>2025-09-08T08:02:41Z</time>
      </trkpt>
      <trkpt lat="46.14927" lon="4.45254">
        <ele>556.6</ele>
        <time>2025-09-08T08:02:42Z</time>
      </trkpt>
      <trkpt lat="46.14927" lon="4.45252">
        <ele>556.8</ele>
        <time>2025-09-08T08:02:43Z</time>
      </trkpt>
      <trkpt lat="46.14927" lon="4.45249">
        <ele>556.8</ele>
        <time>2025-09-08T08:02:44Z</time>
      </trkpt>
      <trkpt lat="46.14928" lon="4.45247">
        <ele>557</ele>
        <time>2025-09-08T08:02:45Z</time>
      </trkpt>
      <trkpt lat="46.14927" lon="4.45245">
        <ele>557</ele>
        <time>2025-09-08T08:02:46Z</time>
      </trkpt>
      <trkpt lat="46.14927" lon="4.45243">
        <ele>557</ele>
        <time>2025-09-08T08:02:47Z</time>
      </trkpt>
      <trkpt lat="46.14927" lon="4.45241">
        <ele>557.2</ele>
        <time>2025-09-08T08:02:48Z</time>
      </trkpt>
      <trkpt lat="46.14928" lon="4.45239">
        <ele>557.2</ele>
        <time>2025-09-08T08:02:49Z</time>
      </trkpt>
      <trkpt lat="46.14928" lon="4.45237">
        <ele>557.6</ele>
        <time>2025-09-08T08:02:50Z</time>
      </trkpt>
      <trkpt lat="46.14928" lon="4.45235">
        <ele>557.6</ele>
        <time>2025-09-08T08:02:51Z</time>
      </trkpt>
      <trkpt lat="46.14929" lon="4.45234">
        <ele>557.6</ele>
        <time>2025-09-08T08:02:52Z</time>
      </trkpt>
      <trkpt lat="46.14929" lon="4.45232">
        <ele>557.8</ele>
        <time>2025-09-08T08:02:53Z</time>
      </trkpt>
      <trkpt lat="46.14929" lon="4.45231">
        <ele>557.8</ele>
        <time>2025-09-08T08:02:54Z</time>
      </trkpt>
      <trkpt lat="46.14931" lon="4.45229">
        <ele>557.8</ele>
        <time>2025-09-08T08:02:55Z</time>
      </trkpt>
      <trkpt lat="46.14932" lon="4.45226">
        <ele>558.2</ele>
        <time>2025-09-08T08:02:56Z</time>
      </trkpt>
      <trkpt lat="46.14932" lon="4.45224">
        <ele>558.2</ele>
        <time>2025-09-08T08:02:57Z</time>
      </trkpt>
      <trkpt lat="46.14933" lon="4.45222">
        <ele>558.2</ele>
        <time>2025-09-08T08:02:58Z</time>
      </trkpt>
      <trkpt lat="46.14933" lon="4.45221">
        <ele>558.6</ele>
        <time>2025-09-08T08:02:59Z</time>
      </trkpt>
      <trkpt lat="46.14933" lon="4.45219">
        <ele>558.8</ele>
        <time>2025-09-08T08:03:00Z</time>
      </trkpt>
      <trkpt lat="46.14933" lon="4.45218">
        <ele>559</ele>
        <time>2025-09-08T08:03:01Z</time>
      </trkpt>
      <trkpt lat="46.14933" lon="4.45216">
        <ele>559</ele>
        <time>2025-09-08T08:03:02Z</time>
      </trkpt>
      <trkpt lat="46.14933" lon="4.45215">
        <ele>559</ele>
        <time>2025-09-08T08:03:03Z</time>
      </trkpt>
      <trkpt lat="46.14934" lon="4.45214">
        <ele>559</ele>
        <time>2025-09-08T08:03:04Z</time>
      </trkpt>
      <trkpt lat="46.14934" lon="4.45212">
        <ele>559.4</ele>
        <time>2025-09-08T08:03:05Z</time>
      </trkpt>
      <trkpt lat="46.14935" lon="4.45209">
        <ele>559.4</ele>
        <time>2025-09-08T08:03:06Z</time>
      </trkpt>
      <trkpt lat="46.14936" lon="4.45208">
        <ele>559.4</ele>
        <time>2025-09-08T08:03:07Z</time>
      </trkpt>
      <trkpt lat="46.14936" lon="4.45206">
        <ele>559.6</ele>
        <time>2025-09-08T08:03:08Z</time>
      </trkpt>
      <trkpt lat="46.14936" lon="4.45204">
        <ele>559.6</ele>
        <time>2025-09-08T08:03:09Z</time>
      </trkpt>
      <trkpt lat="46.14936" lon="4.45203">
        <ele>560</ele>
        <time>2025-09-08T08:03:10Z</time>
      </trkpt>
      <trkpt lat="46.14936" lon="4.45201">
        <ele>560</ele>
        <time>2025-09-08T08:03:11Z</time>
      </trkpt>
      <trkpt lat="46.14935" lon="4.45199">
        <ele>560</ele>
        <time>2025-09-08T08:03:12Z</time>
      </trkpt>
      <trkpt lat="46.14935" lon="4.45197">
        <ele>560.2</ele>
        <time>2025-09-08T08:03:13Z</time>
      </trkpt>
      <trkpt lat="46.14935" lon="4.45196">
        <ele>560.2</ele>
        <time>2025-09-08T08:03:14Z</time>
      </trkpt>
      <trkpt lat="46.14936" lon="4.45194">
        <ele>560.8</ele>
        <time>2025-09-08T08:03:15Z</time>
      </trkpt>
      <trkpt lat="46.14936" lon="4.45192">
        <ele>561</ele>
        <time>2025-09-08T08:03:16Z</time>
      </trkpt>
      <trkpt lat="46.14936" lon="4.4519">
        <ele>561</ele>
        <time>2025-09-08T08:03:17Z</time>
      </trkpt>
      <trkpt lat="46.14936" lon="4.45189">
        <ele>561.2</ele>
        <time>2025-09-08T08:03:18Z</time>
      </trkpt>
      <trkpt lat="46.14935" lon="4.45187">
        <ele>561.2</ele>
        <time>2025-09-08T08:03:19Z</time>
      </trkpt>
      <trkpt lat="46.14935" lon="4.45186">
        <ele>561.2</ele>
        <time>2025-09-08T08:03:20Z</time>
      </trkpt>
      <trkpt lat="46.14935" lon="4.45184">
        <ele>561.6</ele>
        <time>2025-09-08T08:03:21Z</time>
      </trkpt>
      <trkpt lat="46.14935" lon="4.45182">
        <ele>561.6</ele>
        <time>2025-09-08T08:03:22Z</time>
      </trkpt>
      <trkpt lat="46.14936" lon="4.4518">
        <ele>561.6</ele>
        <time>2025-09-08T08:03:23Z</time>
      </trkpt>
      <trkpt lat="46.14936" lon="4.45178">
        <ele>561.6</ele>
        <time>2025-09-08T08:03:24Z</time>
      </trkpt>
      <trkpt lat="46.14936" lon="4.45176">
        <ele>561.8</ele>
        <time>2025-09-08T08:03:25Z</time>
      </trkpt>
      <trkpt lat="46.14936" lon="4.45174">
        <ele>561.8</ele>
        <time>2025-09-08T08:03:26Z</time>
      </trkpt>
      <trkpt lat="46.14936" lon="4.45172">
        <ele>562</ele>
        <time>2025-09-08T08:03:27Z</time>
      </trkpt>
      <trkpt lat="46.14936" lon="4.4517">
        <ele>562</ele>
        <time>2025-09-08T08:03:28Z</time>
      </trkpt>
      <trkpt lat="46.14936" lon="4.45169">
        <ele>562.4</ele>
        <time>2025-09-08T08:03:29Z</time>
      </trkpt>
      <trkpt lat="46.14936" lon="4.45167">
        <ele>562.4</ele>
        <time>2025-09-08T08:03:30Z</time>
      </trkpt>
      <trkpt lat="46.14936" lon="4.45165">
        <ele>562.4</ele>
        <time>2025-09-08T08:03:31Z</time>
      </trkpt>
      <trkpt lat="46.14935" lon="4.45163">
        <ele>562.8</ele>
        <time>2025-09-08T08:03:32Z</time>
      </trkpt>
      <trkpt lat="46.14935" lon="4.45161">
        <ele>562.8</ele>
        <time>2025-09-08T08:03:33Z</time>
      </trkpt>
      <trkpt lat="46.14935" lon="4.45159">
        <ele>562.8</ele>
        <time>2025-09-08T08:03:34Z</time>
      </trkpt>
      <trkpt lat="46.14935" lon="4.45157">
        <ele>562.8</ele>
        <time>2025-09-08T08:03:35Z</time>
      </trkpt>
      <trkpt lat="46.14935" lon="4.45155">
        <ele>562.8</ele>
        <time>2025-09-08T08:03:36Z</time>
      </trkpt>
      <trkpt lat="46.14935" lon="4.45152">
        <ele>562.8</ele>
        <time>2025-09-08T08:03:37Z</time>
      </trkpt>
      <trkpt lat="46.14935" lon="4.4515">
        <ele>563</ele>
        <time>2025-09-08T08:03:38Z</time>
      </trkpt>
      <trkpt lat="46.14934" lon="4.45147">
        <ele>563</ele>
        <time>2025-09-08T08:03:39Z</time>
      </trkpt>
      <trkpt lat="46.14933" lon="4.45145">
        <ele>563.2</ele>
        <time>2025-09-08T08:03:40Z</time>
      </trkpt>
      <trkpt lat="46.14933" lon="4.45143">
        <ele>563.2</ele>
        <time>2025-09-08T08:03:41Z</time>
      </trkpt>
      <trkpt lat="46.14933" lon="4.45141">
        <ele>563.2</ele>
        <time>2025-09-08T08:03:42Z</time>
      </trkpt>
      <trkpt lat="46.14933" lon="4.45139">
        <ele>563.6</ele>
        <time>2025-09-08T08:03:43Z</time>
      </trkpt>
      <trkpt lat="46.14933" lon="4.45137">
        <ele>563.6</ele>
        <time>2025-09-08T08:03:44Z</time>
      </trkpt>
      <trkpt lat="46.14933" lon="4.45134">
        <ele>563.8</ele>
        <time>2025-09-08T08:03:45Z</time>
      </trkpt>
      <trkpt lat="46.14933" lon="4.45132">
        <ele>563.8</ele>
        <time>2025-09-08T08:03:46Z</time>
      </trkpt>
      <trkpt lat="46.14933" lon="4.4513">
        <ele>564</ele>
        <time>2025-09-08T08:03:47Z</time>
      </trkpt>
      <trkpt lat="46.14933" lon="4.45128">
        <ele>564</ele>
        <time>2025-09-08T08:03:48Z</time>
      </trkpt>
      <trkpt lat="46.14933" lon="4.45126">
        <ele>564.4</ele>
        <time>2025-09-08T08:03:49Z</time>
      </trkpt>
      <trkpt lat="46.14934" lon="4.45124">
        <ele>564.4</ele>
        <time>2025-09-08T08:03:50Z</time>
      </trkpt>
      <trkpt lat="46.14934" lon="4.45122">
        <ele>564.4</ele>
        <time>2025-09-08T08:03:51Z</time>
      </trkpt>
      <trkpt lat="46.14934" lon="4.4512">
        <ele>564.6</ele>
        <time>2025-09-08T08:03:52Z</time>
      </trkpt>
      <trkpt lat="46.14935" lon="4.45118">
        <ele>564.6</ele>
        <time>2025-09-08T08:03:53Z</time>
      </trkpt>
      <trkpt lat="46.14935" lon="4.45115">
        <ele>564.6</ele>
        <time>2025-09-08T08:03:54Z</time>
      </trkpt>
      <trkpt lat="46.14936" lon="4.45113">
        <ele>564.6</ele>
        <time>2025-09-08T08:03:55Z</time>
      </trkpt>
      <trkpt lat="46.14936" lon="4.45111">
        <ele>564.8</ele>
        <time>2025-09-08T08:03:56Z</time>
      </trkpt>
      <trkpt lat="46.14937" lon="4.45109">
        <ele>564.8</ele>
        <time>2025-09-08T08:03:57Z</time>
      </trkpt>
      <trkpt lat="46.14938" lon="4.45107">
        <ele>565.2</ele>
        <time>2025-09-08T08:03:58Z</time>
      </trkpt>
      <trkpt lat="46.14939" lon="4.45105">
        <ele>565.2</ele>
        <time>2025-09-08T08:03:59Z</time>
      </trkpt>
      <trkpt lat="46.14941" lon="4.45103">
        <ele>565.2</ele>
        <time>2025-09-08T08:04:00Z</time>
      </trkpt>
      <trkpt lat="46.14942" lon="4.45102">
        <ele>565.2</ele>
        <time>2025-09-08T08:04:01Z</time>
      </trkpt>
      <trkpt lat="46.14943" lon="4.451">
        <ele>565.2</ele>
        <time>2025-09-08T08:04:02Z</time>
      </trkpt>
      <trkpt lat="46.14944" lon="4.45099">
        <ele>565.4</ele>
        <time>2025-09-08T08:04:03Z</time>
      </trkpt>
      <trkpt lat="46.14946" lon="4.45098">
        <ele>565.4</ele>
        <time>2025-09-08T08:04:04Z</time>
      </trkpt>
      <trkpt lat="46.14947" lon="4.45098">
        <ele>565.8</ele>
        <time>2025-09-08T08:04:05Z</time>
      </trkpt>
      <trkpt lat="46.14949" lon="4.45098">
        <ele>565.8</ele>
        <time>2025-09-08T08:04:06Z</time>
      </trkpt>
      <trkpt lat="46.14951" lon="4.45099">
        <ele>565.8</ele>
        <time>2025-09-08T08:04:07Z</time>
      </trkpt>
      <trkpt lat="46.14952" lon="4.451">
        <ele>566.2</ele>
        <time>2025-09-08T08:04:08Z</time>
      </trkpt>
      <trkpt lat="46.14954" lon="4.451">
        <ele>566.2</ele>
        <time>2025-09-08T08:04:09Z</time>
      </trkpt>
      <trkpt lat="46.14956" lon="4.45101">
        <ele>566.4</ele>
        <time>2025-09-08T08:04:10Z</time>
      </trkpt>
      <trkpt lat="46.14958" lon="4.45102">
        <ele>566.4</ele>
        <time>2025-09-08T08:04:11Z</time>
      </trkpt>
      <trkpt lat="46.1496" lon="4.45103">
        <ele>566.4</ele>
        <time>2025-09-08T08:04:12Z</time>
      </trkpt>
      <trkpt lat="46.14962" lon="4.45104">
        <ele>566.6</ele>
        <time>2025-09-08T08:04:13Z</time>
      </trkpt>
      <trkpt lat="46.14964" lon="4.45106">
        <ele>566.6</ele>
        <time>2025-09-08T08:04:14Z</time>
      </trkpt>
      <trkpt lat="46.14965" lon="4.45107">
        <ele>566.8</ele>
        <time>2025-09-08T08:04:15Z</time>
      </trkpt>
      <trkpt lat="46.14967" lon="4.45108">
        <ele>566.8</ele>
        <time>2025-09-08T08:04:16Z</time>
      </trkpt>
      <trkpt lat="46.14969" lon="4.45108">
        <ele>566.8</ele>
        <time>2025-09-08T08:04:17Z</time>
      </trkpt>
      <trkpt lat="46.14973" lon="4.4511">
        <ele>566.8</ele>
        <time>2025-09-08T08:04:18Z</time>
      </trkpt>
      <trkpt lat="46.14976" lon="4.45112">
        <ele>567</ele>
        <time>2025-09-08T08:04:19Z</time>
      </trkpt>
      <trkpt lat="46.14978" lon="4.45113">
        <ele>567</ele>
        <time>2025-09-08T08:04:20Z</time>
      </trkpt>
      <trkpt lat="46.1498" lon="4.45114">
        <ele>567</ele>
        <time>2025-09-08T08:04:21Z</time>
      </trkpt>
      <trkpt lat="46.14982" lon="4.45114">
        <ele>567</ele>
        <time>2025-09-08T08:04:22Z</time>
      </trkpt>
      <trkpt lat="46.14984" lon="4.45115">
        <ele>567</ele>
        <time>2025-09-08T08:04:23Z</time>
      </trkpt>
      <trkpt lat="46.14986" lon="4.45117">
        <ele>567</ele>
        <time>2025-09-08T08:04:24Z</time>
      </trkpt>
      <trkpt lat="46.14989" lon="4.45118">
        <ele>567</ele>
        <time>2025-09-08T08:04:25Z</time>
      </trkpt>
      <trkpt lat="46.14991" lon="4.4512">
        <ele>567.4</ele>
        <time>2025-09-08T08:04:26Z</time>
      </trkpt>
      <trkpt lat="46.14994" lon="4.45121">
        <ele>567.4</ele>
        <time>2025-09-08T08:04:27Z</time>
      </trkpt>
      <trkpt lat="46.14996" lon="4.45122">
        <ele>567.4</ele>
        <time>2025-09-08T08:04:28Z</time>
      </trkpt>
      <trkpt lat="46.14999" lon="4.45123">
        <ele>567.4</ele>
        <time>2025-09-08T08:04:29Z</time>
      </trkpt>
      <trkpt lat="46.15001" lon="4.45124">
        <ele>567.4</ele>
        <time>2025-09-08T08:04:30Z</time>
      </trkpt>
      <trkpt lat="46.15004" lon="4.45126">
        <ele>567.6</ele>
        <time>2025-09-08T08:04:31Z</time>
      </trkpt>
      <trkpt lat="46.15006" lon="4.45127">
        <ele>567.6</ele>
        <time>2025-09-08T08:04:32Z</time>
      </trkpt>
      <trkpt lat="46.15008" lon="4.45129">
        <ele>567.6</ele>
        <time>2025-09-08T08:04:33Z</time>
      </trkpt>
      <trkpt lat="46.15011" lon="4.45131">
        <ele>567.6</ele>
        <time>2025-09-08T08:04:34Z</time>
      </trkpt>
      <trkpt lat="46.15014" lon="4.45132">
        <ele>567.6</ele>
        <time>2025-09-08T08:04:35Z</time>
      </trkpt>
      <trkpt lat="46.15016" lon="4.45134">
        <ele>567.6</ele>
        <time>2025-09-08T08:04:36Z</time>
      </trkpt>
      <trkpt lat="46.15019" lon="4.45136">
        <ele>568</ele>
        <time>2025-09-08T08:04:37Z</time>
      </trkpt>
      <trkpt lat="46.15022" lon="4.45137">
        <ele>568</ele>
        <time>2025-09-08T08:04:38Z</time>
      </trkpt>
      <trkpt lat="46.15024" lon="4.45138">
        <ele>568</ele>
        <time>2025-09-08T08:04:39Z</time>
      </trkpt>
      <trkpt lat="46.15027" lon="4.45139">
        <ele>568</ele>
        <time>2025-09-08T08:04:40Z</time>
      </trkpt>
      <trkpt lat="46.1503" lon="4.4514">
        <ele>568.2</ele>
        <time>2025-09-08T08:04:41Z</time>
      </trkpt>
      <trkpt lat="46.15032" lon="4.45141">
        <ele>568.2</ele>
        <time>2025-09-08T08:04:42Z</time>
      </trkpt>
      <trkpt lat="46.15034" lon="4.45141">
        <ele>568.2</ele>
        <time>2025-09-08T08:04:43Z</time>
      </trkpt>
      <trkpt lat="46.15037" lon="4.45142">
        <ele>568.4</ele>
        <time>2025-09-08T08:04:44Z</time>
      </trkpt>
      <trkpt lat="46.1504" lon="4.45142">
        <ele>568.4</ele>
        <time>2025-09-08T08:04:45Z</time>
      </trkpt>
      <trkpt lat="46.15043" lon="4.45143">
        <ele>568.4</ele>
        <time>2025-09-08T08:04:46Z</time>
      </trkpt>
      <trkpt lat="46.15046" lon="4.45143">
        <ele>568.4</ele>
        <time>2025-09-08T08:04:47Z</time>
      </trkpt>
      <trkpt lat="46.15049" lon="4.45143">
        <ele>568.4</ele>
        <time>2025-09-08T08:04:48Z</time>
      </trkpt>
      <trkpt lat="46.15052" lon="4.45142">
        <ele>568.4</ele>
        <time>2025-09-08T08:04:49Z</time>
      </trkpt>
      <trkpt lat="46.15055" lon="4.4514">
        <ele>568.4</ele>
        <time>2025-09-08T08:04:50Z</time>
      </trkpt>
      <trkpt lat="46.15058" lon="4.45138">
        <ele>568.4</ele>
        <time>2025-09-08T08:04:51Z</time>
      </trkpt>
      <trkpt lat="46.15061" lon="4.45136">
        <ele>568.4</ele>
        <time>2025-09-08T08:04:52Z</time>
      </trkpt>
      <trkpt lat="46.15063" lon="4.45133">
        <ele>568.4</ele>
        <time>2025-09-08T08:04:53Z</time>
      </trkpt>
      <trkpt lat="46.15065" lon="4.45131">
        <ele>568.4</ele>
        <time>2025-09-08T08:04:54Z</time>
      </trkpt>
      <trkpt lat="46.15067" lon="4.45128">
        <ele>568.6</ele>
        <time>2025-09-08T08:04:55Z</time>
      </trkpt>
      <trkpt lat="46.15069" lon="4.45127">
        <ele>568.8</ele>
        <time>2025-09-08T08:04:56Z</time>
      </trkpt>
      <trkpt lat="46.15072" lon="4.45126">
        <ele>568.8</ele>
        <time>2025-09-08T08:04:57Z</time>
      </trkpt>
      <trkpt lat="46.15073" lon="4.45124">
        <ele>569.2</ele>
        <time>2025-09-08T08:04:58Z</time>
      </trkpt>
      <trkpt lat="46.15075" lon="4.45123">
        <ele>569.2</ele>
        <time>2025-09-08T08:04:59Z</time>
      </trkpt>
      <trkpt lat="46.15076" lon="4.45121">
        <ele>569.6</ele>
        <time>2025-09-08T08:05:00Z</time>
      </trkpt>
      <trkpt lat="46.15077" lon="4.45119">
        <ele>569.6</ele>
        <time>2025-09-08T08:05:01Z</time>
      </trkpt>
      <trkpt lat="46.15078" lon="4.45116">
        <ele>569.8</ele>
        <time>2025-09-08T08:05:02Z</time>
      </trkpt>
      <trkpt lat="46.15078" lon="4.45114">
        <ele>570</ele>
        <time>2025-09-08T08:05:03Z</time>
      </trkpt>
      <trkpt lat="46.15079" lon="4.45113">
        <ele>570.4</ele>
        <time>2025-09-08T08:05:04Z</time>
      </trkpt>
      <trkpt lat="46.1508" lon="4.45111">
        <ele>570.4</ele>
        <time>2025-09-08T08:05:05Z</time>
      </trkpt>
      <trkpt lat="46.15081" lon="4.45109">
        <ele>570.6</ele>
        <time>2025-09-08T08:05:06Z</time>
      </trkpt>
      <trkpt lat="46.15082" lon="4.45107">
        <ele>570.6</ele>
        <time>2025-09-08T08:05:07Z</time>
      </trkpt>
      <trkpt lat="46.15082" lon="4.45105">
        <ele>570.8</ele>
        <time>2025-09-08T08:05:08Z</time>
      </trkpt>
      <trkpt lat="46.15084" lon="4.45103">
        <ele>571.2</ele>
        <time>2025-09-08T08:05:09Z</time>
      </trkpt>
      <trkpt lat="46.15085" lon="4.45102">
        <ele>571.2</ele>
        <time>2025-09-08T08:05:10Z</time>
      </trkpt>
      <trkpt lat="46.15087" lon="4.45101">
        <ele>571.4</ele>
        <time>2025-09-08T08:05:11Z</time>
      </trkpt>
      <trkpt lat="46.15089" lon="4.451">
        <ele>571.4</ele>
        <time>2025-09-08T08:05:12Z</time>
      </trkpt>
      <trkpt lat="46.15091" lon="4.45099">
        <ele>571.4</ele>
        <time>2025-09-08T08:05:13Z</time>
      </trkpt>
      <trkpt lat="46.15093" lon="4.45098">
        <ele>571.8</ele>
        <time>2025-09-08T08:05:14Z</time>
      </trkpt>
      <trkpt lat="46.15095" lon="4.45096">
        <ele>571.8</ele>
        <time>2025-09-08T08:05:15Z</time>
      </trkpt>
      <trkpt lat="46.15097" lon="4.45095">
        <ele>571.8</ele>
        <time>2025-09-08T08:05:16Z</time>
      </trkpt>
      <trkpt lat="46.15099" lon="4.45093">
        <ele>572</ele>
        <time>2025-09-08T08:05:17Z</time>
      </trkpt>
      <trkpt lat="46.15102" lon="4.45092">
        <ele>572</ele>
        <time>2025-09-08T08:05:18Z</time>
      </trkpt>
      <trkpt lat="46.15105" lon="4.45089">
        <ele>572</ele>
        <time>2025-09-08T08:05:19Z</time>
      </trkpt>
      <trkpt lat="46.15108" lon="4.45086">
        <ele>571.6</ele>
        <time>2025-09-08T08:05:20Z</time>
      </trkpt>
      <trkpt lat="46.15111" lon="4.45084">
        <ele>571.4</ele>
        <time>2025-09-08T08:05:21Z</time>
      </trkpt>
      <trkpt lat="46.15116" lon="4.45083">
        <ele>571.2</ele>
        <time>2025-09-08T08:05:22Z</time>
      </trkpt>
      <trkpt lat="46.1512" lon="4.45079">
        <ele>571.2</ele>
        <time>2025-09-08T08:05:23Z</time>
      </trkpt>
      <trkpt lat="46.15125" lon="4.45075">
        <ele>570.8</ele>
        <time>2025-09-08T08:05:24Z</time>
      </trkpt>
      <trkpt lat="46.15131" lon="4.45071">
        <ele>570.4</ele>
        <time>2025-09-08T08:05:25Z</time>
      </trkpt>
      <trkpt lat="46.15134" lon="4.45067">
        <ele>570.4</ele>
        <time>2025-09-08T08:05:26Z</time>
      </trkpt>
      <trkpt lat="46.15138" lon="4.45064">
        <ele>570.2</ele>
        <time>2025-09-08T08:05:27Z</time>
      </trkpt>
      <trkpt lat="46.15141" lon="4.45062">
        <ele>569.8</ele>
        <time>2025-09-08T08:05:28Z</time>
      </trkpt>
      <trkpt lat="46.15142" lon="4.4506">
        <ele>569.6</ele>
        <time>2025-09-08T08:05:29Z</time>
      </trkpt>
      <trkpt lat="46.15142" lon="4.4506">
        <ele>569.2</ele>
        <time>2025-09-08T08:05:30Z</time>
      </trkpt>
      <trkpt lat="46.15143" lon="4.4506">
        <ele>569.2</ele>
        <time>2025-09-08T08:05:31Z</time>
      </trkpt>
      <trkpt lat="46.15143" lon="4.4506">
        <ele>569</ele>
        <time>2025-09-08T08:05:32Z</time>
      </trkpt>
      <trkpt lat="46.15143" lon="4.4506">
        <ele>569</ele>
        <time>2025-09-08T08:05:33Z</time>
      </trkpt>
      <trkpt lat="46.15146" lon="4.45058">
        <ele>568.8</ele>
        <time>2025-09-08T08:05:52Z</time>
      </trkpt>
      <trkpt lat="46.15147" lon="4.45057">
        <ele>568.8</ele>
        <time>2025-09-08T08:05:53Z</time>
      </trkpt>
      <trkpt lat="46.15149" lon="4.45059">
        <ele>568.8</ele>
        <time>2025-09-08T08:05:54Z</time>
      </trkpt>
      <trkpt lat="46.15153" lon="4.45056">
        <ele>568.8</ele>
        <time>2025-09-08T08:05:55Z</time>
      </trkpt>
      <trkpt lat="46.15155" lon="4.45053">
        <ele>568.6</ele>
        <time>2025-09-08T08:05:56Z</time>
      </trkpt>
      <trkpt lat="46.15158" lon="4.4505">
        <ele>568.6</ele>
        <time>2025-09-08T08:05:57Z</time>
      </trkpt>
      <trkpt lat="46.1516" lon="4.45047">
        <ele>568.2</ele>
        <time>2025-09-08T08:05:58Z</time>
      </trkpt>
      <trkpt lat="46.15163" lon="4.45043">
        <ele>568.2</ele>
        <time>2025-09-08T08:05:59Z</time>
      </trkpt>
      <trkpt lat="46.15165" lon="4.45039">
        <ele>568.2</ele>
        <time>2025-09-08T08:06:00Z</time>
      </trkpt>
      <trkpt lat="46.15166" lon="4.45034">
        <ele>568.6</ele>
        <time>2025-09-08T08:06:01Z</time>
      </trkpt>
      <trkpt lat="46.15167" lon="4.45029">
        <ele>568.8</ele>
        <time>2025-09-08T08:06:02Z</time>
      </trkpt>
      <trkpt lat="46.15166" lon="4.45025">
        <ele>568.8</ele>
        <time>2025-09-08T08:06:03Z</time>
      </trkpt>
      <trkpt lat="46.15166" lon="4.45021">
        <ele>569.2</ele>
        <time>2025-09-08T08:06:04Z</time>
      </trkpt>
      <trkpt lat="46.15166" lon="4.45017">
        <ele>569.2</ele>
        <time>2025-09-08T08:06:05Z</time>
      </trkpt>
      <trkpt lat="46.15166" lon="4.45014">
        <ele>569.4</ele>
        <time>2025-09-08T08:06:06Z</time>
      </trkpt>
      <trkpt lat="46.15166" lon="4.45011">
        <ele>569.4</ele>
        <time>2025-09-08T08:06:07Z</time>
      </trkpt>
      <trkpt lat="46.15166" lon="4.45008">
        <ele>569.4</ele>
        <time>2025-09-08T08:06:08Z</time>
      </trkpt>
      <trkpt lat="46.15165" lon="4.45005">
        <ele>569.8</ele>
        <time>2025-09-08T08:06:09Z</time>
      </trkpt>
      <trkpt lat="46.15165" lon="4.45003">
        <ele>569.8</ele>
        <time>2025-09-08T08:06:10Z</time>
      </trkpt>
      <trkpt lat="46.15165" lon="4.45">
        <ele>569.8</ele>
        <time>2025-09-08T08:06:11Z</time>
      </trkpt>
      <trkpt lat="46.15165" lon="4.44998">
        <ele>570.2</ele>
        <time>2025-09-08T08:06:12Z</time>
      </trkpt>
      <trkpt lat="46.15165" lon="4.44995">
        <ele>570.6</ele>
        <time>2025-09-08T08:06:13Z</time>
      </trkpt>
      <trkpt lat="46.15165" lon="4.44992">
        <ele>570.6</ele>
        <time>2025-09-08T08:06:14Z</time>
      </trkpt>
      <trkpt lat="46.15165" lon="4.44991">
        <ele>570.8</ele>
        <time>2025-09-08T08:06:15Z</time>
      </trkpt>
      <trkpt lat="46.15165" lon="4.44988">
        <ele>571</ele>
        <time>2025-09-08T08:06:16Z</time>
      </trkpt>
      <trkpt lat="46.15164" lon="4.44986">
        <ele>571</ele>
        <time>2025-09-08T08:06:17Z</time>
      </trkpt>
      <trkpt lat="46.15164" lon="4.44983">
        <ele>571.4</ele>
        <time>2025-09-08T08:06:18Z</time>
      </trkpt>
      <trkpt lat="46.15164" lon="4.44981">
        <ele>571.4</ele>
        <time>2025-09-08T08:06:19Z</time>
      </trkpt>
      <trkpt lat="46.15164" lon="4.44978">
        <ele>571.6</ele>
        <time>2025-09-08T08:06:20Z</time>
      </trkpt>
      <trkpt lat="46.15164" lon="4.44975">
        <ele>571.6</ele>
        <time>2025-09-08T08:06:21Z</time>
      </trkpt>
      <trkpt lat="46.15164" lon="4.44973">
        <ele>571.6</ele>
        <time>2025-09-08T08:06:22Z</time>
      </trkpt>
      <trkpt lat="46.15165" lon="4.44971">
        <ele>572</ele>
        <time>2025-09-08T08:06:23Z</time>
      </trkpt>
      <trkpt lat="46.15165" lon="4.44968">
        <ele>572</ele>
        <time>2025-09-08T08:06:24Z</time>
      </trkpt>
      <trkpt lat="46.15165" lon="4.44966">
        <ele>572.2</ele>
        <time>2025-09-08T08:06:25Z</time>
      </trkpt>
      <trkpt lat="46.15164" lon="4.44964">
        <ele>572.2</ele>
        <time>2025-09-08T08:06:26Z</time>
      </trkpt>
      <trkpt lat="46.15165" lon="4.44962">
        <ele>572.2</ele>
        <time>2025-09-08T08:06:27Z</time>
      </trkpt>
      <trkpt lat="46.15165" lon="4.4496">
        <ele>572.4</ele>
        <time>2025-09-08T08:06:28Z</time>
      </trkpt>
      <trkpt lat="46.15165" lon="4.44958">
        <ele>572.4</ele>
        <time>2025-09-08T08:06:29Z</time>
      </trkpt>
      <trkpt lat="46.15166" lon="4.44956">
        <ele>573</ele>
        <time>2025-09-08T08:06:30Z</time>
      </trkpt>
      <trkpt lat="46.15166" lon="4.44954">
        <ele>573.2</ele>
        <time>2025-09-08T08:06:31Z</time>
      </trkpt>
      <trkpt lat="46.15166" lon="4.44951">
        <ele>573.2</ele>
        <time>2025-09-08T08:06:32Z</time>
      </trkpt>
      <trkpt lat="46.15166" lon="4.44949">
        <ele>573.4</ele>
        <time>2025-09-08T08:06:33Z</time>
      </trkpt>
      <trkpt lat="46.15166" lon="4.44946">
        <ele>573.6</ele>
        <time>2025-09-08T08:06:34Z</time>
      </trkpt>
      <trkpt lat="46.15166" lon="4.44945">
        <ele>573.6</ele>
        <time>2025-09-08T08:06:35Z</time>
      </trkpt>
      <trkpt lat="46.15166" lon="4.44943">
        <ele>574</ele>
        <time>2025-09-08T08:06:36Z</time>
      </trkpt>
      <trkpt lat="46.15166" lon="4.44941">
        <ele>574</ele>
        <time>2025-09-08T08:06:37Z</time>
      </trkpt>
      <trkpt lat="46.15166" lon="4.44939">
        <ele>574.2</ele>
        <time>2025-09-08T08:06:38Z</time>
      </trkpt>
      <trkpt lat="46.15166" lon="4.44936">
        <ele>574.2</ele>
        <time>2025-09-08T08:06:39Z</time>
      </trkpt>
      <trkpt lat="46.15166" lon="4.44934">
        <ele>574.6</ele>
        <time>2025-09-08T08:06:40Z</time>
      </trkpt>
      <trkpt lat="46.15166" lon="4.44932">
        <ele>574.8</ele>
        <time>2025-09-08T08:06:41Z</time>
      </trkpt>
      <trkpt lat="46.15166" lon="4.4493">
        <ele>574.8</ele>
        <time>2025-09-08T08:06:42Z</time>
      </trkpt>
      <trkpt lat="46.15167" lon="4.44928">
        <ele>575</ele>
        <time>2025-09-08T08:06:43Z</time>
      </trkpt>
      <trkpt lat="46.15167" lon="4.44926">
        <ele>575</ele>
        <time>2025-09-08T08:06:44Z</time>
      </trkpt>
      <trkpt lat="46.15166" lon="4.44923">
        <ele>575.4</ele>
        <time>2025-09-08T08:06:45Z</time>
      </trkpt>
      <trkpt lat="46.15166" lon="4.44921">
        <ele>575.4</ele>
        <time>2025-09-08T08:06:46Z</time>
      </trkpt>
      <trkpt lat="46.15165" lon="4.44919">
        <ele>575.8</ele>
        <time>2025-09-08T08:06:47Z</time>
      </trkpt>
      <trkpt lat="46.15165" lon="4.44917">
        <ele>576</ele>
        <time>2025-09-08T08:06:48Z</time>
      </trkpt>
      <trkpt lat="46.15165" lon="4.44914">
        <ele>576.4</ele>
        <time>2025-09-08T08:06:49Z</time>
      </trkpt>
      <trkpt lat="46.15165" lon="4.44912">
        <ele>576.4</ele>
        <time>2025-09-08T08:06:50Z</time>
      </trkpt>
      <trkpt lat="46.15165" lon="4.4491">
        <ele>576.6</ele>
        <time>2025-09-08T08:06:51Z</time>
      </trkpt>
      <trkpt lat="46.15165" lon="4.44908">
        <ele>576.6</ele>
        <time>2025-09-08T08:06:52Z</time>
      </trkpt>
      <trkpt lat="46.15165" lon="4.44906">
        <ele>576.8</ele>
        <time>2025-09-08T08:06:53Z</time>
      </trkpt>
      <trkpt lat="46.15165" lon="4.44903">
        <ele>577.2</ele>
        <time>2025-09-08T08:06:54Z</time>
      </trkpt>
      <trkpt lat="46.15165" lon="4.44901">
        <ele>577.4</ele>
        <time>2025-09-08T08:06:55Z</time>
      </trkpt>
      <trkpt lat="46.15166" lon="4.44899">
        <ele>577.4</ele>
        <time>2025-09-08T08:06:56Z</time>
      </trkpt>
      <trkpt lat="46.15166" lon="4.44897">
        <ele>577.8</ele>
        <time>2025-09-08T08:06:57Z</time>
      </trkpt>
      <trkpt lat="46.15167" lon="4.44895">
        <ele>577.8</ele>
        <time>2025-09-08T08:06:58Z</time>
      </trkpt>
      <trkpt lat="46.15167" lon="4.44892">
        <ele>578.2</ele>
        <time>2025-09-08T08:06:59Z</time>
      </trkpt>
      <trkpt lat="46.15168" lon="4.4489">
        <ele>578.2</ele>
        <time>2025-09-08T08:07:00Z</time>
      </trkpt>
      <trkpt lat="46.15169" lon="4.44888">
        <ele>578.4</ele>
        <time>2025-09-08T08:07:01Z</time>
      </trkpt>
      <trkpt lat="46.15169" lon="4.44886">
        <ele>578.4</ele>
        <time>2025-09-08T08:07:02Z</time>
      </trkpt>
      <trkpt lat="46.1517" lon="4.44885">
        <ele>578.4</ele>
        <time>2025-09-08T08:07:03Z</time>
      </trkpt>
      <trkpt lat="46.1517" lon="4.44883">
        <ele>578.4</ele>
        <time>2025-09-08T08:07:04Z</time>
      </trkpt>
      <trkpt lat="46.15171" lon="4.44881">
        <ele>578.4</ele>
        <time>2025-09-08T08:07:05Z</time>
      </trkpt>
      <trkpt lat="46.15172" lon="4.4488">
        <ele>578.4</ele>
        <time>2025-09-08T08:07:06Z</time>
      </trkpt>
      <trkpt lat="46.15173" lon="4.44879">
        <ele>578.4</ele>
        <time>2025-09-08T08:07:07Z</time>
      </trkpt>
      <trkpt lat="46.15174" lon="4.44878">
        <ele>578</ele>
        <time>2025-09-08T08:07:08Z</time>
      </trkpt>
      <trkpt lat="46.15174" lon="4.44879">
        <ele>578</ele>
        <time>2025-09-08T08:07:09Z</time>
      </trkpt>
      <trkpt lat="46.15175" lon="4.44881">
        <ele>577.8</ele>
        <time>2025-09-08T08:08:17Z</time>
      </trkpt>
      <trkpt lat="46.15176" lon="4.44879">
        <ele>577.8</ele>
        <time>2025-09-08T08:08:18Z</time>
      </trkpt>
      <trkpt lat="46.15178" lon="4.44877">
        <ele>577.8</ele>
        <time>2025-09-08T08:08:19Z</time>
      </trkpt>
      <trkpt lat="46.1518" lon="4.44874">
        <ele>577.2</ele>
        <time>2025-09-08T08:08:20Z</time>
      </trkpt>
      <trkpt lat="46.15183" lon="4.44872">
        <ele>577</ele>
        <time>2025-09-08T08:08:21Z</time>
      </trkpt>
      <trkpt lat="46.15185" lon="4.44868">
        <ele>577</ele>
        <time>2025-09-08T08:08:22Z</time>
      </trkpt>
      <trkpt lat="46.15188" lon="4.44864">
        <ele>576.6</ele>
        <time>2025-09-08T08:08:23Z</time>
      </trkpt>
      <trkpt lat="46.1519" lon="4.44859">
        <ele>576.6</ele>
        <time>2025-09-08T08:08:24Z</time>
      </trkpt>
      <trkpt lat="46.15192" lon="4.44854">
        <ele>576.6</ele>
        <time>2025-09-08T08:08:25Z</time>
      </trkpt>
      <trkpt lat="46.15192" lon="4.44849">
        <ele>576.6</ele>
        <time>2025-09-08T08:08:26Z</time>
      </trkpt>
      <trkpt lat="46.15193" lon="4.44843">
        <ele>576.6</ele>
        <time>2025-09-08T08:08:27Z</time>
      </trkpt>
      <trkpt lat="46.15194" lon="4.44836">
        <ele>576.6</ele>
        <time>2025-09-08T08:08:28Z</time>
      </trkpt>
      <trkpt lat="46.15194" lon="4.4483">
        <ele>576.6</ele>
        <time>2025-09-08T08:08:29Z</time>
      </trkpt>
      <trkpt lat="46.15194" lon="4.44824">
        <ele>576.6</ele>
        <time>2025-09-08T08:08:30Z</time>
      </trkpt>
      <trkpt lat="46.15194" lon="4.44818">
        <ele>576.6</ele>
        <time>2025-09-08T08:08:31Z</time>
      </trkpt>
      <trkpt lat="46.15194" lon="4.44812">
        <ele>576.6</ele>
        <time>2025-09-08T08:08:32Z</time>
      </trkpt>
      <trkpt lat="46.15194" lon="4.44807">
        <ele>577</ele>
        <time>2025-09-08T08:08:33Z</time>
      </trkpt>
      <trkpt lat="46.15194" lon="4.44803">
        <ele>577</ele>
        <time>2025-09-08T08:08:34Z</time>
      </trkpt>
      <trkpt lat="46.15194" lon="4.448">
        <ele>577</ele>
        <time>2025-09-08T08:08:35Z</time>
      </trkpt>
      <trkpt lat="46.15194" lon="4.44795">
        <ele>577.4</ele>
        <time>2025-09-08T08:08:36Z</time>
      </trkpt>
      <trkpt lat="46.15194" lon="4.4479">
        <ele>577.4</ele>
        <time>2025-09-08T08:08:37Z</time>
      </trkpt>
      <trkpt lat="46.15194" lon="4.44784">
        <ele>577.6</ele>
        <time>2025-09-08T08:08:38Z</time>
      </trkpt>
      <trkpt lat="46.15194" lon="4.44778">
        <ele>577.6</ele>
        <time>2025-09-08T08:08:39Z</time>
      </trkpt>
      <trkpt lat="46.15194" lon="4.44773">
        <ele>577.6</ele>
        <time>2025-09-08T08:08:40Z</time>
      </trkpt>
      <trkpt lat="46.15193" lon="4.44767">
        <ele>578</ele>
        <time>2025-09-08T08:08:41Z</time>
      </trkpt>
      <trkpt lat="46.15193" lon="4.44762">
        <ele>578</ele>
        <time>2025-09-08T08:08:42Z</time>
      </trkpt>
      <trkpt lat="46.15192" lon="4.44757">
        <ele>578</ele>
        <time>2025-09-08T08:08:43Z</time>
      </trkpt>
      <trkpt lat="46.15191" lon="4.44752">
        <ele>578.2</ele>
        <time>2025-09-08T08:08:44Z</time>
      </trkpt>
      <trkpt lat="46.15191" lon="4.44746">
        <ele>578.2</ele>
        <time>2025-09-08T08:08:45Z</time>
      </trkpt>
      <trkpt lat="46.1519" lon="4.44741">
        <ele>578.2</ele>
        <time>2025-09-08T08:08:46Z</time>
      </trkpt>
      <trkpt lat="46.1519" lon="4.44736">
        <ele>578.2</ele>
        <time>2025-09-08T08:08:47Z</time>
      </trkpt>
      <trkpt lat="46.15189" lon="4.44731">
        <ele>578.2</ele>
        <time>2025-09-08T08:08:48Z</time>
      </trkpt>
      <trkpt lat="46.15189" lon="4.44726">
        <ele>578.4</ele>
        <time>2025-09-08T08:08:49Z</time>
      </trkpt>
      <trkpt lat="46.15189" lon="4.4472">
        <ele>578.4</ele>
        <time>2025-09-08T08:08:50Z</time>
      </trkpt>
      <trkpt lat="46.15189" lon="4.44716">
        <ele>578.4</ele>
        <time>2025-09-08T08:08:51Z</time>
      </trkpt>
      <trkpt lat="46.15189" lon="4.44711">
        <ele>578.4</ele>
        <time>2025-09-08T08:08:52Z</time>
      </trkpt>
      <trkpt lat="46.15188" lon="4.44706">
        <ele>578.4</ele>
        <time>2025-09-08T08:08:53Z</time>
      </trkpt>
      <trkpt lat="46.15188" lon="4.44701">
        <ele>578.4</ele>
        <time>2025-09-08T08:08:54Z</time>
      </trkpt>
      <trkpt lat="46.15188" lon="4.44697">
        <ele>578.4</ele>
        <time>2025-09-08T08:08:55Z</time>
      </trkpt>
      <trkpt lat="46.15188" lon="4.44692">
        <ele>578.4</ele>
        <time>2025-09-08T08:08:56Z</time>
      </trkpt>
      <trkpt lat="46.15189" lon="4.44687">
        <ele>578.6</ele>
        <time>2025-09-08T08:08:57Z</time>
      </trkpt>
      <trkpt lat="46.15192" lon="4.44683">
        <ele>578.6</ele>
        <time>2025-09-08T08:08:58Z</time>
      </trkpt>
      <trkpt lat="46.15194" lon="4.44679">
        <ele>578.6</ele>
        <time>2025-09-08T08:08:59Z</time>
      </trkpt>
      <trkpt lat="46.15197" lon="4.44676">
        <ele>578.6</ele>
        <time>2025-09-08T08:09:00Z</time>
      </trkpt>
      <trkpt lat="46.15199" lon="4.44674">
        <ele>578.6</ele>
        <time>2025-09-08T08:09:01Z</time>
      </trkpt>
      <trkpt lat="46.15202" lon="4.44671">
        <ele>578.6</ele>
        <time>2025-09-08T08:09:02Z</time>
      </trkpt>
      <trkpt lat="46.15205" lon="4.44669">
        <ele>578.6</ele>
        <time>2025-09-08T08:09:03Z</time>
      </trkpt>
      <trkpt lat="46.15208" lon="4.44666">
        <ele>578.6</ele>
        <time>2025-09-08T08:09:04Z</time>
      </trkpt>
      <trkpt lat="46.15211" lon="4.44664">
        <ele>578.8</ele>
        <time>2025-09-08T08:09:05Z</time>
      </trkpt>
      <trkpt lat="46.15214" lon="4.44661">
        <ele>579.2</ele>
        <time>2025-09-08T08:09:06Z</time>
      </trkpt>
      <trkpt lat="46.15217" lon="4.44659">
        <ele>579.2</ele>
        <time>2025-09-08T08:09:07Z</time>
      </trkpt>
      <trkpt lat="46.1522" lon="4.44656">
        <ele>579.4</ele>
        <time>2025-09-08T08:09:08Z</time>
      </trkpt>
      <trkpt lat="46.15223" lon="4.44653">
        <ele>579.4</ele>
        <time>2025-09-08T08:09:09Z</time>
      </trkpt>
      <trkpt lat="46.15226" lon="4.44651">
        <ele>579.8</ele>
        <time>2025-09-08T08:09:10Z</time>
      </trkpt>
      <trkpt lat="46.15229" lon="4.44648">
        <ele>579.8</ele>
        <time>2025-09-08T08:09:11Z</time>
      </trkpt>
      <trkpt lat="46.15231" lon="4.44645">
        <ele>580</ele>
        <time>2025-09-08T08:09:12Z</time>
      </trkpt>
      <trkpt lat="46.15234" lon="4.44642">
        <ele>580</ele>
        <time>2025-09-08T08:09:13Z</time>
      </trkpt>
      <trkpt lat="46.15236" lon="4.44639">
        <ele>580.4</ele>
        <time>2025-09-08T08:09:14Z</time>
      </trkpt>
      <trkpt lat="46.15239" lon="4.44632">
        <ele>580.4</ele>
        <time>2025-09-08T08:09:15Z</time>
      </trkpt>
      <trkpt lat="46.15242" lon="4.44629">
        <ele>580.6</ele>
        <time>2025-09-08T08:09:16Z</time>
      </trkpt>
      <trkpt lat="46.15244" lon="4.44626">
        <ele>580.6</ele>
        <time>2025-09-08T08:09:17Z</time>
      </trkpt>
      <trkpt lat="46.15246" lon="4.44624">
        <ele>580.6</ele>
        <time>2025-09-08T08:09:18Z</time>
      </trkpt>
      <trkpt lat="46.15247" lon="4.44621">
        <ele>581</ele>
        <time>2025-09-08T08:09:19Z</time>
      </trkpt>
      <trkpt lat="46.15249" lon="4.44618">
        <ele>581</ele>
        <time>2025-09-08T08:09:20Z</time>
      </trkpt>
      <trkpt lat="46.15251" lon="4.44616">
        <ele>581</ele>
        <time>2025-09-08T08:09:21Z</time>
      </trkpt>
      <trkpt lat="46.15252" lon="4.44614">
        <ele>581.4</ele>
        <time>2025-09-08T08:09:22Z</time>
      </trkpt>
      <trkpt lat="46.15254" lon="4.44613">
        <ele>581.4</ele>
        <time>2025-09-08T08:09:23Z</time>
      </trkpt>
      <trkpt lat="46.15255" lon="4.44611">
        <ele>582</ele>
        <time>2025-09-08T08:09:24Z</time>
      </trkpt>
      <trkpt lat="46.15256" lon="4.4461">
        <ele>582.4</ele>
        <time>2025-09-08T08:09:25Z</time>
      </trkpt>
      <trkpt lat="46.15257" lon="4.44609">
        <ele>582.6</ele>
        <time>2025-09-08T08:09:26Z</time>
      </trkpt>
      <trkpt lat="46.15258" lon="4.44607">
        <ele>583</ele>
        <time>2025-09-08T08:09:27Z</time>
      </trkpt>
      <trkpt lat="46.15259" lon="4.44606">
        <ele>583</ele>
        <time>2025-09-08T08:09:28Z</time>
      </trkpt>
      <trkpt lat="46.1526" lon="4.44604">
        <ele>583.4</ele>
        <time>2025-09-08T08:09:29Z</time>
      </trkpt>
      <trkpt lat="46.15262" lon="4.44603">
        <ele>583.4</ele>
        <time>2025-09-08T08:09:30Z</time>
      </trkpt>
      <trkpt lat="46.15263" lon="4.44601">
        <ele>583.6</ele>
        <time>2025-09-08T08:09:31Z</time>
      </trkpt>
      <trkpt lat="46.15264" lon="4.446">
        <ele>583.6</ele>
        <time>2025-09-08T08:09:32Z</time>
      </trkpt>
      <trkpt lat="46.15265" lon="4.44598">
        <ele>583.8</ele>
        <time>2025-09-08T08:09:33Z</time>
      </trkpt>
      <trkpt lat="46.15266" lon="4.44597">
        <ele>583.8</ele>
        <time>2025-09-08T08:09:34Z</time>
      </trkpt>
      <trkpt lat="46.15267" lon="4.44596">
        <ele>584.2</ele>
        <time>2025-09-08T08:09:35Z</time>
      </trkpt>
      <trkpt lat="46.15269" lon="4.44595">
        <ele>584.2</ele>
        <time>2025-09-08T08:09:36Z</time>
      </trkpt>
      <trkpt lat="46.1527" lon="4.44594">
        <ele>584.4</ele>
        <time>2025-09-08T08:09:37Z</time>
      </trkpt>
      <trkpt lat="46.15272" lon="4.44592">
        <ele>584.6</ele>
        <time>2025-09-08T08:09:38Z</time>
      </trkpt>
      <trkpt lat="46.15273" lon="4.4459">
        <ele>584.6</ele>
        <time>2025-09-08T08:09:39Z</time>
      </trkpt>
      <trkpt lat="46.15274" lon="4.44589">
        <ele>585</ele>
        <time>2025-09-08T08:09:40Z</time>
      </trkpt>
      <trkpt lat="46.15275" lon="4.44587">
        <ele>585.2</ele>
        <time>2025-09-08T08:09:41Z</time>
      </trkpt>
      <trkpt lat="46.15276" lon="4.44585">
        <ele>585.2</ele>
        <time>2025-09-08T08:09:42Z</time>
      </trkpt>
      <trkpt lat="46.15277" lon="4.44584">
        <ele>585.4</ele>
        <time>2025-09-08T08:09:43Z</time>
      </trkpt>
      <trkpt lat="46.15277" lon="4.44582">
        <ele>585.4</ele>
        <time>2025-09-08T08:09:44Z</time>
      </trkpt>
      <trkpt lat="46.15278" lon="4.4458">
        <ele>585.4</ele>
        <time>2025-09-08T08:09:45Z</time>
      </trkpt>
      <trkpt lat="46.15279" lon="4.44578">
        <ele>585.8</ele>
        <time>2025-09-08T08:09:46Z</time>
      </trkpt>
      <trkpt lat="46.15279" lon="4.44577">
        <ele>585.8</ele>
        <time>2025-09-08T08:09:47Z</time>
      </trkpt>
      <trkpt lat="46.1528" lon="4.44575">
        <ele>586.2</ele>
        <time>2025-09-08T08:09:48Z</time>
      </trkpt>
      <trkpt lat="46.15281" lon="4.44573">
        <ele>586.2</ele>
        <time>2025-09-08T08:09:49Z</time>
      </trkpt>
      <trkpt lat="46.15281" lon="4.44572">
        <ele>586.2</ele>
        <time>2025-09-08T08:09:50Z</time>
      </trkpt>
      <trkpt lat="46.15282" lon="4.4457">
        <ele>586.4</ele>
        <time>2025-09-08T08:09:51Z</time>
      </trkpt>
      <trkpt lat="46.15282" lon="4.44569">
        <ele>586.6</ele>
        <time>2025-09-08T08:09:52Z</time>
      </trkpt>
      <trkpt lat="46.15283" lon="4.44567">
        <ele>586.8</ele>
        <time>2025-09-08T08:09:53Z</time>
      </trkpt>
      <trkpt lat="46.15283" lon="4.44565">
        <ele>586.8</ele>
        <time>2025-09-08T08:09:54Z</time>
      </trkpt>
      <trkpt lat="46.15283" lon="4.44563">
        <ele>587.2</ele>
        <time>2025-09-08T08:09:55Z</time>
      </trkpt>
      <trkpt lat="46.15284" lon="4.44561">
        <ele>587.2</ele>
        <time>2025-09-08T08:09:56Z</time>
      </trkpt>
      <trkpt lat="46.15284" lon="4.4456">
        <ele>587.6</ele>
        <time>2025-09-08T08:09:57Z</time>
      </trkpt>
      <trkpt lat="46.15284" lon="4.44558">
        <ele>587.6</ele>
        <time>2025-09-08T08:09:58Z</time>
      </trkpt>
      <trkpt lat="46.15284" lon="4.44556">
        <ele>587.6</ele>
        <time>2025-09-08T08:09:59Z</time>
      </trkpt>
      <trkpt lat="46.15284" lon="4.44554">
        <ele>587.8</ele>
        <time>2025-09-08T08:10:00Z</time>
      </trkpt>
      <trkpt lat="46.15284" lon="4.44552">
        <ele>588</ele>
        <time>2025-09-08T08:10:01Z</time>
      </trkpt>
      <trkpt lat="46.15284" lon="4.44549">
        <ele>588</ele>
        <time>2025-09-08T08:10:02Z</time>
      </trkpt>
      <trkpt lat="46.15284" lon="4.44548">
        <ele>588.2</ele>
        <time>2025-09-08T08:10:03Z</time>
      </trkpt>
      <trkpt lat="46.15283" lon="4.44546">
        <ele>588.2</ele>
        <time>2025-09-08T08:10:04Z</time>
      </trkpt>
      <trkpt lat="46.15283" lon="4.44543">
        <ele>588.4</ele>
        <time>2025-09-08T08:10:05Z</time>
      </trkpt>
      <trkpt lat="46.15282" lon="4.44541">
        <ele>588.4</ele>
        <time>2025-09-08T08:10:06Z</time>
      </trkpt>
      <trkpt lat="46.15281" lon="4.44539">
        <ele>588.4</ele>
        <time>2025-09-08T08:10:07Z</time>
      </trkpt>
      <trkpt lat="46.1528" lon="4.44538">
        <ele>588.4</ele>
        <time>2025-09-08T08:10:08Z</time>
      </trkpt>
      <trkpt lat="46.15279" lon="4.44536">
        <ele>588.8</ele>
        <time>2025-09-08T08:10:09Z</time>
      </trkpt>
      <trkpt lat="46.15278" lon="4.44535">
        <ele>588.8</ele>
        <time>2025-09-08T08:10:10Z</time>
      </trkpt>
      <trkpt lat="46.15277" lon="4.44534">
        <ele>588.8</ele>
        <time>2025-09-08T08:10:11Z</time>
      </trkpt>
      <trkpt lat="46.15276" lon="4.44533">
        <ele>589</ele>
        <time>2025-09-08T08:10:12Z</time>
      </trkpt>
      <trkpt lat="46.15275" lon="4.44533">
        <ele>589</ele>
        <time>2025-09-08T08:10:13Z</time>
      </trkpt>
      <trkpt lat="46.15274" lon="4.44532">
        <ele>589.2</ele>
        <time>2025-09-08T08:10:14Z</time>
      </trkpt>
      <trkpt lat="46.15274" lon="4.4453">
        <ele>589.4</ele>
        <time>2025-09-08T08:10:15Z</time>
      </trkpt>
      <trkpt lat="46.15273" lon="4.44529">
        <ele>589.4</ele>
        <time>2025-09-08T08:10:16Z</time>
      </trkpt>
      <trkpt lat="46.15272" lon="4.44527">
        <ele>589.6</ele>
        <time>2025-09-08T08:10:17Z</time>
      </trkpt>
      <trkpt lat="46.15272" lon="4.44525">
        <ele>589.6</ele>
        <time>2025-09-08T08:10:18Z</time>
      </trkpt>
      <trkpt lat="46.1527" lon="4.44524">
        <ele>589.8</ele>
        <time>2025-09-08T08:10:19Z</time>
      </trkpt>
      <trkpt lat="46.15269" lon="4.44522">
        <ele>589.8</ele>
        <time>2025-09-08T08:10:20Z</time>
      </trkpt>
      <trkpt lat="46.15269" lon="4.4452">
        <ele>590</ele>
        <time>2025-09-08T08:10:21Z</time>
      </trkpt>
      <trkpt lat="46.15268" lon="4.44518">
        <ele>590.4</ele>
        <time>2025-09-08T08:10:22Z</time>
      </trkpt>
      <trkpt lat="46.15267" lon="4.44517">
        <ele>590.6</ele>
        <time>2025-09-08T08:10:23Z</time>
      </trkpt>
      <trkpt lat="46.15265" lon="4.44515">
        <ele>590.6</ele>
        <time>2025-09-08T08:10:24Z</time>
      </trkpt>
      <trkpt lat="46.15264" lon="4.44514">
        <ele>590.6</ele>
        <time>2025-09-08T08:10:25Z</time>
      </trkpt>
      <trkpt lat="46.15263" lon="4.44512">
        <ele>590.6</ele>
        <time>2025-09-08T08:10:26Z</time>
      </trkpt>
      <trkpt lat="46.15262" lon="4.44511">
        <ele>591</ele>
        <time>2025-09-08T08:10:27Z</time>
      </trkpt>
      <trkpt lat="46.15261" lon="4.44509">
        <ele>591</ele>
        <time>2025-09-08T08:10:28Z</time>
      </trkpt>
      <trkpt lat="46.1526" lon="4.44507">
        <ele>591</ele>
        <time>2025-09-08T08:10:29Z</time>
      </trkpt>
      <trkpt lat="46.1526" lon="4.44507">
        <ele>591.4</ele>
        <time>2025-09-08T08:10:30Z</time>
      </trkpt>
      <trkpt lat="46.15259" lon="4.44505">
        <ele>590.6</ele>
        <time>2025-09-08T08:10:31Z</time>
      </trkpt>
      <trkpt lat="46.15258" lon="4.44503">
        <ele>591.2</ele>
        <time>2025-09-08T08:10:32Z</time>
      </trkpt>
      <trkpt lat="46.15256" lon="4.44502">
        <ele>591.2</ele>
        <time>2025-09-08T08:10:33Z</time>
      </trkpt>
      <trkpt lat="46.15255" lon="4.44501">
        <ele>591.4</ele>
        <time>2025-09-08T08:10:34Z</time>
      </trkpt>
      <trkpt lat="46.15254" lon="4.44499">
        <ele>591.4</ele>
        <time>2025-09-08T08:10:35Z</time>
      </trkpt>
      <trkpt lat="46.15253" lon="4.44498">
        <ele>591.4</ele>
        <time>2025-09-08T08:10:36Z</time>
      </trkpt>
      <trkpt lat="46.15252" lon="4.44497">
        <ele>591.4</ele>
        <time>2025-09-08T08:10:37Z</time>
      </trkpt>
      <trkpt lat="46.15251" lon="4.44496">
        <ele>591.8</ele>
        <time>2025-09-08T08:10:38Z</time>
      </trkpt>
      <trkpt lat="46.15249" lon="4.44495">
        <ele>591.8</ele>
        <time>2025-09-08T08:10:39Z</time>
      </trkpt>
      <trkpt lat="46.15248" lon="4.44495">
        <ele>592</ele>
        <time>2025-09-08T08:10:40Z</time>
      </trkpt>
      <trkpt lat="46.15246" lon="4.44494">
        <ele>592</ele>
        <time>2025-09-08T08:10:41Z</time>
      </trkpt>
      <trkpt lat="46.15245" lon="4.44493">
        <ele>592.2</ele>
        <time>2025-09-08T08:10:42Z</time>
      </trkpt>
      <trkpt lat="46.15244" lon="4.44492">
        <ele>592.2</ele>
        <time>2025-09-08T08:10:43Z</time>
      </trkpt>
      <trkpt lat="46.15242" lon="4.44492">
        <ele>592.2</ele>
        <time>2025-09-08T08:10:44Z</time>
      </trkpt>
      <trkpt lat="46.1524" lon="4.44491">
        <ele>592.6</ele>
        <time>2025-09-08T08:10:45Z</time>
      </trkpt>
      <trkpt lat="46.15239" lon="4.4449">
        <ele>592.6</ele>
        <time>2025-09-08T08:10:46Z</time>
      </trkpt>
      <trkpt lat="46.15238" lon="4.4449">
        <ele>592.6</ele>
        <time>2025-09-08T08:10:47Z</time>
      </trkpt>
      <trkpt lat="46.15236" lon="4.44488">
        <ele>592.8</ele>
        <time>2025-09-08T08:10:48Z</time>
      </trkpt>
      <trkpt lat="46.15235" lon="4.44487">
        <ele>592.8</ele>
        <time>2025-09-08T08:10:49Z</time>
      </trkpt>
      <trkpt lat="46.15233" lon="4.44486">
        <ele>592.8</ele>
        <time>2025-09-08T08:10:50Z</time>
      </trkpt>
      <trkpt lat="46.15232" lon="4.44485">
        <ele>593.2</ele>
        <time>2025-09-08T08:10:51Z</time>
      </trkpt>
      <trkpt lat="46.1523" lon="4.44484">
        <ele>593.2</ele>
        <time>2025-09-08T08:10:52Z</time>
      </trkpt>
      <trkpt lat="46.15229" lon="4.44483">
        <ele>593.2</ele>
        <time>2025-09-08T08:10:53Z</time>
      </trkpt>
      <trkpt lat="46.15228" lon="4.44482">
        <ele>593.4</ele>
        <time>2025-09-08T08:10:54Z</time>
      </trkpt>
      <trkpt lat="46.15227" lon="4.44481">
        <ele>593.4</ele>
        <time>2025-09-08T08:10:55Z</time>
      </trkpt>
      <trkpt lat="46.15226" lon="4.44479">
        <ele>593.8</ele>
        <time>2025-09-08T08:10:56Z</time>
      </trkpt>
      <trkpt lat="46.15225" lon="4.44477">
        <ele>593.8</ele>
        <time>2025-09-08T08:10:57Z</time>
      </trkpt>
      <trkpt lat="46.15224" lon="4.44475">
        <ele>594</ele>
        <time>2025-09-08T08:10:58Z</time>
      </trkpt>
      <trkpt lat="46.15224" lon="4.44473">
        <ele>594</ele>
        <time>2025-09-08T08:10:59Z</time>
      </trkpt>
      <trkpt lat="46.15223" lon="4.44472">
        <ele>594</ele>
        <time>2025-09-08T08:11:00Z</time>
      </trkpt>
      <trkpt lat="46.15222" lon="4.4447">
        <ele>594.2</ele>
        <time>2025-09-08T08:11:01Z</time>
      </trkpt>
      <trkpt lat="46.1522" lon="4.44468">
        <ele>594.2</ele>
        <time>2025-09-08T08:11:02Z</time>
      </trkpt>
      <trkpt lat="46.15219" lon="4.44466">
        <ele>594.4</ele>
        <time>2025-09-08T08:11:03Z</time>
      </trkpt>
      <trkpt lat="46.15218" lon="4.44465">
        <ele>594.4</ele>
        <time>2025-09-08T08:11:04Z</time>
      </trkpt>
      <trkpt lat="46.15216" lon="4.44463">
        <ele>594.4</ele>
        <time>2025-09-08T08:11:05Z</time>
      </trkpt>
      <trkpt lat="46.15215" lon="4.44462">
        <ele>594.8</ele>
        <time>2025-09-08T08:11:06Z</time>
      </trkpt>
      <trkpt lat="46.15214" lon="4.4446">
        <ele>594.8</ele>
        <time>2025-09-08T08:11:07Z</time>
      </trkpt>
      <trkpt lat="46.15212" lon="4.44459">
        <ele>595</ele>
        <time>2025-09-08T08:11:08Z</time>
      </trkpt>
      <trkpt lat="46.15211" lon="4.44458">
        <ele>595.2</ele>
        <time>2025-09-08T08:11:09Z</time>
      </trkpt>
      <trkpt lat="46.1521" lon="4.44457">
        <ele>595.2</ele>
        <time>2025-09-08T08:11:10Z</time>
      </trkpt>
      <trkpt lat="46.15209" lon="4.44455">
        <ele>595.4</ele>
        <time>2025-09-08T08:11:11Z</time>
      </trkpt>
      <trkpt lat="46.15207" lon="4.44454">
        <ele>595.4</ele>
        <time>2025-09-08T08:11:12Z</time>
      </trkpt>
      <trkpt lat="46.15207" lon="4.44452">
        <ele>595.4</ele>
        <time>2025-09-08T08:11:13Z</time>
      </trkpt>
      <trkpt lat="46.15206" lon="4.4445">
        <ele>595.8</ele>
        <time>2025-09-08T08:11:14Z</time>
      </trkpt>
      <trkpt lat="46.15205" lon="4.44448">
        <ele>595.8</ele>
        <time>2025-09-08T08:11:15Z</time>
      </trkpt>
      <trkpt lat="46.15204" lon="4.44446">
        <ele>596</ele>
        <time>2025-09-08T08:11:16Z</time>
      </trkpt>
      <trkpt lat="46.15202" lon="4.44445">
        <ele>596</ele>
        <time>2025-09-08T08:11:17Z</time>
      </trkpt>
      <trkpt lat="46.15201" lon="4.44444">
        <ele>596.4</ele>
        <time>2025-09-08T08:11:18Z</time>
      </trkpt>
      <trkpt lat="46.152" lon="4.44442">
        <ele>596.4</ele>
        <time>2025-09-08T08:11:19Z</time>
      </trkpt>
      <trkpt lat="46.15198" lon="4.44441">
        <ele>596.4</ele>
        <time>2025-09-08T08:11:20Z</time>
      </trkpt>
      <trkpt lat="46.15196" lon="4.44439">
        <ele>596.4</ele>
        <time>2025-09-08T08:11:21Z</time>
      </trkpt>
      <trkpt lat="46.15195" lon="4.44437">
        <ele>596.4</ele>
        <time>2025-09-08T08:11:22Z</time>
      </trkpt>
      <trkpt lat="46.15193" lon="4.44435">
        <ele>596.6</ele>
        <time>2025-09-08T08:11:23Z</time>
      </trkpt>
      <trkpt lat="46.15192" lon="4.44433">
        <ele>596.6</ele>
        <time>2025-09-08T08:11:24Z</time>
      </trkpt>
      <trkpt lat="46.15191" lon="4.44432">
        <ele>596.8</ele>
        <time>2025-09-08T08:11:25Z</time>
      </trkpt>
      <trkpt lat="46.1519" lon="4.4443">
        <ele>596.8</ele>
        <time>2025-09-08T08:11:26Z</time>
      </trkpt>
      <trkpt lat="46.15189" lon="4.44429">
        <ele>596.8</ele>
        <time>2025-09-08T08:11:27Z</time>
      </trkpt>
      <trkpt lat="46.15188" lon="4.44428">
        <ele>597</ele>
        <time>2025-09-08T08:11:28Z</time>
      </trkpt>
      <trkpt lat="46.15186" lon="4.44427">
        <ele>597</ele>
        <time>2025-09-08T08:11:29Z</time>
      </trkpt>
      <trkpt lat="46.15185" lon="4.44425">
        <ele>597</ele>
        <time>2025-09-08T08:11:30Z</time>
      </trkpt>
      <trkpt lat="46.15184" lon="4.44424">
        <ele>597.4</ele>
        <time>2025-09-08T08:11:31Z</time>
      </trkpt>
      <trkpt lat="46.15183" lon="4.44422">
        <ele>597.6</ele>
        <time>2025-09-08T08:11:32Z</time>
      </trkpt>
      <trkpt lat="46.15182" lon="4.4442">
        <ele>597.8</ele>
        <time>2025-09-08T08:11:33Z</time>
      </trkpt>
      <trkpt lat="46.15181" lon="4.44419">
        <ele>597.8</ele>
        <time>2025-09-08T08:11:34Z</time>
      </trkpt>
      <trkpt lat="46.1518" lon="4.44417">
        <ele>598</ele>
        <time>2025-09-08T08:11:35Z</time>
      </trkpt>
      <trkpt lat="46.15179" lon="4.44415">
        <ele>598</ele>
        <time>2025-09-08T08:11:36Z</time>
      </trkpt>
      <trkpt lat="46.15179" lon="4.44413">
        <ele>598.4</ele>
        <time>2025-09-08T08:11:37Z</time>
      </trkpt>
      <trkpt lat="46.15178" lon="4.44412">
        <ele>598.4</ele>
        <time>2025-09-08T08:11:38Z</time>
      </trkpt>
      <trkpt lat="46.15178" lon="4.4441">
        <ele>598.8</ele>
        <time>2025-09-08T08:11:39Z</time>
      </trkpt>
      <trkpt lat="46.15177" lon="4.44408">
        <ele>598.8</ele>
        <time>2025-09-08T08:11:40Z</time>
      </trkpt>
      <trkpt lat="46.15176" lon="4.44406">
        <ele>599</ele>
        <time>2025-09-08T08:11:41Z</time>
      </trkpt>
      <trkpt lat="46.15176" lon="4.44404">
        <ele>599</ele>
        <time>2025-09-08T08:11:42Z</time>
      </trkpt>
      <trkpt lat="46.15175" lon="4.44403">
        <ele>599.4</ele>
        <time>2025-09-08T08:11:43Z</time>
      </trkpt>
      <trkpt lat="46.15173" lon="4.44402">
        <ele>599.4</ele>
        <time>2025-09-08T08:11:44Z</time>
      </trkpt>
      <trkpt lat="46.15172" lon="4.44401">
        <ele>599.6</ele>
        <time>2025-09-08T08:11:45Z</time>
      </trkpt>
      <trkpt lat="46.15171" lon="4.444">
        <ele>599.6</ele>
        <time>2025-09-08T08:11:46Z</time>
      </trkpt>
      <trkpt lat="46.1517" lon="4.44399">
        <ele>599.6</ele>
        <time>2025-09-08T08:11:47Z</time>
      </trkpt>
      <trkpt lat="46.15169" lon="4.44398">
        <ele>599.8</ele>
        <time>2025-09-08T08:11:48Z</time>
      </trkpt>
      <trkpt lat="46.15168" lon="4.44397">
        <ele>599.8</ele>
        <time>2025-09-08T08:11:49Z</time>
      </trkpt>
      <trkpt lat="46.15166" lon="4.44396">
        <ele>599.8</ele>
        <time>2025-09-08T08:11:50Z</time>
      </trkpt>
      <trkpt lat="46.15166" lon="4.44396">
        <ele>600.2</ele>
        <time>2025-09-08T08:11:51Z</time>
      </trkpt>
      <trkpt lat="46.15162" lon="4.44391">
        <ele>600.2</ele>
        <time>2025-09-08T08:11:54Z</time>
      </trkpt>
      <trkpt lat="46.15161" lon="4.44389">
        <ele>600.2</ele>
        <time>2025-09-08T08:11:55Z</time>
      </trkpt>
      <trkpt lat="46.1516" lon="4.44388">
        <ele>600.6</ele>
        <time>2025-09-08T08:11:56Z</time>
      </trkpt>
      <trkpt lat="46.1516" lon="4.44386">
        <ele>600.6</ele>
        <time>2025-09-08T08:11:57Z</time>
      </trkpt>
      <trkpt lat="46.15159" lon="4.44385">
        <ele>600.6</ele>
        <time>2025-09-08T08:11:58Z</time>
      </trkpt>
      <trkpt lat="46.15158" lon="4.44384">
        <ele>601</ele>
        <time>2025-09-08T08:11:59Z</time>
      </trkpt>
      <trkpt lat="46.15156" lon="4.44383">
        <ele>601.2</ele>
        <time>2025-09-08T08:12:00Z</time>
      </trkpt>
      <trkpt lat="46.15155" lon="4.44383">
        <ele>601.6</ele>
        <time>2025-09-08T08:12:01Z</time>
      </trkpt>
      <trkpt lat="46.15154" lon="4.44382">
        <ele>601.8</ele>
        <time>2025-09-08T08:12:02Z</time>
      </trkpt>
      <trkpt lat="46.15154" lon="4.44381">
        <ele>601.8</ele>
        <time>2025-09-08T08:12:03Z</time>
      </trkpt>
      <trkpt lat="46.15153" lon="4.4438">
        <ele>602.2</ele>
        <time>2025-09-08T08:12:04Z</time>
      </trkpt>
      <trkpt lat="46.15152" lon="4.44379">
        <ele>602.2</ele>
        <time>2025-09-08T08:12:05Z</time>
      </trkpt>
      <trkpt lat="46.1515" lon="4.44379">
        <ele>602.6</ele>
        <time>2025-09-08T08:12:06Z</time>
      </trkpt>
      <trkpt lat="46.15149" lon="4.44378">
        <ele>602.6</ele>
        <time>2025-09-08T08:12:07Z</time>
      </trkpt>
      <trkpt lat="46.15148" lon="4.44377">
        <ele>602.8</ele>
        <time>2025-09-08T08:12:08Z</time>
      </trkpt>
      <trkpt lat="46.15147" lon="4.44376">
        <ele>602.8</ele>
        <time>2025-09-08T08:12:09Z</time>
      </trkpt>
      <trkpt lat="46.15146" lon="4.44376">
        <ele>603</ele>
        <time>2025-09-08T08:12:10Z</time>
      </trkpt>
      <trkpt lat="46.15143" lon="4.44375">
        <ele>603</ele>
        <time>2025-09-08T08:12:11Z</time>
      </trkpt>
      <trkpt lat="46.15142" lon="4.44374">
        <ele>603.4</ele>
        <time>2025-09-08T08:12:12Z</time>
      </trkpt>
      <trkpt lat="46.15142" lon="4.44373">
        <ele>603.4</ele>
        <time>2025-09-08T08:12:13Z</time>
      </trkpt>
      <trkpt lat="46.15141" lon="4.44371">
        <ele>603.6</ele>
        <time>2025-09-08T08:12:14Z</time>
      </trkpt>
      <trkpt lat="46.1514" lon="4.4437">
        <ele>603.6</ele>
        <time>2025-09-08T08:12:15Z</time>
      </trkpt>
      <trkpt lat="46.1514" lon="4.44368">
        <ele>603.8</ele>
        <time>2025-09-08T08:12:16Z</time>
      </trkpt>
      <trkpt lat="46.15139" lon="4.44367">
        <ele>603.8</ele>
        <time>2025-09-08T08:12:17Z</time>
      </trkpt>
      <trkpt lat="46.15139" lon="4.44366">
        <ele>604</ele>
        <time>2025-09-08T08:12:18Z</time>
      </trkpt>
      <trkpt lat="46.15138" lon="4.44365">
        <ele>604.4</ele>
        <time>2025-09-08T08:12:19Z</time>
      </trkpt>
      <trkpt lat="46.15137" lon="4.44364">
        <ele>604.4</ele>
        <time>2025-09-08T08:12:20Z</time>
      </trkpt>
      <trkpt lat="46.15136" lon="4.44363">
        <ele>604.6</ele>
        <time>2025-09-08T08:12:21Z</time>
      </trkpt>
      <trkpt lat="46.15135" lon="4.44362">
        <ele>604.6</ele>
        <time>2025-09-08T08:12:22Z</time>
      </trkpt>
      <trkpt lat="46.15134" lon="4.44362">
        <ele>604.6</ele>
        <time>2025-09-08T08:12:23Z</time>
      </trkpt>
      <trkpt lat="46.15133" lon="4.44361">
        <ele>604.8</ele>
        <time>2025-09-08T08:12:24Z</time>
      </trkpt>
      <trkpt lat="46.15133" lon="4.4436">
        <ele>604.8</ele>
        <time>2025-09-08T08:12:25Z</time>
      </trkpt>
      <trkpt lat="46.15132" lon="4.44359">
        <ele>605</ele>
        <time>2025-09-08T08:12:26Z</time>
      </trkpt>
      <trkpt lat="46.15131" lon="4.44358">
        <ele>605</ele>
        <time>2025-09-08T08:12:27Z</time>
      </trkpt>
      <trkpt lat="46.1513" lon="4.44357">
        <ele>605.4</ele>
        <time>2025-09-08T08:12:28Z</time>
      </trkpt>
      <trkpt lat="46.15129" lon="4.44356">
        <ele>605.4</ele>
        <time>2025-09-08T08:12:29Z</time>
      </trkpt>
      <trkpt lat="46.15129" lon="4.44356">
        <ele>605.6</ele>
        <time>2025-09-08T08:12:30Z</time>
      </trkpt>
      <trkpt lat="46.15129" lon="4.44356">
        <ele>605.6</ele>
        <time>2025-09-08T08:12:31Z</time>
      </trkpt>
      <trkpt lat="46.15126" lon="4.44354">
        <ele>605.8</ele>
        <time>2025-09-08T08:12:33Z</time>
      </trkpt>
      <trkpt lat="46.15125" lon="4.44353">
        <ele>606.2</ele>
        <time>2025-09-08T08:12:34Z</time>
      </trkpt>
      <trkpt lat="46.15124" lon="4.44352">
        <ele>606.2</ele>
        <time>2025-09-08T08:12:35Z</time>
      </trkpt>
      <trkpt lat="46.15123" lon="4.44351">
        <ele>606.4</ele>
        <time>2025-09-08T08:12:36Z</time>
      </trkpt>
      <trkpt lat="46.15122" lon="4.44349">
        <ele>606.4</ele>
        <time>2025-09-08T08:12:37Z</time>
      </trkpt>
      <trkpt lat="46.15121" lon="4.44348">
        <ele>606.6</ele>
        <time>2025-09-08T08:12:38Z</time>
      </trkpt>
      <trkpt lat="46.15119" lon="4.44347">
        <ele>606.6</ele>
        <time>2025-09-08T08:12:39Z</time>
      </trkpt>
      <trkpt lat="46.15118" lon="4.44346">
        <ele>606.8</ele>
        <time>2025-09-08T08:12:40Z</time>
      </trkpt>
      <trkpt lat="46.15117" lon="4.44345">
        <ele>607.2</ele>
        <time>2025-09-08T08:12:41Z</time>
      </trkpt>
      <trkpt lat="46.15116" lon="4.44344">
        <ele>607.2</ele>
        <time>2025-09-08T08:12:42Z</time>
      </trkpt>
      <trkpt lat="46.15116" lon="4.44343">
        <ele>607.2</ele>
        <time>2025-09-08T08:12:43Z</time>
      </trkpt>
      <trkpt lat="46.15115" lon="4.44342">
        <ele>607.6</ele>
        <time>2025-09-08T08:12:44Z</time>
      </trkpt>
      <trkpt lat="46.15114" lon="4.44341">
        <ele>607.6</ele>
        <time>2025-09-08T08:12:45Z</time>
      </trkpt>
      <trkpt lat="46.15113" lon="4.4434">
        <ele>607.6</ele>
        <time>2025-09-08T08:12:46Z</time>
      </trkpt>
      <trkpt lat="46.15112" lon="4.44339">
        <ele>607.6</ele>
        <time>2025-09-08T08:12:47Z</time>
      </trkpt>
      <trkpt lat="46.15111" lon="4.44338">
        <ele>607.8</ele>
        <time>2025-09-08T08:12:48Z</time>
      </trkpt>
      <trkpt lat="46.1511" lon="4.44337">
        <ele>607.8</ele>
        <time>2025-09-08T08:12:49Z</time>
      </trkpt>
      <trkpt lat="46.1511" lon="4.44336">
        <ele>608.2</ele>
        <time>2025-09-08T08:12:50Z</time>
      </trkpt>
      <trkpt lat="46.15109" lon="4.44335">
        <ele>608.4</ele>
        <time>2025-09-08T08:12:51Z</time>
      </trkpt>
      <trkpt lat="46.15108" lon="4.44333">
        <ele>608.4</ele>
        <time>2025-09-08T08:12:52Z</time>
      </trkpt>
      <trkpt lat="46.15107" lon="4.44332">
        <ele>608.4</ele>
        <time>2025-09-08T08:12:53Z</time>
      </trkpt>
      <trkpt lat="46.15106" lon="4.44331">
        <ele>608.6</ele>
        <time>2025-09-08T08:12:54Z</time>
      </trkpt>
      <trkpt lat="46.15105" lon="4.4433">
        <ele>608.6</ele>
        <time>2025-09-08T08:12:55Z</time>
      </trkpt>
      <trkpt lat="46.15104" lon="4.44329">
        <ele>609</ele>
        <time>2025-09-08T08:12:56Z</time>
      </trkpt>
      <trkpt lat="46.15104" lon="4.44328">
        <ele>609</ele>
        <time>2025-09-08T08:12:57Z</time>
      </trkpt>
      <trkpt lat="46.15103" lon="4.44326">
        <ele>609</ele>
        <time>2025-09-08T08:12:58Z</time>
      </trkpt>
      <trkpt lat="46.15102" lon="4.44325">
        <ele>609.4</ele>
        <time>2025-09-08T08:12:59Z</time>
      </trkpt>
      <trkpt lat="46.15101" lon="4.44324">
        <ele>609.4</ele>
        <time>2025-09-08T08:13:00Z</time>
      </trkpt>
      <trkpt lat="46.151" lon="4.44323">
        <ele>609.4</ele>
        <time>2025-09-08T08:13:01Z</time>
      </trkpt>
      <trkpt lat="46.15099" lon="4.44321">
        <ele>609.8</ele>
        <time>2025-09-08T08:13:02Z</time>
      </trkpt>
      <trkpt lat="46.15098" lon="4.44321">
        <ele>609.8</ele>
        <time>2025-09-08T08:13:03Z</time>
      </trkpt>
      <trkpt lat="46.15097" lon="4.4432">
        <ele>610</ele>
        <time>2025-09-08T08:13:04Z</time>
      </trkpt>
      <trkpt lat="46.15096" lon="4.44319">
        <ele>610</ele>
        <time>2025-09-08T08:13:05Z</time>
      </trkpt>
      <trkpt lat="46.15095" lon="4.44318">
        <ele>610.2</ele>
        <time>2025-09-08T08:13:06Z</time>
      </trkpt>
      <trkpt lat="46.15094" lon="4.44317">
        <ele>610.2</ele>
        <time>2025-09-08T08:13:07Z</time>
      </trkpt>
      <trkpt lat="46.15093" lon="4.44316">
        <ele>610.6</ele>
        <time>2025-09-08T08:13:08Z</time>
      </trkpt>
      <trkpt lat="46.15092" lon="4.44315">
        <ele>610.8</ele>
        <time>2025-09-08T08:13:09Z</time>
      </trkpt>
      <trkpt lat="46.15091" lon="4.44313">
        <ele>610.8</ele>
        <time>2025-09-08T08:13:10Z</time>
      </trkpt>
      <trkpt lat="46.1509" lon="4.44312">
        <ele>610.8</ele>
        <time>2025-09-08T08:13:11Z</time>
      </trkpt>
      <trkpt lat="46.1509" lon="4.44311">
        <ele>611</ele>
        <time>2025-09-08T08:13:12Z</time>
      </trkpt>
      <trkpt lat="46.15089" lon="4.44309">
        <ele>611</ele>
        <time>2025-09-08T08:13:13Z</time>
      </trkpt>
      <trkpt lat="46.15089" lon="4.44308">
        <ele>611</ele>
        <time>2025-09-08T08:13:14Z</time>
      </trkpt>
      <trkpt lat="46.15088" lon="4.44306">
        <ele>611.4</ele>
        <time>2025-09-08T08:13:15Z</time>
      </trkpt>
      <trkpt lat="46.15087" lon="4.44305">
        <ele>611.4</ele>
        <time>2025-09-08T08:13:16Z</time>
      </trkpt>
      <trkpt lat="46.15086" lon="4.44304">
        <ele>611.6</ele>
        <time>2025-09-08T08:13:17Z</time>
      </trkpt>
      <trkpt lat="46.15085" lon="4.44303">
        <ele>611.6</ele>
        <time>2025-09-08T08:13:18Z</time>
      </trkpt>
      <trkpt lat="46.15084" lon="4.44302">
        <ele>611.6</ele>
        <time>2025-09-08T08:13:19Z</time>
      </trkpt>
      <trkpt lat="46.15083" lon="4.44301">
        <ele>611.8</ele>
        <time>2025-09-08T08:13:20Z</time>
      </trkpt>
      <trkpt lat="46.15083" lon="4.44299">
        <ele>611.8</ele>
        <time>2025-09-08T08:13:21Z</time>
      </trkpt>
      <trkpt lat="46.15082" lon="4.44298">
        <ele>611.8</ele>
        <time>2025-09-08T08:13:22Z</time>
      </trkpt>
      <trkpt lat="46.15082" lon="4.44297">
        <ele>612</ele>
        <time>2025-09-08T08:13:23Z</time>
      </trkpt>
      <trkpt lat="46.15081" lon="4.44296">
        <ele>612.2</ele>
        <time>2025-09-08T08:13:24Z</time>
      </trkpt>
      <trkpt lat="46.1508" lon="4.44295">
        <ele>612.4</ele>
        <time>2025-09-08T08:13:25Z</time>
      </trkpt>
      <trkpt lat="46.1508" lon="4.44294">
        <ele>612.6</ele>
        <time>2025-09-08T08:13:26Z</time>
      </trkpt>
      <trkpt lat="46.15079" lon="4.44294">
        <ele>612.6</ele>
        <time>2025-09-08T08:13:27Z</time>
      </trkpt>
      <trkpt lat="46.15079" lon="4.44292">
        <ele>613</ele>
        <time>2025-09-08T08:13:28Z</time>
      </trkpt>
      <trkpt lat="46.15078" lon="4.4429">
        <ele>613</ele>
        <time>2025-09-08T08:13:29Z</time>
      </trkpt>
      <trkpt lat="46.15077" lon="4.44289">
        <ele>613.2</ele>
        <time>2025-09-08T08:13:30Z</time>
      </trkpt>
      <trkpt lat="46.15076" lon="4.44287">
        <ele>613.2</ele>
        <time>2025-09-08T08:13:31Z</time>
      </trkpt>
      <trkpt lat="46.15076" lon="4.44285">
        <ele>613.6</ele>
        <time>2025-09-08T08:13:32Z</time>
      </trkpt>
      <trkpt lat="46.15075" lon="4.44284">
        <ele>613.6</ele>
        <time>2025-09-08T08:13:33Z</time>
      </trkpt>
      <trkpt lat="46.15075" lon="4.44283">
        <ele>614</ele>
        <time>2025-09-08T08:13:34Z</time>
      </trkpt>
      <trkpt lat="46.15074" lon="4.44282">
        <ele>614</ele>
        <time>2025-09-08T08:13:35Z</time>
      </trkpt>
      <trkpt lat="46.15073" lon="4.4428">
        <ele>614.2</ele>
        <time>2025-09-08T08:13:36Z</time>
      </trkpt>
      <trkpt lat="46.15073" lon="4.44278">
        <ele>614.4</ele>
        <time>2025-09-08T08:13:37Z</time>
      </trkpt>
      <trkpt lat="46.15073" lon="4.44276">
        <ele>614.4</ele>
        <time>2025-09-08T08:13:38Z</time>
      </trkpt>
      <trkpt lat="46.15073" lon="4.44274">
        <ele>614.8</ele>
        <time>2025-09-08T08:13:39Z</time>
      </trkpt>
      <trkpt lat="46.15073" lon="4.44272">
        <ele>615.2</ele>
        <time>2025-09-08T08:13:40Z</time>
      </trkpt>
      <trkpt lat="46.15073" lon="4.44271">
        <ele>615.2</ele>
        <time>2025-09-08T08:13:41Z</time>
      </trkpt>
      <trkpt lat="46.15072" lon="4.44268">
        <ele>615.4</ele>
        <time>2025-09-08T08:13:42Z</time>
      </trkpt>
      <trkpt lat="46.15072" lon="4.44267">
        <ele>615.6</ele>
        <time>2025-09-08T08:13:43Z</time>
      </trkpt>
      <trkpt lat="46.15072" lon="4.44266">
        <ele>615.6</ele>
        <time>2025-09-08T08:13:44Z</time>
      </trkpt>
      <trkpt lat="46.1507" lon="4.44268">
        <ele>615.6</ele>
        <time>2025-09-08T08:13:51Z</time>
      </trkpt>
      <trkpt lat="46.15069" lon="4.44269">
        <ele>615.6</ele>
        <time>2025-09-08T08:13:52Z</time>
      </trkpt>
      <trkpt lat="46.15068" lon="4.4427">
        <ele>615.6</ele>
        <time>2025-09-08T08:13:53Z</time>
      </trkpt>
      <trkpt lat="46.15067" lon="4.44271">
        <ele>615.6</ele>
        <time>2025-09-08T08:13:54Z</time>
      </trkpt>
      <trkpt lat="46.15066" lon="4.44272">
        <ele>615.6</ele>
        <time>2025-09-08T08:13:55Z</time>
      </trkpt>
      <trkpt lat="46.15066" lon="4.44272">
        <ele>615.6</ele>
        <time>2025-09-08T08:13:56Z</time>
      </trkpt>
      <trkpt lat="46.15065" lon="4.44273">
        <ele>615.6</ele>
        <time>2025-09-08T08:13:57Z</time>
      </trkpt>
      <trkpt lat="46.15066" lon="4.44272">
        <ele>615.6</ele>
        <time>2025-09-08T08:13:58Z</time>
      </trkpt>
      <trkpt lat="46.15066" lon="4.44274">
        <ele>615.2</ele>
        <time>2025-09-08T08:15:50Z</time>
      </trkpt>
      <trkpt lat="46.15066" lon="4.44274">
        <ele>615.2</ele>
        <time>2025-09-08T08:15:51Z</time>
      </trkpt>
      <trkpt lat="46.15066" lon="4.44273">
        <ele>615.2</ele>
        <time>2025-09-08T08:15:52Z</time>
      </trkpt>
      <trkpt lat="46.15066" lon="4.44272">
        <ele>615.2</ele>
        <time>2025-09-08T08:15:53Z</time>
      </trkpt>
      <trkpt lat="46.15067" lon="4.44271">
        <ele>615.2</ele>
        <time>2025-09-08T08:15:54Z</time>
      </trkpt>
      <trkpt lat="46.15068" lon="4.44271">
        <ele>615.4</ele>
        <time>2025-09-08T08:15:55Z</time>
      </trkpt>
      <trkpt lat="46.15068" lon="4.44271">
        <ele>615.4</ele>
        <time>2025-09-08T08:15:56Z</time>
      </trkpt>
      <trkpt lat="46.15068" lon="4.4427">
        <ele>615.6</ele>
        <time>2025-09-08T08:15:57Z</time>
      </trkpt>
      <trkpt lat="46.1507" lon="4.44269">
        <ele>615.4</ele>
        <time>2025-09-08T08:16:01Z</time>
      </trkpt>
      <trkpt lat="46.15071" lon="4.44267">
        <ele>615.4</ele>
        <time>2025-09-08T08:16:02Z</time>
      </trkpt>
      <trkpt lat="46.15073" lon="4.44264">
        <ele>615.8</ele>
        <time>2025-09-08T08:16:03Z</time>
      </trkpt>
      <trkpt lat="46.15075" lon="4.44262">
        <ele>615.8</ele>
        <time>2025-09-08T08:16:04Z</time>
      </trkpt>
      <trkpt lat="46.15076" lon="4.44259">
        <ele>615.6</ele>
        <time>2025-09-08T08:16:05Z</time>
      </trkpt>
      <trkpt lat="46.15078" lon="4.44255">
        <ele>615.6</ele>
        <time>2025-09-08T08:16:06Z</time>
      </trkpt>
      <trkpt lat="46.15079" lon="4.44252">
        <ele>616</ele>
        <time>2025-09-08T08:16:07Z</time>
      </trkpt>
      <trkpt lat="46.15081" lon="4.44249">
        <ele>616</ele>
        <time>2025-09-08T08:16:08Z</time>
      </trkpt>
      <trkpt lat="46.15083" lon="4.44246">
        <ele>616.4</ele>
        <time>2025-09-08T08:16:09Z</time>
      </trkpt>
      <trkpt lat="46.15085" lon="4.44244">
        <ele>616.4</ele>
        <time>2025-09-08T08:16:10Z</time>
      </trkpt>
      <trkpt lat="46.15087" lon="4.44243">
        <ele>616.6</ele>
        <time>2025-09-08T08:16:11Z</time>
      </trkpt>
      <trkpt lat="46.15089" lon="4.44241">
        <ele>616.6</ele>
        <time>2025-09-08T08:16:12Z</time>
      </trkpt>
      <trkpt lat="46.15092" lon="4.44239">
        <ele>616.6</ele>
        <time>2025-09-08T08:16:13Z</time>
      </trkpt>
      <trkpt lat="46.15093" lon="4.44236">
        <ele>617</ele>
        <time>2025-09-08T08:16:14Z</time>
      </trkpt>
      <trkpt lat="46.15095" lon="4.44234">
        <ele>617</ele>
        <time>2025-09-08T08:16:15Z</time>
      </trkpt>
      <trkpt lat="46.15097" lon="4.44231">
        <ele>617</ele>
        <time>2025-09-08T08:16:16Z</time>
      </trkpt>
      <trkpt lat="46.15098" lon="4.44228">
        <ele>617</ele>
        <time>2025-09-08T08:16:17Z</time>
      </trkpt>
      <trkpt lat="46.151" lon="4.44225">
        <ele>617</ele>
        <time>2025-09-08T08:16:18Z</time>
      </trkpt>
      <trkpt lat="46.15101" lon="4.44222">
        <ele>617.2</ele>
        <time>2025-09-08T08:16:19Z</time>
      </trkpt>
      <trkpt lat="46.15103" lon="4.4422">
        <ele>617.2</ele>
        <time>2025-09-08T08:16:20Z</time>
      </trkpt>
      <trkpt lat="46.15104" lon="4.44217">
        <ele>617.4</ele>
        <time>2025-09-08T08:16:21Z</time>
      </trkpt>
      <trkpt lat="46.15106" lon="4.44214">
        <ele>617.4</ele>
        <time>2025-09-08T08:16:22Z</time>
      </trkpt>
      <trkpt lat="46.15108" lon="4.44212">
        <ele>617.8</ele>
        <time>2025-09-08T08:16:23Z</time>
      </trkpt>
      <trkpt lat="46.15109" lon="4.44209">
        <ele>617.8</ele>
        <time>2025-09-08T08:16:24Z</time>
      </trkpt>
      <trkpt lat="46.15111" lon="4.44207">
        <ele>618</ele>
        <time>2025-09-08T08:16:25Z</time>
      </trkpt>
      <trkpt lat="46.15112" lon="4.44204">
        <ele>618</ele>
        <time>2025-09-08T08:16:26Z</time>
      </trkpt>
      <trkpt lat="46.15114" lon="4.44202">
        <ele>618</ele>
        <time>2025-09-08T08:16:27Z</time>
      </trkpt>
      <trkpt lat="46.15116" lon="4.442">
        <ele>618.2</ele>
        <time>2025-09-08T08:16:28Z</time>
      </trkpt>
      <trkpt lat="46.15117" lon="4.44198">
        <ele>618.2</ele>
        <time>2025-09-08T08:16:29Z</time>
      </trkpt>
      <trkpt lat="46.15119" lon="4.44196">
        <ele>618.2</ele>
        <time>2025-09-08T08:16:30Z</time>
      </trkpt>
      <trkpt lat="46.1512" lon="4.44194">
        <ele>618.2</ele>
        <time>2025-09-08T08:16:31Z</time>
      </trkpt>
      <trkpt lat="46.15122" lon="4.44192">
        <ele>618.2</ele>
        <time>2025-09-08T08:16:32Z</time>
      </trkpt>
      <trkpt lat="46.15124" lon="4.4419">
        <ele>618.4</ele>
        <time>2025-09-08T08:16:33Z</time>
      </trkpt>
      <trkpt lat="46.15125" lon="4.44188">
        <ele>618.4</ele>
        <time>2025-09-08T08:16:34Z</time>
      </trkpt>
      <trkpt lat="46.15127" lon="4.44186">
        <ele>618.4</ele>
        <time>2025-09-08T08:16:35Z</time>
      </trkpt>
      <trkpt lat="46.15128" lon="4.44185">
        <ele>618.4</ele>
        <time>2025-09-08T08:16:36Z</time>
      </trkpt>
      <trkpt lat="46.1513" lon="4.44183">
        <ele>618.8</ele>
        <time>2025-09-08T08:16:37Z</time>
      </trkpt>
      <trkpt lat="46.15132" lon="4.44182">
        <ele>618.8</ele>
        <time>2025-09-08T08:16:38Z</time>
      </trkpt>
      <trkpt lat="46.15134" lon="4.4418">
        <ele>619</ele>
        <time>2025-09-08T08:16:39Z</time>
      </trkpt>
      <trkpt lat="46.15136" lon="4.44178">
        <ele>619.2</ele>
        <time>2025-09-08T08:16:40Z</time>
      </trkpt>
      <trkpt lat="46.15137" lon="4.44175">
        <ele>619.2</ele>
        <time>2025-09-08T08:16:41Z</time>
      </trkpt>
      <trkpt lat="46.15139" lon="4.44173">
        <ele>619.2</ele>
        <time>2025-09-08T08:16:42Z</time>
      </trkpt>
      <trkpt lat="46.15141" lon="4.4417">
        <ele>619.6</ele>
        <time>2025-09-08T08:16:43Z</time>
      </trkpt>
      <trkpt lat="46.15142" lon="4.44168">
        <ele>619.6</ele>
        <time>2025-09-08T08:16:44Z</time>
      </trkpt>
      <trkpt lat="46.15144" lon="4.44166">
        <ele>619.8</ele>
        <time>2025-09-08T08:16:45Z</time>
      </trkpt>
      <trkpt lat="46.15145" lon="4.44164">
        <ele>619.8</ele>
        <time>2025-09-08T08:16:46Z</time>
      </trkpt>
      <trkpt lat="46.15147" lon="4.44162">
        <ele>619.8</ele>
        <time>2025-09-08T08:16:47Z</time>
      </trkpt>
      <trkpt lat="46.15149" lon="4.44159">
        <ele>619.8</ele>
        <time>2025-09-08T08:16:48Z</time>
      </trkpt>
      <trkpt lat="46.15151" lon="4.44157">
        <ele>619.8</ele>
        <time>2025-09-08T08:16:49Z</time>
      </trkpt>
      <trkpt lat="46.15153" lon="4.44154">
        <ele>619.8</ele>
        <time>2025-09-08T08:16:50Z</time>
      </trkpt>
      <trkpt lat="46.15154" lon="4.44152">
        <ele>620.2</ele>
        <time>2025-09-08T08:16:51Z</time>
      </trkpt>
      <trkpt lat="46.15156" lon="4.44151">
        <ele>620.2</ele>
        <time>2025-09-08T08:16:52Z</time>
      </trkpt>
      <trkpt lat="46.15158" lon="4.44149">
        <ele>620.2</ele>
        <time>2025-09-08T08:16:53Z</time>
      </trkpt>
      <trkpt lat="46.1516" lon="4.44147">
        <ele>620.2</ele>
        <time>2025-09-08T08:16:54Z</time>
      </trkpt>
      <trkpt lat="46.15162" lon="4.44144">
        <ele>620.4</ele>
        <time>2025-09-08T08:16:55Z</time>
      </trkpt>
      <trkpt lat="46.15163" lon="4.44142">
        <ele>620.4</ele>
        <time>2025-09-08T08:16:56Z</time>
      </trkpt>
      <trkpt lat="46.15165" lon="4.4414">
        <ele>620.4</ele>
        <time>2025-09-08T08:16:57Z</time>
      </trkpt>
      <trkpt lat="46.15165" lon="4.4414">
        <ele>620.6</ele>
        <time>2025-09-08T08:16:58Z</time>
      </trkpt>
      <trkpt lat="46.15167" lon="4.44138">
        <ele>620.6</ele>
        <time>2025-09-08T08:16:59Z</time>
      </trkpt>
      <trkpt lat="46.15169" lon="4.44136">
        <ele>620.6</ele>
        <time>2025-09-08T08:17:00Z</time>
      </trkpt>
      <trkpt lat="46.1517" lon="4.44134">
        <ele>620.6</ele>
        <time>2025-09-08T08:17:01Z</time>
      </trkpt>
      <trkpt lat="46.15172" lon="4.44132">
        <ele>620.6</ele>
        <time>2025-09-08T08:17:02Z</time>
      </trkpt>
      <trkpt lat="46.15174" lon="4.44129">
        <ele>620.6</ele>
        <time>2025-09-08T08:17:03Z</time>
      </trkpt>
      <trkpt lat="46.15176" lon="4.44127">
        <ele>620.6</ele>
        <time>2025-09-08T08:17:04Z</time>
      </trkpt>
      <trkpt lat="46.15178" lon="4.44124">
        <ele>620.6</ele>
        <time>2025-09-08T08:17:05Z</time>
      </trkpt>
      <trkpt lat="46.1518" lon="4.44121">
        <ele>620.8</ele>
        <time>2025-09-08T08:17:06Z</time>
      </trkpt>
      <trkpt lat="46.15182" lon="4.44118">
        <ele>620.6</ele>
        <time>2025-09-08T08:17:07Z</time>
      </trkpt>
      <trkpt lat="46.15184" lon="4.44115">
        <ele>620.6</ele>
        <time>2025-09-08T08:17:08Z</time>
      </trkpt>
      <trkpt lat="46.15186" lon="4.44112">
        <ele>620.6</ele>
        <time>2025-09-08T08:17:09Z</time>
      </trkpt>
      <trkpt lat="46.15189" lon="4.44109">
        <ele>620.2</ele>
        <time>2025-09-08T08:17:10Z</time>
      </trkpt>
      <trkpt lat="46.15191" lon="4.44105">
        <ele>620.2</ele>
        <time>2025-09-08T08:17:11Z</time>
      </trkpt>
      <trkpt lat="46.15194" lon="4.44102">
        <ele>620.2</ele>
        <time>2025-09-08T08:17:12Z</time>
      </trkpt>
      <trkpt lat="46.15197" lon="4.44098">
        <ele>620.2</ele>
        <time>2025-09-08T08:17:13Z</time>
      </trkpt>
      <trkpt lat="46.152" lon="4.44095">
        <ele>619.8</ele>
        <time>2025-09-08T08:17:14Z</time>
      </trkpt>
      <trkpt lat="46.15204" lon="4.44091">
        <ele>619.8</ele>
        <time>2025-09-08T08:17:15Z</time>
      </trkpt>
      <trkpt lat="46.15207" lon="4.44087">
        <ele>619.8</ele>
        <time>2025-09-08T08:17:16Z</time>
      </trkpt>
      <trkpt lat="46.1521" lon="4.44083">
        <ele>619.8</ele>
        <time>2025-09-08T08:17:17Z</time>
      </trkpt>
      <trkpt lat="46.15214" lon="4.44079">
        <ele>619.6</ele>
        <time>2025-09-08T08:17:18Z</time>
      </trkpt>
      <trkpt lat="46.15217" lon="4.44075">
        <ele>619.6</ele>
        <time>2025-09-08T08:17:19Z</time>
      </trkpt>
      <trkpt lat="46.15221" lon="4.4407">
        <ele>619.6</ele>
        <time>2025-09-08T08:17:20Z</time>
      </trkpt>
      <trkpt lat="46.15224" lon="4.44066">
        <ele>619.4</ele>
        <time>2025-09-08T08:17:21Z</time>
      </trkpt>
      <trkpt lat="46.15229" lon="4.44063">
        <ele>619.4</ele>
        <time>2025-09-08T08:17:22Z</time>
      </trkpt>
      <trkpt lat="46.15232" lon="4.44058">
        <ele>619.4</ele>
        <time>2025-09-08T08:17:23Z</time>
      </trkpt>
      <trkpt lat="46.15236" lon="4.44054">
        <ele>619.4</ele>
        <time>2025-09-08T08:17:24Z</time>
      </trkpt>
      <trkpt lat="46.1524" lon="4.44049">
        <ele>619.4</ele>
        <time>2025-09-08T08:17:25Z</time>
      </trkpt>
      <trkpt lat="46.15244" lon="4.44045">
        <ele>619.4</ele>
        <time>2025-09-08T08:17:26Z</time>
      </trkpt>
      <trkpt lat="46.15247" lon="4.4404">
        <ele>619.4</ele>
        <time>2025-09-08T08:17:27Z</time>
      </trkpt>
      <trkpt lat="46.15251" lon="4.44034">
        <ele>619.4</ele>
        <time>2025-09-08T08:17:28Z</time>
      </trkpt>
      <trkpt lat="46.15254" lon="4.44029">
        <ele>619.4</ele>
        <time>2025-09-08T08:17:29Z</time>
      </trkpt>
      <trkpt lat="46.15258" lon="4.44024">
        <ele>619.4</ele>
        <time>2025-09-08T08:17:30Z</time>
      </trkpt>
      <trkpt lat="46.15262" lon="4.4402">
        <ele>619</ele>
        <time>2025-09-08T08:17:31Z</time>
      </trkpt>
      <trkpt lat="46.15265" lon="4.44014">
        <ele>619</ele>
        <time>2025-09-08T08:17:32Z</time>
      </trkpt>
      <trkpt lat="46.15269" lon="4.44009">
        <ele>619</ele>
        <time>2025-09-08T08:17:33Z</time>
      </trkpt>
      <trkpt lat="46.15273" lon="4.44004">
        <ele>619</ele>
        <time>2025-09-08T08:17:34Z</time>
      </trkpt>
      <trkpt lat="46.15277" lon="4.43999">
        <ele>619</ele>
        <time>2025-09-08T08:17:35Z</time>
      </trkpt>
      <trkpt lat="46.1528" lon="4.43994">
        <ele>618.6</ele>
        <time>2025-09-08T08:17:36Z</time>
      </trkpt>
      <trkpt lat="46.15284" lon="4.43989">
        <ele>618.6</ele>
        <time>2025-09-08T08:17:37Z</time>
      </trkpt>
      <trkpt lat="46.15288" lon="4.43986">
        <ele>618.2</ele>
        <time>2025-09-08T08:17:38Z</time>
      </trkpt>
      <trkpt lat="46.15291" lon="4.43981">
        <ele>618.2</ele>
        <time>2025-09-08T08:17:39Z</time>
      </trkpt>
      <trkpt lat="46.15294" lon="4.43976">
        <ele>618.2</ele>
        <time>2025-09-08T08:17:40Z</time>
      </trkpt>
      <trkpt lat="46.15297" lon="4.43972">
        <ele>618.2</ele>
        <time>2025-09-08T08:17:41Z</time>
      </trkpt>
      <trkpt lat="46.15299" lon="4.43967">
        <ele>618.2</ele>
        <time>2025-09-08T08:17:42Z</time>
      </trkpt>
      <trkpt lat="46.15303" lon="4.43962">
        <ele>618.2</ele>
        <time>2025-09-08T08:17:43Z</time>
      </trkpt>
      <trkpt lat="46.15305" lon="4.43958">
        <ele>618.2</ele>
        <time>2025-09-08T08:17:44Z</time>
      </trkpt>
      <trkpt lat="46.15308" lon="4.43953">
        <ele>618.2</ele>
        <time>2025-09-08T08:17:45Z</time>
      </trkpt>
      <trkpt lat="46.15311" lon="4.43948">
        <ele>618</ele>
        <time>2025-09-08T08:17:46Z</time>
      </trkpt>
      <trkpt lat="46.15314" lon="4.43942">
        <ele>618</ele>
        <time>2025-09-08T08:17:47Z</time>
      </trkpt>
      <trkpt lat="46.15316" lon="4.43936">
        <ele>617.6</ele>
        <time>2025-09-08T08:17:48Z</time>
      </trkpt>
      <trkpt lat="46.15318" lon="4.4393">
        <ele>617.4</ele>
        <time>2025-09-08T08:17:49Z</time>
      </trkpt>
      <trkpt lat="46.1532" lon="4.43922">
        <ele>617.4</ele>
        <time>2025-09-08T08:17:50Z</time>
      </trkpt>
      <trkpt lat="46.15321" lon="4.43913">
        <ele>617.2</ele>
        <time>2025-09-08T08:17:51Z</time>
      </trkpt>
      <trkpt lat="46.15321" lon="4.43905">
        <ele>617.2</ele>
        <time>2025-09-08T08:17:52Z</time>
      </trkpt>
      <trkpt lat="46.15321" lon="4.43897">
        <ele>616.8</ele>
        <time>2025-09-08T08:17:53Z</time>
      </trkpt>
      <trkpt lat="46.1532" lon="4.43888">
        <ele>616.4</ele>
        <time>2025-09-08T08:17:54Z</time>
      </trkpt>
      <trkpt lat="46.1532" lon="4.4388">
        <ele>616</ele>
        <time>2025-09-08T08:17:55Z</time>
      </trkpt>
      <trkpt lat="46.15318" lon="4.43871">
        <ele>616</ele>
        <time>2025-09-08T08:17:56Z</time>
      </trkpt>
      <trkpt lat="46.15316" lon="4.43863">
        <ele>616</ele>
        <time>2025-09-08T08:17:57Z</time>
      </trkpt>
      <trkpt lat="46.15315" lon="4.43855">
        <ele>615.8</ele>
        <time>2025-09-08T08:17:58Z</time>
      </trkpt>
      <trkpt lat="46.15314" lon="4.43847">
        <ele>615.8</ele>
        <time>2025-09-08T08:17:59Z</time>
      </trkpt>
      <trkpt lat="46.15312" lon="4.43839">
        <ele>615.8</ele>
        <time>2025-09-08T08:18:00Z</time>
      </trkpt>
      <trkpt lat="46.15311" lon="4.43831">
        <ele>615.8</ele>
        <time>2025-09-08T08:18:01Z</time>
      </trkpt>
      <trkpt lat="46.1531" lon="4.43823">
        <ele>615.8</ele>
        <time>2025-09-08T08:18:02Z</time>
      </trkpt>
      <trkpt lat="46.15309" lon="4.43814">
        <ele>615.8</ele>
        <time>2025-09-08T08:18:03Z</time>
      </trkpt>
      <trkpt lat="46.15309" lon="4.43808">
        <ele>615.8</ele>
        <time>2025-09-08T08:18:04Z</time>
      </trkpt>
      <trkpt lat="46.15308" lon="4.43801">
        <ele>616</ele>
        <time>2025-09-08T08:18:05Z</time>
      </trkpt>
      <trkpt lat="46.15307" lon="4.43795">
        <ele>616.2</ele>
        <time>2025-09-08T08:18:06Z</time>
      </trkpt>
      <trkpt lat="46.15306" lon="4.43789">
        <ele>616.4</ele>
        <time>2025-09-08T08:18:07Z</time>
      </trkpt>
      <trkpt lat="46.15305" lon="4.43782">
        <ele>616.4</ele>
        <time>2025-09-08T08:18:08Z</time>
      </trkpt>
      <trkpt lat="46.15304" lon="4.43776">
        <ele>617</ele>
        <time>2025-09-08T08:18:09Z</time>
      </trkpt>
      <trkpt lat="46.15303" lon="4.43771">
        <ele>617</ele>
        <time>2025-09-08T08:18:10Z</time>
      </trkpt>
      <trkpt lat="46.15302" lon="4.43766">
        <ele>617.4</ele>
        <time>2025-09-08T08:18:11Z</time>
      </trkpt>
      <trkpt lat="46.15301" lon="4.43762">
        <ele>617.6</ele>
        <time>2025-09-08T08:18:12Z</time>
      </trkpt>
      <trkpt lat="46.15301" lon="4.43758">
        <ele>618</ele>
        <time>2025-09-08T08:18:13Z</time>
      </trkpt>
      <trkpt lat="46.153" lon="4.43755">
        <ele>618.2</ele>
        <time>2025-09-08T08:18:14Z</time>
      </trkpt>
      <trkpt lat="46.15299" lon="4.43752">
        <ele>618.4</ele>
        <time>2025-09-08T08:18:15Z</time>
      </trkpt>
      <trkpt lat="46.15298" lon="4.43749">
        <ele>618.4</ele>
        <time>2025-09-08T08:18:16Z</time>
      </trkpt>
      <trkpt lat="46.15298" lon="4.43747">
        <ele>618.8</ele>
        <time>2025-09-08T08:18:17Z</time>
      </trkpt>
      <trkpt lat="46.15298" lon="4.43745">
        <ele>619</ele>
        <time>2025-09-08T08:18:18Z</time>
      </trkpt>
      <trkpt lat="46.15298" lon="4.43742">
        <ele>619.4</ele>
        <time>2025-09-08T08:18:19Z</time>
      </trkpt>
      <trkpt lat="46.15297" lon="4.4374">
        <ele>619.4</ele>
        <time>2025-09-08T08:18:20Z</time>
      </trkpt>
      <trkpt lat="46.15297" lon="4.43738">
        <ele>619.4</ele>
        <time>2025-09-08T08:18:21Z</time>
      </trkpt>
      <trkpt lat="46.15296" lon="4.43736">
        <ele>619.6</ele>
        <time>2025-09-08T08:18:22Z</time>
      </trkpt>
      <trkpt lat="46.15295" lon="4.43735">
        <ele>619.6</ele>
        <time>2025-09-08T08:18:23Z</time>
      </trkpt>
      <trkpt lat="46.15295" lon="4.43732">
        <ele>620</ele>
        <time>2025-09-08T08:18:24Z</time>
      </trkpt>
      <trkpt lat="46.15295" lon="4.4373">
        <ele>620</ele>
        <time>2025-09-08T08:18:25Z</time>
      </trkpt>
      <trkpt lat="46.15295" lon="4.43727">
        <ele>620.4</ele>
        <time>2025-09-08T08:18:26Z</time>
      </trkpt>
      <trkpt lat="46.15295" lon="4.43725">
        <ele>620.4</ele>
        <time>2025-09-08T08:18:27Z</time>
      </trkpt>
      <trkpt lat="46.15294" lon="4.43724">
        <ele>620.4</ele>
        <time>2025-09-08T08:18:28Z</time>
      </trkpt>
      <trkpt lat="46.15294" lon="4.43723">
        <ele>620.8</ele>
        <time>2025-09-08T08:18:29Z</time>
      </trkpt>
      <trkpt lat="46.15293" lon="4.43722">
        <ele>620.8</ele>
        <time>2025-09-08T08:18:30Z</time>
      </trkpt>
      <trkpt lat="46.15293" lon="4.4372">
        <ele>621</ele>
        <time>2025-09-08T08:18:31Z</time>
      </trkpt>
      <trkpt lat="46.15293" lon="4.43719">
        <ele>621</ele>
        <time>2025-09-08T08:18:32Z</time>
      </trkpt>
      <trkpt lat="46.15292" lon="4.43717">
        <ele>621</ele>
        <time>2025-09-08T08:18:33Z</time>
      </trkpt>
      <trkpt lat="46.15292" lon="4.43714">
        <ele>621</ele>
        <time>2025-09-08T08:18:34Z</time>
      </trkpt>
      <trkpt lat="46.15291" lon="4.43713">
        <ele>621</ele>
        <time>2025-09-08T08:18:35Z</time>
      </trkpt>
      <trkpt lat="46.1529" lon="4.43711">
        <ele>621.4</ele>
        <time>2025-09-08T08:18:36Z</time>
      </trkpt>
      <trkpt lat="46.1529" lon="4.43709">
        <ele>621.4</ele>
        <time>2025-09-08T08:18:37Z</time>
      </trkpt>
      <trkpt lat="46.1529" lon="4.43707">
        <ele>621.6</ele>
        <time>2025-09-08T08:18:38Z</time>
      </trkpt>
      <trkpt lat="46.15289" lon="4.43704">
        <ele>621.8</ele>
        <time>2025-09-08T08:18:39Z</time>
      </trkpt>
      <trkpt lat="46.15288" lon="4.43702">
        <ele>621.8</ele>
        <time>2025-09-08T08:18:40Z</time>
      </trkpt>
      <trkpt lat="46.15288" lon="4.43701">
        <ele>622.2</ele>
        <time>2025-09-08T08:18:41Z</time>
      </trkpt>
      <trkpt lat="46.15288" lon="4.43699">
        <ele>622.2</ele>
        <time>2025-09-08T08:18:42Z</time>
      </trkpt>
      <trkpt lat="46.15287" lon="4.43698">
        <ele>622.4</ele>
        <time>2025-09-08T08:18:43Z</time>
      </trkpt>
      <trkpt lat="46.15287" lon="4.43696">
        <ele>622.4</ele>
        <time>2025-09-08T08:18:44Z</time>
      </trkpt>
      <trkpt lat="46.15286" lon="4.43695">
        <ele>622.8</ele>
        <time>2025-09-08T08:18:45Z</time>
      </trkpt>
      <trkpt lat="46.15286" lon="4.43694">
        <ele>622.8</ele>
        <time>2025-09-08T08:18:46Z</time>
      </trkpt>
      <trkpt lat="46.15286" lon="4.43692">
        <ele>622.8</ele>
        <time>2025-09-08T08:18:47Z</time>
      </trkpt>
      <trkpt lat="46.15285" lon="4.4369">
        <ele>623</ele>
        <time>2025-09-08T08:18:48Z</time>
      </trkpt>
      <trkpt lat="46.15285" lon="4.43689">
        <ele>623</ele>
        <time>2025-09-08T08:18:49Z</time>
      </trkpt>
      <trkpt lat="46.15286" lon="4.43686">
        <ele>623.2</ele>
        <time>2025-09-08T08:18:50Z</time>
      </trkpt>
      <trkpt lat="46.15286" lon="4.43685">
        <ele>623.4</ele>
        <time>2025-09-08T08:18:51Z</time>
      </trkpt>
      <trkpt lat="46.15286" lon="4.43683">
        <ele>623.8</ele>
        <time>2025-09-08T08:18:52Z</time>
      </trkpt>
      <trkpt lat="46.15286" lon="4.43681">
        <ele>623.8</ele>
        <time>2025-09-08T08:18:53Z</time>
      </trkpt>
      <trkpt lat="46.15285" lon="4.43679">
        <ele>624.2</ele>
        <time>2025-09-08T08:18:54Z</time>
      </trkpt>
      <trkpt lat="46.15285" lon="4.43677">
        <ele>624.2</ele>
        <time>2025-09-08T08:18:55Z</time>
      </trkpt>
      <trkpt lat="46.15284" lon="4.43675">
        <ele>624.4</ele>
        <time>2025-09-08T08:18:56Z</time>
      </trkpt>
      <trkpt lat="46.15284" lon="4.43674">
        <ele>624.4</ele>
        <time>2025-09-08T08:18:57Z</time>
      </trkpt>
      <trkpt lat="46.15284" lon="4.43673">
        <ele>624.8</ele>
        <time>2025-09-08T08:18:58Z</time>
      </trkpt>
      <trkpt lat="46.15284" lon="4.43672">
        <ele>625.2</ele>
        <time>2025-09-08T08:18:59Z</time>
      </trkpt>
      <trkpt lat="46.15284" lon="4.43671">
        <ele>625.4</ele>
        <time>2025-09-08T08:19:00Z</time>
      </trkpt>
      <trkpt lat="46.15284" lon="4.4367">
        <ele>625.4</ele>
        <time>2025-09-08T08:19:01Z</time>
      </trkpt>
      <trkpt lat="46.15284" lon="4.43669">
        <ele>625.6</ele>
        <time>2025-09-08T08:19:02Z</time>
      </trkpt>
      <trkpt lat="46.15284" lon="4.43667">
        <ele>625.6</ele>
        <time>2025-09-08T08:19:03Z</time>
      </trkpt>
      <trkpt lat="46.15283" lon="4.43666">
        <ele>625.6</ele>
        <time>2025-09-08T08:19:04Z</time>
      </trkpt>
      <trkpt lat="46.15283" lon="4.43664">
        <ele>625.8</ele>
        <time>2025-09-08T08:19:05Z</time>
      </trkpt>
      <trkpt lat="46.15282" lon="4.43664">
        <ele>625.8</ele>
        <time>2025-09-08T08:19:06Z</time>
      </trkpt>
      <trkpt lat="46.15282" lon="4.43663">
        <ele>625.8</ele>
        <time>2025-09-08T08:19:07Z</time>
      </trkpt>
      <trkpt lat="46.15281" lon="4.43662">
        <ele>626.2</ele>
        <time>2025-09-08T08:19:08Z</time>
      </trkpt>
      <trkpt lat="46.15279" lon="4.43662">
        <ele>626.2</ele>
        <time>2025-09-08T08:19:09Z</time>
      </trkpt>
      <trkpt lat="46.15279" lon="4.43661">
        <ele>626.4</ele>
        <time>2025-09-08T08:19:10Z</time>
      </trkpt>
      <trkpt lat="46.15278" lon="4.4366">
        <ele>626.4</ele>
        <time>2025-09-08T08:19:11Z</time>
      </trkpt>
      <trkpt lat="46.15278" lon="4.43659">
        <ele>626.4</ele>
        <time>2025-09-08T08:19:12Z</time>
      </trkpt>
      <trkpt lat="46.15278" lon="4.43657">
        <ele>626.6</ele>
        <time>2025-09-08T08:19:13Z</time>
      </trkpt>
      <trkpt lat="46.15278" lon="4.43656">
        <ele>626.6</ele>
        <time>2025-09-08T08:19:14Z</time>
      </trkpt>
      <trkpt lat="46.15278" lon="4.43654">
        <ele>626.6</ele>
        <time>2025-09-08T08:19:15Z</time>
      </trkpt>
      <trkpt lat="46.15279" lon="4.43652">
        <ele>627</ele>
        <time>2025-09-08T08:19:16Z</time>
      </trkpt>
      <trkpt lat="46.1528" lon="4.4365">
        <ele>627</ele>
        <time>2025-09-08T08:19:17Z</time>
      </trkpt>
      <trkpt lat="46.1528" lon="4.43648">
        <ele>627.2</ele>
        <time>2025-09-08T08:19:18Z</time>
      </trkpt>
      <trkpt lat="46.1528" lon="4.43646">
        <ele>627.2</ele>
        <time>2025-09-08T08:19:19Z</time>
      </trkpt>
      <trkpt lat="46.15279" lon="4.43645">
        <ele>627.4</ele>
        <time>2025-09-08T08:19:20Z</time>
      </trkpt>
      <trkpt lat="46.15278" lon="4.43644">
        <ele>627.8</ele>
        <time>2025-09-08T08:19:21Z</time>
      </trkpt>
      <trkpt lat="46.15277" lon="4.43643">
        <ele>627.8</ele>
        <time>2025-09-08T08:19:22Z</time>
      </trkpt>
      <trkpt lat="46.15276" lon="4.43642">
        <ele>628</ele>
        <time>2025-09-08T08:19:23Z</time>
      </trkpt>
      <trkpt lat="46.15274" lon="4.43641">
        <ele>628</ele>
        <time>2025-09-08T08:19:24Z</time>
      </trkpt>
      <trkpt lat="46.15273" lon="4.4364">
        <ele>628.4</ele>
        <time>2025-09-08T08:19:25Z</time>
      </trkpt>
      <trkpt lat="46.15271" lon="4.43639">
        <ele>628.4</ele>
        <time>2025-09-08T08:19:26Z</time>
      </trkpt>
      <trkpt lat="46.1527" lon="4.43639">
        <ele>628.4</ele>
        <time>2025-09-08T08:19:27Z</time>
      </trkpt>
      <trkpt lat="46.1527" lon="4.43638">
        <ele>628.4</ele>
        <time>2025-09-08T08:19:28Z</time>
      </trkpt>
      <trkpt lat="46.15269" lon="4.43637">
        <ele>628.4</ele>
        <time>2025-09-08T08:19:29Z</time>
      </trkpt>
      <trkpt lat="46.15269" lon="4.43636">
        <ele>628.6</ele>
        <time>2025-09-08T08:19:30Z</time>
      </trkpt>
      <trkpt lat="46.15268" lon="4.43633">
        <ele>628.6</ele>
        <time>2025-09-08T08:19:31Z</time>
      </trkpt>
      <trkpt lat="46.15268" lon="4.43631">
        <ele>629</ele>
        <time>2025-09-08T08:19:32Z</time>
      </trkpt>
      <trkpt lat="46.15267" lon="4.4363">
        <ele>629</ele>
        <time>2025-09-08T08:19:33Z</time>
      </trkpt>
      <trkpt lat="46.15267" lon="4.43627">
        <ele>629</ele>
        <time>2025-09-08T08:19:34Z</time>
      </trkpt>
      <trkpt lat="46.15267" lon="4.43625">
        <ele>629.2</ele>
        <time>2025-09-08T08:19:35Z</time>
      </trkpt>
      <trkpt lat="46.15266" lon="4.43623">
        <ele>629.2</ele>
        <time>2025-09-08T08:19:36Z</time>
      </trkpt>
      <trkpt lat="46.15265" lon="4.43622">
        <ele>629.2</ele>
        <time>2025-09-08T08:19:37Z</time>
      </trkpt>
      <trkpt lat="46.15265" lon="4.43619">
        <ele>629.2</ele>
        <time>2025-09-08T08:19:38Z</time>
      </trkpt>
      <trkpt lat="46.15265" lon="4.43616">
        <ele>629.4</ele>
        <time>2025-09-08T08:19:39Z</time>
      </trkpt>
      <trkpt lat="46.15266" lon="4.43614">
        <ele>629.4</ele>
        <time>2025-09-08T08:19:40Z</time>
      </trkpt>
      <trkpt lat="46.15266" lon="4.43612">
        <ele>629.8</ele>
        <time>2025-09-08T08:19:41Z</time>
      </trkpt>
      <trkpt lat="46.15266" lon="4.4361">
        <ele>629.8</ele>
        <time>2025-09-08T08:19:42Z</time>
      </trkpt>
      <trkpt lat="46.15266" lon="4.43607">
        <ele>629.8</ele>
        <time>2025-09-08T08:19:43Z</time>
      </trkpt>
      <trkpt lat="46.15266" lon="4.43605">
        <ele>630.2</ele>
        <time>2025-09-08T08:19:44Z</time>
      </trkpt>
      <trkpt lat="46.15265" lon="4.43604">
        <ele>630.2</ele>
        <time>2025-09-08T08:19:45Z</time>
      </trkpt>
      <trkpt lat="46.15263" lon="4.43603">
        <ele>630.8</ele>
        <time>2025-09-08T08:19:46Z</time>
      </trkpt>
      <trkpt lat="46.15262" lon="4.43602">
        <ele>630.8</ele>
        <time>2025-09-08T08:19:47Z</time>
      </trkpt>
      <trkpt lat="46.1526" lon="4.43602">
        <ele>630.8</ele>
        <time>2025-09-08T08:19:48Z</time>
      </trkpt>
      <trkpt lat="46.15258" lon="4.43601">
        <ele>631</ele>
        <time>2025-09-08T08:19:49Z</time>
      </trkpt>
      <trkpt lat="46.15257" lon="4.436">
        <ele>631</ele>
        <time>2025-09-08T08:19:50Z</time>
      </trkpt>
      <trkpt lat="46.15256" lon="4.436">
        <ele>631.2</ele>
        <time>2025-09-08T08:19:51Z</time>
      </trkpt>
      <trkpt lat="46.15256" lon="4.43598">
        <ele>631.4</ele>
        <time>2025-09-08T08:19:52Z</time>
      </trkpt>
      <trkpt lat="46.15255" lon="4.43597">
        <ele>631.4</ele>
        <time>2025-09-08T08:19:53Z</time>
      </trkpt>
      <trkpt lat="46.15254" lon="4.43595">
        <ele>631.4</ele>
        <time>2025-09-08T08:19:54Z</time>
      </trkpt>
      <trkpt lat="46.15253" lon="4.43595">
        <ele>631.8</ele>
        <time>2025-09-08T08:19:55Z</time>
      </trkpt>
      <trkpt lat="46.15252" lon="4.43593">
        <ele>631.8</ele>
        <time>2025-09-08T08:19:56Z</time>
      </trkpt>
      <trkpt lat="46.15251" lon="4.43593">
        <ele>631.8</ele>
        <time>2025-09-08T08:19:57Z</time>
      </trkpt>
      <trkpt lat="46.15249" lon="4.43592">
        <ele>631.8</ele>
        <time>2025-09-08T08:19:58Z</time>
      </trkpt>
      <trkpt lat="46.15248" lon="4.43591">
        <ele>632</ele>
        <time>2025-09-08T08:19:59Z</time>
      </trkpt>
      <trkpt lat="46.15246" lon="4.4359">
        <ele>632</ele>
        <time>2025-09-08T08:20:00Z</time>
      </trkpt>
      <trkpt lat="46.15245" lon="4.43589">
        <ele>632</ele>
        <time>2025-09-08T08:20:01Z</time>
      </trkpt>
      <trkpt lat="46.15244" lon="4.43588">
        <ele>632.4</ele>
        <time>2025-09-08T08:20:02Z</time>
      </trkpt>
      <trkpt lat="46.15242" lon="4.43587">
        <ele>632.4</ele>
        <time>2025-09-08T08:20:03Z</time>
      </trkpt>
      <trkpt lat="46.15241" lon="4.43586">
        <ele>632.4</ele>
        <time>2025-09-08T08:20:04Z</time>
      </trkpt>
      <trkpt lat="46.1524" lon="4.43584">
        <ele>632.4</ele>
        <time>2025-09-08T08:20:05Z</time>
      </trkpt>
      <trkpt lat="46.15239" lon="4.43583">
        <ele>632.8</ele>
        <time>2025-09-08T08:20:06Z</time>
      </trkpt>
      <trkpt lat="46.15239" lon="4.43581">
        <ele>632.8</ele>
        <time>2025-09-08T08:20:07Z</time>
      </trkpt>
      <trkpt lat="46.15237" lon="4.4358">
        <ele>632.8</ele>
        <time>2025-09-08T08:20:08Z</time>
      </trkpt>
      <trkpt lat="46.15236" lon="4.43579">
        <ele>632.8</ele>
        <time>2025-09-08T08:20:09Z</time>
      </trkpt>
      <trkpt lat="46.15235" lon="4.43578">
        <ele>633</ele>
        <time>2025-09-08T08:20:10Z</time>
      </trkpt>
      <trkpt lat="46.15234" lon="4.43577">
        <ele>633</ele>
        <time>2025-09-08T08:20:11Z</time>
      </trkpt>
      <trkpt lat="46.15232" lon="4.43576">
        <ele>633</ele>
        <time>2025-09-08T08:20:12Z</time>
      </trkpt>
      <trkpt lat="46.15231" lon="4.43575">
        <ele>633.2</ele>
        <time>2025-09-08T08:20:13Z</time>
      </trkpt>
      <trkpt lat="46.15231" lon="4.43574">
        <ele>633.2</ele>
        <time>2025-09-08T08:20:14Z</time>
      </trkpt>
      <trkpt lat="46.1523" lon="4.43572">
        <ele>633.6</ele>
        <time>2025-09-08T08:20:15Z</time>
      </trkpt>
      <trkpt lat="46.1523" lon="4.43569">
        <ele>633.6</ele>
        <time>2025-09-08T08:20:16Z</time>
      </trkpt>
      <trkpt lat="46.15229" lon="4.43567">
        <ele>633.6</ele>
        <time>2025-09-08T08:20:17Z</time>
      </trkpt>
      <trkpt lat="46.15228" lon="4.43565">
        <ele>633.6</ele>
        <time>2025-09-08T08:20:18Z</time>
      </trkpt>
      <trkpt lat="46.15227" lon="4.43564">
        <ele>633.8</ele>
        <time>2025-09-08T08:20:19Z</time>
      </trkpt>
      <trkpt lat="46.15226" lon="4.43563">
        <ele>633.8</ele>
        <time>2025-09-08T08:20:20Z</time>
      </trkpt>
      <trkpt lat="46.15225" lon="4.43561">
        <ele>634</ele>
        <time>2025-09-08T08:20:21Z</time>
      </trkpt>
      <trkpt lat="46.15224" lon="4.43558">
        <ele>634</ele>
        <time>2025-09-08T08:20:22Z</time>
      </trkpt>
      <trkpt lat="46.15224" lon="4.43558">
        <ele>634.2</ele>
        <time>2025-09-08T08:20:23Z</time>
      </trkpt>
      <trkpt lat="46.15222" lon="4.43555">
        <ele>634.2</ele>
        <time>2025-09-08T08:20:24Z</time>
      </trkpt>
      <trkpt lat="46.15221" lon="4.43553">
        <ele>634.2</ele>
        <time>2025-09-08T08:20:25Z</time>
      </trkpt>
      <trkpt lat="46.1522" lon="4.43551">
        <ele>634.2</ele>
        <time>2025-09-08T08:20:26Z</time>
      </trkpt>
      <trkpt lat="46.15219" lon="4.43549">
        <ele>634.2</ele>
        <time>2025-09-08T08:20:27Z</time>
      </trkpt>
      <trkpt lat="46.15218" lon="4.43547">
        <ele>634.2</ele>
        <time>2025-09-08T08:20:28Z</time>
      </trkpt>
      <trkpt lat="46.15217" lon="4.43544">
        <ele>634.6</ele>
        <time>2025-09-08T08:20:29Z</time>
      </trkpt>
      <trkpt lat="46.15216" lon="4.43542">
        <ele>634.8</ele>
        <time>2025-09-08T08:20:30Z</time>
      </trkpt>
      <trkpt lat="46.15216" lon="4.4354">
        <ele>635.2</ele>
        <time>2025-09-08T08:20:31Z</time>
      </trkpt>
      <trkpt lat="46.15215" lon="4.43538">
        <ele>635.2</ele>
        <time>2025-09-08T08:20:32Z</time>
      </trkpt>
      <trkpt lat="46.15215" lon="4.43535">
        <ele>635.2</ele>
        <time>2025-09-08T08:20:33Z</time>
      </trkpt>
      <trkpt lat="46.15214" lon="4.43533">
        <ele>635.2</ele>
        <time>2025-09-08T08:20:34Z</time>
      </trkpt>
      <trkpt lat="46.15214" lon="4.43531">
        <ele>635.2</ele>
        <time>2025-09-08T08:20:35Z</time>
      </trkpt>
      <trkpt lat="46.15213" lon="4.43529">
        <ele>635.2</ele>
        <time>2025-09-08T08:20:36Z</time>
      </trkpt>
      <trkpt lat="46.15212" lon="4.43527">
        <ele>635.2</ele>
        <time>2025-09-08T08:20:37Z</time>
      </trkpt>
      <trkpt lat="46.15212" lon="4.43525">
        <ele>635.4</ele>
        <time>2025-09-08T08:20:38Z</time>
      </trkpt>
      <trkpt lat="46.15212" lon="4.43523">
        <ele>635.4</ele>
        <time>2025-09-08T08:20:39Z</time>
      </trkpt>
      <trkpt lat="46.15212" lon="4.43521">
        <ele>635.4</ele>
        <time>2025-09-08T08:20:40Z</time>
      </trkpt>
      <trkpt lat="46.15212" lon="4.4352">
        <ele>634</ele>
        <time>2025-09-08T08:20:41Z</time>
      </trkpt>
      <trkpt lat="46.15212" lon="4.43518">
        <ele>634.6</ele>
        <time>2025-09-08T08:20:42Z</time>
      </trkpt>
      <trkpt lat="46.15212" lon="4.43516">
        <ele>635</ele>
        <time>2025-09-08T08:20:43Z</time>
      </trkpt>
      <trkpt lat="46.15212" lon="4.43514">
        <ele>635</ele>
        <time>2025-09-08T08:20:44Z</time>
      </trkpt>
      <trkpt lat="46.15211" lon="4.43513">
        <ele>635.4</ele>
        <time>2025-09-08T08:20:45Z</time>
      </trkpt>
      <trkpt lat="46.15211" lon="4.43511">
        <ele>635.4</ele>
        <time>2025-09-08T08:20:46Z</time>
      </trkpt>
      <trkpt lat="46.15211" lon="4.43509">
        <ele>635.8</ele>
        <time>2025-09-08T08:20:47Z</time>
      </trkpt>
      <trkpt lat="46.15211" lon="4.43507">
        <ele>635.8</ele>
        <time>2025-09-08T08:20:48Z</time>
      </trkpt>
      <trkpt lat="46.15211" lon="4.43506">
        <ele>636.2</ele>
        <time>2025-09-08T08:20:49Z</time>
      </trkpt>
      <trkpt lat="46.15212" lon="4.43505">
        <ele>636.2</ele>
        <time>2025-09-08T08:20:50Z</time>
      </trkpt>
      <trkpt lat="46.15213" lon="4.43505">
        <ele>636.2</ele>
        <time>2025-09-08T08:20:51Z</time>
      </trkpt>
      <trkpt lat="46.15214" lon="4.43505">
        <ele>636.6</ele>
        <time>2025-09-08T08:20:52Z</time>
      </trkpt>
      <trkpt lat="46.15214" lon="4.43506">
        <ele>636.6</ele>
        <time>2025-09-08T08:20:53Z</time>
      </trkpt>
      <trkpt lat="46.15213" lon="4.43504">
        <ele>636.8</ele>
        <time>2025-09-08T08:25:18Z</time>
      </trkpt>
      <trkpt lat="46.15214" lon="4.43504">
        <ele>636.8</ele>
        <time>2025-09-08T08:25:19Z</time>
      </trkpt>
      <trkpt lat="46.15214" lon="4.43504">
        <ele>636.8</ele>
        <time>2025-09-08T08:25:20Z</time>
      </trkpt>
      <trkpt lat="46.15214" lon="4.43504">
        <ele>636.8</ele>
        <time>2025-09-08T08:25:21Z</time>
      </trkpt>
      <trkpt lat="46.15218" lon="4.43501">
        <ele>637.2</ele>
        <time>2025-09-08T08:25:23Z</time>
      </trkpt>
      <trkpt lat="46.15219" lon="4.435">
        <ele>637.2</ele>
        <time>2025-09-08T08:25:24Z</time>
      </trkpt>
      <trkpt lat="46.1522" lon="4.435">
        <ele>637.2</ele>
        <time>2025-09-08T08:25:25Z</time>
      </trkpt>
      <trkpt lat="46.15221" lon="4.43499">
        <ele>637.4</ele>
        <time>2025-09-08T08:25:26Z</time>
      </trkpt>
      <trkpt lat="46.15222" lon="4.43499">
        <ele>637.4</ele>
        <time>2025-09-08T08:25:27Z</time>
      </trkpt>
      <trkpt lat="46.15223" lon="4.43498">
        <ele>637.4</ele>
        <time>2025-09-08T08:25:28Z</time>
      </trkpt>
      <trkpt lat="46.15223" lon="4.43498">
        <ele>638</ele>
        <time>2025-09-08T08:25:29Z</time>
      </trkpt>
      <trkpt lat="46.15224" lon="4.43498">
        <ele>638.2</ele>
        <time>2025-09-08T08:25:30Z</time>
      </trkpt>
      <trkpt lat="46.15225" lon="4.43498">
        <ele>638.4</ele>
        <time>2025-09-08T08:25:31Z</time>
      </trkpt>
      <trkpt lat="46.15225" lon="4.43497">
        <ele>638.8</ele>
        <time>2025-09-08T08:25:32Z</time>
      </trkpt>
      <trkpt lat="46.15225" lon="4.43496">
        <ele>638.8</ele>
        <time>2025-09-08T08:25:33Z</time>
      </trkpt>
      <trkpt lat="46.15225" lon="4.43496">
        <ele>639.2</ele>
        <time>2025-09-08T08:25:34Z</time>
      </trkpt>
      <trkpt lat="46.15225" lon="4.43495">
        <ele>639.2</ele>
        <time>2025-09-08T08:25:35Z</time>
      </trkpt>
      <trkpt lat="46.15226" lon="4.43494">
        <ele>639.2</ele>
        <time>2025-09-08T08:25:36Z</time>
      </trkpt>
      <trkpt lat="46.15226" lon="4.43494">
        <ele>639.4</ele>
        <time>2025-09-08T08:25:37Z</time>
      </trkpt>
      <trkpt lat="46.15226" lon="4.43494">
        <ele>639.4</ele>
        <time>2025-09-08T08:25:38Z</time>
      </trkpt>
      <trkpt lat="46.15227" lon="4.43493">
        <ele>639.6</ele>
        <time>2025-09-08T08:25:39Z</time>
      </trkpt>
      <trkpt lat="46.15228" lon="4.43494">
        <ele>639.6</ele>
        <time>2025-09-08T08:25:40Z</time>
      </trkpt>
      <trkpt lat="46.15228" lon="4.43494">
        <ele>639.8</ele>
        <time>2025-09-08T08:25:41Z</time>
      </trkpt>
      <trkpt lat="46.15229" lon="4.43493">
        <ele>639.8</ele>
        <time>2025-09-08T08:25:42Z</time>
      </trkpt>
      <trkpt lat="46.15228" lon="4.43492">
        <ele>639.8</ele>
        <time>2025-09-08T08:25:43Z</time>
      </trkpt>
      <trkpt lat="46.15231" lon="4.4349">
        <ele>641</ele>
        <time>2025-09-08T08:25:57Z</time>
      </trkpt>
      <trkpt lat="46.15232" lon="4.43489">
        <ele>641</ele>
        <time>2025-09-08T08:25:58Z</time>
      </trkpt>
      <trkpt lat="46.15233" lon="4.43488">
        <ele>641</ele>
        <time>2025-09-08T08:25:59Z</time>
      </trkpt>
      <trkpt lat="46.15234" lon="4.43487">
        <ele>641</ele>
        <time>2025-09-08T08:26:00Z</time>
      </trkpt>
      <trkpt lat="46.15234" lon="4.43487">
        <ele>641.2</ele>
        <time>2025-09-08T08:26:01Z</time>
      </trkpt>
      <trkpt lat="46.15237" lon="4.43485">
        <ele>641.2</ele>
        <time>2025-09-08T08:26:02Z</time>
      </trkpt>
      <trkpt lat="46.15238" lon="4.43484">
        <ele>641.4</ele>
        <time>2025-09-08T08:26:03Z</time>
      </trkpt>
      <trkpt lat="46.15239" lon="4.43484">
        <ele>641.8</ele>
        <time>2025-09-08T08:26:04Z</time>
      </trkpt>
      <trkpt lat="46.1524" lon="4.43483">
        <ele>641.8</ele>
        <time>2025-09-08T08:26:05Z</time>
      </trkpt>
      <trkpt lat="46.15241" lon="4.43482">
        <ele>641.8</ele>
        <time>2025-09-08T08:26:06Z</time>
      </trkpt>
      <trkpt lat="46.15242" lon="4.43481">
        <ele>642</ele>
        <time>2025-09-08T08:26:07Z</time>
      </trkpt>
      <trkpt lat="46.15243" lon="4.43481">
        <ele>642.2</ele>
        <time>2025-09-08T08:26:08Z</time>
      </trkpt>
      <trkpt lat="46.15244" lon="4.4348">
        <ele>642.2</ele>
        <time>2025-09-08T08:26:09Z</time>
      </trkpt>
      <trkpt lat="46.15245" lon="4.4348">
        <ele>642.8</ele>
        <time>2025-09-08T08:26:10Z</time>
      </trkpt>
      <trkpt lat="46.15245" lon="4.43479">
        <ele>642.8</ele>
        <time>2025-09-08T08:26:11Z</time>
      </trkpt>
      <trkpt lat="46.15246" lon="4.43479">
        <ele>642.8</ele>
        <time>2025-09-08T08:26:12Z</time>
      </trkpt>
      <trkpt lat="46.15247" lon="4.43478">
        <ele>642.8</ele>
        <time>2025-09-08T08:26:13Z</time>
      </trkpt>
      <trkpt lat="46.15247" lon="4.43478">
        <ele>643</ele>
        <time>2025-09-08T08:26:14Z</time>
      </trkpt>
      <trkpt lat="46.15248" lon="4.43478">
        <ele>643</ele>
        <time>2025-09-08T08:26:15Z</time>
      </trkpt>
      <trkpt lat="46.15249" lon="4.43477">
        <ele>643.2</ele>
        <time>2025-09-08T08:26:16Z</time>
      </trkpt>
      <trkpt lat="46.1525" lon="4.43477">
        <ele>643.2</ele>
        <time>2025-09-08T08:26:17Z</time>
      </trkpt>
      <trkpt lat="46.15251" lon="4.43476">
        <ele>643.4</ele>
        <time>2025-09-08T08:26:18Z</time>
      </trkpt>
      <trkpt lat="46.15252" lon="4.43476">
        <ele>643.4</ele>
        <time>2025-09-08T08:26:19Z</time>
      </trkpt>
      <trkpt lat="46.15252" lon="4.43476">
        <ele>643.4</ele>
        <time>2025-09-08T08:26:20Z</time>
      </trkpt>
      <trkpt lat="46.15253" lon="4.43476">
        <ele>643.4</ele>
        <time>2025-09-08T08:26:21Z</time>
      </trkpt>
      <trkpt lat="46.15254" lon="4.43476">
        <ele>643.8</ele>
        <time>2025-09-08T08:26:22Z</time>
      </trkpt>
      <trkpt lat="46.15255" lon="4.43476">
        <ele>644</ele>
        <time>2025-09-08T08:26:23Z</time>
      </trkpt>
      <trkpt lat="46.15255" lon="4.43476">
        <ele>644</ele>
        <time>2025-09-08T08:26:24Z</time>
      </trkpt>
      <trkpt lat="46.15256" lon="4.43476">
        <ele>644.2</ele>
        <time>2025-09-08T08:26:25Z</time>
      </trkpt>
      <trkpt lat="46.15258" lon="4.43475">
        <ele>644.2</ele>
        <time>2025-09-08T08:26:26Z</time>
      </trkpt>
      <trkpt lat="46.15259" lon="4.43474">
        <ele>644.2</ele>
        <time>2025-09-08T08:26:27Z</time>
      </trkpt>
      <trkpt lat="46.15259" lon="4.43474">
        <ele>644.2</ele>
        <time>2025-09-08T08:26:28Z</time>
      </trkpt>
      <trkpt lat="46.15259" lon="4.43474">
        <ele>644.6</ele>
        <time>2025-09-08T08:26:29Z</time>
      </trkpt>
      <trkpt lat="46.1526" lon="4.43473">
        <ele>644.6</ele>
        <time>2025-09-08T08:26:30Z</time>
      </trkpt>
      <trkpt lat="46.1526" lon="4.43473">
        <ele>644.8</ele>
        <time>2025-09-08T08:26:31Z</time>
      </trkpt>
      <trkpt lat="46.15261" lon="4.43472">
        <ele>644.8</ele>
        <time>2025-09-08T08:26:32Z</time>
      </trkpt>
      <trkpt lat="46.15262" lon="4.43472">
        <ele>644.8</ele>
        <time>2025-09-08T08:26:33Z</time>
      </trkpt>
      <trkpt lat="46.15262" lon="4.43472">
        <ele>645</ele>
        <time>2025-09-08T08:26:34Z</time>
      </trkpt>
      <trkpt lat="46.15263" lon="4.43472">
        <ele>645</ele>
        <time>2025-09-08T08:26:35Z</time>
      </trkpt>
      <trkpt lat="46.15264" lon="4.43472">
        <ele>645.4</ele>
        <time>2025-09-08T08:26:36Z</time>
      </trkpt>
      <trkpt lat="46.15264" lon="4.43472">
        <ele>645.4</ele>
        <time>2025-09-08T08:26:37Z</time>
      </trkpt>
      <trkpt lat="46.15265" lon="4.43471">
        <ele>645.6</ele>
        <time>2025-09-08T08:26:38Z</time>
      </trkpt>
      <trkpt lat="46.15265" lon="4.43471">
        <ele>645.6</ele>
        <time>2025-09-08T08:26:39Z</time>
      </trkpt>
      <trkpt lat="46.15266" lon="4.43471">
        <ele>645.8</ele>
        <time>2025-09-08T08:26:40Z</time>
      </trkpt>
      <trkpt lat="46.15267" lon="4.43471">
        <ele>645.8</ele>
        <time>2025-09-08T08:26:41Z</time>
      </trkpt>
      <trkpt lat="46.15267" lon="4.43471">
        <ele>646.2</ele>
        <time>2025-09-08T08:26:42Z</time>
      </trkpt>
      <trkpt lat="46.15268" lon="4.4347">
        <ele>646.2</ele>
        <time>2025-09-08T08:26:43Z</time>
      </trkpt>
      <trkpt lat="46.15268" lon="4.4347">
        <ele>646.6</ele>
        <time>2025-09-08T08:26:44Z</time>
      </trkpt>
      <trkpt lat="46.15269" lon="4.43469">
        <ele>646.6</ele>
        <time>2025-09-08T08:26:45Z</time>
      </trkpt>
      <trkpt lat="46.1527" lon="4.43468">
        <ele>646.8</ele>
        <time>2025-09-08T08:26:46Z</time>
      </trkpt>
      <trkpt lat="46.15271" lon="4.43467">
        <ele>647</ele>
        <time>2025-09-08T08:26:47Z</time>
      </trkpt>
      <trkpt lat="46.15272" lon="4.43466">
        <ele>647</ele>
        <time>2025-09-08T08:26:48Z</time>
      </trkpt>
      <trkpt lat="46.15271" lon="4.43466">
        <ele>647.6</ele>
        <time>2025-09-08T08:26:49Z</time>
      </trkpt>
      <trkpt lat="46.15271" lon="4.43466">
        <ele>647.8</ele>
        <time>2025-09-08T08:26:50Z</time>
      </trkpt>
      <trkpt lat="46.15273" lon="4.43465">
        <ele>648</ele>
        <time>2025-09-08T08:26:53Z</time>
      </trkpt>
      <trkpt lat="46.15273" lon="4.43464">
        <ele>648</ele>
        <time>2025-09-08T08:26:54Z</time>
      </trkpt>
      <trkpt lat="46.15274" lon="4.43464">
        <ele>648</ele>
        <time>2025-09-08T08:26:55Z</time>
      </trkpt>
      <trkpt lat="46.15274" lon="4.43464">
        <ele>648.2</ele>
        <time>2025-09-08T08:26:56Z</time>
      </trkpt>
      <trkpt lat="46.15274" lon="4.43463">
        <ele>648.2</ele>
        <time>2025-09-08T08:26:57Z</time>
      </trkpt>
      <trkpt lat="46.15276" lon="4.43462">
        <ele>648.2</ele>
        <time>2025-09-08T08:26:58Z</time>
      </trkpt>
      <trkpt lat="46.15277" lon="4.43461">
        <ele>648.2</ele>
        <time>2025-09-08T08:26:59Z</time>
      </trkpt>
      <trkpt lat="46.15278" lon="4.4346">
        <ele>648.2</ele>
        <time>2025-09-08T08:27:00Z</time>
      </trkpt>
      <trkpt lat="46.15279" lon="4.4346">
        <ele>648.6</ele>
        <time>2025-09-08T08:27:01Z</time>
      </trkpt>
      <trkpt lat="46.1528" lon="4.43459">
        <ele>648.6</ele>
        <time>2025-09-08T08:27:02Z</time>
      </trkpt>
      <trkpt lat="46.1528" lon="4.43459">
        <ele>648.6</ele>
        <time>2025-09-08T08:27:03Z</time>
      </trkpt>
      <trkpt lat="46.15281" lon="4.43458">
        <ele>648.8</ele>
        <time>2025-09-08T08:27:04Z</time>
      </trkpt>
      <trkpt lat="46.15282" lon="4.43457">
        <ele>648.8</ele>
        <time>2025-09-08T08:27:05Z</time>
      </trkpt>
      <trkpt lat="46.15283" lon="4.43456">
        <ele>648.8</ele>
        <time>2025-09-08T08:27:06Z</time>
      </trkpt>
      <trkpt lat="46.15284" lon="4.43456">
        <ele>649.2</ele>
        <time>2025-09-08T08:27:07Z</time>
      </trkpt>
      <trkpt lat="46.15284" lon="4.43455">
        <ele>649.6</ele>
        <time>2025-09-08T08:27:08Z</time>
      </trkpt>
      <trkpt lat="46.15285" lon="4.43454">
        <ele>649.6</ele>
        <time>2025-09-08T08:27:09Z</time>
      </trkpt>
      <trkpt lat="46.15285" lon="4.43454">
        <ele>649.6</ele>
        <time>2025-09-08T08:27:10Z</time>
      </trkpt>
      <trkpt lat="46.15286" lon="4.43453">
        <ele>649.6</ele>
        <time>2025-09-08T08:27:11Z</time>
      </trkpt>
      <trkpt lat="46.15287" lon="4.43453">
        <ele>649.6</ele>
        <time>2025-09-08T08:27:12Z</time>
      </trkpt>
      <trkpt lat="46.15288" lon="4.43452">
        <ele>649.8</ele>
        <time>2025-09-08T08:27:13Z</time>
      </trkpt>
      <trkpt lat="46.15289" lon="4.43451">
        <ele>649.8</ele>
        <time>2025-09-08T08:27:14Z</time>
      </trkpt>
      <trkpt lat="46.1529" lon="4.4345">
        <ele>649.8</ele>
        <time>2025-09-08T08:27:15Z</time>
      </trkpt>
      <trkpt lat="46.1529" lon="4.4345">
        <ele>649.8</ele>
        <time>2025-09-08T08:27:16Z</time>
      </trkpt>
      <trkpt lat="46.15291" lon="4.4345">
        <ele>649.8</ele>
        <time>2025-09-08T08:27:17Z</time>
      </trkpt>
      <trkpt lat="46.15292" lon="4.43449">
        <ele>650.2</ele>
        <time>2025-09-08T08:27:18Z</time>
      </trkpt>
      <trkpt lat="46.15293" lon="4.43448">
        <ele>650.2</ele>
        <time>2025-09-08T08:27:19Z</time>
      </trkpt>
      <trkpt lat="46.15294" lon="4.43447">
        <ele>650.2</ele>
        <time>2025-09-08T08:27:20Z</time>
      </trkpt>
      <trkpt lat="46.15295" lon="4.43446">
        <ele>650.6</ele>
        <time>2025-09-08T08:27:21Z</time>
      </trkpt>
      <trkpt lat="46.15296" lon="4.43446">
        <ele>650.6</ele>
        <time>2025-09-08T08:27:22Z</time>
      </trkpt>
      <trkpt lat="46.15297" lon="4.43445">
        <ele>650.8</ele>
        <time>2025-09-08T08:27:23Z</time>
      </trkpt>
      <trkpt lat="46.15298" lon="4.43444">
        <ele>650.8</ele>
        <time>2025-09-08T08:27:24Z</time>
      </trkpt>
      <trkpt lat="46.15299" lon="4.43443">
        <ele>650.8</ele>
        <time>2025-09-08T08:27:25Z</time>
      </trkpt>
      <trkpt lat="46.153" lon="4.43443">
        <ele>651</ele>
        <time>2025-09-08T08:27:26Z</time>
      </trkpt>
      <trkpt lat="46.153" lon="4.43441">
        <ele>651</ele>
        <time>2025-09-08T08:27:27Z</time>
      </trkpt>
      <trkpt lat="46.15302" lon="4.4344">
        <ele>651.4</ele>
        <time>2025-09-08T08:27:28Z</time>
      </trkpt>
      <trkpt lat="46.15302" lon="4.43439">
        <ele>651.4</ele>
        <time>2025-09-08T08:27:29Z</time>
      </trkpt>
      <trkpt lat="46.15303" lon="4.43438">
        <ele>651.4</ele>
        <time>2025-09-08T08:27:30Z</time>
      </trkpt>
      <trkpt lat="46.15303" lon="4.43437">
        <ele>651.6</ele>
        <time>2025-09-08T08:27:31Z</time>
      </trkpt>
      <trkpt lat="46.15304" lon="4.43436">
        <ele>651.6</ele>
        <time>2025-09-08T08:27:32Z</time>
      </trkpt>
      <trkpt lat="46.15305" lon="4.43435">
        <ele>651.6</ele>
        <time>2025-09-08T08:27:33Z</time>
      </trkpt>
      <trkpt lat="46.15306" lon="4.43434">
        <ele>651.6</ele>
        <time>2025-09-08T08:27:34Z</time>
      </trkpt>
      <trkpt lat="46.15307" lon="4.43434">
        <ele>651.8</ele>
        <time>2025-09-08T08:27:35Z</time>
      </trkpt>
      <trkpt lat="46.15307" lon="4.43433">
        <ele>651.8</ele>
        <time>2025-09-08T08:27:36Z</time>
      </trkpt>
      <trkpt lat="46.15308" lon="4.43433">
        <ele>652.2</ele>
        <time>2025-09-08T08:27:37Z</time>
      </trkpt>
      <trkpt lat="46.15308" lon="4.43432">
        <ele>652.2</ele>
        <time>2025-09-08T08:27:38Z</time>
      </trkpt>
      <trkpt lat="46.15309" lon="4.43431">
        <ele>652.4</ele>
        <time>2025-09-08T08:27:39Z</time>
      </trkpt>
      <trkpt lat="46.1531" lon="4.4343">
        <ele>652.4</ele>
        <time>2025-09-08T08:27:40Z</time>
      </trkpt>
      <trkpt lat="46.15311" lon="4.43429">
        <ele>652.4</ele>
        <time>2025-09-08T08:27:41Z</time>
      </trkpt>
      <trkpt lat="46.15312" lon="4.43429">
        <ele>652.8</ele>
        <time>2025-09-08T08:27:42Z</time>
      </trkpt>
      <trkpt lat="46.15313" lon="4.43428">
        <ele>652.8</ele>
        <time>2025-09-08T08:27:43Z</time>
      </trkpt>
      <trkpt lat="46.15314" lon="4.43427">
        <ele>653.2</ele>
        <time>2025-09-08T08:27:44Z</time>
      </trkpt>
      <trkpt lat="46.15314" lon="4.43426">
        <ele>653.2</ele>
        <time>2025-09-08T08:27:45Z</time>
      </trkpt>
      <trkpt lat="46.15315" lon="4.43425">
        <ele>653.4</ele>
        <time>2025-09-08T08:27:46Z</time>
      </trkpt>
      <trkpt lat="46.15316" lon="4.43424">
        <ele>653.4</ele>
        <time>2025-09-08T08:27:47Z</time>
      </trkpt>
      <trkpt lat="46.15316" lon="4.43423">
        <ele>653.6</ele>
        <time>2025-09-08T08:27:48Z</time>
      </trkpt>
      <trkpt lat="46.15317" lon="4.43423">
        <ele>653.6</ele>
        <time>2025-09-08T08:27:49Z</time>
      </trkpt>
      <trkpt lat="46.15318" lon="4.43421">
        <ele>654</ele>
        <time>2025-09-08T08:27:50Z</time>
      </trkpt>
      <trkpt lat="46.15319" lon="4.43421">
        <ele>654</ele>
        <time>2025-09-08T08:27:51Z</time>
      </trkpt>
      <trkpt lat="46.1532" lon="4.4342">
        <ele>654</ele>
        <time>2025-09-08T08:27:52Z</time>
      </trkpt>
      <trkpt lat="46.15321" lon="4.43419">
        <ele>654</ele>
        <time>2025-09-08T08:27:53Z</time>
      </trkpt>
      <trkpt lat="46.15322" lon="4.43418">
        <ele>654.2</ele>
        <time>2025-09-08T08:27:54Z</time>
      </trkpt>
      <trkpt lat="46.15322" lon="4.43418">
        <ele>654.2</ele>
        <time>2025-09-08T08:27:55Z</time>
      </trkpt>
      <trkpt lat="46.15323" lon="4.43417">
        <ele>654.4</ele>
        <time>2025-09-08T08:27:56Z</time>
      </trkpt>
      <trkpt lat="46.15324" lon="4.43416">
        <ele>654.4</ele>
        <time>2025-09-08T08:27:57Z</time>
      </trkpt>
      <trkpt lat="46.15324" lon="4.43415">
        <ele>654.4</ele>
        <time>2025-09-08T08:27:58Z</time>
      </trkpt>
      <trkpt lat="46.15325" lon="4.43414">
        <ele>654.8</ele>
        <time>2025-09-08T08:27:59Z</time>
      </trkpt>
      <trkpt lat="46.15326" lon="4.43414">
        <ele>654.8</ele>
        <time>2025-09-08T08:28:00Z</time>
      </trkpt>
      <trkpt lat="46.15326" lon="4.43413">
        <ele>654.8</ele>
        <time>2025-09-08T08:28:01Z</time>
      </trkpt>
      <trkpt lat="46.15327" lon="4.43413">
        <ele>655</ele>
        <time>2025-09-08T08:28:02Z</time>
      </trkpt>
      <trkpt lat="46.15328" lon="4.43413">
        <ele>655.4</ele>
        <time>2025-09-08T08:28:03Z</time>
      </trkpt>
      <trkpt lat="46.15328" lon="4.43412">
        <ele>655.4</ele>
        <time>2025-09-08T08:28:04Z</time>
      </trkpt>
      <trkpt lat="46.15329" lon="4.43411">
        <ele>655.6</ele>
        <time>2025-09-08T08:28:05Z</time>
      </trkpt>
      <trkpt lat="46.1533" lon="4.4341">
        <ele>655.6</ele>
        <time>2025-09-08T08:28:06Z</time>
      </trkpt>
      <trkpt lat="46.15331" lon="4.43409">
        <ele>656</ele>
        <time>2025-09-08T08:28:07Z</time>
      </trkpt>
      <trkpt lat="46.15331" lon="4.43409">
        <ele>656</ele>
        <time>2025-09-08T08:28:08Z</time>
      </trkpt>
      <trkpt lat="46.15332" lon="4.43407">
        <ele>656.2</ele>
        <time>2025-09-08T08:28:09Z</time>
      </trkpt>
      <trkpt lat="46.15332" lon="4.43405">
        <ele>656.2</ele>
        <time>2025-09-08T08:28:10Z</time>
      </trkpt>
      <trkpt lat="46.15332" lon="4.43404">
        <ele>656.2</ele>
        <time>2025-09-08T08:28:11Z</time>
      </trkpt>
      <trkpt lat="46.15332" lon="4.43403">
        <ele>656.4</ele>
        <time>2025-09-08T08:28:12Z</time>
      </trkpt>
      <trkpt lat="46.15333" lon="4.43402">
        <ele>656.4</ele>
        <time>2025-09-08T08:28:13Z</time>
      </trkpt>
      <trkpt lat="46.15333" lon="4.43401">
        <ele>656.4</ele>
        <time>2025-09-08T08:28:14Z</time>
      </trkpt>
      <trkpt lat="46.15333" lon="4.434">
        <ele>656.8</ele>
        <time>2025-09-08T08:28:15Z</time>
      </trkpt>
      <trkpt lat="46.15333" lon="4.43398">
        <ele>656.8</ele>
        <time>2025-09-08T08:28:16Z</time>
      </trkpt>
      <trkpt lat="46.15333" lon="4.43397">
        <ele>657</ele>
        <time>2025-09-08T08:28:17Z</time>
      </trkpt>
      <trkpt lat="46.15333" lon="4.43396">
        <ele>657</ele>
        <time>2025-09-08T08:28:18Z</time>
      </trkpt>
      <trkpt lat="46.15333" lon="4.43396">
        <ele>657</ele>
        <time>2025-09-08T08:28:19Z</time>
      </trkpt>
      <trkpt lat="46.15334" lon="4.43395">
        <ele>657.2</ele>
        <time>2025-09-08T08:28:20Z</time>
      </trkpt>
      <trkpt lat="46.15334" lon="4.43394">
        <ele>657.2</ele>
        <time>2025-09-08T08:28:21Z</time>
      </trkpt>
      <trkpt lat="46.15334" lon="4.43393">
        <ele>657.2</ele>
        <time>2025-09-08T08:28:22Z</time>
      </trkpt>
      <trkpt lat="46.15335" lon="4.43392">
        <ele>657.6</ele>
        <time>2025-09-08T08:28:23Z</time>
      </trkpt>
      <trkpt lat="46.15335" lon="4.43391">
        <ele>657.6</ele>
        <time>2025-09-08T08:28:24Z</time>
      </trkpt>
      <trkpt lat="46.15336" lon="4.4339">
        <ele>657.6</ele>
        <time>2025-09-08T08:28:25Z</time>
      </trkpt>
      <trkpt lat="46.15336" lon="4.43389">
        <ele>657.6</ele>
        <time>2025-09-08T08:28:26Z</time>
      </trkpt>
      <trkpt lat="46.15337" lon="4.43388">
        <ele>657.6</ele>
        <time>2025-09-08T08:28:27Z</time>
      </trkpt>
      <trkpt lat="46.15338" lon="4.43387">
        <ele>658.2</ele>
        <time>2025-09-08T08:28:28Z</time>
      </trkpt>
      <trkpt lat="46.15338" lon="4.43386">
        <ele>658.2</ele>
        <time>2025-09-08T08:28:29Z</time>
      </trkpt>
      <trkpt lat="46.15339" lon="4.43386">
        <ele>658.2</ele>
        <time>2025-09-08T08:28:30Z</time>
      </trkpt>
      <trkpt lat="46.15339" lon="4.43385">
        <ele>658.2</ele>
        <time>2025-09-08T08:28:31Z</time>
      </trkpt>
      <trkpt lat="46.1534" lon="4.43384">
        <ele>658.4</ele>
        <time>2025-09-08T08:28:32Z</time>
      </trkpt>
      <trkpt lat="46.1534" lon="4.43383">
        <ele>658.4</ele>
        <time>2025-09-08T08:28:33Z</time>
      </trkpt>
      <trkpt lat="46.15341" lon="4.43382">
        <ele>658.8</ele>
        <time>2025-09-08T08:28:34Z</time>
      </trkpt>
      <trkpt lat="46.15341" lon="4.43381">
        <ele>658.8</ele>
        <time>2025-09-08T08:28:35Z</time>
      </trkpt>
      <trkpt lat="46.15342" lon="4.4338">
        <ele>658.8</ele>
        <time>2025-09-08T08:28:36Z</time>
      </trkpt>
      <trkpt lat="46.15342" lon="4.43379">
        <ele>659</ele>
        <time>2025-09-08T08:28:37Z</time>
      </trkpt>
      <trkpt lat="46.15343" lon="4.43379">
        <ele>659</ele>
        <time>2025-09-08T08:28:38Z</time>
      </trkpt>
      <trkpt lat="46.15344" lon="4.43378">
        <ele>659.4</ele>
        <time>2025-09-08T08:28:39Z</time>
      </trkpt>
      <trkpt lat="46.15345" lon="4.43377">
        <ele>659.4</ele>
        <time>2025-09-08T08:28:40Z</time>
      </trkpt>
      <trkpt lat="46.15345" lon="4.43376">
        <ele>659.4</ele>
        <time>2025-09-08T08:28:41Z</time>
      </trkpt>
      <trkpt lat="46.15346" lon="4.43376">
        <ele>659.6</ele>
        <time>2025-09-08T08:28:42Z</time>
      </trkpt>
      <trkpt lat="46.15346" lon="4.43376">
        <ele>659.6</ele>
        <time>2025-09-08T08:28:43Z</time>
      </trkpt>
      <trkpt lat="46.15347" lon="4.43376">
        <ele>659.6</ele>
        <time>2025-09-08T08:28:44Z</time>
      </trkpt>
      <trkpt lat="46.15347" lon="4.43376">
        <ele>659.8</ele>
        <time>2025-09-08T08:28:45Z</time>
      </trkpt>
      <trkpt lat="46.15347" lon="4.43375">
        <ele>659.8</ele>
        <time>2025-09-08T08:28:46Z</time>
      </trkpt>
      <trkpt lat="46.15349" lon="4.43374">
        <ele>659.8</ele>
        <time>2025-09-08T08:28:47Z</time>
      </trkpt>
      <trkpt lat="46.1535" lon="4.43373">
        <ele>659.8</ele>
        <time>2025-09-08T08:28:48Z</time>
      </trkpt>
      <trkpt lat="46.1535" lon="4.43372">
        <ele>659.8</ele>
        <time>2025-09-08T08:28:49Z</time>
      </trkpt>
      <trkpt lat="46.15351" lon="4.43371">
        <ele>660.2</ele>
        <time>2025-09-08T08:28:50Z</time>
      </trkpt>
      <trkpt lat="46.15352" lon="4.4337">
        <ele>660.2</ele>
        <time>2025-09-08T08:28:51Z</time>
      </trkpt>
      <trkpt lat="46.15353" lon="4.43369">
        <ele>660.2</ele>
        <time>2025-09-08T08:28:52Z</time>
      </trkpt>
      <trkpt lat="46.15353" lon="4.43369">
        <ele>660.2</ele>
        <time>2025-09-08T08:28:53Z</time>
      </trkpt>
      <trkpt lat="46.15353" lon="4.43368">
        <ele>660.6</ele>
        <time>2025-09-08T08:28:54Z</time>
      </trkpt>
      <trkpt lat="46.15354" lon="4.43367">
        <ele>660.6</ele>
        <time>2025-09-08T08:28:55Z</time>
      </trkpt>
      <trkpt lat="46.15354" lon="4.43366">
        <ele>660.6</ele>
        <time>2025-09-08T08:28:56Z</time>
      </trkpt>
      <trkpt lat="46.15355" lon="4.43365">
        <ele>660.8</ele>
        <time>2025-09-08T08:28:57Z</time>
      </trkpt>
      <trkpt lat="46.15356" lon="4.43364">
        <ele>660.8</ele>
        <time>2025-09-08T08:28:58Z</time>
      </trkpt>
      <trkpt lat="46.15356" lon="4.43363">
        <ele>661.2</ele>
        <time>2025-09-08T08:28:59Z</time>
      </trkpt>
      <trkpt lat="46.15357" lon="4.43362">
        <ele>661.2</ele>
        <time>2025-09-08T08:29:00Z</time>
      </trkpt>
      <trkpt lat="46.15357" lon="4.43362">
        <ele>661.4</ele>
        <time>2025-09-08T08:29:01Z</time>
      </trkpt>
      <trkpt lat="46.15358" lon="4.43361">
        <ele>661.4</ele>
        <time>2025-09-08T08:29:02Z</time>
      </trkpt>
      <trkpt lat="46.15358" lon="4.4336">
        <ele>661.6</ele>
        <time>2025-09-08T08:29:03Z</time>
      </trkpt>
      <trkpt lat="46.15359" lon="4.43359">
        <ele>661.6</ele>
        <time>2025-09-08T08:29:04Z</time>
      </trkpt>
      <trkpt lat="46.15359" lon="4.43358">
        <ele>661.6</ele>
        <time>2025-09-08T08:29:05Z</time>
      </trkpt>
      <trkpt lat="46.15359" lon="4.43358">
        <ele>661.8</ele>
        <time>2025-09-08T08:29:06Z</time>
      </trkpt>
      <trkpt lat="46.15359" lon="4.43357">
        <ele>661.8</ele>
        <time>2025-09-08T08:29:07Z</time>
      </trkpt>
      <trkpt lat="46.1536" lon="4.43357">
        <ele>661.8</ele>
        <time>2025-09-08T08:29:08Z</time>
      </trkpt>
      <trkpt lat="46.1536" lon="4.43356">
        <ele>662.2</ele>
        <time>2025-09-08T08:29:09Z</time>
      </trkpt>
      <trkpt lat="46.15361" lon="4.43356">
        <ele>662.4</ele>
        <time>2025-09-08T08:29:10Z</time>
      </trkpt>
      <trkpt lat="46.15362" lon="4.43355">
        <ele>662.4</ele>
        <time>2025-09-08T08:29:11Z</time>
      </trkpt>
      <trkpt lat="46.15362" lon="4.43355">
        <ele>662.4</ele>
        <time>2025-09-08T08:29:12Z</time>
      </trkpt>
      <trkpt lat="46.15361" lon="4.43355">
        <ele>662</ele>
        <time>2025-09-08T08:29:30Z</time>
      </trkpt>
      <trkpt lat="46.15362" lon="4.43355">
        <ele>662</ele>
        <time>2025-09-08T08:29:31Z</time>
      </trkpt>
      <trkpt lat="46.15363" lon="4.43354">
        <ele>662</ele>
        <time>2025-09-08T08:29:32Z</time>
      </trkpt>
      <trkpt lat="46.15364" lon="4.43354">
        <ele>662.4</ele>
        <time>2025-09-08T08:29:33Z</time>
      </trkpt>
      <trkpt lat="46.15365" lon="4.43353">
        <ele>662.4</ele>
        <time>2025-09-08T08:29:34Z</time>
      </trkpt>
      <trkpt lat="46.15365" lon="4.43353">
        <ele>662.4</ele>
        <time>2025-09-08T08:29:35Z</time>
      </trkpt>
      <trkpt lat="46.15366" lon="4.43352">
        <ele>662.6</ele>
        <time>2025-09-08T08:29:36Z</time>
      </trkpt>
      <trkpt lat="46.15368" lon="4.43352">
        <ele>662.6</ele>
        <time>2025-09-08T08:29:37Z</time>
      </trkpt>
      <trkpt lat="46.15368" lon="4.43351">
        <ele>662.6</ele>
        <time>2025-09-08T08:29:38Z</time>
      </trkpt>
      <trkpt lat="46.15369" lon="4.4335">
        <ele>663</ele>
        <time>2025-09-08T08:29:39Z</time>
      </trkpt>
      <trkpt lat="46.1537" lon="4.4335">
        <ele>663</ele>
        <time>2025-09-08T08:29:40Z</time>
      </trkpt>
      <trkpt lat="46.15371" lon="4.43348">
        <ele>663</ele>
        <time>2025-09-08T08:29:41Z</time>
      </trkpt>
      <trkpt lat="46.15372" lon="4.43348">
        <ele>663</ele>
        <time>2025-09-08T08:29:42Z</time>
      </trkpt>
      <trkpt lat="46.15373" lon="4.43347">
        <ele>663.2</ele>
        <time>2025-09-08T08:29:43Z</time>
      </trkpt>
      <trkpt lat="46.15374" lon="4.43347">
        <ele>663.2</ele>
        <time>2025-09-08T08:29:44Z</time>
      </trkpt>
      <trkpt lat="46.15374" lon="4.43347">
        <ele>663.2</ele>
        <time>2025-09-08T08:29:45Z</time>
      </trkpt>
      <trkpt lat="46.15375" lon="4.43347">
        <ele>663.2</ele>
        <time>2025-09-08T08:29:46Z</time>
      </trkpt>
      <trkpt lat="46.15377" lon="4.43346">
        <ele>663.2</ele>
        <time>2025-09-08T08:29:47Z</time>
      </trkpt>
      <trkpt lat="46.15377" lon="4.43345">
        <ele>663.4</ele>
        <time>2025-09-08T08:29:48Z</time>
      </trkpt>
      <trkpt lat="46.15378" lon="4.43345">
        <ele>663.6</ele>
        <time>2025-09-08T08:29:49Z</time>
      </trkpt>
      <trkpt lat="46.15379" lon="4.43346">
        <ele>663.6</ele>
        <time>2025-09-08T08:29:50Z</time>
      </trkpt>
      <trkpt lat="46.1538" lon="4.43348">
        <ele>664</ele>
        <time>2025-09-08T08:29:51Z</time>
      </trkpt>
      <trkpt lat="46.1538" lon="4.43349">
        <ele>664</ele>
        <time>2025-09-08T08:29:52Z</time>
      </trkpt>
      <trkpt lat="46.15381" lon="4.4335">
        <ele>664.2</ele>
        <time>2025-09-08T08:29:53Z</time>
      </trkpt>
      <trkpt lat="46.15381" lon="4.4335">
        <ele>664.2</ele>
        <time>2025-09-08T08:29:54Z</time>
      </trkpt>
      <trkpt lat="46.15382" lon="4.4335">
        <ele>664.6</ele>
        <time>2025-09-08T08:29:55Z</time>
      </trkpt>
      <trkpt lat="46.15384" lon="4.4335">
        <ele>664.6</ele>
        <time>2025-09-08T08:29:56Z</time>
      </trkpt>
      <trkpt lat="46.15385" lon="4.43349">
        <ele>665</ele>
        <time>2025-09-08T08:29:57Z</time>
      </trkpt>
      <trkpt lat="46.15386" lon="4.43348">
        <ele>665</ele>
        <time>2025-09-08T08:29:58Z</time>
      </trkpt>
      <trkpt lat="46.15387" lon="4.43348">
        <ele>665</ele>
        <time>2025-09-08T08:29:59Z</time>
      </trkpt>
      <trkpt lat="46.15387" lon="4.43347">
        <ele>665.4</ele>
        <time>2025-09-08T08:30:00Z</time>
      </trkpt>
      <trkpt lat="46.15388" lon="4.43347">
        <ele>665.4</ele>
        <time>2025-09-08T08:30:01Z</time>
      </trkpt>
      <trkpt lat="46.15389" lon="4.43346">
        <ele>665.4</ele>
        <time>2025-09-08T08:30:02Z</time>
      </trkpt>
      <trkpt lat="46.15391" lon="4.43346">
        <ele>665.6</ele>
        <time>2025-09-08T08:30:03Z</time>
      </trkpt>
      <trkpt lat="46.15392" lon="4.43346">
        <ele>665.6</ele>
        <time>2025-09-08T08:30:04Z</time>
      </trkpt>
      <trkpt lat="46.15392" lon="4.43346">
        <ele>665.8</ele>
        <time>2025-09-08T08:30:05Z</time>
      </trkpt>
      <trkpt lat="46.15393" lon="4.43346">
        <ele>665.8</ele>
        <time>2025-09-08T08:30:06Z</time>
      </trkpt>
      <trkpt lat="46.15394" lon="4.43346">
        <ele>666.2</ele>
        <time>2025-09-08T08:30:07Z</time>
      </trkpt>
      <trkpt lat="46.15394" lon="4.43346">
        <ele>666.2</ele>
        <time>2025-09-08T08:30:08Z</time>
      </trkpt>
      <trkpt lat="46.15394" lon="4.43346">
        <ele>666.4</ele>
        <time>2025-09-08T08:30:09Z</time>
      </trkpt>
      <trkpt lat="46.15396" lon="4.43346">
        <ele>666.4</ele>
        <time>2025-09-08T08:30:10Z</time>
      </trkpt>
      <trkpt lat="46.15397" lon="4.43346">
        <ele>666.8</ele>
        <time>2025-09-08T08:30:11Z</time>
      </trkpt>
      <trkpt lat="46.15397" lon="4.43345">
        <ele>666.8</ele>
        <time>2025-09-08T08:30:12Z</time>
      </trkpt>
      <trkpt lat="46.15398" lon="4.43345">
        <ele>667.2</ele>
        <time>2025-09-08T08:30:13Z</time>
      </trkpt>
      <trkpt lat="46.15398" lon="4.43345">
        <ele>667.2</ele>
        <time>2025-09-08T08:30:14Z</time>
      </trkpt>
      <trkpt lat="46.15399" lon="4.43344">
        <ele>667.4</ele>
        <time>2025-09-08T08:30:15Z</time>
      </trkpt>
      <trkpt lat="46.154" lon="4.43344">
        <ele>667.6</ele>
        <time>2025-09-08T08:30:16Z</time>
      </trkpt>
      <trkpt lat="46.15401" lon="4.43343">
        <ele>667.6</ele>
        <time>2025-09-08T08:30:17Z</time>
      </trkpt>
      <trkpt lat="46.15402" lon="4.43341">
        <ele>667.6</ele>
        <time>2025-09-08T08:30:18Z</time>
      </trkpt>
      <trkpt lat="46.15402" lon="4.4334">
        <ele>668</ele>
        <time>2025-09-08T08:30:19Z</time>
      </trkpt>
      <trkpt lat="46.15403" lon="4.43339">
        <ele>668</ele>
        <time>2025-09-08T08:30:20Z</time>
      </trkpt>
      <trkpt lat="46.15404" lon="4.43338">
        <ele>668.2</ele>
        <time>2025-09-08T08:30:21Z</time>
      </trkpt>
      <trkpt lat="46.15405" lon="4.43337">
        <ele>668.2</ele>
        <time>2025-09-08T08:30:22Z</time>
      </trkpt>
      <trkpt lat="46.15406" lon="4.43336">
        <ele>668.2</ele>
        <time>2025-09-08T08:30:23Z</time>
      </trkpt>
      <trkpt lat="46.15406" lon="4.43335">
        <ele>668.2</ele>
        <time>2025-09-08T08:30:24Z</time>
      </trkpt>
      <trkpt lat="46.15406" lon="4.43334">
        <ele>668.2</ele>
        <time>2025-09-08T08:30:25Z</time>
      </trkpt>
      <trkpt lat="46.15407" lon="4.43333">
        <ele>668.4</ele>
        <time>2025-09-08T08:30:26Z</time>
      </trkpt>
      <trkpt lat="46.15407" lon="4.43331">
        <ele>668.4</ele>
        <time>2025-09-08T08:30:27Z</time>
      </trkpt>
      <trkpt lat="46.15407" lon="4.43331">
        <ele>668.8</ele>
        <time>2025-09-08T08:30:28Z</time>
      </trkpt>
      <trkpt lat="46.15408" lon="4.4333">
        <ele>669</ele>
        <time>2025-09-08T08:30:29Z</time>
      </trkpt>
      <trkpt lat="46.15408" lon="4.43328">
        <ele>669.4</ele>
        <time>2025-09-08T08:30:30Z</time>
      </trkpt>
      <trkpt lat="46.15408" lon="4.43327">
        <ele>669.6</ele>
        <time>2025-09-08T08:30:31Z</time>
      </trkpt>
      <trkpt lat="46.15409" lon="4.43326">
        <ele>669.6</ele>
        <time>2025-09-08T08:30:32Z</time>
      </trkpt>
      <trkpt lat="46.15409" lon="4.43325">
        <ele>669.8</ele>
        <time>2025-09-08T08:30:33Z</time>
      </trkpt>
      <trkpt lat="46.1541" lon="4.43325">
        <ele>670.2</ele>
        <time>2025-09-08T08:30:34Z</time>
      </trkpt>
      <trkpt lat="46.15411" lon="4.43324">
        <ele>670.2</ele>
        <time>2025-09-08T08:30:35Z</time>
      </trkpt>
      <trkpt lat="46.15411" lon="4.43323">
        <ele>670.2</ele>
        <time>2025-09-08T08:30:36Z</time>
      </trkpt>
      <trkpt lat="46.15411" lon="4.43322">
        <ele>670.2</ele>
        <time>2025-09-08T08:30:37Z</time>
      </trkpt>
      <trkpt lat="46.15412" lon="4.43321">
        <ele>670.6</ele>
        <time>2025-09-08T08:30:38Z</time>
      </trkpt>
      <trkpt lat="46.15412" lon="4.4332">
        <ele>670.6</ele>
        <time>2025-09-08T08:30:39Z</time>
      </trkpt>
      <trkpt lat="46.15413" lon="4.43319">
        <ele>670.6</ele>
        <time>2025-09-08T08:30:40Z</time>
      </trkpt>
      <trkpt lat="46.15413" lon="4.43318">
        <ele>671</ele>
        <time>2025-09-08T08:30:41Z</time>
      </trkpt>
      <trkpt lat="46.15414" lon="4.43317">
        <ele>671</ele>
        <time>2025-09-08T08:30:42Z</time>
      </trkpt>
      <trkpt lat="46.15414" lon="4.43316">
        <ele>671</ele>
        <time>2025-09-08T08:30:43Z</time>
      </trkpt>
      <trkpt lat="46.15414" lon="4.43315">
        <ele>671.2</ele>
        <time>2025-09-08T08:30:44Z</time>
      </trkpt>
      <trkpt lat="46.15414" lon="4.43314">
        <ele>671.2</ele>
        <time>2025-09-08T08:30:45Z</time>
      </trkpt>
      <trkpt lat="46.15414" lon="4.43313">
        <ele>671.6</ele>
        <time>2025-09-08T08:30:46Z</time>
      </trkpt>
      <trkpt lat="46.15415" lon="4.43312">
        <ele>671.6</ele>
        <time>2025-09-08T08:30:47Z</time>
      </trkpt>
      <trkpt lat="46.15415" lon="4.43312">
        <ele>671.6</ele>
        <time>2025-09-08T08:30:48Z</time>
      </trkpt>
      <trkpt lat="46.15415" lon="4.43311">
        <ele>672</ele>
        <time>2025-09-08T08:30:49Z</time>
      </trkpt>
      <trkpt lat="46.15416" lon="4.4331">
        <ele>672</ele>
        <time>2025-09-08T08:30:50Z</time>
      </trkpt>
      <trkpt lat="46.15416" lon="4.43309">
        <ele>672.2</ele>
        <time>2025-09-08T08:30:51Z</time>
      </trkpt>
      <trkpt lat="46.15416" lon="4.43308">
        <ele>672.2</ele>
        <time>2025-09-08T08:30:52Z</time>
      </trkpt>
      <trkpt lat="46.15416" lon="4.43307">
        <ele>672.6</ele>
        <time>2025-09-08T08:30:53Z</time>
      </trkpt>
      <trkpt lat="46.15416" lon="4.43306">
        <ele>672.6</ele>
        <time>2025-09-08T08:30:54Z</time>
      </trkpt>
      <trkpt lat="46.15416" lon="4.43307">
        <ele>672.8</ele>
        <time>2025-09-08T08:30:55Z</time>
      </trkpt>
      <trkpt lat="46.15418" lon="4.4331">
        <ele>672.8</ele>
        <time>2025-09-08T08:31:05Z</time>
      </trkpt>
      <trkpt lat="46.15418" lon="4.43309">
        <ele>672.8</ele>
        <time>2025-09-08T08:31:06Z</time>
      </trkpt>
      <trkpt lat="46.15418" lon="4.43308">
        <ele>673</ele>
        <time>2025-09-08T08:31:07Z</time>
      </trkpt>
      <trkpt lat="46.15418" lon="4.43307">
        <ele>673</ele>
        <time>2025-09-08T08:31:08Z</time>
      </trkpt>
      <trkpt lat="46.15418" lon="4.43306">
        <ele>673</ele>
        <time>2025-09-08T08:31:09Z</time>
      </trkpt>
      <trkpt lat="46.15418" lon="4.43304">
        <ele>673</ele>
        <time>2025-09-08T08:31:10Z</time>
      </trkpt>
      <trkpt lat="46.15418" lon="4.43303">
        <ele>673.4</ele>
        <time>2025-09-08T08:31:11Z</time>
      </trkpt>
      <trkpt lat="46.15418" lon="4.43302">
        <ele>673.6</ele>
        <time>2025-09-08T08:31:12Z</time>
      </trkpt>
      <trkpt lat="46.15418" lon="4.43301">
        <ele>673.6</ele>
        <time>2025-09-08T08:31:13Z</time>
      </trkpt>
      <trkpt lat="46.15418" lon="4.43299">
        <ele>673.6</ele>
        <time>2025-09-08T08:31:14Z</time>
      </trkpt>
      <trkpt lat="46.15419" lon="4.43298">
        <ele>674</ele>
        <time>2025-09-08T08:31:15Z</time>
      </trkpt>
      <trkpt lat="46.15419" lon="4.43297">
        <ele>674</ele>
        <time>2025-09-08T08:31:16Z</time>
      </trkpt>
      <trkpt lat="46.1542" lon="4.43295">
        <ele>674.4</ele>
        <time>2025-09-08T08:31:17Z</time>
      </trkpt>
      <trkpt lat="46.1542" lon="4.43294">
        <ele>674.4</ele>
        <time>2025-09-08T08:31:18Z</time>
      </trkpt>
      <trkpt lat="46.1542" lon="4.43292">
        <ele>674.8</ele>
        <time>2025-09-08T08:31:19Z</time>
      </trkpt>
      <trkpt lat="46.15421" lon="4.43291">
        <ele>674.8</ele>
        <time>2025-09-08T08:31:20Z</time>
      </trkpt>
      <trkpt lat="46.15421" lon="4.4329">
        <ele>674.8</ele>
        <time>2025-09-08T08:31:21Z</time>
      </trkpt>
      <trkpt lat="46.15421" lon="4.43288">
        <ele>675</ele>
        <time>2025-09-08T08:31:22Z</time>
      </trkpt>
      <trkpt lat="46.15421" lon="4.43287">
        <ele>675.4</ele>
        <time>2025-09-08T08:31:23Z</time>
      </trkpt>
      <trkpt lat="46.15421" lon="4.43286">
        <ele>675.4</ele>
        <time>2025-09-08T08:31:24Z</time>
      </trkpt>
      <trkpt lat="46.15422" lon="4.43285">
        <ele>675.4</ele>
        <time>2025-09-08T08:31:25Z</time>
      </trkpt>
      <trkpt lat="46.15422" lon="4.43284">
        <ele>675.8</ele>
        <time>2025-09-08T08:31:26Z</time>
      </trkpt>
      <trkpt lat="46.15423" lon="4.43283">
        <ele>675.8</ele>
        <time>2025-09-08T08:31:27Z</time>
      </trkpt>
      <trkpt lat="46.15423" lon="4.43282">
        <ele>675.8</ele>
        <time>2025-09-08T08:31:28Z</time>
      </trkpt>
      <trkpt lat="46.15424" lon="4.43281">
        <ele>676</ele>
        <time>2025-09-08T08:31:29Z</time>
      </trkpt>
      <trkpt lat="46.15423" lon="4.4328">
        <ele>676</ele>
        <time>2025-09-08T08:31:30Z</time>
      </trkpt>
      <trkpt lat="46.15423" lon="4.43279">
        <ele>676.2</ele>
        <time>2025-09-08T08:31:31Z</time>
      </trkpt>
      <trkpt lat="46.15423" lon="4.43278">
        <ele>676.2</ele>
        <time>2025-09-08T08:31:32Z</time>
      </trkpt>
      <trkpt lat="46.15423" lon="4.43277">
        <ele>676.6</ele>
        <time>2025-09-08T08:31:33Z</time>
      </trkpt>
      <trkpt lat="46.15424" lon="4.43276">
        <ele>676.8</ele>
        <time>2025-09-08T08:31:34Z</time>
      </trkpt>
      <trkpt lat="46.15424" lon="4.43275">
        <ele>676.8</ele>
        <time>2025-09-08T08:31:35Z</time>
      </trkpt>
      <trkpt lat="46.15424" lon="4.43273">
        <ele>677</ele>
        <time>2025-09-08T08:31:36Z</time>
      </trkpt>
      <trkpt lat="46.15424" lon="4.43272">
        <ele>677.2</ele>
        <time>2025-09-08T08:31:37Z</time>
      </trkpt>
      <trkpt lat="46.15424" lon="4.43271">
        <ele>677.2</ele>
        <time>2025-09-08T08:31:38Z</time>
      </trkpt>
      <trkpt lat="46.15425" lon="4.4327">
        <ele>677.4</ele>
        <time>2025-09-08T08:31:39Z</time>
      </trkpt>
      <trkpt lat="46.15425" lon="4.43269">
        <ele>677.8</ele>
        <time>2025-09-08T08:31:40Z</time>
      </trkpt>
      <trkpt lat="46.15426" lon="4.43268">
        <ele>677.8</ele>
        <time>2025-09-08T08:31:41Z</time>
      </trkpt>
      <trkpt lat="46.15426" lon="4.43267">
        <ele>677.8</ele>
        <time>2025-09-08T08:31:42Z</time>
      </trkpt>
      <trkpt lat="46.15426" lon="4.43265">
        <ele>677.8</ele>
        <time>2025-09-08T08:31:43Z</time>
      </trkpt>
      <trkpt lat="46.15426" lon="4.43264">
        <ele>678</ele>
        <time>2025-09-08T08:31:44Z</time>
      </trkpt>
      <trkpt lat="46.15426" lon="4.43263">
        <ele>678.2</ele>
        <time>2025-09-08T08:31:45Z</time>
      </trkpt>
      <trkpt lat="46.15427" lon="4.43262">
        <ele>678.4</ele>
        <time>2025-09-08T08:31:46Z</time>
      </trkpt>
      <trkpt lat="46.15427" lon="4.43261">
        <ele>678.4</ele>
        <time>2025-09-08T08:31:47Z</time>
      </trkpt>
      <trkpt lat="46.15428" lon="4.4326">
        <ele>678.8</ele>
        <time>2025-09-08T08:31:48Z</time>
      </trkpt>
      <trkpt lat="46.15428" lon="4.43259">
        <ele>678.8</ele>
        <time>2025-09-08T08:31:49Z</time>
      </trkpt>
      <trkpt lat="46.15428" lon="4.43258">
        <ele>678.8</ele>
        <time>2025-09-08T08:31:50Z</time>
      </trkpt>
      <trkpt lat="46.15428" lon="4.43257">
        <ele>679</ele>
        <time>2025-09-08T08:31:51Z</time>
      </trkpt>
      <trkpt lat="46.15428" lon="4.43255">
        <ele>679</ele>
        <time>2025-09-08T08:31:52Z</time>
      </trkpt>
      <trkpt lat="46.15428" lon="4.43254">
        <ele>679.2</ele>
        <time>2025-09-08T08:31:53Z</time>
      </trkpt>
      <trkpt lat="46.15428" lon="4.43253">
        <ele>679.2</ele>
        <time>2025-09-08T08:31:54Z</time>
      </trkpt>
      <trkpt lat="46.15428" lon="4.43252">
        <ele>679.4</ele>
        <time>2025-09-08T08:31:55Z</time>
      </trkpt>
      <trkpt lat="46.15428" lon="4.43251">
        <ele>679.4</ele>
        <time>2025-09-08T08:31:56Z</time>
      </trkpt>
      <trkpt lat="46.15429" lon="4.4325">
        <ele>679.4</ele>
        <time>2025-09-08T08:31:57Z</time>
      </trkpt>
      <trkpt lat="46.15429" lon="4.43248">
        <ele>679.4</ele>
        <time>2025-09-08T08:31:58Z</time>
      </trkpt>
      <trkpt lat="46.15428" lon="4.43247">
        <ele>679.6</ele>
        <time>2025-09-08T08:31:59Z</time>
      </trkpt>
      <trkpt lat="46.15428" lon="4.43245">
        <ele>679.6</ele>
        <time>2025-09-08T08:32:00Z</time>
      </trkpt>
      <trkpt lat="46.15429" lon="4.43244">
        <ele>680</ele>
        <time>2025-09-08T08:32:01Z</time>
      </trkpt>
      <trkpt lat="46.15429" lon="4.43243">
        <ele>680</ele>
        <time>2025-09-08T08:32:02Z</time>
      </trkpt>
      <trkpt lat="46.15429" lon="4.43241">
        <ele>680</ele>
        <time>2025-09-08T08:32:03Z</time>
      </trkpt>
      <trkpt lat="46.1543" lon="4.4324">
        <ele>680</ele>
        <time>2025-09-08T08:32:04Z</time>
      </trkpt>
      <trkpt lat="46.1543" lon="4.43239">
        <ele>680</ele>
        <time>2025-09-08T08:32:05Z</time>
      </trkpt>
      <trkpt lat="46.15431" lon="4.43237">
        <ele>680</ele>
        <time>2025-09-08T08:32:06Z</time>
      </trkpt>
      <trkpt lat="46.15431" lon="4.43236">
        <ele>680</ele>
        <time>2025-09-08T08:32:07Z</time>
      </trkpt>
      <trkpt lat="46.15431" lon="4.43234">
        <ele>680.2</ele>
        <time>2025-09-08T08:32:08Z</time>
      </trkpt>
      <trkpt lat="46.15431" lon="4.43233">
        <ele>680.4</ele>
        <time>2025-09-08T08:32:09Z</time>
      </trkpt>
      <trkpt lat="46.1543" lon="4.43231">
        <ele>680.6</ele>
        <time>2025-09-08T08:32:10Z</time>
      </trkpt>
      <trkpt lat="46.1543" lon="4.4323">
        <ele>680.6</ele>
        <time>2025-09-08T08:32:11Z</time>
      </trkpt>
      <trkpt lat="46.1543" lon="4.43228">
        <ele>680.8</ele>
        <time>2025-09-08T08:32:12Z</time>
      </trkpt>
      <trkpt lat="46.15431" lon="4.43227">
        <ele>680.8</ele>
        <time>2025-09-08T08:32:13Z</time>
      </trkpt>
      <trkpt lat="46.15431" lon="4.43226">
        <ele>680.8</ele>
        <time>2025-09-08T08:32:14Z</time>
      </trkpt>
      <trkpt lat="46.15432" lon="4.43224">
        <ele>680.8</ele>
        <time>2025-09-08T08:32:15Z</time>
      </trkpt>
      <trkpt lat="46.15432" lon="4.43223">
        <ele>680.8</ele>
        <time>2025-09-08T08:32:16Z</time>
      </trkpt>
      <trkpt lat="46.15432" lon="4.43222">
        <ele>681.4</ele>
        <time>2025-09-08T08:32:17Z</time>
      </trkpt>
      <trkpt lat="46.15432" lon="4.4322">
        <ele>681.4</ele>
        <time>2025-09-08T08:32:18Z</time>
      </trkpt>
      <trkpt lat="46.15432" lon="4.43218">
        <ele>681.4</ele>
        <time>2025-09-08T08:32:19Z</time>
      </trkpt>
      <trkpt lat="46.15433" lon="4.43217">
        <ele>681.6</ele>
        <time>2025-09-08T08:32:20Z</time>
      </trkpt>
      <trkpt lat="46.15433" lon="4.43216">
        <ele>681.6</ele>
        <time>2025-09-08T08:32:21Z</time>
      </trkpt>
      <trkpt lat="46.15433" lon="4.43216">
        <ele>681.6</ele>
        <time>2025-09-08T08:32:22Z</time>
      </trkpt>
      <trkpt lat="46.15433" lon="4.43215">
        <ele>681.8</ele>
        <time>2025-09-08T08:32:23Z</time>
      </trkpt>
      <trkpt lat="46.15434" lon="4.43214">
        <ele>681.8</ele>
        <time>2025-09-08T08:32:24Z</time>
      </trkpt>
      <trkpt lat="46.15434" lon="4.43213">
        <ele>682.2</ele>
        <time>2025-09-08T08:32:25Z</time>
      </trkpt>
      <trkpt lat="46.15435" lon="4.43212">
        <ele>682.2</ele>
        <time>2025-09-08T08:32:26Z</time>
      </trkpt>
      <trkpt lat="46.15435" lon="4.43211">
        <ele>682.6</ele>
        <time>2025-09-08T08:32:27Z</time>
      </trkpt>
      <trkpt lat="46.15436" lon="4.4321">
        <ele>682.8</ele>
        <time>2025-09-08T08:32:28Z</time>
      </trkpt>
      <trkpt lat="46.15436" lon="4.43209">
        <ele>682.8</ele>
        <time>2025-09-08T08:32:29Z</time>
      </trkpt>
      <trkpt lat="46.15436" lon="4.43208">
        <ele>682.8</ele>
        <time>2025-09-08T08:32:30Z</time>
      </trkpt>
      <trkpt lat="46.15437" lon="4.43207">
        <ele>683</ele>
        <time>2025-09-08T08:32:31Z</time>
      </trkpt>
      <trkpt lat="46.15437" lon="4.43206">
        <ele>683</ele>
        <time>2025-09-08T08:32:32Z</time>
      </trkpt>
      <trkpt lat="46.15437" lon="4.43205">
        <ele>683</ele>
        <time>2025-09-08T08:32:33Z</time>
      </trkpt>
      <trkpt lat="46.15437" lon="4.43204">
        <ele>683.2</ele>
        <time>2025-09-08T08:32:34Z</time>
      </trkpt>
      <trkpt lat="46.15437" lon="4.43202">
        <ele>683.2</ele>
        <time>2025-09-08T08:32:35Z</time>
      </trkpt>
      <trkpt lat="46.15437" lon="4.43201">
        <ele>683.2</ele>
        <time>2025-09-08T08:32:36Z</time>
      </trkpt>
      <trkpt lat="46.15437" lon="4.432">
        <ele>683.6</ele>
        <time>2025-09-08T08:32:37Z</time>
      </trkpt>
      <trkpt lat="46.15437" lon="4.43199">
        <ele>683.6</ele>
        <time>2025-09-08T08:32:38Z</time>
      </trkpt>
      <trkpt lat="46.15437" lon="4.43198">
        <ele>683.6</ele>
        <time>2025-09-08T08:32:39Z</time>
      </trkpt>
      <trkpt lat="46.15437" lon="4.43197">
        <ele>683.6</ele>
        <time>2025-09-08T08:32:40Z</time>
      </trkpt>
      <trkpt lat="46.15438" lon="4.43195">
        <ele>684</ele>
        <time>2025-09-08T08:32:41Z</time>
      </trkpt>
      <trkpt lat="46.15439" lon="4.43194">
        <ele>684</ele>
        <time>2025-09-08T08:32:42Z</time>
      </trkpt>
      <trkpt lat="46.15439" lon="4.43193">
        <ele>684.2</ele>
        <time>2025-09-08T08:32:43Z</time>
      </trkpt>
      <trkpt lat="46.15439" lon="4.43192">
        <ele>684.2</ele>
        <time>2025-09-08T08:32:44Z</time>
      </trkpt>
      <trkpt lat="46.15439" lon="4.43191">
        <ele>684.6</ele>
        <time>2025-09-08T08:32:45Z</time>
      </trkpt>
      <trkpt lat="46.1544" lon="4.4319">
        <ele>684.6</ele>
        <time>2025-09-08T08:32:46Z</time>
      </trkpt>
      <trkpt lat="46.1544" lon="4.43189">
        <ele>684.6</ele>
        <time>2025-09-08T08:32:47Z</time>
      </trkpt>
      <trkpt lat="46.1544" lon="4.43188">
        <ele>684.6</ele>
        <time>2025-09-08T08:32:48Z</time>
      </trkpt>
      <trkpt lat="46.1544" lon="4.43187">
        <ele>684.8</ele>
        <time>2025-09-08T08:32:49Z</time>
      </trkpt>
      <trkpt lat="46.1544" lon="4.43185">
        <ele>684.8</ele>
        <time>2025-09-08T08:32:50Z</time>
      </trkpt>
      <trkpt lat="46.15441" lon="4.43183">
        <ele>685.2</ele>
        <time>2025-09-08T08:32:51Z</time>
      </trkpt>
      <trkpt lat="46.15441" lon="4.43182">
        <ele>685.2</ele>
        <time>2025-09-08T08:32:52Z</time>
      </trkpt>
      <trkpt lat="46.15441" lon="4.43181">
        <ele>685.2</ele>
        <time>2025-09-08T08:32:53Z</time>
      </trkpt>
      <trkpt lat="46.15441" lon="4.4318">
        <ele>685.4</ele>
        <time>2025-09-08T08:32:54Z</time>
      </trkpt>
      <trkpt lat="46.15441" lon="4.43179">
        <ele>685.4</ele>
        <time>2025-09-08T08:32:55Z</time>
      </trkpt>
      <trkpt lat="46.15441" lon="4.43178">
        <ele>685.8</ele>
        <time>2025-09-08T08:32:56Z</time>
      </trkpt>
      <trkpt lat="46.15441" lon="4.43177">
        <ele>685.8</ele>
        <time>2025-09-08T08:32:57Z</time>
      </trkpt>
      <trkpt lat="46.15442" lon="4.43176">
        <ele>686</ele>
        <time>2025-09-08T08:32:58Z</time>
      </trkpt>
      <trkpt lat="46.15442" lon="4.43175">
        <ele>686</ele>
        <time>2025-09-08T08:32:59Z</time>
      </trkpt>
      <trkpt lat="46.15443" lon="4.43174">
        <ele>686.2</ele>
        <time>2025-09-08T08:33:00Z</time>
      </trkpt>
      <trkpt lat="46.15443" lon="4.43173">
        <ele>686.2</ele>
        <time>2025-09-08T08:33:01Z</time>
      </trkpt>
      <trkpt lat="46.15443" lon="4.43172">
        <ele>686.8</ele>
        <time>2025-09-08T08:33:02Z</time>
      </trkpt>
      <trkpt lat="46.15444" lon="4.43171">
        <ele>686.8</ele>
        <time>2025-09-08T08:33:03Z</time>
      </trkpt>
      <trkpt lat="46.15444" lon="4.4317">
        <ele>687</ele>
        <time>2025-09-08T08:33:04Z</time>
      </trkpt>
      <trkpt lat="46.15445" lon="4.4317">
        <ele>687</ele>
        <time>2025-09-08T08:33:05Z</time>
      </trkpt>
      <trkpt lat="46.15445" lon="4.43169">
        <ele>687.2</ele>
        <time>2025-09-08T08:33:06Z</time>
      </trkpt>
      <trkpt lat="46.15445" lon="4.43169">
        <ele>687.2</ele>
        <time>2025-09-08T08:33:07Z</time>
      </trkpt>
      <trkpt lat="46.15445" lon="4.43169">
        <ele>687.2</ele>
        <time>2025-09-08T08:33:08Z</time>
      </trkpt>
      <trkpt lat="46.15446" lon="4.43165">
        <ele>687.6</ele>
        <time>2025-09-08T08:34:17Z</time>
      </trkpt>
      <trkpt lat="46.15447" lon="4.43164">
        <ele>687.6</ele>
        <time>2025-09-08T08:34:18Z</time>
      </trkpt>
      <trkpt lat="46.15447" lon="4.43163">
        <ele>687.6</ele>
        <time>2025-09-08T08:34:19Z</time>
      </trkpt>
      <trkpt lat="46.15448" lon="4.43162">
        <ele>687.6</ele>
        <time>2025-09-08T08:34:20Z</time>
      </trkpt>
      <trkpt lat="46.15448" lon="4.4316">
        <ele>687.6</ele>
        <time>2025-09-08T08:34:21Z</time>
      </trkpt>
      <trkpt lat="46.15449" lon="4.43159">
        <ele>687.6</ele>
        <time>2025-09-08T08:34:22Z</time>
      </trkpt>
      <trkpt lat="46.15449" lon="4.43158">
        <ele>687.6</ele>
        <time>2025-09-08T08:34:23Z</time>
      </trkpt>
      <trkpt lat="46.1545" lon="4.43157">
        <ele>687.6</ele>
        <time>2025-09-08T08:34:24Z</time>
      </trkpt>
      <trkpt lat="46.15451" lon="4.43156">
        <ele>687.6</ele>
        <time>2025-09-08T08:34:25Z</time>
      </trkpt>
      <trkpt lat="46.15451" lon="4.43155">
        <ele>687.8</ele>
        <time>2025-09-08T08:34:26Z</time>
      </trkpt>
      <trkpt lat="46.15451" lon="4.43153">
        <ele>687.8</ele>
        <time>2025-09-08T08:34:27Z</time>
      </trkpt>
      <trkpt lat="46.15451" lon="4.43152">
        <ele>688.4</ele>
        <time>2025-09-08T08:34:28Z</time>
      </trkpt>
      <trkpt lat="46.15452" lon="4.43151">
        <ele>688.4</ele>
        <time>2025-09-08T08:34:29Z</time>
      </trkpt>
      <trkpt lat="46.15452" lon="4.4315">
        <ele>688.6</ele>
        <time>2025-09-08T08:34:30Z</time>
      </trkpt>
      <trkpt lat="46.15452" lon="4.43149">
        <ele>689</ele>
        <time>2025-09-08T08:34:31Z</time>
      </trkpt>
      <trkpt lat="46.15453" lon="4.43147">
        <ele>689</ele>
        <time>2025-09-08T08:34:32Z</time>
      </trkpt>
      <trkpt lat="46.15453" lon="4.43146">
        <ele>689.4</ele>
        <time>2025-09-08T08:34:33Z</time>
      </trkpt>
      <trkpt lat="46.15454" lon="4.43145">
        <ele>689.4</ele>
        <time>2025-09-08T08:34:34Z</time>
      </trkpt>
      <trkpt lat="46.15454" lon="4.43145">
        <ele>689.6</ele>
        <time>2025-09-08T08:34:35Z</time>
      </trkpt>
      <trkpt lat="46.15455" lon="4.43144">
        <ele>689.6</ele>
        <time>2025-09-08T08:34:36Z</time>
      </trkpt>
      <trkpt lat="46.15456" lon="4.43144">
        <ele>690</ele>
        <time>2025-09-08T08:34:37Z</time>
      </trkpt>
      <trkpt lat="46.15457" lon="4.43143">
        <ele>690</ele>
        <time>2025-09-08T08:34:38Z</time>
      </trkpt>
      <trkpt lat="46.15457" lon="4.43143">
        <ele>690.4</ele>
        <time>2025-09-08T08:34:39Z</time>
      </trkpt>
      <trkpt lat="46.15457" lon="4.43143">
        <ele>690.4</ele>
        <time>2025-09-08T08:34:40Z</time>
      </trkpt>
      <trkpt lat="46.15457" lon="4.43143">
        <ele>690.6</ele>
        <time>2025-09-08T08:34:41Z</time>
      </trkpt>
      <trkpt lat="46.1546" lon="4.43142">
        <ele>691</ele>
        <time>2025-09-08T08:35:07Z</time>
      </trkpt>
      <trkpt lat="46.1546" lon="4.43142">
        <ele>691</ele>
        <time>2025-09-08T08:35:08Z</time>
      </trkpt>
      <trkpt lat="46.15461" lon="4.43141">
        <ele>691</ele>
        <time>2025-09-08T08:35:09Z</time>
      </trkpt>
      <trkpt lat="46.15461" lon="4.43141">
        <ele>691</ele>
        <time>2025-09-08T08:35:10Z</time>
      </trkpt>
      <trkpt lat="46.15461" lon="4.4314">
        <ele>691</ele>
        <time>2025-09-08T08:35:11Z</time>
      </trkpt>
      <trkpt lat="46.15462" lon="4.43139">
        <ele>691.4</ele>
        <time>2025-09-08T08:35:12Z</time>
      </trkpt>
      <trkpt lat="46.15462" lon="4.43137">
        <ele>691.4</ele>
        <time>2025-09-08T08:35:13Z</time>
      </trkpt>
      <trkpt lat="46.15463" lon="4.43136">
        <ele>691.4</ele>
        <time>2025-09-08T08:35:14Z</time>
      </trkpt>
      <trkpt lat="46.15463" lon="4.43135">
        <ele>691.6</ele>
        <time>2025-09-08T08:35:15Z</time>
      </trkpt>
      <trkpt lat="46.15463" lon="4.43134">
        <ele>691.6</ele>
        <time>2025-09-08T08:35:16Z</time>
      </trkpt>
      <trkpt lat="46.15463" lon="4.43133">
        <ele>691.6</ele>
        <time>2025-09-08T08:35:17Z</time>
      </trkpt>
      <trkpt lat="46.15462" lon="4.43131">
        <ele>691.6</ele>
        <time>2025-09-08T08:35:18Z</time>
      </trkpt>
      <trkpt lat="46.15462" lon="4.43131">
        <ele>691.6</ele>
        <time>2025-09-08T08:35:19Z</time>
      </trkpt>
      <trkpt lat="46.15462" lon="4.43131">
        <ele>691.6</ele>
        <time>2025-09-08T08:35:20Z</time>
      </trkpt>
      <trkpt lat="46.1546" lon="4.4313">
        <ele>691.8</ele>
        <time>2025-09-08T08:35:35Z</time>
      </trkpt>
      <trkpt lat="46.1546" lon="4.4313">
        <ele>691.8</ele>
        <time>2025-09-08T08:35:36Z</time>
      </trkpt>
      <trkpt lat="46.1546" lon="4.43129">
        <ele>691.6</ele>
        <time>2025-09-08T08:35:40Z</time>
      </trkpt>
      <trkpt lat="46.15458" lon="4.43127">
        <ele>691.6</ele>
        <time>2025-09-08T08:35:41Z</time>
      </trkpt>
      <trkpt lat="46.15457" lon="4.43126">
        <ele>691.6</ele>
        <time>2025-09-08T08:35:42Z</time>
      </trkpt>
      <trkpt lat="46.15455" lon="4.43124">
        <ele>691.6</ele>
        <time>2025-09-08T08:35:43Z</time>
      </trkpt>
      <trkpt lat="46.15454" lon="4.43123">
        <ele>691.6</ele>
        <time>2025-09-08T08:35:44Z</time>
      </trkpt>
      <trkpt lat="46.15453" lon="4.4312">
        <ele>691.6</ele>
        <time>2025-09-08T08:35:45Z</time>
      </trkpt>
      <trkpt lat="46.15451" lon="4.43117">
        <ele>691.4</ele>
        <time>2025-09-08T08:35:46Z</time>
      </trkpt>
      <trkpt lat="46.15449" lon="4.43115">
        <ele>691.4</ele>
        <time>2025-09-08T08:35:47Z</time>
      </trkpt>
      <trkpt lat="46.15447" lon="4.43113">
        <ele>691.4</ele>
        <time>2025-09-08T08:35:48Z</time>
      </trkpt>
      <trkpt lat="46.15445" lon="4.4311">
        <ele>691.4</ele>
        <time>2025-09-08T08:35:49Z</time>
      </trkpt>
      <trkpt lat="46.15443" lon="4.43108">
        <ele>691.4</ele>
        <time>2025-09-08T08:35:50Z</time>
      </trkpt>
      <trkpt lat="46.1544" lon="4.43105">
        <ele>691.4</ele>
        <time>2025-09-08T08:35:51Z</time>
      </trkpt>
      <trkpt lat="46.15438" lon="4.43102">
        <ele>691.4</ele>
        <time>2025-09-08T08:35:52Z</time>
      </trkpt>
      <trkpt lat="46.15437" lon="4.43099">
        <ele>691.4</ele>
        <time>2025-09-08T08:35:53Z</time>
      </trkpt>
      <trkpt lat="46.15435" lon="4.43097">
        <ele>691.4</ele>
        <time>2025-09-08T08:35:54Z</time>
      </trkpt>
      <trkpt lat="46.15432" lon="4.43094">
        <ele>691.4</ele>
        <time>2025-09-08T08:35:55Z</time>
      </trkpt>
      <trkpt lat="46.1543" lon="4.43091">
        <ele>691.4</ele>
        <time>2025-09-08T08:35:56Z</time>
      </trkpt>
      <trkpt lat="46.15427" lon="4.43088">
        <ele>691.4</ele>
        <time>2025-09-08T08:35:57Z</time>
      </trkpt>
      <trkpt lat="46.15425" lon="4.43086">
        <ele>691.4</ele>
        <time>2025-09-08T08:35:58Z</time>
      </trkpt>
      <trkpt lat="46.15422" lon="4.43083">
        <ele>691.4</ele>
        <time>2025-09-08T08:35:59Z</time>
      </trkpt>
      <trkpt lat="46.1542" lon="4.43079">
        <ele>691.4</ele>
        <time>2025-09-08T08:36:00Z</time>
      </trkpt>
      <trkpt lat="46.15418" lon="4.43075">
        <ele>692.4</ele>
        <time>2025-09-08T08:36:01Z</time>
      </trkpt>
      <trkpt lat="46.15416" lon="4.43072">
        <ele>693</ele>
        <time>2025-09-08T08:36:02Z</time>
      </trkpt>
      <trkpt lat="46.15414" lon="4.43068">
        <ele>692.8</ele>
        <time>2025-09-08T08:36:03Z</time>
      </trkpt>
      <trkpt lat="46.15412" lon="4.43065">
        <ele>692.4</ele>
        <time>2025-09-08T08:36:04Z</time>
      </trkpt>
      <trkpt lat="46.1541" lon="4.43062">
        <ele>692.2</ele>
        <time>2025-09-08T08:36:05Z</time>
      </trkpt>
      <trkpt lat="46.15408" lon="4.43059">
        <ele>692.2</ele>
        <time>2025-09-08T08:36:06Z</time>
      </trkpt>
      <trkpt lat="46.15406" lon="4.43056">
        <ele>692</ele>
        <time>2025-09-08T08:36:07Z</time>
      </trkpt>
      <trkpt lat="46.15404" lon="4.43053">
        <ele>692</ele>
        <time>2025-09-08T08:36:08Z</time>
      </trkpt>
      <trkpt lat="46.15402" lon="4.4305">
        <ele>692</ele>
        <time>2025-09-08T08:36:09Z</time>
      </trkpt>
      <trkpt lat="46.15399" lon="4.43047">
        <ele>692</ele>
        <time>2025-09-08T08:36:10Z</time>
      </trkpt>
      <trkpt lat="46.15397" lon="4.43044">
        <ele>692</ele>
        <time>2025-09-08T08:36:11Z</time>
      </trkpt>
      <trkpt lat="46.15394" lon="4.43041">
        <ele>692</ele>
        <time>2025-09-08T08:36:12Z</time>
      </trkpt>
      <trkpt lat="46.15392" lon="4.43037">
        <ele>692</ele>
        <time>2025-09-08T08:36:13Z</time>
      </trkpt>
      <trkpt lat="46.15389" lon="4.43034">
        <ele>692</ele>
        <time>2025-09-08T08:36:14Z</time>
      </trkpt>
      <trkpt lat="46.15387" lon="4.4303">
        <ele>692</ele>
        <time>2025-09-08T08:36:15Z</time>
      </trkpt>
      <trkpt lat="46.15385" lon="4.43027">
        <ele>692</ele>
        <time>2025-09-08T08:36:16Z</time>
      </trkpt>
      <trkpt lat="46.15382" lon="4.43023">
        <ele>692</ele>
        <time>2025-09-08T08:36:17Z</time>
      </trkpt>
      <trkpt lat="46.1538" lon="4.43019">
        <ele>692</ele>
        <time>2025-09-08T08:36:18Z</time>
      </trkpt>
      <trkpt lat="46.15377" lon="4.43015">
        <ele>692</ele>
        <time>2025-09-08T08:36:19Z</time>
      </trkpt>
      <trkpt lat="46.15375" lon="4.43011">
        <ele>692.2</ele>
        <time>2025-09-08T08:36:20Z</time>
      </trkpt>
      <trkpt lat="46.15372" lon="4.43007">
        <ele>692.2</ele>
        <time>2025-09-08T08:36:21Z</time>
      </trkpt>
      <trkpt lat="46.1537" lon="4.43003">
        <ele>692.2</ele>
        <time>2025-09-08T08:36:22Z</time>
      </trkpt>
      <trkpt lat="46.15367" lon="4.42999">
        <ele>692.2</ele>
        <time>2025-09-08T08:36:23Z</time>
      </trkpt>
      <trkpt lat="46.15365" lon="4.42995">
        <ele>692.2</ele>
        <time>2025-09-08T08:36:24Z</time>
      </trkpt>
      <trkpt lat="46.15362" lon="4.42991">
        <ele>692.2</ele>
        <time>2025-09-08T08:36:25Z</time>
      </trkpt>
      <trkpt lat="46.1536" lon="4.42986">
        <ele>692.2</ele>
        <time>2025-09-08T08:36:26Z</time>
      </trkpt>
      <trkpt lat="46.15358" lon="4.42982">
        <ele>692.2</ele>
        <time>2025-09-08T08:36:27Z</time>
      </trkpt>
      <trkpt lat="46.15355" lon="4.42978">
        <ele>692.2</ele>
        <time>2025-09-08T08:36:28Z</time>
      </trkpt>
      <trkpt lat="46.15353" lon="4.42973">
        <ele>692.2</ele>
        <time>2025-09-08T08:36:29Z</time>
      </trkpt>
      <trkpt lat="46.1535" lon="4.42969">
        <ele>692.2</ele>
        <time>2025-09-08T08:36:30Z</time>
      </trkpt>
      <trkpt lat="46.15348" lon="4.42964">
        <ele>692.2</ele>
        <time>2025-09-08T08:36:31Z</time>
      </trkpt>
      <trkpt lat="46.15345" lon="4.42959">
        <ele>692.2</ele>
        <time>2025-09-08T08:36:32Z</time>
      </trkpt>
      <trkpt lat="46.15343" lon="4.42954">
        <ele>692.2</ele>
        <time>2025-09-08T08:36:33Z</time>
      </trkpt>
      <trkpt lat="46.15341" lon="4.4295">
        <ele>692.2</ele>
        <time>2025-09-08T08:36:34Z</time>
      </trkpt>
      <trkpt lat="46.15338" lon="4.42945">
        <ele>692.2</ele>
        <time>2025-09-08T08:36:35Z</time>
      </trkpt>
      <trkpt lat="46.15336" lon="4.4294">
        <ele>692.2</ele>
        <time>2025-09-08T08:36:36Z</time>
      </trkpt>
      <trkpt lat="46.15333" lon="4.42936">
        <ele>692.6</ele>
        <time>2025-09-08T08:36:37Z</time>
      </trkpt>
      <trkpt lat="46.15331" lon="4.42932">
        <ele>692.6</ele>
        <time>2025-09-08T08:36:38Z</time>
      </trkpt>
      <trkpt lat="46.15328" lon="4.42927">
        <ele>692.6</ele>
        <time>2025-09-08T08:36:39Z</time>
      </trkpt>
      <trkpt lat="46.15326" lon="4.42922">
        <ele>692.6</ele>
        <time>2025-09-08T08:36:40Z</time>
      </trkpt>
      <trkpt lat="46.15326" lon="4.42922">
        <ele>692.6</ele>
        <time>2025-09-08T08:36:41Z</time>
      </trkpt>
      <trkpt lat="46.15316" lon="4.42904">
        <ele>692.8</ele>
        <time>2025-09-08T08:36:44Z</time>
      </trkpt>
      <trkpt lat="46.15314" lon="4.42899">
        <ele>692.8</ele>
        <time>2025-09-08T08:36:45Z</time>
      </trkpt>
      <trkpt lat="46.15312" lon="4.42895">
        <ele>692.8</ele>
        <time>2025-09-08T08:36:46Z</time>
      </trkpt>
      <trkpt lat="46.15309" lon="4.4289">
        <ele>692.8</ele>
        <time>2025-09-08T08:36:47Z</time>
      </trkpt>
      <trkpt lat="46.15307" lon="4.42886">
        <ele>693.2</ele>
        <time>2025-09-08T08:36:48Z</time>
      </trkpt>
      <trkpt lat="46.15304" lon="4.42882">
        <ele>693.2</ele>
        <time>2025-09-08T08:36:49Z</time>
      </trkpt>
      <trkpt lat="46.15302" lon="4.42877">
        <ele>693.2</ele>
        <time>2025-09-08T08:36:50Z</time>
      </trkpt>
      <trkpt lat="46.15299" lon="4.42872">
        <ele>693.2</ele>
        <time>2025-09-08T08:36:51Z</time>
      </trkpt>
      <trkpt lat="46.15297" lon="4.42868">
        <ele>693.2</ele>
        <time>2025-09-08T08:36:52Z</time>
      </trkpt>
      <trkpt lat="46.15294" lon="4.42863">
        <ele>693.2</ele>
        <time>2025-09-08T08:36:53Z</time>
      </trkpt>
      <trkpt lat="46.15292" lon="4.42859">
        <ele>693.2</ele>
        <time>2025-09-08T08:36:54Z</time>
      </trkpt>
      <trkpt lat="46.15289" lon="4.42855">
        <ele>693.2</ele>
        <time>2025-09-08T08:36:55Z</time>
      </trkpt>
      <trkpt lat="46.15286" lon="4.42852">
        <ele>693.2</ele>
        <time>2025-09-08T08:36:56Z</time>
      </trkpt>
      <trkpt lat="46.15283" lon="4.42848">
        <ele>693.2</ele>
        <time>2025-09-08T08:36:57Z</time>
      </trkpt>
      <trkpt lat="46.15281" lon="4.42845">
        <ele>693.2</ele>
        <time>2025-09-08T08:36:58Z</time>
      </trkpt>
      <trkpt lat="46.15278" lon="4.42841">
        <ele>693.2</ele>
        <time>2025-09-08T08:36:59Z</time>
      </trkpt>
      <trkpt lat="46.15274" lon="4.42838">
        <ele>693.2</ele>
        <time>2025-09-08T08:37:00Z</time>
      </trkpt>
      <trkpt lat="46.15271" lon="4.42835">
        <ele>693.2</ele>
        <time>2025-09-08T08:37:01Z</time>
      </trkpt>
      <trkpt lat="46.15268" lon="4.42831">
        <ele>693.4</ele>
        <time>2025-09-08T08:37:02Z</time>
      </trkpt>
      <trkpt lat="46.15264" lon="4.42828">
        <ele>693.4</ele>
        <time>2025-09-08T08:37:03Z</time>
      </trkpt>
      <trkpt lat="46.15261" lon="4.42824">
        <ele>693.4</ele>
        <time>2025-09-08T08:37:04Z</time>
      </trkpt>
      <trkpt lat="46.15258" lon="4.4282">
        <ele>693.2</ele>
        <time>2025-09-08T08:37:05Z</time>
      </trkpt>
      <trkpt lat="46.15255" lon="4.42817">
        <ele>693.2</ele>
        <time>2025-09-08T08:37:06Z</time>
      </trkpt>
      <trkpt lat="46.15252" lon="4.42813">
        <ele>693.4</ele>
        <time>2025-09-08T08:37:07Z</time>
      </trkpt>
      <trkpt lat="46.15249" lon="4.4281">
        <ele>693.4</ele>
        <time>2025-09-08T08:37:08Z</time>
      </trkpt>
      <trkpt lat="46.15246" lon="4.42807">
        <ele>693.4</ele>
        <time>2025-09-08T08:37:09Z</time>
      </trkpt>
      <trkpt lat="46.15243" lon="4.42804">
        <ele>693.4</ele>
        <time>2025-09-08T08:37:10Z</time>
      </trkpt>
      <trkpt lat="46.1524" lon="4.428">
        <ele>693.6</ele>
        <time>2025-09-08T08:37:11Z</time>
      </trkpt>
      <trkpt lat="46.15236" lon="4.42797">
        <ele>694</ele>
        <time>2025-09-08T08:37:12Z</time>
      </trkpt>
      <trkpt lat="46.15233" lon="4.42794">
        <ele>694</ele>
        <time>2025-09-08T08:37:13Z</time>
      </trkpt>
      <trkpt lat="46.1523" lon="4.42791">
        <ele>694</ele>
        <time>2025-09-08T08:37:14Z</time>
      </trkpt>
      <trkpt lat="46.15226" lon="4.42789">
        <ele>694</ele>
        <time>2025-09-08T08:37:15Z</time>
      </trkpt>
      <trkpt lat="46.15223" lon="4.42786">
        <ele>694</ele>
        <time>2025-09-08T08:37:16Z</time>
      </trkpt>
      <trkpt lat="46.1522" lon="4.42783">
        <ele>694</ele>
        <time>2025-09-08T08:37:17Z</time>
      </trkpt>
      <trkpt lat="46.15217" lon="4.4278">
        <ele>694</ele>
        <time>2025-09-08T08:37:18Z</time>
      </trkpt>
      <trkpt lat="46.15214" lon="4.42777">
        <ele>694.2</ele>
        <time>2025-09-08T08:37:19Z</time>
      </trkpt>
      <trkpt lat="46.15211" lon="4.42775">
        <ele>694.4</ele>
        <time>2025-09-08T08:37:20Z</time>
      </trkpt>
      <trkpt lat="46.15208" lon="4.42772">
        <ele>694.4</ele>
        <time>2025-09-08T08:37:21Z</time>
      </trkpt>
      <trkpt lat="46.15206" lon="4.4277">
        <ele>694.4</ele>
        <time>2025-09-08T08:37:22Z</time>
      </trkpt>
      <trkpt lat="46.15203" lon="4.42768">
        <ele>694.6</ele>
        <time>2025-09-08T08:37:23Z</time>
      </trkpt>
      <trkpt lat="46.152" lon="4.42766">
        <ele>694.6</ele>
        <time>2025-09-08T08:37:24Z</time>
      </trkpt>
      <trkpt lat="46.15198" lon="4.42764">
        <ele>694.6</ele>
        <time>2025-09-08T08:37:25Z</time>
      </trkpt>
      <trkpt lat="46.15195" lon="4.42762">
        <ele>695</ele>
        <time>2025-09-08T08:37:26Z</time>
      </trkpt>
      <trkpt lat="46.15193" lon="4.4276">
        <ele>695.2</ele>
        <time>2025-09-08T08:37:27Z</time>
      </trkpt>
      <trkpt lat="46.1519" lon="4.42758">
        <ele>695.2</ele>
        <time>2025-09-08T08:37:28Z</time>
      </trkpt>
      <trkpt lat="46.15188" lon="4.42756">
        <ele>695.6</ele>
        <time>2025-09-08T08:37:29Z</time>
      </trkpt>
      <trkpt lat="46.15186" lon="4.42753">
        <ele>695.6</ele>
        <time>2025-09-08T08:37:30Z</time>
      </trkpt>
      <trkpt lat="46.15184" lon="4.42751">
        <ele>695.6</ele>
        <time>2025-09-08T08:37:31Z</time>
      </trkpt>
      <trkpt lat="46.15181" lon="4.42749">
        <ele>695.6</ele>
        <time>2025-09-08T08:37:32Z</time>
      </trkpt>
      <trkpt lat="46.15179" lon="4.42747">
        <ele>696</ele>
        <time>2025-09-08T08:37:33Z</time>
      </trkpt>
      <trkpt lat="46.15178" lon="4.42746">
        <ele>696</ele>
        <time>2025-09-08T08:37:34Z</time>
      </trkpt>
      <trkpt lat="46.15176" lon="4.42744">
        <ele>696.2</ele>
        <time>2025-09-08T08:37:35Z</time>
      </trkpt>
      <trkpt lat="46.15174" lon="4.42742">
        <ele>696.4</ele>
        <time>2025-09-08T08:37:36Z</time>
      </trkpt>
      <trkpt lat="46.15172" lon="4.4274">
        <ele>696.4</ele>
        <time>2025-09-08T08:37:37Z</time>
      </trkpt>
      <trkpt lat="46.1517" lon="4.42738">
        <ele>696.6</ele>
        <time>2025-09-08T08:37:38Z</time>
      </trkpt>
      <trkpt lat="46.15168" lon="4.42737">
        <ele>696.6</ele>
        <time>2025-09-08T08:37:39Z</time>
      </trkpt>
      <trkpt lat="46.15166" lon="4.42735">
        <ele>696.6</ele>
        <time>2025-09-08T08:37:40Z</time>
      </trkpt>
      <trkpt lat="46.15164" lon="4.42734">
        <ele>697</ele>
        <time>2025-09-08T08:37:41Z</time>
      </trkpt>
      <trkpt lat="46.15162" lon="4.42732">
        <ele>697</ele>
        <time>2025-09-08T08:37:42Z</time>
      </trkpt>
      <trkpt lat="46.1516" lon="4.42731">
        <ele>697.2</ele>
        <time>2025-09-08T08:37:43Z</time>
      </trkpt>
      <trkpt lat="46.15157" lon="4.4273">
        <ele>697.4</ele>
        <time>2025-09-08T08:37:44Z</time>
      </trkpt>
      <trkpt lat="46.15155" lon="4.42729">
        <ele>697.4</ele>
        <time>2025-09-08T08:37:45Z</time>
      </trkpt>
      <trkpt lat="46.15153" lon="4.42727">
        <ele>697.6</ele>
        <time>2025-09-08T08:37:46Z</time>
      </trkpt>
      <trkpt lat="46.15151" lon="4.42725">
        <ele>697.6</ele>
        <time>2025-09-08T08:37:47Z</time>
      </trkpt>
      <trkpt lat="46.15149" lon="4.42724">
        <ele>697.6</ele>
        <time>2025-09-08T08:37:48Z</time>
      </trkpt>
      <trkpt lat="46.15147" lon="4.42723">
        <ele>698</ele>
        <time>2025-09-08T08:37:49Z</time>
      </trkpt>
      <trkpt lat="46.15144" lon="4.42722">
        <ele>698</ele>
        <time>2025-09-08T08:37:50Z</time>
      </trkpt>
      <trkpt lat="46.15142" lon="4.42721">
        <ele>698</ele>
        <time>2025-09-08T08:37:51Z</time>
      </trkpt>
      <trkpt lat="46.1514" lon="4.4272">
        <ele>698.2</ele>
        <time>2025-09-08T08:37:52Z</time>
      </trkpt>
      <trkpt lat="46.15138" lon="4.42718">
        <ele>698.2</ele>
        <time>2025-09-08T08:37:53Z</time>
      </trkpt>
      <trkpt lat="46.15136" lon="4.42717">
        <ele>698.4</ele>
        <time>2025-09-08T08:37:54Z</time>
      </trkpt>
      <trkpt lat="46.15134" lon="4.42716">
        <ele>698.4</ele>
        <time>2025-09-08T08:37:55Z</time>
      </trkpt>
      <trkpt lat="46.15132" lon="4.42715">
        <ele>698.4</ele>
        <time>2025-09-08T08:37:56Z</time>
      </trkpt>
      <trkpt lat="46.1513" lon="4.42714">
        <ele>698.8</ele>
        <time>2025-09-08T08:37:57Z</time>
      </trkpt>
      <trkpt lat="46.15128" lon="4.42713">
        <ele>698.8</ele>
        <time>2025-09-08T08:37:58Z</time>
      </trkpt>
      <trkpt lat="46.15126" lon="4.42712">
        <ele>698.8</ele>
        <time>2025-09-08T08:37:59Z</time>
      </trkpt>
      <trkpt lat="46.15124" lon="4.42711">
        <ele>699</ele>
        <time>2025-09-08T08:38:00Z</time>
      </trkpt>
      <trkpt lat="46.15122" lon="4.4271">
        <ele>699</ele>
        <time>2025-09-08T08:38:01Z</time>
      </trkpt>
      <trkpt lat="46.15119" lon="4.42709">
        <ele>699.2</ele>
        <time>2025-09-08T08:38:02Z</time>
      </trkpt>
      <trkpt lat="46.15117" lon="4.42708">
        <ele>699.2</ele>
        <time>2025-09-08T08:38:03Z</time>
      </trkpt>
      <trkpt lat="46.15115" lon="4.42708">
        <ele>699.2</ele>
        <time>2025-09-08T08:38:04Z</time>
      </trkpt>
      <trkpt lat="46.15112" lon="4.42708">
        <ele>699.4</ele>
        <time>2025-09-08T08:38:05Z</time>
      </trkpt>
      <trkpt lat="46.1511" lon="4.42708">
        <ele>699.4</ele>
        <time>2025-09-08T08:38:06Z</time>
      </trkpt>
      <trkpt lat="46.15108" lon="4.42708">
        <ele>699.4</ele>
        <time>2025-09-08T08:38:07Z</time>
      </trkpt>
      <trkpt lat="46.15105" lon="4.42707">
        <ele>699.4</ele>
        <time>2025-09-08T08:38:08Z</time>
      </trkpt>
      <trkpt lat="46.15103" lon="4.42706">
        <ele>699.4</ele>
        <time>2025-09-08T08:38:09Z</time>
      </trkpt>
      <trkpt lat="46.15101" lon="4.42705">
        <ele>699.4</ele>
        <time>2025-09-08T08:38:10Z</time>
      </trkpt>
      <trkpt lat="46.15098" lon="4.42705">
        <ele>699.8</ele>
        <time>2025-09-08T08:38:11Z</time>
      </trkpt>
      <trkpt lat="46.15096" lon="4.42704">
        <ele>699.8</ele>
        <time>2025-09-08T08:38:12Z</time>
      </trkpt>
      <trkpt lat="46.15094" lon="4.42703">
        <ele>700</ele>
        <time>2025-09-08T08:38:13Z</time>
      </trkpt>
      <trkpt lat="46.15092" lon="4.42702">
        <ele>700</ele>
        <time>2025-09-08T08:38:14Z</time>
      </trkpt>
      <trkpt lat="46.15089" lon="4.42702">
        <ele>700.4</ele>
        <time>2025-09-08T08:38:15Z</time>
      </trkpt>
      <trkpt lat="46.15087" lon="4.42701">
        <ele>700.6</ele>
        <time>2025-09-08T08:38:16Z</time>
      </trkpt>
      <trkpt lat="46.15085" lon="4.427">
        <ele>700.6</ele>
        <time>2025-09-08T08:38:17Z</time>
      </trkpt>
      <trkpt lat="46.15083" lon="4.42699">
        <ele>700.8</ele>
        <time>2025-09-08T08:38:18Z</time>
      </trkpt>
      <trkpt lat="46.15081" lon="4.42698">
        <ele>700.8</ele>
        <time>2025-09-08T08:38:19Z</time>
      </trkpt>
      <trkpt lat="46.15079" lon="4.42698">
        <ele>700.8</ele>
        <time>2025-09-08T08:38:20Z</time>
      </trkpt>
      <trkpt lat="46.15077" lon="4.42697">
        <ele>701</ele>
        <time>2025-09-08T08:38:21Z</time>
      </trkpt>
      <trkpt lat="46.15075" lon="4.42697">
        <ele>701</ele>
        <time>2025-09-08T08:38:22Z</time>
      </trkpt>
      <trkpt lat="46.15073" lon="4.42696">
        <ele>701</ele>
        <time>2025-09-08T08:38:23Z</time>
      </trkpt>
      <trkpt lat="46.15071" lon="4.42695">
        <ele>701.2</ele>
        <time>2025-09-08T08:38:24Z</time>
      </trkpt>
      <trkpt lat="46.15069" lon="4.42693">
        <ele>701.2</ele>
        <time>2025-09-08T08:38:25Z</time>
      </trkpt>
      <trkpt lat="46.15067" lon="4.42692">
        <ele>701.2</ele>
        <time>2025-09-08T08:38:26Z</time>
      </trkpt>
      <trkpt lat="46.15065" lon="4.4269">
        <ele>701.2</ele>
        <time>2025-09-08T08:38:27Z</time>
      </trkpt>
      <trkpt lat="46.15063" lon="4.42689">
        <ele>701.4</ele>
        <time>2025-09-08T08:38:28Z</time>
      </trkpt>
      <trkpt lat="46.15061" lon="4.42688">
        <ele>701.4</ele>
        <time>2025-09-08T08:38:29Z</time>
      </trkpt>
      <trkpt lat="46.15059" lon="4.42687">
        <ele>701.8</ele>
        <time>2025-09-08T08:38:30Z</time>
      </trkpt>
      <trkpt lat="46.15058" lon="4.42686">
        <ele>701.8</ele>
        <time>2025-09-08T08:38:31Z</time>
      </trkpt>
      <trkpt lat="46.15056" lon="4.42685">
        <ele>701.8</ele>
        <time>2025-09-08T08:38:32Z</time>
      </trkpt>
      <trkpt lat="46.15054" lon="4.42685">
        <ele>701.8</ele>
        <time>2025-09-08T08:38:33Z</time>
      </trkpt>
      <trkpt lat="46.15052" lon="4.42683">
        <ele>702.2</ele>
        <time>2025-09-08T08:38:34Z</time>
      </trkpt>
      <trkpt lat="46.1505" lon="4.42682">
        <ele>702.2</ele>
        <time>2025-09-08T08:38:35Z</time>
      </trkpt>
      <trkpt lat="46.15048" lon="4.42681">
        <ele>702.4</ele>
        <time>2025-09-08T08:38:36Z</time>
      </trkpt>
      <trkpt lat="46.15046" lon="4.42679">
        <ele>702.4</ele>
        <time>2025-09-08T08:38:37Z</time>
      </trkpt>
      <trkpt lat="46.15044" lon="4.42677">
        <ele>702.8</ele>
        <time>2025-09-08T08:38:38Z</time>
      </trkpt>
      <trkpt lat="46.15043" lon="4.42676">
        <ele>702.8</ele>
        <time>2025-09-08T08:38:39Z</time>
      </trkpt>
      <trkpt lat="46.15041" lon="4.42674">
        <ele>702.8</ele>
        <time>2025-09-08T08:38:40Z</time>
      </trkpt>
      <trkpt lat="46.15039" lon="4.42673">
        <ele>703</ele>
        <time>2025-09-08T08:38:41Z</time>
      </trkpt>
      <trkpt lat="46.15037" lon="4.42671">
        <ele>703</ele>
        <time>2025-09-08T08:38:42Z</time>
      </trkpt>
      <trkpt lat="46.15035" lon="4.42669">
        <ele>703</ele>
        <time>2025-09-08T08:38:43Z</time>
      </trkpt>
      <trkpt lat="46.15034" lon="4.42667">
        <ele>703</ele>
        <time>2025-09-08T08:38:44Z</time>
      </trkpt>
      <trkpt lat="46.15032" lon="4.42665">
        <ele>703.2</ele>
        <time>2025-09-08T08:38:45Z</time>
      </trkpt>
      <trkpt lat="46.1503" lon="4.42664">
        <ele>703.2</ele>
        <time>2025-09-08T08:38:46Z</time>
      </trkpt>
      <trkpt lat="46.15028" lon="4.42662">
        <ele>703.2</ele>
        <time>2025-09-08T08:38:47Z</time>
      </trkpt>
      <trkpt lat="46.15026" lon="4.4266">
        <ele>703.4</ele>
        <time>2025-09-08T08:38:48Z</time>
      </trkpt>
      <trkpt lat="46.15024" lon="4.42657">
        <ele>703.4</ele>
        <time>2025-09-08T08:38:49Z</time>
      </trkpt>
      <trkpt lat="46.15023" lon="4.42655">
        <ele>703.4</ele>
        <time>2025-09-08T08:38:50Z</time>
      </trkpt>
      <trkpt lat="46.15021" lon="4.42653">
        <ele>703.4</ele>
        <time>2025-09-08T08:38:51Z</time>
      </trkpt>
      <trkpt lat="46.15019" lon="4.42652">
        <ele>703.4</ele>
        <time>2025-09-08T08:38:52Z</time>
      </trkpt>
      <trkpt lat="46.15017" lon="4.42649">
        <ele>703.8</ele>
        <time>2025-09-08T08:38:53Z</time>
      </trkpt>
      <trkpt lat="46.15016" lon="4.42647">
        <ele>703.8</ele>
        <time>2025-09-08T08:38:54Z</time>
      </trkpt>
      <trkpt lat="46.15014" lon="4.42645">
        <ele>703.8</ele>
        <time>2025-09-08T08:38:55Z</time>
      </trkpt>
      <trkpt lat="46.15013" lon="4.42642">
        <ele>703.8</ele>
        <time>2025-09-08T08:38:56Z</time>
      </trkpt>
      <trkpt lat="46.15011" lon="4.4264">
        <ele>704</ele>
        <time>2025-09-08T08:38:57Z</time>
      </trkpt>
      <trkpt lat="46.15009" lon="4.42638">
        <ele>704</ele>
        <time>2025-09-08T08:38:58Z</time>
      </trkpt>
      <trkpt lat="46.15008" lon="4.42635">
        <ele>704</ele>
        <time>2025-09-08T08:38:59Z</time>
      </trkpt>
      <trkpt lat="46.15006" lon="4.42633">
        <ele>704.4</ele>
        <time>2025-09-08T08:39:00Z</time>
      </trkpt>
      <trkpt lat="46.15004" lon="4.42631">
        <ele>704.4</ele>
        <time>2025-09-08T08:39:01Z</time>
      </trkpt>
      <trkpt lat="46.15003" lon="4.42629">
        <ele>704.6</ele>
        <time>2025-09-08T08:39:02Z</time>
      </trkpt>
      <trkpt lat="46.15001" lon="4.42627">
        <ele>704.8</ele>
        <time>2025-09-08T08:39:03Z</time>
      </trkpt>
      <trkpt lat="46.15" lon="4.42625">
        <ele>704.8</ele>
        <time>2025-09-08T08:39:04Z</time>
      </trkpt>
      <trkpt lat="46.14998" lon="4.42623">
        <ele>705</ele>
        <time>2025-09-08T08:39:05Z</time>
      </trkpt>
      <trkpt lat="46.14996" lon="4.4262">
        <ele>705</ele>
        <time>2025-09-08T08:39:06Z</time>
      </trkpt>
      <trkpt lat="46.14995" lon="4.42618">
        <ele>705.4</ele>
        <time>2025-09-08T08:39:07Z</time>
      </trkpt>
      <trkpt lat="46.14993" lon="4.42616">
        <ele>705.4</ele>
        <time>2025-09-08T08:39:08Z</time>
      </trkpt>
      <trkpt lat="46.14991" lon="4.42614">
        <ele>705.4</ele>
        <time>2025-09-08T08:39:09Z</time>
      </trkpt>
      <trkpt lat="46.1499" lon="4.42612">
        <ele>705.8</ele>
        <time>2025-09-08T08:39:10Z</time>
      </trkpt>
      <trkpt lat="46.14988" lon="4.4261">
        <ele>705.8</ele>
        <time>2025-09-08T08:39:11Z</time>
      </trkpt>
      <trkpt lat="46.14987" lon="4.42608">
        <ele>705.8</ele>
        <time>2025-09-08T08:39:12Z</time>
      </trkpt>
      <trkpt lat="46.14986" lon="4.42606">
        <ele>706.2</ele>
        <time>2025-09-08T08:39:13Z</time>
      </trkpt>
      <trkpt lat="46.14984" lon="4.42604">
        <ele>706.2</ele>
        <time>2025-09-08T08:39:14Z</time>
      </trkpt>
      <trkpt lat="46.14983" lon="4.42602">
        <ele>706.2</ele>
        <time>2025-09-08T08:39:15Z</time>
      </trkpt>
      <trkpt lat="46.14981" lon="4.426">
        <ele>706.2</ele>
        <time>2025-09-08T08:39:16Z</time>
      </trkpt>
      <trkpt lat="46.1498" lon="4.42598">
        <ele>706.2</ele>
        <time>2025-09-08T08:39:17Z</time>
      </trkpt>
      <trkpt lat="46.14978" lon="4.42596">
        <ele>706.2</ele>
        <time>2025-09-08T08:39:18Z</time>
      </trkpt>
      <trkpt lat="46.14977" lon="4.42594">
        <ele>706.4</ele>
        <time>2025-09-08T08:39:19Z</time>
      </trkpt>
      <trkpt lat="46.14975" lon="4.42592">
        <ele>706.4</ele>
        <time>2025-09-08T08:39:20Z</time>
      </trkpt>
      <trkpt lat="46.14974" lon="4.4259">
        <ele>706.6</ele>
        <time>2025-09-08T08:39:21Z</time>
      </trkpt>
      <trkpt lat="46.14972" lon="4.42588">
        <ele>706.6</ele>
        <time>2025-09-08T08:39:22Z</time>
      </trkpt>
      <trkpt lat="46.14971" lon="4.42586">
        <ele>707</ele>
        <time>2025-09-08T08:39:23Z</time>
      </trkpt>
      <trkpt lat="46.14971" lon="4.42586">
        <ele>707.2</ele>
        <time>2025-09-08T08:39:24Z</time>
      </trkpt>
      <trkpt lat="46.14966" lon="4.42579">
        <ele>707.2</ele>
        <time>2025-09-08T08:39:25Z</time>
      </trkpt>
      <trkpt lat="46.14964" lon="4.42578">
        <ele>707.2</ele>
        <time>2025-09-08T08:39:26Z</time>
      </trkpt>
      <trkpt lat="46.14963" lon="4.42576">
        <ele>707.2</ele>
        <time>2025-09-08T08:39:27Z</time>
      </trkpt>
      <trkpt lat="46.14961" lon="4.42573">
        <ele>707.2</ele>
        <time>2025-09-08T08:39:28Z</time>
      </trkpt>
      <trkpt lat="46.14959" lon="4.42571">
        <ele>707.2</ele>
        <time>2025-09-08T08:39:29Z</time>
      </trkpt>
      <trkpt lat="46.14958" lon="4.42568">
        <ele>707.2</ele>
        <time>2025-09-08T08:39:30Z</time>
      </trkpt>
      <trkpt lat="46.14956" lon="4.42566">
        <ele>707.2</ele>
        <time>2025-09-08T08:39:31Z</time>
      </trkpt>
      <trkpt lat="46.14954" lon="4.42563">
        <ele>707.6</ele>
        <time>2025-09-08T08:39:32Z</time>
      </trkpt>
      <trkpt lat="46.14953" lon="4.42561">
        <ele>707.6</ele>
        <time>2025-09-08T08:39:33Z</time>
      </trkpt>
      <trkpt lat="46.14951" lon="4.42559">
        <ele>707.6</ele>
        <time>2025-09-08T08:39:34Z</time>
      </trkpt>
      <trkpt lat="46.14949" lon="4.42557">
        <ele>707.6</ele>
        <time>2025-09-08T08:39:35Z</time>
      </trkpt>
      <trkpt lat="46.14948" lon="4.42554">
        <ele>707.6</ele>
        <time>2025-09-08T08:39:36Z</time>
      </trkpt>
      <trkpt lat="46.14946" lon="4.42552">
        <ele>707.8</ele>
        <time>2025-09-08T08:39:37Z</time>
      </trkpt>
      <trkpt lat="46.14944" lon="4.4255">
        <ele>707.8</ele>
        <time>2025-09-08T08:39:38Z</time>
      </trkpt>
      <trkpt lat="46.14943" lon="4.42548">
        <ele>707.8</ele>
        <time>2025-09-08T08:39:39Z</time>
      </trkpt>
      <trkpt lat="46.14941" lon="4.42546">
        <ele>708</ele>
        <time>2025-09-08T08:39:40Z</time>
      </trkpt>
      <trkpt lat="46.14939" lon="4.42544">
        <ele>708</ele>
        <time>2025-09-08T08:39:41Z</time>
      </trkpt>
      <trkpt lat="46.14938" lon="4.42542">
        <ele>708.2</ele>
        <time>2025-09-08T08:39:42Z</time>
      </trkpt>
      <trkpt lat="46.14936" lon="4.4254">
        <ele>708.2</ele>
        <time>2025-09-08T08:39:43Z</time>
      </trkpt>
      <trkpt lat="46.14934" lon="4.42539">
        <ele>708.2</ele>
        <time>2025-09-08T08:39:44Z</time>
      </trkpt>
      <trkpt lat="46.14933" lon="4.42537">
        <ele>708.6</ele>
        <time>2025-09-08T08:39:45Z</time>
      </trkpt>
      <trkpt lat="46.14931" lon="4.42535">
        <ele>708.6</ele>
        <time>2025-09-08T08:39:46Z</time>
      </trkpt>
      <trkpt lat="46.14929" lon="4.42533">
        <ele>708.8</ele>
        <time>2025-09-08T08:39:47Z</time>
      </trkpt>
      <trkpt lat="46.14927" lon="4.42531">
        <ele>708.8</ele>
        <time>2025-09-08T08:39:48Z</time>
      </trkpt>
      <trkpt lat="46.14926" lon="4.42529">
        <ele>708.8</ele>
        <time>2025-09-08T08:39:49Z</time>
      </trkpt>
      <trkpt lat="46.14924" lon="4.42526">
        <ele>708.8</ele>
        <time>2025-09-08T08:39:50Z</time>
      </trkpt>
      <trkpt lat="46.14923" lon="4.42524">
        <ele>709.2</ele>
        <time>2025-09-08T08:39:51Z</time>
      </trkpt>
      <trkpt lat="46.14921" lon="4.42522">
        <ele>709.2</ele>
        <time>2025-09-08T08:39:52Z</time>
      </trkpt>
      <trkpt lat="46.1492" lon="4.4252">
        <ele>709.2</ele>
        <time>2025-09-08T08:39:53Z</time>
      </trkpt>
      <trkpt lat="46.14918" lon="4.42518">
        <ele>709.2</ele>
        <time>2025-09-08T08:39:54Z</time>
      </trkpt>
      <trkpt lat="46.14917" lon="4.42516">
        <ele>709.4</ele>
        <time>2025-09-08T08:39:55Z</time>
      </trkpt>
      <trkpt lat="46.14916" lon="4.42514">
        <ele>709.4</ele>
        <time>2025-09-08T08:39:56Z</time>
      </trkpt>
      <trkpt lat="46.14914" lon="4.42512">
        <ele>709.4</ele>
        <time>2025-09-08T08:39:57Z</time>
      </trkpt>
      <trkpt lat="46.14912" lon="4.4251">
        <ele>709.4</ele>
        <time>2025-09-08T08:39:58Z</time>
      </trkpt>
      <trkpt lat="46.14911" lon="4.42508">
        <ele>709.6</ele>
        <time>2025-09-08T08:39:59Z</time>
      </trkpt>
      <trkpt lat="46.14909" lon="4.42506">
        <ele>709.6</ele>
        <time>2025-09-08T08:40:00Z</time>
      </trkpt>
      <trkpt lat="46.14908" lon="4.42504">
        <ele>709.6</ele>
        <time>2025-09-08T08:40:01Z</time>
      </trkpt>
      <trkpt lat="46.14906" lon="4.42502">
        <ele>710</ele>
        <time>2025-09-08T08:40:02Z</time>
      </trkpt>
      <trkpt lat="46.14905" lon="4.425">
        <ele>710</ele>
        <time>2025-09-08T08:40:03Z</time>
      </trkpt>
      <trkpt lat="46.14904" lon="4.42498">
        <ele>710</ele>
        <time>2025-09-08T08:40:04Z</time>
      </trkpt>
      <trkpt lat="46.14902" lon="4.42496">
        <ele>710</ele>
        <time>2025-09-08T08:40:05Z</time>
      </trkpt>
      <trkpt lat="46.14901" lon="4.42494">
        <ele>710.2</ele>
        <time>2025-09-08T08:40:06Z</time>
      </trkpt>
      <trkpt lat="46.14899" lon="4.42492">
        <ele>710.2</ele>
        <time>2025-09-08T08:40:07Z</time>
      </trkpt>
      <trkpt lat="46.14897" lon="4.4249">
        <ele>710.6</ele>
        <time>2025-09-08T08:40:08Z</time>
      </trkpt>
      <trkpt lat="46.14896" lon="4.42489">
        <ele>710.6</ele>
        <time>2025-09-08T08:40:09Z</time>
      </trkpt>
      <trkpt lat="46.14894" lon="4.42487">
        <ele>710.6</ele>
        <time>2025-09-08T08:40:10Z</time>
      </trkpt>
      <trkpt lat="46.14893" lon="4.42485">
        <ele>710.8</ele>
        <time>2025-09-08T08:40:11Z</time>
      </trkpt>
      <trkpt lat="46.14891" lon="4.42483">
        <ele>710.8</ele>
        <time>2025-09-08T08:40:12Z</time>
      </trkpt>
      <trkpt lat="46.1489" lon="4.42481">
        <ele>711</ele>
        <time>2025-09-08T08:40:13Z</time>
      </trkpt>
      <trkpt lat="46.14888" lon="4.4248">
        <ele>711</ele>
        <time>2025-09-08T08:40:14Z</time>
      </trkpt>
      <trkpt lat="46.14887" lon="4.42478">
        <ele>711</ele>
        <time>2025-09-08T08:40:15Z</time>
      </trkpt>
      <trkpt lat="46.14885" lon="4.42476">
        <ele>711.2</ele>
        <time>2025-09-08T08:40:16Z</time>
      </trkpt>
      <trkpt lat="46.14884" lon="4.42475">
        <ele>711.2</ele>
        <time>2025-09-08T08:40:17Z</time>
      </trkpt>
      <trkpt lat="46.14882" lon="4.42473">
        <ele>711.6</ele>
        <time>2025-09-08T08:40:18Z</time>
      </trkpt>
      <trkpt lat="46.1488" lon="4.42472">
        <ele>711.6</ele>
        <time>2025-09-08T08:40:19Z</time>
      </trkpt>
      <trkpt lat="46.1488" lon="4.42472">
        <ele>711.6</ele>
        <time>2025-09-08T08:40:20Z</time>
      </trkpt>
      <trkpt lat="46.14877" lon="4.42468">
        <ele>711.8</ele>
        <time>2025-09-08T08:40:21Z</time>
      </trkpt>
      <trkpt lat="46.14877" lon="4.42468">
        <ele>711.8</ele>
        <time>2025-09-08T08:40:22Z</time>
      </trkpt>
      <trkpt lat="46.14876" lon="4.42467">
        <ele>711.8</ele>
        <time>2025-09-08T08:40:23Z</time>
      </trkpt>
      <trkpt lat="46.14874" lon="4.42465">
        <ele>712</ele>
        <time>2025-09-08T08:40:24Z</time>
      </trkpt>
      <trkpt lat="46.14872" lon="4.42463">
        <ele>712</ele>
        <time>2025-09-08T08:40:25Z</time>
      </trkpt>
      <trkpt lat="46.1487" lon="4.42461">
        <ele>712</ele>
        <time>2025-09-08T08:40:26Z</time>
      </trkpt>
      <trkpt lat="46.14869" lon="4.4246">
        <ele>712</ele>
        <time>2025-09-08T08:40:27Z</time>
      </trkpt>
      <trkpt lat="46.14867" lon="4.42458">
        <ele>712.4</ele>
        <time>2025-09-08T08:40:28Z</time>
      </trkpt>
      <trkpt lat="46.14865" lon="4.42457">
        <ele>712.4</ele>
        <time>2025-09-08T08:40:29Z</time>
      </trkpt>
      <trkpt lat="46.14863" lon="4.42455">
        <ele>712.6</ele>
        <time>2025-09-08T08:40:30Z</time>
      </trkpt>
      <trkpt lat="46.14861" lon="4.42454">
        <ele>712.8</ele>
        <time>2025-09-08T08:40:31Z</time>
      </trkpt>
      <trkpt lat="46.1486" lon="4.42452">
        <ele>712.8</ele>
        <time>2025-09-08T08:40:32Z</time>
      </trkpt>
      <trkpt lat="46.14858" lon="4.42451">
        <ele>712.8</ele>
        <time>2025-09-08T08:40:33Z</time>
      </trkpt>
      <trkpt lat="46.14856" lon="4.42449">
        <ele>712.8</ele>
        <time>2025-09-08T08:40:34Z</time>
      </trkpt>
      <trkpt lat="46.14854" lon="4.42447">
        <ele>712.8</ele>
        <time>2025-09-08T08:40:35Z</time>
      </trkpt>
      <trkpt lat="46.14852" lon="4.42446">
        <ele>712.8</ele>
        <time>2025-09-08T08:40:36Z</time>
      </trkpt>
      <trkpt lat="46.1485" lon="4.42444">
        <ele>712.8</ele>
        <time>2025-09-08T08:40:37Z</time>
      </trkpt>
      <trkpt lat="46.14848" lon="4.42442">
        <ele>713</ele>
        <time>2025-09-08T08:40:38Z</time>
      </trkpt>
      <trkpt lat="46.14846" lon="4.42441">
        <ele>713</ele>
        <time>2025-09-08T08:40:39Z</time>
      </trkpt>
      <trkpt lat="46.14844" lon="4.42439">
        <ele>713</ele>
        <time>2025-09-08T08:40:40Z</time>
      </trkpt>
      <trkpt lat="46.14842" lon="4.42438">
        <ele>713.2</ele>
        <time>2025-09-08T08:40:41Z</time>
      </trkpt>
      <trkpt lat="46.1484" lon="4.42436">
        <ele>713.2</ele>
        <time>2025-09-08T08:40:42Z</time>
      </trkpt>
      <trkpt lat="46.14839" lon="4.42434">
        <ele>713.2</ele>
        <time>2025-09-08T08:40:43Z</time>
      </trkpt>
      <trkpt lat="46.14837" lon="4.42433">
        <ele>713.4</ele>
        <time>2025-09-08T08:40:44Z</time>
      </trkpt>
      <trkpt lat="46.14835" lon="4.42431">
        <ele>713.4</ele>
        <time>2025-09-08T08:40:45Z</time>
      </trkpt>
      <trkpt lat="46.14833" lon="4.42429">
        <ele>713.4</ele>
        <time>2025-09-08T08:40:46Z</time>
      </trkpt>
      <trkpt lat="46.14831" lon="4.42428">
        <ele>713.8</ele>
        <time>2025-09-08T08:40:47Z</time>
      </trkpt>
      <trkpt lat="46.14829" lon="4.42426">
        <ele>713.8</ele>
        <time>2025-09-08T08:40:48Z</time>
      </trkpt>
      <trkpt lat="46.14827" lon="4.42425">
        <ele>714</ele>
        <time>2025-09-08T08:40:49Z</time>
      </trkpt>
      <trkpt lat="46.14825" lon="4.42423">
        <ele>714</ele>
        <time>2025-09-08T08:40:50Z</time>
      </trkpt>
      <trkpt lat="46.14823" lon="4.42422">
        <ele>714</ele>
        <time>2025-09-08T08:40:51Z</time>
      </trkpt>
      <trkpt lat="46.14821" lon="4.4242">
        <ele>714</ele>
        <time>2025-09-08T08:40:52Z</time>
      </trkpt>
      <trkpt lat="46.14819" lon="4.42418">
        <ele>714</ele>
        <time>2025-09-08T08:40:53Z</time>
      </trkpt>
      <trkpt lat="46.14817" lon="4.42417">
        <ele>714.2</ele>
        <time>2025-09-08T08:40:54Z</time>
      </trkpt>
      <trkpt lat="46.14815" lon="4.42415">
        <ele>714.2</ele>
        <time>2025-09-08T08:40:55Z</time>
      </trkpt>
      <trkpt lat="46.14813" lon="4.42413">
        <ele>714.2</ele>
        <time>2025-09-08T08:40:56Z</time>
      </trkpt>
      <trkpt lat="46.14812" lon="4.42411">
        <ele>714.2</ele>
        <time>2025-09-08T08:40:57Z</time>
      </trkpt>
      <trkpt lat="46.1481" lon="4.42408">
        <ele>714.2</ele>
        <time>2025-09-08T08:40:58Z</time>
      </trkpt>
      <trkpt lat="46.14808" lon="4.42406">
        <ele>714.2</ele>
        <time>2025-09-08T08:40:59Z</time>
      </trkpt>
      <trkpt lat="46.14806" lon="4.42404">
        <ele>714.2</ele>
        <time>2025-09-08T08:41:00Z</time>
      </trkpt>
      <trkpt lat="46.14804" lon="4.42402">
        <ele>714.4</ele>
        <time>2025-09-08T08:41:01Z</time>
      </trkpt>
      <trkpt lat="46.14802" lon="4.424">
        <ele>714.4</ele>
        <time>2025-09-08T08:41:02Z</time>
      </trkpt>
      <trkpt lat="46.148" lon="4.42398">
        <ele>714.4</ele>
        <time>2025-09-08T08:41:03Z</time>
      </trkpt>
      <trkpt lat="46.14798" lon="4.42396">
        <ele>714.4</ele>
        <time>2025-09-08T08:41:04Z</time>
      </trkpt>
      <trkpt lat="46.14796" lon="4.42394">
        <ele>714.8</ele>
        <time>2025-09-08T08:41:05Z</time>
      </trkpt>
      <trkpt lat="46.14794" lon="4.42392">
        <ele>715</ele>
        <time>2025-09-08T08:41:06Z</time>
      </trkpt>
      <trkpt lat="46.14792" lon="4.4239">
        <ele>715</ele>
        <time>2025-09-08T08:41:07Z</time>
      </trkpt>
      <trkpt lat="46.1479" lon="4.42387">
        <ele>715</ele>
        <time>2025-09-08T08:41:08Z</time>
      </trkpt>
      <trkpt lat="46.14789" lon="4.42385">
        <ele>715.2</ele>
        <time>2025-09-08T08:41:09Z</time>
      </trkpt>
      <trkpt lat="46.14787" lon="4.42382">
        <ele>715.2</ele>
        <time>2025-09-08T08:41:10Z</time>
      </trkpt>
      <trkpt lat="46.14786" lon="4.4238">
        <ele>715.6</ele>
        <time>2025-09-08T08:41:11Z</time>
      </trkpt>
      <trkpt lat="46.14784" lon="4.42377">
        <ele>715.6</ele>
        <time>2025-09-08T08:41:12Z</time>
      </trkpt>
      <trkpt lat="46.14783" lon="4.42375">
        <ele>715.6</ele>
        <time>2025-09-08T08:41:13Z</time>
      </trkpt>
      <trkpt lat="46.14781" lon="4.42372">
        <ele>715.8</ele>
        <time>2025-09-08T08:41:14Z</time>
      </trkpt>
      <trkpt lat="46.1478" lon="4.4237">
        <ele>715.8</ele>
        <time>2025-09-08T08:41:15Z</time>
      </trkpt>
      <trkpt lat="46.14778" lon="4.42367">
        <ele>715.8</ele>
        <time>2025-09-08T08:41:16Z</time>
      </trkpt>
      <trkpt lat="46.14777" lon="4.42364">
        <ele>716</ele>
        <time>2025-09-08T08:41:17Z</time>
      </trkpt>
      <trkpt lat="46.14776" lon="4.42362">
        <ele>716</ele>
        <time>2025-09-08T08:41:18Z</time>
      </trkpt>
      <trkpt lat="46.14775" lon="4.4236">
        <ele>716</ele>
        <time>2025-09-08T08:41:19Z</time>
      </trkpt>
      <trkpt lat="46.14773" lon="4.42357">
        <ele>716.4</ele>
        <time>2025-09-08T08:41:20Z</time>
      </trkpt>
      <trkpt lat="46.14772" lon="4.42355">
        <ele>716.4</ele>
        <time>2025-09-08T08:41:21Z</time>
      </trkpt>
      <trkpt lat="46.14771" lon="4.42352">
        <ele>716.4</ele>
        <time>2025-09-08T08:41:22Z</time>
      </trkpt>
      <trkpt lat="46.1477" lon="4.4235">
        <ele>716.6</ele>
        <time>2025-09-08T08:41:23Z</time>
      </trkpt>
      <trkpt lat="46.14769" lon="4.42347">
        <ele>716.6</ele>
        <time>2025-09-08T08:41:24Z</time>
      </trkpt>
      <trkpt lat="46.14768" lon="4.42345">
        <ele>716.8</ele>
        <time>2025-09-08T08:41:25Z</time>
      </trkpt>
      <trkpt lat="46.14767" lon="4.42342">
        <ele>716.8</ele>
        <time>2025-09-08T08:41:26Z</time>
      </trkpt>
      <trkpt lat="46.14766" lon="4.42339">
        <ele>717</ele>
        <time>2025-09-08T08:41:27Z</time>
      </trkpt>
      <trkpt lat="46.14765" lon="4.42337">
        <ele>717</ele>
        <time>2025-09-08T08:41:28Z</time>
      </trkpt>
      <trkpt lat="46.14764" lon="4.42334">
        <ele>717</ele>
        <time>2025-09-08T08:41:29Z</time>
      </trkpt>
      <trkpt lat="46.14763" lon="4.42332">
        <ele>717</ele>
        <time>2025-09-08T08:41:30Z</time>
      </trkpt>
      <trkpt lat="46.14763" lon="4.42329">
        <ele>717.4</ele>
        <time>2025-09-08T08:41:31Z</time>
      </trkpt>
      <trkpt lat="46.14762" lon="4.42326">
        <ele>717.4</ele>
        <time>2025-09-08T08:41:32Z</time>
      </trkpt>
      <trkpt lat="46.14761" lon="4.42323">
        <ele>717.4</ele>
        <time>2025-09-08T08:41:33Z</time>
      </trkpt>
      <trkpt lat="46.1476" lon="4.4232">
        <ele>717.8</ele>
        <time>2025-09-08T08:41:34Z</time>
      </trkpt>
      <trkpt lat="46.1476" lon="4.42318">
        <ele>717.8</ele>
        <time>2025-09-08T08:41:35Z</time>
      </trkpt>
      <trkpt lat="46.14759" lon="4.42315">
        <ele>717.8</ele>
        <time>2025-09-08T08:41:36Z</time>
      </trkpt>
      <trkpt lat="46.14758" lon="4.42312">
        <ele>717.8</ele>
        <time>2025-09-08T08:41:37Z</time>
      </trkpt>
      <trkpt lat="46.14758" lon="4.42309">
        <ele>718</ele>
        <time>2025-09-08T08:41:38Z</time>
      </trkpt>
      <trkpt lat="46.14757" lon="4.42307">
        <ele>718</ele>
        <time>2025-09-08T08:41:39Z</time>
      </trkpt>
      <trkpt lat="46.14757" lon="4.42304">
        <ele>718.2</ele>
        <time>2025-09-08T08:41:40Z</time>
      </trkpt>
      <trkpt lat="46.14756" lon="4.42301">
        <ele>718.2</ele>
        <time>2025-09-08T08:41:41Z</time>
      </trkpt>
      <trkpt lat="46.14755" lon="4.42298">
        <ele>718.2</ele>
        <time>2025-09-08T08:41:42Z</time>
      </trkpt>
      <trkpt lat="46.14755" lon="4.42295">
        <ele>718.4</ele>
        <time>2025-09-08T08:41:43Z</time>
      </trkpt>
      <trkpt lat="46.14754" lon="4.42292">
        <ele>718.4</ele>
        <time>2025-09-08T08:41:44Z</time>
      </trkpt>
      <trkpt lat="46.14754" lon="4.42289">
        <ele>718.8</ele>
        <time>2025-09-08T08:41:45Z</time>
      </trkpt>
      <trkpt lat="46.14753" lon="4.42286">
        <ele>718.8</ele>
        <time>2025-09-08T08:41:46Z</time>
      </trkpt>
      <trkpt lat="46.14752" lon="4.42283">
        <ele>718.8</ele>
        <time>2025-09-08T08:41:47Z</time>
      </trkpt>
      <trkpt lat="46.14752" lon="4.4228">
        <ele>719</ele>
        <time>2025-09-08T08:41:48Z</time>
      </trkpt>
      <trkpt lat="46.14751" lon="4.42278">
        <ele>719</ele>
        <time>2025-09-08T08:41:49Z</time>
      </trkpt>
      <trkpt lat="46.14751" lon="4.42276">
        <ele>719</ele>
        <time>2025-09-08T08:41:50Z</time>
      </trkpt>
      <trkpt lat="46.1475" lon="4.42272">
        <ele>719</ele>
        <time>2025-09-08T08:41:51Z</time>
      </trkpt>
      <trkpt lat="46.1475" lon="4.42269">
        <ele>719.2</ele>
        <time>2025-09-08T08:41:52Z</time>
      </trkpt>
      <trkpt lat="46.14749" lon="4.42266">
        <ele>719.2</ele>
        <time>2025-09-08T08:41:53Z</time>
      </trkpt>
      <trkpt lat="46.14749" lon="4.42264">
        <ele>719.2</ele>
        <time>2025-09-08T08:41:54Z</time>
      </trkpt>
      <trkpt lat="46.14749" lon="4.42261">
        <ele>719.6</ele>
        <time>2025-09-08T08:41:55Z</time>
      </trkpt>
      <trkpt lat="46.14748" lon="4.42258">
        <ele>719.6</ele>
        <time>2025-09-08T08:41:56Z</time>
      </trkpt>
      <trkpt lat="46.14747" lon="4.42256">
        <ele>719.6</ele>
        <time>2025-09-08T08:41:57Z</time>
      </trkpt>
      <trkpt lat="46.14746" lon="4.42252">
        <ele>719.8</ele>
        <time>2025-09-08T08:41:58Z</time>
      </trkpt>
      <trkpt lat="46.14745" lon="4.4225">
        <ele>719.8</ele>
        <time>2025-09-08T08:41:59Z</time>
      </trkpt>
      <trkpt lat="46.14745" lon="4.42247">
        <ele>719.8</ele>
        <time>2025-09-08T08:42:00Z</time>
      </trkpt>
      <trkpt lat="46.14744" lon="4.42245">
        <ele>719.8</ele>
        <time>2025-09-08T08:42:01Z</time>
      </trkpt>
      <trkpt lat="46.14744" lon="4.42242">
        <ele>720</ele>
        <time>2025-09-08T08:42:02Z</time>
      </trkpt>
      <trkpt lat="46.14743" lon="4.42239">
        <ele>720</ele>
        <time>2025-09-08T08:42:03Z</time>
      </trkpt>
      <trkpt lat="46.14743" lon="4.42237">
        <ele>720</ele>
        <time>2025-09-08T08:42:04Z</time>
      </trkpt>
      <trkpt lat="46.14742" lon="4.42234">
        <ele>720</ele>
        <time>2025-09-08T08:42:05Z</time>
      </trkpt>
      <trkpt lat="46.14741" lon="4.42232">
        <ele>720</ele>
        <time>2025-09-08T08:42:06Z</time>
      </trkpt>
      <trkpt lat="46.1474" lon="4.4223">
        <ele>720.4</ele>
        <time>2025-09-08T08:42:07Z</time>
      </trkpt>
      <trkpt lat="46.14739" lon="4.42227">
        <ele>720.8</ele>
        <time>2025-09-08T08:42:08Z</time>
      </trkpt>
      <trkpt lat="46.14738" lon="4.42224">
        <ele>720.8</ele>
        <time>2025-09-08T08:42:09Z</time>
      </trkpt>
      <trkpt lat="46.14737" lon="4.42221">
        <ele>721</ele>
        <time>2025-09-08T08:42:10Z</time>
      </trkpt>
      <trkpt lat="46.14736" lon="4.42218">
        <ele>721</ele>
        <time>2025-09-08T08:42:11Z</time>
      </trkpt>
      <trkpt lat="46.14735" lon="4.42216">
        <ele>721</ele>
        <time>2025-09-08T08:42:12Z</time>
      </trkpt>
      <trkpt lat="46.14735" lon="4.42214">
        <ele>721.4</ele>
        <time>2025-09-08T08:42:13Z</time>
      </trkpt>
      <trkpt lat="46.14734" lon="4.42211">
        <ele>721.4</ele>
        <time>2025-09-08T08:42:14Z</time>
      </trkpt>
      <trkpt lat="46.14733" lon="4.42209">
        <ele>721.6</ele>
        <time>2025-09-08T08:42:15Z</time>
      </trkpt>
      <trkpt lat="46.14733" lon="4.42206">
        <ele>721.6</ele>
        <time>2025-09-08T08:42:16Z</time>
      </trkpt>
      <trkpt lat="46.14731" lon="4.42204">
        <ele>721.8</ele>
        <time>2025-09-08T08:42:17Z</time>
      </trkpt>
      <trkpt lat="46.1473" lon="4.42201">
        <ele>721.8</ele>
        <time>2025-09-08T08:42:18Z</time>
      </trkpt>
      <trkpt lat="46.14729" lon="4.42199">
        <ele>721.8</ele>
        <time>2025-09-08T08:42:19Z</time>
      </trkpt>
      <trkpt lat="46.14728" lon="4.42196">
        <ele>722.2</ele>
        <time>2025-09-08T08:42:20Z</time>
      </trkpt>
      <trkpt lat="46.14727" lon="4.42193">
        <ele>722.2</ele>
        <time>2025-09-08T08:42:21Z</time>
      </trkpt>
      <trkpt lat="46.14726" lon="4.42191">
        <ele>722.4</ele>
        <time>2025-09-08T08:42:22Z</time>
      </trkpt>
      <trkpt lat="46.14724" lon="4.42189">
        <ele>722.4</ele>
        <time>2025-09-08T08:42:23Z</time>
      </trkpt>
      <trkpt lat="46.14723" lon="4.42186">
        <ele>722.8</ele>
        <time>2025-09-08T08:42:24Z</time>
      </trkpt>
      <trkpt lat="46.14722" lon="4.42184">
        <ele>722.8</ele>
        <time>2025-09-08T08:42:25Z</time>
      </trkpt>
      <trkpt lat="46.14721" lon="4.42182">
        <ele>722.8</ele>
        <time>2025-09-08T08:42:26Z</time>
      </trkpt>
      <trkpt lat="46.14719" lon="4.4218">
        <ele>723</ele>
        <time>2025-09-08T08:42:27Z</time>
      </trkpt>
      <trkpt lat="46.14718" lon="4.42177">
        <ele>723</ele>
        <time>2025-09-08T08:42:28Z</time>
      </trkpt>
      <trkpt lat="46.14716" lon="4.42174">
        <ele>723</ele>
        <time>2025-09-08T08:42:29Z</time>
      </trkpt>
      <trkpt lat="46.14715" lon="4.42172">
        <ele>723</ele>
        <time>2025-09-08T08:42:30Z</time>
      </trkpt>
      <trkpt lat="46.14714" lon="4.4217">
        <ele>723</ele>
        <time>2025-09-08T08:42:31Z</time>
      </trkpt>
      <trkpt lat="46.14712" lon="4.42168">
        <ele>723</ele>
        <time>2025-09-08T08:42:32Z</time>
      </trkpt>
      <trkpt lat="46.1471" lon="4.42167">
        <ele>723.2</ele>
        <time>2025-09-08T08:42:33Z</time>
      </trkpt>
      <trkpt lat="46.14709" lon="4.42165">
        <ele>723.2</ele>
        <time>2025-09-08T08:42:34Z</time>
      </trkpt>
      <trkpt lat="46.14708" lon="4.42163">
        <ele>723.6</ele>
        <time>2025-09-08T08:42:35Z</time>
      </trkpt>
      <trkpt lat="46.14706" lon="4.42161">
        <ele>723.6</ele>
        <time>2025-09-08T08:42:36Z</time>
      </trkpt>
      <trkpt lat="46.14704" lon="4.4216">
        <ele>723.8</ele>
        <time>2025-09-08T08:42:37Z</time>
      </trkpt>
      <trkpt lat="46.14702" lon="4.42158">
        <ele>723.8</ele>
        <time>2025-09-08T08:42:38Z</time>
      </trkpt>
      <trkpt lat="46.14701" lon="4.42156">
        <ele>723.8</ele>
        <time>2025-09-08T08:42:39Z</time>
      </trkpt>
      <trkpt lat="46.14699" lon="4.42153">
        <ele>723.8</ele>
        <time>2025-09-08T08:42:40Z</time>
      </trkpt>
      <trkpt lat="46.14698" lon="4.42151">
        <ele>724</ele>
        <time>2025-09-08T08:42:41Z</time>
      </trkpt>
      <trkpt lat="46.14696" lon="4.42149">
        <ele>724</ele>
        <time>2025-09-08T08:42:42Z</time>
      </trkpt>
      <trkpt lat="46.14695" lon="4.42148">
        <ele>724.2</ele>
        <time>2025-09-08T08:42:43Z</time>
      </trkpt>
      <trkpt lat="46.14693" lon="4.42146">
        <ele>724.2</ele>
        <time>2025-09-08T08:42:44Z</time>
      </trkpt>
      <trkpt lat="46.14691" lon="4.42146">
        <ele>724.2</ele>
        <time>2025-09-08T08:42:45Z</time>
      </trkpt>
      <trkpt lat="46.14689" lon="4.42144">
        <ele>724.4</ele>
        <time>2025-09-08T08:42:46Z</time>
      </trkpt>
      <trkpt lat="46.14688" lon="4.42142">
        <ele>724.4</ele>
        <time>2025-09-08T08:42:47Z</time>
      </trkpt>
      <trkpt lat="46.14686" lon="4.42141">
        <ele>724.4</ele>
        <time>2025-09-08T08:42:48Z</time>
      </trkpt>
      <trkpt lat="46.14684" lon="4.42139">
        <ele>724.4</ele>
        <time>2025-09-08T08:42:49Z</time>
      </trkpt>
      <trkpt lat="46.14682" lon="4.42138">
        <ele>724.8</ele>
        <time>2025-09-08T08:42:50Z</time>
      </trkpt>
      <trkpt lat="46.1468" lon="4.42138">
        <ele>724.8</ele>
        <time>2025-09-08T08:42:51Z</time>
      </trkpt>
      <trkpt lat="46.14678" lon="4.42138">
        <ele>724.8</ele>
        <time>2025-09-08T08:42:52Z</time>
      </trkpt>
      <trkpt lat="46.14677" lon="4.42137">
        <ele>725</ele>
        <time>2025-09-08T08:42:53Z</time>
      </trkpt>
      <trkpt lat="46.14676" lon="4.42136">
        <ele>725</ele>
        <time>2025-09-08T08:42:54Z</time>
      </trkpt>
      <trkpt lat="46.14674" lon="4.42135">
        <ele>725</ele>
        <time>2025-09-08T08:42:55Z</time>
      </trkpt>
      <trkpt lat="46.14673" lon="4.42133">
        <ele>725.2</ele>
        <time>2025-09-08T08:42:56Z</time>
      </trkpt>
      <trkpt lat="46.14671" lon="4.42132">
        <ele>725.2</ele>
        <time>2025-09-08T08:42:57Z</time>
      </trkpt>
      <trkpt lat="46.1467" lon="4.42131">
        <ele>725.2</ele>
        <time>2025-09-08T08:42:58Z</time>
      </trkpt>
      <trkpt lat="46.14668" lon="4.42131">
        <ele>725.2</ele>
        <time>2025-09-08T08:42:59Z</time>
      </trkpt>
      <trkpt lat="46.14666" lon="4.4213">
        <ele>725.6</ele>
        <time>2025-09-08T08:43:00Z</time>
      </trkpt>
      <trkpt lat="46.14664" lon="4.42129">
        <ele>725.6</ele>
        <time>2025-09-08T08:43:01Z</time>
      </trkpt>
      <trkpt lat="46.14662" lon="4.42127">
        <ele>725.8</ele>
        <time>2025-09-08T08:43:02Z</time>
      </trkpt>
      <trkpt lat="46.14661" lon="4.42126">
        <ele>725.8</ele>
        <time>2025-09-08T08:43:03Z</time>
      </trkpt>
      <trkpt lat="46.14659" lon="4.42124">
        <ele>725.8</ele>
        <time>2025-09-08T08:43:04Z</time>
      </trkpt>
      <trkpt lat="46.14657" lon="4.42124">
        <ele>726.2</ele>
        <time>2025-09-08T08:43:05Z</time>
      </trkpt>
      <trkpt lat="46.14655" lon="4.42123">
        <ele>726.2</ele>
        <time>2025-09-08T08:43:06Z</time>
      </trkpt>
      <trkpt lat="46.14653" lon="4.42121">
        <ele>726.2</ele>
        <time>2025-09-08T08:43:07Z</time>
      </trkpt>
      <trkpt lat="46.14651" lon="4.4212">
        <ele>726.2</ele>
        <time>2025-09-08T08:43:08Z</time>
      </trkpt>
      <trkpt lat="46.14649" lon="4.42119">
        <ele>726.2</ele>
        <time>2025-09-08T08:43:09Z</time>
      </trkpt>
      <trkpt lat="46.14647" lon="4.42118">
        <ele>726.4</ele>
        <time>2025-09-08T08:43:10Z</time>
      </trkpt>
      <trkpt lat="46.14646" lon="4.42118">
        <ele>726.6</ele>
        <time>2025-09-08T08:43:11Z</time>
      </trkpt>
      <trkpt lat="46.14644" lon="4.42118">
        <ele>726.6</ele>
        <time>2025-09-08T08:43:12Z</time>
      </trkpt>
      <trkpt lat="46.14642" lon="4.42117">
        <ele>726.6</ele>
        <time>2025-09-08T08:43:13Z</time>
      </trkpt>
      <trkpt lat="46.14641" lon="4.42117">
        <ele>727</ele>
        <time>2025-09-08T08:43:14Z</time>
      </trkpt>
      <trkpt lat="46.14639" lon="4.42116">
        <ele>727</ele>
        <time>2025-09-08T08:43:15Z</time>
      </trkpt>
      <trkpt lat="46.14637" lon="4.42116">
        <ele>727.2</ele>
        <time>2025-09-08T08:43:16Z</time>
      </trkpt>
      <trkpt lat="46.14635" lon="4.42115">
        <ele>727.2</ele>
        <time>2025-09-08T08:43:17Z</time>
      </trkpt>
      <trkpt lat="46.14634" lon="4.42114">
        <ele>727.2</ele>
        <time>2025-09-08T08:43:18Z</time>
      </trkpt>
      <trkpt lat="46.14632" lon="4.42114">
        <ele>727.6</ele>
        <time>2025-09-08T08:43:19Z</time>
      </trkpt>
      <trkpt lat="46.1463" lon="4.42113">
        <ele>727.6</ele>
        <time>2025-09-08T08:43:20Z</time>
      </trkpt>
      <trkpt lat="46.14628" lon="4.42113">
        <ele>727.6</ele>
        <time>2025-09-08T08:43:21Z</time>
      </trkpt>
      <trkpt lat="46.14626" lon="4.42112">
        <ele>727.8</ele>
        <time>2025-09-08T08:43:22Z</time>
      </trkpt>
      <trkpt lat="46.14624" lon="4.42112">
        <ele>727.8</ele>
        <time>2025-09-08T08:43:23Z</time>
      </trkpt>
      <trkpt lat="46.14622" lon="4.42112">
        <ele>727.8</ele>
        <time>2025-09-08T08:43:24Z</time>
      </trkpt>
      <trkpt lat="46.1462" lon="4.42112">
        <ele>727.8</ele>
        <time>2025-09-08T08:43:25Z</time>
      </trkpt>
      <trkpt lat="46.14617" lon="4.42112">
        <ele>728</ele>
        <time>2025-09-08T08:43:26Z</time>
      </trkpt>
      <trkpt lat="46.14615" lon="4.42112">
        <ele>728</ele>
        <time>2025-09-08T08:43:27Z</time>
      </trkpt>
      <trkpt lat="46.14613" lon="4.42112">
        <ele>728</ele>
        <time>2025-09-08T08:43:28Z</time>
      </trkpt>
      <trkpt lat="46.14611" lon="4.42113">
        <ele>728</ele>
        <time>2025-09-08T08:43:29Z</time>
      </trkpt>
      <trkpt lat="46.14609" lon="4.42113">
        <ele>728</ele>
        <time>2025-09-08T08:43:30Z</time>
      </trkpt>
      <trkpt lat="46.14606" lon="4.42113">
        <ele>728</ele>
        <time>2025-09-08T08:43:31Z</time>
      </trkpt>
      <trkpt lat="46.14604" lon="4.42114">
        <ele>728</ele>
        <time>2025-09-08T08:43:32Z</time>
      </trkpt>
      <trkpt lat="46.146" lon="4.42115">
        <ele>728.2</ele>
        <time>2025-09-08T08:43:33Z</time>
      </trkpt>
      <trkpt lat="46.14598" lon="4.42115">
        <ele>728.2</ele>
        <time>2025-09-08T08:43:34Z</time>
      </trkpt>
      <trkpt lat="46.14596" lon="4.42116">
        <ele>728.2</ele>
        <time>2025-09-08T08:43:35Z</time>
      </trkpt>
      <trkpt lat="46.14594" lon="4.42116">
        <ele>728.2</ele>
        <time>2025-09-08T08:43:36Z</time>
      </trkpt>
      <trkpt lat="46.14592" lon="4.42117">
        <ele>728.4</ele>
        <time>2025-09-08T08:43:37Z</time>
      </trkpt>
      <trkpt lat="46.1459" lon="4.42117">
        <ele>728.4</ele>
        <time>2025-09-08T08:43:38Z</time>
      </trkpt>
      <trkpt lat="46.14588" lon="4.42118">
        <ele>728.4</ele>
        <time>2025-09-08T08:43:39Z</time>
      </trkpt>
      <trkpt lat="46.14586" lon="4.42119">
        <ele>728.8</ele>
        <time>2025-09-08T08:43:40Z</time>
      </trkpt>
      <trkpt lat="46.14584" lon="4.42119">
        <ele>728.8</ele>
        <time>2025-09-08T08:43:41Z</time>
      </trkpt>
      <trkpt lat="46.14582" lon="4.4212">
        <ele>728.8</ele>
        <time>2025-09-08T08:43:42Z</time>
      </trkpt>
      <trkpt lat="46.1458" lon="4.42121">
        <ele>729</ele>
        <time>2025-09-08T08:43:43Z</time>
      </trkpt>
      <trkpt lat="46.14578" lon="4.42122">
        <ele>729</ele>
        <time>2025-09-08T08:43:44Z</time>
      </trkpt>
      <trkpt lat="46.14576" lon="4.42123">
        <ele>729</ele>
        <time>2025-09-08T08:43:45Z</time>
      </trkpt>
      <trkpt lat="46.14574" lon="4.42123">
        <ele>729.4</ele>
        <time>2025-09-08T08:43:46Z</time>
      </trkpt>
      <trkpt lat="46.14572" lon="4.42123">
        <ele>729.4</ele>
        <time>2025-09-08T08:43:47Z</time>
      </trkpt>
      <trkpt lat="46.14571" lon="4.42123">
        <ele>729.4</ele>
        <time>2025-09-08T08:43:48Z</time>
      </trkpt>
      <trkpt lat="46.14569" lon="4.42124">
        <ele>729.4</ele>
        <time>2025-09-08T08:43:49Z</time>
      </trkpt>
      <trkpt lat="46.14567" lon="4.42125">
        <ele>729.6</ele>
        <time>2025-09-08T08:43:50Z</time>
      </trkpt>
      <trkpt lat="46.14566" lon="4.42126">
        <ele>729.6</ele>
        <time>2025-09-08T08:43:51Z</time>
      </trkpt>
      <trkpt lat="46.14564" lon="4.42128">
        <ele>729.8</ele>
        <time>2025-09-08T08:43:52Z</time>
      </trkpt>
      <trkpt lat="46.14562" lon="4.42129">
        <ele>729.8</ele>
        <time>2025-09-08T08:43:53Z</time>
      </trkpt>
      <trkpt lat="46.1456" lon="4.4213">
        <ele>729.8</ele>
        <time>2025-09-08T08:43:54Z</time>
      </trkpt>
      <trkpt lat="46.14558" lon="4.42131">
        <ele>730.2</ele>
        <time>2025-09-08T08:43:55Z</time>
      </trkpt>
      <trkpt lat="46.14556" lon="4.42133">
        <ele>730.2</ele>
        <time>2025-09-08T08:43:56Z</time>
      </trkpt>
      <trkpt lat="46.14555" lon="4.42134">
        <ele>730.4</ele>
        <time>2025-09-08T08:43:57Z</time>
      </trkpt>
      <trkpt lat="46.14553" lon="4.42135">
        <ele>730.4</ele>
        <time>2025-09-08T08:43:58Z</time>
      </trkpt>
      <trkpt lat="46.14552" lon="4.42136">
        <ele>730.4</ele>
        <time>2025-09-08T08:43:59Z</time>
      </trkpt>
      <trkpt lat="46.1455" lon="4.42137">
        <ele>730.4</ele>
        <time>2025-09-08T08:44:00Z</time>
      </trkpt>
      <trkpt lat="46.14548" lon="4.42138">
        <ele>730.4</ele>
        <time>2025-09-08T08:44:01Z</time>
      </trkpt>
      <trkpt lat="46.14546" lon="4.42139">
        <ele>730.6</ele>
        <time>2025-09-08T08:44:02Z</time>
      </trkpt>
      <trkpt lat="46.14545" lon="4.42141">
        <ele>731</ele>
        <time>2025-09-08T08:44:03Z</time>
      </trkpt>
      <trkpt lat="46.14543" lon="4.42143">
        <ele>731</ele>
        <time>2025-09-08T08:44:04Z</time>
      </trkpt>
      <trkpt lat="46.14541" lon="4.42145">
        <ele>731</ele>
        <time>2025-09-08T08:44:05Z</time>
      </trkpt>
      <trkpt lat="46.14539" lon="4.42147">
        <ele>731.2</ele>
        <time>2025-09-08T08:44:06Z</time>
      </trkpt>
      <trkpt lat="46.14537" lon="4.42148">
        <ele>731.2</ele>
        <time>2025-09-08T08:44:07Z</time>
      </trkpt>
      <trkpt lat="46.14535" lon="4.4215">
        <ele>731.2</ele>
        <time>2025-09-08T08:44:08Z</time>
      </trkpt>
      <trkpt lat="46.14533" lon="4.42152">
        <ele>731.2</ele>
        <time>2025-09-08T08:44:09Z</time>
      </trkpt>
      <trkpt lat="46.14531" lon="4.42154">
        <ele>731.2</ele>
        <time>2025-09-08T08:44:10Z</time>
      </trkpt>
      <trkpt lat="46.14529" lon="4.42156">
        <ele>731.4</ele>
        <time>2025-09-08T08:44:11Z</time>
      </trkpt>
      <trkpt lat="46.14527" lon="4.42158">
        <ele>731.4</ele>
        <time>2025-09-08T08:44:12Z</time>
      </trkpt>
      <trkpt lat="46.14526" lon="4.42161">
        <ele>731.4</ele>
        <time>2025-09-08T08:44:13Z</time>
      </trkpt>
      <trkpt lat="46.14525" lon="4.42163">
        <ele>731.8</ele>
        <time>2025-09-08T08:44:14Z</time>
      </trkpt>
      <trkpt lat="46.14523" lon="4.42165">
        <ele>732</ele>
        <time>2025-09-08T08:44:15Z</time>
      </trkpt>
      <trkpt lat="46.14522" lon="4.42168">
        <ele>732</ele>
        <time>2025-09-08T08:44:16Z</time>
      </trkpt>
      <trkpt lat="46.1452" lon="4.4217">
        <ele>732</ele>
        <time>2025-09-08T08:44:17Z</time>
      </trkpt>
      <trkpt lat="46.14518" lon="4.42171">
        <ele>732.2</ele>
        <time>2025-09-08T08:44:18Z</time>
      </trkpt>
      <trkpt lat="46.14516" lon="4.42171">
        <ele>732.6</ele>
        <time>2025-09-08T08:44:19Z</time>
      </trkpt>
      <trkpt lat="46.14516" lon="4.42171">
        <ele>732.8</ele>
        <time>2025-09-08T08:44:20Z</time>
      </trkpt>
      <trkpt lat="46.14514" lon="4.42171">
        <ele>732.8</ele>
        <time>2025-09-08T08:44:21Z</time>
      </trkpt>
      <trkpt lat="46.14512" lon="4.42171">
        <ele>732.8</ele>
        <time>2025-09-08T08:44:22Z</time>
      </trkpt>
      <trkpt lat="46.14511" lon="4.42173">
        <ele>732.8</ele>
        <time>2025-09-08T08:44:23Z</time>
      </trkpt>
      <trkpt lat="46.14509" lon="4.42174">
        <ele>733</ele>
        <time>2025-09-08T08:44:24Z</time>
      </trkpt>
      <trkpt lat="46.14507" lon="4.42175">
        <ele>733</ele>
        <time>2025-09-08T08:44:25Z</time>
      </trkpt>
      <trkpt lat="46.14506" lon="4.42177">
        <ele>733.4</ele>
        <time>2025-09-08T08:44:26Z</time>
      </trkpt>
      <trkpt lat="46.14504" lon="4.42178">
        <ele>733.4</ele>
        <time>2025-09-08T08:44:27Z</time>
      </trkpt>
      <trkpt lat="46.14503" lon="4.4218">
        <ele>733.4</ele>
        <time>2025-09-08T08:44:28Z</time>
      </trkpt>
      <trkpt lat="46.14501" lon="4.42182">
        <ele>733.4</ele>
        <time>2025-09-08T08:44:29Z</time>
      </trkpt>
      <trkpt lat="46.14499" lon="4.42183">
        <ele>733.6</ele>
        <time>2025-09-08T08:44:30Z</time>
      </trkpt>
      <trkpt lat="46.14497" lon="4.42184">
        <ele>733.6</ele>
        <time>2025-09-08T08:44:31Z</time>
      </trkpt>
      <trkpt lat="46.14495" lon="4.42185">
        <ele>733.6</ele>
        <time>2025-09-08T08:44:32Z</time>
      </trkpt>
      <trkpt lat="46.14493" lon="4.42186">
        <ele>733.8</ele>
        <time>2025-09-08T08:44:33Z</time>
      </trkpt>
      <trkpt lat="46.14491" lon="4.42188">
        <ele>733.8</ele>
        <time>2025-09-08T08:44:34Z</time>
      </trkpt>
      <trkpt lat="46.1449" lon="4.42189">
        <ele>733.8</ele>
        <time>2025-09-08T08:44:35Z</time>
      </trkpt>
      <trkpt lat="46.14489" lon="4.4219">
        <ele>733.8</ele>
        <time>2025-09-08T08:44:36Z</time>
      </trkpt>
      <trkpt lat="46.14487" lon="4.42191">
        <ele>734</ele>
        <time>2025-09-08T08:44:37Z</time>
      </trkpt>
      <trkpt lat="46.14485" lon="4.42191">
        <ele>734</ele>
        <time>2025-09-08T08:44:38Z</time>
      </trkpt>
      <trkpt lat="46.14484" lon="4.42191">
        <ele>734</ele>
        <time>2025-09-08T08:44:39Z</time>
      </trkpt>
      <trkpt lat="46.14483" lon="4.42192">
        <ele>734</ele>
        <time>2025-09-08T08:44:40Z</time>
      </trkpt>
      <trkpt lat="46.14482" lon="4.42193">
        <ele>734.2</ele>
        <time>2025-09-08T08:44:41Z</time>
      </trkpt>
      <trkpt lat="46.1448" lon="4.42195">
        <ele>734.2</ele>
        <time>2025-09-08T08:44:42Z</time>
      </trkpt>
      <trkpt lat="46.1448" lon="4.42197">
        <ele>734.2</ele>
        <time>2025-09-08T08:44:43Z</time>
      </trkpt>
      <trkpt lat="46.14479" lon="4.42199">
        <ele>734.8</ele>
        <time>2025-09-08T08:44:44Z</time>
      </trkpt>
      <trkpt lat="46.14478" lon="4.42202">
        <ele>734.8</ele>
        <time>2025-09-08T08:44:45Z</time>
      </trkpt>
      <trkpt lat="46.14476" lon="4.42204">
        <ele>734.8</ele>
        <time>2025-09-08T08:44:46Z</time>
      </trkpt>
      <trkpt lat="46.14475" lon="4.42205">
        <ele>735</ele>
        <time>2025-09-08T08:44:47Z</time>
      </trkpt>
      <trkpt lat="46.14474" lon="4.42206">
        <ele>735.2</ele>
        <time>2025-09-08T08:44:48Z</time>
      </trkpt>
      <trkpt lat="46.14472" lon="4.42207">
        <ele>735.2</ele>
        <time>2025-09-08T08:44:49Z</time>
      </trkpt>
      <trkpt lat="46.14471" lon="4.42207">
        <ele>735.2</ele>
        <time>2025-09-08T08:44:50Z</time>
      </trkpt>
      <trkpt lat="46.14469" lon="4.42209">
        <ele>735.2</ele>
        <time>2025-09-08T08:44:51Z</time>
      </trkpt>
      <trkpt lat="46.14467" lon="4.42211">
        <ele>735.6</ele>
        <time>2025-09-08T08:44:52Z</time>
      </trkpt>
      <trkpt lat="46.14465" lon="4.42212">
        <ele>735.6</ele>
        <time>2025-09-08T08:44:53Z</time>
      </trkpt>
      <trkpt lat="46.14464" lon="4.42214">
        <ele>735.6</ele>
        <time>2025-09-08T08:44:54Z</time>
      </trkpt>
      <trkpt lat="46.14462" lon="4.42214">
        <ele>735.6</ele>
        <time>2025-09-08T08:44:55Z</time>
      </trkpt>
      <trkpt lat="46.14461" lon="4.42215">
        <ele>735.8</ele>
        <time>2025-09-08T08:44:56Z</time>
      </trkpt>
      <trkpt lat="46.14459" lon="4.42216">
        <ele>735.8</ele>
        <time>2025-09-08T08:44:57Z</time>
      </trkpt>
      <trkpt lat="46.14457" lon="4.42216">
        <ele>735.8</ele>
        <time>2025-09-08T08:44:58Z</time>
      </trkpt>
      <trkpt lat="46.14456" lon="4.42217">
        <ele>736</ele>
        <time>2025-09-08T08:44:59Z</time>
      </trkpt>
      <trkpt lat="46.14454" lon="4.42217">
        <ele>736</ele>
        <time>2025-09-08T08:45:00Z</time>
      </trkpt>
      <trkpt lat="46.14453" lon="4.42217">
        <ele>736.2</ele>
        <time>2025-09-08T08:45:01Z</time>
      </trkpt>
      <trkpt lat="46.14452" lon="4.42217">
        <ele>736.6</ele>
        <time>2025-09-08T08:45:02Z</time>
      </trkpt>
      <trkpt lat="46.14451" lon="4.42217">
        <ele>736.8</ele>
        <time>2025-09-08T08:45:03Z</time>
      </trkpt>
      <trkpt lat="46.14447" lon="4.42218">
        <ele>736.8</ele>
        <time>2025-09-08T08:45:04Z</time>
      </trkpt>
      <trkpt lat="46.14444" lon="4.4222">
        <ele>737</ele>
        <time>2025-09-08T08:45:05Z</time>
      </trkpt>
      <trkpt lat="46.14442" lon="4.42221">
        <ele>737</ele>
        <time>2025-09-08T08:45:06Z</time>
      </trkpt>
      <trkpt lat="46.1444" lon="4.42222">
        <ele>737.2</ele>
        <time>2025-09-08T08:45:07Z</time>
      </trkpt>
      <trkpt lat="46.14438" lon="4.42224">
        <ele>737.2</ele>
        <time>2025-09-08T08:45:08Z</time>
      </trkpt>
      <trkpt lat="46.14437" lon="4.42225">
        <ele>737.2</ele>
        <time>2025-09-08T08:45:09Z</time>
      </trkpt>
      <trkpt lat="46.14435" lon="4.42225">
        <ele>737.6</ele>
        <time>2025-09-08T08:45:10Z</time>
      </trkpt>
      <trkpt lat="46.14432" lon="4.42226">
        <ele>737.6</ele>
        <time>2025-09-08T08:45:11Z</time>
      </trkpt>
      <trkpt lat="46.1443" lon="4.42227">
        <ele>737.6</ele>
        <time>2025-09-08T08:45:12Z</time>
      </trkpt>
      <trkpt lat="46.14428" lon="4.42228">
        <ele>737.8</ele>
        <time>2025-09-08T08:45:13Z</time>
      </trkpt>
      <trkpt lat="46.14426" lon="4.4223">
        <ele>737.8</ele>
        <time>2025-09-08T08:45:14Z</time>
      </trkpt>
      <trkpt lat="46.14423" lon="4.42231">
        <ele>737.8</ele>
        <time>2025-09-08T08:45:15Z</time>
      </trkpt>
      <trkpt lat="46.14421" lon="4.42232">
        <ele>738.2</ele>
        <time>2025-09-08T08:45:16Z</time>
      </trkpt>
      <trkpt lat="46.14419" lon="4.42233">
        <ele>738.2</ele>
        <time>2025-09-08T08:45:17Z</time>
      </trkpt>
      <trkpt lat="46.14416" lon="4.42234">
        <ele>738.2</ele>
        <time>2025-09-08T08:45:18Z</time>
      </trkpt>
      <trkpt lat="46.14413" lon="4.42235">
        <ele>738.2</ele>
        <time>2025-09-08T08:45:19Z</time>
      </trkpt>
      <trkpt lat="46.1441" lon="4.42236">
        <ele>738.4</ele>
        <time>2025-09-08T08:45:20Z</time>
      </trkpt>
      <trkpt lat="46.14408" lon="4.42238">
        <ele>738.4</ele>
        <time>2025-09-08T08:45:21Z</time>
      </trkpt>
      <trkpt lat="46.14405" lon="4.42239">
        <ele>738.4</ele>
        <time>2025-09-08T08:45:22Z</time>
      </trkpt>
      <trkpt lat="46.14402" lon="4.4224">
        <ele>738.4</ele>
        <time>2025-09-08T08:45:23Z</time>
      </trkpt>
      <trkpt lat="46.144" lon="4.4224">
        <ele>738.6</ele>
        <time>2025-09-08T08:45:24Z</time>
      </trkpt>
      <trkpt lat="46.14397" lon="4.42241">
        <ele>738.6</ele>
        <time>2025-09-08T08:45:25Z</time>
      </trkpt>
      <trkpt lat="46.14395" lon="4.42242">
        <ele>738.6</ele>
        <time>2025-09-08T08:45:26Z</time>
      </trkpt>
      <trkpt lat="46.14394" lon="4.42243">
        <ele>739</ele>
        <time>2025-09-08T08:45:27Z</time>
      </trkpt>
      <trkpt lat="46.14392" lon="4.42244">
        <ele>739</ele>
        <time>2025-09-08T08:45:28Z</time>
      </trkpt>
      <trkpt lat="46.1439" lon="4.42246">
        <ele>739</ele>
        <time>2025-09-08T08:45:29Z</time>
      </trkpt>
      <trkpt lat="46.14389" lon="4.42247">
        <ele>739.2</ele>
        <time>2025-09-08T08:45:30Z</time>
      </trkpt>
      <trkpt lat="46.14387" lon="4.42249">
        <ele>739.2</ele>
        <time>2025-09-08T08:45:31Z</time>
      </trkpt>
      <trkpt lat="46.14384" lon="4.4225">
        <ele>739.2</ele>
        <time>2025-09-08T08:45:32Z</time>
      </trkpt>
      <trkpt lat="46.14382" lon="4.42251">
        <ele>739.4</ele>
        <time>2025-09-08T08:45:33Z</time>
      </trkpt>
      <trkpt lat="46.14381" lon="4.42251">
        <ele>739.6</ele>
        <time>2025-09-08T08:45:34Z</time>
      </trkpt>
      <trkpt lat="46.14378" lon="4.4225">
        <ele>739.6</ele>
        <time>2025-09-08T08:45:35Z</time>
      </trkpt>
      <trkpt lat="46.14376" lon="4.4225">
        <ele>740</ele>
        <time>2025-09-08T08:45:36Z</time>
      </trkpt>
      <trkpt lat="46.14374" lon="4.42249">
        <ele>740</ele>
        <time>2025-09-08T08:45:37Z</time>
      </trkpt>
      <trkpt lat="46.14372" lon="4.42249">
        <ele>740</ele>
        <time>2025-09-08T08:45:38Z</time>
      </trkpt>
      <trkpt lat="46.1437" lon="4.42249">
        <ele>740.2</ele>
        <time>2025-09-08T08:45:39Z</time>
      </trkpt>
      <trkpt lat="46.14368" lon="4.42248">
        <ele>740.2</ele>
        <time>2025-09-08T08:45:40Z</time>
      </trkpt>
      <trkpt lat="46.14366" lon="4.42248">
        <ele>740.4</ele>
        <time>2025-09-08T08:45:41Z</time>
      </trkpt>
      <trkpt lat="46.14364" lon="4.42248">
        <ele>740.4</ele>
        <time>2025-09-08T08:45:42Z</time>
      </trkpt>
      <trkpt lat="46.14362" lon="4.42247">
        <ele>740.8</ele>
        <time>2025-09-08T08:45:43Z</time>
      </trkpt>
      <trkpt lat="46.14359" lon="4.42247">
        <ele>740.8</ele>
        <time>2025-09-08T08:45:44Z</time>
      </trkpt>
      <trkpt lat="46.14357" lon="4.42246">
        <ele>740.8</ele>
        <time>2025-09-08T08:45:45Z</time>
      </trkpt>
      <trkpt lat="46.14355" lon="4.42246">
        <ele>741</ele>
        <time>2025-09-08T08:45:46Z</time>
      </trkpt>
      <trkpt lat="46.14353" lon="4.42245">
        <ele>741</ele>
        <time>2025-09-08T08:45:47Z</time>
      </trkpt>
      <trkpt lat="46.14351" lon="4.42245">
        <ele>741</ele>
        <time>2025-09-08T08:45:48Z</time>
      </trkpt>
      <trkpt lat="46.14349" lon="4.42244">
        <ele>741</ele>
        <time>2025-09-08T08:45:49Z</time>
      </trkpt>
      <trkpt lat="46.14347" lon="4.42243">
        <ele>741.2</ele>
        <time>2025-09-08T08:45:50Z</time>
      </trkpt>
      <trkpt lat="46.14345" lon="4.42242">
        <ele>741.2</ele>
        <time>2025-09-08T08:45:51Z</time>
      </trkpt>
      <trkpt lat="46.14343" lon="4.42241">
        <ele>741.2</ele>
        <time>2025-09-08T08:45:52Z</time>
      </trkpt>
      <trkpt lat="46.1434" lon="4.4224">
        <ele>741.2</ele>
        <time>2025-09-08T08:45:53Z</time>
      </trkpt>
      <trkpt lat="46.14338" lon="4.42239">
        <ele>741.4</ele>
        <time>2025-09-08T08:45:54Z</time>
      </trkpt>
      <trkpt lat="46.14336" lon="4.42239">
        <ele>741.4</ele>
        <time>2025-09-08T08:45:55Z</time>
      </trkpt>
      <trkpt lat="46.14333" lon="4.42238">
        <ele>741.8</ele>
        <time>2025-09-08T08:45:56Z</time>
      </trkpt>
      <trkpt lat="46.14331" lon="4.42237">
        <ele>741.8</ele>
        <time>2025-09-08T08:45:57Z</time>
      </trkpt>
      <trkpt lat="46.14329" lon="4.42237">
        <ele>741.8</ele>
        <time>2025-09-08T08:45:58Z</time>
      </trkpt>
      <trkpt lat="46.14326" lon="4.42236">
        <ele>741.8</ele>
        <time>2025-09-08T08:45:59Z</time>
      </trkpt>
      <trkpt lat="46.14324" lon="4.42235">
        <ele>742.2</ele>
        <time>2025-09-08T08:46:00Z</time>
      </trkpt>
      <trkpt lat="46.14322" lon="4.42235">
        <ele>742.2</ele>
        <time>2025-09-08T08:46:01Z</time>
      </trkpt>
      <trkpt lat="46.1432" lon="4.42234">
        <ele>742.2</ele>
        <time>2025-09-08T08:46:02Z</time>
      </trkpt>
      <trkpt lat="46.14319" lon="4.42233">
        <ele>742.2</ele>
        <time>2025-09-08T08:46:03Z</time>
      </trkpt>
      <trkpt lat="46.14317" lon="4.42232">
        <ele>742.2</ele>
        <time>2025-09-08T08:46:04Z</time>
      </trkpt>
      <trkpt lat="46.14315" lon="4.42231">
        <ele>743</ele>
        <time>2025-09-08T08:46:05Z</time>
      </trkpt>
      <trkpt lat="46.14313" lon="4.4223">
        <ele>743</ele>
        <time>2025-09-08T08:46:06Z</time>
      </trkpt>
      <trkpt lat="46.1431" lon="4.42229">
        <ele>741.6</ele>
        <time>2025-09-08T08:46:07Z</time>
      </trkpt>
      <trkpt lat="46.14308" lon="4.42228">
        <ele>742.2</ele>
        <time>2025-09-08T08:46:08Z</time>
      </trkpt>
      <trkpt lat="46.14306" lon="4.42226">
        <ele>742.6</ele>
        <time>2025-09-08T08:46:09Z</time>
      </trkpt>
      <trkpt lat="46.14304" lon="4.42225">
        <ele>742.6</ele>
        <time>2025-09-08T08:46:10Z</time>
      </trkpt>
      <trkpt lat="46.14301" lon="4.42223">
        <ele>743.2</ele>
        <time>2025-09-08T08:46:11Z</time>
      </trkpt>
      <trkpt lat="46.14299" lon="4.42222">
        <ele>743.2</ele>
        <time>2025-09-08T08:46:12Z</time>
      </trkpt>
      <trkpt lat="46.14297" lon="4.42221">
        <ele>743.4</ele>
        <time>2025-09-08T08:46:13Z</time>
      </trkpt>
      <trkpt lat="46.14295" lon="4.4222">
        <ele>743.4</ele>
        <time>2025-09-08T08:46:14Z</time>
      </trkpt>
      <trkpt lat="46.14293" lon="4.42218">
        <ele>743.4</ele>
        <time>2025-09-08T08:46:15Z</time>
      </trkpt>
      <trkpt lat="46.14291" lon="4.42217">
        <ele>743.8</ele>
        <time>2025-09-08T08:46:16Z</time>
      </trkpt>
      <trkpt lat="46.14287" lon="4.42214">
        <ele>743.8</ele>
        <time>2025-09-08T08:46:17Z</time>
      </trkpt>
      <trkpt lat="46.14285" lon="4.42213">
        <ele>743.8</ele>
        <time>2025-09-08T08:46:18Z</time>
      </trkpt>
      <trkpt lat="46.14283" lon="4.42212">
        <ele>743.8</ele>
        <time>2025-09-08T08:46:19Z</time>
      </trkpt>
      <trkpt lat="46.14281" lon="4.42211">
        <ele>743.8</ele>
        <time>2025-09-08T08:46:20Z</time>
      </trkpt>
      <trkpt lat="46.14278" lon="4.42209">
        <ele>743.8</ele>
        <time>2025-09-08T08:46:21Z</time>
      </trkpt>
      <trkpt lat="46.14276" lon="4.42208">
        <ele>744.4</ele>
        <time>2025-09-08T08:46:22Z</time>
      </trkpt>
      <trkpt lat="46.14274" lon="4.42208">
        <ele>744.4</ele>
        <time>2025-09-08T08:46:23Z</time>
      </trkpt>
      <trkpt lat="46.14272" lon="4.42207">
        <ele>744.4</ele>
        <time>2025-09-08T08:46:24Z</time>
      </trkpt>
      <trkpt lat="46.1427" lon="4.42206">
        <ele>744.8</ele>
        <time>2025-09-08T08:46:25Z</time>
      </trkpt>
      <trkpt lat="46.14268" lon="4.42205">
        <ele>744.8</ele>
        <time>2025-09-08T08:46:26Z</time>
      </trkpt>
      <trkpt lat="46.14266" lon="4.42204">
        <ele>744.8</ele>
        <time>2025-09-08T08:46:27Z</time>
      </trkpt>
      <trkpt lat="46.14264" lon="4.42203">
        <ele>745.2</ele>
        <time>2025-09-08T08:46:28Z</time>
      </trkpt>
      <trkpt lat="46.14262" lon="4.42202">
        <ele>745.2</ele>
        <time>2025-09-08T08:46:29Z</time>
      </trkpt>
      <trkpt lat="46.1426" lon="4.422">
        <ele>745.4</ele>
        <time>2025-09-08T08:46:30Z</time>
      </trkpt>
      <trkpt lat="46.14258" lon="4.42199">
        <ele>745.4</ele>
        <time>2025-09-08T08:46:31Z</time>
      </trkpt>
      <trkpt lat="46.14256" lon="4.42198">
        <ele>745.4</ele>
        <time>2025-09-08T08:46:32Z</time>
      </trkpt>
      <trkpt lat="46.14254" lon="4.42197">
        <ele>745.6</ele>
        <time>2025-09-08T08:46:33Z</time>
      </trkpt>
      <trkpt lat="46.14252" lon="4.42195">
        <ele>745.6</ele>
        <time>2025-09-08T08:46:34Z</time>
      </trkpt>
      <trkpt lat="46.1425" lon="4.42193">
        <ele>745.6</ele>
        <time>2025-09-08T08:46:35Z</time>
      </trkpt>
      <trkpt lat="46.14249" lon="4.42192">
        <ele>745.6</ele>
        <time>2025-09-08T08:46:36Z</time>
      </trkpt>
      <trkpt lat="46.14247" lon="4.4219">
        <ele>745.6</ele>
        <time>2025-09-08T08:46:37Z</time>
      </trkpt>
      <trkpt lat="46.14245" lon="4.42188">
        <ele>745.8</ele>
        <time>2025-09-08T08:46:38Z</time>
      </trkpt>
      <trkpt lat="46.14243" lon="4.42187">
        <ele>745.8</ele>
        <time>2025-09-08T08:46:39Z</time>
      </trkpt>
      <trkpt lat="46.14242" lon="4.42185">
        <ele>745.8</ele>
        <time>2025-09-08T08:46:40Z</time>
      </trkpt>
      <trkpt lat="46.1424" lon="4.42183">
        <ele>745.8</ele>
        <time>2025-09-08T08:46:41Z</time>
      </trkpt>
      <trkpt lat="46.14238" lon="4.42181">
        <ele>746.2</ele>
        <time>2025-09-08T08:46:42Z</time>
      </trkpt>
      <trkpt lat="46.14237" lon="4.42179">
        <ele>746.2</ele>
        <time>2025-09-08T08:46:43Z</time>
      </trkpt>
      <trkpt lat="46.14235" lon="4.42177">
        <ele>746.4</ele>
        <time>2025-09-08T08:46:44Z</time>
      </trkpt>
      <trkpt lat="46.14234" lon="4.42175">
        <ele>746.6</ele>
        <time>2025-09-08T08:46:45Z</time>
      </trkpt>
      <trkpt lat="46.14232" lon="4.42173">
        <ele>746.6</ele>
        <time>2025-09-08T08:46:46Z</time>
      </trkpt>
      <trkpt lat="46.14231" lon="4.42171">
        <ele>746.6</ele>
        <time>2025-09-08T08:46:47Z</time>
      </trkpt>
      <trkpt lat="46.14229" lon="4.42169">
        <ele>746.8</ele>
        <time>2025-09-08T08:46:48Z</time>
      </trkpt>
      <trkpt lat="46.14229" lon="4.42169">
        <ele>746.8</ele>
        <time>2025-09-08T08:46:49Z</time>
      </trkpt>
      <trkpt lat="46.14229" lon="4.42169">
        <ele>747</ele>
        <time>2025-09-08T08:46:50Z</time>
      </trkpt>
      <trkpt lat="46.14229" lon="4.42169">
        <ele>747</ele>
        <time>2025-09-08T08:46:51Z</time>
      </trkpt>
      <trkpt lat="46.14222" lon="4.42156">
        <ele>747.2</ele>
        <time>2025-09-08T08:46:53Z</time>
      </trkpt>
      <trkpt lat="46.1422" lon="4.42153">
        <ele>747.4</ele>
        <time>2025-09-08T08:46:54Z</time>
      </trkpt>
      <trkpt lat="46.14219" lon="4.42151">
        <ele>747.4</ele>
        <time>2025-09-08T08:46:55Z</time>
      </trkpt>
      <trkpt lat="46.14217" lon="4.42149">
        <ele>747.8</ele>
        <time>2025-09-08T08:46:56Z</time>
      </trkpt>
      <trkpt lat="46.14216" lon="4.42147">
        <ele>747.8</ele>
        <time>2025-09-08T08:46:57Z</time>
      </trkpt>
      <trkpt lat="46.14216" lon="4.42144">
        <ele>748</ele>
        <time>2025-09-08T08:46:58Z</time>
      </trkpt>
      <trkpt lat="46.14215" lon="4.42142">
        <ele>748</ele>
        <time>2025-09-08T08:46:59Z</time>
      </trkpt>
      <trkpt lat="46.14215" lon="4.42139">
        <ele>748.4</ele>
        <time>2025-09-08T08:47:00Z</time>
      </trkpt>
      <trkpt lat="46.14216" lon="4.42137">
        <ele>748.4</ele>
        <time>2025-09-08T08:47:01Z</time>
      </trkpt>
      <trkpt lat="46.14216" lon="4.42134">
        <ele>748.4</ele>
        <time>2025-09-08T08:47:02Z</time>
      </trkpt>
      <trkpt lat="46.14218" lon="4.42132">
        <ele>748.4</ele>
        <time>2025-09-08T08:47:03Z</time>
      </trkpt>
      <trkpt lat="46.14219" lon="4.42131">
        <ele>748.4</ele>
        <time>2025-09-08T08:47:04Z</time>
      </trkpt>
      <trkpt lat="46.1422" lon="4.42129">
        <ele>748.4</ele>
        <time>2025-09-08T08:47:05Z</time>
      </trkpt>
      <trkpt lat="46.1422" lon="4.42128">
        <ele>748.4</ele>
        <time>2025-09-08T08:47:06Z</time>
      </trkpt>
      <trkpt lat="46.14221" lon="4.42126">
        <ele>748.4</ele>
        <time>2025-09-08T08:47:07Z</time>
      </trkpt>
      <trkpt lat="46.14221" lon="4.42125">
        <ele>748.4</ele>
        <time>2025-09-08T08:47:08Z</time>
      </trkpt>
      <trkpt lat="46.14222" lon="4.42124">
        <ele>748.4</ele>
        <time>2025-09-08T08:47:09Z</time>
      </trkpt>
      <trkpt lat="46.14223" lon="4.42122">
        <ele>748.4</ele>
        <time>2025-09-08T08:47:10Z</time>
      </trkpt>
      <trkpt lat="46.14223" lon="4.42121">
        <ele>748.4</ele>
        <time>2025-09-08T08:47:11Z</time>
      </trkpt>
      <trkpt lat="46.14222" lon="4.4212">
        <ele>748.4</ele>
        <time>2025-09-08T08:47:12Z</time>
      </trkpt>
      <trkpt lat="46.14222" lon="4.42119">
        <ele>748.4</ele>
        <time>2025-09-08T08:47:13Z</time>
      </trkpt>
      <trkpt lat="46.14221" lon="4.42119">
        <ele>748.6</ele>
        <time>2025-09-08T08:47:14Z</time>
      </trkpt>
      <trkpt lat="46.14221" lon="4.42114">
        <ele>748.6</ele>
        <time>2025-09-08T08:47:25Z</time>
      </trkpt>
      <trkpt lat="46.14222" lon="4.42111">
        <ele>748.4</ele>
        <time>2025-09-08T08:47:26Z</time>
      </trkpt>
      <trkpt lat="46.14223" lon="4.42109">
        <ele>748.4</ele>
        <time>2025-09-08T08:47:27Z</time>
      </trkpt>
      <trkpt lat="46.14223" lon="4.42106">
        <ele>748.4</ele>
        <time>2025-09-08T08:47:28Z</time>
      </trkpt>
      <trkpt lat="46.14224" lon="4.42103">
        <ele>748.4</ele>
        <time>2025-09-08T08:47:29Z</time>
      </trkpt>
      <trkpt lat="46.14226" lon="4.421">
        <ele>748.4</ele>
        <time>2025-09-08T08:47:30Z</time>
      </trkpt>
      <trkpt lat="46.14227" lon="4.42097">
        <ele>748.2</ele>
        <time>2025-09-08T08:47:31Z</time>
      </trkpt>
      <trkpt lat="46.14228" lon="4.42094">
        <ele>748.2</ele>
        <time>2025-09-08T08:47:32Z</time>
      </trkpt>
      <trkpt lat="46.14229" lon="4.42091">
        <ele>748.2</ele>
        <time>2025-09-08T08:47:33Z</time>
      </trkpt>
      <trkpt lat="46.14228" lon="4.42088">
        <ele>748.2</ele>
        <time>2025-09-08T08:47:34Z</time>
      </trkpt>
      <trkpt lat="46.14228" lon="4.42085">
        <ele>748.4</ele>
        <time>2025-09-08T08:47:35Z</time>
      </trkpt>
      <trkpt lat="46.14228" lon="4.42082">
        <ele>748.4</ele>
        <time>2025-09-08T08:47:36Z</time>
      </trkpt>
      <trkpt lat="46.14229" lon="4.42079">
        <ele>748.4</ele>
        <time>2025-09-08T08:47:37Z</time>
      </trkpt>
      <trkpt lat="46.14229" lon="4.42076">
        <ele>748.4</ele>
        <time>2025-09-08T08:47:38Z</time>
      </trkpt>
      <trkpt lat="46.1423" lon="4.42072">
        <ele>748.4</ele>
        <time>2025-09-08T08:47:39Z</time>
      </trkpt>
      <trkpt lat="46.1423" lon="4.42068">
        <ele>748.4</ele>
        <time>2025-09-08T08:47:40Z</time>
      </trkpt>
      <trkpt lat="46.1423" lon="4.42064">
        <ele>748.4</ele>
        <time>2025-09-08T08:47:41Z</time>
      </trkpt>
      <trkpt lat="46.14229" lon="4.42061">
        <ele>748.4</ele>
        <time>2025-09-08T08:47:42Z</time>
      </trkpt>
      <trkpt lat="46.14229" lon="4.42058">
        <ele>748.4</ele>
        <time>2025-09-08T08:47:43Z</time>
      </trkpt>
      <trkpt lat="46.1423" lon="4.42055">
        <ele>748.4</ele>
        <time>2025-09-08T08:47:44Z</time>
      </trkpt>
      <trkpt lat="46.1423" lon="4.42053">
        <ele>748.4</ele>
        <time>2025-09-08T08:47:45Z</time>
      </trkpt>
      <trkpt lat="46.1423" lon="4.4205">
        <ele>748.4</ele>
        <time>2025-09-08T08:47:46Z</time>
      </trkpt>
      <trkpt lat="46.14229" lon="4.42048">
        <ele>748.4</ele>
        <time>2025-09-08T08:47:47Z</time>
      </trkpt>
      <trkpt lat="46.14228" lon="4.42045">
        <ele>748.2</ele>
        <time>2025-09-08T08:47:48Z</time>
      </trkpt>
      <trkpt lat="46.14228" lon="4.42042">
        <ele>748.2</ele>
        <time>2025-09-08T08:47:49Z</time>
      </trkpt>
      <trkpt lat="46.14228" lon="4.42042">
        <ele>748.2</ele>
        <time>2025-09-08T08:47:50Z</time>
      </trkpt>
      <trkpt lat="46.14227" lon="4.4204">
        <ele>748.2</ele>
        <time>2025-09-08T08:47:51Z</time>
      </trkpt>
      <trkpt lat="46.14227" lon="4.42038">
        <ele>748.2</ele>
        <time>2025-09-08T08:47:52Z</time>
      </trkpt>
      <trkpt lat="46.14227" lon="4.42037">
        <ele>748.2</ele>
        <time>2025-09-08T08:47:53Z</time>
      </trkpt>
      <trkpt lat="46.14226" lon="4.42035">
        <ele>748.2</ele>
        <time>2025-09-08T08:47:54Z</time>
      </trkpt>
      <trkpt lat="46.14226" lon="4.42032">
        <ele>748.2</ele>
        <time>2025-09-08T08:47:55Z</time>
      </trkpt>
      <trkpt lat="46.14226" lon="4.4203">
        <ele>748.2</ele>
        <time>2025-09-08T08:47:56Z</time>
      </trkpt>
      <trkpt lat="46.14226" lon="4.42028">
        <ele>748.2</ele>
        <time>2025-09-08T08:47:57Z</time>
      </trkpt>
      <trkpt lat="46.14226" lon="4.42026">
        <ele>748.2</ele>
        <time>2025-09-08T08:47:58Z</time>
      </trkpt>
      <trkpt lat="46.14226" lon="4.42023">
        <ele>748.2</ele>
        <time>2025-09-08T08:47:59Z</time>
      </trkpt>
      <trkpt lat="46.14226" lon="4.42021">
        <ele>748.2</ele>
        <time>2025-09-08T08:48:00Z</time>
      </trkpt>
      <trkpt lat="46.14226" lon="4.42018">
        <ele>748.2</ele>
        <time>2025-09-08T08:48:01Z</time>
      </trkpt>
      <trkpt lat="46.14226" lon="4.42015">
        <ele>748.2</ele>
        <time>2025-09-08T08:48:02Z</time>
      </trkpt>
      <trkpt lat="46.14226" lon="4.42012">
        <ele>748</ele>
        <time>2025-09-08T08:48:03Z</time>
      </trkpt>
      <trkpt lat="46.14225" lon="4.42009">
        <ele>748</ele>
        <time>2025-09-08T08:48:04Z</time>
      </trkpt>
      <trkpt lat="46.14225" lon="4.42004">
        <ele>748</ele>
        <time>2025-09-08T08:48:05Z</time>
      </trkpt>
      <trkpt lat="46.14224" lon="4.41999">
        <ele>748</ele>
        <time>2025-09-08T08:48:06Z</time>
      </trkpt>
      <trkpt lat="46.14224" lon="4.41994">
        <ele>748</ele>
        <time>2025-09-08T08:48:07Z</time>
      </trkpt>
      <trkpt lat="46.14224" lon="4.41989">
        <ele>748</ele>
        <time>2025-09-08T08:48:08Z</time>
      </trkpt>
      <trkpt lat="46.14224" lon="4.41984">
        <ele>747.6</ele>
        <time>2025-09-08T08:48:09Z</time>
      </trkpt>
      <trkpt lat="46.14223" lon="4.41979">
        <ele>747.6</ele>
        <time>2025-09-08T08:48:10Z</time>
      </trkpt>
      <trkpt lat="46.14223" lon="4.41974">
        <ele>747.6</ele>
        <time>2025-09-08T08:48:11Z</time>
      </trkpt>
      <trkpt lat="46.14222" lon="4.41969">
        <ele>747.6</ele>
        <time>2025-09-08T08:48:12Z</time>
      </trkpt>
      <trkpt lat="46.14222" lon="4.41965">
        <ele>747.6</ele>
        <time>2025-09-08T08:48:13Z</time>
      </trkpt>
      <trkpt lat="46.14221" lon="4.4196">
        <ele>747.4</ele>
        <time>2025-09-08T08:48:14Z</time>
      </trkpt>
      <trkpt lat="46.1422" lon="4.41955">
        <ele>747.4</ele>
        <time>2025-09-08T08:48:15Z</time>
      </trkpt>
      <trkpt lat="46.1422" lon="4.4195">
        <ele>747.2</ele>
        <time>2025-09-08T08:48:16Z</time>
      </trkpt>
      <trkpt lat="46.14219" lon="4.41945">
        <ele>747.2</ele>
        <time>2025-09-08T08:48:17Z</time>
      </trkpt>
      <trkpt lat="46.14219" lon="4.41941">
        <ele>747.2</ele>
        <time>2025-09-08T08:48:18Z</time>
      </trkpt>
      <trkpt lat="46.14218" lon="4.41937">
        <ele>747.8</ele>
        <time>2025-09-08T08:48:19Z</time>
      </trkpt>
      <trkpt lat="46.14218" lon="4.41932">
        <ele>747.8</ele>
        <time>2025-09-08T08:48:20Z</time>
      </trkpt>
      <trkpt lat="46.14218" lon="4.41927">
        <ele>747.4</ele>
        <time>2025-09-08T08:48:21Z</time>
      </trkpt>
      <trkpt lat="46.14218" lon="4.41923">
        <ele>747.4</ele>
        <time>2025-09-08T08:48:22Z</time>
      </trkpt>
      <trkpt lat="46.14217" lon="4.41919">
        <ele>747</ele>
        <time>2025-09-08T08:48:23Z</time>
      </trkpt>
      <trkpt lat="46.14216" lon="4.41914">
        <ele>747</ele>
        <time>2025-09-08T08:48:24Z</time>
      </trkpt>
      <trkpt lat="46.14215" lon="4.41911">
        <ele>747</ele>
        <time>2025-09-08T08:48:25Z</time>
      </trkpt>
      <trkpt lat="46.14215" lon="4.41907">
        <ele>747</ele>
        <time>2025-09-08T08:48:26Z</time>
      </trkpt>
      <trkpt lat="46.14215" lon="4.41903">
        <ele>747</ele>
        <time>2025-09-08T08:48:27Z</time>
      </trkpt>
      <trkpt lat="46.14216" lon="4.41899">
        <ele>747</ele>
        <time>2025-09-08T08:48:28Z</time>
      </trkpt>
      <trkpt lat="46.14215" lon="4.41895">
        <ele>746.8</ele>
        <time>2025-09-08T08:48:29Z</time>
      </trkpt>
      <trkpt lat="46.14215" lon="4.4189">
        <ele>746.8</ele>
        <time>2025-09-08T08:48:30Z</time>
      </trkpt>
      <trkpt lat="46.14215" lon="4.41887">
        <ele>747</ele>
        <time>2025-09-08T08:48:31Z</time>
      </trkpt>
      <trkpt lat="46.14215" lon="4.41884">
        <ele>747</ele>
        <time>2025-09-08T08:48:32Z</time>
      </trkpt>
      <trkpt lat="46.14214" lon="4.4188">
        <ele>747</ele>
        <time>2025-09-08T08:48:33Z</time>
      </trkpt>
      <trkpt lat="46.14214" lon="4.41877">
        <ele>747</ele>
        <time>2025-09-08T08:48:34Z</time>
      </trkpt>
      <trkpt lat="46.14214" lon="4.41873">
        <ele>747</ele>
        <time>2025-09-08T08:48:35Z</time>
      </trkpt>
      <trkpt lat="46.14215" lon="4.4187">
        <ele>746.6</ele>
        <time>2025-09-08T08:48:36Z</time>
      </trkpt>
      <trkpt lat="46.14215" lon="4.41866">
        <ele>747</ele>
        <time>2025-09-08T08:48:37Z</time>
      </trkpt>
      <trkpt lat="46.14216" lon="4.41861">
        <ele>746.8</ele>
        <time>2025-09-08T08:48:38Z</time>
      </trkpt>
      <trkpt lat="46.14216" lon="4.41858">
        <ele>746.8</ele>
        <time>2025-09-08T08:48:39Z</time>
      </trkpt>
      <trkpt lat="46.14217" lon="4.41853">
        <ele>746.4</ele>
        <time>2025-09-08T08:48:40Z</time>
      </trkpt>
      <trkpt lat="46.14218" lon="4.41849">
        <ele>747.2</ele>
        <time>2025-09-08T08:48:41Z</time>
      </trkpt>
      <trkpt lat="46.14218" lon="4.41846">
        <ele>747.2</ele>
        <time>2025-09-08T08:48:42Z</time>
      </trkpt>
      <trkpt lat="46.14219" lon="4.41843">
        <ele>746.8</ele>
        <time>2025-09-08T08:48:43Z</time>
      </trkpt>
      <trkpt lat="46.1422" lon="4.4184">
        <ele>746.8</ele>
        <time>2025-09-08T08:48:44Z</time>
      </trkpt>
      <trkpt lat="46.14221" lon="4.41836">
        <ele>746.8</ele>
        <time>2025-09-08T08:48:45Z</time>
      </trkpt>
      <trkpt lat="46.14221" lon="4.41833">
        <ele>746.8</ele>
        <time>2025-09-08T08:48:46Z</time>
      </trkpt>
      <trkpt lat="46.14221" lon="4.4183">
        <ele>747.2</ele>
        <time>2025-09-08T08:48:47Z</time>
      </trkpt>
      <trkpt lat="46.1422" lon="4.41827">
        <ele>747.2</ele>
        <time>2025-09-08T08:48:48Z</time>
      </trkpt>
      <trkpt lat="46.1422" lon="4.41824">
        <ele>747.2</ele>
        <time>2025-09-08T08:48:49Z</time>
      </trkpt>
      <trkpt lat="46.14219" lon="4.41821">
        <ele>747.2</ele>
        <time>2025-09-08T08:48:50Z</time>
      </trkpt>
      <trkpt lat="46.14219" lon="4.41817">
        <ele>747.2</ele>
        <time>2025-09-08T08:48:51Z</time>
      </trkpt>
      <trkpt lat="46.14219" lon="4.41813">
        <ele>747.2</ele>
        <time>2025-09-08T08:48:52Z</time>
      </trkpt>
      <trkpt lat="46.14219" lon="4.4181">
        <ele>747.6</ele>
        <time>2025-09-08T08:48:53Z</time>
      </trkpt>
      <trkpt lat="46.1422" lon="4.41806">
        <ele>747.6</ele>
        <time>2025-09-08T08:48:54Z</time>
      </trkpt>
      <trkpt lat="46.1422" lon="4.41802">
        <ele>747.6</ele>
        <time>2025-09-08T08:48:55Z</time>
      </trkpt>
      <trkpt lat="46.1422" lon="4.41799">
        <ele>747.8</ele>
        <time>2025-09-08T08:48:56Z</time>
      </trkpt>
      <trkpt lat="46.14221" lon="4.41795">
        <ele>747.8</ele>
        <time>2025-09-08T08:48:57Z</time>
      </trkpt>
      <trkpt lat="46.14221" lon="4.41791">
        <ele>748</ele>
        <time>2025-09-08T08:48:58Z</time>
      </trkpt>
      <trkpt lat="46.14222" lon="4.41789">
        <ele>748</ele>
        <time>2025-09-08T08:48:59Z</time>
      </trkpt>
      <trkpt lat="46.14223" lon="4.41786">
        <ele>748</ele>
        <time>2025-09-08T08:49:00Z</time>
      </trkpt>
      <trkpt lat="46.14223" lon="4.41784">
        <ele>748</ele>
        <time>2025-09-08T08:49:01Z</time>
      </trkpt>
      <trkpt lat="46.14224" lon="4.41781">
        <ele>748</ele>
        <time>2025-09-08T08:49:02Z</time>
      </trkpt>
      <trkpt lat="46.14223" lon="4.41777">
        <ele>748</ele>
        <time>2025-09-08T08:49:03Z</time>
      </trkpt>
      <trkpt lat="46.14223" lon="4.41774">
        <ele>748.4</ele>
        <time>2025-09-08T08:49:04Z</time>
      </trkpt>
      <trkpt lat="46.14222" lon="4.41772">
        <ele>748.4</ele>
        <time>2025-09-08T08:49:05Z</time>
      </trkpt>
      <trkpt lat="46.14222" lon="4.4177">
        <ele>748.6</ele>
        <time>2025-09-08T08:49:06Z</time>
      </trkpt>
      <trkpt lat="46.14222" lon="4.41768">
        <ele>748.6</ele>
        <time>2025-09-08T08:49:07Z</time>
      </trkpt>
      <trkpt lat="46.14222" lon="4.41766">
        <ele>748.6</ele>
        <time>2025-09-08T08:49:08Z</time>
      </trkpt>
      <trkpt lat="46.14221" lon="4.41764">
        <ele>749</ele>
        <time>2025-09-08T08:49:09Z</time>
      </trkpt>
      <trkpt lat="46.14221" lon="4.41762">
        <ele>749</ele>
        <time>2025-09-08T08:49:10Z</time>
      </trkpt>
      <trkpt lat="46.14221" lon="4.4176">
        <ele>749</ele>
        <time>2025-09-08T08:49:11Z</time>
      </trkpt>
      <trkpt lat="46.14221" lon="4.41759">
        <ele>749.4</ele>
        <time>2025-09-08T08:49:12Z</time>
      </trkpt>
      <trkpt lat="46.14221" lon="4.41758">
        <ele>749.4</ele>
        <time>2025-09-08T08:49:13Z</time>
      </trkpt>
      <trkpt lat="46.14221" lon="4.41756">
        <ele>749.8</ele>
        <time>2025-09-08T08:49:14Z</time>
      </trkpt>
      <trkpt lat="46.14221" lon="4.41754">
        <ele>749.8</ele>
        <time>2025-09-08T08:49:15Z</time>
      </trkpt>
      <trkpt lat="46.1422" lon="4.41752">
        <ele>750.2</ele>
        <time>2025-09-08T08:49:16Z</time>
      </trkpt>
      <trkpt lat="46.14219" lon="4.4175">
        <ele>750.2</ele>
        <time>2025-09-08T08:49:17Z</time>
      </trkpt>
      <trkpt lat="46.14219" lon="4.41748">
        <ele>750.2</ele>
        <time>2025-09-08T08:49:18Z</time>
      </trkpt>
      <trkpt lat="46.14219" lon="4.41746">
        <ele>750.6</ele>
        <time>2025-09-08T08:49:19Z</time>
      </trkpt>
      <trkpt lat="46.14219" lon="4.41744">
        <ele>751</ele>
        <time>2025-09-08T08:49:20Z</time>
      </trkpt>
      <trkpt lat="46.14218" lon="4.41742">
        <ele>751.2</ele>
        <time>2025-09-08T08:49:21Z</time>
      </trkpt>
      <trkpt lat="46.14217" lon="4.4174">
        <ele>751.2</ele>
        <time>2025-09-08T08:49:22Z</time>
      </trkpt>
      <trkpt lat="46.14217" lon="4.41738">
        <ele>751.4</ele>
        <time>2025-09-08T08:49:23Z</time>
      </trkpt>
      <trkpt lat="46.14216" lon="4.41737">
        <ele>751.8</ele>
        <time>2025-09-08T08:49:24Z</time>
      </trkpt>
      <trkpt lat="46.14216" lon="4.41735">
        <ele>751.8</ele>
        <time>2025-09-08T08:49:25Z</time>
      </trkpt>
      <trkpt lat="46.14216" lon="4.41733">
        <ele>752</ele>
        <time>2025-09-08T08:49:26Z</time>
      </trkpt>
      <trkpt lat="46.14216" lon="4.41733">
        <ele>752</ele>
        <time>2025-09-08T08:49:27Z</time>
      </trkpt>
      <trkpt lat="46.14216" lon="4.41733">
        <ele>752</ele>
        <time>2025-09-08T08:49:28Z</time>
      </trkpt>
      <trkpt lat="46.14215" lon="4.41731">
        <ele>752</ele>
        <time>2025-09-08T08:49:29Z</time>
      </trkpt>
      <trkpt lat="46.14214" lon="4.41729">
        <ele>752.4</ele>
        <time>2025-09-08T08:49:30Z</time>
      </trkpt>
      <trkpt lat="46.14213" lon="4.41728">
        <ele>752.4</ele>
        <time>2025-09-08T08:49:31Z</time>
      </trkpt>
      <trkpt lat="46.14213" lon="4.41726">
        <ele>752.6</ele>
        <time>2025-09-08T08:49:32Z</time>
      </trkpt>
      <trkpt lat="46.14213" lon="4.41724">
        <ele>752.6</ele>
        <time>2025-09-08T08:49:33Z</time>
      </trkpt>
      <trkpt lat="46.14213" lon="4.41722">
        <ele>752.6</ele>
        <time>2025-09-08T08:49:34Z</time>
      </trkpt>
      <trkpt lat="46.14213" lon="4.41721">
        <ele>753</ele>
        <time>2025-09-08T08:49:35Z</time>
      </trkpt>
      <trkpt lat="46.14213" lon="4.41719">
        <ele>753</ele>
        <time>2025-09-08T08:49:36Z</time>
      </trkpt>
      <trkpt lat="46.14214" lon="4.41717">
        <ele>753.2</ele>
        <time>2025-09-08T08:49:37Z</time>
      </trkpt>
      <trkpt lat="46.14214" lon="4.41715">
        <ele>753.2</ele>
        <time>2025-09-08T08:49:38Z</time>
      </trkpt>
      <trkpt lat="46.14215" lon="4.41713">
        <ele>753.6</ele>
        <time>2025-09-08T08:49:39Z</time>
      </trkpt>
      <trkpt lat="46.14215" lon="4.41711">
        <ele>753.6</ele>
        <time>2025-09-08T08:49:40Z</time>
      </trkpt>
      <trkpt lat="46.14216" lon="4.4171">
        <ele>753.8</ele>
        <time>2025-09-08T08:49:41Z</time>
      </trkpt>
      <trkpt lat="46.14216" lon="4.4171">
        <ele>754</ele>
        <time>2025-09-08T08:49:42Z</time>
      </trkpt>
      <trkpt lat="46.14215" lon="4.41709">
        <ele>754</ele>
        <time>2025-09-08T08:49:43Z</time>
      </trkpt>
      <trkpt lat="46.14215" lon="4.41707">
        <ele>754</ele>
        <time>2025-09-08T08:49:44Z</time>
      </trkpt>
      <trkpt lat="46.14214" lon="4.41706">
        <ele>754</ele>
        <time>2025-09-08T08:49:45Z</time>
      </trkpt>
      <trkpt lat="46.14213" lon="4.41704">
        <ele>754.4</ele>
        <time>2025-09-08T08:49:46Z</time>
      </trkpt>
      <trkpt lat="46.14211" lon="4.41702">
        <ele>754.4</ele>
        <time>2025-09-08T08:49:47Z</time>
      </trkpt>
      <trkpt lat="46.1421" lon="4.417">
        <ele>754.8</ele>
        <time>2025-09-08T08:49:48Z</time>
      </trkpt>
      <trkpt lat="46.14208" lon="4.41698">
        <ele>754.8</ele>
        <time>2025-09-08T08:49:49Z</time>
      </trkpt>
      <trkpt lat="46.14208" lon="4.41696">
        <ele>753.8</ele>
        <time>2025-09-08T08:49:50Z</time>
      </trkpt>
      <trkpt lat="46.14207" lon="4.41694">
        <ele>754.2</ele>
        <time>2025-09-08T08:49:51Z</time>
      </trkpt>
      <trkpt lat="46.14206" lon="4.41692">
        <ele>754.4</ele>
        <time>2025-09-08T08:49:52Z</time>
      </trkpt>
      <trkpt lat="46.14206" lon="4.4169">
        <ele>754.6</ele>
        <time>2025-09-08T08:49:53Z</time>
      </trkpt>
      <trkpt lat="46.14206" lon="4.41687">
        <ele>754.6</ele>
        <time>2025-09-08T08:49:54Z</time>
      </trkpt>
      <trkpt lat="46.14205" lon="4.41685">
        <ele>754.6</ele>
        <time>2025-09-08T08:49:55Z</time>
      </trkpt>
      <trkpt lat="46.14205" lon="4.41683">
        <ele>755.4</ele>
        <time>2025-09-08T08:49:56Z</time>
      </trkpt>
      <trkpt lat="46.14204" lon="4.41681">
        <ele>756</ele>
        <time>2025-09-08T08:49:57Z</time>
      </trkpt>
      <trkpt lat="46.14203" lon="4.41679">
        <ele>756</ele>
        <time>2025-09-08T08:49:58Z</time>
      </trkpt>
      <trkpt lat="46.14202" lon="4.41678">
        <ele>756</ele>
        <time>2025-09-08T08:49:59Z</time>
      </trkpt>
      <trkpt lat="46.142" lon="4.41676">
        <ele>755.6</ele>
        <time>2025-09-08T08:50:00Z</time>
      </trkpt>
      <trkpt lat="46.14199" lon="4.41675">
        <ele>755.6</ele>
        <time>2025-09-08T08:50:01Z</time>
      </trkpt>
      <trkpt lat="46.14197" lon="4.41674">
        <ele>755.6</ele>
        <time>2025-09-08T08:50:02Z</time>
      </trkpt>
      <trkpt lat="46.14196" lon="4.41673">
        <ele>755.6</ele>
        <time>2025-09-08T08:50:03Z</time>
      </trkpt>
      <trkpt lat="46.14194" lon="4.41671">
        <ele>755.6</ele>
        <time>2025-09-08T08:50:04Z</time>
      </trkpt>
      <trkpt lat="46.14193" lon="4.41669">
        <ele>755.6</ele>
        <time>2025-09-08T08:50:05Z</time>
      </trkpt>
      <trkpt lat="46.14191" lon="4.41667">
        <ele>755.6</ele>
        <time>2025-09-08T08:50:06Z</time>
      </trkpt>
      <trkpt lat="46.14189" lon="4.41663">
        <ele>755.6</ele>
        <time>2025-09-08T08:50:07Z</time>
      </trkpt>
      <trkpt lat="46.14188" lon="4.41661">
        <ele>755.6</ele>
        <time>2025-09-08T08:50:08Z</time>
      </trkpt>
      <trkpt lat="46.14187" lon="4.41659">
        <ele>755.6</ele>
        <time>2025-09-08T08:50:09Z</time>
      </trkpt>
      <trkpt lat="46.14184" lon="4.41656">
        <ele>755.6</ele>
        <time>2025-09-08T08:50:10Z</time>
      </trkpt>
      <trkpt lat="46.14182" lon="4.41654">
        <ele>755.6</ele>
        <time>2025-09-08T08:50:11Z</time>
      </trkpt>
      <trkpt lat="46.1418" lon="4.41652">
        <ele>755.6</ele>
        <time>2025-09-08T08:50:12Z</time>
      </trkpt>
      <trkpt lat="46.14178" lon="4.4165">
        <ele>755.6</ele>
        <time>2025-09-08T08:50:13Z</time>
      </trkpt>
      <trkpt lat="46.14176" lon="4.41648">
        <ele>755.6</ele>
        <time>2025-09-08T08:50:14Z</time>
      </trkpt>
      <trkpt lat="46.14173" lon="4.41645">
        <ele>755.6</ele>
        <time>2025-09-08T08:50:15Z</time>
      </trkpt>
      <trkpt lat="46.14171" lon="4.41642">
        <ele>755.6</ele>
        <time>2025-09-08T08:50:16Z</time>
      </trkpt>
      <trkpt lat="46.14169" lon="4.41639">
        <ele>755.6</ele>
        <time>2025-09-08T08:50:17Z</time>
      </trkpt>
      <trkpt lat="46.14167" lon="4.41637">
        <ele>755.4</ele>
        <time>2025-09-08T08:50:18Z</time>
      </trkpt>
      <trkpt lat="46.14165" lon="4.41633">
        <ele>755.4</ele>
        <time>2025-09-08T08:50:19Z</time>
      </trkpt>
      <trkpt lat="46.14163" lon="4.4163">
        <ele>755.4</ele>
        <time>2025-09-08T08:50:20Z</time>
      </trkpt>
      <trkpt lat="46.14157" lon="4.41625">
        <ele>755.4</ele>
        <time>2025-09-08T08:50:21Z</time>
      </trkpt>
      <trkpt lat="46.14155" lon="4.41622">
        <ele>755.6</ele>
        <time>2025-09-08T08:50:22Z</time>
      </trkpt>
      <trkpt lat="46.14153" lon="4.41618">
        <ele>755.6</ele>
        <time>2025-09-08T08:50:23Z</time>
      </trkpt>
      <trkpt lat="46.14152" lon="4.41614">
        <ele>755</ele>
        <time>2025-09-08T08:50:24Z</time>
      </trkpt>
      <trkpt lat="46.14149" lon="4.41609">
        <ele>755</ele>
        <time>2025-09-08T08:50:25Z</time>
      </trkpt>
      <trkpt lat="46.14147" lon="4.41604">
        <ele>755</ele>
        <time>2025-09-08T08:50:26Z</time>
      </trkpt>
      <trkpt lat="46.14146" lon="4.41601">
        <ele>754.4</ele>
        <time>2025-09-08T08:50:27Z</time>
      </trkpt>
      <trkpt lat="46.14145" lon="4.41599">
        <ele>754.2</ele>
        <time>2025-09-08T08:50:28Z</time>
      </trkpt>
      <trkpt lat="46.14143" lon="4.41594">
        <ele>754.2</ele>
        <time>2025-09-08T08:50:29Z</time>
      </trkpt>
      <trkpt lat="46.14141" lon="4.41589">
        <ele>754.2</ele>
        <time>2025-09-08T08:50:30Z</time>
      </trkpt>
      <trkpt lat="46.14139" lon="4.41586">
        <ele>754.2</ele>
        <time>2025-09-08T08:50:31Z</time>
      </trkpt>
      <trkpt lat="46.14135" lon="4.41582">
        <ele>754.2</ele>
        <time>2025-09-08T08:50:32Z</time>
      </trkpt>
      <trkpt lat="46.14133" lon="4.41581">
        <ele>754.2</ele>
        <time>2025-09-08T08:50:33Z</time>
      </trkpt>
      <trkpt lat="46.14132" lon="4.4158">
        <ele>754.2</ele>
        <time>2025-09-08T08:50:34Z</time>
      </trkpt>
      <trkpt lat="46.14129" lon="4.41579">
        <ele>754.2</ele>
        <time>2025-09-08T08:50:35Z</time>
      </trkpt>
      <trkpt lat="46.14126" lon="4.41578">
        <ele>754.2</ele>
        <time>2025-09-08T08:50:36Z</time>
      </trkpt>
      <trkpt lat="46.14122" lon="4.41575">
        <ele>754.2</ele>
        <time>2025-09-08T08:50:37Z</time>
      </trkpt>
      <trkpt lat="46.14119" lon="4.41574">
        <ele>754.2</ele>
        <time>2025-09-08T08:50:38Z</time>
      </trkpt>
      <trkpt lat="46.14114" lon="4.41572">
        <ele>754.2</ele>
        <time>2025-09-08T08:50:39Z</time>
      </trkpt>
      <trkpt lat="46.1411" lon="4.41572">
        <ele>754.4</ele>
        <time>2025-09-08T08:50:40Z</time>
      </trkpt>
      <trkpt lat="46.14107" lon="4.41572">
        <ele>754.4</ele>
        <time>2025-09-08T08:50:41Z</time>
      </trkpt>
      <trkpt lat="46.14104" lon="4.41571">
        <ele>754.4</ele>
        <time>2025-09-08T08:50:42Z</time>
      </trkpt>
      <trkpt lat="46.141" lon="4.4157">
        <ele>754.4</ele>
        <time>2025-09-08T08:50:43Z</time>
      </trkpt>
      <trkpt lat="46.14098" lon="4.4157">
        <ele>754.4</ele>
        <time>2025-09-08T08:50:44Z</time>
      </trkpt>
      <trkpt lat="46.14095" lon="4.41569">
        <ele>754.4</ele>
        <time>2025-09-08T08:50:45Z</time>
      </trkpt>
      <trkpt lat="46.14092" lon="4.41567">
        <ele>754.4</ele>
        <time>2025-09-08T08:50:46Z</time>
      </trkpt>
      <trkpt lat="46.14089" lon="4.41566">
        <ele>754.2</ele>
        <time>2025-09-08T08:50:47Z</time>
      </trkpt>
      <trkpt lat="46.14086" lon="4.41564">
        <ele>754.4</ele>
        <time>2025-09-08T08:50:48Z</time>
      </trkpt>
      <trkpt lat="46.14084" lon="4.41563">
        <ele>754.8</ele>
        <time>2025-09-08T08:50:49Z</time>
      </trkpt>
      <trkpt lat="46.14082" lon="4.41562">
        <ele>755</ele>
        <time>2025-09-08T08:50:50Z</time>
      </trkpt>
      <trkpt lat="46.14079" lon="4.41559">
        <ele>755</ele>
        <time>2025-09-08T08:50:51Z</time>
      </trkpt>
      <trkpt lat="46.14077" lon="4.41557">
        <ele>755</ele>
        <time>2025-09-08T08:50:52Z</time>
      </trkpt>
      <trkpt lat="46.14075" lon="4.41554">
        <ele>754.8</ele>
        <time>2025-09-08T08:50:53Z</time>
      </trkpt>
      <trkpt lat="46.14073" lon="4.41552">
        <ele>754.8</ele>
        <time>2025-09-08T08:50:54Z</time>
      </trkpt>
      <trkpt lat="46.14071" lon="4.4155">
        <ele>754.8</ele>
        <time>2025-09-08T08:50:55Z</time>
      </trkpt>
      <trkpt lat="46.14069" lon="4.41547">
        <ele>754.4</ele>
        <time>2025-09-08T08:50:56Z</time>
      </trkpt>
      <trkpt lat="46.14066" lon="4.41544">
        <ele>754.4</ele>
        <time>2025-09-08T08:50:57Z</time>
      </trkpt>
      <trkpt lat="46.14063" lon="4.41541">
        <ele>754.4</ele>
        <time>2025-09-08T08:50:58Z</time>
      </trkpt>
      <trkpt lat="46.14059" lon="4.41538">
        <ele>754.4</ele>
        <time>2025-09-08T08:50:59Z</time>
      </trkpt>
      <trkpt lat="46.14057" lon="4.41536">
        <ele>754</ele>
        <time>2025-09-08T08:51:00Z</time>
      </trkpt>
      <trkpt lat="46.14053" lon="4.41532">
        <ele>753.8</ele>
        <time>2025-09-08T08:51:01Z</time>
      </trkpt>
      <trkpt lat="46.14051" lon="4.41529">
        <ele>753.8</ele>
        <time>2025-09-08T08:51:02Z</time>
      </trkpt>
      <trkpt lat="46.14049" lon="4.41525">
        <ele>753.2</ele>
        <time>2025-09-08T08:51:03Z</time>
      </trkpt>
      <trkpt lat="46.14045" lon="4.4152">
        <ele>753</ele>
        <time>2025-09-08T08:51:04Z</time>
      </trkpt>
      <trkpt lat="46.14042" lon="4.41514">
        <ele>752.6</ele>
        <time>2025-09-08T08:51:05Z</time>
      </trkpt>
      <trkpt lat="46.14035" lon="4.41506">
        <ele>752</ele>
        <time>2025-09-08T08:51:06Z</time>
      </trkpt>
      <trkpt lat="46.14031" lon="4.41503">
        <ele>751.8</ele>
        <time>2025-09-08T08:51:07Z</time>
      </trkpt>
      <trkpt lat="46.14026" lon="4.41494">
        <ele>751.8</ele>
        <time>2025-09-08T08:51:08Z</time>
      </trkpt>
      <trkpt lat="46.14023" lon="4.41487">
        <ele>751.8</ele>
        <time>2025-09-08T08:51:09Z</time>
      </trkpt>
      <trkpt lat="46.1402" lon="4.41481">
        <ele>751.8</ele>
        <time>2025-09-08T08:51:10Z</time>
      </trkpt>
      <trkpt lat="46.14015" lon="4.41476">
        <ele>751.4</ele>
        <time>2025-09-08T08:51:11Z</time>
      </trkpt>
      <trkpt lat="46.14011" lon="4.41469">
        <ele>751</ele>
        <time>2025-09-08T08:51:12Z</time>
      </trkpt>
      <trkpt lat="46.14009" lon="4.41462">
        <ele>751</ele>
        <time>2025-09-08T08:51:13Z</time>
      </trkpt>
      <trkpt lat="46.14006" lon="4.41456">
        <ele>750.8</ele>
        <time>2025-09-08T08:51:14Z</time>
      </trkpt>
      <trkpt lat="46.14003" lon="4.41448">
        <ele>750.8</ele>
        <time>2025-09-08T08:51:15Z</time>
      </trkpt>
      <trkpt lat="46.14002" lon="4.41443">
        <ele>750.2</ele>
        <time>2025-09-08T08:51:16Z</time>
      </trkpt>
      <trkpt lat="46.13999" lon="4.41438">
        <ele>750.2</ele>
        <time>2025-09-08T08:51:17Z</time>
      </trkpt>
      <trkpt lat="46.13996" lon="4.41434">
        <ele>750.2</ele>
        <time>2025-09-08T08:51:18Z</time>
      </trkpt>
      <trkpt lat="46.13995" lon="4.4143">
        <ele>750.2</ele>
        <time>2025-09-08T08:51:19Z</time>
      </trkpt>
      <trkpt lat="46.13995" lon="4.41429">
        <ele>750.2</ele>
        <time>2025-09-08T08:51:20Z</time>
      </trkpt>
      <trkpt lat="46.13993" lon="4.41425">
        <ele>750.4</ele>
        <time>2025-09-08T08:51:21Z</time>
      </trkpt>
      <trkpt lat="46.13992" lon="4.41421">
        <ele>750.4</ele>
        <time>2025-09-08T08:51:22Z</time>
      </trkpt>
      <trkpt lat="46.13994" lon="4.41418">
        <ele>750.4</ele>
        <time>2025-09-08T08:51:23Z</time>
      </trkpt>
      <trkpt lat="46.13994" lon="4.41414">
        <ele>750.8</ele>
        <time>2025-09-08T08:51:24Z</time>
      </trkpt>
      <trkpt lat="46.1399" lon="4.41412">
        <ele>750.6</ele>
        <time>2025-09-08T08:51:25Z</time>
      </trkpt>
      <trkpt lat="46.13987" lon="4.41409">
        <ele>750.6</ele>
        <time>2025-09-08T08:51:26Z</time>
      </trkpt>
      <trkpt lat="46.13985" lon="4.41407">
        <ele>750.6</ele>
        <time>2025-09-08T08:51:27Z</time>
      </trkpt>
      <trkpt lat="46.13983" lon="4.41405">
        <ele>750.8</ele>
        <time>2025-09-08T08:51:28Z</time>
      </trkpt>
      <trkpt lat="46.13981" lon="4.41402">
        <ele>750.8</ele>
        <time>2025-09-08T08:51:29Z</time>
      </trkpt>
      <trkpt lat="46.13979" lon="4.414">
        <ele>750.8</ele>
        <time>2025-09-08T08:51:30Z</time>
      </trkpt>
      <trkpt lat="46.13977" lon="4.41398">
        <ele>750.8</ele>
        <time>2025-09-08T08:51:31Z</time>
      </trkpt>
      <trkpt lat="46.13976" lon="4.41395">
        <ele>751</ele>
        <time>2025-09-08T08:51:32Z</time>
      </trkpt>
      <trkpt lat="46.13975" lon="4.41391">
        <ele>751.6</ele>
        <time>2025-09-08T08:51:33Z</time>
      </trkpt>
      <trkpt lat="46.13973" lon="4.41388">
        <ele>751.6</ele>
        <time>2025-09-08T08:51:34Z</time>
      </trkpt>
      <trkpt lat="46.13972" lon="4.41385">
        <ele>751.6</ele>
        <time>2025-09-08T08:51:35Z</time>
      </trkpt>
      <trkpt lat="46.13971" lon="4.41384">
        <ele>751.8</ele>
        <time>2025-09-08T08:51:36Z</time>
      </trkpt>
      <trkpt lat="46.1397" lon="4.41382">
        <ele>751.8</ele>
        <time>2025-09-08T08:51:37Z</time>
      </trkpt>
      <trkpt lat="46.13968" lon="4.4138">
        <ele>752.2</ele>
        <time>2025-09-08T08:51:38Z</time>
      </trkpt>
      <trkpt lat="46.13967" lon="4.41378">
        <ele>752.2</ele>
        <time>2025-09-08T08:51:39Z</time>
      </trkpt>
      <trkpt lat="46.13965" lon="4.41376">
        <ele>752.4</ele>
        <time>2025-09-08T08:51:40Z</time>
      </trkpt>
      <trkpt lat="46.13963" lon="4.41373">
        <ele>752.4</ele>
        <time>2025-09-08T08:51:41Z</time>
      </trkpt>
      <trkpt lat="46.13962" lon="4.4137">
        <ele>752.4</ele>
        <time>2025-09-08T08:51:42Z</time>
      </trkpt>
      <trkpt lat="46.1396" lon="4.41367">
        <ele>752.6</ele>
        <time>2025-09-08T08:51:43Z</time>
      </trkpt>
      <trkpt lat="46.13956" lon="4.41361">
        <ele>752.6</ele>
        <time>2025-09-08T08:51:44Z</time>
      </trkpt>
      <trkpt lat="46.13956" lon="4.41357">
        <ele>753</ele>
        <time>2025-09-08T08:51:45Z</time>
      </trkpt>
      <trkpt lat="46.13955" lon="4.41354">
        <ele>752.8</ele>
        <time>2025-09-08T08:51:46Z</time>
      </trkpt>
      <trkpt lat="46.13955" lon="4.41351">
        <ele>752.8</ele>
        <time>2025-09-08T08:51:47Z</time>
      </trkpt>
      <trkpt lat="46.13954" lon="4.41347">
        <ele>752.8</ele>
        <time>2025-09-08T08:51:48Z</time>
      </trkpt>
      <trkpt lat="46.13953" lon="4.41344">
        <ele>752.8</ele>
        <time>2025-09-08T08:51:49Z</time>
      </trkpt>
      <trkpt lat="46.13953" lon="4.4134">
        <ele>752.8</ele>
        <time>2025-09-08T08:51:50Z</time>
      </trkpt>
      <trkpt lat="46.13952" lon="4.41336">
        <ele>753</ele>
        <time>2025-09-08T08:51:51Z</time>
      </trkpt>
      <trkpt lat="46.13952" lon="4.41333">
        <ele>753</ele>
        <time>2025-09-08T08:51:52Z</time>
      </trkpt>
      <trkpt lat="46.13951" lon="4.41329">
        <ele>753</ele>
        <time>2025-09-08T08:51:53Z</time>
      </trkpt>
      <trkpt lat="46.1395" lon="4.41326">
        <ele>753</ele>
        <time>2025-09-08T08:51:54Z</time>
      </trkpt>
      <trkpt lat="46.13949" lon="4.41323">
        <ele>753</ele>
        <time>2025-09-08T08:51:55Z</time>
      </trkpt>
      <trkpt lat="46.13948" lon="4.41321">
        <ele>752.6</ele>
        <time>2025-09-08T08:51:56Z</time>
      </trkpt>
      <trkpt lat="46.13949" lon="4.41319">
        <ele>753</ele>
        <time>2025-09-08T08:51:57Z</time>
      </trkpt>
      <trkpt lat="46.13949" lon="4.41316">
        <ele>753.2</ele>
        <time>2025-09-08T08:51:58Z</time>
      </trkpt>
      <trkpt lat="46.13949" lon="4.41314">
        <ele>753.2</ele>
        <time>2025-09-08T08:51:59Z</time>
      </trkpt>
      <trkpt lat="46.1395" lon="4.41311">
        <ele>753.2</ele>
        <time>2025-09-08T08:52:00Z</time>
      </trkpt>
      <trkpt lat="46.1395" lon="4.41308">
        <ele>753.6</ele>
        <time>2025-09-08T08:52:01Z</time>
      </trkpt>
      <trkpt lat="46.1395" lon="4.41305">
        <ele>753.6</ele>
        <time>2025-09-08T08:52:02Z</time>
      </trkpt>
      <trkpt lat="46.1395" lon="4.41302">
        <ele>753.8</ele>
        <time>2025-09-08T08:52:03Z</time>
      </trkpt>
      <trkpt lat="46.1395" lon="4.413">
        <ele>753.8</ele>
        <time>2025-09-08T08:52:04Z</time>
      </trkpt>
      <trkpt lat="46.1395" lon="4.41299">
        <ele>753.8</ele>
        <time>2025-09-08T08:52:05Z</time>
      </trkpt>
      <trkpt lat="46.1395" lon="4.41298">
        <ele>754</ele>
        <time>2025-09-08T08:52:06Z</time>
      </trkpt>
      <trkpt lat="46.13951" lon="4.4129">
        <ele>754</ele>
        <time>2025-09-08T08:52:19Z</time>
      </trkpt>
      <trkpt lat="46.13951" lon="4.41287">
        <ele>754</ele>
        <time>2025-09-08T08:52:20Z</time>
      </trkpt>
      <trkpt lat="46.13951" lon="4.41284">
        <ele>754</ele>
        <time>2025-09-08T08:52:21Z</time>
      </trkpt>
      <trkpt lat="46.13952" lon="4.4128">
        <ele>754</ele>
        <time>2025-09-08T08:52:22Z</time>
      </trkpt>
      <trkpt lat="46.13952" lon="4.41278">
        <ele>754.4</ele>
        <time>2025-09-08T08:52:23Z</time>
      </trkpt>
      <trkpt lat="46.13952" lon="4.41275">
        <ele>754.6</ele>
        <time>2025-09-08T08:52:24Z</time>
      </trkpt>
      <trkpt lat="46.13952" lon="4.41273">
        <ele>754.6</ele>
        <time>2025-09-08T08:52:25Z</time>
      </trkpt>
      <trkpt lat="46.13952" lon="4.4127">
        <ele>754.6</ele>
        <time>2025-09-08T08:52:26Z</time>
      </trkpt>
      <trkpt lat="46.13953" lon="4.41268">
        <ele>754.6</ele>
        <time>2025-09-08T08:52:27Z</time>
      </trkpt>
      <trkpt lat="46.13953" lon="4.41265">
        <ele>754.6</ele>
        <time>2025-09-08T08:52:28Z</time>
      </trkpt>
      <trkpt lat="46.13953" lon="4.41263">
        <ele>755</ele>
        <time>2025-09-08T08:52:29Z</time>
      </trkpt>
      <trkpt lat="46.13953" lon="4.41263">
        <ele>755</ele>
        <time>2025-09-08T08:52:30Z</time>
      </trkpt>
      <trkpt lat="46.13953" lon="4.4126">
        <ele>755.2</ele>
        <time>2025-09-08T08:52:31Z</time>
      </trkpt>
      <trkpt lat="46.13954" lon="4.41257">
        <ele>755.4</ele>
        <time>2025-09-08T08:52:32Z</time>
      </trkpt>
      <trkpt lat="46.13953" lon="4.41256">
        <ele>755.6</ele>
        <time>2025-09-08T08:52:33Z</time>
      </trkpt>
      <trkpt lat="46.13953" lon="4.41254">
        <ele>755.6</ele>
        <time>2025-09-08T08:52:34Z</time>
      </trkpt>
      <trkpt lat="46.13954" lon="4.41252">
        <ele>756</ele>
        <time>2025-09-08T08:52:35Z</time>
      </trkpt>
      <trkpt lat="46.13954" lon="4.4125">
        <ele>756</ele>
        <time>2025-09-08T08:52:36Z</time>
      </trkpt>
      <trkpt lat="46.13955" lon="4.41247">
        <ele>756.4</ele>
        <time>2025-09-08T08:52:37Z</time>
      </trkpt>
      <trkpt lat="46.13955" lon="4.41245">
        <ele>756.6</ele>
        <time>2025-09-08T08:52:38Z</time>
      </trkpt>
      <trkpt lat="46.13955" lon="4.41242">
        <ele>756.6</ele>
        <time>2025-09-08T08:52:39Z</time>
      </trkpt>
      <trkpt lat="46.13955" lon="4.41239">
        <ele>756.6</ele>
        <time>2025-09-08T08:52:40Z</time>
      </trkpt>
      <trkpt lat="46.13954" lon="4.41237">
        <ele>757</ele>
        <time>2025-09-08T08:52:41Z</time>
      </trkpt>
      <trkpt lat="46.13954" lon="4.41235">
        <ele>757.4</ele>
        <time>2025-09-08T08:52:42Z</time>
      </trkpt>
      <trkpt lat="46.13954" lon="4.41233">
        <ele>757.4</ele>
        <time>2025-09-08T08:52:43Z</time>
      </trkpt>
      <trkpt lat="46.13954" lon="4.41231">
        <ele>757.6</ele>
        <time>2025-09-08T08:52:44Z</time>
      </trkpt>
      <trkpt lat="46.13954" lon="4.41229">
        <ele>757.6</ele>
        <time>2025-09-08T08:52:45Z</time>
      </trkpt>
      <trkpt lat="46.13954" lon="4.41226">
        <ele>757.6</ele>
        <time>2025-09-08T08:52:46Z</time>
      </trkpt>
      <trkpt lat="46.13954" lon="4.41224">
        <ele>758</ele>
        <time>2025-09-08T08:52:47Z</time>
      </trkpt>
      <trkpt lat="46.13955" lon="4.41223">
        <ele>758.2</ele>
        <time>2025-09-08T08:52:48Z</time>
      </trkpt>
      <trkpt lat="46.13955" lon="4.41221">
        <ele>758.2</ele>
        <time>2025-09-08T08:52:49Z</time>
      </trkpt>
      <trkpt lat="46.13956" lon="4.41219">
        <ele>758.4</ele>
        <time>2025-09-08T08:52:50Z</time>
      </trkpt>
      <trkpt lat="46.13956" lon="4.41216">
        <ele>758.6</ele>
        <time>2025-09-08T08:52:51Z</time>
      </trkpt>
      <trkpt lat="46.13955" lon="4.41213">
        <ele>758.6</ele>
        <time>2025-09-08T08:52:52Z</time>
      </trkpt>
      <trkpt lat="46.13955" lon="4.4121">
        <ele>758.6</ele>
        <time>2025-09-08T08:52:53Z</time>
      </trkpt>
      <trkpt lat="46.13955" lon="4.41208">
        <ele>758.8</ele>
        <time>2025-09-08T08:52:54Z</time>
      </trkpt>
      <trkpt lat="46.13955" lon="4.41206">
        <ele>759.2</ele>
        <time>2025-09-08T08:52:55Z</time>
      </trkpt>
      <trkpt lat="46.13955" lon="4.41204">
        <ele>759.2</ele>
        <time>2025-09-08T08:52:56Z</time>
      </trkpt>
      <trkpt lat="46.13955" lon="4.41203">
        <ele>759.4</ele>
        <time>2025-09-08T08:52:57Z</time>
      </trkpt>
      <trkpt lat="46.13956" lon="4.41201">
        <ele>759.4</ele>
        <time>2025-09-08T08:52:58Z</time>
      </trkpt>
      <trkpt lat="46.13955" lon="4.412">
        <ele>759.4</ele>
        <time>2025-09-08T08:52:59Z</time>
      </trkpt>
      <trkpt lat="46.13954" lon="4.41197">
        <ele>759.8</ele>
        <time>2025-09-08T08:53:00Z</time>
      </trkpt>
      <trkpt lat="46.13953" lon="4.41195">
        <ele>760</ele>
        <time>2025-09-08T08:53:01Z</time>
      </trkpt>
      <trkpt lat="46.13953" lon="4.41192">
        <ele>760</ele>
        <time>2025-09-08T08:53:02Z</time>
      </trkpt>
      <trkpt lat="46.13953" lon="4.4119">
        <ele>760.4</ele>
        <time>2025-09-08T08:53:03Z</time>
      </trkpt>
      <trkpt lat="46.13952" lon="4.41187">
        <ele>760.4</ele>
        <time>2025-09-08T08:53:04Z</time>
      </trkpt>
      <trkpt lat="46.13952" lon="4.41184">
        <ele>760.4</ele>
        <time>2025-09-08T08:53:05Z</time>
      </trkpt>
      <trkpt lat="46.13951" lon="4.41182">
        <ele>760.6</ele>
        <time>2025-09-08T08:53:06Z</time>
      </trkpt>
      <trkpt lat="46.13951" lon="4.4118">
        <ele>760.6</ele>
        <time>2025-09-08T08:53:07Z</time>
      </trkpt>
      <trkpt lat="46.13951" lon="4.41178">
        <ele>760.6</ele>
        <time>2025-09-08T08:53:08Z</time>
      </trkpt>
      <trkpt lat="46.13951" lon="4.41176">
        <ele>760.6</ele>
        <time>2025-09-08T08:53:09Z</time>
      </trkpt>
      <trkpt lat="46.13951" lon="4.41174">
        <ele>760.8</ele>
        <time>2025-09-08T08:53:10Z</time>
      </trkpt>
      <trkpt lat="46.1395" lon="4.41172">
        <ele>760.8</ele>
        <time>2025-09-08T08:53:11Z</time>
      </trkpt>
      <trkpt lat="46.13949" lon="4.41171">
        <ele>761.2</ele>
        <time>2025-09-08T08:53:12Z</time>
      </trkpt>
      <trkpt lat="46.13948" lon="4.41168">
        <ele>761.2</ele>
        <time>2025-09-08T08:53:13Z</time>
      </trkpt>
      <trkpt lat="46.13948" lon="4.41166">
        <ele>761.2</ele>
        <time>2025-09-08T08:53:14Z</time>
      </trkpt>
      <trkpt lat="46.13947" lon="4.41163">
        <ele>761.4</ele>
        <time>2025-09-08T08:53:15Z</time>
      </trkpt>
      <trkpt lat="46.13947" lon="4.4116">
        <ele>761.4</ele>
        <time>2025-09-08T08:53:16Z</time>
      </trkpt>
      <trkpt lat="46.13946" lon="4.41156">
        <ele>761.4</ele>
        <time>2025-09-08T08:53:17Z</time>
      </trkpt>
      <trkpt lat="46.13946" lon="4.41153">
        <ele>761.4</ele>
        <time>2025-09-08T08:53:18Z</time>
      </trkpt>
      <trkpt lat="46.13945" lon="4.41151">
        <ele>761.4</ele>
        <time>2025-09-08T08:53:19Z</time>
      </trkpt>
      <trkpt lat="46.13945" lon="4.41149">
        <ele>761.6</ele>
        <time>2025-09-08T08:53:20Z</time>
      </trkpt>
      <trkpt lat="46.13945" lon="4.41145">
        <ele>761.6</ele>
        <time>2025-09-08T08:53:21Z</time>
      </trkpt>
      <trkpt lat="46.13944" lon="4.41144">
        <ele>761.6</ele>
        <time>2025-09-08T08:53:22Z</time>
      </trkpt>
      <trkpt lat="46.13944" lon="4.41143">
        <ele>761.8</ele>
        <time>2025-09-08T08:53:23Z</time>
      </trkpt>
      <trkpt lat="46.13944" lon="4.4114">
        <ele>761.8</ele>
        <time>2025-09-08T08:53:24Z</time>
      </trkpt>
      <trkpt lat="46.13943" lon="4.41137">
        <ele>761.8</ele>
        <time>2025-09-08T08:53:25Z</time>
      </trkpt>
      <trkpt lat="46.13942" lon="4.41134">
        <ele>761.8</ele>
        <time>2025-09-08T08:53:26Z</time>
      </trkpt>
      <trkpt lat="46.13941" lon="4.4113">
        <ele>761.8</ele>
        <time>2025-09-08T08:53:27Z</time>
      </trkpt>
      <trkpt lat="46.1394" lon="4.41127">
        <ele>761.8</ele>
        <time>2025-09-08T08:53:28Z</time>
      </trkpt>
      <trkpt lat="46.13939" lon="4.41125">
        <ele>762</ele>
        <time>2025-09-08T08:53:29Z</time>
      </trkpt>
      <trkpt lat="46.13938" lon="4.41123">
        <ele>762</ele>
        <time>2025-09-08T08:53:30Z</time>
      </trkpt>
      <trkpt lat="46.13937" lon="4.41121">
        <ele>762</ele>
        <time>2025-09-08T08:53:31Z</time>
      </trkpt>
      <trkpt lat="46.13936" lon="4.4112">
        <ele>762</ele>
        <time>2025-09-08T08:53:32Z</time>
      </trkpt>
      <trkpt lat="46.13935" lon="4.41117">
        <ele>762</ele>
        <time>2025-09-08T08:53:33Z</time>
      </trkpt>
      <trkpt lat="46.13934" lon="4.41115">
        <ele>762.2</ele>
        <time>2025-09-08T08:53:34Z</time>
      </trkpt>
      <trkpt lat="46.13934" lon="4.41114">
        <ele>762.4</ele>
        <time>2025-09-08T08:53:35Z</time>
      </trkpt>
      <trkpt lat="46.13933" lon="4.41112">
        <ele>762.4</ele>
        <time>2025-09-08T08:53:36Z</time>
      </trkpt>
      <trkpt lat="46.13933" lon="4.4111">
        <ele>762.4</ele>
        <time>2025-09-08T08:53:37Z</time>
      </trkpt>
      <trkpt lat="46.13933" lon="4.41108">
        <ele>762.8</ele>
        <time>2025-09-08T08:53:38Z</time>
      </trkpt>
      <trkpt lat="46.13932" lon="4.41106">
        <ele>762.8</ele>
        <time>2025-09-08T08:53:39Z</time>
      </trkpt>
      <trkpt lat="46.13932" lon="4.41105">
        <ele>763</ele>
        <time>2025-09-08T08:53:40Z</time>
      </trkpt>
      <trkpt lat="46.13932" lon="4.41103">
        <ele>763.4</ele>
        <time>2025-09-08T08:53:41Z</time>
      </trkpt>
      <trkpt lat="46.13931" lon="4.411">
        <ele>763.4</ele>
        <time>2025-09-08T08:53:42Z</time>
      </trkpt>
      <trkpt lat="46.1393" lon="4.41099">
        <ele>763.8</ele>
        <time>2025-09-08T08:53:43Z</time>
      </trkpt>
      <trkpt lat="46.13929" lon="4.41097">
        <ele>764</ele>
        <time>2025-09-08T08:53:44Z</time>
      </trkpt>
      <trkpt lat="46.13929" lon="4.41096">
        <ele>764.4</ele>
        <time>2025-09-08T08:53:45Z</time>
      </trkpt>
      <trkpt lat="46.13928" lon="4.41094">
        <ele>764.4</ele>
        <time>2025-09-08T08:53:46Z</time>
      </trkpt>
      <trkpt lat="46.13927" lon="4.41092">
        <ele>764.4</ele>
        <time>2025-09-08T08:53:47Z</time>
      </trkpt>
      <trkpt lat="46.13927" lon="4.4109">
        <ele>764.4</ele>
        <time>2025-09-08T08:53:48Z</time>
      </trkpt>
      <trkpt lat="46.13927" lon="4.41087">
        <ele>764.6</ele>
        <time>2025-09-08T08:53:49Z</time>
      </trkpt>
      <trkpt lat="46.13927" lon="4.41084">
        <ele>764.6</ele>
        <time>2025-09-08T08:53:50Z</time>
      </trkpt>
      <trkpt lat="46.13928" lon="4.41082">
        <ele>764.6</ele>
        <time>2025-09-08T08:53:51Z</time>
      </trkpt>
      <trkpt lat="46.13928" lon="4.41079">
        <ele>764.6</ele>
        <time>2025-09-08T08:53:52Z</time>
      </trkpt>
      <trkpt lat="46.13927" lon="4.41077">
        <ele>764.6</ele>
        <time>2025-09-08T08:53:53Z</time>
      </trkpt>
      <trkpt lat="46.13927" lon="4.41075">
        <ele>764.6</ele>
        <time>2025-09-08T08:53:54Z</time>
      </trkpt>
      <trkpt lat="46.13927" lon="4.41074">
        <ele>765.4</ele>
        <time>2025-09-08T08:53:55Z</time>
      </trkpt>
      <trkpt lat="46.13927" lon="4.41072">
        <ele>765.4</ele>
        <time>2025-09-08T08:53:56Z</time>
      </trkpt>
      <trkpt lat="46.13927" lon="4.41069">
        <ele>765.2</ele>
        <time>2025-09-08T08:53:57Z</time>
      </trkpt>
      <trkpt lat="46.13926" lon="4.41065">
        <ele>765.2</ele>
        <time>2025-09-08T08:53:58Z</time>
      </trkpt>
      <trkpt lat="46.13926" lon="4.41062">
        <ele>764.8</ele>
        <time>2025-09-08T08:53:59Z</time>
      </trkpt>
      <trkpt lat="46.13926" lon="4.4106">
        <ele>764.8</ele>
        <time>2025-09-08T08:54:00Z</time>
      </trkpt>
      <trkpt lat="46.13925" lon="4.41057">
        <ele>764.6</ele>
        <time>2025-09-08T08:54:01Z</time>
      </trkpt>
      <trkpt lat="46.13924" lon="4.41054">
        <ele>764.6</ele>
        <time>2025-09-08T08:54:02Z</time>
      </trkpt>
      <trkpt lat="46.13923" lon="4.41051">
        <ele>764.8</ele>
        <time>2025-09-08T08:54:03Z</time>
      </trkpt>
      <trkpt lat="46.13922" lon="4.41049">
        <ele>764.8</ele>
        <time>2025-09-08T08:54:04Z</time>
      </trkpt>
      <trkpt lat="46.13922" lon="4.41047">
        <ele>764.8</ele>
        <time>2025-09-08T08:54:05Z</time>
      </trkpt>
      <trkpt lat="46.13922" lon="4.41045">
        <ele>765</ele>
        <time>2025-09-08T08:54:06Z</time>
      </trkpt>
      <trkpt lat="46.13922" lon="4.41042">
        <ele>765</ele>
        <time>2025-09-08T08:54:07Z</time>
      </trkpt>
      <trkpt lat="46.13922" lon="4.41039">
        <ele>764.8</ele>
        <time>2025-09-08T08:54:08Z</time>
      </trkpt>
      <trkpt lat="46.13921" lon="4.41035">
        <ele>764.8</ele>
        <time>2025-09-08T08:54:09Z</time>
      </trkpt>
      <trkpt lat="46.1392" lon="4.41032">
        <ele>764.8</ele>
        <time>2025-09-08T08:54:10Z</time>
      </trkpt>
      <trkpt lat="46.1392" lon="4.41027">
        <ele>764.8</ele>
        <time>2025-09-08T08:54:11Z</time>
      </trkpt>
      <trkpt lat="46.1392" lon="4.41023">
        <ele>764.8</ele>
        <time>2025-09-08T08:54:12Z</time>
      </trkpt>
      <trkpt lat="46.1392" lon="4.41019">
        <ele>764.8</ele>
        <time>2025-09-08T08:54:13Z</time>
      </trkpt>
      <trkpt lat="46.1392" lon="4.41015">
        <ele>765.2</ele>
        <time>2025-09-08T08:54:14Z</time>
      </trkpt>
      <trkpt lat="46.1392" lon="4.4101">
        <ele>765.2</ele>
        <time>2025-09-08T08:54:15Z</time>
      </trkpt>
      <trkpt lat="46.1392" lon="4.41005">
        <ele>765.2</ele>
        <time>2025-09-08T08:54:16Z</time>
      </trkpt>
      <trkpt lat="46.13921" lon="4.41001">
        <ele>765.2</ele>
        <time>2025-09-08T08:54:17Z</time>
      </trkpt>
      <trkpt lat="46.13921" lon="4.40998">
        <ele>765.2</ele>
        <time>2025-09-08T08:54:18Z</time>
      </trkpt>
      <trkpt lat="46.13922" lon="4.40996">
        <ele>765.4</ele>
        <time>2025-09-08T08:54:19Z</time>
      </trkpt>
      <trkpt lat="46.13922" lon="4.40994">
        <ele>765.4</ele>
        <time>2025-09-08T08:54:20Z</time>
      </trkpt>
      <trkpt lat="46.13922" lon="4.40992">
        <ele>765.4</ele>
        <time>2025-09-08T08:54:21Z</time>
      </trkpt>
      <trkpt lat="46.13922" lon="4.40989">
        <ele>765.4</ele>
        <time>2025-09-08T08:54:22Z</time>
      </trkpt>
      <trkpt lat="46.13923" lon="4.40985">
        <ele>765.4</ele>
        <time>2025-09-08T08:54:23Z</time>
      </trkpt>
      <trkpt lat="46.13925" lon="4.40981">
        <ele>765.6</ele>
        <time>2025-09-08T08:54:24Z</time>
      </trkpt>
      <trkpt lat="46.13927" lon="4.40978">
        <ele>765.6</ele>
        <time>2025-09-08T08:54:25Z</time>
      </trkpt>
      <trkpt lat="46.13929" lon="4.40976">
        <ele>765.6</ele>
        <time>2025-09-08T08:54:26Z</time>
      </trkpt>
      <trkpt lat="46.13931" lon="4.40973">
        <ele>765.6</ele>
        <time>2025-09-08T08:54:27Z</time>
      </trkpt>
      <trkpt lat="46.13933" lon="4.40971">
        <ele>765.6</ele>
        <time>2025-09-08T08:54:28Z</time>
      </trkpt>
      <trkpt lat="46.13936" lon="4.40969">
        <ele>766</ele>
        <time>2025-09-08T08:54:29Z</time>
      </trkpt>
      <trkpt lat="46.13938" lon="4.40969">
        <ele>766</ele>
        <time>2025-09-08T08:54:30Z</time>
      </trkpt>
      <trkpt lat="46.13939" lon="4.40969">
        <ele>766</ele>
        <time>2025-09-08T08:54:31Z</time>
      </trkpt>
      <trkpt lat="46.13941" lon="4.40967">
        <ele>766.4</ele>
        <time>2025-09-08T08:54:32Z</time>
      </trkpt>
      <trkpt lat="46.13942" lon="4.40965">
        <ele>766.4</ele>
        <time>2025-09-08T08:54:33Z</time>
      </trkpt>
      <trkpt lat="46.13942" lon="4.40962">
        <ele>766.8</ele>
        <time>2025-09-08T08:54:34Z</time>
      </trkpt>
      <trkpt lat="46.13942" lon="4.4096">
        <ele>766.8</ele>
        <time>2025-09-08T08:54:35Z</time>
      </trkpt>
      <trkpt lat="46.13943" lon="4.40956">
        <ele>767.2</ele>
        <time>2025-09-08T08:54:36Z</time>
      </trkpt>
      <trkpt lat="46.13945" lon="4.40954">
        <ele>767.2</ele>
        <time>2025-09-08T08:54:37Z</time>
      </trkpt>
      <trkpt lat="46.13947" lon="4.40952">
        <ele>767.2</ele>
        <time>2025-09-08T08:54:38Z</time>
      </trkpt>
      <trkpt lat="46.13949" lon="4.4095">
        <ele>767.4</ele>
        <time>2025-09-08T08:54:39Z</time>
      </trkpt>
      <trkpt lat="46.13952" lon="4.40948">
        <ele>767.4</ele>
        <time>2025-09-08T08:54:40Z</time>
      </trkpt>
      <trkpt lat="46.13953" lon="4.40946">
        <ele>767.8</ele>
        <time>2025-09-08T08:54:41Z</time>
      </trkpt>
      <trkpt lat="46.13953" lon="4.40945">
        <ele>767.8</ele>
        <time>2025-09-08T08:54:42Z</time>
      </trkpt>
      <trkpt lat="46.13954" lon="4.40944">
        <ele>768</ele>
        <time>2025-09-08T08:54:43Z</time>
      </trkpt>
      <trkpt lat="46.13955" lon="4.40943">
        <ele>768</ele>
        <time>2025-09-08T08:54:44Z</time>
      </trkpt>
      <trkpt lat="46.13956" lon="4.40942">
        <ele>768.4</ele>
        <time>2025-09-08T08:54:45Z</time>
      </trkpt>
      <trkpt lat="46.13957" lon="4.4094">
        <ele>768.4</ele>
        <time>2025-09-08T08:54:46Z</time>
      </trkpt>
      <trkpt lat="46.13958" lon="4.40938">
        <ele>768.6</ele>
        <time>2025-09-08T08:54:47Z</time>
      </trkpt>
      <trkpt lat="46.13959" lon="4.40937">
        <ele>768.6</ele>
        <time>2025-09-08T08:54:48Z</time>
      </trkpt>
      <trkpt lat="46.1396" lon="4.40935">
        <ele>769</ele>
        <time>2025-09-08T08:54:49Z</time>
      </trkpt>
      <trkpt lat="46.1396" lon="4.40933">
        <ele>769</ele>
        <time>2025-09-08T08:54:50Z</time>
      </trkpt>
      <trkpt lat="46.1396" lon="4.40932">
        <ele>769.4</ele>
        <time>2025-09-08T08:54:51Z</time>
      </trkpt>
      <trkpt lat="46.13961" lon="4.4093">
        <ele>769.4</ele>
        <time>2025-09-08T08:54:52Z</time>
      </trkpt>
      <trkpt lat="46.13962" lon="4.40929">
        <ele>769.6</ele>
        <time>2025-09-08T08:54:53Z</time>
      </trkpt>
      <trkpt lat="46.13962" lon="4.40927">
        <ele>769.6</ele>
        <time>2025-09-08T08:54:54Z</time>
      </trkpt>
      <trkpt lat="46.13963" lon="4.40926">
        <ele>770</ele>
        <time>2025-09-08T08:54:55Z</time>
      </trkpt>
      <trkpt lat="46.13964" lon="4.40925">
        <ele>770.2</ele>
        <time>2025-09-08T08:54:56Z</time>
      </trkpt>
      <trkpt lat="46.13964" lon="4.40924">
        <ele>770.2</ele>
        <time>2025-09-08T08:54:57Z</time>
      </trkpt>
      <trkpt lat="46.13964" lon="4.40923">
        <ele>770.2</ele>
        <time>2025-09-08T08:54:58Z</time>
      </trkpt>
      <trkpt lat="46.13965" lon="4.40921">
        <ele>770.6</ele>
        <time>2025-09-08T08:54:59Z</time>
      </trkpt>
      <trkpt lat="46.13965" lon="4.4092">
        <ele>770.6</ele>
        <time>2025-09-08T08:55:00Z</time>
      </trkpt>
      <trkpt lat="46.13966" lon="4.40919">
        <ele>770.6</ele>
        <time>2025-09-08T08:55:01Z</time>
      </trkpt>
      <trkpt lat="46.13966" lon="4.40919">
        <ele>770.6</ele>
        <time>2025-09-08T08:55:02Z</time>
      </trkpt>
      <trkpt lat="46.13966" lon="4.4092">
        <ele>770.6</ele>
        <time>2025-09-08T08:55:03Z</time>
      </trkpt>
      <trkpt lat="46.13966" lon="4.40919">
        <ele>771</ele>
        <time>2025-09-08T08:55:04Z</time>
      </trkpt>
      <trkpt lat="46.13974" lon="4.40909">
        <ele>771.8</ele>
        <time>2025-09-08T08:55:15Z</time>
      </trkpt>
      <trkpt lat="46.13976" lon="4.40907">
        <ele>771.8</ele>
        <time>2025-09-08T08:55:16Z</time>
      </trkpt>
      <trkpt lat="46.13978" lon="4.40905">
        <ele>771.8</ele>
        <time>2025-09-08T08:55:17Z</time>
      </trkpt>
      <trkpt lat="46.1398" lon="4.40903">
        <ele>772.2</ele>
        <time>2025-09-08T08:55:18Z</time>
      </trkpt>
      <trkpt lat="46.13981" lon="4.40901">
        <ele>772.2</ele>
        <time>2025-09-08T08:55:19Z</time>
      </trkpt>
      <trkpt lat="46.13983" lon="4.40899">
        <ele>772.2</ele>
        <time>2025-09-08T08:55:20Z</time>
      </trkpt>
      <trkpt lat="46.13984" lon="4.40897">
        <ele>772.2</ele>
        <time>2025-09-08T08:55:21Z</time>
      </trkpt>
      <trkpt lat="46.13986" lon="4.40896">
        <ele>772.2</ele>
        <time>2025-09-08T08:55:22Z</time>
      </trkpt>
      <trkpt lat="46.13987" lon="4.40894">
        <ele>772.2</ele>
        <time>2025-09-08T08:55:23Z</time>
      </trkpt>
      <trkpt lat="46.1399" lon="4.40891">
        <ele>772.2</ele>
        <time>2025-09-08T08:55:24Z</time>
      </trkpt>
      <trkpt lat="46.13992" lon="4.40889">
        <ele>772.2</ele>
        <time>2025-09-08T08:55:25Z</time>
      </trkpt>
      <trkpt lat="46.13992" lon="4.40889">
        <ele>772.2</ele>
        <time>2025-09-08T08:55:26Z</time>
      </trkpt>
      <trkpt lat="46.13994" lon="4.40888">
        <ele>772.2</ele>
        <time>2025-09-08T08:55:27Z</time>
      </trkpt>
      <trkpt lat="46.13997" lon="4.40885">
        <ele>772.2</ele>
        <time>2025-09-08T08:55:28Z</time>
      </trkpt>
      <trkpt lat="46.14" lon="4.40881">
        <ele>771.8</ele>
        <time>2025-09-08T08:55:29Z</time>
      </trkpt>
      <trkpt lat="46.14003" lon="4.40878">
        <ele>771.8</ele>
        <time>2025-09-08T08:55:30Z</time>
      </trkpt>
      <trkpt lat="46.14005" lon="4.40876">
        <ele>771.8</ele>
        <time>2025-09-08T08:55:31Z</time>
      </trkpt>
      <trkpt lat="46.14008" lon="4.40873">
        <ele>771.6</ele>
        <time>2025-09-08T08:55:32Z</time>
      </trkpt>
      <trkpt lat="46.14011" lon="4.4087">
        <ele>771.6</ele>
        <time>2025-09-08T08:55:33Z</time>
      </trkpt>
      <trkpt lat="46.14013" lon="4.40866">
        <ele>771.6</ele>
        <time>2025-09-08T08:55:34Z</time>
      </trkpt>
      <trkpt lat="46.14015" lon="4.40862">
        <ele>771.2</ele>
        <time>2025-09-08T08:55:35Z</time>
      </trkpt>
      <trkpt lat="46.14018" lon="4.40858">
        <ele>771.2</ele>
        <time>2025-09-08T08:55:36Z</time>
      </trkpt>
      <trkpt lat="46.14022" lon="4.40854">
        <ele>770.8</ele>
        <time>2025-09-08T08:55:37Z</time>
      </trkpt>
      <trkpt lat="46.14025" lon="4.4085">
        <ele>770.8</ele>
        <time>2025-09-08T08:55:38Z</time>
      </trkpt>
      <trkpt lat="46.14028" lon="4.40846">
        <ele>770.8</ele>
        <time>2025-09-08T08:55:39Z</time>
      </trkpt>
      <trkpt lat="46.14031" lon="4.40843">
        <ele>770.8</ele>
        <time>2025-09-08T08:55:40Z</time>
      </trkpt>
      <trkpt lat="46.14034" lon="4.4084">
        <ele>770.8</ele>
        <time>2025-09-08T08:55:41Z</time>
      </trkpt>
      <trkpt lat="46.14036" lon="4.40837">
        <ele>771.2</ele>
        <time>2025-09-08T08:55:42Z</time>
      </trkpt>
      <trkpt lat="46.14038" lon="4.40833">
        <ele>771.2</ele>
        <time>2025-09-08T08:55:43Z</time>
      </trkpt>
      <trkpt lat="46.14039" lon="4.40831">
        <ele>771.4</ele>
        <time>2025-09-08T08:55:44Z</time>
      </trkpt>
      <trkpt lat="46.14041" lon="4.40828">
        <ele>771.4</ele>
        <time>2025-09-08T08:55:45Z</time>
      </trkpt>
      <trkpt lat="46.14042" lon="4.40825">
        <ele>771.4</ele>
        <time>2025-09-08T08:55:46Z</time>
      </trkpt>
      <trkpt lat="46.14044" lon="4.40823">
        <ele>771.6</ele>
        <time>2025-09-08T08:55:47Z</time>
      </trkpt>
      <trkpt lat="46.14045" lon="4.40821">
        <ele>771.6</ele>
        <time>2025-09-08T08:55:48Z</time>
      </trkpt>
      <trkpt lat="46.14047" lon="4.4082">
        <ele>771.8</ele>
        <time>2025-09-08T08:55:49Z</time>
      </trkpt>
      <trkpt lat="46.14047" lon="4.40818">
        <ele>771.8</ele>
        <time>2025-09-08T08:55:50Z</time>
      </trkpt>
      <trkpt lat="46.14047" lon="4.40816">
        <ele>772.4</ele>
        <time>2025-09-08T08:55:51Z</time>
      </trkpt>
      <trkpt lat="46.14047" lon="4.40814">
        <ele>772.4</ele>
        <time>2025-09-08T08:55:52Z</time>
      </trkpt>
      <trkpt lat="46.14048" lon="4.40812">
        <ele>772.4</ele>
        <time>2025-09-08T08:55:53Z</time>
      </trkpt>
      <trkpt lat="46.14048" lon="4.4081">
        <ele>772.8</ele>
        <time>2025-09-08T08:55:54Z</time>
      </trkpt>
      <trkpt lat="46.14048" lon="4.40808">
        <ele>772.8</ele>
        <time>2025-09-08T08:55:55Z</time>
      </trkpt>
      <trkpt lat="46.14048" lon="4.40807">
        <ele>773</ele>
        <time>2025-09-08T08:55:56Z</time>
      </trkpt>
      <trkpt lat="46.14049" lon="4.40805">
        <ele>773.2</ele>
        <time>2025-09-08T08:55:57Z</time>
      </trkpt>
      <trkpt lat="46.1405" lon="4.40804">
        <ele>773.2</ele>
        <time>2025-09-08T08:55:58Z</time>
      </trkpt>
      <trkpt lat="46.1405" lon="4.40803">
        <ele>773.6</ele>
        <time>2025-09-08T08:55:59Z</time>
      </trkpt>
      <trkpt lat="46.14052" lon="4.40801">
        <ele>773.6</ele>
        <time>2025-09-08T08:56:00Z</time>
      </trkpt>
      <trkpt lat="46.14053" lon="4.40799">
        <ele>773.8</ele>
        <time>2025-09-08T08:56:01Z</time>
      </trkpt>
      <trkpt lat="46.14054" lon="4.40798">
        <ele>774.2</ele>
        <time>2025-09-08T08:56:02Z</time>
      </trkpt>
      <trkpt lat="46.14055" lon="4.40797">
        <ele>774.2</ele>
        <time>2025-09-08T08:56:03Z</time>
      </trkpt>
      <trkpt lat="46.14056" lon="4.40795">
        <ele>774.2</ele>
        <time>2025-09-08T08:56:04Z</time>
      </trkpt>
      <trkpt lat="46.14058" lon="4.40793">
        <ele>774.2</ele>
        <time>2025-09-08T08:56:05Z</time>
      </trkpt>
      <trkpt lat="46.14058" lon="4.4079">
        <ele>774.6</ele>
        <time>2025-09-08T08:56:06Z</time>
      </trkpt>
      <trkpt lat="46.14059" lon="4.40788">
        <ele>774.6</ele>
        <time>2025-09-08T08:56:07Z</time>
      </trkpt>
      <trkpt lat="46.1406" lon="4.40786">
        <ele>774.6</ele>
        <time>2025-09-08T08:56:08Z</time>
      </trkpt>
      <trkpt lat="46.1406" lon="4.40785">
        <ele>775</ele>
        <time>2025-09-08T08:56:09Z</time>
      </trkpt>
      <trkpt lat="46.1406" lon="4.40784">
        <ele>775</ele>
        <time>2025-09-08T08:56:10Z</time>
      </trkpt>
      <trkpt lat="46.14062" lon="4.40783">
        <ele>775.6</ele>
        <time>2025-09-08T08:57:05Z</time>
      </trkpt>
      <trkpt lat="46.14062" lon="4.40781">
        <ele>776</ele>
        <time>2025-09-08T08:57:06Z</time>
      </trkpt>
      <trkpt lat="46.14061" lon="4.40778">
        <ele>776</ele>
        <time>2025-09-08T08:57:07Z</time>
      </trkpt>
      <trkpt lat="46.14061" lon="4.40775">
        <ele>776.4</ele>
        <time>2025-09-08T08:57:08Z</time>
      </trkpt>
      <trkpt lat="46.14061" lon="4.40773">
        <ele>776.4</ele>
        <time>2025-09-08T08:57:09Z</time>
      </trkpt>
      <trkpt lat="46.14062" lon="4.4077">
        <ele>776.4</ele>
        <time>2025-09-08T08:57:10Z</time>
      </trkpt>
      <trkpt lat="46.14062" lon="4.40768">
        <ele>776.4</ele>
        <time>2025-09-08T08:57:11Z</time>
      </trkpt>
      <trkpt lat="46.14063" lon="4.40766">
        <ele>776.4</ele>
        <time>2025-09-08T08:57:12Z</time>
      </trkpt>
      <trkpt lat="46.14063" lon="4.40764">
        <ele>776.6</ele>
        <time>2025-09-08T08:57:13Z</time>
      </trkpt>
      <trkpt lat="46.14063" lon="4.40762">
        <ele>776.6</ele>
        <time>2025-09-08T08:57:14Z</time>
      </trkpt>
      <trkpt lat="46.14063" lon="4.4076">
        <ele>776.8</ele>
        <time>2025-09-08T08:57:15Z</time>
      </trkpt>
      <trkpt lat="46.14064" lon="4.40757">
        <ele>776.8</ele>
        <time>2025-09-08T08:57:16Z</time>
      </trkpt>
      <trkpt lat="46.14065" lon="4.40754">
        <ele>776.8</ele>
        <time>2025-09-08T08:57:17Z</time>
      </trkpt>
      <trkpt lat="46.14066" lon="4.40751">
        <ele>777</ele>
        <time>2025-09-08T08:57:18Z</time>
      </trkpt>
      <trkpt lat="46.14067" lon="4.40748">
        <ele>777</ele>
        <time>2025-09-08T08:57:19Z</time>
      </trkpt>
      <trkpt lat="46.14066" lon="4.40746">
        <ele>777</ele>
        <time>2025-09-08T08:57:20Z</time>
      </trkpt>
      <trkpt lat="46.14066" lon="4.40744">
        <ele>777.4</ele>
        <time>2025-09-08T08:57:21Z</time>
      </trkpt>
      <trkpt lat="46.14067" lon="4.40743">
        <ele>777.4</ele>
        <time>2025-09-08T08:57:22Z</time>
      </trkpt>
      <trkpt lat="46.14068" lon="4.40741">
        <ele>777.6</ele>
        <time>2025-09-08T08:57:23Z</time>
      </trkpt>
      <trkpt lat="46.14068" lon="4.4074">
        <ele>777.6</ele>
        <time>2025-09-08T08:57:24Z</time>
      </trkpt>
      <trkpt lat="46.14069" lon="4.40738">
        <ele>777.6</ele>
        <time>2025-09-08T08:57:25Z</time>
      </trkpt>
      <trkpt lat="46.1407" lon="4.40737">
        <ele>777.6</ele>
        <time>2025-09-08T08:57:26Z</time>
      </trkpt>
      <trkpt lat="46.1407" lon="4.40737">
        <ele>777.8</ele>
        <time>2025-09-08T08:57:27Z</time>
      </trkpt>
      <trkpt lat="46.14071" lon="4.40736">
        <ele>777.8</ele>
        <time>2025-09-08T08:57:28Z</time>
      </trkpt>
      <trkpt lat="46.14071" lon="4.40737">
        <ele>777.8</ele>
        <time>2025-09-08T08:57:29Z</time>
      </trkpt>
      <trkpt lat="46.14071" lon="4.40737">
        <ele>777.8</ele>
        <time>2025-09-08T08:57:30Z</time>
      </trkpt>
      <trkpt lat="46.14071" lon="4.40737">
        <ele>777.8</ele>
        <time>2025-09-08T08:57:31Z</time>
      </trkpt>
      <trkpt lat="46.14071" lon="4.40737">
        <ele>777.8</ele>
        <time>2025-09-08T08:57:32Z</time>
      </trkpt>
      <trkpt lat="46.14071" lon="4.40736">
        <ele>777.8</ele>
        <time>2025-09-08T08:57:33Z</time>
      </trkpt>
      <trkpt lat="46.14071" lon="4.40735">
        <ele>777.8</ele>
        <time>2025-09-08T08:57:34Z</time>
      </trkpt>
      <trkpt lat="46.14072" lon="4.40732">
        <ele>777.8</ele>
        <time>2025-09-08T08:57:35Z</time>
      </trkpt>
      <trkpt lat="46.14087" lon="4.40724">
        <ele>778</ele>
        <time>2025-09-08T08:58:16Z</time>
      </trkpt>
      <trkpt lat="46.14089" lon="4.40722">
        <ele>777.6</ele>
        <time>2025-09-08T08:58:17Z</time>
      </trkpt>
      <trkpt lat="46.14092" lon="4.40721">
        <ele>778</ele>
        <time>2025-09-08T08:58:18Z</time>
      </trkpt>
      <trkpt lat="46.14095" lon="4.4072">
        <ele>777.6</ele>
        <time>2025-09-08T08:58:19Z</time>
      </trkpt>
      <trkpt lat="46.14099" lon="4.4072">
        <ele>778.4</ele>
        <time>2025-09-08T08:58:20Z</time>
      </trkpt>
      <trkpt lat="46.14101" lon="4.40719">
        <ele>778</ele>
        <time>2025-09-08T08:58:21Z</time>
      </trkpt>
      <trkpt lat="46.14104" lon="4.40718">
        <ele>777.6</ele>
        <time>2025-09-08T08:58:22Z</time>
      </trkpt>
      <trkpt lat="46.14105" lon="4.40717">
        <ele>777.2</ele>
        <time>2025-09-08T08:58:23Z</time>
      </trkpt>
      <trkpt lat="46.14108" lon="4.40716">
        <ele>777.2</ele>
        <time>2025-09-08T08:58:24Z</time>
      </trkpt>
      <trkpt lat="46.1411" lon="4.40717">
        <ele>777.2</ele>
        <time>2025-09-08T08:58:25Z</time>
      </trkpt>
      <trkpt lat="46.14114" lon="4.40717">
        <ele>777.2</ele>
        <time>2025-09-08T08:58:26Z</time>
      </trkpt>
      <trkpt lat="46.14116" lon="4.40716">
        <ele>777.2</ele>
        <time>2025-09-08T08:58:27Z</time>
      </trkpt>
      <trkpt lat="46.14118" lon="4.40716">
        <ele>777.2</ele>
        <time>2025-09-08T08:58:28Z</time>
      </trkpt>
      <trkpt lat="46.1412" lon="4.40716">
        <ele>777.2</ele>
        <time>2025-09-08T08:58:29Z</time>
      </trkpt>
      <trkpt lat="46.14122" lon="4.40717">
        <ele>777.2</ele>
        <time>2025-09-08T08:58:30Z</time>
      </trkpt>
      <trkpt lat="46.14124" lon="4.4072">
        <ele>777.2</ele>
        <time>2025-09-08T08:58:31Z</time>
      </trkpt>
      <trkpt lat="46.14126" lon="4.40722">
        <ele>777.2</ele>
        <time>2025-09-08T08:58:32Z</time>
      </trkpt>
      <trkpt lat="46.14128" lon="4.40723">
        <ele>777.2</ele>
        <time>2025-09-08T08:58:33Z</time>
      </trkpt>
      <trkpt lat="46.14131" lon="4.40722">
        <ele>777.2</ele>
        <time>2025-09-08T08:58:34Z</time>
      </trkpt>
      <trkpt lat="46.14135" lon="4.40721">
        <ele>777.4</ele>
        <time>2025-09-08T08:58:35Z</time>
      </trkpt>
      <trkpt lat="46.14138" lon="4.40721">
        <ele>777.4</ele>
        <time>2025-09-08T08:58:36Z</time>
      </trkpt>
      <trkpt lat="46.1414" lon="4.4072">
        <ele>777.4</ele>
        <time>2025-09-08T08:58:37Z</time>
      </trkpt>
      <trkpt lat="46.14143" lon="4.40719">
        <ele>777.4</ele>
        <time>2025-09-08T08:58:38Z</time>
      </trkpt>
      <trkpt lat="46.14146" lon="4.40718">
        <ele>777.6</ele>
        <time>2025-09-08T08:58:39Z</time>
      </trkpt>
      <trkpt lat="46.14148" lon="4.40717">
        <ele>778</ele>
        <time>2025-09-08T08:58:40Z</time>
      </trkpt>
      <trkpt lat="46.1415" lon="4.40716">
        <ele>778.6</ele>
        <time>2025-09-08T08:58:41Z</time>
      </trkpt>
      <trkpt lat="46.14151" lon="4.40716">
        <ele>778.4</ele>
        <time>2025-09-08T08:58:42Z</time>
      </trkpt>
      <trkpt lat="46.14153" lon="4.40716">
        <ele>778.6</ele>
        <time>2025-09-08T08:58:43Z</time>
      </trkpt>
      <trkpt lat="46.14154" lon="4.40715">
        <ele>778.6</ele>
        <time>2025-09-08T08:58:44Z</time>
      </trkpt>
      <trkpt lat="46.14155" lon="4.40715">
        <ele>778.6</ele>
        <time>2025-09-08T08:58:45Z</time>
      </trkpt>
      <trkpt lat="46.14157" lon="4.40715">
        <ele>779</ele>
        <time>2025-09-08T08:58:46Z</time>
      </trkpt>
      <trkpt lat="46.14159" lon="4.40716">
        <ele>779.4</ele>
        <time>2025-09-08T08:58:47Z</time>
      </trkpt>
      <trkpt lat="46.1416" lon="4.40716">
        <ele>779.4</ele>
        <time>2025-09-08T08:58:48Z</time>
      </trkpt>
      <trkpt lat="46.14161" lon="4.40717">
        <ele>779.4</ele>
        <time>2025-09-08T08:58:49Z</time>
      </trkpt>
      <trkpt lat="46.14163" lon="4.40717">
        <ele>779.4</ele>
        <time>2025-09-08T08:58:50Z</time>
      </trkpt>
      <trkpt lat="46.14165" lon="4.40718">
        <ele>779.6</ele>
        <time>2025-09-08T08:58:51Z</time>
      </trkpt>
      <trkpt lat="46.14166" lon="4.40719">
        <ele>779.6</ele>
        <time>2025-09-08T08:58:52Z</time>
      </trkpt>
      <trkpt lat="46.14167" lon="4.4072">
        <ele>779.6</ele>
        <time>2025-09-08T08:58:53Z</time>
      </trkpt>
      <trkpt lat="46.14168" lon="4.40721">
        <ele>779.8</ele>
        <time>2025-09-08T08:58:54Z</time>
      </trkpt>
      <trkpt lat="46.1417" lon="4.40721">
        <ele>780.2</ele>
        <time>2025-09-08T08:58:55Z</time>
      </trkpt>
      <trkpt lat="46.14172" lon="4.4072">
        <ele>780.2</ele>
        <time>2025-09-08T08:58:56Z</time>
      </trkpt>
      <trkpt lat="46.14173" lon="4.40719">
        <ele>780.4</ele>
        <time>2025-09-08T08:58:57Z</time>
      </trkpt>
      <trkpt lat="46.14174" lon="4.40718">
        <ele>780.6</ele>
        <time>2025-09-08T08:58:58Z</time>
      </trkpt>
      <trkpt lat="46.14176" lon="4.40717">
        <ele>780.6</ele>
        <time>2025-09-08T08:58:59Z</time>
      </trkpt>
      <trkpt lat="46.14177" lon="4.40716">
        <ele>780.8</ele>
        <time>2025-09-08T08:59:00Z</time>
      </trkpt>
      <trkpt lat="46.14177" lon="4.40716">
        <ele>780.8</ele>
        <time>2025-09-08T08:59:01Z</time>
      </trkpt>
      <trkpt lat="46.14177" lon="4.40716">
        <ele>781.2</ele>
        <time>2025-09-08T08:59:02Z</time>
      </trkpt>
      <trkpt lat="46.1418" lon="4.40716">
        <ele>781.2</ele>
        <time>2025-09-08T08:59:03Z</time>
      </trkpt>
      <trkpt lat="46.14181" lon="4.40716">
        <ele>781.4</ele>
        <time>2025-09-08T08:59:04Z</time>
      </trkpt>
      <trkpt lat="46.14183" lon="4.40715">
        <ele>781.4</ele>
        <time>2025-09-08T08:59:05Z</time>
      </trkpt>
      <trkpt lat="46.14185" lon="4.40715">
        <ele>781.8</ele>
        <time>2025-09-08T08:59:06Z</time>
      </trkpt>
      <trkpt lat="46.14186" lon="4.40714">
        <ele>781.8</ele>
        <time>2025-09-08T08:59:07Z</time>
      </trkpt>
      <trkpt lat="46.14187" lon="4.40713">
        <ele>781.8</ele>
        <time>2025-09-08T08:59:08Z</time>
      </trkpt>
      <trkpt lat="46.14188" lon="4.40712">
        <ele>781.8</ele>
        <time>2025-09-08T08:59:09Z</time>
      </trkpt>
      <trkpt lat="46.14189" lon="4.40712">
        <ele>781.8</ele>
        <time>2025-09-08T08:59:10Z</time>
      </trkpt>
      <trkpt lat="46.1419" lon="4.40711">
        <ele>781.8</ele>
        <time>2025-09-08T08:59:11Z</time>
      </trkpt>
      <trkpt lat="46.14191" lon="4.4071">
        <ele>782.2</ele>
        <time>2025-09-08T08:59:12Z</time>
      </trkpt>
      <trkpt lat="46.14192" lon="4.4071">
        <ele>782.2</ele>
        <time>2025-09-08T08:59:13Z</time>
      </trkpt>
      <trkpt lat="46.14193" lon="4.40709">
        <ele>782.2</ele>
        <time>2025-09-08T08:59:14Z</time>
      </trkpt>
      <trkpt lat="46.14194" lon="4.40708">
        <ele>782.6</ele>
        <time>2025-09-08T08:59:15Z</time>
      </trkpt>
      <trkpt lat="46.14195" lon="4.40707">
        <ele>783.8</ele>
        <time>2025-09-08T08:59:16Z</time>
      </trkpt>
      <trkpt lat="46.14196" lon="4.40707">
        <ele>783.4</ele>
        <time>2025-09-08T08:59:17Z</time>
      </trkpt>
      <trkpt lat="46.14196" lon="4.40706">
        <ele>783.4</ele>
        <time>2025-09-08T08:59:18Z</time>
      </trkpt>
      <trkpt lat="46.142" lon="4.40703">
        <ele>783.8</ele>
        <time>2025-09-08T08:59:31Z</time>
      </trkpt>
      <trkpt lat="46.14201" lon="4.40702">
        <ele>783.8</ele>
        <time>2025-09-08T08:59:32Z</time>
      </trkpt>
      <trkpt lat="46.14202" lon="4.40701">
        <ele>783.8</ele>
        <time>2025-09-08T08:59:33Z</time>
      </trkpt>
      <trkpt lat="46.14203" lon="4.40701">
        <ele>783.8</ele>
        <time>2025-09-08T08:59:34Z</time>
      </trkpt>
      <trkpt lat="46.14204" lon="4.407">
        <ele>783.8</ele>
        <time>2025-09-08T08:59:35Z</time>
      </trkpt>
      <trkpt lat="46.14204" lon="4.407">
        <ele>783.8</ele>
        <time>2025-09-08T08:59:36Z</time>
      </trkpt>
      <trkpt lat="46.14205" lon="4.407">
        <ele>783.8</ele>
        <time>2025-09-08T08:59:37Z</time>
      </trkpt>
      <trkpt lat="46.14206" lon="4.40699">
        <ele>784</ele>
        <time>2025-09-08T08:59:38Z</time>
      </trkpt>
      <trkpt lat="46.14207" lon="4.40698">
        <ele>784</ele>
        <time>2025-09-08T08:59:39Z</time>
      </trkpt>
      <trkpt lat="46.14207" lon="4.40697">
        <ele>784</ele>
        <time>2025-09-08T08:59:40Z</time>
      </trkpt>
      <trkpt lat="46.14208" lon="4.40696">
        <ele>784.4</ele>
        <time>2025-09-08T08:59:41Z</time>
      </trkpt>
      <trkpt lat="46.14209" lon="4.40695">
        <ele>784.4</ele>
        <time>2025-09-08T08:59:42Z</time>
      </trkpt>
      <trkpt lat="46.1421" lon="4.40694">
        <ele>784.6</ele>
        <time>2025-09-08T08:59:43Z</time>
      </trkpt>
      <trkpt lat="46.14211" lon="4.40693">
        <ele>784.6</ele>
        <time>2025-09-08T08:59:44Z</time>
      </trkpt>
      <trkpt lat="46.14212" lon="4.40692">
        <ele>784.6</ele>
        <time>2025-09-08T08:59:45Z</time>
      </trkpt>
      <trkpt lat="46.14214" lon="4.40691">
        <ele>784.6</ele>
        <time>2025-09-08T08:59:46Z</time>
      </trkpt>
      <trkpt lat="46.14215" lon="4.40691">
        <ele>784.6</ele>
        <time>2025-09-08T08:59:47Z</time>
      </trkpt>
      <trkpt lat="46.14216" lon="4.4069">
        <ele>785</ele>
        <time>2025-09-08T08:59:48Z</time>
      </trkpt>
      <trkpt lat="46.14216" lon="4.40689">
        <ele>785</ele>
        <time>2025-09-08T08:59:49Z</time>
      </trkpt>
      <trkpt lat="46.14216" lon="4.40688">
        <ele>785</ele>
        <time>2025-09-08T08:59:50Z</time>
      </trkpt>
      <trkpt lat="46.14216" lon="4.40687">
        <ele>785.4</ele>
        <time>2025-09-08T08:59:51Z</time>
      </trkpt>
      <trkpt lat="46.14217" lon="4.40683">
        <ele>785</ele>
        <time>2025-09-08T09:00:12Z</time>
      </trkpt>
      <trkpt lat="46.14217" lon="4.40683">
        <ele>785</ele>
        <time>2025-09-08T09:00:13Z</time>
      </trkpt>
      <trkpt lat="46.14218" lon="4.40682">
        <ele>785.4</ele>
        <time>2025-09-08T09:00:14Z</time>
      </trkpt>
      <trkpt lat="46.1422" lon="4.40682">
        <ele>785.4</ele>
        <time>2025-09-08T09:00:15Z</time>
      </trkpt>
      <trkpt lat="46.14222" lon="4.40681">
        <ele>785.4</ele>
        <time>2025-09-08T09:00:16Z</time>
      </trkpt>
      <trkpt lat="46.14223" lon="4.40679">
        <ele>785.4</ele>
        <time>2025-09-08T09:00:17Z</time>
      </trkpt>
      <trkpt lat="46.14224" lon="4.40678">
        <ele>785.6</ele>
        <time>2025-09-08T09:00:18Z</time>
      </trkpt>
      <trkpt lat="46.14225" lon="4.40676">
        <ele>785.6</ele>
        <time>2025-09-08T09:00:19Z</time>
      </trkpt>
      <trkpt lat="46.14226" lon="4.40674">
        <ele>785.6</ele>
        <time>2025-09-08T09:00:20Z</time>
      </trkpt>
      <trkpt lat="46.14228" lon="4.40672">
        <ele>785.8</ele>
        <time>2025-09-08T09:00:21Z</time>
      </trkpt>
      <trkpt lat="46.1423" lon="4.4067">
        <ele>785.8</ele>
        <time>2025-09-08T09:00:22Z</time>
      </trkpt>
      <trkpt lat="46.14232" lon="4.40669">
        <ele>785.8</ele>
        <time>2025-09-08T09:00:23Z</time>
      </trkpt>
      <trkpt lat="46.14234" lon="4.40667">
        <ele>786.2</ele>
        <time>2025-09-08T09:00:24Z</time>
      </trkpt>
      <trkpt lat="46.14236" lon="4.40665">
        <ele>786.2</ele>
        <time>2025-09-08T09:00:25Z</time>
      </trkpt>
      <trkpt lat="46.14237" lon="4.40663">
        <ele>785.8</ele>
        <time>2025-09-08T09:00:26Z</time>
      </trkpt>
      <trkpt lat="46.14238" lon="4.4066">
        <ele>785.8</ele>
        <time>2025-09-08T09:00:27Z</time>
      </trkpt>
      <trkpt lat="46.14238" lon="4.40657">
        <ele>785.6</ele>
        <time>2025-09-08T09:00:28Z</time>
      </trkpt>
      <trkpt lat="46.14239" lon="4.40655">
        <ele>785.6</ele>
        <time>2025-09-08T09:00:29Z</time>
      </trkpt>
      <trkpt lat="46.1424" lon="4.40653">
        <ele>785.8</ele>
        <time>2025-09-08T09:00:30Z</time>
      </trkpt>
      <trkpt lat="46.14241" lon="4.40651">
        <ele>785.8</ele>
        <time>2025-09-08T09:00:31Z</time>
      </trkpt>
      <trkpt lat="46.14242" lon="4.40648">
        <ele>786.2</ele>
        <time>2025-09-08T09:00:32Z</time>
      </trkpt>
      <trkpt lat="46.14243" lon="4.40645">
        <ele>786.2</ele>
        <time>2025-09-08T09:00:33Z</time>
      </trkpt>
      <trkpt lat="46.14245" lon="4.40644">
        <ele>786.2</ele>
        <time>2025-09-08T09:00:34Z</time>
      </trkpt>
      <trkpt lat="46.14246" lon="4.40642">
        <ele>786.4</ele>
        <time>2025-09-08T09:00:35Z</time>
      </trkpt>
      <trkpt lat="46.14247" lon="4.40639">
        <ele>786.4</ele>
        <time>2025-09-08T09:00:36Z</time>
      </trkpt>
      <trkpt lat="46.14248" lon="4.40637">
        <ele>786.4</ele>
        <time>2025-09-08T09:00:37Z</time>
      </trkpt>
      <trkpt lat="46.14248" lon="4.40635">
        <ele>786.4</ele>
        <time>2025-09-08T09:00:38Z</time>
      </trkpt>
      <trkpt lat="46.14249" lon="4.40633">
        <ele>786.4</ele>
        <time>2025-09-08T09:00:39Z</time>
      </trkpt>
      <trkpt lat="46.14249" lon="4.4063">
        <ele>786.4</ele>
        <time>2025-09-08T09:00:40Z</time>
      </trkpt>
      <trkpt lat="46.14251" lon="4.40626">
        <ele>786.4</ele>
        <time>2025-09-08T09:00:41Z</time>
      </trkpt>
      <trkpt lat="46.14252" lon="4.40624">
        <ele>786.4</ele>
        <time>2025-09-08T09:00:42Z</time>
      </trkpt>
      <trkpt lat="46.14253" lon="4.40621">
        <ele>786.4</ele>
        <time>2025-09-08T09:00:43Z</time>
      </trkpt>
      <trkpt lat="46.14254" lon="4.40619">
        <ele>786.4</ele>
        <time>2025-09-08T09:00:44Z</time>
      </trkpt>
      <trkpt lat="46.14255" lon="4.40616">
        <ele>786.4</ele>
        <time>2025-09-08T09:00:45Z</time>
      </trkpt>
      <trkpt lat="46.14256" lon="4.40615">
        <ele>786.4</ele>
        <time>2025-09-08T09:00:46Z</time>
      </trkpt>
      <trkpt lat="46.14256" lon="4.40614">
        <ele>786.4</ele>
        <time>2025-09-08T09:00:47Z</time>
      </trkpt>
      <trkpt lat="46.14257" lon="4.40614">
        <ele>786.6</ele>
        <time>2025-09-08T09:00:48Z</time>
      </trkpt>
      <trkpt lat="46.14257" lon="4.40613">
        <ele>786.6</ele>
        <time>2025-09-08T09:00:49Z</time>
      </trkpt>
      <trkpt lat="46.14258" lon="4.40612">
        <ele>786.6</ele>
        <time>2025-09-08T09:00:50Z</time>
      </trkpt>
      <trkpt lat="46.1426" lon="4.4061">
        <ele>786.8</ele>
        <time>2025-09-08T09:00:51Z</time>
      </trkpt>
      <trkpt lat="46.1426" lon="4.40609">
        <ele>786.8</ele>
        <time>2025-09-08T09:00:52Z</time>
      </trkpt>
      <trkpt lat="46.1426" lon="4.40607">
        <ele>786.8</ele>
        <time>2025-09-08T09:00:53Z</time>
      </trkpt>
      <trkpt lat="46.1426" lon="4.40607">
        <ele>787</ele>
        <time>2025-09-08T09:00:54Z</time>
      </trkpt>
      <trkpt lat="46.1426" lon="4.40607">
        <ele>787</ele>
        <time>2025-09-08T09:00:55Z</time>
      </trkpt>
      <trkpt lat="46.14261" lon="4.40608">
        <ele>786.8</ele>
        <time>2025-09-08T09:01:01Z</time>
      </trkpt>
      <trkpt lat="46.14262" lon="4.40608">
        <ele>786.6</ele>
        <time>2025-09-08T09:01:02Z</time>
      </trkpt>
      <trkpt lat="46.14262" lon="4.40608">
        <ele>786.6</ele>
        <time>2025-09-08T09:01:03Z</time>
      </trkpt>
      <trkpt lat="46.14263" lon="4.40613">
        <ele>786.8</ele>
        <time>2025-09-08T09:01:25Z</time>
      </trkpt>
      <trkpt lat="46.14264" lon="4.40614">
        <ele>786.8</ele>
        <time>2025-09-08T09:01:26Z</time>
      </trkpt>
      <trkpt lat="46.14264" lon="4.40616">
        <ele>786.8</ele>
        <time>2025-09-08T09:01:27Z</time>
      </trkpt>
      <trkpt lat="46.14246" lon="4.4061">
        <ele>787</ele>
        <time>2025-09-08T09:04:11Z</time>
      </trkpt>
      <trkpt lat="46.14245" lon="4.4061">
        <ele>787</ele>
        <time>2025-09-08T09:04:12Z</time>
      </trkpt>
      <trkpt lat="46.14244" lon="4.4061">
        <ele>787.2</ele>
        <time>2025-09-08T09:04:13Z</time>
      </trkpt>
      <trkpt lat="46.14244" lon="4.4061">
        <ele>787.2</ele>
        <time>2025-09-08T09:04:14Z</time>
      </trkpt>
      <trkpt lat="46.14244" lon="4.4061">
        <ele>787.2</ele>
        <time>2025-09-08T09:04:15Z</time>
      </trkpt>
      <trkpt lat="46.14245" lon="4.4061">
        <ele>787.6</ele>
        <time>2025-09-08T09:04:16Z</time>
      </trkpt>
      <trkpt lat="46.14246" lon="4.40609">
        <ele>787.6</ele>
        <time>2025-09-08T09:04:17Z</time>
      </trkpt>
      <trkpt lat="46.14247" lon="4.40608">
        <ele>787.6</ele>
        <time>2025-09-08T09:04:18Z</time>
      </trkpt>
      <trkpt lat="46.14247" lon="4.40607">
        <ele>787.6</ele>
        <time>2025-09-08T09:04:19Z</time>
      </trkpt>
      <trkpt lat="46.14248" lon="4.40607">
        <ele>787.6</ele>
        <time>2025-09-08T09:04:20Z</time>
      </trkpt>
      <trkpt lat="46.14249" lon="4.40607">
        <ele>787.8</ele>
        <time>2025-09-08T09:04:21Z</time>
      </trkpt>
      <trkpt lat="46.1425" lon="4.40607">
        <ele>787.8</ele>
        <time>2025-09-08T09:04:22Z</time>
      </trkpt>
      <trkpt lat="46.1425" lon="4.40608">
        <ele>788</ele>
        <time>2025-09-08T09:04:23Z</time>
      </trkpt>
      <trkpt lat="46.14249" lon="4.4061">
        <ele>788</ele>
        <time>2025-09-08T09:04:24Z</time>
      </trkpt>
      <trkpt lat="46.14248" lon="4.40611">
        <ele>788.4</ele>
        <time>2025-09-08T09:04:25Z</time>
      </trkpt>
      <trkpt lat="46.14247" lon="4.40613">
        <ele>788.4</ele>
        <time>2025-09-08T09:04:26Z</time>
      </trkpt>
      <trkpt lat="46.14246" lon="4.40614">
        <ele>788.8</ele>
        <time>2025-09-08T09:04:27Z</time>
      </trkpt>
      <trkpt lat="46.14246" lon="4.40614">
        <ele>788.8</ele>
        <time>2025-09-08T09:04:28Z</time>
      </trkpt>
      <trkpt lat="46.14246" lon="4.40615">
        <ele>789</ele>
        <time>2025-09-08T09:04:29Z</time>
      </trkpt>
      <trkpt lat="46.14245" lon="4.40616">
        <ele>789</ele>
        <time>2025-09-08T09:04:30Z</time>
      </trkpt>
      <trkpt lat="46.14244" lon="4.4062">
        <ele>790</ele>
        <time>2025-09-08T09:04:35Z</time>
      </trkpt>
      <trkpt lat="46.14243" lon="4.4062">
        <ele>790</ele>
        <time>2025-09-08T09:04:36Z</time>
      </trkpt>
      <trkpt lat="46.14241" lon="4.4062">
        <ele>790.2</ele>
        <time>2025-09-08T09:04:37Z</time>
      </trkpt>
      <trkpt lat="46.1424" lon="4.4062">
        <ele>790.4</ele>
        <time>2025-09-08T09:04:38Z</time>
      </trkpt>
      <trkpt lat="46.14239" lon="4.40621">
        <ele>790.4</ele>
        <time>2025-09-08T09:04:39Z</time>
      </trkpt>
      <trkpt lat="46.14238" lon="4.40622">
        <ele>790.6</ele>
        <time>2025-09-08T09:04:40Z</time>
      </trkpt>
      <trkpt lat="46.14238" lon="4.40622">
        <ele>790.6</ele>
        <time>2025-09-08T09:04:41Z</time>
      </trkpt>
      <trkpt lat="46.14237" lon="4.40623">
        <ele>790.6</ele>
        <time>2025-09-08T09:04:42Z</time>
      </trkpt>
      <trkpt lat="46.14234" lon="4.40626">
        <ele>792.2</ele>
        <time>2025-09-08T09:04:54Z</time>
      </trkpt>
      <trkpt lat="46.14232" lon="4.40628">
        <ele>792.2</ele>
        <time>2025-09-08T09:04:55Z</time>
      </trkpt>
      <trkpt lat="46.14231" lon="4.40628">
        <ele>792.4</ele>
        <time>2025-09-08T09:04:56Z</time>
      </trkpt>
      <trkpt lat="46.1423" lon="4.40629">
        <ele>792.4</ele>
        <time>2025-09-08T09:04:57Z</time>
      </trkpt>
      <trkpt lat="46.14229" lon="4.4063">
        <ele>792.6</ele>
        <time>2025-09-08T09:04:58Z</time>
      </trkpt>
      <trkpt lat="46.14228" lon="4.40631">
        <ele>792.6</ele>
        <time>2025-09-08T09:04:59Z</time>
      </trkpt>
      <trkpt lat="46.14228" lon="4.40632">
        <ele>792.6</ele>
        <time>2025-09-08T09:05:00Z</time>
      </trkpt>
      <trkpt lat="46.14227" lon="4.40633">
        <ele>794.2</ele>
        <time>2025-09-08T09:05:14Z</time>
      </trkpt>
      <trkpt lat="46.14228" lon="4.40632">
        <ele>793.8</ele>
        <time>2025-09-08T09:05:15Z</time>
      </trkpt>
      <trkpt lat="46.14228" lon="4.40631">
        <ele>792.6</ele>
        <time>2025-09-08T09:05:16Z</time>
      </trkpt>
      <trkpt lat="46.14227" lon="4.40632">
        <ele>793.2</ele>
        <time>2025-09-08T09:05:59Z</time>
      </trkpt>
      <trkpt lat="46.14226" lon="4.40633">
        <ele>793.2</ele>
        <time>2025-09-08T09:06:00Z</time>
      </trkpt>
      <trkpt lat="46.14225" lon="4.40633">
        <ele>793.6</ele>
        <time>2025-09-08T09:06:01Z</time>
      </trkpt>
      <trkpt lat="46.14224" lon="4.40634">
        <ele>793.6</ele>
        <time>2025-09-08T09:06:02Z</time>
      </trkpt>
      <trkpt lat="46.14223" lon="4.40634">
        <ele>794</ele>
        <time>2025-09-08T09:06:03Z</time>
      </trkpt>
      <trkpt lat="46.14221" lon="4.40634">
        <ele>794</ele>
        <time>2025-09-08T09:06:04Z</time>
      </trkpt>
      <trkpt lat="46.1422" lon="4.40636">
        <ele>794</ele>
        <time>2025-09-08T09:06:05Z</time>
      </trkpt>
      <trkpt lat="46.14212" lon="4.40641">
        <ele>795.4</ele>
        <time>2025-09-08T09:06:14Z</time>
      </trkpt>
      <trkpt lat="46.14211" lon="4.40641">
        <ele>795.8</ele>
        <time>2025-09-08T09:06:15Z</time>
      </trkpt>
      <trkpt lat="46.1421" lon="4.40641">
        <ele>795.8</ele>
        <time>2025-09-08T09:06:16Z</time>
      </trkpt>
      <trkpt lat="46.14209" lon="4.40641">
        <ele>796.2</ele>
        <time>2025-09-08T09:06:17Z</time>
      </trkpt>
      <trkpt lat="46.14208" lon="4.40641">
        <ele>796.2</ele>
        <time>2025-09-08T09:06:18Z</time>
      </trkpt>
      <trkpt lat="46.14207" lon="4.40641">
        <ele>796.4</ele>
        <time>2025-09-08T09:06:19Z</time>
      </trkpt>
      <trkpt lat="46.14206" lon="4.4064">
        <ele>796.4</ele>
        <time>2025-09-08T09:06:20Z</time>
      </trkpt>
      <trkpt lat="46.14205" lon="4.4064">
        <ele>796.8</ele>
        <time>2025-09-08T09:06:21Z</time>
      </trkpt>
      <trkpt lat="46.14203" lon="4.40641">
        <ele>796.8</ele>
        <time>2025-09-08T09:06:22Z</time>
      </trkpt>
      <trkpt lat="46.14201" lon="4.40642">
        <ele>796.8</ele>
        <time>2025-09-08T09:06:23Z</time>
      </trkpt>
      <trkpt lat="46.14199" lon="4.40643">
        <ele>796.8</ele>
        <time>2025-09-08T09:06:24Z</time>
      </trkpt>
      <trkpt lat="46.14197" lon="4.40644">
        <ele>797</ele>
        <time>2025-09-08T09:06:25Z</time>
      </trkpt>
      <trkpt lat="46.14196" lon="4.40644">
        <ele>797.2</ele>
        <time>2025-09-08T09:06:26Z</time>
      </trkpt>
      <trkpt lat="46.14195" lon="4.40644">
        <ele>797.2</ele>
        <time>2025-09-08T09:06:27Z</time>
      </trkpt>
      <trkpt lat="46.14193" lon="4.40644">
        <ele>797.4</ele>
        <time>2025-09-08T09:06:28Z</time>
      </trkpt>
      <trkpt lat="46.14192" lon="4.40644">
        <ele>797.6</ele>
        <time>2025-09-08T09:06:29Z</time>
      </trkpt>
      <trkpt lat="46.14191" lon="4.40644">
        <ele>797.6</ele>
        <time>2025-09-08T09:06:30Z</time>
      </trkpt>
      <trkpt lat="46.1419" lon="4.40644">
        <ele>797.8</ele>
        <time>2025-09-08T09:06:31Z</time>
      </trkpt>
      <trkpt lat="46.1419" lon="4.40644">
        <ele>797.8</ele>
        <time>2025-09-08T09:06:32Z</time>
      </trkpt>
      <trkpt lat="46.14189" lon="4.40643">
        <ele>797.8</ele>
        <time>2025-09-08T09:06:33Z</time>
      </trkpt>
      <trkpt lat="46.14188" lon="4.40643">
        <ele>797.8</ele>
        <time>2025-09-08T09:06:34Z</time>
      </trkpt>
      <trkpt lat="46.14187" lon="4.40642">
        <ele>798.2</ele>
        <time>2025-09-08T09:06:35Z</time>
      </trkpt>
      <trkpt lat="46.14186" lon="4.40642">
        <ele>798.2</ele>
        <time>2025-09-08T09:06:36Z</time>
      </trkpt>
      <trkpt lat="46.14185" lon="4.40642">
        <ele>798.4</ele>
        <time>2025-09-08T09:06:37Z</time>
      </trkpt>
      <trkpt lat="46.14184" lon="4.40642">
        <ele>798.4</ele>
        <time>2025-09-08T09:06:38Z</time>
      </trkpt>
      <trkpt lat="46.14184" lon="4.40642">
        <ele>798.4</ele>
        <time>2025-09-08T09:06:39Z</time>
      </trkpt>
      <trkpt lat="46.14183" lon="4.40642">
        <ele>798.6</ele>
        <time>2025-09-08T09:06:42Z</time>
      </trkpt>
      <trkpt lat="46.14182" lon="4.40641">
        <ele>799</ele>
        <time>2025-09-08T09:06:43Z</time>
      </trkpt>
      <trkpt lat="46.14182" lon="4.4064">
        <ele>799</ele>
        <time>2025-09-08T09:06:44Z</time>
      </trkpt>
      <trkpt lat="46.14181" lon="4.4064">
        <ele>799.2</ele>
        <time>2025-09-08T09:06:45Z</time>
      </trkpt>
      <trkpt lat="46.1418" lon="4.40639">
        <ele>799.4</ele>
        <time>2025-09-08T09:06:46Z</time>
      </trkpt>
      <trkpt lat="46.1418" lon="4.40639">
        <ele>799.4</ele>
        <time>2025-09-08T09:06:47Z</time>
      </trkpt>
      <trkpt lat="46.14179" lon="4.40638">
        <ele>799.6</ele>
        <time>2025-09-08T09:06:48Z</time>
      </trkpt>
      <trkpt lat="46.14179" lon="4.40638">
        <ele>799.6</ele>
        <time>2025-09-08T09:06:49Z</time>
      </trkpt>
      <trkpt lat="46.14178" lon="4.40638">
        <ele>799.6</ele>
        <time>2025-09-08T09:06:50Z</time>
      </trkpt>
      <trkpt lat="46.14178" lon="4.40638">
        <ele>799.6</ele>
        <time>2025-09-08T09:06:51Z</time>
      </trkpt>
      <trkpt lat="46.14178" lon="4.40638">
        <ele>800</ele>
        <time>2025-09-08T09:06:52Z</time>
      </trkpt>
      <trkpt lat="46.14176" lon="4.40638">
        <ele>800</ele>
        <time>2025-09-08T09:06:53Z</time>
      </trkpt>
      <trkpt lat="46.14174" lon="4.40638">
        <ele>800.2</ele>
        <time>2025-09-08T09:06:54Z</time>
      </trkpt>
      <trkpt lat="46.14173" lon="4.40637">
        <ele>800.2</ele>
        <time>2025-09-08T09:06:55Z</time>
      </trkpt>
      <trkpt lat="46.14172" lon="4.40636">
        <ele>800.2</ele>
        <time>2025-09-08T09:06:56Z</time>
      </trkpt>
      <trkpt lat="46.14171" lon="4.40636">
        <ele>800.4</ele>
        <time>2025-09-08T09:06:57Z</time>
      </trkpt>
      <trkpt lat="46.1417" lon="4.40636">
        <ele>800.4</ele>
        <time>2025-09-08T09:06:58Z</time>
      </trkpt>
      <trkpt lat="46.14169" lon="4.40636">
        <ele>800.4</ele>
        <time>2025-09-08T09:06:59Z</time>
      </trkpt>
      <trkpt lat="46.14168" lon="4.40636">
        <ele>800.4</ele>
        <time>2025-09-08T09:07:00Z</time>
      </trkpt>
      <trkpt lat="46.14167" lon="4.40635">
        <ele>800.4</ele>
        <time>2025-09-08T09:07:01Z</time>
      </trkpt>
      <trkpt lat="46.14165" lon="4.40635">
        <ele>800.4</ele>
        <time>2025-09-08T09:07:02Z</time>
      </trkpt>
      <trkpt lat="46.14164" lon="4.40635">
        <ele>800.6</ele>
        <time>2025-09-08T09:07:03Z</time>
      </trkpt>
      <trkpt lat="46.14163" lon="4.40635">
        <ele>800.6</ele>
        <time>2025-09-08T09:07:04Z</time>
      </trkpt>
      <trkpt lat="46.14162" lon="4.40635">
        <ele>801</ele>
        <time>2025-09-08T09:07:05Z</time>
      </trkpt>
      <trkpt lat="46.14161" lon="4.40636">
        <ele>801</ele>
        <time>2025-09-08T09:07:06Z</time>
      </trkpt>
      <trkpt lat="46.14161" lon="4.40636">
        <ele>801.2</ele>
        <time>2025-09-08T09:07:07Z</time>
      </trkpt>
      <trkpt lat="46.1416" lon="4.40637">
        <ele>801.2</ele>
        <time>2025-09-08T09:07:08Z</time>
      </trkpt>
      <trkpt lat="46.1416" lon="4.40638">
        <ele>801.2</ele>
        <time>2025-09-08T09:07:09Z</time>
      </trkpt>
      <trkpt lat="46.14159" lon="4.40639">
        <ele>801.6</ele>
        <time>2025-09-08T09:07:10Z</time>
      </trkpt>
      <trkpt lat="46.14159" lon="4.4064">
        <ele>801.6</ele>
        <time>2025-09-08T09:07:11Z</time>
      </trkpt>
      <trkpt lat="46.14159" lon="4.40641">
        <ele>801.6</ele>
        <time>2025-09-08T09:07:12Z</time>
      </trkpt>
      <trkpt lat="46.14158" lon="4.40641">
        <ele>801.6</ele>
        <time>2025-09-08T09:07:13Z</time>
      </trkpt>
      <trkpt lat="46.14158" lon="4.40641">
        <ele>801.6</ele>
        <time>2025-09-08T09:07:14Z</time>
      </trkpt>
      <trkpt lat="46.14158" lon="4.40641">
        <ele>801.6</ele>
        <time>2025-09-08T09:07:15Z</time>
      </trkpt>
      <trkpt lat="46.14151" lon="4.40641">
        <ele>803</ele>
        <time>2025-09-08T09:07:39Z</time>
      </trkpt>
      <trkpt lat="46.1415" lon="4.40642">
        <ele>803.2</ele>
        <time>2025-09-08T09:07:40Z</time>
      </trkpt>
      <trkpt lat="46.14149" lon="4.40642">
        <ele>803.2</ele>
        <time>2025-09-08T09:07:41Z</time>
      </trkpt>
      <trkpt lat="46.14149" lon="4.40642">
        <ele>803.2</ele>
        <time>2025-09-08T09:07:42Z</time>
      </trkpt>
      <trkpt lat="46.14147" lon="4.40641">
        <ele>803.6</ele>
        <time>2025-09-08T09:07:43Z</time>
      </trkpt>
      <trkpt lat="46.14145" lon="4.4064">
        <ele>803.6</ele>
        <time>2025-09-08T09:07:44Z</time>
      </trkpt>
      <trkpt lat="46.14143" lon="4.40639">
        <ele>803.6</ele>
        <time>2025-09-08T09:07:45Z</time>
      </trkpt>
      <trkpt lat="46.14142" lon="4.40638">
        <ele>803.8</ele>
        <time>2025-09-08T09:07:46Z</time>
      </trkpt>
      <trkpt lat="46.14141" lon="4.40637">
        <ele>804</ele>
        <time>2025-09-08T09:07:47Z</time>
      </trkpt>
      <trkpt lat="46.1414" lon="4.40636">
        <ele>804</ele>
        <time>2025-09-08T09:07:48Z</time>
      </trkpt>
      <trkpt lat="46.14139" lon="4.40635">
        <ele>804</ele>
        <time>2025-09-08T09:07:49Z</time>
      </trkpt>
      <trkpt lat="46.14138" lon="4.40635">
        <ele>804</ele>
        <time>2025-09-08T09:07:50Z</time>
      </trkpt>
      <trkpt lat="46.14136" lon="4.40635">
        <ele>804.2</ele>
        <time>2025-09-08T09:07:51Z</time>
      </trkpt>
      <trkpt lat="46.14135" lon="4.40635">
        <ele>804.2</ele>
        <time>2025-09-08T09:07:52Z</time>
      </trkpt>
      <trkpt lat="46.14134" lon="4.40636">
        <ele>804.4</ele>
        <time>2025-09-08T09:07:53Z</time>
      </trkpt>
      <trkpt lat="46.14134" lon="4.40636">
        <ele>804.4</ele>
        <time>2025-09-08T09:07:54Z</time>
      </trkpt>
      <trkpt lat="46.14134" lon="4.40637">
        <ele>804.4</ele>
        <time>2025-09-08T09:07:55Z</time>
      </trkpt>
      <trkpt lat="46.14132" lon="4.40637">
        <ele>804.4</ele>
        <time>2025-09-08T09:07:56Z</time>
      </trkpt>
      <trkpt lat="46.14131" lon="4.40637">
        <ele>804.6</ele>
        <time>2025-09-08T09:07:57Z</time>
      </trkpt>
      <trkpt lat="46.1413" lon="4.40637">
        <ele>804.6</ele>
        <time>2025-09-08T09:07:58Z</time>
      </trkpt>
      <trkpt lat="46.1413" lon="4.40637">
        <ele>804.6</ele>
        <time>2025-09-08T09:07:59Z</time>
      </trkpt>
      <trkpt lat="46.14128" lon="4.40638">
        <ele>804.6</ele>
        <time>2025-09-08T09:08:02Z</time>
      </trkpt>
      <trkpt lat="46.14127" lon="4.40639">
        <ele>804.6</ele>
        <time>2025-09-08T09:08:03Z</time>
      </trkpt>
      <trkpt lat="46.14126" lon="4.40639">
        <ele>804.6</ele>
        <time>2025-09-08T09:08:04Z</time>
      </trkpt>
      <trkpt lat="46.14126" lon="4.40639">
        <ele>804.6</ele>
        <time>2025-09-08T09:08:05Z</time>
      </trkpt>
      <trkpt lat="46.14125" lon="4.4064">
        <ele>804.6</ele>
        <time>2025-09-08T09:08:06Z</time>
      </trkpt>
      <trkpt lat="46.14125" lon="4.4064">
        <ele>804.6</ele>
        <time>2025-09-08T09:08:07Z</time>
      </trkpt>
      <trkpt lat="46.14124" lon="4.4064">
        <ele>804.6</ele>
        <time>2025-09-08T09:08:08Z</time>
      </trkpt>
      <trkpt lat="46.14123" lon="4.40639">
        <ele>804.6</ele>
        <time>2025-09-08T09:08:09Z</time>
      </trkpt>
      <trkpt lat="46.14122" lon="4.40638">
        <ele>804.6</ele>
        <time>2025-09-08T09:08:10Z</time>
      </trkpt>
      <trkpt lat="46.14121" lon="4.40637">
        <ele>804.6</ele>
        <time>2025-09-08T09:08:11Z</time>
      </trkpt>
      <trkpt lat="46.14119" lon="4.40636">
        <ele>804.6</ele>
        <time>2025-09-08T09:08:12Z</time>
      </trkpt>
      <trkpt lat="46.14119" lon="4.40635">
        <ele>804.6</ele>
        <time>2025-09-08T09:08:13Z</time>
      </trkpt>
      <trkpt lat="46.14118" lon="4.40635">
        <ele>804.6</ele>
        <time>2025-09-08T09:08:14Z</time>
      </trkpt>
      <trkpt lat="46.14117" lon="4.40634">
        <ele>804.6</ele>
        <time>2025-09-08T09:08:15Z</time>
      </trkpt>
      <trkpt lat="46.14116" lon="4.40634">
        <ele>804.6</ele>
        <time>2025-09-08T09:08:16Z</time>
      </trkpt>
      <trkpt lat="46.14115" lon="4.40636">
        <ele>804.6</ele>
        <time>2025-09-08T09:08:17Z</time>
      </trkpt>
      <trkpt lat="46.14108" lon="4.40639">
        <ele>805.2</ele>
        <time>2025-09-08T09:08:32Z</time>
      </trkpt>
      <trkpt lat="46.14106" lon="4.40636">
        <ele>805.2</ele>
        <time>2025-09-08T09:08:33Z</time>
      </trkpt>
      <trkpt lat="46.14103" lon="4.40635">
        <ele>804.8</ele>
        <time>2025-09-08T09:08:34Z</time>
      </trkpt>
      <trkpt lat="46.14101" lon="4.40633">
        <ele>804.8</ele>
        <time>2025-09-08T09:08:35Z</time>
      </trkpt>
      <trkpt lat="46.14098" lon="4.40631">
        <ele>804.6</ele>
        <time>2025-09-08T09:08:36Z</time>
      </trkpt>
      <trkpt lat="46.14095" lon="4.4063">
        <ele>804.6</ele>
        <time>2025-09-08T09:08:37Z</time>
      </trkpt>
      <trkpt lat="46.14092" lon="4.4063">
        <ele>804.8</ele>
        <time>2025-09-08T09:08:38Z</time>
      </trkpt>
      <trkpt lat="46.1409" lon="4.4063">
        <ele>804.8</ele>
        <time>2025-09-08T09:08:39Z</time>
      </trkpt>
      <trkpt lat="46.14087" lon="4.4063">
        <ele>804.8</ele>
        <time>2025-09-08T09:08:40Z</time>
      </trkpt>
      <trkpt lat="46.14085" lon="4.4063">
        <ele>804.8</ele>
        <time>2025-09-08T09:08:41Z</time>
      </trkpt>
      <trkpt lat="46.14082" lon="4.4063">
        <ele>804.8</ele>
        <time>2025-09-08T09:08:42Z</time>
      </trkpt>
      <trkpt lat="46.14081" lon="4.4063">
        <ele>805</ele>
        <time>2025-09-08T09:08:43Z</time>
      </trkpt>
      <trkpt lat="46.1408" lon="4.4063">
        <ele>805</ele>
        <time>2025-09-08T09:08:44Z</time>
      </trkpt>
      <trkpt lat="46.14078" lon="4.4063">
        <ele>805</ele>
        <time>2025-09-08T09:08:45Z</time>
      </trkpt>
      <trkpt lat="46.14077" lon="4.4063">
        <ele>805</ele>
        <time>2025-09-08T09:08:46Z</time>
      </trkpt>
      <trkpt lat="46.14075" lon="4.4063">
        <ele>805</ele>
        <time>2025-09-08T09:08:47Z</time>
      </trkpt>
      <trkpt lat="46.14073" lon="4.4063">
        <ele>805</ele>
        <time>2025-09-08T09:08:48Z</time>
      </trkpt>
      <trkpt lat="46.1407" lon="4.40631">
        <ele>805</ele>
        <time>2025-09-08T09:08:49Z</time>
      </trkpt>
      <trkpt lat="46.14068" lon="4.40633">
        <ele>805.4</ele>
        <time>2025-09-08T09:08:50Z</time>
      </trkpt>
      <trkpt lat="46.14065" lon="4.40635">
        <ele>805.6</ele>
        <time>2025-09-08T09:08:51Z</time>
      </trkpt>
      <trkpt lat="46.14063" lon="4.40637">
        <ele>805.6</ele>
        <time>2025-09-08T09:08:52Z</time>
      </trkpt>
      <trkpt lat="46.1406" lon="4.40639">
        <ele>805.6</ele>
        <time>2025-09-08T09:08:53Z</time>
      </trkpt>
      <trkpt lat="46.14058" lon="4.40641">
        <ele>805.8</ele>
        <time>2025-09-08T09:08:54Z</time>
      </trkpt>
      <trkpt lat="46.14056" lon="4.40643">
        <ele>805.8</ele>
        <time>2025-09-08T09:08:55Z</time>
      </trkpt>
      <trkpt lat="46.14053" lon="4.40645">
        <ele>806</ele>
        <time>2025-09-08T09:08:56Z</time>
      </trkpt>
      <trkpt lat="46.14052" lon="4.40646">
        <ele>806.2</ele>
        <time>2025-09-08T09:08:57Z</time>
      </trkpt>
      <trkpt lat="46.14051" lon="4.40646">
        <ele>806.2</ele>
        <time>2025-09-08T09:08:58Z</time>
      </trkpt>
      <trkpt lat="46.14049" lon="4.40647">
        <ele>806.2</ele>
        <time>2025-09-08T09:08:59Z</time>
      </trkpt>
      <trkpt lat="46.14048" lon="4.40647">
        <ele>806.2</ele>
        <time>2025-09-08T09:09:00Z</time>
      </trkpt>
      <trkpt lat="46.14046" lon="4.40648">
        <ele>806.2</ele>
        <time>2025-09-08T09:09:01Z</time>
      </trkpt>
      <trkpt lat="46.14043" lon="4.40649">
        <ele>806.2</ele>
        <time>2025-09-08T09:09:02Z</time>
      </trkpt>
      <trkpt lat="46.14041" lon="4.4065">
        <ele>806.2</ele>
        <time>2025-09-08T09:09:03Z</time>
      </trkpt>
      <trkpt lat="46.1404" lon="4.40653">
        <ele>806.6</ele>
        <time>2025-09-08T09:09:04Z</time>
      </trkpt>
      <trkpt lat="46.14039" lon="4.40654">
        <ele>806.6</ele>
        <time>2025-09-08T09:09:05Z</time>
      </trkpt>
      <trkpt lat="46.14038" lon="4.40655">
        <ele>806.6</ele>
        <time>2025-09-08T09:09:06Z</time>
      </trkpt>
      <trkpt lat="46.14038" lon="4.40657">
        <ele>806.6</ele>
        <time>2025-09-08T09:09:07Z</time>
      </trkpt>
      <trkpt lat="46.14038" lon="4.40659">
        <ele>806.6</ele>
        <time>2025-09-08T09:09:08Z</time>
      </trkpt>
      <trkpt lat="46.14038" lon="4.40659">
        <ele>806.6</ele>
        <time>2025-09-08T09:09:09Z</time>
      </trkpt>
      <trkpt lat="46.14031" lon="4.40671">
        <ele>806.8</ele>
        <time>2025-09-08T09:09:12Z</time>
      </trkpt>
      <trkpt lat="46.14029" lon="4.40672">
        <ele>806.8</ele>
        <time>2025-09-08T09:09:13Z</time>
      </trkpt>
      <trkpt lat="46.14027" lon="4.40675">
        <ele>807</ele>
        <time>2025-09-08T09:09:14Z</time>
      </trkpt>
      <trkpt lat="46.14025" lon="4.40677">
        <ele>807</ele>
        <time>2025-09-08T09:09:15Z</time>
      </trkpt>
      <trkpt lat="46.14023" lon="4.4068">
        <ele>807</ele>
        <time>2025-09-08T09:09:16Z</time>
      </trkpt>
      <trkpt lat="46.14021" lon="4.40682">
        <ele>807</ele>
        <time>2025-09-08T09:09:17Z</time>
      </trkpt>
      <trkpt lat="46.1402" lon="4.40683">
        <ele>807.4</ele>
        <time>2025-09-08T09:09:18Z</time>
      </trkpt>
      <trkpt lat="46.14018" lon="4.40684">
        <ele>807.4</ele>
        <time>2025-09-08T09:09:19Z</time>
      </trkpt>
      <trkpt lat="46.14017" lon="4.40686">
        <ele>807.4</ele>
        <time>2025-09-08T09:09:20Z</time>
      </trkpt>
      <trkpt lat="46.14016" lon="4.40688">
        <ele>807.4</ele>
        <time>2025-09-08T09:09:21Z</time>
      </trkpt>
      <trkpt lat="46.14015" lon="4.4069">
        <ele>807</ele>
        <time>2025-09-08T09:09:22Z</time>
      </trkpt>
      <trkpt lat="46.14014" lon="4.40691">
        <ele>807</ele>
        <time>2025-09-08T09:09:23Z</time>
      </trkpt>
      <trkpt lat="46.14013" lon="4.40694">
        <ele>807</ele>
        <time>2025-09-08T09:09:24Z</time>
      </trkpt>
      <trkpt lat="46.14011" lon="4.40696">
        <ele>807</ele>
        <time>2025-09-08T09:09:25Z</time>
      </trkpt>
      <trkpt lat="46.1401" lon="4.40698">
        <ele>807</ele>
        <time>2025-09-08T09:09:26Z</time>
      </trkpt>
      <trkpt lat="46.14009" lon="4.407">
        <ele>807.4</ele>
        <time>2025-09-08T09:09:27Z</time>
      </trkpt>
      <trkpt lat="46.14008" lon="4.40703">
        <ele>807.4</ele>
        <time>2025-09-08T09:09:28Z</time>
      </trkpt>
      <trkpt lat="46.14006" lon="4.40706">
        <ele>807.4</ele>
        <time>2025-09-08T09:09:29Z</time>
      </trkpt>
      <trkpt lat="46.14004" lon="4.4071">
        <ele>807</ele>
        <time>2025-09-08T09:09:30Z</time>
      </trkpt>
      <trkpt lat="46.14001" lon="4.40714">
        <ele>807</ele>
        <time>2025-09-08T09:09:31Z</time>
      </trkpt>
      <trkpt lat="46.14" lon="4.40718">
        <ele>806.6</ele>
        <time>2025-09-08T09:09:32Z</time>
      </trkpt>
      <trkpt lat="46.13998" lon="4.40721">
        <ele>806.6</ele>
        <time>2025-09-08T09:09:33Z</time>
      </trkpt>
      <trkpt lat="46.13996" lon="4.40725">
        <ele>806.4</ele>
        <time>2025-09-08T09:09:34Z</time>
      </trkpt>
      <trkpt lat="46.13995" lon="4.40729">
        <ele>806.4</ele>
        <time>2025-09-08T09:09:35Z</time>
      </trkpt>
      <trkpt lat="46.13993" lon="4.40732">
        <ele>806.4</ele>
        <time>2025-09-08T09:09:36Z</time>
      </trkpt>
      <trkpt lat="46.13992" lon="4.40736">
        <ele>806.2</ele>
        <time>2025-09-08T09:09:37Z</time>
      </trkpt>
      <trkpt lat="46.13991" lon="4.40739">
        <ele>806.2</ele>
        <time>2025-09-08T09:09:38Z</time>
      </trkpt>
      <trkpt lat="46.13989" lon="4.40742">
        <ele>806.2</ele>
        <time>2025-09-08T09:09:39Z</time>
      </trkpt>
      <trkpt lat="46.13989" lon="4.40744">
        <ele>806.2</ele>
        <time>2025-09-08T09:09:40Z</time>
      </trkpt>
      <trkpt lat="46.13988" lon="4.40746">
        <ele>806.2</ele>
        <time>2025-09-08T09:09:41Z</time>
      </trkpt>
      <trkpt lat="46.13986" lon="4.40749">
        <ele>806.2</ele>
        <time>2025-09-08T09:09:42Z</time>
      </trkpt>
      <trkpt lat="46.13985" lon="4.40752">
        <ele>806.4</ele>
        <time>2025-09-08T09:09:43Z</time>
      </trkpt>
      <trkpt lat="46.13984" lon="4.40755">
        <ele>806.4</ele>
        <time>2025-09-08T09:09:44Z</time>
      </trkpt>
      <trkpt lat="46.13983" lon="4.40757">
        <ele>806.4</ele>
        <time>2025-09-08T09:09:45Z</time>
      </trkpt>
      <trkpt lat="46.13983" lon="4.40758">
        <ele>806.4</ele>
        <time>2025-09-08T09:09:46Z</time>
      </trkpt>
      <trkpt lat="46.13983" lon="4.4076">
        <ele>806.4</ele>
        <time>2025-09-08T09:09:47Z</time>
      </trkpt>
      <trkpt lat="46.13982" lon="4.40763">
        <ele>806.6</ele>
        <time>2025-09-08T09:09:48Z</time>
      </trkpt>
      <trkpt lat="46.13982" lon="4.40765">
        <ele>806.6</ele>
        <time>2025-09-08T09:09:49Z</time>
      </trkpt>
      <trkpt lat="46.13981" lon="4.40767">
        <ele>806.6</ele>
        <time>2025-09-08T09:09:50Z</time>
      </trkpt>
      <trkpt lat="46.13981" lon="4.40769">
        <ele>806.6</ele>
        <time>2025-09-08T09:09:51Z</time>
      </trkpt>
      <trkpt lat="46.1398" lon="4.40771">
        <ele>806.6</ele>
        <time>2025-09-08T09:09:52Z</time>
      </trkpt>
      <trkpt lat="46.13979" lon="4.40773">
        <ele>806.6</ele>
        <time>2025-09-08T09:09:53Z</time>
      </trkpt>
      <trkpt lat="46.13977" lon="4.40775">
        <ele>806.6</ele>
        <time>2025-09-08T09:09:54Z</time>
      </trkpt>
      <trkpt lat="46.13976" lon="4.40777">
        <ele>806.6</ele>
        <time>2025-09-08T09:09:55Z</time>
      </trkpt>
      <trkpt lat="46.13974" lon="4.40779">
        <ele>806.4</ele>
        <time>2025-09-08T09:09:56Z</time>
      </trkpt>
      <trkpt lat="46.13973" lon="4.40781">
        <ele>806.4</ele>
        <time>2025-09-08T09:09:57Z</time>
      </trkpt>
      <trkpt lat="46.13972" lon="4.40783">
        <ele>806.4</ele>
        <time>2025-09-08T09:09:58Z</time>
      </trkpt>
      <trkpt lat="46.1397" lon="4.40785">
        <ele>806.4</ele>
        <time>2025-09-08T09:09:59Z</time>
      </trkpt>
      <trkpt lat="46.13968" lon="4.40787">
        <ele>806.4</ele>
        <time>2025-09-08T09:10:00Z</time>
      </trkpt>
      <trkpt lat="46.13967" lon="4.40788">
        <ele>806.4</ele>
        <time>2025-09-08T09:10:01Z</time>
      </trkpt>
      <trkpt lat="46.13966" lon="4.4079">
        <ele>806.4</ele>
        <time>2025-09-08T09:10:02Z</time>
      </trkpt>
      <trkpt lat="46.13965" lon="4.40792">
        <ele>806.4</ele>
        <time>2025-09-08T09:10:03Z</time>
      </trkpt>
      <trkpt lat="46.13963" lon="4.40793">
        <ele>806.4</ele>
        <time>2025-09-08T09:10:04Z</time>
      </trkpt>
      <trkpt lat="46.13962" lon="4.40794">
        <ele>806.6</ele>
        <time>2025-09-08T09:10:05Z</time>
      </trkpt>
      <trkpt lat="46.13961" lon="4.40796">
        <ele>806.6</ele>
        <time>2025-09-08T09:10:06Z</time>
      </trkpt>
      <trkpt lat="46.13959" lon="4.40797">
        <ele>806.6</ele>
        <time>2025-09-08T09:10:07Z</time>
      </trkpt>
      <trkpt lat="46.13957" lon="4.40799">
        <ele>806.6</ele>
        <time>2025-09-08T09:10:08Z</time>
      </trkpt>
      <trkpt lat="46.13954" lon="4.40801">
        <ele>807.2</ele>
        <time>2025-09-08T09:10:09Z</time>
      </trkpt>
      <trkpt lat="46.13952" lon="4.40803">
        <ele>807.2</ele>
        <time>2025-09-08T09:10:10Z</time>
      </trkpt>
      <trkpt lat="46.1395" lon="4.40805">
        <ele>807.2</ele>
        <time>2025-09-08T09:10:11Z</time>
      </trkpt>
      <trkpt lat="46.13948" lon="4.40807">
        <ele>807.2</ele>
        <time>2025-09-08T09:10:12Z</time>
      </trkpt>
      <trkpt lat="46.13947" lon="4.40808">
        <ele>807.2</ele>
        <time>2025-09-08T09:10:13Z</time>
      </trkpt>
      <trkpt lat="46.13946" lon="4.4081">
        <ele>807.2</ele>
        <time>2025-09-08T09:10:14Z</time>
      </trkpt>
      <trkpt lat="46.13944" lon="4.40812">
        <ele>807.2</ele>
        <time>2025-09-08T09:10:15Z</time>
      </trkpt>
      <trkpt lat="46.13942" lon="4.40814">
        <ele>807.2</ele>
        <time>2025-09-08T09:10:16Z</time>
      </trkpt>
      <trkpt lat="46.13941" lon="4.40814">
        <ele>807.2</ele>
        <time>2025-09-08T09:10:17Z</time>
      </trkpt>
      <trkpt lat="46.13939" lon="4.40815">
        <ele>807.2</ele>
        <time>2025-09-08T09:10:18Z</time>
      </trkpt>
      <trkpt lat="46.13938" lon="4.40815">
        <ele>807.2</ele>
        <time>2025-09-08T09:10:19Z</time>
      </trkpt>
      <trkpt lat="46.13935" lon="4.40816">
        <ele>807.2</ele>
        <time>2025-09-08T09:10:20Z</time>
      </trkpt>
      <trkpt lat="46.13933" lon="4.40816">
        <ele>807.2</ele>
        <time>2025-09-08T09:10:21Z</time>
      </trkpt>
      <trkpt lat="46.13931" lon="4.40816">
        <ele>807</ele>
        <time>2025-09-08T09:10:22Z</time>
      </trkpt>
      <trkpt lat="46.13929" lon="4.40815">
        <ele>807</ele>
        <time>2025-09-08T09:10:23Z</time>
      </trkpt>
      <trkpt lat="46.13928" lon="4.40815">
        <ele>807</ele>
        <time>2025-09-08T09:10:24Z</time>
      </trkpt>
      <trkpt lat="46.13928" lon="4.40816">
        <ele>807</ele>
        <time>2025-09-08T09:10:25Z</time>
      </trkpt>
      <trkpt lat="46.13926" lon="4.40817">
        <ele>807</ele>
        <time>2025-09-08T09:10:26Z</time>
      </trkpt>
      <trkpt lat="46.13924" lon="4.40819">
        <ele>806.8</ele>
        <time>2025-09-08T09:10:27Z</time>
      </trkpt>
      <trkpt lat="46.13922" lon="4.4082">
        <ele>806.8</ele>
        <time>2025-09-08T09:10:28Z</time>
      </trkpt>
      <trkpt lat="46.13919" lon="4.40822">
        <ele>806.8</ele>
        <time>2025-09-08T09:10:29Z</time>
      </trkpt>
      <trkpt lat="46.13917" lon="4.40824">
        <ele>806.2</ele>
        <time>2025-09-08T09:10:30Z</time>
      </trkpt>
      <trkpt lat="46.13914" lon="4.40826">
        <ele>806.2</ele>
        <time>2025-09-08T09:10:31Z</time>
      </trkpt>
      <trkpt lat="46.13912" lon="4.40827">
        <ele>806.2</ele>
        <time>2025-09-08T09:10:32Z</time>
      </trkpt>
      <trkpt lat="46.13911" lon="4.40828">
        <ele>806.2</ele>
        <time>2025-09-08T09:10:33Z</time>
      </trkpt>
      <trkpt lat="46.13909" lon="4.40829">
        <ele>806.2</ele>
        <time>2025-09-08T09:10:34Z</time>
      </trkpt>
      <trkpt lat="46.13908" lon="4.40832">
        <ele>806.2</ele>
        <time>2025-09-08T09:10:35Z</time>
      </trkpt>
      <trkpt lat="46.13907" lon="4.40834">
        <ele>806.2</ele>
        <time>2025-09-08T09:10:36Z</time>
      </trkpt>
      <trkpt lat="46.13903" lon="4.40837">
        <ele>806.2</ele>
        <time>2025-09-08T09:10:37Z</time>
      </trkpt>
      <trkpt lat="46.139" lon="4.40836">
        <ele>806.8</ele>
        <time>2025-09-08T09:10:38Z</time>
      </trkpt>
      <trkpt lat="46.13898" lon="4.40835">
        <ele>806.8</ele>
        <time>2025-09-08T09:10:39Z</time>
      </trkpt>
      <trkpt lat="46.13896" lon="4.40834">
        <ele>806.8</ele>
        <time>2025-09-08T09:10:40Z</time>
      </trkpt>
      <trkpt lat="46.13894" lon="4.40833">
        <ele>806.8</ele>
        <time>2025-09-08T09:10:41Z</time>
      </trkpt>
      <trkpt lat="46.13892" lon="4.40832">
        <ele>806.8</ele>
        <time>2025-09-08T09:10:42Z</time>
      </trkpt>
      <trkpt lat="46.1389" lon="4.40832">
        <ele>806.8</ele>
        <time>2025-09-08T09:10:43Z</time>
      </trkpt>
      <trkpt lat="46.13889" lon="4.40833">
        <ele>806.8</ele>
        <time>2025-09-08T09:10:44Z</time>
      </trkpt>
      <trkpt lat="46.13887" lon="4.40833">
        <ele>806.8</ele>
        <time>2025-09-08T09:10:45Z</time>
      </trkpt>
      <trkpt lat="46.13885" lon="4.40834">
        <ele>806.8</ele>
        <time>2025-09-08T09:10:46Z</time>
      </trkpt>
      <trkpt lat="46.13884" lon="4.40834">
        <ele>806.8</ele>
        <time>2025-09-08T09:10:47Z</time>
      </trkpt>
      <trkpt lat="46.13883" lon="4.40834">
        <ele>806.8</ele>
        <time>2025-09-08T09:10:48Z</time>
      </trkpt>
      <trkpt lat="46.13881" lon="4.40834">
        <ele>806.8</ele>
        <time>2025-09-08T09:10:49Z</time>
      </trkpt>
      <trkpt lat="46.13879" lon="4.40834">
        <ele>807</ele>
        <time>2025-09-08T09:10:50Z</time>
      </trkpt>
      <trkpt lat="46.13877" lon="4.40834">
        <ele>807</ele>
        <time>2025-09-08T09:10:51Z</time>
      </trkpt>
      <trkpt lat="46.13875" lon="4.40834">
        <ele>807</ele>
        <time>2025-09-08T09:10:52Z</time>
      </trkpt>
      <trkpt lat="46.13874" lon="4.40834">
        <ele>807.2</ele>
        <time>2025-09-08T09:10:53Z</time>
      </trkpt>
      <trkpt lat="46.13872" lon="4.40834">
        <ele>807.2</ele>
        <time>2025-09-08T09:10:54Z</time>
      </trkpt>
      <trkpt lat="46.13871" lon="4.40835">
        <ele>807.2</ele>
        <time>2025-09-08T09:10:55Z</time>
      </trkpt>
      <trkpt lat="46.1387" lon="4.40835">
        <ele>807.2</ele>
        <time>2025-09-08T09:10:56Z</time>
      </trkpt>
      <trkpt lat="46.13868" lon="4.40835">
        <ele>807.6</ele>
        <time>2025-09-08T09:10:57Z</time>
      </trkpt>
      <trkpt lat="46.13867" lon="4.40835">
        <ele>807.6</ele>
        <time>2025-09-08T09:10:58Z</time>
      </trkpt>
      <trkpt lat="46.13866" lon="4.40834">
        <ele>807.6</ele>
        <time>2025-09-08T09:10:59Z</time>
      </trkpt>
      <trkpt lat="46.13865" lon="4.40833">
        <ele>807.6</ele>
        <time>2025-09-08T09:11:00Z</time>
      </trkpt>
      <trkpt lat="46.13863" lon="4.4083">
        <ele>807.6</ele>
        <time>2025-09-08T09:11:01Z</time>
      </trkpt>
      <trkpt lat="46.13862" lon="4.4083">
        <ele>807.6</ele>
        <time>2025-09-08T09:11:02Z</time>
      </trkpt>
      <trkpt lat="46.1386" lon="4.4083">
        <ele>807.6</ele>
        <time>2025-09-08T09:11:03Z</time>
      </trkpt>
      <trkpt lat="46.1386" lon="4.4083">
        <ele>807.6</ele>
        <time>2025-09-08T09:11:04Z</time>
      </trkpt>
      <trkpt lat="46.1386" lon="4.4083">
        <ele>807.6</ele>
        <time>2025-09-08T09:11:05Z</time>
      </trkpt>
      <trkpt lat="46.13858" lon="4.40834">
        <ele>807.4</ele>
        <time>2025-09-08T09:11:06Z</time>
      </trkpt>
      <trkpt lat="46.13855" lon="4.40835">
        <ele>807.4</ele>
        <time>2025-09-08T09:11:07Z</time>
      </trkpt>
      <trkpt lat="46.13853" lon="4.40837">
        <ele>807.4</ele>
        <time>2025-09-08T09:11:08Z</time>
      </trkpt>
      <trkpt lat="46.13851" lon="4.40838">
        <ele>807.4</ele>
        <time>2025-09-08T09:11:09Z</time>
      </trkpt>
      <trkpt lat="46.1385" lon="4.40839">
        <ele>807.6</ele>
        <time>2025-09-08T09:11:10Z</time>
      </trkpt>
      <trkpt lat="46.1385" lon="4.40839">
        <ele>807.6</ele>
        <time>2025-09-08T09:11:11Z</time>
      </trkpt>
      <trkpt lat="46.13849" lon="4.40841">
        <ele>807.6</ele>
        <time>2025-09-08T09:11:12Z</time>
      </trkpt>
      <trkpt lat="46.13847" lon="4.40843">
        <ele>807.6</ele>
        <time>2025-09-08T09:11:13Z</time>
      </trkpt>
      <trkpt lat="46.13845" lon="4.40846">
        <ele>807.6</ele>
        <time>2025-09-08T09:11:14Z</time>
      </trkpt>
      <trkpt lat="46.13842" lon="4.40848">
        <ele>807.6</ele>
        <time>2025-09-08T09:11:15Z</time>
      </trkpt>
      <trkpt lat="46.1384" lon="4.40849">
        <ele>807.6</ele>
        <time>2025-09-08T09:11:16Z</time>
      </trkpt>
      <trkpt lat="46.13838" lon="4.40849">
        <ele>807.8</ele>
        <time>2025-09-08T09:11:17Z</time>
      </trkpt>
      <trkpt lat="46.13837" lon="4.40849">
        <ele>807.8</ele>
        <time>2025-09-08T09:11:18Z</time>
      </trkpt>
      <trkpt lat="46.13835" lon="4.4085">
        <ele>808.6</ele>
        <time>2025-09-08T09:11:19Z</time>
      </trkpt>
      <trkpt lat="46.13832" lon="4.40851">
        <ele>809</ele>
        <time>2025-09-08T09:11:20Z</time>
      </trkpt>
      <trkpt lat="46.13831" lon="4.40851">
        <ele>809</ele>
        <time>2025-09-08T09:11:21Z</time>
      </trkpt>
      <trkpt lat="46.1383" lon="4.40851">
        <ele>809</ele>
        <time>2025-09-08T09:11:22Z</time>
      </trkpt>
      <trkpt lat="46.13829" lon="4.40851">
        <ele>809.4</ele>
        <time>2025-09-08T09:11:23Z</time>
      </trkpt>
      <trkpt lat="46.13828" lon="4.40852">
        <ele>809.6</ele>
        <time>2025-09-08T09:11:24Z</time>
      </trkpt>
      <trkpt lat="46.13826" lon="4.40852">
        <ele>809.6</ele>
        <time>2025-09-08T09:11:25Z</time>
      </trkpt>
      <trkpt lat="46.13824" lon="4.40853">
        <ele>809.6</ele>
        <time>2025-09-08T09:11:26Z</time>
      </trkpt>
      <trkpt lat="46.13823" lon="4.40853">
        <ele>809.6</ele>
        <time>2025-09-08T09:11:27Z</time>
      </trkpt>
      <trkpt lat="46.13822" lon="4.40854">
        <ele>809.8</ele>
        <time>2025-09-08T09:11:28Z</time>
      </trkpt>
      <trkpt lat="46.1382" lon="4.40854">
        <ele>809.8</ele>
        <time>2025-09-08T09:11:29Z</time>
      </trkpt>
      <trkpt lat="46.13818" lon="4.40855">
        <ele>809.8</ele>
        <time>2025-09-08T09:11:30Z</time>
      </trkpt>
      <trkpt lat="46.13816" lon="4.40856">
        <ele>809.8</ele>
        <time>2025-09-08T09:11:31Z</time>
      </trkpt>
      <trkpt lat="46.13815" lon="4.40856">
        <ele>809.8</ele>
        <time>2025-09-08T09:11:32Z</time>
      </trkpt>
      <trkpt lat="46.13813" lon="4.40857">
        <ele>810</ele>
        <time>2025-09-08T09:11:33Z</time>
      </trkpt>
      <trkpt lat="46.13812" lon="4.40858">
        <ele>810</ele>
        <time>2025-09-08T09:11:34Z</time>
      </trkpt>
      <trkpt lat="46.1381" lon="4.40858">
        <ele>810.2</ele>
        <time>2025-09-08T09:11:35Z</time>
      </trkpt>
      <trkpt lat="46.13808" lon="4.40858">
        <ele>810.2</ele>
        <time>2025-09-08T09:11:36Z</time>
      </trkpt>
      <trkpt lat="46.13806" lon="4.40859">
        <ele>810.4</ele>
        <time>2025-09-08T09:11:37Z</time>
      </trkpt>
      <trkpt lat="46.13805" lon="4.40859">
        <ele>810.4</ele>
        <time>2025-09-08T09:11:38Z</time>
      </trkpt>
      <trkpt lat="46.13803" lon="4.4086">
        <ele>810.4</ele>
        <time>2025-09-08T09:11:39Z</time>
      </trkpt>
      <trkpt lat="46.13802" lon="4.4086">
        <ele>810.4</ele>
        <time>2025-09-08T09:11:40Z</time>
      </trkpt>
      <trkpt lat="46.13801" lon="4.40861">
        <ele>810.8</ele>
        <time>2025-09-08T09:11:41Z</time>
      </trkpt>
      <trkpt lat="46.13801" lon="4.40862">
        <ele>810.8</ele>
        <time>2025-09-08T09:11:42Z</time>
      </trkpt>
      <trkpt lat="46.138" lon="4.40863">
        <ele>811</ele>
        <time>2025-09-08T09:11:43Z</time>
      </trkpt>
      <trkpt lat="46.13798" lon="4.40864">
        <ele>811</ele>
        <time>2025-09-08T09:11:44Z</time>
      </trkpt>
      <trkpt lat="46.13797" lon="4.40865">
        <ele>811</ele>
        <time>2025-09-08T09:11:45Z</time>
      </trkpt>
      <trkpt lat="46.13796" lon="4.40865">
        <ele>811.4</ele>
        <time>2025-09-08T09:11:46Z</time>
      </trkpt>
      <trkpt lat="46.13794" lon="4.40866">
        <ele>811.6</ele>
        <time>2025-09-08T09:11:47Z</time>
      </trkpt>
      <trkpt lat="46.13793" lon="4.40866">
        <ele>811.6</ele>
        <time>2025-09-08T09:11:48Z</time>
      </trkpt>
      <trkpt lat="46.13792" lon="4.40868">
        <ele>811.6</ele>
        <time>2025-09-08T09:11:49Z</time>
      </trkpt>
      <trkpt lat="46.13791" lon="4.40869">
        <ele>811.8</ele>
        <time>2025-09-08T09:11:50Z</time>
      </trkpt>
      <trkpt lat="46.1379" lon="4.40871">
        <ele>811.8</ele>
        <time>2025-09-08T09:11:51Z</time>
      </trkpt>
      <trkpt lat="46.13788" lon="4.40872">
        <ele>811.8</ele>
        <time>2025-09-08T09:11:52Z</time>
      </trkpt>
      <trkpt lat="46.13786" lon="4.40873">
        <ele>812.2</ele>
        <time>2025-09-08T09:11:53Z</time>
      </trkpt>
      <trkpt lat="46.13783" lon="4.40874">
        <ele>812.2</ele>
        <time>2025-09-08T09:11:54Z</time>
      </trkpt>
      <trkpt lat="46.13782" lon="4.40875">
        <ele>812.2</ele>
        <time>2025-09-08T09:11:55Z</time>
      </trkpt>
      <trkpt lat="46.13781" lon="4.40875">
        <ele>812.4</ele>
        <time>2025-09-08T09:11:56Z</time>
      </trkpt>
      <trkpt lat="46.1378" lon="4.40874">
        <ele>812.4</ele>
        <time>2025-09-08T09:11:57Z</time>
      </trkpt>
      <trkpt lat="46.13779" lon="4.40873">
        <ele>812.6</ele>
        <time>2025-09-08T09:11:58Z</time>
      </trkpt>
      <trkpt lat="46.13779" lon="4.40873">
        <ele>812.6</ele>
        <time>2025-09-08T09:11:59Z</time>
      </trkpt>
      <trkpt lat="46.13778" lon="4.40874">
        <ele>812.6</ele>
        <time>2025-09-08T09:12:00Z</time>
      </trkpt>
      <trkpt lat="46.13772" lon="4.40881">
        <ele>812.8</ele>
        <time>2025-09-08T09:12:04Z</time>
      </trkpt>
      <trkpt lat="46.1377" lon="4.40883">
        <ele>813</ele>
        <time>2025-09-08T09:12:05Z</time>
      </trkpt>
      <trkpt lat="46.13769" lon="4.40884">
        <ele>813</ele>
        <time>2025-09-08T09:12:06Z</time>
      </trkpt>
      <trkpt lat="46.13767" lon="4.40885">
        <ele>813</ele>
        <time>2025-09-08T09:12:07Z</time>
      </trkpt>
      <trkpt lat="46.13766" lon="4.40886">
        <ele>813</ele>
        <time>2025-09-08T09:12:08Z</time>
      </trkpt>
      <trkpt lat="46.13764" lon="4.40886">
        <ele>813</ele>
        <time>2025-09-08T09:12:09Z</time>
      </trkpt>
      <trkpt lat="46.13763" lon="4.40887">
        <ele>813.4</ele>
        <time>2025-09-08T09:12:10Z</time>
      </trkpt>
      <trkpt lat="46.13761" lon="4.40888">
        <ele>813.4</ele>
        <time>2025-09-08T09:12:11Z</time>
      </trkpt>
      <trkpt lat="46.1376" lon="4.40888">
        <ele>813.4</ele>
        <time>2025-09-08T09:12:12Z</time>
      </trkpt>
      <trkpt lat="46.13759" lon="4.40888">
        <ele>813.4</ele>
        <time>2025-09-08T09:12:13Z</time>
      </trkpt>
      <trkpt lat="46.13757" lon="4.40889">
        <ele>813.4</ele>
        <time>2025-09-08T09:12:14Z</time>
      </trkpt>
      <trkpt lat="46.13755" lon="4.40889">
        <ele>813.4</ele>
        <time>2025-09-08T09:12:15Z</time>
      </trkpt>
      <trkpt lat="46.13754" lon="4.40889">
        <ele>813.4</ele>
        <time>2025-09-08T09:12:16Z</time>
      </trkpt>
      <trkpt lat="46.13752" lon="4.4089">
        <ele>813.6</ele>
        <time>2025-09-08T09:12:17Z</time>
      </trkpt>
      <trkpt lat="46.1375" lon="4.40891">
        <ele>813.6</ele>
        <time>2025-09-08T09:12:18Z</time>
      </trkpt>
      <trkpt lat="46.13749" lon="4.40891">
        <ele>813.8</ele>
        <time>2025-09-08T09:12:19Z</time>
      </trkpt>
      <trkpt lat="46.13747" lon="4.40891">
        <ele>814</ele>
        <time>2025-09-08T09:12:20Z</time>
      </trkpt>
      <trkpt lat="46.13745" lon="4.40891">
        <ele>814</ele>
        <time>2025-09-08T09:12:21Z</time>
      </trkpt>
      <trkpt lat="46.13743" lon="4.40891">
        <ele>814</ele>
        <time>2025-09-08T09:12:22Z</time>
      </trkpt>
      <trkpt lat="46.13741" lon="4.4089">
        <ele>814.4</ele>
        <time>2025-09-08T09:12:23Z</time>
      </trkpt>
      <trkpt lat="46.13739" lon="4.4089">
        <ele>814.4</ele>
        <time>2025-09-08T09:12:24Z</time>
      </trkpt>
      <trkpt lat="46.13738" lon="4.40889">
        <ele>814.4</ele>
        <time>2025-09-08T09:12:25Z</time>
      </trkpt>
      <trkpt lat="46.13736" lon="4.40889">
        <ele>814.6</ele>
        <time>2025-09-08T09:12:26Z</time>
      </trkpt>
      <trkpt lat="46.13734" lon="4.40889">
        <ele>814.6</ele>
        <time>2025-09-08T09:12:27Z</time>
      </trkpt>
      <trkpt lat="46.13732" lon="4.40888">
        <ele>814.6</ele>
        <time>2025-09-08T09:12:28Z</time>
      </trkpt>
      <trkpt lat="46.1373" lon="4.40887">
        <ele>814.8</ele>
        <time>2025-09-08T09:12:29Z</time>
      </trkpt>
      <trkpt lat="46.13728" lon="4.40887">
        <ele>814.8</ele>
        <time>2025-09-08T09:12:30Z</time>
      </trkpt>
      <trkpt lat="46.13726" lon="4.40886">
        <ele>814.8</ele>
        <time>2025-09-08T09:12:31Z</time>
      </trkpt>
      <trkpt lat="46.13725" lon="4.40885">
        <ele>814.8</ele>
        <time>2025-09-08T09:12:32Z</time>
      </trkpt>
      <trkpt lat="46.13724" lon="4.40884">
        <ele>815.2</ele>
        <time>2025-09-08T09:12:33Z</time>
      </trkpt>
      <trkpt lat="46.13722" lon="4.40883">
        <ele>815.2</ele>
        <time>2025-09-08T09:12:34Z</time>
      </trkpt>
      <trkpt lat="46.13721" lon="4.40882">
        <ele>815.2</ele>
        <time>2025-09-08T09:12:35Z</time>
      </trkpt>
      <trkpt lat="46.1372" lon="4.40881">
        <ele>815.4</ele>
        <time>2025-09-08T09:12:36Z</time>
      </trkpt>
      <trkpt lat="46.13718" lon="4.40881">
        <ele>815.4</ele>
        <time>2025-09-08T09:12:37Z</time>
      </trkpt>
      <trkpt lat="46.13718" lon="4.40881">
        <ele>815.6</ele>
        <time>2025-09-08T09:12:38Z</time>
      </trkpt>
      <trkpt lat="46.13717" lon="4.4088">
        <ele>815.6</ele>
        <time>2025-09-08T09:12:39Z</time>
      </trkpt>
      <trkpt lat="46.13716" lon="4.4088">
        <ele>815.6</ele>
        <time>2025-09-08T09:12:40Z</time>
      </trkpt>
      <trkpt lat="46.13716" lon="4.40881">
        <ele>815.6</ele>
        <time>2025-09-08T09:12:41Z</time>
      </trkpt>
      <trkpt lat="46.13716" lon="4.40883">
        <ele>816.2</ele>
        <time>2025-09-08T09:15:56Z</time>
      </trkpt>
      <trkpt lat="46.13715" lon="4.40882">
        <ele>816.2</ele>
        <time>2025-09-08T09:15:57Z</time>
      </trkpt>
      <trkpt lat="46.13714" lon="4.40882">
        <ele>816.2</ele>
        <time>2025-09-08T09:15:58Z</time>
      </trkpt>
      <trkpt lat="46.13713" lon="4.40882">
        <ele>816.2</ele>
        <time>2025-09-08T09:15:59Z</time>
      </trkpt>
      <trkpt lat="46.13712" lon="4.40881">
        <ele>816.2</ele>
        <time>2025-09-08T09:16:00Z</time>
      </trkpt>
      <trkpt lat="46.13711" lon="4.4088">
        <ele>816.2</ele>
        <time>2025-09-08T09:16:01Z</time>
      </trkpt>
      <trkpt lat="46.13711" lon="4.40879">
        <ele>816.2</ele>
        <time>2025-09-08T09:16:02Z</time>
      </trkpt>
      <trkpt lat="46.13711" lon="4.40879">
        <ele>816</ele>
        <time>2025-09-08T09:16:03Z</time>
      </trkpt>
      <trkpt lat="46.13709" lon="4.40876">
        <ele>816.4</ele>
        <time>2025-09-08T09:16:13Z</time>
      </trkpt>
      <trkpt lat="46.13708" lon="4.40874">
        <ele>816.4</ele>
        <time>2025-09-08T09:16:14Z</time>
      </trkpt>
      <trkpt lat="46.13707" lon="4.40872">
        <ele>816.4</ele>
        <time>2025-09-08T09:16:15Z</time>
      </trkpt>
      <trkpt lat="46.13707" lon="4.4087">
        <ele>816.4</ele>
        <time>2025-09-08T09:16:16Z</time>
      </trkpt>
      <trkpt lat="46.13706" lon="4.40869">
        <ele>816.4</ele>
        <time>2025-09-08T09:16:17Z</time>
      </trkpt>
      <trkpt lat="46.13706" lon="4.40867">
        <ele>816.4</ele>
        <time>2025-09-08T09:16:18Z</time>
      </trkpt>
      <trkpt lat="46.13706" lon="4.40866">
        <ele>816.4</ele>
        <time>2025-09-08T09:16:19Z</time>
      </trkpt>
      <trkpt lat="46.13706" lon="4.40864">
        <ele>816.8</ele>
        <time>2025-09-08T09:16:20Z</time>
      </trkpt>
      <trkpt lat="46.13706" lon="4.40862">
        <ele>816.8</ele>
        <time>2025-09-08T09:16:21Z</time>
      </trkpt>
      <trkpt lat="46.13707" lon="4.4086">
        <ele>816.8</ele>
        <time>2025-09-08T09:16:22Z</time>
      </trkpt>
      <trkpt lat="46.13707" lon="4.40858">
        <ele>816.4</ele>
        <time>2025-09-08T09:16:23Z</time>
      </trkpt>
      <trkpt lat="46.13708" lon="4.40856">
        <ele>816.4</ele>
        <time>2025-09-08T09:16:24Z</time>
      </trkpt>
      <trkpt lat="46.13708" lon="4.40854">
        <ele>816.4</ele>
        <time>2025-09-08T09:16:25Z</time>
      </trkpt>
      <trkpt lat="46.13709" lon="4.40852">
        <ele>816.4</ele>
        <time>2025-09-08T09:16:26Z</time>
      </trkpt>
      <trkpt lat="46.13709" lon="4.4085">
        <ele>816.4</ele>
        <time>2025-09-08T09:16:27Z</time>
      </trkpt>
      <trkpt lat="46.13709" lon="4.40849">
        <ele>816.4</ele>
        <time>2025-09-08T09:16:28Z</time>
      </trkpt>
      <trkpt lat="46.1371" lon="4.40847">
        <ele>816.8</ele>
        <time>2025-09-08T09:16:29Z</time>
      </trkpt>
      <trkpt lat="46.1371" lon="4.40845">
        <ele>816.8</ele>
        <time>2025-09-08T09:16:30Z</time>
      </trkpt>
      <trkpt lat="46.13711" lon="4.40843">
        <ele>817.4</ele>
        <time>2025-09-08T09:16:31Z</time>
      </trkpt>
      <trkpt lat="46.13711" lon="4.40842">
        <ele>817.4</ele>
        <time>2025-09-08T09:16:32Z</time>
      </trkpt>
      <trkpt lat="46.13712" lon="4.4084">
        <ele>817.4</ele>
        <time>2025-09-08T09:16:33Z</time>
      </trkpt>
      <trkpt lat="46.13712" lon="4.40838">
        <ele>817.4</ele>
        <time>2025-09-08T09:16:34Z</time>
      </trkpt>
      <trkpt lat="46.13713" lon="4.40837">
        <ele>817.6</ele>
        <time>2025-09-08T09:16:35Z</time>
      </trkpt>
      <trkpt lat="46.13714" lon="4.40836">
        <ele>817.6</ele>
        <time>2025-09-08T09:16:36Z</time>
      </trkpt>
      <trkpt lat="46.13714" lon="4.40835">
        <ele>817.6</ele>
        <time>2025-09-08T09:16:37Z</time>
      </trkpt>
      <trkpt lat="46.13715" lon="4.40833">
        <ele>817.6</ele>
        <time>2025-09-08T09:16:38Z</time>
      </trkpt>
      <trkpt lat="46.13715" lon="4.40832">
        <ele>817.6</ele>
        <time>2025-09-08T09:16:39Z</time>
      </trkpt>
      <trkpt lat="46.13716" lon="4.4083">
        <ele>818</ele>
        <time>2025-09-08T09:16:40Z</time>
      </trkpt>
      <trkpt lat="46.13716" lon="4.40829">
        <ele>818</ele>
        <time>2025-09-08T09:16:41Z</time>
      </trkpt>
      <trkpt lat="46.13716" lon="4.40828">
        <ele>818.4</ele>
        <time>2025-09-08T09:16:42Z</time>
      </trkpt>
      <trkpt lat="46.13716" lon="4.40827">
        <ele>818.4</ele>
        <time>2025-09-08T09:16:43Z</time>
      </trkpt>
      <trkpt lat="46.13716" lon="4.40825">
        <ele>818.4</ele>
        <time>2025-09-08T09:16:44Z</time>
      </trkpt>
      <trkpt lat="46.13716" lon="4.40824">
        <ele>818.6</ele>
        <time>2025-09-08T09:16:45Z</time>
      </trkpt>
      <trkpt lat="46.13716" lon="4.40822">
        <ele>818.6</ele>
        <time>2025-09-08T09:16:46Z</time>
      </trkpt>
      <trkpt lat="46.13715" lon="4.40821">
        <ele>819</ele>
        <time>2025-09-08T09:16:47Z</time>
      </trkpt>
      <trkpt lat="46.13715" lon="4.40819">
        <ele>819</ele>
        <time>2025-09-08T09:16:48Z</time>
      </trkpt>
      <trkpt lat="46.13715" lon="4.40818">
        <ele>819.4</ele>
        <time>2025-09-08T09:16:49Z</time>
      </trkpt>
      <trkpt lat="46.13715" lon="4.40817">
        <ele>819.4</ele>
        <time>2025-09-08T09:16:50Z</time>
      </trkpt>
      <trkpt lat="46.13715" lon="4.40816">
        <ele>819.4</ele>
        <time>2025-09-08T09:16:51Z</time>
      </trkpt>
      <trkpt lat="46.13716" lon="4.40816">
        <ele>819.6</ele>
        <time>2025-09-08T09:16:52Z</time>
      </trkpt>
      <trkpt lat="46.13716" lon="4.40815">
        <ele>819.8</ele>
        <time>2025-09-08T09:16:53Z</time>
      </trkpt>
      <trkpt lat="46.13717" lon="4.40815">
        <ele>819.8</ele>
        <time>2025-09-08T09:16:54Z</time>
      </trkpt>
      <trkpt lat="46.13717" lon="4.40815">
        <ele>819.8</ele>
        <time>2025-09-08T09:16:55Z</time>
      </trkpt>
      <trkpt lat="46.13718" lon="4.40815">
        <ele>820.2</ele>
        <time>2025-09-08T09:16:56Z</time>
      </trkpt>
      <trkpt lat="46.13715" lon="4.40813">
        <ele>820.2</ele>
        <time>2025-09-08T09:17:44Z</time>
      </trkpt>
      <trkpt lat="46.13715" lon="4.40813">
        <ele>820.2</ele>
        <time>2025-09-08T09:17:45Z</time>
      </trkpt>
      <trkpt lat="46.13715" lon="4.40813">
        <ele>820.2</ele>
        <time>2025-09-08T09:17:46Z</time>
      </trkpt>
      <trkpt lat="46.13718" lon="4.40815">
        <ele>820</ele>
        <time>2025-09-08T10:08:42Z</time>
      </trkpt>
      <trkpt lat="46.13716" lon="4.40815">
        <ele>820</ele>
        <time>2025-09-08T10:08:43Z</time>
      </trkpt>
      <trkpt lat="46.13716" lon="4.40815">
        <ele>820</ele>
        <time>2025-09-08T10:08:44Z</time>
      </trkpt>
      <trkpt lat="46.13716" lon="4.40815">
        <ele>820</ele>
        <time>2025-09-08T10:08:45Z</time>
      </trkpt>
      <trkpt lat="46.13713" lon="4.40814">
        <ele>819.8</ele>
        <time>2025-09-08T10:08:46Z</time>
      </trkpt>
      <trkpt lat="46.1373" lon="4.40802">
        <ele>820.6</ele>
        <time>2025-09-08T10:44:42Z</time>
      </trkpt>
      <trkpt lat="46.1373" lon="4.40802">
        <ele>820.6</ele>
        <time>2025-09-08T10:44:43Z</time>
      </trkpt>
      <trkpt lat="46.1373" lon="4.40802">
        <ele>820.6</ele>
        <time>2025-09-08T10:44:44Z</time>
      </trkpt>
      <trkpt lat="46.1373" lon="4.40802">
        <ele>820.6</ele>
        <time>2025-09-08T10:44:45Z</time>
      </trkpt>
      <trkpt lat="46.13733" lon="4.40803">
        <ele>820.4</ele>
        <time>2025-09-08T10:44:50Z</time>
      </trkpt>
      <trkpt lat="46.13732" lon="4.40804">
        <ele>820.4</ele>
        <time>2025-09-08T10:44:51Z</time>
      </trkpt>
      <trkpt lat="46.13721" lon="4.40814">
        <ele>820.2</ele>
        <time>2025-09-08T11:03:19Z</time>
      </trkpt>
      <trkpt lat="46.13721" lon="4.40814">
        <ele>820.2</ele>
        <time>2025-09-08T11:03:20Z</time>
      </trkpt>
      <trkpt lat="46.13721" lon="4.40814">
        <ele>820</ele>
        <time>2025-09-08T11:03:21Z</time>
      </trkpt>
      <trkpt lat="46.13721" lon="4.40814">
        <ele>819.8</ele>
        <time>2025-09-08T11:03:23Z</time>
      </trkpt>
      <trkpt lat="46.13719" lon="4.40815">
        <ele>819.4</ele>
        <time>2025-09-08T11:03:40Z</time>
      </trkpt>
      <trkpt lat="46.1372" lon="4.40812">
        <ele>819.4</ele>
        <time>2025-09-08T11:03:41Z</time>
      </trkpt>
      <trkpt lat="46.1372" lon="4.40811">
        <ele>819.4</ele>
        <time>2025-09-08T11:03:42Z</time>
      </trkpt>
      <trkpt lat="46.13721" lon="4.40811">
        <ele>819.4</ele>
        <time>2025-09-08T11:03:43Z</time>
      </trkpt>
      <trkpt lat="46.13722" lon="4.40812">
        <ele>819.4</ele>
        <time>2025-09-08T11:03:44Z</time>
      </trkpt>
      <trkpt lat="46.13722" lon="4.40813">
        <ele>819.4</ele>
        <time>2025-09-08T11:03:45Z</time>
      </trkpt>
      <trkpt lat="46.13722" lon="4.40814">
        <ele>819.4</ele>
        <time>2025-09-08T11:03:46Z</time>
      </trkpt>
      <trkpt lat="46.13721" lon="4.40815">
        <ele>819.2</ele>
        <time>2025-09-08T11:03:47Z</time>
      </trkpt>
      <trkpt lat="46.13721" lon="4.40817">
        <ele>819.2</ele>
        <time>2025-09-08T11:03:48Z</time>
      </trkpt>
      <trkpt lat="46.13721" lon="4.40819">
        <ele>819.2</ele>
        <time>2025-09-08T11:03:49Z</time>
      </trkpt>
      <trkpt lat="46.13721" lon="4.40819">
        <ele>819.2</ele>
        <time>2025-09-08T11:03:50Z</time>
      </trkpt>
      <trkpt lat="46.13719" lon="4.40825">
        <ele>818.8</ele>
        <time>2025-09-08T11:04:14Z</time>
      </trkpt>
      <trkpt lat="46.1372" lon="4.40825">
        <ele>818.8</ele>
        <time>2025-09-08T11:04:15Z</time>
      </trkpt>
      <trkpt lat="46.1372" lon="4.40826">
        <ele>819.2</ele>
        <time>2025-09-08T11:04:24Z</time>
      </trkpt>
      <trkpt lat="46.1372" lon="4.40828">
        <ele>818.8</ele>
        <time>2025-09-08T11:04:25Z</time>
      </trkpt>
      <trkpt lat="46.13719" lon="4.40831">
        <ele>818.8</ele>
        <time>2025-09-08T11:04:26Z</time>
      </trkpt>
      <trkpt lat="46.13719" lon="4.40834">
        <ele>818.8</ele>
        <time>2025-09-08T11:04:27Z</time>
      </trkpt>
      <trkpt lat="46.13718" lon="4.40837">
        <ele>818.6</ele>
        <time>2025-09-08T11:04:28Z</time>
      </trkpt>
      <trkpt lat="46.13718" lon="4.4084">
        <ele>818.2</ele>
        <time>2025-09-08T11:04:29Z</time>
      </trkpt>
      <trkpt lat="46.13716" lon="4.40844">
        <ele>818.2</ele>
        <time>2025-09-08T11:04:30Z</time>
      </trkpt>
      <trkpt lat="46.13715" lon="4.40848">
        <ele>817.6</ele>
        <time>2025-09-08T11:04:31Z</time>
      </trkpt>
      <trkpt lat="46.13713" lon="4.40852">
        <ele>817.6</ele>
        <time>2025-09-08T11:04:32Z</time>
      </trkpt>
      <trkpt lat="46.13712" lon="4.40856">
        <ele>817.4</ele>
        <time>2025-09-08T11:04:33Z</time>
      </trkpt>
      <trkpt lat="46.13711" lon="4.40861">
        <ele>817.4</ele>
        <time>2025-09-08T11:04:34Z</time>
      </trkpt>
      <trkpt lat="46.1371" lon="4.40864">
        <ele>817.2</ele>
        <time>2025-09-08T11:04:35Z</time>
      </trkpt>
      <trkpt lat="46.1371" lon="4.40867">
        <ele>817.2</ele>
        <time>2025-09-08T11:04:36Z</time>
      </trkpt>
      <trkpt lat="46.13709" lon="4.4087">
        <ele>817</ele>
        <time>2025-09-08T11:04:37Z</time>
      </trkpt>
      <trkpt lat="46.13709" lon="4.40872">
        <ele>816.6</ele>
        <time>2025-09-08T11:04:38Z</time>
      </trkpt>
      <trkpt lat="46.1371" lon="4.40875">
        <ele>816.6</ele>
        <time>2025-09-08T11:04:39Z</time>
      </trkpt>
      <trkpt lat="46.1371" lon="4.40878">
        <ele>816.4</ele>
        <time>2025-09-08T11:04:40Z</time>
      </trkpt>
      <trkpt lat="46.1371" lon="4.40882">
        <ele>816.4</ele>
        <time>2025-09-08T11:04:41Z</time>
      </trkpt>
      <trkpt lat="46.13709" lon="4.40886">
        <ele>816.4</ele>
        <time>2025-09-08T11:04:42Z</time>
      </trkpt>
      <trkpt lat="46.13708" lon="4.4089">
        <ele>817</ele>
        <time>2025-09-08T11:04:43Z</time>
      </trkpt>
      <trkpt lat="46.13707" lon="4.40893">
        <ele>816.4</ele>
        <time>2025-09-08T11:04:44Z</time>
      </trkpt>
      <trkpt lat="46.13705" lon="4.40896">
        <ele>816.2</ele>
        <time>2025-09-08T11:04:45Z</time>
      </trkpt>
      <trkpt lat="46.13704" lon="4.40899">
        <ele>816.2</ele>
        <time>2025-09-08T11:04:46Z</time>
      </trkpt>
      <trkpt lat="46.13703" lon="4.40902">
        <ele>816.2</ele>
        <time>2025-09-08T11:04:47Z</time>
      </trkpt>
      <trkpt lat="46.13703" lon="4.40906">
        <ele>816</ele>
        <time>2025-09-08T11:04:48Z</time>
      </trkpt>
      <trkpt lat="46.13702" lon="4.40908">
        <ele>816</ele>
        <time>2025-09-08T11:04:49Z</time>
      </trkpt>
      <trkpt lat="46.13702" lon="4.40911">
        <ele>816</ele>
        <time>2025-09-08T11:04:50Z</time>
      </trkpt>
      <trkpt lat="46.13701" lon="4.40912">
        <ele>816</ele>
        <time>2025-09-08T11:04:51Z</time>
      </trkpt>
      <trkpt lat="46.13701" lon="4.40912">
        <ele>816.2</ele>
        <time>2025-09-08T11:04:52Z</time>
      </trkpt>
      <trkpt lat="46.13701" lon="4.40912">
        <ele>816.2</ele>
        <time>2025-09-08T11:04:53Z</time>
      </trkpt>
      <trkpt lat="46.13701" lon="4.40913">
        <ele>816.8</ele>
        <time>2025-09-08T11:05:02Z</time>
      </trkpt>
      <trkpt lat="46.13701" lon="4.40914">
        <ele>816.6</ele>
        <time>2025-09-08T11:05:03Z</time>
      </trkpt>
      <trkpt lat="46.137" lon="4.40917">
        <ele>816.6</ele>
        <time>2025-09-08T11:05:04Z</time>
      </trkpt>
      <trkpt lat="46.137" lon="4.40919">
        <ele>816.6</ele>
        <time>2025-09-08T11:05:05Z</time>
      </trkpt>
      <trkpt lat="46.13699" lon="4.40922">
        <ele>816.2</ele>
        <time>2025-09-08T11:05:06Z</time>
      </trkpt>
      <trkpt lat="46.13699" lon="4.40924">
        <ele>816.2</ele>
        <time>2025-09-08T11:05:07Z</time>
      </trkpt>
      <trkpt lat="46.13698" lon="4.40927">
        <ele>816.4</ele>
        <time>2025-09-08T11:05:08Z</time>
      </trkpt>
      <trkpt lat="46.13697" lon="4.4093">
        <ele>816.4</ele>
        <time>2025-09-08T11:05:09Z</time>
      </trkpt>
      <trkpt lat="46.13696" lon="4.40933">
        <ele>816.4</ele>
        <time>2025-09-08T11:05:10Z</time>
      </trkpt>
      <trkpt lat="46.13696" lon="4.40936">
        <ele>816.4</ele>
        <time>2025-09-08T11:05:11Z</time>
      </trkpt>
      <trkpt lat="46.13696" lon="4.40939">
        <ele>816.4</ele>
        <time>2025-09-08T11:05:12Z</time>
      </trkpt>
      <trkpt lat="46.13695" lon="4.40942">
        <ele>816.4</ele>
        <time>2025-09-08T11:05:13Z</time>
      </trkpt>
      <trkpt lat="46.13694" lon="4.40945">
        <ele>815.6</ele>
        <time>2025-09-08T11:05:14Z</time>
      </trkpt>
      <trkpt lat="46.13693" lon="4.40948">
        <ele>816</ele>
        <time>2025-09-08T11:05:15Z</time>
      </trkpt>
      <trkpt lat="46.13692" lon="4.40951">
        <ele>817</ele>
        <time>2025-09-08T11:05:16Z</time>
      </trkpt>
      <trkpt lat="46.13692" lon="4.40955">
        <ele>817.4</ele>
        <time>2025-09-08T11:05:17Z</time>
      </trkpt>
      <trkpt lat="46.13692" lon="4.40958">
        <ele>817.6</ele>
        <time>2025-09-08T11:05:18Z</time>
      </trkpt>
      <trkpt lat="46.13691" lon="4.4096">
        <ele>817.2</ele>
        <time>2025-09-08T11:05:19Z</time>
      </trkpt>
      <trkpt lat="46.1369" lon="4.40963">
        <ele>817.8</ele>
        <time>2025-09-08T11:05:20Z</time>
      </trkpt>
      <trkpt lat="46.13689" lon="4.40966">
        <ele>817.8</ele>
        <time>2025-09-08T11:05:21Z</time>
      </trkpt>
      <trkpt lat="46.13688" lon="4.40969">
        <ele>817.8</ele>
        <time>2025-09-08T11:05:22Z</time>
      </trkpt>
      <trkpt lat="46.13688" lon="4.40972">
        <ele>817.8</ele>
        <time>2025-09-08T11:05:23Z</time>
      </trkpt>
      <trkpt lat="46.13688" lon="4.40975">
        <ele>817.8</ele>
        <time>2025-09-08T11:05:24Z</time>
      </trkpt>
      <trkpt lat="46.13687" lon="4.40978">
        <ele>818.2</ele>
        <time>2025-09-08T11:05:25Z</time>
      </trkpt>
      <trkpt lat="46.13686" lon="4.40981">
        <ele>818.2</ele>
        <time>2025-09-08T11:05:26Z</time>
      </trkpt>
      <trkpt lat="46.13686" lon="4.40984">
        <ele>818.4</ele>
        <time>2025-09-08T11:05:27Z</time>
      </trkpt>
      <trkpt lat="46.13685" lon="4.40987">
        <ele>818.6</ele>
        <time>2025-09-08T11:05:28Z</time>
      </trkpt>
      <trkpt lat="46.13684" lon="4.40989">
        <ele>818.6</ele>
        <time>2025-09-08T11:05:29Z</time>
      </trkpt>
      <trkpt lat="46.13683" lon="4.40992">
        <ele>818.6</ele>
        <time>2025-09-08T11:05:30Z</time>
      </trkpt>
      <trkpt lat="46.13682" lon="4.40995">
        <ele>819</ele>
        <time>2025-09-08T11:05:31Z</time>
      </trkpt>
      <trkpt lat="46.13682" lon="4.40997">
        <ele>819.2</ele>
        <time>2025-09-08T11:05:32Z</time>
      </trkpt>
      <trkpt lat="46.13682" lon="4.41">
        <ele>819</ele>
        <time>2025-09-08T11:05:33Z</time>
      </trkpt>
      <trkpt lat="46.13681" lon="4.41002">
        <ele>819</ele>
        <time>2025-09-08T11:05:34Z</time>
      </trkpt>
      <trkpt lat="46.1368" lon="4.41007">
        <ele>819</ele>
        <time>2025-09-08T11:05:35Z</time>
      </trkpt>
      <trkpt lat="46.13679" lon="4.41009">
        <ele>819.4</ele>
        <time>2025-09-08T11:05:36Z</time>
      </trkpt>
      <trkpt lat="46.13678" lon="4.41011">
        <ele>819.4</ele>
        <time>2025-09-08T11:05:37Z</time>
      </trkpt>
      <trkpt lat="46.13678" lon="4.41013">
        <ele>819.4</ele>
        <time>2025-09-08T11:05:38Z</time>
      </trkpt>
      <trkpt lat="46.13678" lon="4.41015">
        <ele>819.6</ele>
        <time>2025-09-08T11:05:39Z</time>
      </trkpt>
      <trkpt lat="46.13678" lon="4.41017">
        <ele>819.8</ele>
        <time>2025-09-08T11:05:40Z</time>
      </trkpt>
      <trkpt lat="46.13677" lon="4.41019">
        <ele>820.2</ele>
        <time>2025-09-08T11:05:41Z</time>
      </trkpt>
      <trkpt lat="46.13677" lon="4.41021">
        <ele>820.2</ele>
        <time>2025-09-08T11:05:42Z</time>
      </trkpt>
      <trkpt lat="46.13677" lon="4.41022">
        <ele>820.2</ele>
        <time>2025-09-08T11:05:43Z</time>
      </trkpt>
      <trkpt lat="46.13676" lon="4.41024">
        <ele>821</ele>
        <time>2025-09-08T11:05:44Z</time>
      </trkpt>
      <trkpt lat="46.13676" lon="4.41026">
        <ele>821</ele>
        <time>2025-09-08T11:05:45Z</time>
      </trkpt>
      <trkpt lat="46.13675" lon="4.41028">
        <ele>821</ele>
        <time>2025-09-08T11:05:46Z</time>
      </trkpt>
      <trkpt lat="46.13675" lon="4.4103">
        <ele>822</ele>
        <time>2025-09-08T11:05:47Z</time>
      </trkpt>
      <trkpt lat="46.13674" lon="4.41032">
        <ele>822</ele>
        <time>2025-09-08T11:05:48Z</time>
      </trkpt>
      <trkpt lat="46.13674" lon="4.41034">
        <ele>822</ele>
        <time>2025-09-08T11:05:49Z</time>
      </trkpt>
      <trkpt lat="46.13674" lon="4.41036">
        <ele>822</ele>
        <time>2025-09-08T11:05:50Z</time>
      </trkpt>
      <trkpt lat="46.13673" lon="4.41037">
        <ele>822</ele>
        <time>2025-09-08T11:05:51Z</time>
      </trkpt>
      <trkpt lat="46.13673" lon="4.41038">
        <ele>822.2</ele>
        <time>2025-09-08T11:05:52Z</time>
      </trkpt>
      <trkpt lat="46.13672" lon="4.41038">
        <ele>822.2</ele>
        <time>2025-09-08T11:05:53Z</time>
      </trkpt>
      <trkpt lat="46.13672" lon="4.41039">
        <ele>822.2</ele>
        <time>2025-09-08T11:05:54Z</time>
      </trkpt>
      <trkpt lat="46.13672" lon="4.41039">
        <ele>822.2</ele>
        <time>2025-09-08T11:05:55Z</time>
      </trkpt>
      <trkpt lat="46.13673" lon="4.41039">
        <ele>822.2</ele>
        <time>2025-09-08T11:05:56Z</time>
      </trkpt>
      <trkpt lat="46.13672" lon="4.41043">
        <ele>822.6</ele>
        <time>2025-09-08T11:06:10Z</time>
      </trkpt>
      <trkpt lat="46.13672" lon="4.41045">
        <ele>822.6</ele>
        <time>2025-09-08T11:06:11Z</time>
      </trkpt>
      <trkpt lat="46.13672" lon="4.41048">
        <ele>823.6</ele>
        <time>2025-09-08T11:06:12Z</time>
      </trkpt>
      <trkpt lat="46.13671" lon="4.4105">
        <ele>823.6</ele>
        <time>2025-09-08T11:06:13Z</time>
      </trkpt>
      <trkpt lat="46.13671" lon="4.41052">
        <ele>823.6</ele>
        <time>2025-09-08T11:06:14Z</time>
      </trkpt>
      <trkpt lat="46.13671" lon="4.41055">
        <ele>823.6</ele>
        <time>2025-09-08T11:06:15Z</time>
      </trkpt>
      <trkpt lat="46.13671" lon="4.41057">
        <ele>823.2</ele>
        <time>2025-09-08T11:06:16Z</time>
      </trkpt>
      <trkpt lat="46.13671" lon="4.41059">
        <ele>823.6</ele>
        <time>2025-09-08T11:06:17Z</time>
      </trkpt>
      <trkpt lat="46.1367" lon="4.41062">
        <ele>823.6</ele>
        <time>2025-09-08T11:06:18Z</time>
      </trkpt>
      <trkpt lat="46.1367" lon="4.41065">
        <ele>823.8</ele>
        <time>2025-09-08T11:06:19Z</time>
      </trkpt>
      <trkpt lat="46.1367" lon="4.41067">
        <ele>823.8</ele>
        <time>2025-09-08T11:06:20Z</time>
      </trkpt>
      <trkpt lat="46.1367" lon="4.4107">
        <ele>823.8</ele>
        <time>2025-09-08T11:06:21Z</time>
      </trkpt>
      <trkpt lat="46.1367" lon="4.4107">
        <ele>823.8</ele>
        <time>2025-09-08T11:06:22Z</time>
      </trkpt>
      <trkpt lat="46.1367" lon="4.41072">
        <ele>824</ele>
        <time>2025-09-08T11:06:23Z</time>
      </trkpt>
      <trkpt lat="46.1367" lon="4.41074">
        <ele>824</ele>
        <time>2025-09-08T11:06:24Z</time>
      </trkpt>
      <trkpt lat="46.1367" lon="4.41076">
        <ele>824</ele>
        <time>2025-09-08T11:06:25Z</time>
      </trkpt>
      <trkpt lat="46.1367" lon="4.41079">
        <ele>824</ele>
        <time>2025-09-08T11:06:26Z</time>
      </trkpt>
      <trkpt lat="46.1367" lon="4.41081">
        <ele>824</ele>
        <time>2025-09-08T11:06:27Z</time>
      </trkpt>
      <trkpt lat="46.1367" lon="4.41083">
        <ele>824.2</ele>
        <time>2025-09-08T11:06:28Z</time>
      </trkpt>
      <trkpt lat="46.13669" lon="4.41086">
        <ele>824.2</ele>
        <time>2025-09-08T11:06:29Z</time>
      </trkpt>
      <trkpt lat="46.13669" lon="4.41088">
        <ele>824.6</ele>
        <time>2025-09-08T11:06:30Z</time>
      </trkpt>
      <trkpt lat="46.13668" lon="4.41091">
        <ele>824.6</ele>
        <time>2025-09-08T11:06:31Z</time>
      </trkpt>
      <trkpt lat="46.13668" lon="4.41093">
        <ele>824.6</ele>
        <time>2025-09-08T11:06:32Z</time>
      </trkpt>
      <trkpt lat="46.13668" lon="4.41096">
        <ele>824.8</ele>
        <time>2025-09-08T11:06:33Z</time>
      </trkpt>
      <trkpt lat="46.13667" lon="4.41098">
        <ele>824.8</ele>
        <time>2025-09-08T11:06:34Z</time>
      </trkpt>
      <trkpt lat="46.13667" lon="4.41101">
        <ele>825</ele>
        <time>2025-09-08T11:06:35Z</time>
      </trkpt>
      <trkpt lat="46.13666" lon="4.41103">
        <ele>825</ele>
        <time>2025-09-08T11:06:36Z</time>
      </trkpt>
      <trkpt lat="46.13666" lon="4.41106">
        <ele>825</ele>
        <time>2025-09-08T11:06:37Z</time>
      </trkpt>
      <trkpt lat="46.13665" lon="4.41108">
        <ele>825</ele>
        <time>2025-09-08T11:06:38Z</time>
      </trkpt>
      <trkpt lat="46.13664" lon="4.41111">
        <ele>825.4</ele>
        <time>2025-09-08T11:06:39Z</time>
      </trkpt>
      <trkpt lat="46.13664" lon="4.41114">
        <ele>825.6</ele>
        <time>2025-09-08T11:06:40Z</time>
      </trkpt>
      <trkpt lat="46.13664" lon="4.41117">
        <ele>825.6</ele>
        <time>2025-09-08T11:06:41Z</time>
      </trkpt>
      <trkpt lat="46.13664" lon="4.4112">
        <ele>825.6</ele>
        <time>2025-09-08T11:06:42Z</time>
      </trkpt>
      <trkpt lat="46.13663" lon="4.41122">
        <ele>825.8</ele>
        <time>2025-09-08T11:06:43Z</time>
      </trkpt>
      <trkpt lat="46.13663" lon="4.41125">
        <ele>825.8</ele>
        <time>2025-09-08T11:06:44Z</time>
      </trkpt>
      <trkpt lat="46.13663" lon="4.41128">
        <ele>825.8</ele>
        <time>2025-09-08T11:06:45Z</time>
      </trkpt>
      <trkpt lat="46.13662" lon="4.41131">
        <ele>825.8</ele>
        <time>2025-09-08T11:06:46Z</time>
      </trkpt>
      <trkpt lat="46.13661" lon="4.41133">
        <ele>825.8</ele>
        <time>2025-09-08T11:06:47Z</time>
      </trkpt>
      <trkpt lat="46.1366" lon="4.41136">
        <ele>825.8</ele>
        <time>2025-09-08T11:06:48Z</time>
      </trkpt>
      <trkpt lat="46.13659" lon="4.41139">
        <ele>826.2</ele>
        <time>2025-09-08T11:06:49Z</time>
      </trkpt>
      <trkpt lat="46.13658" lon="4.41141">
        <ele>826.4</ele>
        <time>2025-09-08T11:06:50Z</time>
      </trkpt>
      <trkpt lat="46.13657" lon="4.41144">
        <ele>826.4</ele>
        <time>2025-09-08T11:06:51Z</time>
      </trkpt>
      <trkpt lat="46.13656" lon="4.41146">
        <ele>826.8</ele>
        <time>2025-09-08T11:06:52Z</time>
      </trkpt>
      <trkpt lat="46.13655" lon="4.41148">
        <ele>826.6</ele>
        <time>2025-09-08T11:06:53Z</time>
      </trkpt>
      <trkpt lat="46.13655" lon="4.41151">
        <ele>826.6</ele>
        <time>2025-09-08T11:06:54Z</time>
      </trkpt>
      <trkpt lat="46.13654" lon="4.41153">
        <ele>826.6</ele>
        <time>2025-09-08T11:06:55Z</time>
      </trkpt>
      <trkpt lat="46.13654" lon="4.41156">
        <ele>826.6</ele>
        <time>2025-09-08T11:06:56Z</time>
      </trkpt>
      <trkpt lat="46.13653" lon="4.41158">
        <ele>826.6</ele>
        <time>2025-09-08T11:06:57Z</time>
      </trkpt>
      <trkpt lat="46.13652" lon="4.41161">
        <ele>826.6</ele>
        <time>2025-09-08T11:06:58Z</time>
      </trkpt>
      <trkpt lat="46.13651" lon="4.41163">
        <ele>826.6</ele>
        <time>2025-09-08T11:06:59Z</time>
      </trkpt>
      <trkpt lat="46.1365" lon="4.41165">
        <ele>827</ele>
        <time>2025-09-08T11:07:00Z</time>
      </trkpt>
      <trkpt lat="46.13649" lon="4.41167">
        <ele>827.4</ele>
        <time>2025-09-08T11:07:01Z</time>
      </trkpt>
      <trkpt lat="46.13648" lon="4.4117">
        <ele>827.4</ele>
        <time>2025-09-08T11:07:02Z</time>
      </trkpt>
      <trkpt lat="46.13646" lon="4.41173">
        <ele>827.4</ele>
        <time>2025-09-08T11:07:03Z</time>
      </trkpt>
      <trkpt lat="46.13645" lon="4.41175">
        <ele>827.4</ele>
        <time>2025-09-08T11:07:04Z</time>
      </trkpt>
      <trkpt lat="46.13644" lon="4.41178">
        <ele>827.8</ele>
        <time>2025-09-08T11:07:05Z</time>
      </trkpt>
      <trkpt lat="46.13643" lon="4.41181">
        <ele>827.8</ele>
        <time>2025-09-08T11:07:06Z</time>
      </trkpt>
      <trkpt lat="46.13642" lon="4.41183">
        <ele>827.8</ele>
        <time>2025-09-08T11:07:07Z</time>
      </trkpt>
      <trkpt lat="46.13641" lon="4.41186">
        <ele>827.8</ele>
        <time>2025-09-08T11:07:08Z</time>
      </trkpt>
      <trkpt lat="46.1364" lon="4.41189">
        <ele>827.8</ele>
        <time>2025-09-08T11:07:09Z</time>
      </trkpt>
      <trkpt lat="46.13639" lon="4.41191">
        <ele>828</ele>
        <time>2025-09-08T11:07:10Z</time>
      </trkpt>
      <trkpt lat="46.13638" lon="4.41194">
        <ele>828</ele>
        <time>2025-09-08T11:07:11Z</time>
      </trkpt>
      <trkpt lat="46.13637" lon="4.41196">
        <ele>828.2</ele>
        <time>2025-09-08T11:07:12Z</time>
      </trkpt>
      <trkpt lat="46.13636" lon="4.41198">
        <ele>828.2</ele>
        <time>2025-09-08T11:07:13Z</time>
      </trkpt>
      <trkpt lat="46.13635" lon="4.412">
        <ele>828.2</ele>
        <time>2025-09-08T11:07:14Z</time>
      </trkpt>
      <trkpt lat="46.13633" lon="4.41202">
        <ele>828.2</ele>
        <time>2025-09-08T11:07:15Z</time>
      </trkpt>
      <trkpt lat="46.13632" lon="4.41203">
        <ele>828.2</ele>
        <time>2025-09-08T11:07:16Z</time>
      </trkpt>
      <trkpt lat="46.13631" lon="4.41203">
        <ele>828.2</ele>
        <time>2025-09-08T11:07:17Z</time>
      </trkpt>
      <trkpt lat="46.13629" lon="4.41203">
        <ele>828.2</ele>
        <time>2025-09-08T11:07:18Z</time>
      </trkpt>
      <trkpt lat="46.13627" lon="4.41203">
        <ele>828.2</ele>
        <time>2025-09-08T11:07:19Z</time>
      </trkpt>
      <trkpt lat="46.13625" lon="4.41201">
        <ele>828</ele>
        <time>2025-09-08T11:07:20Z</time>
      </trkpt>
      <trkpt lat="46.13623" lon="4.412">
        <ele>828</ele>
        <time>2025-09-08T11:07:21Z</time>
      </trkpt>
      <trkpt lat="46.1362" lon="4.41198">
        <ele>827.6</ele>
        <time>2025-09-08T11:07:22Z</time>
      </trkpt>
      <trkpt lat="46.13617" lon="4.41197">
        <ele>827.6</ele>
        <time>2025-09-08T11:07:23Z</time>
      </trkpt>
      <trkpt lat="46.13615" lon="4.41196">
        <ele>828</ele>
        <time>2025-09-08T11:07:24Z</time>
      </trkpt>
      <trkpt lat="46.13612" lon="4.41195">
        <ele>828</ele>
        <time>2025-09-08T11:07:25Z</time>
      </trkpt>
      <trkpt lat="46.13608" lon="4.41194">
        <ele>828.6</ele>
        <time>2025-09-08T11:07:26Z</time>
      </trkpt>
      <trkpt lat="46.13605" lon="4.41194">
        <ele>827.8</ele>
        <time>2025-09-08T11:07:27Z</time>
      </trkpt>
      <trkpt lat="46.13603" lon="4.41193">
        <ele>827.4</ele>
        <time>2025-09-08T11:07:28Z</time>
      </trkpt>
      <trkpt lat="46.136" lon="4.41192">
        <ele>828</ele>
        <time>2025-09-08T11:07:29Z</time>
      </trkpt>
      <trkpt lat="46.13597" lon="4.4119">
        <ele>827.2</ele>
        <time>2025-09-08T11:07:30Z</time>
      </trkpt>
      <trkpt lat="46.13594" lon="4.41189">
        <ele>826.8</ele>
        <time>2025-09-08T11:07:31Z</time>
      </trkpt>
      <trkpt lat="46.1359" lon="4.41188">
        <ele>826</ele>
        <time>2025-09-08T11:07:32Z</time>
      </trkpt>
      <trkpt lat="46.13587" lon="4.41187">
        <ele>826</ele>
        <time>2025-09-08T11:07:33Z</time>
      </trkpt>
      <trkpt lat="46.13583" lon="4.41186">
        <ele>825.2</ele>
        <time>2025-09-08T11:07:34Z</time>
      </trkpt>
      <trkpt lat="46.1358" lon="4.41184">
        <ele>825.2</ele>
        <time>2025-09-08T11:07:35Z</time>
      </trkpt>
      <trkpt lat="46.13576" lon="4.41183">
        <ele>824.6</ele>
        <time>2025-09-08T11:07:36Z</time>
      </trkpt>
      <trkpt lat="46.13572" lon="4.41181">
        <ele>824</ele>
        <time>2025-09-08T11:07:37Z</time>
      </trkpt>
      <trkpt lat="46.13569" lon="4.41179">
        <ele>824</ele>
        <time>2025-09-08T11:07:38Z</time>
      </trkpt>
      <trkpt lat="46.13566" lon="4.41177">
        <ele>823.8</ele>
        <time>2025-09-08T11:07:39Z</time>
      </trkpt>
      <trkpt lat="46.13562" lon="4.41175">
        <ele>823.8</ele>
        <time>2025-09-08T11:07:40Z</time>
      </trkpt>
      <trkpt lat="46.13559" lon="4.41173">
        <ele>823.2</ele>
        <time>2025-09-08T11:07:41Z</time>
      </trkpt>
      <trkpt lat="46.13556" lon="4.41171">
        <ele>823</ele>
        <time>2025-09-08T11:07:42Z</time>
      </trkpt>
      <trkpt lat="46.13554" lon="4.4117">
        <ele>822.8</ele>
        <time>2025-09-08T11:07:43Z</time>
      </trkpt>
      <trkpt lat="46.13551" lon="4.41167">
        <ele>823.2</ele>
        <time>2025-09-08T11:07:44Z</time>
      </trkpt>
      <trkpt lat="46.13548" lon="4.41165">
        <ele>822.8</ele>
        <time>2025-09-08T11:07:45Z</time>
      </trkpt>
      <trkpt lat="46.13546" lon="4.41162">
        <ele>822.2</ele>
        <time>2025-09-08T11:07:46Z</time>
      </trkpt>
      <trkpt lat="46.13544" lon="4.4116">
        <ele>822.8</ele>
        <time>2025-09-08T11:07:47Z</time>
      </trkpt>
      <trkpt lat="46.13542" lon="4.41158">
        <ele>822.4</ele>
        <time>2025-09-08T11:07:48Z</time>
      </trkpt>
      <trkpt lat="46.13539" lon="4.41156">
        <ele>822.2</ele>
        <time>2025-09-08T11:07:49Z</time>
      </trkpt>
      <trkpt lat="46.13536" lon="4.41154">
        <ele>822.6</ele>
        <time>2025-09-08T11:07:50Z</time>
      </trkpt>
      <trkpt lat="46.13533" lon="4.41152">
        <ele>822.6</ele>
        <time>2025-09-08T11:07:51Z</time>
      </trkpt>
      <trkpt lat="46.1353" lon="4.41149">
        <ele>821.8</ele>
        <time>2025-09-08T11:07:52Z</time>
      </trkpt>
      <trkpt lat="46.13527" lon="4.41147">
        <ele>821.8</ele>
        <time>2025-09-08T11:07:53Z</time>
      </trkpt>
      <trkpt lat="46.13521" lon="4.41145">
        <ele>821.4</ele>
        <time>2025-09-08T11:07:54Z</time>
      </trkpt>
      <trkpt lat="46.13517" lon="4.41144">
        <ele>820.8</ele>
        <time>2025-09-08T11:07:55Z</time>
      </trkpt>
      <trkpt lat="46.13513" lon="4.41143">
        <ele>821.2</ele>
        <time>2025-09-08T11:07:56Z</time>
      </trkpt>
      <trkpt lat="46.1351" lon="4.41143">
        <ele>821.2</ele>
        <time>2025-09-08T11:07:57Z</time>
      </trkpt>
      <trkpt lat="46.13505" lon="4.41143">
        <ele>820.8</ele>
        <time>2025-09-08T11:07:58Z</time>
      </trkpt>
      <trkpt lat="46.13502" lon="4.41143">
        <ele>820.4</ele>
        <time>2025-09-08T11:07:59Z</time>
      </trkpt>
      <trkpt lat="46.13498" lon="4.41143">
        <ele>820.4</ele>
        <time>2025-09-08T11:08:00Z</time>
      </trkpt>
      <trkpt lat="46.13493" lon="4.41142">
        <ele>820</ele>
        <time>2025-09-08T11:08:01Z</time>
      </trkpt>
      <trkpt lat="46.1349" lon="4.41141">
        <ele>819.6</ele>
        <time>2025-09-08T11:08:02Z</time>
      </trkpt>
      <trkpt lat="46.13487" lon="4.41139">
        <ele>819</ele>
        <time>2025-09-08T11:08:03Z</time>
      </trkpt>
      <trkpt lat="46.13483" lon="4.41136">
        <ele>818.4</ele>
        <time>2025-09-08T11:08:04Z</time>
      </trkpt>
      <trkpt lat="46.13482" lon="4.41135">
        <ele>818.4</ele>
        <time>2025-09-08T11:08:05Z</time>
      </trkpt>
      <trkpt lat="46.1348" lon="4.41131">
        <ele>818.4</ele>
        <time>2025-09-08T11:08:06Z</time>
      </trkpt>
      <trkpt lat="46.13477" lon="4.41129">
        <ele>818.8</ele>
        <time>2025-09-08T11:08:07Z</time>
      </trkpt>
      <trkpt lat="46.13474" lon="4.41129">
        <ele>818.4</ele>
        <time>2025-09-08T11:08:08Z</time>
      </trkpt>
      <trkpt lat="46.1347" lon="4.41128">
        <ele>818.2</ele>
        <time>2025-09-08T11:08:09Z</time>
      </trkpt>
      <trkpt lat="46.13465" lon="4.41128">
        <ele>818.2</ele>
        <time>2025-09-08T11:08:10Z</time>
      </trkpt>
      <trkpt lat="46.1346" lon="4.41126">
        <ele>817.8</ele>
        <time>2025-09-08T11:08:11Z</time>
      </trkpt>
      <trkpt lat="46.13456" lon="4.41124">
        <ele>817.8</ele>
        <time>2025-09-08T11:08:12Z</time>
      </trkpt>
      <trkpt lat="46.13452" lon="4.4112">
        <ele>818</ele>
        <time>2025-09-08T11:08:13Z</time>
      </trkpt>
      <trkpt lat="46.13448" lon="4.41117">
        <ele>817.8</ele>
        <time>2025-09-08T11:08:14Z</time>
      </trkpt>
      <trkpt lat="46.13444" lon="4.41118">
        <ele>817.8</ele>
        <time>2025-09-08T11:08:15Z</time>
      </trkpt>
      <trkpt lat="46.13439" lon="4.41115">
        <ele>817.4</ele>
        <time>2025-09-08T11:08:16Z</time>
      </trkpt>
      <trkpt lat="46.13437" lon="4.41114">
        <ele>817.2</ele>
        <time>2025-09-08T11:08:17Z</time>
      </trkpt>
      <trkpt lat="46.13431" lon="4.41112">
        <ele>817.6</ele>
        <time>2025-09-08T11:08:18Z</time>
      </trkpt>
      <trkpt lat="46.13428" lon="4.4111">
        <ele>817.6</ele>
        <time>2025-09-08T11:08:19Z</time>
      </trkpt>
      <trkpt lat="46.13427" lon="4.41106">
        <ele>817</ele>
        <time>2025-09-08T11:08:20Z</time>
      </trkpt>
      <trkpt lat="46.13426" lon="4.41103">
        <ele>817.6</ele>
        <time>2025-09-08T11:08:21Z</time>
      </trkpt>
      <trkpt lat="46.13424" lon="4.41101">
        <ele>817.6</ele>
        <time>2025-09-08T11:08:22Z</time>
      </trkpt>
      <trkpt lat="46.13423" lon="4.41099">
        <ele>817</ele>
        <time>2025-09-08T11:08:23Z</time>
      </trkpt>
      <trkpt lat="46.13421" lon="4.41098">
        <ele>816.6</ele>
        <time>2025-09-08T11:08:24Z</time>
      </trkpt>
      <trkpt lat="46.13419" lon="4.41095">
        <ele>816.6</ele>
        <time>2025-09-08T11:08:25Z</time>
      </trkpt>
      <trkpt lat="46.13417" lon="4.41093">
        <ele>816.2</ele>
        <time>2025-09-08T11:08:26Z</time>
      </trkpt>
      <trkpt lat="46.13414" lon="4.41091">
        <ele>816.2</ele>
        <time>2025-09-08T11:08:27Z</time>
      </trkpt>
      <trkpt lat="46.13412" lon="4.41089">
        <ele>815.6</ele>
        <time>2025-09-08T11:08:28Z</time>
      </trkpt>
      <trkpt lat="46.1341" lon="4.41087">
        <ele>815.6</ele>
        <time>2025-09-08T11:08:29Z</time>
      </trkpt>
      <trkpt lat="46.13408" lon="4.41085">
        <ele>815.6</ele>
        <time>2025-09-08T11:08:30Z</time>
      </trkpt>
      <trkpt lat="46.13407" lon="4.41083">
        <ele>815.4</ele>
        <time>2025-09-08T11:08:31Z</time>
      </trkpt>
      <trkpt lat="46.13405" lon="4.41081">
        <ele>815.4</ele>
        <time>2025-09-08T11:08:32Z</time>
      </trkpt>
      <trkpt lat="46.13403" lon="4.4108">
        <ele>815.8</ele>
        <time>2025-09-08T11:08:33Z</time>
      </trkpt>
      <trkpt lat="46.13401" lon="4.4108">
        <ele>815</ele>
        <time>2025-09-08T11:08:34Z</time>
      </trkpt>
      <trkpt lat="46.13399" lon="4.41079">
        <ele>814.2</ele>
        <time>2025-09-08T11:08:35Z</time>
      </trkpt>
      <trkpt lat="46.13396" lon="4.41077">
        <ele>814.2</ele>
        <time>2025-09-08T11:08:36Z</time>
      </trkpt>
      <trkpt lat="46.13394" lon="4.41075">
        <ele>814.2</ele>
        <time>2025-09-08T11:08:37Z</time>
      </trkpt>
      <trkpt lat="46.13392" lon="4.41073">
        <ele>813.8</ele>
        <time>2025-09-08T11:08:38Z</time>
      </trkpt>
      <trkpt lat="46.1339" lon="4.41072">
        <ele>813.4</ele>
        <time>2025-09-08T11:08:39Z</time>
      </trkpt>
      <trkpt lat="46.13389" lon="4.41071">
        <ele>813.4</ele>
        <time>2025-09-08T11:08:40Z</time>
      </trkpt>
      <trkpt lat="46.13388" lon="4.4107">
        <ele>813.4</ele>
        <time>2025-09-08T11:08:41Z</time>
      </trkpt>
      <trkpt lat="46.13388" lon="4.4107">
        <ele>813.4</ele>
        <time>2025-09-08T11:08:42Z</time>
      </trkpt>
      <trkpt lat="46.13387" lon="4.4107">
        <ele>813.4</ele>
        <time>2025-09-08T11:08:43Z</time>
      </trkpt>
      <trkpt lat="46.13386" lon="4.4107">
        <ele>813.4</ele>
        <time>2025-09-08T11:08:44Z</time>
      </trkpt>
      <trkpt lat="46.13385" lon="4.41071">
        <ele>813.8</ele>
        <time>2025-09-08T11:08:45Z</time>
      </trkpt>
      <trkpt lat="46.13383" lon="4.41072">
        <ele>813.8</ele>
        <time>2025-09-08T11:08:46Z</time>
      </trkpt>
      <trkpt lat="46.13382" lon="4.41072">
        <ele>813.8</ele>
        <time>2025-09-08T11:08:47Z</time>
      </trkpt>
      <trkpt lat="46.13381" lon="4.41073">
        <ele>814.4</ele>
        <time>2025-09-08T11:08:48Z</time>
      </trkpt>
      <trkpt lat="46.1338" lon="4.41074">
        <ele>814.4</ele>
        <time>2025-09-08T11:08:49Z</time>
      </trkpt>
      <trkpt lat="46.13379" lon="4.41075">
        <ele>814.4</ele>
        <time>2025-09-08T11:08:50Z</time>
      </trkpt>
      <trkpt lat="46.13378" lon="4.41076">
        <ele>814.6</ele>
        <time>2025-09-08T11:08:51Z</time>
      </trkpt>
      <trkpt lat="46.13376" lon="4.41077">
        <ele>814.6</ele>
        <time>2025-09-08T11:08:52Z</time>
      </trkpt>
      <trkpt lat="46.13374" lon="4.41078">
        <ele>815</ele>
        <time>2025-09-08T11:08:53Z</time>
      </trkpt>
      <trkpt lat="46.13372" lon="4.4108">
        <ele>815</ele>
        <time>2025-09-08T11:08:54Z</time>
      </trkpt>
      <trkpt lat="46.1337" lon="4.41081">
        <ele>815.2</ele>
        <time>2025-09-08T11:08:55Z</time>
      </trkpt>
      <trkpt lat="46.13369" lon="4.41083">
        <ele>815.2</ele>
        <time>2025-09-08T11:08:56Z</time>
      </trkpt>
      <trkpt lat="46.13369" lon="4.41083">
        <ele>815.6</ele>
        <time>2025-09-08T11:08:57Z</time>
      </trkpt>
      <trkpt lat="46.13367" lon="4.41084">
        <ele>815.8</ele>
        <time>2025-09-08T11:08:58Z</time>
      </trkpt>
      <trkpt lat="46.13365" lon="4.41085">
        <ele>815.8</ele>
        <time>2025-09-08T11:08:59Z</time>
      </trkpt>
      <trkpt lat="46.13363" lon="4.41085">
        <ele>816.2</ele>
        <time>2025-09-08T11:09:00Z</time>
      </trkpt>
      <trkpt lat="46.13361" lon="4.41086">
        <ele>816.4</ele>
        <time>2025-09-08T11:09:01Z</time>
      </trkpt>
      <trkpt lat="46.13359" lon="4.41086">
        <ele>816.4</ele>
        <time>2025-09-08T11:09:02Z</time>
      </trkpt>
      <trkpt lat="46.13357" lon="4.41087">
        <ele>816.8</ele>
        <time>2025-09-08T11:09:03Z</time>
      </trkpt>
      <trkpt lat="46.13355" lon="4.41089">
        <ele>816.8</ele>
        <time>2025-09-08T11:09:04Z</time>
      </trkpt>
      <trkpt lat="46.13354" lon="4.4109">
        <ele>816.8</ele>
        <time>2025-09-08T11:09:05Z</time>
      </trkpt>
      <trkpt lat="46.13353" lon="4.41092">
        <ele>817.2</ele>
        <time>2025-09-08T11:09:06Z</time>
      </trkpt>
      <trkpt lat="46.13351" lon="4.41093">
        <ele>817.2</ele>
        <time>2025-09-08T11:09:07Z</time>
      </trkpt>
      <trkpt lat="46.13349" lon="4.41095">
        <ele>817.4</ele>
        <time>2025-09-08T11:09:08Z</time>
      </trkpt>
      <trkpt lat="46.13348" lon="4.41096">
        <ele>817.6</ele>
        <time>2025-09-08T11:09:09Z</time>
      </trkpt>
      <trkpt lat="46.13346" lon="4.41098">
        <ele>817.6</ele>
        <time>2025-09-08T11:09:10Z</time>
      </trkpt>
      <trkpt lat="46.13345" lon="4.411">
        <ele>818</ele>
        <time>2025-09-08T11:09:11Z</time>
      </trkpt>
      <trkpt lat="46.13344" lon="4.41101">
        <ele>818</ele>
        <time>2025-09-08T11:09:12Z</time>
      </trkpt>
      <trkpt lat="46.13343" lon="4.41103">
        <ele>818.2</ele>
        <time>2025-09-08T11:09:13Z</time>
      </trkpt>
      <trkpt lat="46.13342" lon="4.41103">
        <ele>818.2</ele>
        <time>2025-09-08T11:09:14Z</time>
      </trkpt>
      <trkpt lat="46.13341" lon="4.41104">
        <ele>818.4</ele>
        <time>2025-09-08T11:09:15Z</time>
      </trkpt>
      <trkpt lat="46.1334" lon="4.41105">
        <ele>818.8</ele>
        <time>2025-09-08T11:09:16Z</time>
      </trkpt>
      <trkpt lat="46.13339" lon="4.41106">
        <ele>818.8</ele>
        <time>2025-09-08T11:09:17Z</time>
      </trkpt>
      <trkpt lat="46.13338" lon="4.41106">
        <ele>819.2</ele>
        <time>2025-09-08T11:09:18Z</time>
      </trkpt>
      <trkpt lat="46.13337" lon="4.41106">
        <ele>819.4</ele>
        <time>2025-09-08T11:09:19Z</time>
      </trkpt>
      <trkpt lat="46.13336" lon="4.41107">
        <ele>819.4</ele>
        <time>2025-09-08T11:09:20Z</time>
      </trkpt>
      <trkpt lat="46.13334" lon="4.41108">
        <ele>819.8</ele>
        <time>2025-09-08T11:09:21Z</time>
      </trkpt>
      <trkpt lat="46.13333" lon="4.4111">
        <ele>819.8</ele>
        <time>2025-09-08T11:09:22Z</time>
      </trkpt>
      <trkpt lat="46.13331" lon="4.41111">
        <ele>820</ele>
        <time>2025-09-08T11:09:23Z</time>
      </trkpt>
      <trkpt lat="46.13329" lon="4.41112">
        <ele>820</ele>
        <time>2025-09-08T11:09:24Z</time>
      </trkpt>
      <trkpt lat="46.13328" lon="4.41113">
        <ele>820</ele>
        <time>2025-09-08T11:09:25Z</time>
      </trkpt>
      <trkpt lat="46.13327" lon="4.41114">
        <ele>820.4</ele>
        <time>2025-09-08T11:09:26Z</time>
      </trkpt>
      <trkpt lat="46.13325" lon="4.41115">
        <ele>820.6</ele>
        <time>2025-09-08T11:09:27Z</time>
      </trkpt>
      <trkpt lat="46.13324" lon="4.41116">
        <ele>820.6</ele>
        <time>2025-09-08T11:09:28Z</time>
      </trkpt>
      <trkpt lat="46.13323" lon="4.41117">
        <ele>820.8</ele>
        <time>2025-09-08T11:09:29Z</time>
      </trkpt>
      <trkpt lat="46.13321" lon="4.41118">
        <ele>820.8</ele>
        <time>2025-09-08T11:09:30Z</time>
      </trkpt>
      <trkpt lat="46.13319" lon="4.41119">
        <ele>821</ele>
        <time>2025-09-08T11:09:31Z</time>
      </trkpt>
      <trkpt lat="46.13318" lon="4.4112">
        <ele>821</ele>
        <time>2025-09-08T11:09:32Z</time>
      </trkpt>
      <trkpt lat="46.13316" lon="4.41121">
        <ele>821.6</ele>
        <time>2025-09-08T11:09:33Z</time>
      </trkpt>
      <trkpt lat="46.13315" lon="4.41121">
        <ele>821.6</ele>
        <time>2025-09-08T11:09:34Z</time>
      </trkpt>
      <trkpt lat="46.13313" lon="4.41123">
        <ele>822</ele>
        <time>2025-09-08T11:09:35Z</time>
      </trkpt>
      <trkpt lat="46.13312" lon="4.41124">
        <ele>822.4</ele>
        <time>2025-09-08T11:09:36Z</time>
      </trkpt>
      <trkpt lat="46.1331" lon="4.41125">
        <ele>822.4</ele>
        <time>2025-09-08T11:09:37Z</time>
      </trkpt>
      <trkpt lat="46.13309" lon="4.41126">
        <ele>822.8</ele>
        <time>2025-09-08T11:09:38Z</time>
      </trkpt>
      <trkpt lat="46.13307" lon="4.41126">
        <ele>822.8</ele>
        <time>2025-09-08T11:09:39Z</time>
      </trkpt>
      <trkpt lat="46.13306" lon="4.41127">
        <ele>822.8</ele>
        <time>2025-09-08T11:09:40Z</time>
      </trkpt>
      <trkpt lat="46.13304" lon="4.41129">
        <ele>823</ele>
        <time>2025-09-08T11:09:41Z</time>
      </trkpt>
      <trkpt lat="46.13302" lon="4.4113">
        <ele>823</ele>
        <time>2025-09-08T11:09:42Z</time>
      </trkpt>
      <trkpt lat="46.133" lon="4.41131">
        <ele>823</ele>
        <time>2025-09-08T11:09:43Z</time>
      </trkpt>
      <trkpt lat="46.13299" lon="4.41132">
        <ele>823.2</ele>
        <time>2025-09-08T11:09:44Z</time>
      </trkpt>
      <trkpt lat="46.13297" lon="4.41133">
        <ele>823.2</ele>
        <time>2025-09-08T11:09:45Z</time>
      </trkpt>
      <trkpt lat="46.13295" lon="4.41134">
        <ele>823.6</ele>
        <time>2025-09-08T11:09:46Z</time>
      </trkpt>
      <trkpt lat="46.13294" lon="4.41135">
        <ele>823.6</ele>
        <time>2025-09-08T11:09:47Z</time>
      </trkpt>
      <trkpt lat="46.13292" lon="4.41136">
        <ele>824</ele>
        <time>2025-09-08T11:09:48Z</time>
      </trkpt>
      <trkpt lat="46.13291" lon="4.41137">
        <ele>824.2</ele>
        <time>2025-09-08T11:09:49Z</time>
      </trkpt>
      <trkpt lat="46.1329" lon="4.41139">
        <ele>824.2</ele>
        <time>2025-09-08T11:09:50Z</time>
      </trkpt>
      <trkpt lat="46.13288" lon="4.4114">
        <ele>824.2</ele>
        <time>2025-09-08T11:09:51Z</time>
      </trkpt>
      <trkpt lat="46.13286" lon="4.41141">
        <ele>824.4</ele>
        <time>2025-09-08T11:09:52Z</time>
      </trkpt>
      <trkpt lat="46.13285" lon="4.41141">
        <ele>824.4</ele>
        <time>2025-09-08T11:09:53Z</time>
      </trkpt>
      <trkpt lat="46.13283" lon="4.41142">
        <ele>824.6</ele>
        <time>2025-09-08T11:09:54Z</time>
      </trkpt>
      <trkpt lat="46.13281" lon="4.41143">
        <ele>824.6</ele>
        <time>2025-09-08T11:09:55Z</time>
      </trkpt>
      <trkpt lat="46.13279" lon="4.41144">
        <ele>824.6</ele>
        <time>2025-09-08T11:09:56Z</time>
      </trkpt>
      <trkpt lat="46.13277" lon="4.41145">
        <ele>825</ele>
        <time>2025-09-08T11:09:57Z</time>
      </trkpt>
      <trkpt lat="46.13275" lon="4.41146">
        <ele>825</ele>
        <time>2025-09-08T11:09:58Z</time>
      </trkpt>
      <trkpt lat="46.13274" lon="4.41147">
        <ele>825</ele>
        <time>2025-09-08T11:09:59Z</time>
      </trkpt>
      <trkpt lat="46.13272" lon="4.41148">
        <ele>825</ele>
        <time>2025-09-08T11:10:00Z</time>
      </trkpt>
      <trkpt lat="46.13271" lon="4.41149">
        <ele>825</ele>
        <time>2025-09-08T11:10:01Z</time>
      </trkpt>
      <trkpt lat="46.13269" lon="4.41149">
        <ele>825.4</ele>
        <time>2025-09-08T11:10:02Z</time>
      </trkpt>
      <trkpt lat="46.13268" lon="4.4115">
        <ele>825.4</ele>
        <time>2025-09-08T11:10:03Z</time>
      </trkpt>
      <trkpt lat="46.13266" lon="4.41151">
        <ele>825.6</ele>
        <time>2025-09-08T11:10:04Z</time>
      </trkpt>
      <trkpt lat="46.13265" lon="4.41152">
        <ele>825.6</ele>
        <time>2025-09-08T11:10:05Z</time>
      </trkpt>
      <trkpt lat="46.13263" lon="4.41153">
        <ele>825.6</ele>
        <time>2025-09-08T11:10:06Z</time>
      </trkpt>
      <trkpt lat="46.13261" lon="4.41154">
        <ele>825.6</ele>
        <time>2025-09-08T11:10:07Z</time>
      </trkpt>
      <trkpt lat="46.1326" lon="4.41154">
        <ele>825.8</ele>
        <time>2025-09-08T11:10:08Z</time>
      </trkpt>
      <trkpt lat="46.13258" lon="4.41154">
        <ele>825.8</ele>
        <time>2025-09-08T11:10:09Z</time>
      </trkpt>
      <trkpt lat="46.13256" lon="4.41155">
        <ele>825.8</ele>
        <time>2025-09-08T11:10:10Z</time>
      </trkpt>
      <trkpt lat="46.13255" lon="4.41155">
        <ele>826.2</ele>
        <time>2025-09-08T11:10:11Z</time>
      </trkpt>
      <trkpt lat="46.13253" lon="4.41155">
        <ele>826.2</ele>
        <time>2025-09-08T11:10:12Z</time>
      </trkpt>
      <trkpt lat="46.13252" lon="4.41156">
        <ele>826.2</ele>
        <time>2025-09-08T11:10:13Z</time>
      </trkpt>
      <trkpt lat="46.1325" lon="4.41156">
        <ele>826.4</ele>
        <time>2025-09-08T11:10:14Z</time>
      </trkpt>
      <trkpt lat="46.13248" lon="4.41156">
        <ele>826.4</ele>
        <time>2025-09-08T11:10:15Z</time>
      </trkpt>
      <trkpt lat="46.13246" lon="4.41157">
        <ele>826.4</ele>
        <time>2025-09-08T11:10:16Z</time>
      </trkpt>
      <trkpt lat="46.13245" lon="4.41158">
        <ele>826.4</ele>
        <time>2025-09-08T11:10:17Z</time>
      </trkpt>
      <trkpt lat="46.13243" lon="4.41158">
        <ele>826.8</ele>
        <time>2025-09-08T11:10:18Z</time>
      </trkpt>
      <trkpt lat="46.13241" lon="4.41159">
        <ele>827</ele>
        <time>2025-09-08T11:10:19Z</time>
      </trkpt>
      <trkpt lat="46.1324" lon="4.41159">
        <ele>827</ele>
        <time>2025-09-08T11:10:20Z</time>
      </trkpt>
      <trkpt lat="46.13238" lon="4.41159">
        <ele>827.2</ele>
        <time>2025-09-08T11:10:21Z</time>
      </trkpt>
      <trkpt lat="46.13237" lon="4.4116">
        <ele>827.2</ele>
        <time>2025-09-08T11:10:22Z</time>
      </trkpt>
      <trkpt lat="46.13235" lon="4.4116">
        <ele>827.4</ele>
        <time>2025-09-08T11:10:23Z</time>
      </trkpt>
      <trkpt lat="46.13234" lon="4.4116">
        <ele>827.4</ele>
        <time>2025-09-08T11:10:24Z</time>
      </trkpt>
      <trkpt lat="46.13232" lon="4.41161">
        <ele>827.6</ele>
        <time>2025-09-08T11:10:25Z</time>
      </trkpt>
      <trkpt lat="46.13231" lon="4.41161">
        <ele>827.6</ele>
        <time>2025-09-08T11:10:26Z</time>
      </trkpt>
      <trkpt lat="46.13229" lon="4.41162">
        <ele>828</ele>
        <time>2025-09-08T11:10:27Z</time>
      </trkpt>
      <trkpt lat="46.13228" lon="4.41162">
        <ele>828</ele>
        <time>2025-09-08T11:10:28Z</time>
      </trkpt>
      <trkpt lat="46.13226" lon="4.41162">
        <ele>828</ele>
        <time>2025-09-08T11:10:29Z</time>
      </trkpt>
      <trkpt lat="46.13224" lon="4.41163">
        <ele>828.2</ele>
        <time>2025-09-08T11:10:30Z</time>
      </trkpt>
      <trkpt lat="46.13222" lon="4.41163">
        <ele>828.2</ele>
        <time>2025-09-08T11:10:31Z</time>
      </trkpt>
      <trkpt lat="46.13221" lon="4.41163">
        <ele>828.2</ele>
        <time>2025-09-08T11:10:32Z</time>
      </trkpt>
      <trkpt lat="46.13219" lon="4.41163">
        <ele>828.2</ele>
        <time>2025-09-08T11:10:33Z</time>
      </trkpt>
      <trkpt lat="46.13217" lon="4.41163">
        <ele>828.6</ele>
        <time>2025-09-08T11:10:34Z</time>
      </trkpt>
      <trkpt lat="46.13216" lon="4.41164">
        <ele>828.8</ele>
        <time>2025-09-08T11:10:35Z</time>
      </trkpt>
      <trkpt lat="46.13214" lon="4.41164">
        <ele>828.8</ele>
        <time>2025-09-08T11:10:36Z</time>
      </trkpt>
      <trkpt lat="46.13213" lon="4.41165">
        <ele>829.2</ele>
        <time>2025-09-08T11:10:37Z</time>
      </trkpt>
      <trkpt lat="46.13212" lon="4.41165">
        <ele>829.6</ele>
        <time>2025-09-08T11:10:38Z</time>
      </trkpt>
      <trkpt lat="46.1321" lon="4.41165">
        <ele>829.8</ele>
        <time>2025-09-08T11:10:39Z</time>
      </trkpt>
      <trkpt lat="46.13209" lon="4.41165">
        <ele>829.8</ele>
        <time>2025-09-08T11:10:40Z</time>
      </trkpt>
      <trkpt lat="46.13207" lon="4.41165">
        <ele>829.8</ele>
        <time>2025-09-08T11:10:41Z</time>
      </trkpt>
      <trkpt lat="46.13205" lon="4.41166">
        <ele>830.2</ele>
        <time>2025-09-08T11:10:42Z</time>
      </trkpt>
      <trkpt lat="46.13204" lon="4.41166">
        <ele>830.2</ele>
        <time>2025-09-08T11:10:43Z</time>
      </trkpt>
      <trkpt lat="46.13202" lon="4.41166">
        <ele>830.4</ele>
        <time>2025-09-08T11:10:44Z</time>
      </trkpt>
      <trkpt lat="46.132" lon="4.41167">
        <ele>830.6</ele>
        <time>2025-09-08T11:10:45Z</time>
      </trkpt>
      <trkpt lat="46.13199" lon="4.41167">
        <ele>830.6</ele>
        <time>2025-09-08T11:10:46Z</time>
      </trkpt>
      <trkpt lat="46.13197" lon="4.41167">
        <ele>830.6</ele>
        <time>2025-09-08T11:10:47Z</time>
      </trkpt>
      <trkpt lat="46.13196" lon="4.41167">
        <ele>831</ele>
        <time>2025-09-08T11:10:48Z</time>
      </trkpt>
      <trkpt lat="46.13194" lon="4.41167">
        <ele>831</ele>
        <time>2025-09-08T11:10:49Z</time>
      </trkpt>
      <trkpt lat="46.13192" lon="4.41167">
        <ele>831</ele>
        <time>2025-09-08T11:10:50Z</time>
      </trkpt>
      <trkpt lat="46.13191" lon="4.41167">
        <ele>831</ele>
        <time>2025-09-08T11:10:51Z</time>
      </trkpt>
      <trkpt lat="46.13189" lon="4.41167">
        <ele>831.4</ele>
        <time>2025-09-08T11:10:52Z</time>
      </trkpt>
      <trkpt lat="46.13188" lon="4.41167">
        <ele>831.4</ele>
        <time>2025-09-08T11:10:53Z</time>
      </trkpt>
      <trkpt lat="46.13187" lon="4.41168">
        <ele>831.4</ele>
        <time>2025-09-08T11:10:54Z</time>
      </trkpt>
      <trkpt lat="46.13185" lon="4.41168">
        <ele>831.6</ele>
        <time>2025-09-08T11:10:55Z</time>
      </trkpt>
      <trkpt lat="46.13183" lon="4.41168">
        <ele>831.6</ele>
        <time>2025-09-08T11:10:56Z</time>
      </trkpt>
      <trkpt lat="46.13181" lon="4.41168">
        <ele>831.8</ele>
        <time>2025-09-08T11:10:57Z</time>
      </trkpt>
      <trkpt lat="46.1318" lon="4.41168">
        <ele>831.8</ele>
        <time>2025-09-08T11:10:58Z</time>
      </trkpt>
      <trkpt lat="46.13178" lon="4.41168">
        <ele>832</ele>
        <time>2025-09-08T11:10:59Z</time>
      </trkpt>
      <trkpt lat="46.13176" lon="4.41168">
        <ele>832</ele>
        <time>2025-09-08T11:11:00Z</time>
      </trkpt>
      <trkpt lat="46.13175" lon="4.41168">
        <ele>832.4</ele>
        <time>2025-09-08T11:11:01Z</time>
      </trkpt>
      <trkpt lat="46.13173" lon="4.41168">
        <ele>832.4</ele>
        <time>2025-09-08T11:11:02Z</time>
      </trkpt>
      <trkpt lat="46.13171" lon="4.41168">
        <ele>832.8</ele>
        <time>2025-09-08T11:11:03Z</time>
      </trkpt>
      <trkpt lat="46.1317" lon="4.41168">
        <ele>832.8</ele>
        <time>2025-09-08T11:11:04Z</time>
      </trkpt>
      <trkpt lat="46.13167" lon="4.41167">
        <ele>833</ele>
        <time>2025-09-08T11:11:05Z</time>
      </trkpt>
      <trkpt lat="46.13165" lon="4.41167">
        <ele>833.2</ele>
        <time>2025-09-08T11:11:06Z</time>
      </trkpt>
      <trkpt lat="46.13164" lon="4.41166">
        <ele>833.2</ele>
        <time>2025-09-08T11:11:07Z</time>
      </trkpt>
      <trkpt lat="46.13162" lon="4.41166">
        <ele>833.2</ele>
        <time>2025-09-08T11:11:08Z</time>
      </trkpt>
      <trkpt lat="46.13161" lon="4.41165">
        <ele>833.6</ele>
        <time>2025-09-08T11:11:09Z</time>
      </trkpt>
      <trkpt lat="46.1316" lon="4.41165">
        <ele>833.6</ele>
        <time>2025-09-08T11:11:10Z</time>
      </trkpt>
      <trkpt lat="46.13158" lon="4.41164">
        <ele>833.6</ele>
        <time>2025-09-08T11:11:11Z</time>
      </trkpt>
      <trkpt lat="46.13157" lon="4.41163">
        <ele>834</ele>
        <time>2025-09-08T11:11:12Z</time>
      </trkpt>
      <trkpt lat="46.13155" lon="4.41163">
        <ele>834</ele>
        <time>2025-09-08T11:11:13Z</time>
      </trkpt>
      <trkpt lat="46.13154" lon="4.41163">
        <ele>834</ele>
        <time>2025-09-08T11:11:14Z</time>
      </trkpt>
      <trkpt lat="46.13152" lon="4.41162">
        <ele>834.2</ele>
        <time>2025-09-08T11:11:15Z</time>
      </trkpt>
      <trkpt lat="46.13151" lon="4.41162">
        <ele>834.6</ele>
        <time>2025-09-08T11:11:16Z</time>
      </trkpt>
      <trkpt lat="46.13149" lon="4.41162">
        <ele>834.6</ele>
        <time>2025-09-08T11:11:17Z</time>
      </trkpt>
      <trkpt lat="46.13148" lon="4.41162">
        <ele>834.6</ele>
        <time>2025-09-08T11:11:18Z</time>
      </trkpt>
      <trkpt lat="46.13146" lon="4.41162">
        <ele>835</ele>
        <time>2025-09-08T11:11:19Z</time>
      </trkpt>
      <trkpt lat="46.13145" lon="4.41161">
        <ele>835</ele>
        <time>2025-09-08T11:11:20Z</time>
      </trkpt>
      <trkpt lat="46.13143" lon="4.41161">
        <ele>835</ele>
        <time>2025-09-08T11:11:21Z</time>
      </trkpt>
      <trkpt lat="46.13142" lon="4.4116">
        <ele>835.4</ele>
        <time>2025-09-08T11:11:22Z</time>
      </trkpt>
      <trkpt lat="46.1314" lon="4.4116">
        <ele>835.4</ele>
        <time>2025-09-08T11:11:23Z</time>
      </trkpt>
      <trkpt lat="46.13139" lon="4.4116">
        <ele>835.6</ele>
        <time>2025-09-08T11:11:24Z</time>
      </trkpt>
      <trkpt lat="46.13139" lon="4.41159">
        <ele>835.6</ele>
        <time>2025-09-08T11:11:25Z</time>
      </trkpt>
      <trkpt lat="46.13138" lon="4.41159">
        <ele>835.6</ele>
        <time>2025-09-08T11:11:26Z</time>
      </trkpt>
      <trkpt lat="46.13137" lon="4.41158">
        <ele>836</ele>
        <time>2025-09-08T11:11:27Z</time>
      </trkpt>
      <trkpt lat="46.13137" lon="4.41157">
        <ele>836</ele>
        <time>2025-09-08T11:11:28Z</time>
      </trkpt>
      <trkpt lat="46.13136" lon="4.41156">
        <ele>836.2</ele>
        <time>2025-09-08T11:11:29Z</time>
      </trkpt>
      <trkpt lat="46.13135" lon="4.41156">
        <ele>836.2</ele>
        <time>2025-09-08T11:11:30Z</time>
      </trkpt>
      <trkpt lat="46.13134" lon="4.41155">
        <ele>836.4</ele>
        <time>2025-09-08T11:11:31Z</time>
      </trkpt>
      <trkpt lat="46.13133" lon="4.41155">
        <ele>836.4</ele>
        <time>2025-09-08T11:11:32Z</time>
      </trkpt>
      <trkpt lat="46.13132" lon="4.41154">
        <ele>836.8</ele>
        <time>2025-09-08T11:11:33Z</time>
      </trkpt>
      <trkpt lat="46.13131" lon="4.41154">
        <ele>836.8</ele>
        <time>2025-09-08T11:11:34Z</time>
      </trkpt>
      <trkpt lat="46.1313" lon="4.41154">
        <ele>837</ele>
        <time>2025-09-08T11:11:35Z</time>
      </trkpt>
      <trkpt lat="46.13129" lon="4.41153">
        <ele>837</ele>
        <time>2025-09-08T11:11:36Z</time>
      </trkpt>
      <trkpt lat="46.13127" lon="4.41153">
        <ele>837.2</ele>
        <time>2025-09-08T11:11:37Z</time>
      </trkpt>
      <trkpt lat="46.13126" lon="4.41152">
        <ele>837.2</ele>
        <time>2025-09-08T11:11:38Z</time>
      </trkpt>
      <trkpt lat="46.13125" lon="4.41152">
        <ele>837.2</ele>
        <time>2025-09-08T11:11:39Z</time>
      </trkpt>
      <trkpt lat="46.13124" lon="4.41153">
        <ele>837.8</ele>
        <time>2025-09-08T11:11:40Z</time>
      </trkpt>
      <trkpt lat="46.13123" lon="4.41153">
        <ele>838</ele>
        <time>2025-09-08T11:11:41Z</time>
      </trkpt>
      <trkpt lat="46.13122" lon="4.41153">
        <ele>838</ele>
        <time>2025-09-08T11:11:42Z</time>
      </trkpt>
      <trkpt lat="46.13121" lon="4.41153">
        <ele>838.4</ele>
        <time>2025-09-08T11:11:43Z</time>
      </trkpt>
      <trkpt lat="46.13121" lon="4.41153">
        <ele>838.4</ele>
        <time>2025-09-08T11:11:44Z</time>
      </trkpt>
      <trkpt lat="46.1312" lon="4.41153">
        <ele>838.6</ele>
        <time>2025-09-08T11:11:45Z</time>
      </trkpt>
      <trkpt lat="46.13119" lon="4.41153">
        <ele>839</ele>
        <time>2025-09-08T11:11:46Z</time>
      </trkpt>
      <trkpt lat="46.13118" lon="4.41152">
        <ele>839</ele>
        <time>2025-09-08T11:11:47Z</time>
      </trkpt>
      <trkpt lat="46.13116" lon="4.41151">
        <ele>839.2</ele>
        <time>2025-09-08T11:11:48Z</time>
      </trkpt>
      <trkpt lat="46.13115" lon="4.4115">
        <ele>839.4</ele>
        <time>2025-09-08T11:11:49Z</time>
      </trkpt>
      <trkpt lat="46.13114" lon="4.4115">
        <ele>839.4</ele>
        <time>2025-09-08T11:11:50Z</time>
      </trkpt>
      <trkpt lat="46.13113" lon="4.41149">
        <ele>839.4</ele>
        <time>2025-09-08T11:11:51Z</time>
      </trkpt>
      <trkpt lat="46.13112" lon="4.41149">
        <ele>839.8</ele>
        <time>2025-09-08T11:11:52Z</time>
      </trkpt>
      <trkpt lat="46.1311" lon="4.41149">
        <ele>840</ele>
        <time>2025-09-08T11:11:53Z</time>
      </trkpt>
      <trkpt lat="46.1311" lon="4.41148">
        <ele>840</ele>
        <time>2025-09-08T11:11:54Z</time>
      </trkpt>
      <trkpt lat="46.13109" lon="4.41148">
        <ele>840.2</ele>
        <time>2025-09-08T11:11:55Z</time>
      </trkpt>
      <trkpt lat="46.13108" lon="4.41148">
        <ele>840.4</ele>
        <time>2025-09-08T11:11:56Z</time>
      </trkpt>
      <trkpt lat="46.13108" lon="4.41147">
        <ele>840.4</ele>
        <time>2025-09-08T11:11:57Z</time>
      </trkpt>
      <trkpt lat="46.13107" lon="4.41147">
        <ele>840.8</ele>
        <time>2025-09-08T11:11:58Z</time>
      </trkpt>
      <trkpt lat="46.13107" lon="4.41147">
        <ele>841.2</ele>
        <time>2025-09-08T11:11:59Z</time>
      </trkpt>
      <trkpt lat="46.13106" lon="4.41146">
        <ele>841.2</ele>
        <time>2025-09-08T11:12:00Z</time>
      </trkpt>
      <trkpt lat="46.13104" lon="4.41146">
        <ele>841.4</ele>
        <time>2025-09-08T11:12:01Z</time>
      </trkpt>
      <trkpt lat="46.13103" lon="4.41146">
        <ele>841.4</ele>
        <time>2025-09-08T11:12:02Z</time>
      </trkpt>
      <trkpt lat="46.13102" lon="4.41146">
        <ele>841.8</ele>
        <time>2025-09-08T11:12:03Z</time>
      </trkpt>
      <trkpt lat="46.13101" lon="4.41147">
        <ele>841.8</ele>
        <time>2025-09-08T11:12:04Z</time>
      </trkpt>
      <trkpt lat="46.13099" lon="4.41147">
        <ele>842</ele>
        <time>2025-09-08T11:12:05Z</time>
      </trkpt>
      <trkpt lat="46.13098" lon="4.41146">
        <ele>842.2</ele>
        <time>2025-09-08T11:12:06Z</time>
      </trkpt>
      <trkpt lat="46.13097" lon="4.41145">
        <ele>842.2</ele>
        <time>2025-09-08T11:12:07Z</time>
      </trkpt>
      <trkpt lat="46.13095" lon="4.41144">
        <ele>842.2</ele>
        <time>2025-09-08T11:12:08Z</time>
      </trkpt>
      <trkpt lat="46.13094" lon="4.41143">
        <ele>842.4</ele>
        <time>2025-09-08T11:12:09Z</time>
      </trkpt>
      <trkpt lat="46.13093" lon="4.41143">
        <ele>842.4</ele>
        <time>2025-09-08T11:12:10Z</time>
      </trkpt>
      <trkpt lat="46.13092" lon="4.41142">
        <ele>842.8</ele>
        <time>2025-09-08T11:12:11Z</time>
      </trkpt>
      <trkpt lat="46.13091" lon="4.41142">
        <ele>843.2</ele>
        <time>2025-09-08T11:12:12Z</time>
      </trkpt>
      <trkpt lat="46.1309" lon="4.41142">
        <ele>843.2</ele>
        <time>2025-09-08T11:12:13Z</time>
      </trkpt>
      <trkpt lat="46.13089" lon="4.41143">
        <ele>843.4</ele>
        <time>2025-09-08T11:12:14Z</time>
      </trkpt>
      <trkpt lat="46.13088" lon="4.41144">
        <ele>843.8</ele>
        <time>2025-09-08T11:12:15Z</time>
      </trkpt>
      <trkpt lat="46.13086" lon="4.41144">
        <ele>844</ele>
        <time>2025-09-08T11:12:16Z</time>
      </trkpt>
      <trkpt lat="46.13085" lon="4.41144">
        <ele>844</ele>
        <time>2025-09-08T11:12:17Z</time>
      </trkpt>
      <trkpt lat="46.13084" lon="4.41143">
        <ele>844.4</ele>
        <time>2025-09-08T11:12:18Z</time>
      </trkpt>
      <trkpt lat="46.13083" lon="4.41142">
        <ele>844.4</ele>
        <time>2025-09-08T11:12:19Z</time>
      </trkpt>
      <trkpt lat="46.13083" lon="4.41141">
        <ele>844.4</ele>
        <time>2025-09-08T11:12:20Z</time>
      </trkpt>
      <trkpt lat="46.13082" lon="4.4114">
        <ele>844.6</ele>
        <time>2025-09-08T11:12:21Z</time>
      </trkpt>
      <trkpt lat="46.1308" lon="4.4114">
        <ele>844.6</ele>
        <time>2025-09-08T11:12:22Z</time>
      </trkpt>
      <trkpt lat="46.13079" lon="4.41139">
        <ele>844.8</ele>
        <time>2025-09-08T11:12:23Z</time>
      </trkpt>
      <trkpt lat="46.13078" lon="4.41139">
        <ele>844.8</ele>
        <time>2025-09-08T11:12:24Z</time>
      </trkpt>
      <trkpt lat="46.13076" lon="4.41139">
        <ele>845.2</ele>
        <time>2025-09-08T11:12:25Z</time>
      </trkpt>
      <trkpt lat="46.13075" lon="4.41139">
        <ele>845.2</ele>
        <time>2025-09-08T11:12:26Z</time>
      </trkpt>
      <trkpt lat="46.13073" lon="4.41139">
        <ele>845.2</ele>
        <time>2025-09-08T11:12:27Z</time>
      </trkpt>
      <trkpt lat="46.13072" lon="4.41139">
        <ele>845.6</ele>
        <time>2025-09-08T11:12:28Z</time>
      </trkpt>
      <trkpt lat="46.1307" lon="4.41139">
        <ele>845.6</ele>
        <time>2025-09-08T11:12:29Z</time>
      </trkpt>
      <trkpt lat="46.13069" lon="4.41138">
        <ele>845.6</ele>
        <time>2025-09-08T11:12:30Z</time>
      </trkpt>
      <trkpt lat="46.13067" lon="4.41137">
        <ele>845.6</ele>
        <time>2025-09-08T11:12:31Z</time>
      </trkpt>
      <trkpt lat="46.13067" lon="4.41136">
        <ele>845.6</ele>
        <time>2025-09-08T11:12:32Z</time>
      </trkpt>
      <trkpt lat="46.13066" lon="4.41135">
        <ele>845.8</ele>
        <time>2025-09-08T11:12:33Z</time>
      </trkpt>
      <trkpt lat="46.13066" lon="4.41134">
        <ele>845.8</ele>
        <time>2025-09-08T11:12:34Z</time>
      </trkpt>
      <trkpt lat="46.13066" lon="4.41134">
        <ele>845.8</ele>
        <time>2025-09-08T11:12:35Z</time>
      </trkpt>
      <trkpt lat="46.13066" lon="4.41135">
        <ele>845.8</ele>
        <time>2025-09-08T11:12:36Z</time>
      </trkpt>
      <trkpt lat="46.13065" lon="4.41141">
        <ele>846</ele>
        <time>2025-09-08T11:14:05Z</time>
      </trkpt>
      <trkpt lat="46.13065" lon="4.41141">
        <ele>846</ele>
        <time>2025-09-08T11:14:06Z</time>
      </trkpt>
      <trkpt lat="46.13065" lon="4.41141">
        <ele>846</ele>
        <time>2025-09-08T11:14:07Z</time>
      </trkpt>
      <trkpt lat="46.13065" lon="4.41141">
        <ele>846</ele>
        <time>2025-09-08T11:14:08Z</time>
      </trkpt>
      <trkpt lat="46.13059" lon="4.4114">
        <ele>846</ele>
        <time>2025-09-08T11:14:10Z</time>
      </trkpt>
      <trkpt lat="46.13057" lon="4.41139">
        <ele>846</ele>
        <time>2025-09-08T11:14:11Z</time>
      </trkpt>
      <trkpt lat="46.13055" lon="4.41138">
        <ele>846.4</ele>
        <time>2025-09-08T11:14:12Z</time>
      </trkpt>
      <trkpt lat="46.13053" lon="4.41136">
        <ele>846.4</ele>
        <time>2025-09-08T11:14:13Z</time>
      </trkpt>
      <trkpt lat="46.13051" lon="4.41135">
        <ele>846.6</ele>
        <time>2025-09-08T11:14:14Z</time>
      </trkpt>
      <trkpt lat="46.13049" lon="4.41134">
        <ele>846.8</ele>
        <time>2025-09-08T11:14:15Z</time>
      </trkpt>
      <trkpt lat="46.13047" lon="4.41134">
        <ele>846.8</ele>
        <time>2025-09-08T11:14:16Z</time>
      </trkpt>
      <trkpt lat="46.13045" lon="4.41134">
        <ele>847.2</ele>
        <time>2025-09-08T11:14:17Z</time>
      </trkpt>
      <trkpt lat="46.13043" lon="4.41134">
        <ele>847.4</ele>
        <time>2025-09-08T11:14:18Z</time>
      </trkpt>
      <trkpt lat="46.13041" lon="4.41133">
        <ele>847.8</ele>
        <time>2025-09-08T11:14:19Z</time>
      </trkpt>
      <trkpt lat="46.13039" lon="4.41132">
        <ele>848.2</ele>
        <time>2025-09-08T11:14:20Z</time>
      </trkpt>
      <trkpt lat="46.13036" lon="4.41132">
        <ele>848.2</ele>
        <time>2025-09-08T11:14:21Z</time>
      </trkpt>
      <trkpt lat="46.13034" lon="4.41132">
        <ele>848.4</ele>
        <time>2025-09-08T11:14:22Z</time>
      </trkpt>
      <trkpt lat="46.13032" lon="4.41131">
        <ele>848.8</ele>
        <time>2025-09-08T11:14:23Z</time>
      </trkpt>
      <trkpt lat="46.13031" lon="4.41131">
        <ele>848.8</ele>
        <time>2025-09-08T11:14:24Z</time>
      </trkpt>
      <trkpt lat="46.13029" lon="4.4113">
        <ele>849</ele>
        <time>2025-09-08T11:14:25Z</time>
      </trkpt>
      <trkpt lat="46.13028" lon="4.41129">
        <ele>849.2</ele>
        <time>2025-09-08T11:14:26Z</time>
      </trkpt>
      <trkpt lat="46.13026" lon="4.41128">
        <ele>849.2</ele>
        <time>2025-09-08T11:14:27Z</time>
      </trkpt>
      <trkpt lat="46.13024" lon="4.41127">
        <ele>849.2</ele>
        <time>2025-09-08T11:14:28Z</time>
      </trkpt>
      <trkpt lat="46.13022" lon="4.41127">
        <ele>849.6</ele>
        <time>2025-09-08T11:14:29Z</time>
      </trkpt>
      <trkpt lat="46.1302" lon="4.41126">
        <ele>850</ele>
        <time>2025-09-08T11:14:30Z</time>
      </trkpt>
      <trkpt lat="46.13019" lon="4.41126">
        <ele>850</ele>
        <time>2025-09-08T11:14:31Z</time>
      </trkpt>
      <trkpt lat="46.13017" lon="4.41126">
        <ele>850</ele>
        <time>2025-09-08T11:14:32Z</time>
      </trkpt>
      <trkpt lat="46.13015" lon="4.41125">
        <ele>850.2</ele>
        <time>2025-09-08T11:14:33Z</time>
      </trkpt>
      <trkpt lat="46.13014" lon="4.41124">
        <ele>850.2</ele>
        <time>2025-09-08T11:14:34Z</time>
      </trkpt>
      <trkpt lat="46.13013" lon="4.41122">
        <ele>850.2</ele>
        <time>2025-09-08T11:14:35Z</time>
      </trkpt>
      <trkpt lat="46.13011" lon="4.41121">
        <ele>850.6</ele>
        <time>2025-09-08T11:14:36Z</time>
      </trkpt>
      <trkpt lat="46.13009" lon="4.4112">
        <ele>850.8</ele>
        <time>2025-09-08T11:14:37Z</time>
      </trkpt>
      <trkpt lat="46.13007" lon="4.41119">
        <ele>850.8</ele>
        <time>2025-09-08T11:14:38Z</time>
      </trkpt>
      <trkpt lat="46.13006" lon="4.41118">
        <ele>851</ele>
        <time>2025-09-08T11:14:39Z</time>
      </trkpt>
      <trkpt lat="46.13004" lon="4.41118">
        <ele>851</ele>
        <time>2025-09-08T11:14:40Z</time>
      </trkpt>
      <trkpt lat="46.13002" lon="4.41118">
        <ele>851.2</ele>
        <time>2025-09-08T11:14:41Z</time>
      </trkpt>
      <trkpt lat="46.13" lon="4.41117">
        <ele>851.2</ele>
        <time>2025-09-08T11:14:42Z</time>
      </trkpt>
      <trkpt lat="46.12998" lon="4.41116">
        <ele>851.2</ele>
        <time>2025-09-08T11:14:43Z</time>
      </trkpt>
      <trkpt lat="46.12996" lon="4.41115">
        <ele>851.6</ele>
        <time>2025-09-08T11:14:44Z</time>
      </trkpt>
      <trkpt lat="46.12995" lon="4.41114">
        <ele>851.8</ele>
        <time>2025-09-08T11:14:45Z</time>
      </trkpt>
      <trkpt lat="46.12993" lon="4.41114">
        <ele>852</ele>
        <time>2025-09-08T11:14:46Z</time>
      </trkpt>
      <trkpt lat="46.12991" lon="4.41113">
        <ele>852</ele>
        <time>2025-09-08T11:14:47Z</time>
      </trkpt>
      <trkpt lat="46.12989" lon="4.41112">
        <ele>852</ele>
        <time>2025-09-08T11:14:48Z</time>
      </trkpt>
      <trkpt lat="46.12988" lon="4.41111">
        <ele>852</ele>
        <time>2025-09-08T11:14:49Z</time>
      </trkpt>
      <trkpt lat="46.12986" lon="4.4111">
        <ele>852</ele>
        <time>2025-09-08T11:14:50Z</time>
      </trkpt>
      <trkpt lat="46.12984" lon="4.41109">
        <ele>852.2</ele>
        <time>2025-09-08T11:14:51Z</time>
      </trkpt>
      <trkpt lat="46.12982" lon="4.41109">
        <ele>852.2</ele>
        <time>2025-09-08T11:14:52Z</time>
      </trkpt>
      <trkpt lat="46.12981" lon="4.41108">
        <ele>852.2</ele>
        <time>2025-09-08T11:14:53Z</time>
      </trkpt>
      <trkpt lat="46.12979" lon="4.41108">
        <ele>852.2</ele>
        <time>2025-09-08T11:14:54Z</time>
      </trkpt>
      <trkpt lat="46.12977" lon="4.41108">
        <ele>852.2</ele>
        <time>2025-09-08T11:14:55Z</time>
      </trkpt>
      <trkpt lat="46.12975" lon="4.41107">
        <ele>852.4</ele>
        <time>2025-09-08T11:14:56Z</time>
      </trkpt>
      <trkpt lat="46.12973" lon="4.41107">
        <ele>852.4</ele>
        <time>2025-09-08T11:14:57Z</time>
      </trkpt>
      <trkpt lat="46.12971" lon="4.41106">
        <ele>852.4</ele>
        <time>2025-09-08T11:14:58Z</time>
      </trkpt>
      <trkpt lat="46.12969" lon="4.41106">
        <ele>852.4</ele>
        <time>2025-09-08T11:14:59Z</time>
      </trkpt>
      <trkpt lat="46.12967" lon="4.41106">
        <ele>852.4</ele>
        <time>2025-09-08T11:15:00Z</time>
      </trkpt>
      <trkpt lat="46.12967" lon="4.41106">
        <ele>852.2</ele>
        <time>2025-09-08T11:15:01Z</time>
      </trkpt>
      <trkpt lat="46.12961" lon="4.41106">
        <ele>852.2</ele>
        <time>2025-09-08T11:15:02Z</time>
      </trkpt>
      <trkpt lat="46.1296" lon="4.41106">
        <ele>852.2</ele>
        <time>2025-09-08T11:15:03Z</time>
      </trkpt>
      <trkpt lat="46.12958" lon="4.41105">
        <ele>852.2</ele>
        <time>2025-09-08T11:15:04Z</time>
      </trkpt>
      <trkpt lat="46.12955" lon="4.41105">
        <ele>852.6</ele>
        <time>2025-09-08T11:15:05Z</time>
      </trkpt>
      <trkpt lat="46.12954" lon="4.41104">
        <ele>852.6</ele>
        <time>2025-09-08T11:15:06Z</time>
      </trkpt>
      <trkpt lat="46.12952" lon="4.41103">
        <ele>852.6</ele>
        <time>2025-09-08T11:15:07Z</time>
      </trkpt>
      <trkpt lat="46.1295" lon="4.41102">
        <ele>852.8</ele>
        <time>2025-09-08T11:15:08Z</time>
      </trkpt>
      <trkpt lat="46.12948" lon="4.41102">
        <ele>852.8</ele>
        <time>2025-09-08T11:15:09Z</time>
      </trkpt>
      <trkpt lat="46.12948" lon="4.41102">
        <ele>852.4</ele>
        <time>2025-09-08T11:15:10Z</time>
      </trkpt>
      <trkpt lat="46.12944" lon="4.41102">
        <ele>852.4</ele>
        <time>2025-09-08T11:15:11Z</time>
      </trkpt>
      <trkpt lat="46.12944" lon="4.41102">
        <ele>852.6</ele>
        <time>2025-09-08T11:15:12Z</time>
      </trkpt>
      <trkpt lat="46.12942" lon="4.41103">
        <ele>853</ele>
        <time>2025-09-08T11:15:13Z</time>
      </trkpt>
      <trkpt lat="46.12941" lon="4.41104">
        <ele>853</ele>
        <time>2025-09-08T11:15:14Z</time>
      </trkpt>
      <trkpt lat="46.12939" lon="4.41106">
        <ele>853</ele>
        <time>2025-09-08T11:15:15Z</time>
      </trkpt>
      <trkpt lat="46.12938" lon="4.41107">
        <ele>853.2</ele>
        <time>2025-09-08T11:15:16Z</time>
      </trkpt>
      <trkpt lat="46.12937" lon="4.41109">
        <ele>853.4</ele>
        <time>2025-09-08T11:15:17Z</time>
      </trkpt>
      <trkpt lat="46.12936" lon="4.41111">
        <ele>853.4</ele>
        <time>2025-09-08T11:15:18Z</time>
      </trkpt>
      <trkpt lat="46.12935" lon="4.41113">
        <ele>853.4</ele>
        <time>2025-09-08T11:15:19Z</time>
      </trkpt>
      <trkpt lat="46.12934" lon="4.41114">
        <ele>853.4</ele>
        <time>2025-09-08T11:15:20Z</time>
      </trkpt>
      <trkpt lat="46.12932" lon="4.41116">
        <ele>853.8</ele>
        <time>2025-09-08T11:15:21Z</time>
      </trkpt>
      <trkpt lat="46.12931" lon="4.41117">
        <ele>853.8</ele>
        <time>2025-09-08T11:15:22Z</time>
      </trkpt>
      <trkpt lat="46.1293" lon="4.41119">
        <ele>853.4</ele>
        <time>2025-09-08T11:15:23Z</time>
      </trkpt>
      <trkpt lat="46.12929" lon="4.41121">
        <ele>853.4</ele>
        <time>2025-09-08T11:15:24Z</time>
      </trkpt>
      <trkpt lat="46.12928" lon="4.41122">
        <ele>853.4</ele>
        <time>2025-09-08T11:15:25Z</time>
      </trkpt>
      <trkpt lat="46.12926" lon="4.41123">
        <ele>853.8</ele>
        <time>2025-09-08T11:15:26Z</time>
      </trkpt>
      <trkpt lat="46.12925" lon="4.41123">
        <ele>853.8</ele>
        <time>2025-09-08T11:15:27Z</time>
      </trkpt>
      <trkpt lat="46.12924" lon="4.41124">
        <ele>853.8</ele>
        <time>2025-09-08T11:15:28Z</time>
      </trkpt>
      <trkpt lat="46.12923" lon="4.41124">
        <ele>853.8</ele>
        <time>2025-09-08T11:15:29Z</time>
      </trkpt>
      <trkpt lat="46.12922" lon="4.41124">
        <ele>853.8</ele>
        <time>2025-09-08T11:15:30Z</time>
      </trkpt>
      <trkpt lat="46.12921" lon="4.41125">
        <ele>853.8</ele>
        <time>2025-09-08T11:15:31Z</time>
      </trkpt>
      <trkpt lat="46.1292" lon="4.41125">
        <ele>853.8</ele>
        <time>2025-09-08T11:15:32Z</time>
      </trkpt>
      <trkpt lat="46.12919" lon="4.41126">
        <ele>854</ele>
        <time>2025-09-08T11:15:33Z</time>
      </trkpt>
      <trkpt lat="46.12918" lon="4.41126">
        <ele>854</ele>
        <time>2025-09-08T11:15:34Z</time>
      </trkpt>
      <trkpt lat="46.12916" lon="4.41126">
        <ele>853.8</ele>
        <time>2025-09-08T11:15:35Z</time>
      </trkpt>
      <trkpt lat="46.12915" lon="4.41125">
        <ele>853.8</ele>
        <time>2025-09-08T11:15:36Z</time>
      </trkpt>
      <trkpt lat="46.12914" lon="4.41124">
        <ele>853.8</ele>
        <time>2025-09-08T11:15:37Z</time>
      </trkpt>
      <trkpt lat="46.12914" lon="4.41123">
        <ele>853.8</ele>
        <time>2025-09-08T11:15:38Z</time>
      </trkpt>
      <trkpt lat="46.12913" lon="4.41121">
        <ele>853.8</ele>
        <time>2025-09-08T11:15:39Z</time>
      </trkpt>
      <trkpt lat="46.12913" lon="4.41119">
        <ele>853.8</ele>
        <time>2025-09-08T11:15:40Z</time>
      </trkpt>
      <trkpt lat="46.12912" lon="4.41117">
        <ele>853.8</ele>
        <time>2025-09-08T11:15:41Z</time>
      </trkpt>
      <trkpt lat="46.12911" lon="4.41116">
        <ele>853.8</ele>
        <time>2025-09-08T11:15:42Z</time>
      </trkpt>
      <trkpt lat="46.1291" lon="4.41114">
        <ele>854</ele>
        <time>2025-09-08T11:15:43Z</time>
      </trkpt>
      <trkpt lat="46.12909" lon="4.41113">
        <ele>854</ele>
        <time>2025-09-08T11:15:44Z</time>
      </trkpt>
      <trkpt lat="46.12908" lon="4.41111">
        <ele>854</ele>
        <time>2025-09-08T11:15:45Z</time>
      </trkpt>
      <trkpt lat="46.12907" lon="4.4111">
        <ele>854</ele>
        <time>2025-09-08T11:15:46Z</time>
      </trkpt>
      <trkpt lat="46.12906" lon="4.41108">
        <ele>854</ele>
        <time>2025-09-08T11:15:47Z</time>
      </trkpt>
      <trkpt lat="46.12905" lon="4.41107">
        <ele>854</ele>
        <time>2025-09-08T11:15:48Z</time>
      </trkpt>
      <trkpt lat="46.12904" lon="4.41106">
        <ele>854.4</ele>
        <time>2025-09-08T11:15:49Z</time>
      </trkpt>
      <trkpt lat="46.12903" lon="4.41104">
        <ele>854.4</ele>
        <time>2025-09-08T11:15:50Z</time>
      </trkpt>
      <trkpt lat="46.12902" lon="4.41103">
        <ele>854.4</ele>
        <time>2025-09-08T11:15:51Z</time>
      </trkpt>
      <trkpt lat="46.12902" lon="4.41103">
        <ele>854.4</ele>
        <time>2025-09-08T11:15:52Z</time>
      </trkpt>
      <trkpt lat="46.12902" lon="4.41103">
        <ele>854.4</ele>
        <time>2025-09-08T11:15:53Z</time>
      </trkpt>
      <trkpt lat="46.129" lon="4.41106">
        <ele>854.4</ele>
        <time>2025-09-08T11:16:09Z</time>
      </trkpt>
      <trkpt lat="46.12898" lon="4.41107">
        <ele>854.4</ele>
        <time>2025-09-08T11:16:10Z</time>
      </trkpt>
      <trkpt lat="46.12897" lon="4.41108">
        <ele>854.4</ele>
        <time>2025-09-08T11:16:11Z</time>
      </trkpt>
      <trkpt lat="46.12896" lon="4.41109">
        <ele>854.4</ele>
        <time>2025-09-08T11:16:12Z</time>
      </trkpt>
      <trkpt lat="46.12895" lon="4.41111">
        <ele>854.4</ele>
        <time>2025-09-08T11:16:13Z</time>
      </trkpt>
      <trkpt lat="46.12893" lon="4.41111">
        <ele>854.4</ele>
        <time>2025-09-08T11:16:14Z</time>
      </trkpt>
      <trkpt lat="46.12892" lon="4.4111">
        <ele>854</ele>
        <time>2025-09-08T11:16:15Z</time>
      </trkpt>
      <trkpt lat="46.1289" lon="4.4111">
        <ele>854</ele>
        <time>2025-09-08T11:16:16Z</time>
      </trkpt>
      <trkpt lat="46.12889" lon="4.4111">
        <ele>854</ele>
        <time>2025-09-08T11:16:17Z</time>
      </trkpt>
      <trkpt lat="46.12888" lon="4.4111">
        <ele>854</ele>
        <time>2025-09-08T11:16:18Z</time>
      </trkpt>
      <trkpt lat="46.12886" lon="4.4111">
        <ele>854.2</ele>
        <time>2025-09-08T11:16:19Z</time>
      </trkpt>
      <trkpt lat="46.12885" lon="4.4111">
        <ele>854</ele>
        <time>2025-09-08T11:16:20Z</time>
      </trkpt>
      <trkpt lat="46.12884" lon="4.41109">
        <ele>854</ele>
        <time>2025-09-08T11:16:21Z</time>
      </trkpt>
      <trkpt lat="46.12882" lon="4.41108">
        <ele>854.2</ele>
        <time>2025-09-08T11:16:22Z</time>
      </trkpt>
      <trkpt lat="46.12881" lon="4.41106">
        <ele>854.2</ele>
        <time>2025-09-08T11:16:23Z</time>
      </trkpt>
      <trkpt lat="46.1288" lon="4.41105">
        <ele>854.2</ele>
        <time>2025-09-08T11:16:24Z</time>
      </trkpt>
      <trkpt lat="46.12878" lon="4.41105">
        <ele>854.2</ele>
        <time>2025-09-08T11:16:25Z</time>
      </trkpt>
      <trkpt lat="46.12876" lon="4.41104">
        <ele>854</ele>
        <time>2025-09-08T11:16:26Z</time>
      </trkpt>
      <trkpt lat="46.12875" lon="4.41104">
        <ele>854</ele>
        <time>2025-09-08T11:16:27Z</time>
      </trkpt>
      <trkpt lat="46.12874" lon="4.41104">
        <ele>854</ele>
        <time>2025-09-08T11:16:28Z</time>
      </trkpt>
      <trkpt lat="46.12873" lon="4.41103">
        <ele>854</ele>
        <time>2025-09-08T11:16:29Z</time>
      </trkpt>
      <trkpt lat="46.12873" lon="4.41103">
        <ele>854</ele>
        <time>2025-09-08T11:16:30Z</time>
      </trkpt>
      <trkpt lat="46.12872" lon="4.41103">
        <ele>854</ele>
        <time>2025-09-08T11:16:31Z</time>
      </trkpt>
      <trkpt lat="46.12873" lon="4.41103">
        <ele>853.8</ele>
        <time>2025-09-08T11:16:32Z</time>
      </trkpt>
      <trkpt lat="46.12872" lon="4.41104">
        <ele>853.4</ele>
        <time>2025-09-08T11:16:36Z</time>
      </trkpt>
      <trkpt lat="46.12872" lon="4.41104">
        <ele>853.4</ele>
        <time>2025-09-08T11:16:37Z</time>
      </trkpt>
      <trkpt lat="46.12871" lon="4.41103">
        <ele>853.4</ele>
        <time>2025-09-08T11:16:38Z</time>
      </trkpt>
      <trkpt lat="46.12869" lon="4.41103">
        <ele>853.4</ele>
        <time>2025-09-08T11:16:39Z</time>
      </trkpt>
      <trkpt lat="46.12867" lon="4.41104">
        <ele>853.4</ele>
        <time>2025-09-08T11:16:40Z</time>
      </trkpt>
      <trkpt lat="46.12866" lon="4.41104">
        <ele>853.4</ele>
        <time>2025-09-08T11:16:41Z</time>
      </trkpt>
      <trkpt lat="46.12864" lon="4.41104">
        <ele>853.4</ele>
        <time>2025-09-08T11:16:42Z</time>
      </trkpt>
      <trkpt lat="46.12862" lon="4.41103">
        <ele>853.4</ele>
        <time>2025-09-08T11:16:43Z</time>
      </trkpt>
      <trkpt lat="46.1286" lon="4.41103">
        <ele>853.4</ele>
        <time>2025-09-08T11:16:44Z</time>
      </trkpt>
      <trkpt lat="46.12858" lon="4.41103">
        <ele>853.4</ele>
        <time>2025-09-08T11:16:45Z</time>
      </trkpt>
      <trkpt lat="46.12856" lon="4.41102">
        <ele>853.4</ele>
        <time>2025-09-08T11:16:46Z</time>
      </trkpt>
      <trkpt lat="46.12855" lon="4.41102">
        <ele>853.4</ele>
        <time>2025-09-08T11:16:47Z</time>
      </trkpt>
      <trkpt lat="46.12853" lon="4.41101">
        <ele>853.4</ele>
        <time>2025-09-08T11:16:48Z</time>
      </trkpt>
      <trkpt lat="46.12851" lon="4.41101">
        <ele>853.4</ele>
        <time>2025-09-08T11:16:49Z</time>
      </trkpt>
      <trkpt lat="46.1285" lon="4.411">
        <ele>853.4</ele>
        <time>2025-09-08T11:16:50Z</time>
      </trkpt>
      <trkpt lat="46.12848" lon="4.41099">
        <ele>853.6</ele>
        <time>2025-09-08T11:16:51Z</time>
      </trkpt>
      <trkpt lat="46.12846" lon="4.41098">
        <ele>853.6</ele>
        <time>2025-09-08T11:16:52Z</time>
      </trkpt>
      <trkpt lat="46.12844" lon="4.41097">
        <ele>853.6</ele>
        <time>2025-09-08T11:16:53Z</time>
      </trkpt>
      <trkpt lat="46.12843" lon="4.41096">
        <ele>853.4</ele>
        <time>2025-09-08T11:16:54Z</time>
      </trkpt>
      <trkpt lat="46.12841" lon="4.41095">
        <ele>853.4</ele>
        <time>2025-09-08T11:16:55Z</time>
      </trkpt>
      <trkpt lat="46.1284" lon="4.41095">
        <ele>853.4</ele>
        <time>2025-09-08T11:16:56Z</time>
      </trkpt>
      <trkpt lat="46.12838" lon="4.41094">
        <ele>853.4</ele>
        <time>2025-09-08T11:16:57Z</time>
      </trkpt>
      <trkpt lat="46.12836" lon="4.41093">
        <ele>853.4</ele>
        <time>2025-09-08T11:16:58Z</time>
      </trkpt>
      <trkpt lat="46.12835" lon="4.41092">
        <ele>853.4</ele>
        <time>2025-09-08T11:16:59Z</time>
      </trkpt>
      <trkpt lat="46.12833" lon="4.41091">
        <ele>853.2</ele>
        <time>2025-09-08T11:17:00Z</time>
      </trkpt>
      <trkpt lat="46.12831" lon="4.4109">
        <ele>853.2</ele>
        <time>2025-09-08T11:17:01Z</time>
      </trkpt>
      <trkpt lat="46.1283" lon="4.4109">
        <ele>853.2</ele>
        <time>2025-09-08T11:17:02Z</time>
      </trkpt>
      <trkpt lat="46.12829" lon="4.41089">
        <ele>853.2</ele>
        <time>2025-09-08T11:17:03Z</time>
      </trkpt>
      <trkpt lat="46.12827" lon="4.41089">
        <ele>853.2</ele>
        <time>2025-09-08T11:17:04Z</time>
      </trkpt>
      <trkpt lat="46.12826" lon="4.41088">
        <ele>853.2</ele>
        <time>2025-09-08T11:17:05Z</time>
      </trkpt>
      <trkpt lat="46.12825" lon="4.41087">
        <ele>853.2</ele>
        <time>2025-09-08T11:17:06Z</time>
      </trkpt>
      <trkpt lat="46.12825" lon="4.41087">
        <ele>853.4</ele>
        <time>2025-09-08T11:17:07Z</time>
      </trkpt>
      <trkpt lat="46.12824" lon="4.41087">
        <ele>853.4</ele>
        <time>2025-09-08T11:17:08Z</time>
      </trkpt>
      <trkpt lat="46.12824" lon="4.41087">
        <ele>853.4</ele>
        <time>2025-09-08T11:17:09Z</time>
      </trkpt>
      <trkpt lat="46.12825" lon="4.41092">
        <ele>854.6</ele>
        <time>2025-09-08T11:19:37Z</time>
      </trkpt>
      <trkpt lat="46.12825" lon="4.41094">
        <ele>854.2</ele>
        <time>2025-09-08T11:19:38Z</time>
      </trkpt>
      <trkpt lat="46.12827" lon="4.41095">
        <ele>854.2</ele>
        <time>2025-09-08T11:19:39Z</time>
      </trkpt>
      <trkpt lat="46.12828" lon="4.41095">
        <ele>854.2</ele>
        <time>2025-09-08T11:19:40Z</time>
      </trkpt>
      <trkpt lat="46.12829" lon="4.41094">
        <ele>854</ele>
        <time>2025-09-08T11:19:41Z</time>
      </trkpt>
      <trkpt lat="46.12829" lon="4.41093">
        <ele>854</ele>
        <time>2025-09-08T11:19:42Z</time>
      </trkpt>
      <trkpt lat="46.1283" lon="4.41092">
        <ele>854</ele>
        <time>2025-09-08T11:19:43Z</time>
      </trkpt>
      <trkpt lat="46.12831" lon="4.41088">
        <ele>854</ele>
        <time>2025-09-08T11:19:49Z</time>
      </trkpt>
      <trkpt lat="46.12832" lon="4.41089">
        <ele>854.2</ele>
        <time>2025-09-08T11:19:50Z</time>
      </trkpt>
      <trkpt lat="46.12833" lon="4.4109">
        <ele>854</ele>
        <time>2025-09-08T11:19:51Z</time>
      </trkpt>
      <trkpt lat="46.12835" lon="4.41091">
        <ele>854</ele>
        <time>2025-09-08T11:19:52Z</time>
      </trkpt>
      <trkpt lat="46.12837" lon="4.41092">
        <ele>854</ele>
        <time>2025-09-08T11:19:53Z</time>
      </trkpt>
      <trkpt lat="46.12839" lon="4.41093">
        <ele>854</ele>
        <time>2025-09-08T11:19:54Z</time>
      </trkpt>
      <trkpt lat="46.12842" lon="4.41094">
        <ele>854.2</ele>
        <time>2025-09-08T11:19:55Z</time>
      </trkpt>
      <trkpt lat="46.12844" lon="4.41094">
        <ele>854.2</ele>
        <time>2025-09-08T11:19:56Z</time>
      </trkpt>
      <trkpt lat="46.12846" lon="4.41095">
        <ele>853.8</ele>
        <time>2025-09-08T11:19:57Z</time>
      </trkpt>
      <trkpt lat="46.12849" lon="4.41096">
        <ele>853.8</ele>
        <time>2025-09-08T11:19:58Z</time>
      </trkpt>
      <trkpt lat="46.12851" lon="4.41097">
        <ele>853.8</ele>
        <time>2025-09-08T11:19:59Z</time>
      </trkpt>
      <trkpt lat="46.12854" lon="4.41098">
        <ele>854</ele>
        <time>2025-09-08T11:20:00Z</time>
      </trkpt>
      <trkpt lat="46.12856" lon="4.41098">
        <ele>854</ele>
        <time>2025-09-08T11:20:01Z</time>
      </trkpt>
      <trkpt lat="46.12859" lon="4.41098">
        <ele>854</ele>
        <time>2025-09-08T11:20:02Z</time>
      </trkpt>
      <trkpt lat="46.12861" lon="4.41098">
        <ele>854.4</ele>
        <time>2025-09-08T11:20:03Z</time>
      </trkpt>
      <trkpt lat="46.12863" lon="4.41098">
        <ele>854.4</ele>
        <time>2025-09-08T11:20:04Z</time>
      </trkpt>
      <trkpt lat="46.12865" lon="4.41098">
        <ele>854.4</ele>
        <time>2025-09-08T11:20:05Z</time>
      </trkpt>
      <trkpt lat="46.12867" lon="4.41098">
        <ele>854.4</ele>
        <time>2025-09-08T11:20:06Z</time>
      </trkpt>
      <trkpt lat="46.12868" lon="4.41099">
        <ele>854.6</ele>
        <time>2025-09-08T11:20:07Z</time>
      </trkpt>
      <trkpt lat="46.1287" lon="4.41099">
        <ele>854.6</ele>
        <time>2025-09-08T11:20:08Z</time>
      </trkpt>
      <trkpt lat="46.12871" lon="4.411">
        <ele>854.6</ele>
        <time>2025-09-08T11:20:09Z</time>
      </trkpt>
      <trkpt lat="46.12873" lon="4.41101">
        <ele>854.6</ele>
        <time>2025-09-08T11:20:10Z</time>
      </trkpt>
      <trkpt lat="46.12874" lon="4.41102">
        <ele>854.6</ele>
        <time>2025-09-08T11:20:11Z</time>
      </trkpt>
      <trkpt lat="46.12876" lon="4.41102">
        <ele>854.4</ele>
        <time>2025-09-08T11:20:12Z</time>
      </trkpt>
      <trkpt lat="46.12878" lon="4.41102">
        <ele>854.4</ele>
        <time>2025-09-08T11:20:13Z</time>
      </trkpt>
      <trkpt lat="46.1288" lon="4.41102">
        <ele>854.4</ele>
        <time>2025-09-08T11:20:14Z</time>
      </trkpt>
      <trkpt lat="46.12881" lon="4.41101">
        <ele>854.4</ele>
        <time>2025-09-08T11:20:15Z</time>
      </trkpt>
      <trkpt lat="46.12884" lon="4.41101">
        <ele>854.2</ele>
        <time>2025-09-08T11:20:16Z</time>
      </trkpt>
      <trkpt lat="46.12886" lon="4.41101">
        <ele>854.2</ele>
        <time>2025-09-08T11:20:17Z</time>
      </trkpt>
      <trkpt lat="46.12887" lon="4.41102">
        <ele>854.6</ele>
        <time>2025-09-08T11:20:18Z</time>
      </trkpt>
      <trkpt lat="46.12889" lon="4.41102">
        <ele>854.6</ele>
        <time>2025-09-08T11:20:19Z</time>
      </trkpt>
      <trkpt lat="46.12891" lon="4.41101">
        <ele>854.6</ele>
        <time>2025-09-08T11:20:20Z</time>
      </trkpt>
      <trkpt lat="46.12893" lon="4.41101">
        <ele>854.6</ele>
        <time>2025-09-08T11:20:21Z</time>
      </trkpt>
      <trkpt lat="46.12895" lon="4.41102">
        <ele>854.6</ele>
        <time>2025-09-08T11:20:22Z</time>
      </trkpt>
      <trkpt lat="46.12896" lon="4.41102">
        <ele>854.4</ele>
        <time>2025-09-08T11:20:23Z</time>
      </trkpt>
      <trkpt lat="46.12898" lon="4.41102">
        <ele>854.6</ele>
        <time>2025-09-08T11:20:24Z</time>
      </trkpt>
      <trkpt lat="46.129" lon="4.41102">
        <ele>854.4</ele>
        <time>2025-09-08T11:20:25Z</time>
      </trkpt>
      <trkpt lat="46.12902" lon="4.41102">
        <ele>854.6</ele>
        <time>2025-09-08T11:20:26Z</time>
      </trkpt>
      <trkpt lat="46.12903" lon="4.41103">
        <ele>854.6</ele>
        <time>2025-09-08T11:20:27Z</time>
      </trkpt>
      <trkpt lat="46.12905" lon="4.41103">
        <ele>855</ele>
        <time>2025-09-08T11:20:28Z</time>
      </trkpt>
      <trkpt lat="46.12905" lon="4.41103">
        <ele>855</ele>
        <time>2025-09-08T11:20:29Z</time>
      </trkpt>
      <trkpt lat="46.12906" lon="4.41103">
        <ele>855</ele>
        <time>2025-09-08T11:20:30Z</time>
      </trkpt>
      <trkpt lat="46.12906" lon="4.41102">
        <ele>853.4</ele>
        <time>2025-09-08T11:20:31Z</time>
      </trkpt>
      <trkpt lat="46.12907" lon="4.41102">
        <ele>854.8</ele>
        <time>2025-09-08T11:21:50Z</time>
      </trkpt>
      <trkpt lat="46.12908" lon="4.41104">
        <ele>854.8</ele>
        <time>2025-09-08T11:21:51Z</time>
      </trkpt>
      <trkpt lat="46.1291" lon="4.41105">
        <ele>855.4</ele>
        <time>2025-09-08T11:21:52Z</time>
      </trkpt>
      <trkpt lat="46.12912" lon="4.41107">
        <ele>855.2</ele>
        <time>2025-09-08T11:21:53Z</time>
      </trkpt>
      <trkpt lat="46.12915" lon="4.41108">
        <ele>855.2</ele>
        <time>2025-09-08T11:21:54Z</time>
      </trkpt>
      <trkpt lat="46.12917" lon="4.41109">
        <ele>854.8</ele>
        <time>2025-09-08T11:21:55Z</time>
      </trkpt>
      <trkpt lat="46.1292" lon="4.41109">
        <ele>854.6</ele>
        <time>2025-09-08T11:21:56Z</time>
      </trkpt>
      <trkpt lat="46.12922" lon="4.4111">
        <ele>854.6</ele>
        <time>2025-09-08T11:21:57Z</time>
      </trkpt>
      <trkpt lat="46.12925" lon="4.41111">
        <ele>854.8</ele>
        <time>2025-09-08T11:21:58Z</time>
      </trkpt>
      <trkpt lat="46.12927" lon="4.41112">
        <ele>854.4</ele>
        <time>2025-09-08T11:21:59Z</time>
      </trkpt>
      <trkpt lat="46.12929" lon="4.41112">
        <ele>854.4</ele>
        <time>2025-09-08T11:22:00Z</time>
      </trkpt>
      <trkpt lat="46.12931" lon="4.41112">
        <ele>854.6</ele>
        <time>2025-09-08T11:22:01Z</time>
      </trkpt>
      <trkpt lat="46.12933" lon="4.41112">
        <ele>854.4</ele>
        <time>2025-09-08T11:22:02Z</time>
      </trkpt>
      <trkpt lat="46.12935" lon="4.41111">
        <ele>854.2</ele>
        <time>2025-09-08T11:22:03Z</time>
      </trkpt>
      <trkpt lat="46.12938" lon="4.41109">
        <ele>854.2</ele>
        <time>2025-09-08T11:22:04Z</time>
      </trkpt>
      <trkpt lat="46.1294" lon="4.41107">
        <ele>854.2</ele>
        <time>2025-09-08T11:22:05Z</time>
      </trkpt>
      <trkpt lat="46.12941" lon="4.41104">
        <ele>853.8</ele>
        <time>2025-09-08T11:22:06Z</time>
      </trkpt>
      <trkpt lat="46.12942" lon="4.41102">
        <ele>853.8</ele>
        <time>2025-09-08T11:22:07Z</time>
      </trkpt>
      <trkpt lat="46.12942" lon="4.411">
        <ele>853.8</ele>
        <time>2025-09-08T11:22:08Z</time>
      </trkpt>
      <trkpt lat="46.12941" lon="4.41099">
        <ele>853.8</ele>
        <time>2025-09-08T11:22:09Z</time>
      </trkpt>
      <trkpt lat="46.1294" lon="4.41099">
        <ele>853.8</ele>
        <time>2025-09-08T11:22:10Z</time>
      </trkpt>
      <trkpt lat="46.1294" lon="4.41099">
        <ele>853.8</ele>
        <time>2025-09-08T11:22:11Z</time>
      </trkpt>
      <trkpt lat="46.12942" lon="4.41098">
        <ele>854.2</ele>
        <time>2025-09-08T11:22:21Z</time>
      </trkpt>
      <trkpt lat="46.12943" lon="4.41096">
        <ele>854</ele>
        <time>2025-09-08T11:22:22Z</time>
      </trkpt>
      <trkpt lat="46.12945" lon="4.41095">
        <ele>854</ele>
        <time>2025-09-08T11:22:23Z</time>
      </trkpt>
      <trkpt lat="46.12947" lon="4.41095">
        <ele>854</ele>
        <time>2025-09-08T11:22:24Z</time>
      </trkpt>
      <trkpt lat="46.12948" lon="4.41096">
        <ele>853.6</ele>
        <time>2025-09-08T11:22:25Z</time>
      </trkpt>
      <trkpt lat="46.1295" lon="4.41097">
        <ele>853.8</ele>
        <time>2025-09-08T11:22:26Z</time>
      </trkpt>
      <trkpt lat="46.12951" lon="4.41098">
        <ele>853.8</ele>
        <time>2025-09-08T11:22:27Z</time>
      </trkpt>
      <trkpt lat="46.12952" lon="4.41098">
        <ele>853.6</ele>
        <time>2025-09-08T11:22:28Z</time>
      </trkpt>
      <trkpt lat="46.12953" lon="4.41098">
        <ele>853.6</ele>
        <time>2025-09-08T11:22:29Z</time>
      </trkpt>
      <trkpt lat="46.12953" lon="4.41098">
        <ele>853.6</ele>
        <time>2025-09-08T11:22:30Z</time>
      </trkpt>
      <trkpt lat="46.12953" lon="4.41098">
        <ele>853.4</ele>
        <time>2025-09-08T11:22:31Z</time>
      </trkpt>
      <trkpt lat="46.12955" lon="4.41098">
        <ele>853.2</ele>
        <time>2025-09-08T11:23:26Z</time>
      </trkpt>
      <trkpt lat="46.12956" lon="4.41099">
        <ele>853.2</ele>
        <time>2025-09-08T11:23:27Z</time>
      </trkpt>
      <trkpt lat="46.12957" lon="4.41099">
        <ele>853.2</ele>
        <time>2025-09-08T11:23:28Z</time>
      </trkpt>
      <trkpt lat="46.12959" lon="4.411">
        <ele>853.2</ele>
        <time>2025-09-08T11:23:29Z</time>
      </trkpt>
      <trkpt lat="46.12962" lon="4.41102">
        <ele>853.2</ele>
        <time>2025-09-08T11:23:30Z</time>
      </trkpt>
      <trkpt lat="46.12964" lon="4.41103">
        <ele>853</ele>
        <time>2025-09-08T11:23:31Z</time>
      </trkpt>
      <trkpt lat="46.12968" lon="4.41105">
        <ele>853</ele>
        <time>2025-09-08T11:23:32Z</time>
      </trkpt>
      <trkpt lat="46.12971" lon="4.41106">
        <ele>853</ele>
        <time>2025-09-08T11:23:33Z</time>
      </trkpt>
      <trkpt lat="46.12974" lon="4.41108">
        <ele>853.8</ele>
        <time>2025-09-08T11:23:34Z</time>
      </trkpt>
      <trkpt lat="46.12978" lon="4.41109">
        <ele>853.4</ele>
        <time>2025-09-08T11:23:35Z</time>
      </trkpt>
      <trkpt lat="46.12982" lon="4.4111">
        <ele>853.4</ele>
        <time>2025-09-08T11:23:36Z</time>
      </trkpt>
      <trkpt lat="46.12986" lon="4.41112">
        <ele>853</ele>
        <time>2025-09-08T11:23:37Z</time>
      </trkpt>
      <trkpt lat="46.1299" lon="4.41113">
        <ele>852.6</ele>
        <time>2025-09-08T11:23:38Z</time>
      </trkpt>
      <trkpt lat="46.12994" lon="4.41115">
        <ele>852.4</ele>
        <time>2025-09-08T11:23:39Z</time>
      </trkpt>
      <trkpt lat="46.12999" lon="4.41117">
        <ele>852.4</ele>
        <time>2025-09-08T11:23:40Z</time>
      </trkpt>
      <trkpt lat="46.13003" lon="4.41118">
        <ele>852</ele>
        <time>2025-09-08T11:23:41Z</time>
      </trkpt>
      <trkpt lat="46.13008" lon="4.4112">
        <ele>851.6</ele>
        <time>2025-09-08T11:23:42Z</time>
      </trkpt>
      <trkpt lat="46.13013" lon="4.41121">
        <ele>851</ele>
        <time>2025-09-08T11:23:43Z</time>
      </trkpt>
      <trkpt lat="46.13018" lon="4.41123">
        <ele>850.8</ele>
        <time>2025-09-08T11:23:44Z</time>
      </trkpt>
      <trkpt lat="46.13024" lon="4.41124">
        <ele>850.2</ele>
        <time>2025-09-08T11:23:45Z</time>
      </trkpt>
      <trkpt lat="46.13031" lon="4.41125">
        <ele>849.8</ele>
        <time>2025-09-08T11:23:46Z</time>
      </trkpt>
      <trkpt lat="46.13038" lon="4.41126">
        <ele>849.8</ele>
        <time>2025-09-08T11:23:47Z</time>
      </trkpt>
      <trkpt lat="46.13046" lon="4.41127">
        <ele>849</ele>
        <time>2025-09-08T11:23:48Z</time>
      </trkpt>
      <trkpt lat="46.13053" lon="4.41129">
        <ele>848.6</ele>
        <time>2025-09-08T11:23:49Z</time>
      </trkpt>
      <trkpt lat="46.13058" lon="4.4113">
        <ele>847.8</ele>
        <time>2025-09-08T11:23:50Z</time>
      </trkpt>
      <trkpt lat="46.13066" lon="4.41132">
        <ele>847.2</ele>
        <time>2025-09-08T11:23:51Z</time>
      </trkpt>
      <trkpt lat="46.13072" lon="4.41133">
        <ele>846.8</ele>
        <time>2025-09-08T11:23:52Z</time>
      </trkpt>
      <trkpt lat="46.13081" lon="4.41135">
        <ele>845.8</ele>
        <time>2025-09-08T11:23:53Z</time>
      </trkpt>
      <trkpt lat="46.1309" lon="4.41138">
        <ele>845.4</ele>
        <time>2025-09-08T11:23:54Z</time>
      </trkpt>
      <trkpt lat="46.13094" lon="4.4114">
        <ele>844.6</ele>
        <time>2025-09-08T11:23:55Z</time>
      </trkpt>
      <trkpt lat="46.13097" lon="4.41142">
        <ele>844.2</ele>
        <time>2025-09-08T11:23:56Z</time>
      </trkpt>
      <trkpt lat="46.13106" lon="4.41145">
        <ele>843.2</ele>
        <time>2025-09-08T11:23:57Z</time>
      </trkpt>
      <trkpt lat="46.1311" lon="4.41148">
        <ele>842.2</ele>
        <time>2025-09-08T11:23:58Z</time>
      </trkpt>
      <trkpt lat="46.13117" lon="4.41151">
        <ele>841.6</ele>
        <time>2025-09-08T11:23:59Z</time>
      </trkpt>
      <trkpt lat="46.13123" lon="4.41153">
        <ele>840.6</ele>
        <time>2025-09-08T11:24:00Z</time>
      </trkpt>
      <trkpt lat="46.13131" lon="4.41158">
        <ele>839.6</ele>
        <time>2025-09-08T11:24:01Z</time>
      </trkpt>
      <trkpt lat="46.13139" lon="4.41159">
        <ele>838.4</ele>
        <time>2025-09-08T11:24:02Z</time>
      </trkpt>
      <trkpt lat="46.13144" lon="4.4116">
        <ele>838</ele>
        <time>2025-09-08T11:24:03Z</time>
      </trkpt>
      <trkpt lat="46.13151" lon="4.41162">
        <ele>837.2</ele>
        <time>2025-09-08T11:24:04Z</time>
      </trkpt>
      <trkpt lat="46.13157" lon="4.41163">
        <ele>836.2</ele>
        <time>2025-09-08T11:24:05Z</time>
      </trkpt>
      <trkpt lat="46.13164" lon="4.41165">
        <ele>835.4</ele>
        <time>2025-09-08T11:24:06Z</time>
      </trkpt>
      <trkpt lat="46.13172" lon="4.41166">
        <ele>834.6</ele>
        <time>2025-09-08T11:24:07Z</time>
      </trkpt>
      <trkpt lat="46.13179" lon="4.41168">
        <ele>834.2</ele>
        <time>2025-09-08T11:24:08Z</time>
      </trkpt>
      <trkpt lat="46.13188" lon="4.41168">
        <ele>833.4</ele>
        <time>2025-09-08T11:24:09Z</time>
      </trkpt>
      <trkpt lat="46.13198" lon="4.41166">
        <ele>833</ele>
        <time>2025-09-08T11:24:10Z</time>
      </trkpt>
      <trkpt lat="46.13207" lon="4.41165">
        <ele>832.4</ele>
        <time>2025-09-08T11:24:11Z</time>
      </trkpt>
      <trkpt lat="46.13215" lon="4.41164">
        <ele>831.6</ele>
        <time>2025-09-08T11:24:12Z</time>
      </trkpt>
      <trkpt lat="46.13224" lon="4.41163">
        <ele>830.8</ele>
        <time>2025-09-08T11:24:13Z</time>
      </trkpt>
      <trkpt lat="46.13232" lon="4.41162">
        <ele>830</ele>
        <time>2025-09-08T11:24:14Z</time>
      </trkpt>
      <trkpt lat="46.1324" lon="4.4116">
        <ele>829.6</ele>
        <time>2025-09-08T11:24:15Z</time>
      </trkpt>
      <trkpt lat="46.13247" lon="4.41158">
        <ele>828.6</ele>
        <time>2025-09-08T11:24:16Z</time>
      </trkpt>
      <trkpt lat="46.13254" lon="4.41156">
        <ele>827.6</ele>
        <time>2025-09-08T11:24:17Z</time>
      </trkpt>
      <trkpt lat="46.1326" lon="4.41154">
        <ele>827</ele>
        <time>2025-09-08T11:24:18Z</time>
      </trkpt>
      <trkpt lat="46.13267" lon="4.41151">
        <ele>826.4</ele>
        <time>2025-09-08T11:24:19Z</time>
      </trkpt>
      <trkpt lat="46.13273" lon="4.41148">
        <ele>826.4</ele>
        <time>2025-09-08T11:24:20Z</time>
      </trkpt>
      <trkpt lat="46.13279" lon="4.41144">
        <ele>825.8</ele>
        <time>2025-09-08T11:24:21Z</time>
      </trkpt>
      <trkpt lat="46.13286" lon="4.4114">
        <ele>825.2</ele>
        <time>2025-09-08T11:24:22Z</time>
      </trkpt>
      <trkpt lat="46.13293" lon="4.41136">
        <ele>825</ele>
        <time>2025-09-08T11:24:23Z</time>
      </trkpt>
      <trkpt lat="46.133" lon="4.41131">
        <ele>824</ele>
        <time>2025-09-08T11:24:24Z</time>
      </trkpt>
      <trkpt lat="46.13307" lon="4.41126">
        <ele>823.4</ele>
        <time>2025-09-08T11:24:25Z</time>
      </trkpt>
      <trkpt lat="46.13314" lon="4.41123">
        <ele>823</ele>
        <time>2025-09-08T11:24:26Z</time>
      </trkpt>
      <trkpt lat="46.13321" lon="4.41119">
        <ele>822.4</ele>
        <time>2025-09-08T11:24:27Z</time>
      </trkpt>
      <trkpt lat="46.13325" lon="4.41114">
        <ele>822</ele>
        <time>2025-09-08T11:24:28Z</time>
      </trkpt>
      <trkpt lat="46.1333" lon="4.41112">
        <ele>821</ele>
        <time>2025-09-08T11:24:29Z</time>
      </trkpt>
      <trkpt lat="46.13337" lon="4.41107">
        <ele>820.2</ele>
        <time>2025-09-08T11:24:30Z</time>
      </trkpt>
      <trkpt lat="46.13342" lon="4.41104">
        <ele>819.4</ele>
        <time>2025-09-08T11:24:31Z</time>
      </trkpt>
      <trkpt lat="46.13348" lon="4.41099">
        <ele>818.6</ele>
        <time>2025-09-08T11:24:32Z</time>
      </trkpt>
      <trkpt lat="46.13356" lon="4.41096">
        <ele>818.2</ele>
        <time>2025-09-08T11:24:33Z</time>
      </trkpt>
      <trkpt lat="46.13362" lon="4.41093">
        <ele>817.4</ele>
        <time>2025-09-08T11:24:34Z</time>
      </trkpt>
      <trkpt lat="46.13371" lon="4.41089">
        <ele>816.8</ele>
        <time>2025-09-08T11:24:35Z</time>
      </trkpt>
      <trkpt lat="46.13374" lon="4.41086">
        <ele>816</ele>
        <time>2025-09-08T11:24:36Z</time>
      </trkpt>
      <trkpt lat="46.1338" lon="4.41082">
        <ele>815</ele>
        <time>2025-09-08T11:24:37Z</time>
      </trkpt>
      <trkpt lat="46.13385" lon="4.41079">
        <ele>814.6</ele>
        <time>2025-09-08T11:24:38Z</time>
      </trkpt>
      <trkpt lat="46.13391" lon="4.41074">
        <ele>814.2</ele>
        <time>2025-09-08T11:24:39Z</time>
      </trkpt>
      <trkpt lat="46.13397" lon="4.41069">
        <ele>813.8</ele>
        <time>2025-09-08T11:24:40Z</time>
      </trkpt>
      <trkpt lat="46.134" lon="4.41069">
        <ele>813.2</ele>
        <time>2025-09-08T11:24:41Z</time>
      </trkpt>
      <trkpt lat="46.13404" lon="4.41061">
        <ele>812.8</ele>
        <time>2025-09-08T11:24:42Z</time>
      </trkpt>
      <trkpt lat="46.13407" lon="4.41056">
        <ele>812.4</ele>
        <time>2025-09-08T11:24:43Z</time>
      </trkpt>
      <trkpt lat="46.13413" lon="4.41054">
        <ele>811.8</ele>
        <time>2025-09-08T11:24:44Z</time>
      </trkpt>
      <trkpt lat="46.1342" lon="4.41049">
        <ele>811.4</ele>
        <time>2025-09-08T11:24:45Z</time>
      </trkpt>
      <trkpt lat="46.13425" lon="4.41046">
        <ele>811</ele>
        <time>2025-09-08T11:24:46Z</time>
      </trkpt>
      <trkpt lat="46.13429" lon="4.41042">
        <ele>810.4</ele>
        <time>2025-09-08T11:24:47Z</time>
      </trkpt>
      <trkpt lat="46.13434" lon="4.4104">
        <ele>810</ele>
        <time>2025-09-08T11:24:48Z</time>
      </trkpt>
      <trkpt lat="46.13438" lon="4.41036">
        <ele>809.6</ele>
        <time>2025-09-08T11:24:49Z</time>
      </trkpt>
      <trkpt lat="46.13441" lon="4.41036">
        <ele>809.2</ele>
        <time>2025-09-08T11:24:50Z</time>
      </trkpt>
      <trkpt lat="46.13442" lon="4.41033">
        <ele>809</ele>
        <time>2025-09-08T11:24:51Z</time>
      </trkpt>
      <trkpt lat="46.13443" lon="4.41034">
        <ele>808.8</ele>
        <time>2025-09-08T11:24:52Z</time>
      </trkpt>
      <trkpt lat="46.13442" lon="4.41034">
        <ele>808.6</ele>
        <time>2025-09-08T11:24:53Z</time>
      </trkpt>
      <trkpt lat="46.13444" lon="4.41032">
        <ele>808.2</ele>
        <time>2025-09-08T11:24:54Z</time>
      </trkpt>
      <trkpt lat="46.13448" lon="4.41032">
        <ele>808</ele>
        <time>2025-09-08T11:24:55Z</time>
      </trkpt>
      <trkpt lat="46.13449" lon="4.4103">
        <ele>808</ele>
        <time>2025-09-08T11:24:56Z</time>
      </trkpt>
      <trkpt lat="46.1345" lon="4.41029">
        <ele>807.8</ele>
        <time>2025-09-08T11:24:57Z</time>
      </trkpt>
      <trkpt lat="46.13453" lon="4.41028">
        <ele>807.8</ele>
        <time>2025-09-08T11:24:58Z</time>
      </trkpt>
      <trkpt lat="46.13455" lon="4.41026">
        <ele>807.2</ele>
        <time>2025-09-08T11:24:59Z</time>
      </trkpt>
      <trkpt lat="46.13457" lon="4.41024">
        <ele>806.8</ele>
        <time>2025-09-08T11:25:00Z</time>
      </trkpt>
      <trkpt lat="46.1346" lon="4.41022">
        <ele>806.8</ele>
        <time>2025-09-08T11:25:01Z</time>
      </trkpt>
      <trkpt lat="46.13463" lon="4.4102">
        <ele>806.4</ele>
        <time>2025-09-08T11:25:02Z</time>
      </trkpt>
      <trkpt lat="46.13465" lon="4.41018">
        <ele>806</ele>
        <time>2025-09-08T11:25:03Z</time>
      </trkpt>
      <trkpt lat="46.13467" lon="4.41017">
        <ele>805.8</ele>
        <time>2025-09-08T11:25:04Z</time>
      </trkpt>
      <trkpt lat="46.13468" lon="4.41016">
        <ele>805.6</ele>
        <time>2025-09-08T11:25:05Z</time>
      </trkpt>
      <trkpt lat="46.13469" lon="4.41014">
        <ele>805.2</ele>
        <time>2025-09-08T11:25:06Z</time>
      </trkpt>
      <trkpt lat="46.13471" lon="4.41013">
        <ele>804.6</ele>
        <time>2025-09-08T11:25:07Z</time>
      </trkpt>
      <trkpt lat="46.13472" lon="4.41011">
        <ele>804.6</ele>
        <time>2025-09-08T11:25:08Z</time>
      </trkpt>
      <trkpt lat="46.13474" lon="4.41009">
        <ele>804</ele>
        <time>2025-09-08T11:25:09Z</time>
      </trkpt>
      <trkpt lat="46.13476" lon="4.41005">
        <ele>803.4</ele>
        <time>2025-09-08T11:25:10Z</time>
      </trkpt>
      <trkpt lat="46.13483" lon="4.40999">
        <ele>802.8</ele>
        <time>2025-09-08T11:25:11Z</time>
      </trkpt>
      <trkpt lat="46.13487" lon="4.40994">
        <ele>802.2</ele>
        <time>2025-09-08T11:25:12Z</time>
      </trkpt>
      <trkpt lat="46.13489" lon="4.4099">
        <ele>801.6</ele>
        <time>2025-09-08T11:25:13Z</time>
      </trkpt>
      <trkpt lat="46.13489" lon="4.40985">
        <ele>801.4</ele>
        <time>2025-09-08T11:25:14Z</time>
      </trkpt>
      <trkpt lat="46.1349" lon="4.40983">
        <ele>801</ele>
        <time>2025-09-08T11:25:15Z</time>
      </trkpt>
      <trkpt lat="46.13488" lon="4.40981">
        <ele>801</ele>
        <time>2025-09-08T11:25:16Z</time>
      </trkpt>
      <trkpt lat="46.13485" lon="4.40978">
        <ele>800.6</ele>
        <time>2025-09-08T11:25:17Z</time>
      </trkpt>
      <trkpt lat="46.13481" lon="4.40976">
        <ele>800.4</ele>
        <time>2025-09-08T11:25:18Z</time>
      </trkpt>
      <trkpt lat="46.13477" lon="4.40973">
        <ele>800</ele>
        <time>2025-09-08T11:25:19Z</time>
      </trkpt>
      <trkpt lat="46.13472" lon="4.40972">
        <ele>799.6</ele>
        <time>2025-09-08T11:25:20Z</time>
      </trkpt>
      <trkpt lat="46.13467" lon="4.40972">
        <ele>799.2</ele>
        <time>2025-09-08T11:25:21Z</time>
      </trkpt>
      <trkpt lat="46.13462" lon="4.40971">
        <ele>798.8</ele>
        <time>2025-09-08T11:25:22Z</time>
      </trkpt>
      <trkpt lat="46.13457" lon="4.4097">
        <ele>798.4</ele>
        <time>2025-09-08T11:25:23Z</time>
      </trkpt>
      <trkpt lat="46.13451" lon="4.4097">
        <ele>798.2</ele>
        <time>2025-09-08T11:25:24Z</time>
      </trkpt>
      <trkpt lat="46.13445" lon="4.40967">
        <ele>797.8</ele>
        <time>2025-09-08T11:25:25Z</time>
      </trkpt>
      <trkpt lat="46.13438" lon="4.40965">
        <ele>797.4</ele>
        <time>2025-09-08T11:25:26Z</time>
      </trkpt>
      <trkpt lat="46.13433" lon="4.40962">
        <ele>797.4</ele>
        <time>2025-09-08T11:25:27Z</time>
      </trkpt>
      <trkpt lat="46.13426" lon="4.40961">
        <ele>796.8</ele>
        <time>2025-09-08T11:25:28Z</time>
      </trkpt>
      <trkpt lat="46.13419" lon="4.40958">
        <ele>796.6</ele>
        <time>2025-09-08T11:25:29Z</time>
      </trkpt>
      <trkpt lat="46.13413" lon="4.40955">
        <ele>796</ele>
        <time>2025-09-08T11:25:30Z</time>
      </trkpt>
      <trkpt lat="46.13406" lon="4.40952">
        <ele>795.6</ele>
        <time>2025-09-08T11:25:31Z</time>
      </trkpt>
      <trkpt lat="46.13399" lon="4.40949">
        <ele>795.2</ele>
        <time>2025-09-08T11:25:32Z</time>
      </trkpt>
      <trkpt lat="46.13393" lon="4.40943">
        <ele>794.6</ele>
        <time>2025-09-08T11:25:33Z</time>
      </trkpt>
      <trkpt lat="46.13387" lon="4.40942">
        <ele>794.2</ele>
        <time>2025-09-08T11:25:34Z</time>
      </trkpt>
      <trkpt lat="46.13383" lon="4.40937">
        <ele>793.8</ele>
        <time>2025-09-08T11:25:35Z</time>
      </trkpt>
      <trkpt lat="46.1338" lon="4.40933">
        <ele>793.2</ele>
        <time>2025-09-08T11:25:36Z</time>
      </trkpt>
      <trkpt lat="46.13378" lon="4.40928">
        <ele>792.8</ele>
        <time>2025-09-08T11:25:37Z</time>
      </trkpt>
      <trkpt lat="46.13378" lon="4.40921">
        <ele>792.4</ele>
        <time>2025-09-08T11:25:38Z</time>
      </trkpt>
      <trkpt lat="46.13377" lon="4.40915">
        <ele>792</ele>
        <time>2025-09-08T11:25:39Z</time>
      </trkpt>
      <trkpt lat="46.13381" lon="4.40909">
        <ele>791.4</ele>
        <time>2025-09-08T11:25:40Z</time>
      </trkpt>
      <trkpt lat="46.13385" lon="4.40904">
        <ele>790.8</ele>
        <time>2025-09-08T11:25:41Z</time>
      </trkpt>
      <trkpt lat="46.13389" lon="4.409">
        <ele>790.4</ele>
        <time>2025-09-08T11:25:42Z</time>
      </trkpt>
      <trkpt lat="46.13395" lon="4.40899">
        <ele>789.8</ele>
        <time>2025-09-08T11:25:43Z</time>
      </trkpt>
      <trkpt lat="46.13401" lon="4.40898">
        <ele>789.2</ele>
        <time>2025-09-08T11:25:44Z</time>
      </trkpt>
      <trkpt lat="46.13407" lon="4.40898">
        <ele>788.6</ele>
        <time>2025-09-08T11:25:45Z</time>
      </trkpt>
      <trkpt lat="46.13414" lon="4.40897">
        <ele>788.4</ele>
        <time>2025-09-08T11:25:46Z</time>
      </trkpt>
      <trkpt lat="46.13421" lon="4.40896">
        <ele>788.2</ele>
        <time>2025-09-08T11:25:47Z</time>
      </trkpt>
      <trkpt lat="46.13429" lon="4.40895">
        <ele>787.6</ele>
        <time>2025-09-08T11:25:48Z</time>
      </trkpt>
      <trkpt lat="46.13436" lon="4.40895">
        <ele>787.2</ele>
        <time>2025-09-08T11:25:49Z</time>
      </trkpt>
      <trkpt lat="46.13441" lon="4.4089">
        <ele>786.8</ele>
        <time>2025-09-08T11:25:50Z</time>
      </trkpt>
      <trkpt lat="46.13447" lon="4.40885">
        <ele>786.2</ele>
        <time>2025-09-08T11:25:51Z</time>
      </trkpt>
      <trkpt lat="46.13451" lon="4.40877">
        <ele>785.8</ele>
        <time>2025-09-08T11:25:52Z</time>
      </trkpt>
      <trkpt lat="46.13453" lon="4.40871">
        <ele>785.4</ele>
        <time>2025-09-08T11:25:53Z</time>
      </trkpt>
      <trkpt lat="46.13454" lon="4.40863">
        <ele>785</ele>
        <time>2025-09-08T11:25:54Z</time>
      </trkpt>
      <trkpt lat="46.13453" lon="4.40855">
        <ele>784.8</ele>
        <time>2025-09-08T11:25:55Z</time>
      </trkpt>
      <trkpt lat="46.13452" lon="4.40849">
        <ele>784.4</ele>
        <time>2025-09-08T11:25:56Z</time>
      </trkpt>
      <trkpt lat="46.13445" lon="4.4084">
        <ele>784</ele>
        <time>2025-09-08T11:25:57Z</time>
      </trkpt>
      <trkpt lat="46.1344" lon="4.40833">
        <ele>783.6</ele>
        <time>2025-09-08T11:25:58Z</time>
      </trkpt>
      <trkpt lat="46.13435" lon="4.40825">
        <ele>783</ele>
        <time>2025-09-08T11:25:59Z</time>
      </trkpt>
      <trkpt lat="46.13429" lon="4.40818">
        <ele>782.6</ele>
        <time>2025-09-08T11:26:00Z</time>
      </trkpt>
      <trkpt lat="46.13423" lon="4.40809">
        <ele>781.8</ele>
        <time>2025-09-08T11:26:01Z</time>
      </trkpt>
      <trkpt lat="46.13417" lon="4.40801">
        <ele>781.4</ele>
        <time>2025-09-08T11:26:02Z</time>
      </trkpt>
      <trkpt lat="46.1341" lon="4.40794">
        <ele>780.8</ele>
        <time>2025-09-08T11:26:03Z</time>
      </trkpt>
      <trkpt lat="46.13403" lon="4.40786">
        <ele>780.8</ele>
        <time>2025-09-08T11:26:04Z</time>
      </trkpt>
      <trkpt lat="46.13395" lon="4.40779">
        <ele>780.4</ele>
        <time>2025-09-08T11:26:05Z</time>
      </trkpt>
      <trkpt lat="46.13389" lon="4.40768">
        <ele>779.6</ele>
        <time>2025-09-08T11:26:06Z</time>
      </trkpt>
      <trkpt lat="46.13383" lon="4.40757">
        <ele>779</ele>
        <time>2025-09-08T11:26:07Z</time>
      </trkpt>
      <trkpt lat="46.13377" lon="4.40749">
        <ele>778.4</ele>
        <time>2025-09-08T11:26:08Z</time>
      </trkpt>
      <trkpt lat="46.13372" lon="4.40738">
        <ele>777.6</ele>
        <time>2025-09-08T11:26:09Z</time>
      </trkpt>
      <trkpt lat="46.13367" lon="4.40729">
        <ele>776.8</ele>
        <time>2025-09-08T11:26:10Z</time>
      </trkpt>
      <trkpt lat="46.13362" lon="4.40719">
        <ele>776.2</ele>
        <time>2025-09-08T11:26:11Z</time>
      </trkpt>
      <trkpt lat="46.13357" lon="4.40712">
        <ele>775.6</ele>
        <time>2025-09-08T11:26:12Z</time>
      </trkpt>
      <trkpt lat="46.13353" lon="4.40701">
        <ele>775</ele>
        <time>2025-09-08T11:26:13Z</time>
      </trkpt>
      <trkpt lat="46.13347" lon="4.40692">
        <ele>774</ele>
        <time>2025-09-08T11:26:14Z</time>
      </trkpt>
      <trkpt lat="46.13343" lon="4.40682">
        <ele>773.6</ele>
        <time>2025-09-08T11:26:15Z</time>
      </trkpt>
      <trkpt lat="46.13334" lon="4.40663">
        <ele>773</ele>
        <time>2025-09-08T11:26:16Z</time>
      </trkpt>
      <trkpt lat="46.13329" lon="4.40652">
        <ele>772.6</ele>
        <time>2025-09-08T11:26:17Z</time>
      </trkpt>
      <trkpt lat="46.13326" lon="4.40641">
        <ele>772.2</ele>
        <time>2025-09-08T11:26:18Z</time>
      </trkpt>
      <trkpt lat="46.13322" lon="4.40629">
        <ele>771.6</ele>
        <time>2025-09-08T11:26:19Z</time>
      </trkpt>
      <trkpt lat="46.13319" lon="4.40615">
        <ele>771</ele>
        <time>2025-09-08T11:26:20Z</time>
      </trkpt>
      <trkpt lat="46.13314" lon="4.40602">
        <ele>770.4</ele>
        <time>2025-09-08T11:26:21Z</time>
      </trkpt>
      <trkpt lat="46.13311" lon="4.40588">
        <ele>769.4</ele>
        <time>2025-09-08T11:26:22Z</time>
      </trkpt>
      <trkpt lat="46.13307" lon="4.40574">
        <ele>768.6</ele>
        <time>2025-09-08T11:26:23Z</time>
      </trkpt>
      <trkpt lat="46.13301" lon="4.4056">
        <ele>768</ele>
        <time>2025-09-08T11:26:24Z</time>
      </trkpt>
      <trkpt lat="46.13296" lon="4.40546">
        <ele>767.2</ele>
        <time>2025-09-08T11:26:25Z</time>
      </trkpt>
      <trkpt lat="46.13292" lon="4.40533">
        <ele>766.8</ele>
        <time>2025-09-08T11:26:26Z</time>
      </trkpt>
      <trkpt lat="46.13287" lon="4.4052">
        <ele>766.2</ele>
        <time>2025-09-08T11:26:27Z</time>
      </trkpt>
      <trkpt lat="46.13282" lon="4.40507">
        <ele>766.2</ele>
        <time>2025-09-08T11:26:28Z</time>
      </trkpt>
      <trkpt lat="46.13278" lon="4.40494">
        <ele>765.4</ele>
        <time>2025-09-08T11:26:29Z</time>
      </trkpt>
      <trkpt lat="46.13274" lon="4.40481">
        <ele>764.4</ele>
        <time>2025-09-08T11:26:30Z</time>
      </trkpt>
      <trkpt lat="46.1327" lon="4.40468">
        <ele>763.4</ele>
        <time>2025-09-08T11:26:31Z</time>
      </trkpt>
      <trkpt lat="46.13266" lon="4.40455">
        <ele>762.8</ele>
        <time>2025-09-08T11:26:32Z</time>
      </trkpt>
      <trkpt lat="46.13262" lon="4.40443">
        <ele>763.2</ele>
        <time>2025-09-08T11:26:33Z</time>
      </trkpt>
      <trkpt lat="46.13256" lon="4.4043">
        <ele>762</ele>
        <time>2025-09-08T11:26:34Z</time>
      </trkpt>
      <trkpt lat="46.13251" lon="4.40419">
        <ele>761</ele>
        <time>2025-09-08T11:26:35Z</time>
      </trkpt>
      <trkpt lat="46.13245" lon="4.40407">
        <ele>760</ele>
        <time>2025-09-08T11:26:36Z</time>
      </trkpt>
      <trkpt lat="46.13238" lon="4.40396">
        <ele>759.4</ele>
        <time>2025-09-08T11:26:37Z</time>
      </trkpt>
      <trkpt lat="46.13231" lon="4.40386">
        <ele>758.8</ele>
        <time>2025-09-08T11:26:38Z</time>
      </trkpt>
      <trkpt lat="46.13224" lon="4.40376">
        <ele>758</ele>
        <time>2025-09-08T11:26:39Z</time>
      </trkpt>
      <trkpt lat="46.13216" lon="4.40366">
        <ele>757.4</ele>
        <time>2025-09-08T11:26:40Z</time>
      </trkpt>
      <trkpt lat="46.13209" lon="4.40354">
        <ele>756.6</ele>
        <time>2025-09-08T11:26:41Z</time>
      </trkpt>
      <trkpt lat="46.13201" lon="4.40344">
        <ele>756</ele>
        <time>2025-09-08T11:26:42Z</time>
      </trkpt>
      <trkpt lat="46.13193" lon="4.40334">
        <ele>755.2</ele>
        <time>2025-09-08T11:26:43Z</time>
      </trkpt>
      <trkpt lat="46.13186" lon="4.40326">
        <ele>754.6</ele>
        <time>2025-09-08T11:26:44Z</time>
      </trkpt>
      <trkpt lat="46.13178" lon="4.40318">
        <ele>754</ele>
        <time>2025-09-08T11:26:45Z</time>
      </trkpt>
      <trkpt lat="46.1317" lon="4.4031">
        <ele>753.4</ele>
        <time>2025-09-08T11:26:46Z</time>
      </trkpt>
      <trkpt lat="46.13161" lon="4.40302">
        <ele>752.6</ele>
        <time>2025-09-08T11:26:47Z</time>
      </trkpt>
      <trkpt lat="46.13152" lon="4.40295">
        <ele>751.6</ele>
        <time>2025-09-08T11:26:48Z</time>
      </trkpt>
      <trkpt lat="46.13143" lon="4.40289">
        <ele>750.8</ele>
        <time>2025-09-08T11:26:49Z</time>
      </trkpt>
      <trkpt lat="46.13136" lon="4.40282">
        <ele>749.8</ele>
        <time>2025-09-08T11:26:50Z</time>
      </trkpt>
      <trkpt lat="46.13127" lon="4.40275">
        <ele>749</ele>
        <time>2025-09-08T11:26:51Z</time>
      </trkpt>
      <trkpt lat="46.1312" lon="4.40268">
        <ele>748.6</ele>
        <time>2025-09-08T11:26:52Z</time>
      </trkpt>
      <trkpt lat="46.13113" lon="4.40259">
        <ele>747.8</ele>
        <time>2025-09-08T11:26:53Z</time>
      </trkpt>
      <trkpt lat="46.13107" lon="4.40249">
        <ele>747.6</ele>
        <time>2025-09-08T11:26:54Z</time>
      </trkpt>
      <trkpt lat="46.13101" lon="4.40238">
        <ele>746.8</ele>
        <time>2025-09-08T11:26:55Z</time>
      </trkpt>
      <trkpt lat="46.13095" lon="4.40227">
        <ele>746.4</ele>
        <time>2025-09-08T11:26:56Z</time>
      </trkpt>
      <trkpt lat="46.1309" lon="4.40215">
        <ele>745.8</ele>
        <time>2025-09-08T11:26:57Z</time>
      </trkpt>
      <trkpt lat="46.13085" lon="4.40203">
        <ele>745.2</ele>
        <time>2025-09-08T11:26:58Z</time>
      </trkpt>
      <trkpt lat="46.1308" lon="4.4019">
        <ele>744.6</ele>
        <time>2025-09-08T11:26:59Z</time>
      </trkpt>
      <trkpt lat="46.13074" lon="4.40178">
        <ele>743.4</ele>
        <time>2025-09-08T11:27:00Z</time>
      </trkpt>
      <trkpt lat="46.13069" lon="4.40164">
        <ele>742.6</ele>
        <time>2025-09-08T11:27:01Z</time>
      </trkpt>
      <trkpt lat="46.13064" lon="4.40152">
        <ele>741.8</ele>
        <time>2025-09-08T11:27:02Z</time>
      </trkpt>
      <trkpt lat="46.13059" lon="4.40141">
        <ele>741.8</ele>
        <time>2025-09-08T11:27:03Z</time>
      </trkpt>
      <trkpt lat="46.13055" lon="4.4013">
        <ele>741.2</ele>
        <time>2025-09-08T11:27:04Z</time>
      </trkpt>
      <trkpt lat="46.13055" lon="4.4013">
        <ele>741</ele>
        <time>2025-09-08T11:27:05Z</time>
      </trkpt>
      <trkpt lat="46.1305" lon="4.40118">
        <ele>740.4</ele>
        <time>2025-09-08T11:27:06Z</time>
      </trkpt>
      <trkpt lat="46.13047" lon="4.40106">
        <ele>739.6</ele>
        <time>2025-09-08T11:27:07Z</time>
      </trkpt>
      <trkpt lat="46.13044" lon="4.40094">
        <ele>738.8</ele>
        <time>2025-09-08T11:27:08Z</time>
      </trkpt>
      <trkpt lat="46.13041" lon="4.40082">
        <ele>738.2</ele>
        <time>2025-09-08T11:27:09Z</time>
      </trkpt>
      <trkpt lat="46.13039" lon="4.40069">
        <ele>737.8</ele>
        <time>2025-09-08T11:27:10Z</time>
      </trkpt>
      <trkpt lat="46.13037" lon="4.40056">
        <ele>737.4</ele>
        <time>2025-09-08T11:27:11Z</time>
      </trkpt>
      <trkpt lat="46.13037" lon="4.40042">
        <ele>736.8</ele>
        <time>2025-09-08T11:27:12Z</time>
      </trkpt>
      <trkpt lat="46.13036" lon="4.40027">
        <ele>736.2</ele>
        <time>2025-09-08T11:27:13Z</time>
      </trkpt>
      <trkpt lat="46.13036" lon="4.40013">
        <ele>735.2</ele>
        <time>2025-09-08T11:27:14Z</time>
      </trkpt>
      <trkpt lat="46.13036" lon="4.39999">
        <ele>734.2</ele>
        <time>2025-09-08T11:27:15Z</time>
      </trkpt>
      <trkpt lat="46.13037" lon="4.39984">
        <ele>733.8</ele>
        <time>2025-09-08T11:27:16Z</time>
      </trkpt>
      <trkpt lat="46.13037" lon="4.39971">
        <ele>733</ele>
        <time>2025-09-08T11:27:17Z</time>
      </trkpt>
      <trkpt lat="46.13038" lon="4.39958">
        <ele>732.4</ele>
        <time>2025-09-08T11:27:18Z</time>
      </trkpt>
      <trkpt lat="46.13038" lon="4.39944">
        <ele>732</ele>
        <time>2025-09-08T11:27:19Z</time>
      </trkpt>
      <trkpt lat="46.13039" lon="4.39933">
        <ele>731.4</ele>
        <time>2025-09-08T11:27:20Z</time>
      </trkpt>
      <trkpt lat="46.13039" lon="4.39921">
        <ele>730.8</ele>
        <time>2025-09-08T11:27:21Z</time>
      </trkpt>
      <trkpt lat="46.1304" lon="4.39909">
        <ele>730.4</ele>
        <time>2025-09-08T11:27:22Z</time>
      </trkpt>
      <trkpt lat="46.13039" lon="4.39897">
        <ele>730</ele>
        <time>2025-09-08T11:27:23Z</time>
      </trkpt>
      <trkpt lat="46.13038" lon="4.39885">
        <ele>729.4</ele>
        <time>2025-09-08T11:27:24Z</time>
      </trkpt>
      <trkpt lat="46.13035" lon="4.39874">
        <ele>728.6</ele>
        <time>2025-09-08T11:27:25Z</time>
      </trkpt>
      <trkpt lat="46.13032" lon="4.39864">
        <ele>728.2</ele>
        <time>2025-09-08T11:27:26Z</time>
      </trkpt>
      <trkpt lat="46.13028" lon="4.39854">
        <ele>727.6</ele>
        <time>2025-09-08T11:27:27Z</time>
      </trkpt>
      <trkpt lat="46.13024" lon="4.39847">
        <ele>727</ele>
        <time>2025-09-08T11:27:28Z</time>
      </trkpt>
      <trkpt lat="46.13018" lon="4.3984">
        <ele>726.6</ele>
        <time>2025-09-08T11:27:29Z</time>
      </trkpt>
      <trkpt lat="46.13014" lon="4.39835">
        <ele>726</ele>
        <time>2025-09-08T11:27:30Z</time>
      </trkpt>
      <trkpt lat="46.13007" lon="4.39832">
        <ele>725.6</ele>
        <time>2025-09-08T11:27:31Z</time>
      </trkpt>
      <trkpt lat="46.13001" lon="4.39828">
        <ele>724.8</ele>
        <time>2025-09-08T11:27:32Z</time>
      </trkpt>
      <trkpt lat="46.12995" lon="4.39827">
        <ele>724.4</ele>
        <time>2025-09-08T11:27:33Z</time>
      </trkpt>
      <trkpt lat="46.12988" lon="4.39827">
        <ele>724.2</ele>
        <time>2025-09-08T11:27:34Z</time>
      </trkpt>
      <trkpt lat="46.12981" lon="4.39829">
        <ele>723.6</ele>
        <time>2025-09-08T11:27:35Z</time>
      </trkpt>
      <trkpt lat="46.12974" lon="4.39831">
        <ele>723.4</ele>
        <time>2025-09-08T11:27:36Z</time>
      </trkpt>
      <trkpt lat="46.12968" lon="4.39833">
        <ele>722.4</ele>
        <time>2025-09-08T11:27:37Z</time>
      </trkpt>
      <trkpt lat="46.12962" lon="4.39832">
        <ele>722</ele>
        <time>2025-09-08T11:27:38Z</time>
      </trkpt>
      <trkpt lat="46.12956" lon="4.3983">
        <ele>721.6</ele>
        <time>2025-09-08T11:27:39Z</time>
      </trkpt>
      <trkpt lat="46.12951" lon="4.39827">
        <ele>721</ele>
        <time>2025-09-08T11:27:40Z</time>
      </trkpt>
      <trkpt lat="46.12945" lon="4.39824">
        <ele>720.4</ele>
        <time>2025-09-08T11:27:41Z</time>
      </trkpt>
      <trkpt lat="46.12941" lon="4.39817">
        <ele>720</ele>
        <time>2025-09-08T11:27:42Z</time>
      </trkpt>
      <trkpt lat="46.12936" lon="4.39812">
        <ele>719.8</ele>
        <time>2025-09-08T11:27:43Z</time>
      </trkpt>
      <trkpt lat="46.12935" lon="4.39805">
        <ele>719.6</ele>
        <time>2025-09-08T11:27:44Z</time>
      </trkpt>
      <trkpt lat="46.12934" lon="4.39797">
        <ele>719.6</ele>
        <time>2025-09-08T11:27:45Z</time>
      </trkpt>
      <trkpt lat="46.12932" lon="4.39789">
        <ele>719.2</ele>
        <time>2025-09-08T11:27:46Z</time>
      </trkpt>
      <trkpt lat="46.1293" lon="4.39781">
        <ele>719.2</ele>
        <time>2025-09-08T11:27:47Z</time>
      </trkpt>
      <trkpt lat="46.12928" lon="4.39773">
        <ele>719</ele>
        <time>2025-09-08T11:27:48Z</time>
      </trkpt>
      <trkpt lat="46.12926" lon="4.39767">
        <ele>719</ele>
        <time>2025-09-08T11:27:49Z</time>
      </trkpt>
      <trkpt lat="46.12924" lon="4.39762">
        <ele>718.6</ele>
        <time>2025-09-08T11:27:50Z</time>
      </trkpt>
      <trkpt lat="46.12922" lon="4.39762">
        <ele>718.2</ele>
        <time>2025-09-08T11:27:51Z</time>
      </trkpt>
      <trkpt lat="46.12919" lon="4.39758">
        <ele>718.2</ele>
        <time>2025-09-08T11:27:52Z</time>
      </trkpt>
      <trkpt lat="46.12916" lon="4.39755">
        <ele>718</ele>
        <time>2025-09-08T11:27:53Z</time>
      </trkpt>
      <trkpt lat="46.12912" lon="4.3975">
        <ele>717.6</ele>
        <time>2025-09-08T11:27:54Z</time>
      </trkpt>
      <trkpt lat="46.12907" lon="4.3975">
        <ele>717.2</ele>
        <time>2025-09-08T11:27:55Z</time>
      </trkpt>
      <trkpt lat="46.12903" lon="4.39746">
        <ele>717.6</ele>
        <time>2025-09-08T11:27:56Z</time>
      </trkpt>
      <trkpt lat="46.12898" lon="4.39742">
        <ele>717</ele>
        <time>2025-09-08T11:27:57Z</time>
      </trkpt>
      <trkpt lat="46.12893" lon="4.39739">
        <ele>716.6</ele>
        <time>2025-09-08T11:27:58Z</time>
      </trkpt>
      <trkpt lat="46.12889" lon="4.39736">
        <ele>716.2</ele>
        <time>2025-09-08T11:27:59Z</time>
      </trkpt>
      <trkpt lat="46.12885" lon="4.39733">
        <ele>716</ele>
        <time>2025-09-08T11:28:00Z</time>
      </trkpt>
      <trkpt lat="46.12881" lon="4.39732">
        <ele>715.8</ele>
        <time>2025-09-08T11:28:01Z</time>
      </trkpt>
      <trkpt lat="46.12878" lon="4.3973">
        <ele>715.8</ele>
        <time>2025-09-08T11:28:02Z</time>
      </trkpt>
      <trkpt lat="46.12876" lon="4.3973">
        <ele>715.2</ele>
        <time>2025-09-08T11:28:03Z</time>
      </trkpt>
      <trkpt lat="46.12874" lon="4.39731">
        <ele>715.2</ele>
        <time>2025-09-08T11:28:04Z</time>
      </trkpt>
      <trkpt lat="46.12872" lon="4.39733">
        <ele>714.6</ele>
        <time>2025-09-08T11:28:05Z</time>
      </trkpt>
      <trkpt lat="46.1287" lon="4.39736">
        <ele>714.4</ele>
        <time>2025-09-08T11:28:06Z</time>
      </trkpt>
      <trkpt lat="46.12869" lon="4.39739">
        <ele>714</ele>
        <time>2025-09-08T11:28:07Z</time>
      </trkpt>
      <trkpt lat="46.12869" lon="4.39744">
        <ele>714</ele>
        <time>2025-09-08T11:28:08Z</time>
      </trkpt>
      <trkpt lat="46.12868" lon="4.39748">
        <ele>713.6</ele>
        <time>2025-09-08T11:28:09Z</time>
      </trkpt>
      <trkpt lat="46.12868" lon="4.39753">
        <ele>713.2</ele>
        <time>2025-09-08T11:28:10Z</time>
      </trkpt>
      <trkpt lat="46.12869" lon="4.39759">
        <ele>713</ele>
        <time>2025-09-08T11:28:11Z</time>
      </trkpt>
      <trkpt lat="46.1287" lon="4.39765">
        <ele>712.8</ele>
        <time>2025-09-08T11:28:12Z</time>
      </trkpt>
      <trkpt lat="46.12871" lon="4.3977">
        <ele>712.6</ele>
        <time>2025-09-08T11:28:13Z</time>
      </trkpt>
      <trkpt lat="46.12874" lon="4.39774">
        <ele>712.4</ele>
        <time>2025-09-08T11:28:14Z</time>
      </trkpt>
      <trkpt lat="46.12877" lon="4.39779">
        <ele>712.4</ele>
        <time>2025-09-08T11:28:15Z</time>
      </trkpt>
      <trkpt lat="46.12878" lon="4.39785">
        <ele>712.4</ele>
        <time>2025-09-08T11:28:16Z</time>
      </trkpt>
      <trkpt lat="46.12877" lon="4.39792">
        <ele>712.4</ele>
        <time>2025-09-08T11:28:17Z</time>
      </trkpt>
      <trkpt lat="46.1288" lon="4.39794">
        <ele>712</ele>
        <time>2025-09-08T11:28:18Z</time>
      </trkpt>
      <trkpt lat="46.12884" lon="4.39797">
        <ele>712</ele>
        <time>2025-09-08T11:28:19Z</time>
      </trkpt>
      <trkpt lat="46.12888" lon="4.398">
        <ele>711.8</ele>
        <time>2025-09-08T11:28:20Z</time>
      </trkpt>
      <trkpt lat="46.12891" lon="4.39804">
        <ele>711.8</ele>
        <time>2025-09-08T11:28:21Z</time>
      </trkpt>
      <trkpt lat="46.12892" lon="4.39807">
        <ele>711.8</ele>
        <time>2025-09-08T11:28:22Z</time>
      </trkpt>
      <trkpt lat="46.12895" lon="4.39809">
        <ele>711.6</ele>
        <time>2025-09-08T11:28:23Z</time>
      </trkpt>
      <trkpt lat="46.12897" lon="4.39811">
        <ele>711.8</ele>
        <time>2025-09-08T11:28:24Z</time>
      </trkpt>
      <trkpt lat="46.129" lon="4.39813">
        <ele>711.8</ele>
        <time>2025-09-08T11:28:25Z</time>
      </trkpt>
      <trkpt lat="46.12903" lon="4.39815">
        <ele>711.4</ele>
        <time>2025-09-08T11:28:26Z</time>
      </trkpt>
      <trkpt lat="46.12905" lon="4.39817">
        <ele>711.4</ele>
        <time>2025-09-08T11:28:27Z</time>
      </trkpt>
      <trkpt lat="46.12907" lon="4.39819">
        <ele>711.2</ele>
        <time>2025-09-08T11:28:28Z</time>
      </trkpt>
      <trkpt lat="46.12908" lon="4.39822">
        <ele>711.2</ele>
        <time>2025-09-08T11:28:29Z</time>
      </trkpt>
      <trkpt lat="46.12909" lon="4.39824">
        <ele>711</ele>
        <time>2025-09-08T11:28:30Z</time>
      </trkpt>
      <trkpt lat="46.1291" lon="4.39825">
        <ele>711</ele>
        <time>2025-09-08T11:28:31Z</time>
      </trkpt>
      <trkpt lat="46.12911" lon="4.39825">
        <ele>711</ele>
        <time>2025-09-08T11:28:32Z</time>
      </trkpt>
      <trkpt lat="46.12912" lon="4.39824">
        <ele>710.8</ele>
        <time>2025-09-08T11:28:33Z</time>
      </trkpt>
      <trkpt lat="46.12912" lon="4.39823">
        <ele>710.8</ele>
        <time>2025-09-08T11:28:34Z</time>
      </trkpt>
      <trkpt lat="46.12912" lon="4.39824">
        <ele>710.8</ele>
        <time>2025-09-08T11:28:43Z</time>
      </trkpt>
      <trkpt lat="46.12912" lon="4.39825">
        <ele>710.8</ele>
        <time>2025-09-08T11:28:44Z</time>
      </trkpt>
      <trkpt lat="46.12911" lon="4.39827">
        <ele>710.4</ele>
        <time>2025-09-08T11:28:45Z</time>
      </trkpt>
      <trkpt lat="46.12911" lon="4.39829">
        <ele>710.4</ele>
        <time>2025-09-08T11:28:46Z</time>
      </trkpt>
      <trkpt lat="46.12911" lon="4.39832">
        <ele>710.4</ele>
        <time>2025-09-08T11:28:47Z</time>
      </trkpt>
      <trkpt lat="46.1291" lon="4.39836">
        <ele>710.4</ele>
        <time>2025-09-08T11:28:48Z</time>
      </trkpt>
      <trkpt lat="46.12911" lon="4.39841">
        <ele>710.4</ele>
        <time>2025-09-08T11:28:49Z</time>
      </trkpt>
      <trkpt lat="46.12912" lon="4.39845">
        <ele>710.2</ele>
        <time>2025-09-08T11:28:50Z</time>
      </trkpt>
      <trkpt lat="46.12913" lon="4.39849">
        <ele>709.8</ele>
        <time>2025-09-08T11:28:51Z</time>
      </trkpt>
      <trkpt lat="46.12915" lon="4.39854">
        <ele>709.8</ele>
        <time>2025-09-08T11:28:52Z</time>
      </trkpt>
      <trkpt lat="46.12916" lon="4.39858">
        <ele>709.6</ele>
        <time>2025-09-08T11:28:53Z</time>
      </trkpt>
      <trkpt lat="46.12917" lon="4.39863">
        <ele>709.6</ele>
        <time>2025-09-08T11:28:54Z</time>
      </trkpt>
      <trkpt lat="46.12917" lon="4.39868">
        <ele>709.6</ele>
        <time>2025-09-08T11:28:55Z</time>
      </trkpt>
      <trkpt lat="46.12917" lon="4.39874">
        <ele>709.4</ele>
        <time>2025-09-08T11:28:56Z</time>
      </trkpt>
      <trkpt lat="46.12916" lon="4.39878">
        <ele>709.4</ele>
        <time>2025-09-08T11:28:57Z</time>
      </trkpt>
      <trkpt lat="46.12914" lon="4.39882">
        <ele>709.4</ele>
        <time>2025-09-08T11:28:58Z</time>
      </trkpt>
      <trkpt lat="46.12913" lon="4.39886">
        <ele>709.4</ele>
        <time>2025-09-08T11:28:59Z</time>
      </trkpt>
      <trkpt lat="46.12911" lon="4.39889">
        <ele>709.4</ele>
        <time>2025-09-08T11:29:00Z</time>
      </trkpt>
      <trkpt lat="46.12909" lon="4.39893">
        <ele>709.2</ele>
        <time>2025-09-08T11:29:01Z</time>
      </trkpt>
      <trkpt lat="46.12907" lon="4.39896">
        <ele>709.2</ele>
        <time>2025-09-08T11:29:02Z</time>
      </trkpt>
      <trkpt lat="46.12905" lon="4.399">
        <ele>709.2</ele>
        <time>2025-09-08T11:29:03Z</time>
      </trkpt>
      <trkpt lat="46.12903" lon="4.39904">
        <ele>709.2</ele>
        <time>2025-09-08T11:29:04Z</time>
      </trkpt>
      <trkpt lat="46.129" lon="4.39908">
        <ele>708.8</ele>
        <time>2025-09-08T11:29:05Z</time>
      </trkpt>
      <trkpt lat="46.12898" lon="4.39913">
        <ele>708.8</ele>
        <time>2025-09-08T11:29:06Z</time>
      </trkpt>
      <trkpt lat="46.12896" lon="4.39918">
        <ele>708.6</ele>
        <time>2025-09-08T11:29:07Z</time>
      </trkpt>
      <trkpt lat="46.12893" lon="4.39923">
        <ele>708.6</ele>
        <time>2025-09-08T11:29:08Z</time>
      </trkpt>
      <trkpt lat="46.12891" lon="4.39929">
        <ele>708.2</ele>
        <time>2025-09-08T11:29:09Z</time>
      </trkpt>
      <trkpt lat="46.12889" lon="4.39934">
        <ele>708.2</ele>
        <time>2025-09-08T11:29:10Z</time>
      </trkpt>
      <trkpt lat="46.12887" lon="4.39938">
        <ele>708.2</ele>
        <time>2025-09-08T11:29:11Z</time>
      </trkpt>
      <trkpt lat="46.12886" lon="4.39943">
        <ele>708</ele>
        <time>2025-09-08T11:29:12Z</time>
      </trkpt>
      <trkpt lat="46.12884" lon="4.39946">
        <ele>707.6</ele>
        <time>2025-09-08T11:29:13Z</time>
      </trkpt>
      <trkpt lat="46.12883" lon="4.3995">
        <ele>707.6</ele>
        <time>2025-09-08T11:29:14Z</time>
      </trkpt>
      <trkpt lat="46.12881" lon="4.39955">
        <ele>707.6</ele>
        <time>2025-09-08T11:29:15Z</time>
      </trkpt>
      <trkpt lat="46.12879" lon="4.39959">
        <ele>707.6</ele>
        <time>2025-09-08T11:29:16Z</time>
      </trkpt>
      <trkpt lat="46.12877" lon="4.39964">
        <ele>707.6</ele>
        <time>2025-09-08T11:29:17Z</time>
      </trkpt>
      <trkpt lat="46.12875" lon="4.39968">
        <ele>707.4</ele>
        <time>2025-09-08T11:29:18Z</time>
      </trkpt>
      <trkpt lat="46.12874" lon="4.39972">
        <ele>707.4</ele>
        <time>2025-09-08T11:29:19Z</time>
      </trkpt>
      <trkpt lat="46.12872" lon="4.39977">
        <ele>707</ele>
        <time>2025-09-08T11:29:20Z</time>
      </trkpt>
      <trkpt lat="46.1287" lon="4.39981">
        <ele>707</ele>
        <time>2025-09-08T11:29:21Z</time>
      </trkpt>
      <trkpt lat="46.12868" lon="4.39984">
        <ele>706.6</ele>
        <time>2025-09-08T11:29:22Z</time>
      </trkpt>
      <trkpt lat="46.12867" lon="4.39987">
        <ele>706.6</ele>
        <time>2025-09-08T11:29:23Z</time>
      </trkpt>
      <trkpt lat="46.12866" lon="4.39989">
        <ele>706.4</ele>
        <time>2025-09-08T11:29:24Z</time>
      </trkpt>
      <trkpt lat="46.12864" lon="4.39991">
        <ele>706.4</ele>
        <time>2025-09-08T11:29:25Z</time>
      </trkpt>
      <trkpt lat="46.12863" lon="4.39994">
        <ele>706.4</ele>
        <time>2025-09-08T11:29:26Z</time>
      </trkpt>
      <trkpt lat="46.12862" lon="4.39995">
        <ele>706.4</ele>
        <time>2025-09-08T11:29:27Z</time>
      </trkpt>
      <trkpt lat="46.1286" lon="4.4">
        <ele>706.4</ele>
        <time>2025-09-08T11:29:28Z</time>
      </trkpt>
      <trkpt lat="46.1286" lon="4.40002">
        <ele>706.4</ele>
        <time>2025-09-08T11:29:29Z</time>
      </trkpt>
      <trkpt lat="46.1286" lon="4.40004">
        <ele>706.4</ele>
        <time>2025-09-08T11:29:30Z</time>
      </trkpt>
      <trkpt lat="46.12859" lon="4.40006">
        <ele>706</ele>
        <time>2025-09-08T11:29:31Z</time>
      </trkpt>
      <trkpt lat="46.12857" lon="4.40007">
        <ele>706</ele>
        <time>2025-09-08T11:29:32Z</time>
      </trkpt>
      <trkpt lat="46.12856" lon="4.40009">
        <ele>704.8</ele>
        <time>2025-09-08T11:29:33Z</time>
      </trkpt>
      <trkpt lat="46.12855" lon="4.40012">
        <ele>705</ele>
        <time>2025-09-08T11:29:34Z</time>
      </trkpt>
      <trkpt lat="46.12853" lon="4.40015">
        <ele>705</ele>
        <time>2025-09-08T11:29:35Z</time>
      </trkpt>
      <trkpt lat="46.12852" lon="4.40019">
        <ele>705</ele>
        <time>2025-09-08T11:29:36Z</time>
      </trkpt>
      <trkpt lat="46.1285" lon="4.40022">
        <ele>705</ele>
        <time>2025-09-08T11:29:37Z</time>
      </trkpt>
      <trkpt lat="46.12848" lon="4.40026">
        <ele>704.8</ele>
        <time>2025-09-08T11:29:38Z</time>
      </trkpt>
      <trkpt lat="46.12846" lon="4.40031">
        <ele>704.8</ele>
        <time>2025-09-08T11:29:39Z</time>
      </trkpt>
      <trkpt lat="46.12842" lon="4.40036">
        <ele>704.8</ele>
        <time>2025-09-08T11:29:40Z</time>
      </trkpt>
      <trkpt lat="46.12839" lon="4.40041">
        <ele>704.4</ele>
        <time>2025-09-08T11:29:41Z</time>
      </trkpt>
      <trkpt lat="46.12834" lon="4.40047">
        <ele>703.8</ele>
        <time>2025-09-08T11:29:42Z</time>
      </trkpt>
      <trkpt lat="46.1283" lon="4.40052">
        <ele>703.4</ele>
        <time>2025-09-08T11:29:43Z</time>
      </trkpt>
      <trkpt lat="46.12826" lon="4.40057">
        <ele>703</ele>
        <time>2025-09-08T11:29:44Z</time>
      </trkpt>
      <trkpt lat="46.1282" lon="4.40062">
        <ele>702.4</ele>
        <time>2025-09-08T11:29:45Z</time>
      </trkpt>
      <trkpt lat="46.12815" lon="4.40066">
        <ele>702.4</ele>
        <time>2025-09-08T11:29:46Z</time>
      </trkpt>
      <trkpt lat="46.1281" lon="4.40072">
        <ele>702.2</ele>
        <time>2025-09-08T11:29:47Z</time>
      </trkpt>
      <trkpt lat="46.12805" lon="4.40077">
        <ele>702.2</ele>
        <time>2025-09-08T11:29:48Z</time>
      </trkpt>
      <trkpt lat="46.128" lon="4.40081">
        <ele>701.6</ele>
        <time>2025-09-08T11:29:49Z</time>
      </trkpt>
      <trkpt lat="46.12795" lon="4.40085">
        <ele>701.6</ele>
        <time>2025-09-08T11:29:50Z</time>
      </trkpt>
      <trkpt lat="46.12789" lon="4.40087">
        <ele>701.6</ele>
        <time>2025-09-08T11:29:51Z</time>
      </trkpt>
      <trkpt lat="46.12782" lon="4.40089">
        <ele>701.2</ele>
        <time>2025-09-08T11:29:52Z</time>
      </trkpt>
      <trkpt lat="46.12775" lon="4.4009">
        <ele>700.8</ele>
        <time>2025-09-08T11:29:53Z</time>
      </trkpt>
      <trkpt lat="46.12769" lon="4.40089">
        <ele>700.4</ele>
        <time>2025-09-08T11:29:54Z</time>
      </trkpt>
      <trkpt lat="46.12762" lon="4.40088">
        <ele>700.4</ele>
        <time>2025-09-08T11:29:55Z</time>
      </trkpt>
      <trkpt lat="46.12755" lon="4.40087">
        <ele>699.8</ele>
        <time>2025-09-08T11:29:56Z</time>
      </trkpt>
      <trkpt lat="46.12749" lon="4.40085">
        <ele>699.8</ele>
        <time>2025-09-08T11:29:57Z</time>
      </trkpt>
      <trkpt lat="46.12743" lon="4.40083">
        <ele>699.8</ele>
        <time>2025-09-08T11:29:58Z</time>
      </trkpt>
      <trkpt lat="46.12737" lon="4.4008">
        <ele>699.8</ele>
        <time>2025-09-08T11:29:59Z</time>
      </trkpt>
      <trkpt lat="46.12737" lon="4.4008">
        <ele>699.6</ele>
        <time>2025-09-08T11:30:00Z</time>
      </trkpt>
      <trkpt lat="46.12725" lon="4.40074">
        <ele>699.6</ele>
        <time>2025-09-08T11:30:01Z</time>
      </trkpt>
      <trkpt lat="46.12719" lon="4.4007">
        <ele>699.4</ele>
        <time>2025-09-08T11:30:02Z</time>
      </trkpt>
      <trkpt lat="46.12714" lon="4.40065">
        <ele>699.4</ele>
        <time>2025-09-08T11:30:03Z</time>
      </trkpt>
      <trkpt lat="46.12708" lon="4.4006">
        <ele>699.2</ele>
        <time>2025-09-08T11:30:04Z</time>
      </trkpt>
      <trkpt lat="46.12703" lon="4.40055">
        <ele>699.2</ele>
        <time>2025-09-08T11:30:05Z</time>
      </trkpt>
      <trkpt lat="46.12698" lon="4.40048">
        <ele>698.8</ele>
        <time>2025-09-08T11:30:06Z</time>
      </trkpt>
      <trkpt lat="46.12693" lon="4.40042">
        <ele>698.4</ele>
        <time>2025-09-08T11:30:07Z</time>
      </trkpt>
      <trkpt lat="46.12687" lon="4.40036">
        <ele>698.2</ele>
        <time>2025-09-08T11:30:08Z</time>
      </trkpt>
      <trkpt lat="46.12682" lon="4.40028">
        <ele>698</ele>
        <time>2025-09-08T11:30:09Z</time>
      </trkpt>
      <trkpt lat="46.12677" lon="4.4002">
        <ele>697.8</ele>
        <time>2025-09-08T11:30:10Z</time>
      </trkpt>
      <trkpt lat="46.12672" lon="4.40011">
        <ele>697.2</ele>
        <time>2025-09-08T11:30:11Z</time>
      </trkpt>
      <trkpt lat="46.12667" lon="4.40002">
        <ele>696.8</ele>
        <time>2025-09-08T11:30:12Z</time>
      </trkpt>
      <trkpt lat="46.12662" lon="4.39992">
        <ele>696.6</ele>
        <time>2025-09-08T11:30:13Z</time>
      </trkpt>
      <trkpt lat="46.12659" lon="4.39982">
        <ele>696.2</ele>
        <time>2025-09-08T11:30:14Z</time>
      </trkpt>
      <trkpt lat="46.12655" lon="4.39971">
        <ele>695.6</ele>
        <time>2025-09-08T11:30:15Z</time>
      </trkpt>
      <trkpt lat="46.12655" lon="4.39971">
        <ele>695.4</ele>
        <time>2025-09-08T11:30:16Z</time>
      </trkpt>
      <trkpt lat="46.12652" lon="4.3996">
        <ele>695.2</ele>
        <time>2025-09-08T11:30:17Z</time>
      </trkpt>
      <trkpt lat="46.12649" lon="4.39951">
        <ele>695.2</ele>
        <time>2025-09-08T11:30:18Z</time>
      </trkpt>
      <trkpt lat="46.12645" lon="4.39939">
        <ele>694.8</ele>
        <time>2025-09-08T11:30:19Z</time>
      </trkpt>
      <trkpt lat="46.12641" lon="4.39928">
        <ele>694.4</ele>
        <time>2025-09-08T11:30:20Z</time>
      </trkpt>
      <trkpt lat="46.12637" lon="4.39917">
        <ele>694</ele>
        <time>2025-09-08T11:30:21Z</time>
      </trkpt>
      <trkpt lat="46.12632" lon="4.39905">
        <ele>694</ele>
        <time>2025-09-08T11:30:22Z</time>
      </trkpt>
      <trkpt lat="46.12627" lon="4.39893">
        <ele>693.8</ele>
        <time>2025-09-08T11:30:23Z</time>
      </trkpt>
      <trkpt lat="46.12623" lon="4.39881">
        <ele>693.2</ele>
        <time>2025-09-08T11:30:24Z</time>
      </trkpt>
      <trkpt lat="46.12618" lon="4.39868">
        <ele>692.6</ele>
        <time>2025-09-08T11:30:25Z</time>
      </trkpt>
      <trkpt lat="46.12614" lon="4.39855">
        <ele>692</ele>
        <time>2025-09-08T11:30:26Z</time>
      </trkpt>
      <trkpt lat="46.1261" lon="4.39842">
        <ele>691.4</ele>
        <time>2025-09-08T11:30:27Z</time>
      </trkpt>
      <trkpt lat="46.12607" lon="4.3983">
        <ele>690.8</ele>
        <time>2025-09-08T11:30:28Z</time>
      </trkpt>
      <trkpt lat="46.12604" lon="4.39818">
        <ele>690.4</ele>
        <time>2025-09-08T11:30:29Z</time>
      </trkpt>
      <trkpt lat="46.12601" lon="4.39806">
        <ele>690.4</ele>
        <time>2025-09-08T11:30:30Z</time>
      </trkpt>
      <trkpt lat="46.12599" lon="4.39794">
        <ele>690</ele>
        <time>2025-09-08T11:30:31Z</time>
      </trkpt>
      <trkpt lat="46.12597" lon="4.39781">
        <ele>689.6</ele>
        <time>2025-09-08T11:30:32Z</time>
      </trkpt>
      <trkpt lat="46.12595" lon="4.3977">
        <ele>689</ele>
        <time>2025-09-08T11:30:33Z</time>
      </trkpt>
      <trkpt lat="46.12592" lon="4.39758">
        <ele>688.6</ele>
        <time>2025-09-08T11:30:34Z</time>
      </trkpt>
      <trkpt lat="46.12589" lon="4.39746">
        <ele>688</ele>
        <time>2025-09-08T11:30:35Z</time>
      </trkpt>
      <trkpt lat="46.12586" lon="4.39733">
        <ele>687.8</ele>
        <time>2025-09-08T11:30:36Z</time>
      </trkpt>
      <trkpt lat="46.12582" lon="4.39721">
        <ele>687.4</ele>
        <time>2025-09-08T11:30:37Z</time>
      </trkpt>
      <trkpt lat="46.12578" lon="4.3971">
        <ele>687</ele>
        <time>2025-09-08T11:30:38Z</time>
      </trkpt>
      <trkpt lat="46.12575" lon="4.39699">
        <ele>686.8</ele>
        <time>2025-09-08T11:30:39Z</time>
      </trkpt>
      <trkpt lat="46.12569" lon="4.39689">
        <ele>686.2</ele>
        <time>2025-09-08T11:30:40Z</time>
      </trkpt>
      <trkpt lat="46.12562" lon="4.39678">
        <ele>685.8</ele>
        <time>2025-09-08T11:30:41Z</time>
      </trkpt>
      <trkpt lat="46.12555" lon="4.39668">
        <ele>685.2</ele>
        <time>2025-09-08T11:30:42Z</time>
      </trkpt>
      <trkpt lat="46.12548" lon="4.39659">
        <ele>684.6</ele>
        <time>2025-09-08T11:30:43Z</time>
      </trkpt>
      <trkpt lat="46.12541" lon="4.39648">
        <ele>684.2</ele>
        <time>2025-09-08T11:30:44Z</time>
      </trkpt>
      <trkpt lat="46.12534" lon="4.39638">
        <ele>683.2</ele>
        <time>2025-09-08T11:30:45Z</time>
      </trkpt>
      <trkpt lat="46.12528" lon="4.39628">
        <ele>682.6</ele>
        <time>2025-09-08T11:30:46Z</time>
      </trkpt>
      <trkpt lat="46.12523" lon="4.39617">
        <ele>682.4</ele>
        <time>2025-09-08T11:30:47Z</time>
      </trkpt>
      <trkpt lat="46.12517" lon="4.39607">
        <ele>682</ele>
        <time>2025-09-08T11:30:48Z</time>
      </trkpt>
      <trkpt lat="46.12512" lon="4.39595">
        <ele>681.6</ele>
        <time>2025-09-08T11:30:49Z</time>
      </trkpt>
      <trkpt lat="46.12508" lon="4.39581">
        <ele>681</ele>
        <time>2025-09-08T11:30:50Z</time>
      </trkpt>
      <trkpt lat="46.12503" lon="4.39569">
        <ele>680.2</ele>
        <time>2025-09-08T11:30:51Z</time>
      </trkpt>
      <trkpt lat="46.125" lon="4.39555">
        <ele>679.6</ele>
        <time>2025-09-08T11:30:52Z</time>
      </trkpt>
      <trkpt lat="46.12496" lon="4.39542">
        <ele>679.2</ele>
        <time>2025-09-08T11:30:53Z</time>
      </trkpt>
      <trkpt lat="46.12496" lon="4.39529">
        <ele>678.6</ele>
        <time>2025-09-08T11:30:54Z</time>
      </trkpt>
      <trkpt lat="46.12495" lon="4.39516">
        <ele>678.4</ele>
        <time>2025-09-08T11:30:55Z</time>
      </trkpt>
      <trkpt lat="46.12494" lon="4.39503">
        <ele>677.8</ele>
        <time>2025-09-08T11:30:56Z</time>
      </trkpt>
      <trkpt lat="46.12494" lon="4.3949">
        <ele>677.4</ele>
        <time>2025-09-08T11:30:57Z</time>
      </trkpt>
      <trkpt lat="46.12494" lon="4.39477">
        <ele>677</ele>
        <time>2025-09-08T11:30:58Z</time>
      </trkpt>
      <trkpt lat="46.12495" lon="4.39465">
        <ele>676.6</ele>
        <time>2025-09-08T11:30:59Z</time>
      </trkpt>
      <trkpt lat="46.12496" lon="4.39452">
        <ele>676.2</ele>
        <time>2025-09-08T11:31:00Z</time>
      </trkpt>
      <trkpt lat="46.12496" lon="4.3944">
        <ele>675.6</ele>
        <time>2025-09-08T11:31:01Z</time>
      </trkpt>
      <trkpt lat="46.12497" lon="4.39428">
        <ele>675.4</ele>
        <time>2025-09-08T11:31:02Z</time>
      </trkpt>
      <trkpt lat="46.12498" lon="4.39416">
        <ele>675.2</ele>
        <time>2025-09-08T11:31:03Z</time>
      </trkpt>
      <trkpt lat="46.125" lon="4.39403">
        <ele>674.6</ele>
        <time>2025-09-08T11:31:04Z</time>
      </trkpt>
      <trkpt lat="46.125" lon="4.3939">
        <ele>674.4</ele>
        <time>2025-09-08T11:31:05Z</time>
      </trkpt>
      <trkpt lat="46.12503" lon="4.39376">
        <ele>674</ele>
        <time>2025-09-08T11:31:06Z</time>
      </trkpt>
      <trkpt lat="46.12505" lon="4.39365">
        <ele>673.4</ele>
        <time>2025-09-08T11:31:07Z</time>
      </trkpt>
      <trkpt lat="46.1251" lon="4.39354">
        <ele>673</ele>
        <time>2025-09-08T11:31:08Z</time>
      </trkpt>
      <trkpt lat="46.12515" lon="4.39343">
        <ele>672.6</ele>
        <time>2025-09-08T11:31:09Z</time>
      </trkpt>
      <trkpt lat="46.12518" lon="4.39334">
        <ele>672</ele>
        <time>2025-09-08T11:31:10Z</time>
      </trkpt>
      <trkpt lat="46.12523" lon="4.39322">
        <ele>671.6</ele>
        <time>2025-09-08T11:31:11Z</time>
      </trkpt>
      <trkpt lat="46.12528" lon="4.3931">
        <ele>670.8</ele>
        <time>2025-09-08T11:31:12Z</time>
      </trkpt>
      <trkpt lat="46.12532" lon="4.393">
        <ele>670.2</ele>
        <time>2025-09-08T11:31:13Z</time>
      </trkpt>
      <trkpt lat="46.12538" lon="4.39291">
        <ele>670</ele>
        <time>2025-09-08T11:31:14Z</time>
      </trkpt>
      <trkpt lat="46.12543" lon="4.39283">
        <ele>669.6</ele>
        <time>2025-09-08T11:31:15Z</time>
      </trkpt>
      <trkpt lat="46.12546" lon="4.39273">
        <ele>669.2</ele>
        <time>2025-09-08T11:31:16Z</time>
      </trkpt>
      <trkpt lat="46.12551" lon="4.39263">
        <ele>668.6</ele>
        <time>2025-09-08T11:31:17Z</time>
      </trkpt>
      <trkpt lat="46.1255" lon="4.39255">
        <ele>668</ele>
        <time>2025-09-08T11:31:18Z</time>
      </trkpt>
      <trkpt lat="46.12552" lon="4.39242">
        <ele>667.8</ele>
        <time>2025-09-08T11:31:19Z</time>
      </trkpt>
      <trkpt lat="46.12556" lon="4.39232">
        <ele>666.8</ele>
        <time>2025-09-08T11:31:20Z</time>
      </trkpt>
      <trkpt lat="46.12559" lon="4.39222">
        <ele>666.6</ele>
        <time>2025-09-08T11:31:21Z</time>
      </trkpt>
      <trkpt lat="46.12563" lon="4.39211">
        <ele>666.2</ele>
        <time>2025-09-08T11:31:22Z</time>
      </trkpt>
      <trkpt lat="46.12567" lon="4.39198">
        <ele>665.8</ele>
        <time>2025-09-08T11:31:23Z</time>
      </trkpt>
      <trkpt lat="46.12571" lon="4.39187">
        <ele>665.4</ele>
        <time>2025-09-08T11:31:24Z</time>
      </trkpt>
      <trkpt lat="46.12574" lon="4.39175">
        <ele>665</ele>
        <time>2025-09-08T11:31:25Z</time>
      </trkpt>
      <trkpt lat="46.12577" lon="4.39163">
        <ele>665</ele>
        <time>2025-09-08T11:31:26Z</time>
      </trkpt>
      <trkpt lat="46.1258" lon="4.39151">
        <ele>664</ele>
        <time>2025-09-08T11:31:27Z</time>
      </trkpt>
      <trkpt lat="46.12583" lon="4.39138">
        <ele>663.8</ele>
        <time>2025-09-08T11:31:28Z</time>
      </trkpt>
      <trkpt lat="46.12585" lon="4.39127">
        <ele>663.4</ele>
        <time>2025-09-08T11:31:29Z</time>
      </trkpt>
      <trkpt lat="46.12585" lon="4.39113">
        <ele>662.8</ele>
        <time>2025-09-08T11:31:30Z</time>
      </trkpt>
      <trkpt lat="46.12585" lon="4.39101">
        <ele>662.4</ele>
        <time>2025-09-08T11:31:31Z</time>
      </trkpt>
      <trkpt lat="46.12585" lon="4.3909">
        <ele>662</ele>
        <time>2025-09-08T11:31:32Z</time>
      </trkpt>
      <trkpt lat="46.12584" lon="4.39077">
        <ele>661.6</ele>
        <time>2025-09-08T11:31:33Z</time>
      </trkpt>
      <trkpt lat="46.12581" lon="4.39066">
        <ele>661.2</ele>
        <time>2025-09-08T11:31:34Z</time>
      </trkpt>
      <trkpt lat="46.12578" lon="4.39054">
        <ele>661</ele>
        <time>2025-09-08T11:31:35Z</time>
      </trkpt>
      <trkpt lat="46.12574" lon="4.39045">
        <ele>660.8</ele>
        <time>2025-09-08T11:31:36Z</time>
      </trkpt>
      <trkpt lat="46.12568" lon="4.39034">
        <ele>660.4</ele>
        <time>2025-09-08T11:31:37Z</time>
      </trkpt>
      <trkpt lat="46.12562" lon="4.39027">
        <ele>659.8</ele>
        <time>2025-09-08T11:31:38Z</time>
      </trkpt>
      <trkpt lat="46.12554" lon="4.39019">
        <ele>659.4</ele>
        <time>2025-09-08T11:31:39Z</time>
      </trkpt>
      <trkpt lat="46.12547" lon="4.39013">
        <ele>658.8</ele>
        <time>2025-09-08T11:31:40Z</time>
      </trkpt>
      <trkpt lat="46.12539" lon="4.39009">
        <ele>658.2</ele>
        <time>2025-09-08T11:31:41Z</time>
      </trkpt>
      <trkpt lat="46.12531" lon="4.39004">
        <ele>657.8</ele>
        <time>2025-09-08T11:31:42Z</time>
      </trkpt>
      <trkpt lat="46.12522" lon="4.39">
        <ele>657.4</ele>
        <time>2025-09-08T11:31:43Z</time>
      </trkpt>
      <trkpt lat="46.12514" lon="4.38996">
        <ele>657</ele>
        <time>2025-09-08T11:31:44Z</time>
      </trkpt>
      <trkpt lat="46.12506" lon="4.38991">
        <ele>656.4</ele>
        <time>2025-09-08T11:31:45Z</time>
      </trkpt>
      <trkpt lat="46.12497" lon="4.38987">
        <ele>656.4</ele>
        <time>2025-09-08T11:31:46Z</time>
      </trkpt>
      <trkpt lat="46.12488" lon="4.38982">
        <ele>656</ele>
        <time>2025-09-08T11:31:47Z</time>
      </trkpt>
      <trkpt lat="46.1248" lon="4.38977">
        <ele>655.2</ele>
        <time>2025-09-08T11:31:48Z</time>
      </trkpt>
      <trkpt lat="46.12472" lon="4.38971">
        <ele>654.6</ele>
        <time>2025-09-08T11:31:49Z</time>
      </trkpt>
      <trkpt lat="46.12465" lon="4.38965">
        <ele>654.2</ele>
        <time>2025-09-08T11:31:50Z</time>
      </trkpt>
      <trkpt lat="46.12457" lon="4.38959">
        <ele>653.8</ele>
        <time>2025-09-08T11:31:51Z</time>
      </trkpt>
      <trkpt lat="46.12448" lon="4.38952">
        <ele>653.2</ele>
        <time>2025-09-08T11:31:52Z</time>
      </trkpt>
      <trkpt lat="46.1244" lon="4.38945">
        <ele>652.8</ele>
        <time>2025-09-08T11:31:53Z</time>
      </trkpt>
      <trkpt lat="46.12432" lon="4.38938">
        <ele>652.4</ele>
        <time>2025-09-08T11:31:54Z</time>
      </trkpt>
      <trkpt lat="46.12424" lon="4.38933">
        <ele>651.8</ele>
        <time>2025-09-08T11:31:55Z</time>
      </trkpt>
      <trkpt lat="46.12414" lon="4.38927">
        <ele>651.4</ele>
        <time>2025-09-08T11:31:56Z</time>
      </trkpt>
      <trkpt lat="46.12407" lon="4.38921">
        <ele>651.2</ele>
        <time>2025-09-08T11:31:57Z</time>
      </trkpt>
      <trkpt lat="46.12397" lon="4.38916">
        <ele>650.6</ele>
        <time>2025-09-08T11:31:58Z</time>
      </trkpt>
      <trkpt lat="46.12388" lon="4.38911">
        <ele>650</ele>
        <time>2025-09-08T11:31:59Z</time>
      </trkpt>
      <trkpt lat="46.12379" lon="4.38906">
        <ele>649.4</ele>
        <time>2025-09-08T11:32:00Z</time>
      </trkpt>
      <trkpt lat="46.1237" lon="4.38901">
        <ele>648.8</ele>
        <time>2025-09-08T11:32:01Z</time>
      </trkpt>
      <trkpt lat="46.12361" lon="4.38896">
        <ele>648.2</ele>
        <time>2025-09-08T11:32:02Z</time>
      </trkpt>
      <trkpt lat="46.12353" lon="4.38893">
        <ele>647.8</ele>
        <time>2025-09-08T11:32:03Z</time>
      </trkpt>
      <trkpt lat="46.12344" lon="4.38888">
        <ele>647.4</ele>
        <time>2025-09-08T11:32:04Z</time>
      </trkpt>
      <trkpt lat="46.12336" lon="4.38885">
        <ele>647.2</ele>
        <time>2025-09-08T11:32:05Z</time>
      </trkpt>
      <trkpt lat="46.12329" lon="4.38882">
        <ele>646.6</ele>
        <time>2025-09-08T11:32:06Z</time>
      </trkpt>
      <trkpt lat="46.12322" lon="4.38878">
        <ele>646.4</ele>
        <time>2025-09-08T11:32:07Z</time>
      </trkpt>
      <trkpt lat="46.12314" lon="4.38876">
        <ele>646</ele>
        <time>2025-09-08T11:32:08Z</time>
      </trkpt>
      <trkpt lat="46.12307" lon="4.38874">
        <ele>646</ele>
        <time>2025-09-08T11:32:09Z</time>
      </trkpt>
      <trkpt lat="46.12299" lon="4.38872">
        <ele>645.2</ele>
        <time>2025-09-08T11:32:10Z</time>
      </trkpt>
      <trkpt lat="46.12292" lon="4.38872">
        <ele>644.8</ele>
        <time>2025-09-08T11:32:11Z</time>
      </trkpt>
      <trkpt lat="46.12284" lon="4.38873">
        <ele>644.4</ele>
        <time>2025-09-08T11:32:12Z</time>
      </trkpt>
      <trkpt lat="46.12277" lon="4.38874">
        <ele>644</ele>
        <time>2025-09-08T11:32:13Z</time>
      </trkpt>
      <trkpt lat="46.12271" lon="4.38877">
        <ele>643.4</ele>
        <time>2025-09-08T11:32:14Z</time>
      </trkpt>
      <trkpt lat="46.12264" lon="4.3888">
        <ele>643</ele>
        <time>2025-09-08T11:32:15Z</time>
      </trkpt>
      <trkpt lat="46.12258" lon="4.38884">
        <ele>642.8</ele>
        <time>2025-09-08T11:32:16Z</time>
      </trkpt>
      <trkpt lat="46.12252" lon="4.38889">
        <ele>642.8</ele>
        <time>2025-09-08T11:32:17Z</time>
      </trkpt>
      <trkpt lat="46.12247" lon="4.38896">
        <ele>641.8</ele>
        <time>2025-09-08T11:32:18Z</time>
      </trkpt>
      <trkpt lat="46.12242" lon="4.38903">
        <ele>641.4</ele>
        <time>2025-09-08T11:32:19Z</time>
      </trkpt>
      <trkpt lat="46.12236" lon="4.38911">
        <ele>641</ele>
        <time>2025-09-08T11:32:20Z</time>
      </trkpt>
      <trkpt lat="46.12232" lon="4.38919">
        <ele>640.6</ele>
        <time>2025-09-08T11:32:21Z</time>
      </trkpt>
      <trkpt lat="46.12228" lon="4.38929">
        <ele>640.4</ele>
        <time>2025-09-08T11:32:22Z</time>
      </trkpt>
      <trkpt lat="46.12225" lon="4.3894">
        <ele>639.6</ele>
        <time>2025-09-08T11:32:23Z</time>
      </trkpt>
      <trkpt lat="46.12223" lon="4.3895">
        <ele>639</ele>
        <time>2025-09-08T11:32:24Z</time>
      </trkpt>
      <trkpt lat="46.12222" lon="4.38961">
        <ele>638.6</ele>
        <time>2025-09-08T11:32:25Z</time>
      </trkpt>
      <trkpt lat="46.12221" lon="4.38972">
        <ele>638.2</ele>
        <time>2025-09-08T11:32:26Z</time>
      </trkpt>
      <trkpt lat="46.1222" lon="4.38983">
        <ele>637.8</ele>
        <time>2025-09-08T11:32:27Z</time>
      </trkpt>
      <trkpt lat="46.12219" lon="4.38994">
        <ele>637.2</ele>
        <time>2025-09-08T11:32:28Z</time>
      </trkpt>
      <trkpt lat="46.12217" lon="4.39004">
        <ele>636.4</ele>
        <time>2025-09-08T11:32:29Z</time>
      </trkpt>
      <trkpt lat="46.12214" lon="4.39013">
        <ele>636</ele>
        <time>2025-09-08T11:32:30Z</time>
      </trkpt>
      <trkpt lat="46.12209" lon="4.39022">
        <ele>636</ele>
        <time>2025-09-08T11:32:31Z</time>
      </trkpt>
      <trkpt lat="46.12203" lon="4.39029">
        <ele>635</ele>
        <time>2025-09-08T11:32:32Z</time>
      </trkpt>
      <trkpt lat="46.12196" lon="4.39035">
        <ele>634</ele>
        <time>2025-09-08T11:32:33Z</time>
      </trkpt>
      <trkpt lat="46.12188" lon="4.39038">
        <ele>633.8</ele>
        <time>2025-09-08T11:32:34Z</time>
      </trkpt>
      <trkpt lat="46.1218" lon="4.3904">
        <ele>633.2</ele>
        <time>2025-09-08T11:32:35Z</time>
      </trkpt>
      <trkpt lat="46.12172" lon="4.39041">
        <ele>632.4</ele>
        <time>2025-09-08T11:32:36Z</time>
      </trkpt>
      <trkpt lat="46.12164" lon="4.39042">
        <ele>632</ele>
        <time>2025-09-08T11:32:37Z</time>
      </trkpt>
      <trkpt lat="46.12155" lon="4.39043">
        <ele>631.6</ele>
        <time>2025-09-08T11:32:38Z</time>
      </trkpt>
      <trkpt lat="46.12147" lon="4.39046">
        <ele>631.2</ele>
        <time>2025-09-08T11:32:39Z</time>
      </trkpt>
      <trkpt lat="46.12138" lon="4.3905">
        <ele>630.8</ele>
        <time>2025-09-08T11:32:40Z</time>
      </trkpt>
      <trkpt lat="46.12129" lon="4.39055">
        <ele>630.4</ele>
        <time>2025-09-08T11:32:41Z</time>
      </trkpt>
      <trkpt lat="46.12121" lon="4.3906">
        <ele>630</ele>
        <time>2025-09-08T11:32:42Z</time>
      </trkpt>
      <trkpt lat="46.12113" lon="4.39065">
        <ele>629.2</ele>
        <time>2025-09-08T11:32:43Z</time>
      </trkpt>
      <trkpt lat="46.12104" lon="4.39073">
        <ele>629</ele>
        <time>2025-09-08T11:32:44Z</time>
      </trkpt>
      <trkpt lat="46.12097" lon="4.3908">
        <ele>628.4</ele>
        <time>2025-09-08T11:32:45Z</time>
      </trkpt>
      <trkpt lat="46.12088" lon="4.39087">
        <ele>628</ele>
        <time>2025-09-08T11:32:46Z</time>
      </trkpt>
      <trkpt lat="46.12082" lon="4.39094">
        <ele>627.4</ele>
        <time>2025-09-08T11:32:47Z</time>
      </trkpt>
      <trkpt lat="46.12075" lon="4.39104">
        <ele>626.6</ele>
        <time>2025-09-08T11:32:48Z</time>
      </trkpt>
      <trkpt lat="46.12068" lon="4.39112">
        <ele>626</ele>
        <time>2025-09-08T11:32:49Z</time>
      </trkpt>
      <trkpt lat="46.1206" lon="4.39125">
        <ele>625</ele>
        <time>2025-09-08T11:32:50Z</time>
      </trkpt>
      <trkpt lat="46.12052" lon="4.39139">
        <ele>624.4</ele>
        <time>2025-09-08T11:32:51Z</time>
      </trkpt>
      <trkpt lat="46.12043" lon="4.39149">
        <ele>623.8</ele>
        <time>2025-09-08T11:32:52Z</time>
      </trkpt>
      <trkpt lat="46.12035" lon="4.39161">
        <ele>623.2</ele>
        <time>2025-09-08T11:32:53Z</time>
      </trkpt>
      <trkpt lat="46.12027" lon="4.39172">
        <ele>622.4</ele>
        <time>2025-09-08T11:32:54Z</time>
      </trkpt>
      <trkpt lat="46.12019" lon="4.3918">
        <ele>622.2</ele>
        <time>2025-09-08T11:32:55Z</time>
      </trkpt>
      <trkpt lat="46.12012" lon="4.3919">
        <ele>621.6</ele>
        <time>2025-09-08T11:32:56Z</time>
      </trkpt>
      <trkpt lat="46.12006" lon="4.392">
        <ele>620.8</ele>
        <time>2025-09-08T11:32:57Z</time>
      </trkpt>
      <trkpt lat="46.11999" lon="4.39209">
        <ele>620.6</ele>
        <time>2025-09-08T11:32:58Z</time>
      </trkpt>
      <trkpt lat="46.11992" lon="4.39217">
        <ele>620.2</ele>
        <time>2025-09-08T11:32:59Z</time>
      </trkpt>
      <trkpt lat="46.11986" lon="4.39226">
        <ele>619.8</ele>
        <time>2025-09-08T11:33:00Z</time>
      </trkpt>
      <trkpt lat="46.1198" lon="4.39236">
        <ele>619</ele>
        <time>2025-09-08T11:33:01Z</time>
      </trkpt>
      <trkpt lat="46.11973" lon="4.39244">
        <ele>618.4</ele>
        <time>2025-09-08T11:33:02Z</time>
      </trkpt>
      <trkpt lat="46.11966" lon="4.39252">
        <ele>617.8</ele>
        <time>2025-09-08T11:33:03Z</time>
      </trkpt>
      <trkpt lat="46.11959" lon="4.3926">
        <ele>617</ele>
        <time>2025-09-08T11:33:04Z</time>
      </trkpt>
      <trkpt lat="46.11952" lon="4.39268">
        <ele>616.4</ele>
        <time>2025-09-08T11:33:05Z</time>
      </trkpt>
      <trkpt lat="46.11942" lon="4.39272">
        <ele>615.6</ele>
        <time>2025-09-08T11:33:06Z</time>
      </trkpt>
      <trkpt lat="46.11934" lon="4.39274">
        <ele>614.8</ele>
        <time>2025-09-08T11:33:07Z</time>
      </trkpt>
      <trkpt lat="46.11926" lon="4.39274">
        <ele>613.8</ele>
        <time>2025-09-08T11:33:08Z</time>
      </trkpt>
      <trkpt lat="46.11917" lon="4.39273">
        <ele>613.2</ele>
        <time>2025-09-08T11:33:09Z</time>
      </trkpt>
      <trkpt lat="46.1191" lon="4.39269">
        <ele>612.4</ele>
        <time>2025-09-08T11:33:10Z</time>
      </trkpt>
      <trkpt lat="46.11901" lon="4.39267">
        <ele>611.8</ele>
        <time>2025-09-08T11:33:11Z</time>
      </trkpt>
      <trkpt lat="46.11893" lon="4.39263">
        <ele>611.4</ele>
        <time>2025-09-08T11:33:12Z</time>
      </trkpt>
      <trkpt lat="46.11884" lon="4.39259">
        <ele>610.6</ele>
        <time>2025-09-08T11:33:13Z</time>
      </trkpt>
      <trkpt lat="46.11875" lon="4.39255">
        <ele>609.8</ele>
        <time>2025-09-08T11:33:14Z</time>
      </trkpt>
      <trkpt lat="46.11863" lon="4.39252">
        <ele>609</ele>
        <time>2025-09-08T11:33:15Z</time>
      </trkpt>
      <trkpt lat="46.11855" lon="4.3925">
        <ele>608.4</ele>
        <time>2025-09-08T11:33:16Z</time>
      </trkpt>
      <trkpt lat="46.11844" lon="4.39247">
        <ele>608</ele>
        <time>2025-09-08T11:33:17Z</time>
      </trkpt>
      <trkpt lat="46.11835" lon="4.39245">
        <ele>607.6</ele>
        <time>2025-09-08T11:33:18Z</time>
      </trkpt>
      <trkpt lat="46.11826" lon="4.39243">
        <ele>607</ele>
        <time>2025-09-08T11:33:19Z</time>
      </trkpt>
      <trkpt lat="46.11816" lon="4.39241">
        <ele>606.2</ele>
        <time>2025-09-08T11:33:20Z</time>
      </trkpt>
      <trkpt lat="46.11805" lon="4.39242">
        <ele>605.4</ele>
        <time>2025-09-08T11:33:21Z</time>
      </trkpt>
      <trkpt lat="46.11795" lon="4.39242">
        <ele>604.8</ele>
        <time>2025-09-08T11:33:22Z</time>
      </trkpt>
      <trkpt lat="46.11785" lon="4.39243">
        <ele>604.2</ele>
        <time>2025-09-08T11:33:23Z</time>
      </trkpt>
      <trkpt lat="46.11775" lon="4.39244">
        <ele>603.6</ele>
        <time>2025-09-08T11:33:24Z</time>
      </trkpt>
      <trkpt lat="46.11766" lon="4.39242">
        <ele>602.8</ele>
        <time>2025-09-08T11:33:25Z</time>
      </trkpt>
      <trkpt lat="46.11758" lon="4.39241">
        <ele>602.2</ele>
        <time>2025-09-08T11:33:26Z</time>
      </trkpt>
      <trkpt lat="46.11752" lon="4.39239">
        <ele>601.6</ele>
        <time>2025-09-08T11:33:27Z</time>
      </trkpt>
      <trkpt lat="46.11745" lon="4.39238">
        <ele>601.2</ele>
        <time>2025-09-08T11:33:28Z</time>
      </trkpt>
      <trkpt lat="46.11739" lon="4.39238">
        <ele>601.2</ele>
        <time>2025-09-08T11:33:29Z</time>
      </trkpt>
      <trkpt lat="46.11733" lon="4.39237">
        <ele>600.8</ele>
        <time>2025-09-08T11:33:30Z</time>
      </trkpt>
      <trkpt lat="46.11729" lon="4.39235">
        <ele>600.6</ele>
        <time>2025-09-08T11:33:31Z</time>
      </trkpt>
      <trkpt lat="46.11724" lon="4.39233">
        <ele>600.6</ele>
        <time>2025-09-08T11:33:32Z</time>
      </trkpt>
      <trkpt lat="46.1172" lon="4.39231">
        <ele>600.4</ele>
        <time>2025-09-08T11:33:33Z</time>
      </trkpt>
      <trkpt lat="46.11716" lon="4.3923">
        <ele>599.8</ele>
        <time>2025-09-08T11:33:34Z</time>
      </trkpt>
      <trkpt lat="46.11713" lon="4.39228">
        <ele>599.6</ele>
        <time>2025-09-08T11:33:35Z</time>
      </trkpt>
      <trkpt lat="46.1171" lon="4.39226">
        <ele>599</ele>
        <time>2025-09-08T11:33:36Z</time>
      </trkpt>
      <trkpt lat="46.11707" lon="4.39226">
        <ele>598.4</ele>
        <time>2025-09-08T11:33:37Z</time>
      </trkpt>
      <trkpt lat="46.11703" lon="4.39225">
        <ele>598.2</ele>
        <time>2025-09-08T11:33:38Z</time>
      </trkpt>
      <trkpt lat="46.117" lon="4.39225">
        <ele>597.8</ele>
        <time>2025-09-08T11:33:39Z</time>
      </trkpt>
      <trkpt lat="46.11699" lon="4.39224">
        <ele>597.4</ele>
        <time>2025-09-08T11:33:40Z</time>
      </trkpt>
      <trkpt lat="46.11697" lon="4.39223">
        <ele>597</ele>
        <time>2025-09-08T11:33:41Z</time>
      </trkpt>
      <trkpt lat="46.11694" lon="4.39223">
        <ele>596.8</ele>
        <time>2025-09-08T11:33:42Z</time>
      </trkpt>
      <trkpt lat="46.11692" lon="4.39222">
        <ele>596.4</ele>
        <time>2025-09-08T11:33:43Z</time>
      </trkpt>
      <trkpt lat="46.1169" lon="4.39221">
        <ele>596.4</ele>
        <time>2025-09-08T11:33:44Z</time>
      </trkpt>
      <trkpt lat="46.11688" lon="4.39221">
        <ele>595.8</ele>
        <time>2025-09-08T11:33:45Z</time>
      </trkpt>
      <trkpt lat="46.11685" lon="4.39221">
        <ele>595.6</ele>
        <time>2025-09-08T11:33:46Z</time>
      </trkpt>
      <trkpt lat="46.11682" lon="4.39222">
        <ele>595.4</ele>
        <time>2025-09-08T11:33:47Z</time>
      </trkpt>
      <trkpt lat="46.11677" lon="4.3922">
        <ele>594.8</ele>
        <time>2025-09-08T11:33:48Z</time>
      </trkpt>
      <trkpt lat="46.11673" lon="4.39218">
        <ele>594.4</ele>
        <time>2025-09-08T11:33:49Z</time>
      </trkpt>
      <trkpt lat="46.11668" lon="4.39216">
        <ele>594.2</ele>
        <time>2025-09-08T11:33:50Z</time>
      </trkpt>
      <trkpt lat="46.11663" lon="4.39214">
        <ele>593.4</ele>
        <time>2025-09-08T11:33:51Z</time>
      </trkpt>
      <trkpt lat="46.11658" lon="4.3921">
        <ele>592.8</ele>
        <time>2025-09-08T11:33:52Z</time>
      </trkpt>
      <trkpt lat="46.11656" lon="4.39203">
        <ele>591.8</ele>
        <time>2025-09-08T11:33:53Z</time>
      </trkpt>
      <trkpt lat="46.11654" lon="4.39195">
        <ele>591.2</ele>
        <time>2025-09-08T11:33:54Z</time>
      </trkpt>
      <trkpt lat="46.11654" lon="4.39188">
        <ele>590.6</ele>
        <time>2025-09-08T11:33:55Z</time>
      </trkpt>
      <trkpt lat="46.11654" lon="4.3918">
        <ele>590.6</ele>
        <time>2025-09-08T11:33:56Z</time>
      </trkpt>
      <trkpt lat="46.11654" lon="4.39173">
        <ele>590.2</ele>
        <time>2025-09-08T11:33:57Z</time>
      </trkpt>
      <trkpt lat="46.11656" lon="4.39165">
        <ele>589.8</ele>
        <time>2025-09-08T11:33:58Z</time>
      </trkpt>
      <trkpt lat="46.11657" lon="4.39157">
        <ele>589.4</ele>
        <time>2025-09-08T11:33:59Z</time>
      </trkpt>
      <trkpt lat="46.11657" lon="4.39149">
        <ele>589.2</ele>
        <time>2025-09-08T11:34:00Z</time>
      </trkpt>
      <trkpt lat="46.11658" lon="4.39147">
        <ele>589</ele>
        <time>2025-09-08T11:34:01Z</time>
      </trkpt>
      <trkpt lat="46.11659" lon="4.39139">
        <ele>588.8</ele>
        <time>2025-09-08T11:34:02Z</time>
      </trkpt>
      <trkpt lat="46.11659" lon="4.39133">
        <ele>588.8</ele>
        <time>2025-09-08T11:34:03Z</time>
      </trkpt>
      <trkpt lat="46.1166" lon="4.39128">
        <ele>588.8</ele>
        <time>2025-09-08T11:34:04Z</time>
      </trkpt>
      <trkpt lat="46.11659" lon="4.39122">
        <ele>589.2</ele>
        <time>2025-09-08T11:34:05Z</time>
      </trkpt>
      <trkpt lat="46.11659" lon="4.39117">
        <ele>589.6</ele>
        <time>2025-09-08T11:34:06Z</time>
      </trkpt>
      <trkpt lat="46.11658" lon="4.39112">
        <ele>590</ele>
        <time>2025-09-08T11:34:07Z</time>
      </trkpt>
      <trkpt lat="46.11656" lon="4.39106">
        <ele>590.4</ele>
        <time>2025-09-08T11:34:08Z</time>
      </trkpt>
      <trkpt lat="46.11654" lon="4.391">
        <ele>590.8</ele>
        <time>2025-09-08T11:34:09Z</time>
      </trkpt>
      <trkpt lat="46.11652" lon="4.3909">
        <ele>591</ele>
        <time>2025-09-08T11:34:10Z</time>
      </trkpt>
      <trkpt lat="46.1165" lon="4.39085">
        <ele>591</ele>
        <time>2025-09-08T11:34:11Z</time>
      </trkpt>
      <trkpt lat="46.11647" lon="4.39079">
        <ele>590.8</ele>
        <time>2025-09-08T11:34:12Z</time>
      </trkpt>
      <trkpt lat="46.11645" lon="4.39075">
        <ele>590.4</ele>
        <time>2025-09-08T11:34:13Z</time>
      </trkpt>
      <trkpt lat="46.11643" lon="4.39071">
        <ele>590.4</ele>
        <time>2025-09-08T11:34:14Z</time>
      </trkpt>
      <trkpt lat="46.11641" lon="4.39068">
        <ele>590.4</ele>
        <time>2025-09-08T11:34:15Z</time>
      </trkpt>
      <trkpt lat="46.1164" lon="4.39066">
        <ele>590.8</ele>
        <time>2025-09-08T11:34:16Z</time>
      </trkpt>
      <trkpt lat="46.11638" lon="4.39064">
        <ele>591.2</ele>
        <time>2025-09-08T11:34:17Z</time>
      </trkpt>
      <trkpt lat="46.11636" lon="4.39062">
        <ele>591.4</ele>
        <time>2025-09-08T11:34:18Z</time>
      </trkpt>
      <trkpt lat="46.11635" lon="4.3906">
        <ele>591.6</ele>
        <time>2025-09-08T11:34:19Z</time>
      </trkpt>
      <trkpt lat="46.11633" lon="4.39059">
        <ele>592</ele>
        <time>2025-09-08T11:34:20Z</time>
      </trkpt>
      <trkpt lat="46.11632" lon="4.39059">
        <ele>592.2</ele>
        <time>2025-09-08T11:34:21Z</time>
      </trkpt>
      <trkpt lat="46.11631" lon="4.39057">
        <ele>592.6</ele>
        <time>2025-09-08T11:34:22Z</time>
      </trkpt>
      <trkpt lat="46.1163" lon="4.39056">
        <ele>592.8</ele>
        <time>2025-09-08T11:34:23Z</time>
      </trkpt>
      <trkpt lat="46.11629" lon="4.39055">
        <ele>593</ele>
        <time>2025-09-08T11:34:24Z</time>
      </trkpt>
      <trkpt lat="46.11628" lon="4.39054">
        <ele>593.4</ele>
        <time>2025-09-08T11:34:25Z</time>
      </trkpt>
      <trkpt lat="46.11627" lon="4.39052">
        <ele>593.4</ele>
        <time>2025-09-08T11:34:26Z</time>
      </trkpt>
      <trkpt lat="46.11626" lon="4.39051">
        <ele>593.6</ele>
        <time>2025-09-08T11:34:27Z</time>
      </trkpt>
      <trkpt lat="46.11624" lon="4.39049">
        <ele>593.6</ele>
        <time>2025-09-08T11:34:28Z</time>
      </trkpt>
      <trkpt lat="46.11622" lon="4.39047">
        <ele>594.2</ele>
        <time>2025-09-08T11:34:29Z</time>
      </trkpt>
      <trkpt lat="46.11621" lon="4.39046">
        <ele>594.4</ele>
        <time>2025-09-08T11:34:30Z</time>
      </trkpt>
      <trkpt lat="46.1162" lon="4.39045">
        <ele>594.4</ele>
        <time>2025-09-08T11:34:31Z</time>
      </trkpt>
      <trkpt lat="46.11618" lon="4.39044">
        <ele>594.8</ele>
        <time>2025-09-08T11:34:32Z</time>
      </trkpt>
      <trkpt lat="46.11617" lon="4.39042">
        <ele>594.8</ele>
        <time>2025-09-08T11:34:33Z</time>
      </trkpt>
      <trkpt lat="46.11617" lon="4.3904">
        <ele>595</ele>
        <time>2025-09-08T11:34:34Z</time>
      </trkpt>
      <trkpt lat="46.11616" lon="4.39038">
        <ele>595</ele>
        <time>2025-09-08T11:34:35Z</time>
      </trkpt>
      <trkpt lat="46.11615" lon="4.39035">
        <ele>595.2</ele>
        <time>2025-09-08T11:34:36Z</time>
      </trkpt>
      <trkpt lat="46.11613" lon="4.39033">
        <ele>595.2</ele>
        <time>2025-09-08T11:34:37Z</time>
      </trkpt>
      <trkpt lat="46.11611" lon="4.39029">
        <ele>595.2</ele>
        <time>2025-09-08T11:34:38Z</time>
      </trkpt>
      <trkpt lat="46.11609" lon="4.39027">
        <ele>595.6</ele>
        <time>2025-09-08T11:34:39Z</time>
      </trkpt>
      <trkpt lat="46.11608" lon="4.39025">
        <ele>595.6</ele>
        <time>2025-09-08T11:34:40Z</time>
      </trkpt>
      <trkpt lat="46.11607" lon="4.39023">
        <ele>595.6</ele>
        <time>2025-09-08T11:34:41Z</time>
      </trkpt>
      <trkpt lat="46.11606" lon="4.39021">
        <ele>595.6</ele>
        <time>2025-09-08T11:34:42Z</time>
      </trkpt>
      <trkpt lat="46.11605" lon="4.3902">
        <ele>595.6</ele>
        <time>2025-09-08T11:34:43Z</time>
      </trkpt>
      <trkpt lat="46.11603" lon="4.39018">
        <ele>595.6</ele>
        <time>2025-09-08T11:34:44Z</time>
      </trkpt>
      <trkpt lat="46.11601" lon="4.39017">
        <ele>595.8</ele>
        <time>2025-09-08T11:34:45Z</time>
      </trkpt>
      <trkpt lat="46.116" lon="4.39015">
        <ele>595.8</ele>
        <time>2025-09-08T11:34:46Z</time>
      </trkpt>
      <trkpt lat="46.11598" lon="4.39013">
        <ele>595.8</ele>
        <time>2025-09-08T11:34:47Z</time>
      </trkpt>
      <trkpt lat="46.11597" lon="4.3901">
        <ele>595.6</ele>
        <time>2025-09-08T11:34:48Z</time>
      </trkpt>
      <trkpt lat="46.11596" lon="4.39008">
        <ele>595.8</ele>
        <time>2025-09-08T11:34:49Z</time>
      </trkpt>
      <trkpt lat="46.11595" lon="4.39006">
        <ele>596</ele>
        <time>2025-09-08T11:34:50Z</time>
      </trkpt>
      <trkpt lat="46.11593" lon="4.39003">
        <ele>596.2</ele>
        <time>2025-09-08T11:34:51Z</time>
      </trkpt>
      <trkpt lat="46.11592" lon="4.39">
        <ele>596.2</ele>
        <time>2025-09-08T11:34:52Z</time>
      </trkpt>
      <trkpt lat="46.1159" lon="4.38997">
        <ele>596.2</ele>
        <time>2025-09-08T11:34:53Z</time>
      </trkpt>
      <trkpt lat="46.1159" lon="4.38995">
        <ele>596.2</ele>
        <time>2025-09-08T11:34:54Z</time>
      </trkpt>
      <trkpt lat="46.11588" lon="4.38994">
        <ele>596.2</ele>
        <time>2025-09-08T11:34:55Z</time>
      </trkpt>
      <trkpt lat="46.11587" lon="4.38992">
        <ele>596.2</ele>
        <time>2025-09-08T11:34:56Z</time>
      </trkpt>
      <trkpt lat="46.11586" lon="4.38991">
        <ele>596.6</ele>
        <time>2025-09-08T11:34:57Z</time>
      </trkpt>
      <trkpt lat="46.11586" lon="4.38989">
        <ele>596.6</ele>
        <time>2025-09-08T11:34:58Z</time>
      </trkpt>
      <trkpt lat="46.11585" lon="4.38986">
        <ele>596.8</ele>
        <time>2025-09-08T11:34:59Z</time>
      </trkpt>
      <trkpt lat="46.11584" lon="4.38984">
        <ele>596.8</ele>
        <time>2025-09-08T11:35:00Z</time>
      </trkpt>
      <trkpt lat="46.11583" lon="4.38982">
        <ele>597.2</ele>
        <time>2025-09-08T11:35:01Z</time>
      </trkpt>
      <trkpt lat="46.11582" lon="4.38981">
        <ele>597.2</ele>
        <time>2025-09-08T11:35:02Z</time>
      </trkpt>
      <trkpt lat="46.11581" lon="4.38979">
        <ele>597.2</ele>
        <time>2025-09-08T11:35:03Z</time>
      </trkpt>
      <trkpt lat="46.1158" lon="4.38977">
        <ele>597.2</ele>
        <time>2025-09-08T11:35:04Z</time>
      </trkpt>
      <trkpt lat="46.11579" lon="4.38974">
        <ele>597.2</ele>
        <time>2025-09-08T11:35:05Z</time>
      </trkpt>
      <trkpt lat="46.11578" lon="4.38972">
        <ele>597.4</ele>
        <time>2025-09-08T11:35:06Z</time>
      </trkpt>
      <trkpt lat="46.11577" lon="4.3897">
        <ele>597.4</ele>
        <time>2025-09-08T11:35:07Z</time>
      </trkpt>
      <trkpt lat="46.11576" lon="4.38968">
        <ele>597.8</ele>
        <time>2025-09-08T11:35:08Z</time>
      </trkpt>
      <trkpt lat="46.11575" lon="4.38967">
        <ele>597.8</ele>
        <time>2025-09-08T11:35:09Z</time>
      </trkpt>
      <trkpt lat="46.11573" lon="4.38965">
        <ele>598</ele>
        <time>2025-09-08T11:35:10Z</time>
      </trkpt>
      <trkpt lat="46.11573" lon="4.38963">
        <ele>598</ele>
        <time>2025-09-08T11:35:11Z</time>
      </trkpt>
      <trkpt lat="46.11572" lon="4.38961">
        <ele>598</ele>
        <time>2025-09-08T11:35:12Z</time>
      </trkpt>
      <trkpt lat="46.11571" lon="4.38959">
        <ele>598.2</ele>
        <time>2025-09-08T11:35:13Z</time>
      </trkpt>
      <trkpt lat="46.11571" lon="4.38957">
        <ele>598.2</ele>
        <time>2025-09-08T11:35:14Z</time>
      </trkpt>
      <trkpt lat="46.1157" lon="4.38955">
        <ele>598.6</ele>
        <time>2025-09-08T11:35:15Z</time>
      </trkpt>
      <trkpt lat="46.11569" lon="4.38953">
        <ele>598.6</ele>
        <time>2025-09-08T11:35:16Z</time>
      </trkpt>
      <trkpt lat="46.11568" lon="4.38951">
        <ele>598.6</ele>
        <time>2025-09-08T11:35:17Z</time>
      </trkpt>
      <trkpt lat="46.11567" lon="4.38949">
        <ele>598.6</ele>
        <time>2025-09-08T11:35:18Z</time>
      </trkpt>
      <trkpt lat="46.11566" lon="4.38947">
        <ele>599</ele>
        <time>2025-09-08T11:35:19Z</time>
      </trkpt>
      <trkpt lat="46.11565" lon="4.38945">
        <ele>599.4</ele>
        <time>2025-09-08T11:35:20Z</time>
      </trkpt>
      <trkpt lat="46.11564" lon="4.38943">
        <ele>599.4</ele>
        <time>2025-09-08T11:35:21Z</time>
      </trkpt>
      <trkpt lat="46.11564" lon="4.3894">
        <ele>599.6</ele>
        <time>2025-09-08T11:35:22Z</time>
      </trkpt>
      <trkpt lat="46.11563" lon="4.38938">
        <ele>599.6</ele>
        <time>2025-09-08T11:35:23Z</time>
      </trkpt>
      <trkpt lat="46.11562" lon="4.38936">
        <ele>600</ele>
        <time>2025-09-08T11:35:24Z</time>
      </trkpt>
      <trkpt lat="46.11561" lon="4.38934">
        <ele>600</ele>
        <time>2025-09-08T11:35:25Z</time>
      </trkpt>
      <trkpt lat="46.11561" lon="4.38934">
        <ele>600.2</ele>
        <time>2025-09-08T11:35:26Z</time>
      </trkpt>
      <trkpt lat="46.1156" lon="4.38931">
        <ele>600.2</ele>
        <time>2025-09-08T11:35:27Z</time>
      </trkpt>
      <trkpt lat="46.11559" lon="4.38929">
        <ele>600.2</ele>
        <time>2025-09-08T11:35:28Z</time>
      </trkpt>
      <trkpt lat="46.11559" lon="4.38927">
        <ele>600.2</ele>
        <time>2025-09-08T11:35:29Z</time>
      </trkpt>
      <trkpt lat="46.11558" lon="4.38926">
        <ele>600.2</ele>
        <time>2025-09-08T11:35:30Z</time>
      </trkpt>
      <trkpt lat="46.11557" lon="4.38924">
        <ele>600.4</ele>
        <time>2025-09-08T11:35:31Z</time>
      </trkpt>
      <trkpt lat="46.11555" lon="4.38922">
        <ele>600.4</ele>
        <time>2025-09-08T11:35:32Z</time>
      </trkpt>
      <trkpt lat="46.11555" lon="4.3892">
        <ele>600.4</ele>
        <time>2025-09-08T11:35:33Z</time>
      </trkpt>
      <trkpt lat="46.11554" lon="4.38917">
        <ele>600.4</ele>
        <time>2025-09-08T11:35:34Z</time>
      </trkpt>
      <trkpt lat="46.11553" lon="4.38914">
        <ele>600.4</ele>
        <time>2025-09-08T11:35:35Z</time>
      </trkpt>
      <trkpt lat="46.11552" lon="4.38911">
        <ele>600.4</ele>
        <time>2025-09-08T11:35:36Z</time>
      </trkpt>
      <trkpt lat="46.11551" lon="4.38908">
        <ele>600.4</ele>
        <time>2025-09-08T11:35:37Z</time>
      </trkpt>
      <trkpt lat="46.1155" lon="4.38903">
        <ele>600.4</ele>
        <time>2025-09-08T11:35:38Z</time>
      </trkpt>
      <trkpt lat="46.11548" lon="4.38899">
        <ele>600.2</ele>
        <time>2025-09-08T11:35:39Z</time>
      </trkpt>
      <trkpt lat="46.11546" lon="4.38893">
        <ele>600</ele>
        <time>2025-09-08T11:35:40Z</time>
      </trkpt>
      <trkpt lat="46.11544" lon="4.38885">
        <ele>600</ele>
        <time>2025-09-08T11:35:41Z</time>
      </trkpt>
      <trkpt lat="46.11542" lon="4.38879">
        <ele>599.8</ele>
        <time>2025-09-08T11:35:42Z</time>
      </trkpt>
      <trkpt lat="46.11542" lon="4.38876">
        <ele>599.4</ele>
        <time>2025-09-08T11:35:43Z</time>
      </trkpt>
      <trkpt lat="46.11541" lon="4.38875">
        <ele>599.4</ele>
        <time>2025-09-08T11:35:44Z</time>
      </trkpt>
      <trkpt lat="46.1154" lon="4.38874">
        <ele>599.2</ele>
        <time>2025-09-08T11:35:45Z</time>
      </trkpt>
      <trkpt lat="46.11539" lon="4.38872">
        <ele>599.2</ele>
        <time>2025-09-08T11:35:46Z</time>
      </trkpt>
      <trkpt lat="46.11538" lon="4.3887">
        <ele>599.2</ele>
        <time>2025-09-08T11:35:47Z</time>
      </trkpt>
      <trkpt lat="46.11538" lon="4.3887">
        <ele>599.2</ele>
        <time>2025-09-08T11:35:48Z</time>
      </trkpt>
      <trkpt lat="46.11538" lon="4.38869">
        <ele>599</ele>
        <time>2025-09-08T11:35:49Z</time>
      </trkpt>
      <trkpt lat="46.11538" lon="4.38869">
        <ele>599</ele>
        <time>2025-09-08T11:35:50Z</time>
      </trkpt>
      <trkpt lat="46.1154" lon="4.38866">
        <ele>598.8</ele>
        <time>2025-09-08T11:37:14Z</time>
      </trkpt>
      <trkpt lat="46.1154" lon="4.38863">
        <ele>598.8</ele>
        <time>2025-09-08T11:37:15Z</time>
      </trkpt>
      <trkpt lat="46.1154" lon="4.38861">
        <ele>598.8</ele>
        <time>2025-09-08T11:37:16Z</time>
      </trkpt>
      <trkpt lat="46.1154" lon="4.38858">
        <ele>598.8</ele>
        <time>2025-09-08T11:37:17Z</time>
      </trkpt>
      <trkpt lat="46.11539" lon="4.38856">
        <ele>598.8</ele>
        <time>2025-09-08T11:37:18Z</time>
      </trkpt>
      <trkpt lat="46.11539" lon="4.38852">
        <ele>598.8</ele>
        <time>2025-09-08T11:37:19Z</time>
      </trkpt>
      <trkpt lat="46.11538" lon="4.38849">
        <ele>598.6</ele>
        <time>2025-09-08T11:37:20Z</time>
      </trkpt>
      <trkpt lat="46.11537" lon="4.38844">
        <ele>598.6</ele>
        <time>2025-09-08T11:37:21Z</time>
      </trkpt>
      <trkpt lat="46.11537" lon="4.3884">
        <ele>598.4</ele>
        <time>2025-09-08T11:37:22Z</time>
      </trkpt>
      <trkpt lat="46.11536" lon="4.38835">
        <ele>598.4</ele>
        <time>2025-09-08T11:37:23Z</time>
      </trkpt>
      <trkpt lat="46.11536" lon="4.38831">
        <ele>598.4</ele>
        <time>2025-09-08T11:37:24Z</time>
      </trkpt>
      <trkpt lat="46.11535" lon="4.38826">
        <ele>598.4</ele>
        <time>2025-09-08T11:37:25Z</time>
      </trkpt>
      <trkpt lat="46.11535" lon="4.38822">
        <ele>598.4</ele>
        <time>2025-09-08T11:37:26Z</time>
      </trkpt>
      <trkpt lat="46.11534" lon="4.38818">
        <ele>598.4</ele>
        <time>2025-09-08T11:37:27Z</time>
      </trkpt>
      <trkpt lat="46.11533" lon="4.38813">
        <ele>598.4</ele>
        <time>2025-09-08T11:37:28Z</time>
      </trkpt>
      <trkpt lat="46.11532" lon="4.38809">
        <ele>598.6</ele>
        <time>2025-09-08T11:37:29Z</time>
      </trkpt>
      <trkpt lat="46.11531" lon="4.38805">
        <ele>598.6</ele>
        <time>2025-09-08T11:37:30Z</time>
      </trkpt>
      <trkpt lat="46.1153" lon="4.388">
        <ele>598.6</ele>
        <time>2025-09-08T11:37:31Z</time>
      </trkpt>
      <trkpt lat="46.11529" lon="4.38796">
        <ele>598.8</ele>
        <time>2025-09-08T11:37:32Z</time>
      </trkpt>
      <trkpt lat="46.11528" lon="4.38792">
        <ele>598.8</ele>
        <time>2025-09-08T11:37:33Z</time>
      </trkpt>
      <trkpt lat="46.11528" lon="4.38788">
        <ele>599.2</ele>
        <time>2025-09-08T11:37:34Z</time>
      </trkpt>
      <trkpt lat="46.11527" lon="4.38784">
        <ele>599.6</ele>
        <time>2025-09-08T11:37:35Z</time>
      </trkpt>
      <trkpt lat="46.11527" lon="4.3878">
        <ele>599.6</ele>
        <time>2025-09-08T11:37:36Z</time>
      </trkpt>
      <trkpt lat="46.11527" lon="4.38777">
        <ele>599.6</ele>
        <time>2025-09-08T11:37:37Z</time>
      </trkpt>
      <trkpt lat="46.11527" lon="4.38774">
        <ele>599.8</ele>
        <time>2025-09-08T11:37:38Z</time>
      </trkpt>
      <trkpt lat="46.11527" lon="4.38772">
        <ele>600</ele>
        <time>2025-09-08T11:37:39Z</time>
      </trkpt>
      <trkpt lat="46.11527" lon="4.38769">
        <ele>600</ele>
        <time>2025-09-08T11:37:40Z</time>
      </trkpt>
      <trkpt lat="46.11527" lon="4.38767">
        <ele>600</ele>
        <time>2025-09-08T11:37:41Z</time>
      </trkpt>
      <trkpt lat="46.11527" lon="4.38765">
        <ele>600.6</ele>
        <time>2025-09-08T11:37:42Z</time>
      </trkpt>
      <trkpt lat="46.11527" lon="4.38763">
        <ele>600.8</ele>
        <time>2025-09-08T11:37:43Z</time>
      </trkpt>
      <trkpt lat="46.11527" lon="4.38761">
        <ele>601.2</ele>
        <time>2025-09-08T11:37:44Z</time>
      </trkpt>
      <trkpt lat="46.11527" lon="4.3876">
        <ele>601.6</ele>
        <time>2025-09-08T11:37:45Z</time>
      </trkpt>
      <trkpt lat="46.11527" lon="4.38758">
        <ele>601.6</ele>
        <time>2025-09-08T11:37:46Z</time>
      </trkpt>
      <trkpt lat="46.11527" lon="4.38756">
        <ele>601.6</ele>
        <time>2025-09-08T11:37:47Z</time>
      </trkpt>
      <trkpt lat="46.11527" lon="4.38755">
        <ele>602</ele>
        <time>2025-09-08T11:37:48Z</time>
      </trkpt>
      <trkpt lat="46.11527" lon="4.38753">
        <ele>602.2</ele>
        <time>2025-09-08T11:37:49Z</time>
      </trkpt>
      <trkpt lat="46.11527" lon="4.38751">
        <ele>602.4</ele>
        <time>2025-09-08T11:37:50Z</time>
      </trkpt>
      <trkpt lat="46.11527" lon="4.38749">
        <ele>602.6</ele>
        <time>2025-09-08T11:37:51Z</time>
      </trkpt>
      <trkpt lat="46.11527" lon="4.38747">
        <ele>602.8</ele>
        <time>2025-09-08T11:37:52Z</time>
      </trkpt>
      <trkpt lat="46.11526" lon="4.38746">
        <ele>602.8</ele>
        <time>2025-09-08T11:37:53Z</time>
      </trkpt>
      <trkpt lat="46.11526" lon="4.38744">
        <ele>603.4</ele>
        <time>2025-09-08T11:37:54Z</time>
      </trkpt>
      <trkpt lat="46.11526" lon="4.38742">
        <ele>603.4</ele>
        <time>2025-09-08T11:37:55Z</time>
      </trkpt>
      <trkpt lat="46.11526" lon="4.38741">
        <ele>603.6</ele>
        <time>2025-09-08T11:37:56Z</time>
      </trkpt>
      <trkpt lat="46.11526" lon="4.38739">
        <ele>603.6</ele>
        <time>2025-09-08T11:37:57Z</time>
      </trkpt>
      <trkpt lat="46.11526" lon="4.38737">
        <ele>604</ele>
        <time>2025-09-08T11:37:58Z</time>
      </trkpt>
      <trkpt lat="46.11526" lon="4.38735">
        <ele>604</ele>
        <time>2025-09-08T11:37:59Z</time>
      </trkpt>
      <trkpt lat="46.11526" lon="4.38734">
        <ele>604</ele>
        <time>2025-09-08T11:38:00Z</time>
      </trkpt>
      <trkpt lat="46.11526" lon="4.38732">
        <ele>604.4</ele>
        <time>2025-09-08T11:38:01Z</time>
      </trkpt>
      <trkpt lat="46.11526" lon="4.38731">
        <ele>604.4</ele>
        <time>2025-09-08T11:38:02Z</time>
      </trkpt>
      <trkpt lat="46.11527" lon="4.38729">
        <ele>604.8</ele>
        <time>2025-09-08T11:38:03Z</time>
      </trkpt>
      <trkpt lat="46.11526" lon="4.38728">
        <ele>604.8</ele>
        <time>2025-09-08T11:38:04Z</time>
      </trkpt>
      <trkpt lat="46.11526" lon="4.38726">
        <ele>605.2</ele>
        <time>2025-09-08T11:38:05Z</time>
      </trkpt>
      <trkpt lat="46.11526" lon="4.38724">
        <ele>605.2</ele>
        <time>2025-09-08T11:38:06Z</time>
      </trkpt>
      <trkpt lat="46.11526" lon="4.38723">
        <ele>605.6</ele>
        <time>2025-09-08T11:38:07Z</time>
      </trkpt>
      <trkpt lat="46.11526" lon="4.38721">
        <ele>605.8</ele>
        <time>2025-09-08T11:38:08Z</time>
      </trkpt>
      <trkpt lat="46.11526" lon="4.38718">
        <ele>606</ele>
        <time>2025-09-08T11:38:09Z</time>
      </trkpt>
      <trkpt lat="46.11526" lon="4.38717">
        <ele>606</ele>
        <time>2025-09-08T11:38:10Z</time>
      </trkpt>
      <trkpt lat="46.11526" lon="4.38715">
        <ele>606</ele>
        <time>2025-09-08T11:38:11Z</time>
      </trkpt>
      <trkpt lat="46.11526" lon="4.38714">
        <ele>606.2</ele>
        <time>2025-09-08T11:38:12Z</time>
      </trkpt>
      <trkpt lat="46.11526" lon="4.38712">
        <ele>606.6</ele>
        <time>2025-09-08T11:38:13Z</time>
      </trkpt>
      <trkpt lat="46.11526" lon="4.38711">
        <ele>606.6</ele>
        <time>2025-09-08T11:38:14Z</time>
      </trkpt>
      <trkpt lat="46.11525" lon="4.38709">
        <ele>606.8</ele>
        <time>2025-09-08T11:38:15Z</time>
      </trkpt>
      <trkpt lat="46.11525" lon="4.38707">
        <ele>606.8</ele>
        <time>2025-09-08T11:38:16Z</time>
      </trkpt>
      <trkpt lat="46.11525" lon="4.38706">
        <ele>607.2</ele>
        <time>2025-09-08T11:38:17Z</time>
      </trkpt>
      <trkpt lat="46.11525" lon="4.38704">
        <ele>607.2</ele>
        <time>2025-09-08T11:38:18Z</time>
      </trkpt>
      <trkpt lat="46.11524" lon="4.38703">
        <ele>607.4</ele>
        <time>2025-09-08T11:38:19Z</time>
      </trkpt>
      <trkpt lat="46.11524" lon="4.38701">
        <ele>607.8</ele>
        <time>2025-09-08T11:38:20Z</time>
      </trkpt>
      <trkpt lat="46.11524" lon="4.38699">
        <ele>607.8</ele>
        <time>2025-09-08T11:38:21Z</time>
      </trkpt>
      <trkpt lat="46.11524" lon="4.38698">
        <ele>608.2</ele>
        <time>2025-09-08T11:38:22Z</time>
      </trkpt>
      <trkpt lat="46.11524" lon="4.38697">
        <ele>608.2</ele>
        <time>2025-09-08T11:38:23Z</time>
      </trkpt>
      <trkpt lat="46.11524" lon="4.38695">
        <ele>608.4</ele>
        <time>2025-09-08T11:38:24Z</time>
      </trkpt>
      <trkpt lat="46.11524" lon="4.38694">
        <ele>608.8</ele>
        <time>2025-09-08T11:38:25Z</time>
      </trkpt>
      <trkpt lat="46.11524" lon="4.38692">
        <ele>608.8</ele>
        <time>2025-09-08T11:38:26Z</time>
      </trkpt>
      <trkpt lat="46.11525" lon="4.3869">
        <ele>609</ele>
        <time>2025-09-08T11:38:27Z</time>
      </trkpt>
      <trkpt lat="46.11525" lon="4.38689">
        <ele>609.2</ele>
        <time>2025-09-08T11:38:28Z</time>
      </trkpt>
      <trkpt lat="46.11525" lon="4.38688">
        <ele>609.6</ele>
        <time>2025-09-08T11:38:29Z</time>
      </trkpt>
      <trkpt lat="46.11525" lon="4.38687">
        <ele>609.6</ele>
        <time>2025-09-08T11:38:30Z</time>
      </trkpt>
      <trkpt lat="46.11525" lon="4.38685">
        <ele>609.8</ele>
        <time>2025-09-08T11:38:31Z</time>
      </trkpt>
      <trkpt lat="46.11525" lon="4.38684">
        <ele>609.8</ele>
        <time>2025-09-08T11:38:32Z</time>
      </trkpt>
      <trkpt lat="46.11525" lon="4.38682">
        <ele>610</ele>
        <time>2025-09-08T11:38:33Z</time>
      </trkpt>
      <trkpt lat="46.11525" lon="4.38681">
        <ele>610.4</ele>
        <time>2025-09-08T11:38:34Z</time>
      </trkpt>
      <trkpt lat="46.11525" lon="4.3868">
        <ele>610.6</ele>
        <time>2025-09-08T11:38:35Z</time>
      </trkpt>
      <trkpt lat="46.11525" lon="4.38678">
        <ele>610.6</ele>
        <time>2025-09-08T11:38:36Z</time>
      </trkpt>
      <trkpt lat="46.11525" lon="4.38677">
        <ele>610.8</ele>
        <time>2025-09-08T11:38:37Z</time>
      </trkpt>
      <trkpt lat="46.11525" lon="4.38676">
        <ele>611.2</ele>
        <time>2025-09-08T11:38:38Z</time>
      </trkpt>
      <trkpt lat="46.11525" lon="4.38675">
        <ele>611.2</ele>
        <time>2025-09-08T11:38:39Z</time>
      </trkpt>
      <trkpt lat="46.11524" lon="4.38673">
        <ele>611.4</ele>
        <time>2025-09-08T11:38:40Z</time>
      </trkpt>
      <trkpt lat="46.11524" lon="4.38672">
        <ele>611.4</ele>
        <time>2025-09-08T11:38:41Z</time>
      </trkpt>
      <trkpt lat="46.11524" lon="4.38671">
        <ele>612</ele>
        <time>2025-09-08T11:38:42Z</time>
      </trkpt>
      <trkpt lat="46.11524" lon="4.38669">
        <ele>612</ele>
        <time>2025-09-08T11:38:43Z</time>
      </trkpt>
      <trkpt lat="46.11524" lon="4.38668">
        <ele>612.4</ele>
        <time>2025-09-08T11:38:44Z</time>
      </trkpt>
      <trkpt lat="46.11525" lon="4.38667">
        <ele>612.4</ele>
        <time>2025-09-08T11:38:45Z</time>
      </trkpt>
      <trkpt lat="46.11525" lon="4.38666">
        <ele>612.6</ele>
        <time>2025-09-08T11:38:46Z</time>
      </trkpt>
      <trkpt lat="46.11525" lon="4.38664">
        <ele>612.6</ele>
        <time>2025-09-08T11:38:47Z</time>
      </trkpt>
      <trkpt lat="46.11526" lon="4.38663">
        <ele>613</ele>
        <time>2025-09-08T11:38:48Z</time>
      </trkpt>
      <trkpt lat="46.11525" lon="4.38661">
        <ele>613.2</ele>
        <time>2025-09-08T11:38:49Z</time>
      </trkpt>
      <trkpt lat="46.11525" lon="4.3866">
        <ele>613.2</ele>
        <time>2025-09-08T11:38:50Z</time>
      </trkpt>
      <trkpt lat="46.11525" lon="4.38659">
        <ele>613.2</ele>
        <time>2025-09-08T11:38:51Z</time>
      </trkpt>
      <trkpt lat="46.11525" lon="4.38658">
        <ele>613.6</ele>
        <time>2025-09-08T11:38:52Z</time>
      </trkpt>
      <trkpt lat="46.11525" lon="4.38656">
        <ele>613.6</ele>
        <time>2025-09-08T11:38:53Z</time>
      </trkpt>
      <trkpt lat="46.11525" lon="4.38654">
        <ele>614</ele>
        <time>2025-09-08T11:38:54Z</time>
      </trkpt>
      <trkpt lat="46.11525" lon="4.38653">
        <ele>614</ele>
        <time>2025-09-08T11:38:55Z</time>
      </trkpt>
      <trkpt lat="46.11525" lon="4.38652">
        <ele>614.2</ele>
        <time>2025-09-08T11:38:56Z</time>
      </trkpt>
      <trkpt lat="46.11525" lon="4.38652">
        <ele>614.2</ele>
        <time>2025-09-08T11:38:57Z</time>
      </trkpt>
      <trkpt lat="46.11524" lon="4.3865">
        <ele>614.2</ele>
        <time>2025-09-08T11:38:58Z</time>
      </trkpt>
      <trkpt lat="46.11523" lon="4.38648">
        <ele>614.2</ele>
        <time>2025-09-08T11:38:59Z</time>
      </trkpt>
      <trkpt lat="46.11523" lon="4.38647">
        <ele>614.4</ele>
        <time>2025-09-08T11:39:00Z</time>
      </trkpt>
      <trkpt lat="46.11523" lon="4.38646">
        <ele>614.6</ele>
        <time>2025-09-08T11:39:01Z</time>
      </trkpt>
      <trkpt lat="46.11524" lon="4.38644">
        <ele>614.6</ele>
        <time>2025-09-08T11:39:02Z</time>
      </trkpt>
      <trkpt lat="46.11524" lon="4.38642">
        <ele>615</ele>
        <time>2025-09-08T11:39:03Z</time>
      </trkpt>
      <trkpt lat="46.11523" lon="4.38641">
        <ele>615</ele>
        <time>2025-09-08T11:39:04Z</time>
      </trkpt>
      <trkpt lat="46.11523" lon="4.3864">
        <ele>615.4</ele>
        <time>2025-09-08T11:39:05Z</time>
      </trkpt>
      <trkpt lat="46.11522" lon="4.38639">
        <ele>615.4</ele>
        <time>2025-09-08T11:39:06Z</time>
      </trkpt>
      <trkpt lat="46.11523" lon="4.38637">
        <ele>615.8</ele>
        <time>2025-09-08T11:39:07Z</time>
      </trkpt>
      <trkpt lat="46.11523" lon="4.38635">
        <ele>615.8</ele>
        <time>2025-09-08T11:39:08Z</time>
      </trkpt>
      <trkpt lat="46.11524" lon="4.38634">
        <ele>616</ele>
        <time>2025-09-08T11:39:09Z</time>
      </trkpt>
      <trkpt lat="46.11524" lon="4.38633">
        <ele>616.2</ele>
        <time>2025-09-08T11:39:10Z</time>
      </trkpt>
      <trkpt lat="46.11524" lon="4.38632">
        <ele>616.2</ele>
        <time>2025-09-08T11:39:11Z</time>
      </trkpt>
      <trkpt lat="46.11524" lon="4.38631">
        <ele>616.6</ele>
        <time>2025-09-08T11:39:12Z</time>
      </trkpt>
      <trkpt lat="46.11524" lon="4.3863">
        <ele>616.8</ele>
        <time>2025-09-08T11:39:13Z</time>
      </trkpt>
      <trkpt lat="46.11523" lon="4.38628">
        <ele>617</ele>
        <time>2025-09-08T11:39:14Z</time>
      </trkpt>
      <trkpt lat="46.11523" lon="4.38627">
        <ele>617</ele>
        <time>2025-09-08T11:39:15Z</time>
      </trkpt>
      <trkpt lat="46.11522" lon="4.38626">
        <ele>617.4</ele>
        <time>2025-09-08T11:39:16Z</time>
      </trkpt>
      <trkpt lat="46.11521" lon="4.38625">
        <ele>617.4</ele>
        <time>2025-09-08T11:39:17Z</time>
      </trkpt>
      <trkpt lat="46.11519" lon="4.38624">
        <ele>617.8</ele>
        <time>2025-09-08T11:39:18Z</time>
      </trkpt>
      <trkpt lat="46.11518" lon="4.38624">
        <ele>617.8</ele>
        <time>2025-09-08T11:39:19Z</time>
      </trkpt>
      <trkpt lat="46.11517" lon="4.38623">
        <ele>618.2</ele>
        <time>2025-09-08T11:39:20Z</time>
      </trkpt>
      <trkpt lat="46.11516" lon="4.38623">
        <ele>618.2</ele>
        <time>2025-09-08T11:39:21Z</time>
      </trkpt>
      <trkpt lat="46.11516" lon="4.38624">
        <ele>618.2</ele>
        <time>2025-09-08T11:39:22Z</time>
      </trkpt>
      <trkpt lat="46.11515" lon="4.38624">
        <ele>619</ele>
        <time>2025-09-08T11:39:29Z</time>
      </trkpt>
      <trkpt lat="46.11514" lon="4.38623">
        <ele>618.6</ele>
        <time>2025-09-08T11:39:30Z</time>
      </trkpt>
      <trkpt lat="46.11512" lon="4.38622">
        <ele>618.4</ele>
        <time>2025-09-08T11:39:31Z</time>
      </trkpt>
      <trkpt lat="46.1151" lon="4.3862">
        <ele>618.2</ele>
        <time>2025-09-08T11:39:32Z</time>
      </trkpt>
      <trkpt lat="46.11509" lon="4.38619">
        <ele>618</ele>
        <time>2025-09-08T11:39:33Z</time>
      </trkpt>
      <trkpt lat="46.11502" lon="4.38618">
        <ele>617.8</ele>
        <time>2025-09-08T11:39:34Z</time>
      </trkpt>
      <trkpt lat="46.11497" lon="4.38618">
        <ele>617.4</ele>
        <time>2025-09-08T11:39:35Z</time>
      </trkpt>
      <trkpt lat="46.11493" lon="4.38617">
        <ele>617</ele>
        <time>2025-09-08T11:39:36Z</time>
      </trkpt>
      <trkpt lat="46.11488" lon="4.38615">
        <ele>616.8</ele>
        <time>2025-09-08T11:39:37Z</time>
      </trkpt>
      <trkpt lat="46.11484" lon="4.38613">
        <ele>616.2</ele>
        <time>2025-09-08T11:39:38Z</time>
      </trkpt>
      <trkpt lat="46.1148" lon="4.38611">
        <ele>615.6</ele>
        <time>2025-09-08T11:39:39Z</time>
      </trkpt>
      <trkpt lat="46.11476" lon="4.3861">
        <ele>615</ele>
        <time>2025-09-08T11:39:40Z</time>
      </trkpt>
      <trkpt lat="46.11473" lon="4.38608">
        <ele>614.6</ele>
        <time>2025-09-08T11:39:41Z</time>
      </trkpt>
      <trkpt lat="46.1147" lon="4.38607">
        <ele>614.2</ele>
        <time>2025-09-08T11:39:42Z</time>
      </trkpt>
      <trkpt lat="46.11467" lon="4.38605">
        <ele>613.8</ele>
        <time>2025-09-08T11:39:43Z</time>
      </trkpt>
      <trkpt lat="46.11465" lon="4.38602">
        <ele>613.2</ele>
        <time>2025-09-08T11:39:44Z</time>
      </trkpt>
      <trkpt lat="46.11462" lon="4.38598">
        <ele>612.8</ele>
        <time>2025-09-08T11:39:45Z</time>
      </trkpt>
      <trkpt lat="46.11461" lon="4.38594">
        <ele>612.2</ele>
        <time>2025-09-08T11:39:46Z</time>
      </trkpt>
      <trkpt lat="46.1146" lon="4.38589">
        <ele>611.8</ele>
        <time>2025-09-08T11:39:47Z</time>
      </trkpt>
      <trkpt lat="46.11459" lon="4.38587">
        <ele>611.4</ele>
        <time>2025-09-08T11:39:48Z</time>
      </trkpt>
      <trkpt lat="46.11458" lon="4.38582">
        <ele>610.8</ele>
        <time>2025-09-08T11:39:49Z</time>
      </trkpt>
      <trkpt lat="46.11458" lon="4.38576">
        <ele>610.6</ele>
        <time>2025-09-08T11:39:50Z</time>
      </trkpt>
      <trkpt lat="46.11457" lon="4.3857">
        <ele>610.4</ele>
        <time>2025-09-08T11:39:51Z</time>
      </trkpt>
      <trkpt lat="46.11458" lon="4.38562">
        <ele>610</ele>
        <time>2025-09-08T11:39:52Z</time>
      </trkpt>
      <trkpt lat="46.11458" lon="4.38555">
        <ele>609.6</ele>
        <time>2025-09-08T11:39:53Z</time>
      </trkpt>
      <trkpt lat="46.11457" lon="4.38547">
        <ele>609.4</ele>
        <time>2025-09-08T11:39:54Z</time>
      </trkpt>
      <trkpt lat="46.11456" lon="4.38539">
        <ele>609.2</ele>
        <time>2025-09-08T11:39:55Z</time>
      </trkpt>
      <trkpt lat="46.11454" lon="4.38534">
        <ele>608.6</ele>
        <time>2025-09-08T11:39:56Z</time>
      </trkpt>
      <trkpt lat="46.11448" lon="4.38529">
        <ele>608.6</ele>
        <time>2025-09-08T11:39:57Z</time>
      </trkpt>
      <trkpt lat="46.11443" lon="4.38527">
        <ele>608.4</ele>
        <time>2025-09-08T11:39:58Z</time>
      </trkpt>
      <trkpt lat="46.11438" lon="4.38527">
        <ele>608.4</ele>
        <time>2025-09-08T11:39:59Z</time>
      </trkpt>
      <trkpt lat="46.11433" lon="4.38532">
        <ele>608.4</ele>
        <time>2025-09-08T11:40:00Z</time>
      </trkpt>
      <trkpt lat="46.11428" lon="4.38532">
        <ele>608.6</ele>
        <time>2025-09-08T11:40:01Z</time>
      </trkpt>
      <trkpt lat="46.11427" lon="4.3854">
        <ele>608.6</ele>
        <time>2025-09-08T11:40:02Z</time>
      </trkpt>
      <trkpt lat="46.11425" lon="4.38544">
        <ele>609</ele>
        <time>2025-09-08T11:40:03Z</time>
      </trkpt>
      <trkpt lat="46.11422" lon="4.38549">
        <ele>609</ele>
        <time>2025-09-08T11:40:04Z</time>
      </trkpt>
      <trkpt lat="46.1142" lon="4.38555">
        <ele>609</ele>
        <time>2025-09-08T11:40:05Z</time>
      </trkpt>
      <trkpt lat="46.11418" lon="4.38561">
        <ele>609.2</ele>
        <time>2025-09-08T11:40:06Z</time>
      </trkpt>
      <trkpt lat="46.11415" lon="4.38567">
        <ele>609.2</ele>
        <time>2025-09-08T11:40:07Z</time>
      </trkpt>
      <trkpt lat="46.11413" lon="4.38573">
        <ele>609.6</ele>
        <time>2025-09-08T11:40:08Z</time>
      </trkpt>
      <trkpt lat="46.11411" lon="4.38579">
        <ele>609.6</ele>
        <time>2025-09-08T11:40:09Z</time>
      </trkpt>
      <trkpt lat="46.11409" lon="4.38586">
        <ele>609.6</ele>
        <time>2025-09-08T11:40:10Z</time>
      </trkpt>
      <trkpt lat="46.11406" lon="4.38593">
        <ele>609.4</ele>
        <time>2025-09-08T11:40:11Z</time>
      </trkpt>
      <trkpt lat="46.11403" lon="4.386">
        <ele>609.4</ele>
        <time>2025-09-08T11:40:12Z</time>
      </trkpt>
      <trkpt lat="46.114" lon="4.38606">
        <ele>609.4</ele>
        <time>2025-09-08T11:40:13Z</time>
      </trkpt>
      <trkpt lat="46.11397" lon="4.38612">
        <ele>609</ele>
        <time>2025-09-08T11:40:14Z</time>
      </trkpt>
      <trkpt lat="46.11395" lon="4.38619">
        <ele>609</ele>
        <time>2025-09-08T11:40:15Z</time>
      </trkpt>
      <trkpt lat="46.11392" lon="4.38625">
        <ele>609</ele>
        <time>2025-09-08T11:40:16Z</time>
      </trkpt>
      <trkpt lat="46.1139" lon="4.38631">
        <ele>609.4</ele>
        <time>2025-09-08T11:40:17Z</time>
      </trkpt>
      <trkpt lat="46.11387" lon="4.38636">
        <ele>609.8</ele>
        <time>2025-09-08T11:40:18Z</time>
      </trkpt>
      <trkpt lat="46.11384" lon="4.3864">
        <ele>609.8</ele>
        <time>2025-09-08T11:40:19Z</time>
      </trkpt>
      <trkpt lat="46.11381" lon="4.38645">
        <ele>609.8</ele>
        <time>2025-09-08T11:40:20Z</time>
      </trkpt>
      <trkpt lat="46.11379" lon="4.3865">
        <ele>609.8</ele>
        <time>2025-09-08T11:40:21Z</time>
      </trkpt>
      <trkpt lat="46.11377" lon="4.38654">
        <ele>609.8</ele>
        <time>2025-09-08T11:40:22Z</time>
      </trkpt>
      <trkpt lat="46.11374" lon="4.38659">
        <ele>610.2</ele>
        <time>2025-09-08T11:40:23Z</time>
      </trkpt>
      <trkpt lat="46.11372" lon="4.38663">
        <ele>610.2</ele>
        <time>2025-09-08T11:40:24Z</time>
      </trkpt>
      <trkpt lat="46.1137" lon="4.38667">
        <ele>610.2</ele>
        <time>2025-09-08T11:40:25Z</time>
      </trkpt>
      <trkpt lat="46.11368" lon="4.38671">
        <ele>610.8</ele>
        <time>2025-09-08T11:40:26Z</time>
      </trkpt>
      <trkpt lat="46.11366" lon="4.38675">
        <ele>610.8</ele>
        <time>2025-09-08T11:40:27Z</time>
      </trkpt>
      <trkpt lat="46.11364" lon="4.38678">
        <ele>610.8</ele>
        <time>2025-09-08T11:40:28Z</time>
      </trkpt>
      <trkpt lat="46.11362" lon="4.38681">
        <ele>611</ele>
        <time>2025-09-08T11:40:29Z</time>
      </trkpt>
      <trkpt lat="46.1136" lon="4.38684">
        <ele>611</ele>
        <time>2025-09-08T11:40:30Z</time>
      </trkpt>
      <trkpt lat="46.11358" lon="4.38687">
        <ele>611</ele>
        <time>2025-09-08T11:40:31Z</time>
      </trkpt>
      <trkpt lat="46.11356" lon="4.38691">
        <ele>611</ele>
        <time>2025-09-08T11:40:32Z</time>
      </trkpt>
      <trkpt lat="46.11353" lon="4.38694">
        <ele>611</ele>
        <time>2025-09-08T11:40:33Z</time>
      </trkpt>
      <trkpt lat="46.1135" lon="4.38697">
        <ele>611</ele>
        <time>2025-09-08T11:40:34Z</time>
      </trkpt>
      <trkpt lat="46.11347" lon="4.38701">
        <ele>610.6</ele>
        <time>2025-09-08T11:40:35Z</time>
      </trkpt>
      <trkpt lat="46.11342" lon="4.38705">
        <ele>610.4</ele>
        <time>2025-09-08T11:40:36Z</time>
      </trkpt>
      <trkpt lat="46.11337" lon="4.38708">
        <ele>610.4</ele>
        <time>2025-09-08T11:40:37Z</time>
      </trkpt>
      <trkpt lat="46.11332" lon="4.3871">
        <ele>610.4</ele>
        <time>2025-09-08T11:40:38Z</time>
      </trkpt>
      <trkpt lat="46.11329" lon="4.38711">
        <ele>610.4</ele>
        <time>2025-09-08T11:40:39Z</time>
      </trkpt>
      <trkpt lat="46.11325" lon="4.38712">
        <ele>610.4</ele>
        <time>2025-09-08T11:40:40Z</time>
      </trkpt>
      <trkpt lat="46.11322" lon="4.38713">
        <ele>610.2</ele>
        <time>2025-09-08T11:40:41Z</time>
      </trkpt>
      <trkpt lat="46.11319" lon="4.38714">
        <ele>610</ele>
        <time>2025-09-08T11:40:42Z</time>
      </trkpt>
      <trkpt lat="46.11313" lon="4.38713">
        <ele>609.8</ele>
        <time>2025-09-08T11:40:43Z</time>
      </trkpt>
      <trkpt lat="46.11309" lon="4.38714">
        <ele>609.8</ele>
        <time>2025-09-08T11:40:44Z</time>
      </trkpt>
      <trkpt lat="46.11304" lon="4.38713">
        <ele>609.4</ele>
        <time>2025-09-08T11:40:45Z</time>
      </trkpt>
      <trkpt lat="46.113" lon="4.38714">
        <ele>609.4</ele>
        <time>2025-09-08T11:40:46Z</time>
      </trkpt>
      <trkpt lat="46.11297" lon="4.38714">
        <ele>609</ele>
        <time>2025-09-08T11:40:47Z</time>
      </trkpt>
      <trkpt lat="46.11294" lon="4.38713">
        <ele>609</ele>
        <time>2025-09-08T11:40:48Z</time>
      </trkpt>
      <trkpt lat="46.1129" lon="4.38714">
        <ele>609</ele>
        <time>2025-09-08T11:40:49Z</time>
      </trkpt>
      <trkpt lat="46.11286" lon="4.38716">
        <ele>608.8</ele>
        <time>2025-09-08T11:40:50Z</time>
      </trkpt>
      <trkpt lat="46.1128" lon="4.38716">
        <ele>607.6</ele>
        <time>2025-09-08T11:40:51Z</time>
      </trkpt>
      <trkpt lat="46.11273" lon="4.38717">
        <ele>606.8</ele>
        <time>2025-09-08T11:40:52Z</time>
      </trkpt>
      <trkpt lat="46.11266" lon="4.38718">
        <ele>606.2</ele>
        <time>2025-09-08T11:40:53Z</time>
      </trkpt>
      <trkpt lat="46.11259" lon="4.38719">
        <ele>605.6</ele>
        <time>2025-09-08T11:40:54Z</time>
      </trkpt>
      <trkpt lat="46.11251" lon="4.38719">
        <ele>604.8</ele>
        <time>2025-09-08T11:40:55Z</time>
      </trkpt>
      <trkpt lat="46.11243" lon="4.3872">
        <ele>604</ele>
        <time>2025-09-08T11:40:56Z</time>
      </trkpt>
      <trkpt lat="46.11236" lon="4.3872">
        <ele>603.2</ele>
        <time>2025-09-08T11:40:57Z</time>
      </trkpt>
      <trkpt lat="46.11228" lon="4.3872">
        <ele>602.6</ele>
        <time>2025-09-08T11:40:58Z</time>
      </trkpt>
      <trkpt lat="46.1122" lon="4.38719">
        <ele>602</ele>
        <time>2025-09-08T11:40:59Z</time>
      </trkpt>
      <trkpt lat="46.11211" lon="4.38719">
        <ele>601.6</ele>
        <time>2025-09-08T11:41:00Z</time>
      </trkpt>
      <trkpt lat="46.11204" lon="4.38718">
        <ele>600.8</ele>
        <time>2025-09-08T11:41:01Z</time>
      </trkpt>
      <trkpt lat="46.11195" lon="4.38716">
        <ele>600.6</ele>
        <time>2025-09-08T11:41:02Z</time>
      </trkpt>
      <trkpt lat="46.11187" lon="4.38714">
        <ele>599.6</ele>
        <time>2025-09-08T11:41:03Z</time>
      </trkpt>
      <trkpt lat="46.11179" lon="4.38713">
        <ele>599.2</ele>
        <time>2025-09-08T11:41:04Z</time>
      </trkpt>
      <trkpt lat="46.11171" lon="4.38712">
        <ele>598.4</ele>
        <time>2025-09-08T11:41:05Z</time>
      </trkpt>
      <trkpt lat="46.11163" lon="4.3871">
        <ele>597.8</ele>
        <time>2025-09-08T11:41:06Z</time>
      </trkpt>
      <trkpt lat="46.11155" lon="4.38708">
        <ele>596.8</ele>
        <time>2025-09-08T11:41:07Z</time>
      </trkpt>
      <trkpt lat="46.11149" lon="4.38704">
        <ele>596</ele>
        <time>2025-09-08T11:41:08Z</time>
      </trkpt>
      <trkpt lat="46.11142" lon="4.38702">
        <ele>595</ele>
        <time>2025-09-08T11:41:09Z</time>
      </trkpt>
      <trkpt lat="46.11136" lon="4.38701">
        <ele>594.2</ele>
        <time>2025-09-08T11:41:10Z</time>
      </trkpt>
      <trkpt lat="46.11129" lon="4.38698">
        <ele>593.4</ele>
        <time>2025-09-08T11:41:11Z</time>
      </trkpt>
      <trkpt lat="46.11123" lon="4.38696">
        <ele>592.8</ele>
        <time>2025-09-08T11:41:12Z</time>
      </trkpt>
      <trkpt lat="46.11116" lon="4.38694">
        <ele>592.2</ele>
        <time>2025-09-08T11:41:13Z</time>
      </trkpt>
      <trkpt lat="46.11108" lon="4.38692">
        <ele>591.6</ele>
        <time>2025-09-08T11:41:14Z</time>
      </trkpt>
      <trkpt lat="46.11099" lon="4.3869">
        <ele>591</ele>
        <time>2025-09-08T11:41:15Z</time>
      </trkpt>
      <trkpt lat="46.11092" lon="4.38688">
        <ele>590.4</ele>
        <time>2025-09-08T11:41:16Z</time>
      </trkpt>
      <trkpt lat="46.11084" lon="4.38687">
        <ele>589.8</ele>
        <time>2025-09-08T11:41:17Z</time>
      </trkpt>
      <trkpt lat="46.11074" lon="4.38685">
        <ele>589.2</ele>
        <time>2025-09-08T11:41:18Z</time>
      </trkpt>
      <trkpt lat="46.11066" lon="4.38685">
        <ele>588.8</ele>
        <time>2025-09-08T11:41:19Z</time>
      </trkpt>
      <trkpt lat="46.11048" lon="4.38686">
        <ele>588.4</ele>
        <time>2025-09-08T11:41:20Z</time>
      </trkpt>
      <trkpt lat="46.1104" lon="4.38687">
        <ele>588</ele>
        <time>2025-09-08T11:41:21Z</time>
      </trkpt>
      <trkpt lat="46.11033" lon="4.38689">
        <ele>587.8</ele>
        <time>2025-09-08T11:41:22Z</time>
      </trkpt>
      <trkpt lat="46.11024" lon="4.38693">
        <ele>587.8</ele>
        <time>2025-09-08T11:41:23Z</time>
      </trkpt>
      <trkpt lat="46.11017" lon="4.38695">
        <ele>587.2</ele>
        <time>2025-09-08T11:41:24Z</time>
      </trkpt>
      <trkpt lat="46.11009" lon="4.38698">
        <ele>587.2</ele>
        <time>2025-09-08T11:41:25Z</time>
      </trkpt>
      <trkpt lat="46.11" lon="4.387">
        <ele>586.6</ele>
        <time>2025-09-08T11:41:26Z</time>
      </trkpt>
      <trkpt lat="46.10991" lon="4.38702">
        <ele>586.2</ele>
        <time>2025-09-08T11:41:27Z</time>
      </trkpt>
      <trkpt lat="46.10984" lon="4.38702">
        <ele>586.2</ele>
        <time>2025-09-08T11:41:28Z</time>
      </trkpt>
      <trkpt lat="46.10977" lon="4.38703">
        <ele>585.6</ele>
        <time>2025-09-08T11:41:29Z</time>
      </trkpt>
      <trkpt lat="46.10971" lon="4.38702">
        <ele>585.6</ele>
        <time>2025-09-08T11:41:30Z</time>
      </trkpt>
      <trkpt lat="46.10965" lon="4.38699">
        <ele>585.2</ele>
        <time>2025-09-08T11:41:31Z</time>
      </trkpt>
      <trkpt lat="46.1096" lon="4.38699">
        <ele>584.8</ele>
        <time>2025-09-08T11:41:32Z</time>
      </trkpt>
      <trkpt lat="46.10956" lon="4.38699">
        <ele>584.2</ele>
        <time>2025-09-08T11:41:33Z</time>
      </trkpt>
      <trkpt lat="46.10954" lon="4.387">
        <ele>583.6</ele>
        <time>2025-09-08T11:41:34Z</time>
      </trkpt>
      <trkpt lat="46.10952" lon="4.38702">
        <ele>583.2</ele>
        <time>2025-09-08T11:41:35Z</time>
      </trkpt>
      <trkpt lat="46.1095" lon="4.38706">
        <ele>582.6</ele>
        <time>2025-09-08T11:41:36Z</time>
      </trkpt>
      <trkpt lat="46.10948" lon="4.3871">
        <ele>582.4</ele>
        <time>2025-09-08T11:41:37Z</time>
      </trkpt>
      <trkpt lat="46.10948" lon="4.38719">
        <ele>581.6</ele>
        <time>2025-09-08T11:41:38Z</time>
      </trkpt>
      <trkpt lat="46.10947" lon="4.38725">
        <ele>581.6</ele>
        <time>2025-09-08T11:41:39Z</time>
      </trkpt>
      <trkpt lat="46.10946" lon="4.38733">
        <ele>581.6</ele>
        <time>2025-09-08T11:41:40Z</time>
      </trkpt>
      <trkpt lat="46.10944" lon="4.38739">
        <ele>581.4</ele>
        <time>2025-09-08T11:41:41Z</time>
      </trkpt>
      <trkpt lat="46.10942" lon="4.38745">
        <ele>581</ele>
        <time>2025-09-08T11:41:42Z</time>
      </trkpt>
      <trkpt lat="46.1094" lon="4.38751">
        <ele>580.8</ele>
        <time>2025-09-08T11:41:43Z</time>
      </trkpt>
      <trkpt lat="46.10938" lon="4.38755">
        <ele>580.8</ele>
        <time>2025-09-08T11:41:44Z</time>
      </trkpt>
      <trkpt lat="46.10935" lon="4.3876">
        <ele>580.4</ele>
        <time>2025-09-08T11:41:45Z</time>
      </trkpt>
      <trkpt lat="46.10933" lon="4.38765">
        <ele>580.4</ele>
        <time>2025-09-08T11:41:46Z</time>
      </trkpt>
      <trkpt lat="46.1093" lon="4.38769">
        <ele>580.2</ele>
        <time>2025-09-08T11:41:47Z</time>
      </trkpt>
      <trkpt lat="46.10928" lon="4.38773">
        <ele>580.2</ele>
        <time>2025-09-08T11:41:48Z</time>
      </trkpt>
      <trkpt lat="46.10926" lon="4.38777">
        <ele>579.8</ele>
        <time>2025-09-08T11:41:49Z</time>
      </trkpt>
      <trkpt lat="46.10925" lon="4.38781">
        <ele>579.6</ele>
        <time>2025-09-08T11:41:50Z</time>
      </trkpt>
      <trkpt lat="46.10923" lon="4.38784">
        <ele>579.4</ele>
        <time>2025-09-08T11:41:51Z</time>
      </trkpt>
      <trkpt lat="46.10922" lon="4.38787">
        <ele>579.4</ele>
        <time>2025-09-08T11:41:52Z</time>
      </trkpt>
      <trkpt lat="46.1092" lon="4.3879">
        <ele>579.2</ele>
        <time>2025-09-08T11:41:53Z</time>
      </trkpt>
      <trkpt lat="46.1092" lon="4.38793">
        <ele>579.2</ele>
        <time>2025-09-08T11:41:54Z</time>
      </trkpt>
      <trkpt lat="46.10919" lon="4.38797">
        <ele>579.2</ele>
        <time>2025-09-08T11:41:55Z</time>
      </trkpt>
      <trkpt lat="46.10918" lon="4.38801">
        <ele>578.8</ele>
        <time>2025-09-08T11:41:56Z</time>
      </trkpt>
      <trkpt lat="46.10916" lon="4.38806">
        <ele>578.4</ele>
        <time>2025-09-08T11:41:57Z</time>
      </trkpt>
      <trkpt lat="46.10912" lon="4.38811">
        <ele>578</ele>
        <time>2025-09-08T11:41:58Z</time>
      </trkpt>
      <trkpt lat="46.1091" lon="4.38818">
        <ele>578</ele>
        <time>2025-09-08T11:41:59Z</time>
      </trkpt>
      <trkpt lat="46.10907" lon="4.38824">
        <ele>577.6</ele>
        <time>2025-09-08T11:42:00Z</time>
      </trkpt>
      <trkpt lat="46.10905" lon="4.3883">
        <ele>577.2</ele>
        <time>2025-09-08T11:42:01Z</time>
      </trkpt>
      <trkpt lat="46.109" lon="4.38835">
        <ele>577</ele>
        <time>2025-09-08T11:42:02Z</time>
      </trkpt>
      <trkpt lat="46.10896" lon="4.38839">
        <ele>576.8</ele>
        <time>2025-09-08T11:42:03Z</time>
      </trkpt>
      <trkpt lat="46.10891" lon="4.38842">
        <ele>576.4</ele>
        <time>2025-09-08T11:42:04Z</time>
      </trkpt>
      <trkpt lat="46.10887" lon="4.38844">
        <ele>576.4</ele>
        <time>2025-09-08T11:42:05Z</time>
      </trkpt>
      <trkpt lat="46.10883" lon="4.38846">
        <ele>576.4</ele>
        <time>2025-09-08T11:42:06Z</time>
      </trkpt>
      <trkpt lat="46.1088" lon="4.38848">
        <ele>576.2</ele>
        <time>2025-09-08T11:42:07Z</time>
      </trkpt>
      <trkpt lat="46.10875" lon="4.38849">
        <ele>576.2</ele>
        <time>2025-09-08T11:42:08Z</time>
      </trkpt>
      <trkpt lat="46.1087" lon="4.38851">
        <ele>576.2</ele>
        <time>2025-09-08T11:42:09Z</time>
      </trkpt>
      <trkpt lat="46.1087" lon="4.38851">
        <ele>576.2</ele>
        <time>2025-09-08T11:42:10Z</time>
      </trkpt>
      <trkpt lat="46.10865" lon="4.38853">
        <ele>576.2</ele>
        <time>2025-09-08T11:42:11Z</time>
      </trkpt>
      <trkpt lat="46.10861" lon="4.38852">
        <ele>576.2</ele>
        <time>2025-09-08T11:42:12Z</time>
      </trkpt>
      <trkpt lat="46.10857" lon="4.3885">
        <ele>576.2</ele>
        <time>2025-09-08T11:42:13Z</time>
      </trkpt>
      <trkpt lat="46.10854" lon="4.38848">
        <ele>576.2</ele>
        <time>2025-09-08T11:42:14Z</time>
      </trkpt>
      <trkpt lat="46.10851" lon="4.38846">
        <ele>576.4</ele>
        <time>2025-09-08T11:42:15Z</time>
      </trkpt>
      <trkpt lat="46.10849" lon="4.38845">
        <ele>576.6</ele>
        <time>2025-09-08T11:42:16Z</time>
      </trkpt>
      <trkpt lat="46.10845" lon="4.38843">
        <ele>577.2</ele>
        <time>2025-09-08T11:42:17Z</time>
      </trkpt>
      <trkpt lat="46.10843" lon="4.38841">
        <ele>577.6</ele>
        <time>2025-09-08T11:42:18Z</time>
      </trkpt>
      <trkpt lat="46.10842" lon="4.38842">
        <ele>577.8</ele>
        <time>2025-09-08T11:42:19Z</time>
      </trkpt>
      <trkpt lat="46.10839" lon="4.3884">
        <ele>577.8</ele>
        <time>2025-09-08T11:42:20Z</time>
      </trkpt>
      <trkpt lat="46.10836" lon="4.38839">
        <ele>578.2</ele>
        <time>2025-09-08T11:42:21Z</time>
      </trkpt>
      <trkpt lat="46.10834" lon="4.38839">
        <ele>578.4</ele>
        <time>2025-09-08T11:42:22Z</time>
      </trkpt>
      <trkpt lat="46.10832" lon="4.38839">
        <ele>578.4</ele>
        <time>2025-09-08T11:42:23Z</time>
      </trkpt>
      <trkpt lat="46.1083" lon="4.38838">
        <ele>578.4</ele>
        <time>2025-09-08T11:42:24Z</time>
      </trkpt>
      <trkpt lat="46.10828" lon="4.38838">
        <ele>578.8</ele>
        <time>2025-09-08T11:42:25Z</time>
      </trkpt>
      <trkpt lat="46.10825" lon="4.38837">
        <ele>578.8</ele>
        <time>2025-09-08T11:42:26Z</time>
      </trkpt>
      <trkpt lat="46.10823" lon="4.38837">
        <ele>579.2</ele>
        <time>2025-09-08T11:42:27Z</time>
      </trkpt>
      <trkpt lat="46.10821" lon="4.38836">
        <ele>579.4</ele>
        <time>2025-09-08T11:42:28Z</time>
      </trkpt>
      <trkpt lat="46.10818" lon="4.38835">
        <ele>579.4</ele>
        <time>2025-09-08T11:42:29Z</time>
      </trkpt>
      <trkpt lat="46.10817" lon="4.38834">
        <ele>579.8</ele>
        <time>2025-09-08T11:42:30Z</time>
      </trkpt>
      <trkpt lat="46.10815" lon="4.38834">
        <ele>579.8</ele>
        <time>2025-09-08T11:42:31Z</time>
      </trkpt>
      <trkpt lat="46.10813" lon="4.38834">
        <ele>579.8</ele>
        <time>2025-09-08T11:42:32Z</time>
      </trkpt>
      <trkpt lat="46.10811" lon="4.38835">
        <ele>580.2</ele>
        <time>2025-09-08T11:42:33Z</time>
      </trkpt>
      <trkpt lat="46.10809" lon="4.38836">
        <ele>580.2</ele>
        <time>2025-09-08T11:42:34Z</time>
      </trkpt>
      <trkpt lat="46.10807" lon="4.38836">
        <ele>580.2</ele>
        <time>2025-09-08T11:42:35Z</time>
      </trkpt>
      <trkpt lat="46.10806" lon="4.38837">
        <ele>580.4</ele>
        <time>2025-09-08T11:42:36Z</time>
      </trkpt>
      <trkpt lat="46.10804" lon="4.38838">
        <ele>580.6</ele>
        <time>2025-09-08T11:42:37Z</time>
      </trkpt>
      <trkpt lat="46.10802" lon="4.38839">
        <ele>580.6</ele>
        <time>2025-09-08T11:42:38Z</time>
      </trkpt>
      <trkpt lat="46.10801" lon="4.38839">
        <ele>580.6</ele>
        <time>2025-09-08T11:42:39Z</time>
      </trkpt>
      <trkpt lat="46.108" lon="4.3884">
        <ele>580.6</ele>
        <time>2025-09-08T11:42:40Z</time>
      </trkpt>
      <trkpt lat="46.108" lon="4.3884">
        <ele>580.8</ele>
        <time>2025-09-08T11:42:41Z</time>
      </trkpt>
      <trkpt lat="46.10799" lon="4.3884">
        <ele>580.8</ele>
        <time>2025-09-08T11:42:42Z</time>
      </trkpt>
      <trkpt lat="46.10798" lon="4.3884">
        <ele>581.2</ele>
        <time>2025-09-08T11:43:00Z</time>
      </trkpt>
      <trkpt lat="46.10796" lon="4.38839">
        <ele>581.2</ele>
        <time>2025-09-08T11:43:01Z</time>
      </trkpt>
      <trkpt lat="46.10794" lon="4.38838">
        <ele>581.2</ele>
        <time>2025-09-08T11:43:02Z</time>
      </trkpt>
      <trkpt lat="46.10792" lon="4.38837">
        <ele>581.2</ele>
        <time>2025-09-08T11:43:03Z</time>
      </trkpt>
      <trkpt lat="46.10789" lon="4.38837">
        <ele>581.2</ele>
        <time>2025-09-08T11:43:04Z</time>
      </trkpt>
      <trkpt lat="46.10787" lon="4.38838">
        <ele>581.2</ele>
        <time>2025-09-08T11:43:05Z</time>
      </trkpt>
      <trkpt lat="46.10783" lon="4.38839">
        <ele>581.2</ele>
        <time>2025-09-08T11:43:06Z</time>
      </trkpt>
      <trkpt lat="46.10781" lon="4.38841">
        <ele>581.2</ele>
        <time>2025-09-08T11:43:07Z</time>
      </trkpt>
      <trkpt lat="46.10778" lon="4.38843">
        <ele>582</ele>
        <time>2025-09-08T11:43:08Z</time>
      </trkpt>
      <trkpt lat="46.10775" lon="4.38844">
        <ele>582</ele>
        <time>2025-09-08T11:43:09Z</time>
      </trkpt>
      <trkpt lat="46.10773" lon="4.38846">
        <ele>581.8</ele>
        <time>2025-09-08T11:43:10Z</time>
      </trkpt>
      <trkpt lat="46.1077" lon="4.38847">
        <ele>581.8</ele>
        <time>2025-09-08T11:43:11Z</time>
      </trkpt>
      <trkpt lat="46.10766" lon="4.38847">
        <ele>581.4</ele>
        <time>2025-09-08T11:43:12Z</time>
      </trkpt>
      <trkpt lat="46.10762" lon="4.38847">
        <ele>581.4</ele>
        <time>2025-09-08T11:43:13Z</time>
      </trkpt>
      <trkpt lat="46.10758" lon="4.38848">
        <ele>581</ele>
        <time>2025-09-08T11:43:14Z</time>
      </trkpt>
      <trkpt lat="46.10753" lon="4.38849">
        <ele>580.8</ele>
        <time>2025-09-08T11:43:15Z</time>
      </trkpt>
      <trkpt lat="46.10748" lon="4.3885">
        <ele>580.8</ele>
        <time>2025-09-08T11:43:16Z</time>
      </trkpt>
      <trkpt lat="46.10744" lon="4.38849">
        <ele>580.8</ele>
        <time>2025-09-08T11:43:17Z</time>
      </trkpt>
      <trkpt lat="46.10738" lon="4.38849">
        <ele>580.4</ele>
        <time>2025-09-08T11:43:18Z</time>
      </trkpt>
      <trkpt lat="46.10733" lon="4.38849">
        <ele>580.2</ele>
        <time>2025-09-08T11:43:19Z</time>
      </trkpt>
      <trkpt lat="46.10727" lon="4.3885">
        <ele>580.2</ele>
        <time>2025-09-08T11:43:20Z</time>
      </trkpt>
      <trkpt lat="46.10721" lon="4.3885">
        <ele>579.8</ele>
        <time>2025-09-08T11:43:21Z</time>
      </trkpt>
      <trkpt lat="46.10715" lon="4.38851">
        <ele>579.8</ele>
        <time>2025-09-08T11:43:22Z</time>
      </trkpt>
      <trkpt lat="46.10709" lon="4.38851">
        <ele>579.4</ele>
        <time>2025-09-08T11:43:23Z</time>
      </trkpt>
      <trkpt lat="46.10703" lon="4.3885">
        <ele>579</ele>
        <time>2025-09-08T11:43:24Z</time>
      </trkpt>
      <trkpt lat="46.10696" lon="4.38851">
        <ele>579</ele>
        <time>2025-09-08T11:43:25Z</time>
      </trkpt>
      <trkpt lat="46.10689" lon="4.38851">
        <ele>578.4</ele>
        <time>2025-09-08T11:43:26Z</time>
      </trkpt>
      <trkpt lat="46.10683" lon="4.38852">
        <ele>578.4</ele>
        <time>2025-09-08T11:43:27Z</time>
      </trkpt>
      <trkpt lat="46.10675" lon="4.38852">
        <ele>578</ele>
        <time>2025-09-08T11:43:28Z</time>
      </trkpt>
      <trkpt lat="46.10668" lon="4.38852">
        <ele>577.8</ele>
        <time>2025-09-08T11:43:29Z</time>
      </trkpt>
      <trkpt lat="46.10662" lon="4.38852">
        <ele>577.8</ele>
        <time>2025-09-08T11:43:30Z</time>
      </trkpt>
      <trkpt lat="46.10654" lon="4.38855">
        <ele>577</ele>
        <time>2025-09-08T11:43:31Z</time>
      </trkpt>
      <trkpt lat="46.10648" lon="4.38857">
        <ele>576.6</ele>
        <time>2025-09-08T11:43:32Z</time>
      </trkpt>
      <trkpt lat="46.10641" lon="4.38859">
        <ele>576.4</ele>
        <time>2025-09-08T11:43:33Z</time>
      </trkpt>
      <trkpt lat="46.10633" lon="4.38861">
        <ele>576.2</ele>
        <time>2025-09-08T11:43:34Z</time>
      </trkpt>
      <trkpt lat="46.10626" lon="4.38864">
        <ele>575.6</ele>
        <time>2025-09-08T11:43:35Z</time>
      </trkpt>
      <trkpt lat="46.10618" lon="4.38865">
        <ele>575</ele>
        <time>2025-09-08T11:43:36Z</time>
      </trkpt>
      <trkpt lat="46.1061" lon="4.3887">
        <ele>574.8</ele>
        <time>2025-09-08T11:43:37Z</time>
      </trkpt>
      <trkpt lat="46.10603" lon="4.38873">
        <ele>574.4</ele>
        <time>2025-09-08T11:43:38Z</time>
      </trkpt>
      <trkpt lat="46.10597" lon="4.38876">
        <ele>573.8</ele>
        <time>2025-09-08T11:43:39Z</time>
      </trkpt>
      <trkpt lat="46.10589" lon="4.38879">
        <ele>573.8</ele>
        <time>2025-09-08T11:43:40Z</time>
      </trkpt>
      <trkpt lat="46.1058" lon="4.38883">
        <ele>573.4</ele>
        <time>2025-09-08T11:43:41Z</time>
      </trkpt>
      <trkpt lat="46.10571" lon="4.38885">
        <ele>573.2</ele>
        <time>2025-09-08T11:43:42Z</time>
      </trkpt>
      <trkpt lat="46.10563" lon="4.38888">
        <ele>572.8</ele>
        <time>2025-09-08T11:43:43Z</time>
      </trkpt>
      <trkpt lat="46.10555" lon="4.38892">
        <ele>572.8</ele>
        <time>2025-09-08T11:43:44Z</time>
      </trkpt>
      <trkpt lat="46.10547" lon="4.38894">
        <ele>572.6</ele>
        <time>2025-09-08T11:43:45Z</time>
      </trkpt>
      <trkpt lat="46.10539" lon="4.38897">
        <ele>572.2</ele>
        <time>2025-09-08T11:43:46Z</time>
      </trkpt>
      <trkpt lat="46.10531" lon="4.38899">
        <ele>571.8</ele>
        <time>2025-09-08T11:43:47Z</time>
      </trkpt>
      <trkpt lat="46.10524" lon="4.38902">
        <ele>571.4</ele>
        <time>2025-09-08T11:43:48Z</time>
      </trkpt>
      <trkpt lat="46.10516" lon="4.38905">
        <ele>571</ele>
        <time>2025-09-08T11:43:49Z</time>
      </trkpt>
      <trkpt lat="46.10509" lon="4.38909">
        <ele>571</ele>
        <time>2025-09-08T11:43:50Z</time>
      </trkpt>
      <trkpt lat="46.10501" lon="4.38912">
        <ele>570.6</ele>
        <time>2025-09-08T11:43:51Z</time>
      </trkpt>
      <trkpt lat="46.10494" lon="4.38915">
        <ele>570</ele>
        <time>2025-09-08T11:43:52Z</time>
      </trkpt>
      <trkpt lat="46.10487" lon="4.38917">
        <ele>569.8</ele>
        <time>2025-09-08T11:43:53Z</time>
      </trkpt>
      <trkpt lat="46.1048" lon="4.3892">
        <ele>569.4</ele>
        <time>2025-09-08T11:43:54Z</time>
      </trkpt>
      <trkpt lat="46.10473" lon="4.38924">
        <ele>568.8</ele>
        <time>2025-09-08T11:43:55Z</time>
      </trkpt>
      <trkpt lat="46.10466" lon="4.38927">
        <ele>568.4</ele>
        <time>2025-09-08T11:43:56Z</time>
      </trkpt>
      <trkpt lat="46.10459" lon="4.38931">
        <ele>568</ele>
        <time>2025-09-08T11:43:57Z</time>
      </trkpt>
      <trkpt lat="46.10453" lon="4.38935">
        <ele>567.8</ele>
        <time>2025-09-08T11:43:58Z</time>
      </trkpt>
      <trkpt lat="46.10448" lon="4.38938">
        <ele>567.8</ele>
        <time>2025-09-08T11:43:59Z</time>
      </trkpt>
      <trkpt lat="46.10445" lon="4.38939">
        <ele>567.6</ele>
        <time>2025-09-08T11:44:00Z</time>
      </trkpt>
      <trkpt lat="46.10443" lon="4.38939">
        <ele>567.6</ele>
        <time>2025-09-08T11:44:01Z</time>
      </trkpt>
      <trkpt lat="46.10442" lon="4.38939">
        <ele>567.4</ele>
        <time>2025-09-08T11:44:02Z</time>
      </trkpt>
      <trkpt lat="46.10441" lon="4.38938">
        <ele>567.4</ele>
        <time>2025-09-08T11:44:03Z</time>
      </trkpt>
      <trkpt lat="46.10441" lon="4.38937">
        <ele>567.4</ele>
        <time>2025-09-08T11:44:04Z</time>
      </trkpt>
      <trkpt lat="46.1044" lon="4.38937">
        <ele>567.4</ele>
        <time>2025-09-08T11:44:05Z</time>
      </trkpt>
      <trkpt lat="46.1044" lon="4.38937">
        <ele>567.2</ele>
        <time>2025-09-08T11:44:06Z</time>
      </trkpt>
      <trkpt lat="46.10439" lon="4.38939">
        <ele>567.2</ele>
        <time>2025-09-08T11:44:16Z</time>
      </trkpt>
      <trkpt lat="46.10439" lon="4.38939">
        <ele>566.8</ele>
        <time>2025-09-08T11:44:17Z</time>
      </trkpt>
      <trkpt lat="46.10439" lon="4.38942">
        <ele>567.2</ele>
        <time>2025-09-08T11:44:18Z</time>
      </trkpt>
      <trkpt lat="46.1044" lon="4.38945">
        <ele>567.2</ele>
        <time>2025-09-08T11:44:19Z</time>
      </trkpt>
      <trkpt lat="46.10439" lon="4.38948">
        <ele>567.2</ele>
        <time>2025-09-08T11:44:20Z</time>
      </trkpt>
      <trkpt lat="46.10438" lon="4.38949">
        <ele>567.2</ele>
        <time>2025-09-08T11:44:21Z</time>
      </trkpt>
      <trkpt lat="46.10433" lon="4.3895">
        <ele>567.2</ele>
        <time>2025-09-08T11:44:22Z</time>
      </trkpt>
      <trkpt lat="46.1043" lon="4.38951">
        <ele>567.2</ele>
        <time>2025-09-08T11:44:23Z</time>
      </trkpt>
      <trkpt lat="46.10427" lon="4.38952">
        <ele>567.2</ele>
        <time>2025-09-08T11:44:24Z</time>
      </trkpt>
      <trkpt lat="46.10424" lon="4.38954">
        <ele>567.2</ele>
        <time>2025-09-08T11:44:25Z</time>
      </trkpt>
      <trkpt lat="46.10421" lon="4.38954">
        <ele>567.2</ele>
        <time>2025-09-08T11:44:26Z</time>
      </trkpt>
      <trkpt lat="46.10417" lon="4.38955">
        <ele>566.8</ele>
        <time>2025-09-08T11:44:27Z</time>
      </trkpt>
      <trkpt lat="46.10413" lon="4.38955">
        <ele>566.8</ele>
        <time>2025-09-08T11:44:28Z</time>
      </trkpt>
      <trkpt lat="46.10409" lon="4.38955">
        <ele>566.8</ele>
        <time>2025-09-08T11:44:29Z</time>
      </trkpt>
      <trkpt lat="46.10405" lon="4.38954">
        <ele>566.8</ele>
        <time>2025-09-08T11:44:30Z</time>
      </trkpt>
      <trkpt lat="46.10401" lon="4.38953">
        <ele>566.8</ele>
        <time>2025-09-08T11:44:31Z</time>
      </trkpt>
      <trkpt lat="46.10397" lon="4.38951">
        <ele>566.8</ele>
        <time>2025-09-08T11:44:32Z</time>
      </trkpt>
      <trkpt lat="46.10391" lon="4.38948">
        <ele>566.8</ele>
        <time>2025-09-08T11:44:33Z</time>
      </trkpt>
      <trkpt lat="46.10387" lon="4.38946">
        <ele>566.6</ele>
        <time>2025-09-08T11:44:34Z</time>
      </trkpt>
      <trkpt lat="46.10382" lon="4.38943">
        <ele>566.6</ele>
        <time>2025-09-08T11:44:35Z</time>
      </trkpt>
      <trkpt lat="46.10378" lon="4.38939">
        <ele>566.6</ele>
        <time>2025-09-08T11:44:36Z</time>
      </trkpt>
      <trkpt lat="46.10374" lon="4.38935">
        <ele>566.6</ele>
        <time>2025-09-08T11:44:37Z</time>
      </trkpt>
      <trkpt lat="46.10369" lon="4.3893">
        <ele>566.2</ele>
        <time>2025-09-08T11:44:38Z</time>
      </trkpt>
      <trkpt lat="46.10365" lon="4.38926">
        <ele>566.2</ele>
        <time>2025-09-08T11:44:39Z</time>
      </trkpt>
      <trkpt lat="46.10361" lon="4.38921">
        <ele>566</ele>
        <time>2025-09-08T11:44:40Z</time>
      </trkpt>
      <trkpt lat="46.10357" lon="4.38914">
        <ele>566</ele>
        <time>2025-09-08T11:44:41Z</time>
      </trkpt>
      <trkpt lat="46.10353" lon="4.38908">
        <ele>566</ele>
        <time>2025-09-08T11:44:42Z</time>
      </trkpt>
      <trkpt lat="46.10349" lon="4.38902">
        <ele>565.6</ele>
        <time>2025-09-08T11:44:43Z</time>
      </trkpt>
      <trkpt lat="46.10346" lon="4.38895">
        <ele>565.6</ele>
        <time>2025-09-08T11:44:44Z</time>
      </trkpt>
      <trkpt lat="46.10343" lon="4.38888">
        <ele>565.6</ele>
        <time>2025-09-08T11:44:45Z</time>
      </trkpt>
      <trkpt lat="46.1034" lon="4.38881">
        <ele>565.6</ele>
        <time>2025-09-08T11:44:46Z</time>
      </trkpt>
      <trkpt lat="46.10337" lon="4.38875">
        <ele>565.6</ele>
        <time>2025-09-08T11:44:47Z</time>
      </trkpt>
      <trkpt lat="46.10333" lon="4.38869">
        <ele>565.4</ele>
        <time>2025-09-08T11:44:48Z</time>
      </trkpt>
      <trkpt lat="46.10329" lon="4.38864">
        <ele>565.4</ele>
        <time>2025-09-08T11:44:49Z</time>
      </trkpt>
      <trkpt lat="46.10324" lon="4.38859">
        <ele>565.4</ele>
        <time>2025-09-08T11:44:50Z</time>
      </trkpt>
      <trkpt lat="46.1032" lon="4.38854">
        <ele>565</ele>
        <time>2025-09-08T11:44:51Z</time>
      </trkpt>
      <trkpt lat="46.10315" lon="4.3885">
        <ele>565</ele>
        <time>2025-09-08T11:44:52Z</time>
      </trkpt>
      <trkpt lat="46.1031" lon="4.38847">
        <ele>564.8</ele>
        <time>2025-09-08T11:44:53Z</time>
      </trkpt>
      <trkpt lat="46.10304" lon="4.38841">
        <ele>564.6</ele>
        <time>2025-09-08T11:44:54Z</time>
      </trkpt>
      <trkpt lat="46.103" lon="4.38836">
        <ele>564.4</ele>
        <time>2025-09-08T11:44:55Z</time>
      </trkpt>
      <trkpt lat="46.10294" lon="4.38833">
        <ele>564.4</ele>
        <time>2025-09-08T11:44:56Z</time>
      </trkpt>
      <trkpt lat="46.10288" lon="4.3883">
        <ele>564.4</ele>
        <time>2025-09-08T11:44:57Z</time>
      </trkpt>
      <trkpt lat="46.10282" lon="4.38828">
        <ele>563.8</ele>
        <time>2025-09-08T11:44:58Z</time>
      </trkpt>
      <trkpt lat="46.10277" lon="4.38826">
        <ele>563.8</ele>
        <time>2025-09-08T11:44:59Z</time>
      </trkpt>
      <trkpt lat="46.10277" lon="4.38826">
        <ele>563.8</ele>
        <time>2025-09-08T11:45:00Z</time>
      </trkpt>
      <trkpt lat="46.10277" lon="4.38826">
        <ele>563.8</ele>
        <time>2025-09-08T11:45:01Z</time>
      </trkpt>
      <trkpt lat="46.10261" lon="4.38821">
        <ele>563.6</ele>
        <time>2025-09-08T11:45:02Z</time>
      </trkpt>
      <trkpt lat="46.10258" lon="4.38821">
        <ele>563.6</ele>
        <time>2025-09-08T11:45:03Z</time>
      </trkpt>
      <trkpt lat="46.10255" lon="4.38819">
        <ele>563.6</ele>
        <time>2025-09-08T11:45:04Z</time>
      </trkpt>
      <trkpt lat="46.10253" lon="4.38814">
        <ele>563.2</ele>
        <time>2025-09-08T11:45:05Z</time>
      </trkpt>
      <trkpt lat="46.10252" lon="4.38809">
        <ele>563.4</ele>
        <time>2025-09-08T11:45:06Z</time>
      </trkpt>
      <trkpt lat="46.10252" lon="4.38805">
        <ele>563.4</ele>
        <time>2025-09-08T11:45:07Z</time>
      </trkpt>
      <trkpt lat="46.10255" lon="4.38797">
        <ele>563.4</ele>
        <time>2025-09-08T11:45:08Z</time>
      </trkpt>
      <trkpt lat="46.10256" lon="4.3879">
        <ele>563.4</ele>
        <time>2025-09-08T11:45:09Z</time>
      </trkpt>
      <trkpt lat="46.10257" lon="4.38782">
        <ele>562.4</ele>
        <time>2025-09-08T11:45:10Z</time>
      </trkpt>
      <trkpt lat="46.10256" lon="4.38775">
        <ele>562.4</ele>
        <time>2025-09-08T11:45:11Z</time>
      </trkpt>
      <trkpt lat="46.10255" lon="4.38768">
        <ele>562</ele>
        <time>2025-09-08T11:45:12Z</time>
      </trkpt>
      <trkpt lat="46.10253" lon="4.38761">
        <ele>561.2</ele>
        <time>2025-09-08T11:45:13Z</time>
      </trkpt>
      <trkpt lat="46.10251" lon="4.38755">
        <ele>561.2</ele>
        <time>2025-09-08T11:45:14Z</time>
      </trkpt>
      <trkpt lat="46.10248" lon="4.38751">
        <ele>561.2</ele>
        <time>2025-09-08T11:45:15Z</time>
      </trkpt>
      <trkpt lat="46.10245" lon="4.38748">
        <ele>561.6</ele>
        <time>2025-09-08T11:45:16Z</time>
      </trkpt>
      <trkpt lat="46.10241" lon="4.38743">
        <ele>561.6</ele>
        <time>2025-09-08T11:45:17Z</time>
      </trkpt>
      <trkpt lat="46.10239" lon="4.38738">
        <ele>561.6</ele>
        <time>2025-09-08T11:45:18Z</time>
      </trkpt>
      <trkpt lat="46.10237" lon="4.38736">
        <ele>562.2</ele>
        <time>2025-09-08T11:45:19Z</time>
      </trkpt>
      <trkpt lat="46.10235" lon="4.38733">
        <ele>562.2</ele>
        <time>2025-09-08T11:45:20Z</time>
      </trkpt>
      <trkpt lat="46.10234" lon="4.38727">
        <ele>562.6</ele>
        <time>2025-09-08T11:45:21Z</time>
      </trkpt>
      <trkpt lat="46.10233" lon="4.38725">
        <ele>562.8</ele>
        <time>2025-09-08T11:45:22Z</time>
      </trkpt>
      <trkpt lat="46.10231" lon="4.38722">
        <ele>563.2</ele>
        <time>2025-09-08T11:45:23Z</time>
      </trkpt>
      <trkpt lat="46.10229" lon="4.3872">
        <ele>563.6</ele>
        <time>2025-09-08T11:45:24Z</time>
      </trkpt>
      <trkpt lat="46.10227" lon="4.38718">
        <ele>563.8</ele>
        <time>2025-09-08T11:45:25Z</time>
      </trkpt>
      <trkpt lat="46.10225" lon="4.38716">
        <ele>563.8</ele>
        <time>2025-09-08T11:45:26Z</time>
      </trkpt>
      <trkpt lat="46.10223" lon="4.38715">
        <ele>564.2</ele>
        <time>2025-09-08T11:45:27Z</time>
      </trkpt>
      <trkpt lat="46.1022" lon="4.38714">
        <ele>564.2</ele>
        <time>2025-09-08T11:45:28Z</time>
      </trkpt>
      <trkpt lat="46.10218" lon="4.38714">
        <ele>564.2</ele>
        <time>2025-09-08T11:45:29Z</time>
      </trkpt>
      <trkpt lat="46.10215" lon="4.38714">
        <ele>564.2</ele>
        <time>2025-09-08T11:45:30Z</time>
      </trkpt>
      <trkpt lat="46.10212" lon="4.38714">
        <ele>564.2</ele>
        <time>2025-09-08T11:45:31Z</time>
      </trkpt>
      <trkpt lat="46.1021" lon="4.38716">
        <ele>564.6</ele>
        <time>2025-09-08T11:45:32Z</time>
      </trkpt>
      <trkpt lat="46.10208" lon="4.38718">
        <ele>565</ele>
        <time>2025-09-08T11:45:33Z</time>
      </trkpt>
      <trkpt lat="46.10208" lon="4.38718">
        <ele>565</ele>
        <time>2025-09-08T11:45:34Z</time>
      </trkpt>
      <trkpt lat="46.10207" lon="4.3872">
        <ele>565.2</ele>
        <time>2025-09-08T11:45:35Z</time>
      </trkpt>
      <trkpt lat="46.10206" lon="4.38722">
        <ele>565.2</ele>
        <time>2025-09-08T11:45:36Z</time>
      </trkpt>
      <trkpt lat="46.10205" lon="4.38723">
        <ele>565.6</ele>
        <time>2025-09-08T11:45:37Z</time>
      </trkpt>
      <trkpt lat="46.10204" lon="4.38725">
        <ele>565.8</ele>
        <time>2025-09-08T11:45:38Z</time>
      </trkpt>
      <trkpt lat="46.10202" lon="4.38726">
        <ele>566.2</ele>
        <time>2025-09-08T11:45:39Z</time>
      </trkpt>
      <trkpt lat="46.10201" lon="4.38728">
        <ele>566.2</ele>
        <time>2025-09-08T11:45:40Z</time>
      </trkpt>
      <trkpt lat="46.102" lon="4.38729">
        <ele>566.6</ele>
        <time>2025-09-08T11:45:41Z</time>
      </trkpt>
      <trkpt lat="46.102" lon="4.3873">
        <ele>566.6</ele>
        <time>2025-09-08T11:45:42Z</time>
      </trkpt>
      <trkpt lat="46.10199" lon="4.38731">
        <ele>567</ele>
        <time>2025-09-08T11:45:43Z</time>
      </trkpt>
      <trkpt lat="46.10198" lon="4.38732">
        <ele>567.2</ele>
        <time>2025-09-08T11:45:44Z</time>
      </trkpt>
      <trkpt lat="46.10197" lon="4.38732">
        <ele>567.4</ele>
        <time>2025-09-08T11:45:45Z</time>
      </trkpt>
      <trkpt lat="46.10196" lon="4.38733">
        <ele>567.4</ele>
        <time>2025-09-08T11:45:46Z</time>
      </trkpt>
      <trkpt lat="46.10194" lon="4.38734">
        <ele>567.4</ele>
        <time>2025-09-08T11:45:47Z</time>
      </trkpt>
      <trkpt lat="46.10193" lon="4.38735">
        <ele>567.4</ele>
        <time>2025-09-08T11:45:48Z</time>
      </trkpt>
      <trkpt lat="46.10193" lon="4.38737">
        <ele>567.8</ele>
        <time>2025-09-08T11:45:49Z</time>
      </trkpt>
      <trkpt lat="46.10191" lon="4.3874">
        <ele>567.8</ele>
        <time>2025-09-08T11:45:50Z</time>
      </trkpt>
      <trkpt lat="46.1019" lon="4.38742">
        <ele>568</ele>
        <time>2025-09-08T11:45:51Z</time>
      </trkpt>
      <trkpt lat="46.10188" lon="4.38743">
        <ele>568</ele>
        <time>2025-09-08T11:45:52Z</time>
      </trkpt>
      <trkpt lat="46.10186" lon="4.38744">
        <ele>568.4</ele>
        <time>2025-09-08T11:45:53Z</time>
      </trkpt>
      <trkpt lat="46.10185" lon="4.38745">
        <ele>568.4</ele>
        <time>2025-09-08T11:45:54Z</time>
      </trkpt>
      <trkpt lat="46.10183" lon="4.38745">
        <ele>568.4</ele>
        <time>2025-09-08T11:45:55Z</time>
      </trkpt>
      <trkpt lat="46.10181" lon="4.38744">
        <ele>568.4</ele>
        <time>2025-09-08T11:45:56Z</time>
      </trkpt>
      <trkpt lat="46.1018" lon="4.38743">
        <ele>568.4</ele>
        <time>2025-09-08T11:45:57Z</time>
      </trkpt>
      <trkpt lat="46.10179" lon="4.38742">
        <ele>568.4</ele>
        <time>2025-09-08T11:45:58Z</time>
      </trkpt>
      <trkpt lat="46.10178" lon="4.38742">
        <ele>568.6</ele>
        <time>2025-09-08T11:45:59Z</time>
      </trkpt>
      <trkpt lat="46.10176" lon="4.38741">
        <ele>568.6</ele>
        <time>2025-09-08T11:46:00Z</time>
      </trkpt>
      <trkpt lat="46.10175" lon="4.38741">
        <ele>568.8</ele>
        <time>2025-09-08T11:46:01Z</time>
      </trkpt>
      <trkpt lat="46.10174" lon="4.38741">
        <ele>568.8</ele>
        <time>2025-09-08T11:46:02Z</time>
      </trkpt>
      <trkpt lat="46.10172" lon="4.3874">
        <ele>569.2</ele>
        <time>2025-09-08T11:46:03Z</time>
      </trkpt>
      <trkpt lat="46.10171" lon="4.3874">
        <ele>569.2</ele>
        <time>2025-09-08T11:46:04Z</time>
      </trkpt>
      <trkpt lat="46.1017" lon="4.38739">
        <ele>569.6</ele>
        <time>2025-09-08T11:46:05Z</time>
      </trkpt>
      <trkpt lat="46.10169" lon="4.38738">
        <ele>570</ele>
        <time>2025-09-08T11:46:06Z</time>
      </trkpt>
      <trkpt lat="46.10168" lon="4.38737">
        <ele>570</ele>
        <time>2025-09-08T11:46:07Z</time>
      </trkpt>
      <trkpt lat="46.10167" lon="4.38736">
        <ele>570.4</ele>
        <time>2025-09-08T11:46:08Z</time>
      </trkpt>
      <trkpt lat="46.10165" lon="4.38736">
        <ele>570.6</ele>
        <time>2025-09-08T11:46:09Z</time>
      </trkpt>
      <trkpt lat="46.10164" lon="4.38735">
        <ele>570.6</ele>
        <time>2025-09-08T11:46:10Z</time>
      </trkpt>
      <trkpt lat="46.10163" lon="4.38735">
        <ele>571</ele>
        <time>2025-09-08T11:46:11Z</time>
      </trkpt>
      <trkpt lat="46.10162" lon="4.38734">
        <ele>571</ele>
        <time>2025-09-08T11:46:12Z</time>
      </trkpt>
      <trkpt lat="46.10161" lon="4.38734">
        <ele>571.4</ele>
        <time>2025-09-08T11:46:13Z</time>
      </trkpt>
      <trkpt lat="46.10159" lon="4.38733">
        <ele>571.4</ele>
        <time>2025-09-08T11:46:14Z</time>
      </trkpt>
      <trkpt lat="46.10158" lon="4.38732">
        <ele>571.4</ele>
        <time>2025-09-08T11:46:15Z</time>
      </trkpt>
      <trkpt lat="46.10157" lon="4.38732">
        <ele>571.4</ele>
        <time>2025-09-08T11:46:16Z</time>
      </trkpt>
      <trkpt lat="46.10156" lon="4.38731">
        <ele>571.6</ele>
        <time>2025-09-08T11:46:17Z</time>
      </trkpt>
      <trkpt lat="46.10154" lon="4.38731">
        <ele>571.8</ele>
        <time>2025-09-08T11:46:18Z</time>
      </trkpt>
      <trkpt lat="46.10153" lon="4.38731">
        <ele>571.8</ele>
        <time>2025-09-08T11:46:19Z</time>
      </trkpt>
      <trkpt lat="46.10152" lon="4.3873">
        <ele>571.8</ele>
        <time>2025-09-08T11:46:20Z</time>
      </trkpt>
      <trkpt lat="46.10151" lon="4.38729">
        <ele>571.8</ele>
        <time>2025-09-08T11:46:21Z</time>
      </trkpt>
      <trkpt lat="46.10149" lon="4.38729">
        <ele>571.8</ele>
        <time>2025-09-08T11:46:22Z</time>
      </trkpt>
      <trkpt lat="46.10148" lon="4.38728">
        <ele>572.2</ele>
        <time>2025-09-08T11:46:23Z</time>
      </trkpt>
      <trkpt lat="46.10147" lon="4.38727">
        <ele>572.2</ele>
        <time>2025-09-08T11:46:24Z</time>
      </trkpt>
      <trkpt lat="46.10146" lon="4.38726">
        <ele>572.6</ele>
        <time>2025-09-08T11:46:25Z</time>
      </trkpt>
      <trkpt lat="46.10144" lon="4.38726">
        <ele>572.6</ele>
        <time>2025-09-08T11:46:26Z</time>
      </trkpt>
      <trkpt lat="46.10143" lon="4.38725">
        <ele>572.6</ele>
        <time>2025-09-08T11:46:27Z</time>
      </trkpt>
      <trkpt lat="46.10141" lon="4.38725">
        <ele>572.8</ele>
        <time>2025-09-08T11:46:28Z</time>
      </trkpt>
      <trkpt lat="46.1014" lon="4.38725">
        <ele>572.8</ele>
        <time>2025-09-08T11:46:29Z</time>
      </trkpt>
      <trkpt lat="46.10138" lon="4.38724">
        <ele>573.2</ele>
        <time>2025-09-08T11:46:30Z</time>
      </trkpt>
      <trkpt lat="46.10137" lon="4.38723">
        <ele>573.2</ele>
        <time>2025-09-08T11:46:31Z</time>
      </trkpt>
      <trkpt lat="46.10135" lon="4.38722">
        <ele>573.2</ele>
        <time>2025-09-08T11:46:32Z</time>
      </trkpt>
      <trkpt lat="46.10133" lon="4.38722">
        <ele>573.2</ele>
        <time>2025-09-08T11:46:33Z</time>
      </trkpt>
      <trkpt lat="46.10132" lon="4.38721">
        <ele>573.2</ele>
        <time>2025-09-08T11:46:34Z</time>
      </trkpt>
      <trkpt lat="46.1013" lon="4.38721">
        <ele>573.2</ele>
        <time>2025-09-08T11:46:35Z</time>
      </trkpt>
      <trkpt lat="46.10128" lon="4.3872">
        <ele>573.2</ele>
        <time>2025-09-08T11:46:36Z</time>
      </trkpt>
      <trkpt lat="46.10127" lon="4.38719">
        <ele>573.4</ele>
        <time>2025-09-08T11:46:37Z</time>
      </trkpt>
      <trkpt lat="46.10125" lon="4.38718">
        <ele>573.4</ele>
        <time>2025-09-08T11:46:38Z</time>
      </trkpt>
      <trkpt lat="46.10124" lon="4.38717">
        <ele>573.4</ele>
        <time>2025-09-08T11:46:39Z</time>
      </trkpt>
      <trkpt lat="46.10122" lon="4.38717">
        <ele>573.4</ele>
        <time>2025-09-08T11:46:40Z</time>
      </trkpt>
      <trkpt lat="46.10121" lon="4.38716">
        <ele>573.6</ele>
        <time>2025-09-08T11:46:41Z</time>
      </trkpt>
      <trkpt lat="46.1012" lon="4.38714">
        <ele>573.6</ele>
        <time>2025-09-08T11:46:42Z</time>
      </trkpt>
      <trkpt lat="46.10119" lon="4.38713">
        <ele>573.6</ele>
        <time>2025-09-08T11:46:43Z</time>
      </trkpt>
      <trkpt lat="46.10118" lon="4.38712">
        <ele>574</ele>
        <time>2025-09-08T11:46:44Z</time>
      </trkpt>
      <trkpt lat="46.10116" lon="4.38711">
        <ele>574</ele>
        <time>2025-09-08T11:46:45Z</time>
      </trkpt>
      <trkpt lat="46.10115" lon="4.3871">
        <ele>574</ele>
        <time>2025-09-08T11:46:46Z</time>
      </trkpt>
      <trkpt lat="46.10113" lon="4.38709">
        <ele>574.4</ele>
        <time>2025-09-08T11:46:47Z</time>
      </trkpt>
      <trkpt lat="46.10112" lon="4.38707">
        <ele>574.4</ele>
        <time>2025-09-08T11:46:48Z</time>
      </trkpt>
      <trkpt lat="46.10111" lon="4.38706">
        <ele>574.8</ele>
        <time>2025-09-08T11:46:49Z</time>
      </trkpt>
      <trkpt lat="46.10109" lon="4.38705">
        <ele>574.8</ele>
        <time>2025-09-08T11:46:50Z</time>
      </trkpt>
      <trkpt lat="46.10108" lon="4.38703">
        <ele>575</ele>
        <time>2025-09-08T11:46:51Z</time>
      </trkpt>
      <trkpt lat="46.10108" lon="4.38702">
        <ele>575</ele>
        <time>2025-09-08T11:46:52Z</time>
      </trkpt>
      <trkpt lat="46.10106" lon="4.38701">
        <ele>575</ele>
        <time>2025-09-08T11:46:53Z</time>
      </trkpt>
      <trkpt lat="46.10104" lon="4.387">
        <ele>575</ele>
        <time>2025-09-08T11:46:54Z</time>
      </trkpt>
      <trkpt lat="46.10103" lon="4.387">
        <ele>575</ele>
        <time>2025-09-08T11:46:55Z</time>
      </trkpt>
      <trkpt lat="46.10102" lon="4.38699">
        <ele>575</ele>
        <time>2025-09-08T11:46:56Z</time>
      </trkpt>
      <trkpt lat="46.10101" lon="4.38699">
        <ele>575</ele>
        <time>2025-09-08T11:46:57Z</time>
      </trkpt>
      <trkpt lat="46.101" lon="4.38699">
        <ele>575</ele>
        <time>2025-09-08T11:46:58Z</time>
      </trkpt>
      <trkpt lat="46.10098" lon="4.38698">
        <ele>574.8</ele>
        <time>2025-09-08T11:46:59Z</time>
      </trkpt>
      <trkpt lat="46.10097" lon="4.38698">
        <ele>574.8</ele>
        <time>2025-09-08T11:47:00Z</time>
      </trkpt>
      <trkpt lat="46.10094" lon="4.38699">
        <ele>574.8</ele>
        <time>2025-09-08T11:47:01Z</time>
      </trkpt>
      <trkpt lat="46.10092" lon="4.38699">
        <ele>574.8</ele>
        <time>2025-09-08T11:47:02Z</time>
      </trkpt>
      <trkpt lat="46.10091" lon="4.38699">
        <ele>574.8</ele>
        <time>2025-09-08T11:47:03Z</time>
      </trkpt>
      <trkpt lat="46.1009" lon="4.38699">
        <ele>574.4</ele>
        <time>2025-09-08T11:47:04Z</time>
      </trkpt>
      <trkpt lat="46.10087" lon="4.38698">
        <ele>574</ele>
        <time>2025-09-08T11:47:05Z</time>
      </trkpt>
      <trkpt lat="46.10085" lon="4.38697">
        <ele>573.8</ele>
        <time>2025-09-08T11:47:06Z</time>
      </trkpt>
      <trkpt lat="46.10081" lon="4.387">
        <ele>573.4</ele>
        <time>2025-09-08T11:47:07Z</time>
      </trkpt>
      <trkpt lat="46.10077" lon="4.38698">
        <ele>573.2</ele>
        <time>2025-09-08T11:47:08Z</time>
      </trkpt>
      <trkpt lat="46.10072" lon="4.38698">
        <ele>573.2</ele>
        <time>2025-09-08T11:47:09Z</time>
      </trkpt>
      <trkpt lat="46.10069" lon="4.387">
        <ele>573.2</ele>
        <time>2025-09-08T11:47:10Z</time>
      </trkpt>
      <trkpt lat="46.10063" lon="4.38701">
        <ele>572.8</ele>
        <time>2025-09-08T11:47:11Z</time>
      </trkpt>
      <trkpt lat="46.10056" lon="4.387">
        <ele>572.4</ele>
        <time>2025-09-08T11:47:12Z</time>
      </trkpt>
      <trkpt lat="46.1005" lon="4.38699">
        <ele>572</ele>
        <time>2025-09-08T11:47:13Z</time>
      </trkpt>
      <trkpt lat="46.10043" lon="4.38696">
        <ele>571.4</ele>
        <time>2025-09-08T11:47:14Z</time>
      </trkpt>
      <trkpt lat="46.10036" lon="4.38692">
        <ele>570.6</ele>
        <time>2025-09-08T11:47:15Z</time>
      </trkpt>
      <trkpt lat="46.10028" lon="4.38688">
        <ele>570.2</ele>
        <time>2025-09-08T11:47:16Z</time>
      </trkpt>
      <trkpt lat="46.10022" lon="4.38678">
        <ele>569.6</ele>
        <time>2025-09-08T11:47:17Z</time>
      </trkpt>
      <trkpt lat="46.10018" lon="4.38669">
        <ele>569.2</ele>
        <time>2025-09-08T11:47:18Z</time>
      </trkpt>
      <trkpt lat="46.10012" lon="4.38661">
        <ele>568.8</ele>
        <time>2025-09-08T11:47:19Z</time>
      </trkpt>
      <trkpt lat="46.10006" lon="4.38655">
        <ele>568.2</ele>
        <time>2025-09-08T11:47:20Z</time>
      </trkpt>
      <trkpt lat="46.09999" lon="4.38651">
        <ele>567.2</ele>
        <time>2025-09-08T11:47:21Z</time>
      </trkpt>
      <trkpt lat="46.09992" lon="4.38651">
        <ele>567</ele>
        <time>2025-09-08T11:47:22Z</time>
      </trkpt>
      <trkpt lat="46.09985" lon="4.3865">
        <ele>567</ele>
        <time>2025-09-08T11:47:23Z</time>
      </trkpt>
      <trkpt lat="46.09977" lon="4.38654">
        <ele>566.6</ele>
        <time>2025-09-08T11:47:24Z</time>
      </trkpt>
      <trkpt lat="46.09972" lon="4.3865">
        <ele>566.6</ele>
        <time>2025-09-08T11:47:25Z</time>
      </trkpt>
      <trkpt lat="46.09964" lon="4.38658">
        <ele>566.4</ele>
        <time>2025-09-08T11:47:26Z</time>
      </trkpt>
      <trkpt lat="46.09956" lon="4.3866">
        <ele>566</ele>
        <time>2025-09-08T11:47:27Z</time>
      </trkpt>
      <trkpt lat="46.09948" lon="4.38658">
        <ele>565.4</ele>
        <time>2025-09-08T11:47:28Z</time>
      </trkpt>
      <trkpt lat="46.0994" lon="4.38656">
        <ele>564.8</ele>
        <time>2025-09-08T11:47:29Z</time>
      </trkpt>
      <trkpt lat="46.09931" lon="4.38656">
        <ele>564.4</ele>
        <time>2025-09-08T11:47:30Z</time>
      </trkpt>
      <trkpt lat="46.09922" lon="4.38652">
        <ele>563.2</ele>
        <time>2025-09-08T11:47:31Z</time>
      </trkpt>
      <trkpt lat="46.09916" lon="4.38647">
        <ele>562.8</ele>
        <time>2025-09-08T11:47:32Z</time>
      </trkpt>
      <trkpt lat="46.09907" lon="4.38645">
        <ele>562.2</ele>
        <time>2025-09-08T11:47:33Z</time>
      </trkpt>
      <trkpt lat="46.09898" lon="4.38644">
        <ele>561.6</ele>
        <time>2025-09-08T11:47:34Z</time>
      </trkpt>
      <trkpt lat="46.09888" lon="4.38642">
        <ele>561</ele>
        <time>2025-09-08T11:47:35Z</time>
      </trkpt>
      <trkpt lat="46.09878" lon="4.38645">
        <ele>561</ele>
        <time>2025-09-08T11:47:36Z</time>
      </trkpt>
      <trkpt lat="46.09869" lon="4.38645">
        <ele>560.8</ele>
        <time>2025-09-08T11:47:37Z</time>
      </trkpt>
      <trkpt lat="46.09859" lon="4.38648">
        <ele>560.4</ele>
        <time>2025-09-08T11:47:38Z</time>
      </trkpt>
      <trkpt lat="46.0985" lon="4.38649">
        <ele>560.4</ele>
        <time>2025-09-08T11:47:39Z</time>
      </trkpt>
      <trkpt lat="46.0984" lon="4.38653">
        <ele>560</ele>
        <time>2025-09-08T11:47:40Z</time>
      </trkpt>
      <trkpt lat="46.09831" lon="4.38655">
        <ele>559.2</ele>
        <time>2025-09-08T11:47:41Z</time>
      </trkpt>
      <trkpt lat="46.09821" lon="4.38655">
        <ele>558.6</ele>
        <time>2025-09-08T11:47:42Z</time>
      </trkpt>
      <trkpt lat="46.09812" lon="4.38656">
        <ele>558</ele>
        <time>2025-09-08T11:47:43Z</time>
      </trkpt>
      <trkpt lat="46.09804" lon="4.38658">
        <ele>557.4</ele>
        <time>2025-09-08T11:47:44Z</time>
      </trkpt>
      <trkpt lat="46.09795" lon="4.38661">
        <ele>556.8</ele>
        <time>2025-09-08T11:47:45Z</time>
      </trkpt>
      <trkpt lat="46.09788" lon="4.38665">
        <ele>556.2</ele>
        <time>2025-09-08T11:47:46Z</time>
      </trkpt>
      <trkpt lat="46.0978" lon="4.3867">
        <ele>556</ele>
        <time>2025-09-08T11:47:47Z</time>
      </trkpt>
      <trkpt lat="46.09772" lon="4.38675">
        <ele>555.4</ele>
        <time>2025-09-08T11:47:48Z</time>
      </trkpt>
      <trkpt lat="46.09764" lon="4.3868">
        <ele>555</ele>
        <time>2025-09-08T11:47:49Z</time>
      </trkpt>
      <trkpt lat="46.09753" lon="4.38683">
        <ele>554.6</ele>
        <time>2025-09-08T11:47:50Z</time>
      </trkpt>
      <trkpt lat="46.09744" lon="4.38688">
        <ele>553.8</ele>
        <time>2025-09-08T11:47:51Z</time>
      </trkpt>
      <trkpt lat="46.09735" lon="4.38693">
        <ele>553.6</ele>
        <time>2025-09-08T11:47:52Z</time>
      </trkpt>
      <trkpt lat="46.09726" lon="4.38697">
        <ele>553.2</ele>
        <time>2025-09-08T11:47:53Z</time>
      </trkpt>
      <trkpt lat="46.09718" lon="4.38701">
        <ele>552.8</ele>
        <time>2025-09-08T11:47:54Z</time>
      </trkpt>
      <trkpt lat="46.09709" lon="4.38705">
        <ele>552.6</ele>
        <time>2025-09-08T11:47:55Z</time>
      </trkpt>
      <trkpt lat="46.09702" lon="4.38709">
        <ele>552.6</ele>
        <time>2025-09-08T11:47:56Z</time>
      </trkpt>
      <trkpt lat="46.09691" lon="4.38715">
        <ele>552.6</ele>
        <time>2025-09-08T11:47:57Z</time>
      </trkpt>
      <trkpt lat="46.09684" lon="4.38719">
        <ele>552.2</ele>
        <time>2025-09-08T11:47:58Z</time>
      </trkpt>
      <trkpt lat="46.09678" lon="4.38719">
        <ele>552.2</ele>
        <time>2025-09-08T11:47:59Z</time>
      </trkpt>
      <trkpt lat="46.09669" lon="4.38723">
        <ele>552.2</ele>
        <time>2025-09-08T11:48:00Z</time>
      </trkpt>
      <trkpt lat="46.09661" lon="4.38725">
        <ele>551.8</ele>
        <time>2025-09-08T11:48:01Z</time>
      </trkpt>
      <trkpt lat="46.09654" lon="4.38731">
        <ele>551.8</ele>
        <time>2025-09-08T11:48:02Z</time>
      </trkpt>
      <trkpt lat="46.09647" lon="4.38732">
        <ele>551.8</ele>
        <time>2025-09-08T11:48:03Z</time>
      </trkpt>
      <trkpt lat="46.0964" lon="4.38733">
        <ele>551.8</ele>
        <time>2025-09-08T11:48:04Z</time>
      </trkpt>
      <trkpt lat="46.09633" lon="4.38735">
        <ele>551.8</ele>
        <time>2025-09-08T11:48:05Z</time>
      </trkpt>
      <trkpt lat="46.09627" lon="4.38737">
        <ele>551.8</ele>
        <time>2025-09-08T11:48:06Z</time>
      </trkpt>
      <trkpt lat="46.0962" lon="4.38741">
        <ele>551.6</ele>
        <time>2025-09-08T11:48:07Z</time>
      </trkpt>
      <trkpt lat="46.09613" lon="4.38743">
        <ele>551.6</ele>
        <time>2025-09-08T11:48:08Z</time>
      </trkpt>
      <trkpt lat="46.09606" lon="4.38748">
        <ele>551.6</ele>
        <time>2025-09-08T11:48:09Z</time>
      </trkpt>
      <trkpt lat="46.09599" lon="4.38751">
        <ele>551.2</ele>
        <time>2025-09-08T11:48:10Z</time>
      </trkpt>
      <trkpt lat="46.09594" lon="4.38756">
        <ele>551</ele>
        <time>2025-09-08T11:48:11Z</time>
      </trkpt>
      <trkpt lat="46.09589" lon="4.38761">
        <ele>551</ele>
        <time>2025-09-08T11:48:12Z</time>
      </trkpt>
      <trkpt lat="46.09588" lon="4.38765">
        <ele>551</ele>
        <time>2025-09-08T11:48:13Z</time>
      </trkpt>
      <trkpt lat="46.09585" lon="4.3877">
        <ele>550.6</ele>
        <time>2025-09-08T11:48:14Z</time>
      </trkpt>
      <trkpt lat="46.09583" lon="4.38772">
        <ele>550.6</ele>
        <time>2025-09-08T11:48:15Z</time>
      </trkpt>
      <trkpt lat="46.09581" lon="4.38775">
        <ele>550.6</ele>
        <time>2025-09-08T11:48:16Z</time>
      </trkpt>
      <trkpt lat="46.09579" lon="4.38778">
        <ele>550.6</ele>
        <time>2025-09-08T11:48:17Z</time>
      </trkpt>
      <trkpt lat="46.09573" lon="4.38779">
        <ele>550.2</ele>
        <time>2025-09-08T11:48:18Z</time>
      </trkpt>
      <trkpt lat="46.09569" lon="4.38778">
        <ele>550.2</ele>
        <time>2025-09-08T11:48:19Z</time>
      </trkpt>
      <trkpt lat="46.09564" lon="4.38778">
        <ele>550.2</ele>
        <time>2025-09-08T11:48:20Z</time>
      </trkpt>
      <trkpt lat="46.09558" lon="4.38778">
        <ele>550.2</ele>
        <time>2025-09-08T11:48:21Z</time>
      </trkpt>
      <trkpt lat="46.09553" lon="4.38777">
        <ele>550</ele>
        <time>2025-09-08T11:48:22Z</time>
      </trkpt>
      <trkpt lat="46.09548" lon="4.38774">
        <ele>550</ele>
        <time>2025-09-08T11:48:23Z</time>
      </trkpt>
      <trkpt lat="46.09542" lon="4.38772">
        <ele>550</ele>
        <time>2025-09-08T11:48:24Z</time>
      </trkpt>
      <trkpt lat="46.09537" lon="4.3877">
        <ele>550</ele>
        <time>2025-09-08T11:48:25Z</time>
      </trkpt>
      <trkpt lat="46.09531" lon="4.38768">
        <ele>550</ele>
        <time>2025-09-08T11:48:26Z</time>
      </trkpt>
      <trkpt lat="46.09525" lon="4.38764">
        <ele>550</ele>
        <time>2025-09-08T11:48:27Z</time>
      </trkpt>
      <trkpt lat="46.09519" lon="4.38763">
        <ele>550</ele>
        <time>2025-09-08T11:48:28Z</time>
      </trkpt>
      <trkpt lat="46.09513" lon="4.38761">
        <ele>550</ele>
        <time>2025-09-08T11:48:29Z</time>
      </trkpt>
      <trkpt lat="46.09507" lon="4.38759">
        <ele>549.8</ele>
        <time>2025-09-08T11:48:30Z</time>
      </trkpt>
      <trkpt lat="46.09501" lon="4.38757">
        <ele>549.8</ele>
        <time>2025-09-08T11:48:31Z</time>
      </trkpt>
      <trkpt lat="46.09495" lon="4.38755">
        <ele>549.6</ele>
        <time>2025-09-08T11:48:32Z</time>
      </trkpt>
      <trkpt lat="46.09489" lon="4.38753">
        <ele>549.6</ele>
        <time>2025-09-08T11:48:33Z</time>
      </trkpt>
      <trkpt lat="46.09484" lon="4.38751">
        <ele>549.6</ele>
        <time>2025-09-08T11:48:34Z</time>
      </trkpt>
      <trkpt lat="46.09478" lon="4.38749">
        <ele>549.2</ele>
        <time>2025-09-08T11:48:35Z</time>
      </trkpt>
      <trkpt lat="46.09474" lon="4.38747">
        <ele>549</ele>
        <time>2025-09-08T11:48:36Z</time>
      </trkpt>
      <trkpt lat="46.09472" lon="4.38744">
        <ele>549</ele>
        <time>2025-09-08T11:48:37Z</time>
      </trkpt>
      <trkpt lat="46.0947" lon="4.38738">
        <ele>549</ele>
        <time>2025-09-08T11:48:38Z</time>
      </trkpt>
      <trkpt lat="46.09469" lon="4.38733">
        <ele>549</ele>
        <time>2025-09-08T11:48:39Z</time>
      </trkpt>
      <trkpt lat="46.09469" lon="4.38729">
        <ele>549</ele>
        <time>2025-09-08T11:48:40Z</time>
      </trkpt>
      <trkpt lat="46.0947" lon="4.38723">
        <ele>549</ele>
        <time>2025-09-08T11:48:41Z</time>
      </trkpt>
      <trkpt lat="46.09471" lon="4.38719">
        <ele>549</ele>
        <time>2025-09-08T11:48:42Z</time>
      </trkpt>
      <trkpt lat="46.09471" lon="4.38714">
        <ele>549</ele>
        <time>2025-09-08T11:48:43Z</time>
      </trkpt>
      <trkpt lat="46.0947" lon="4.38712">
        <ele>549</ele>
        <time>2025-09-08T11:48:44Z</time>
      </trkpt>
      <trkpt lat="46.0947" lon="4.3871">
        <ele>549.2</ele>
        <time>2025-09-08T11:48:45Z</time>
      </trkpt>
      <trkpt lat="46.09468" lon="4.38707">
        <ele>549.2</ele>
        <time>2025-09-08T11:48:46Z</time>
      </trkpt>
      <trkpt lat="46.09468" lon="4.38706">
        <ele>549.2</ele>
        <time>2025-09-08T11:48:47Z</time>
      </trkpt>
      <trkpt lat="46.09468" lon="4.38706">
        <ele>549.4</ele>
        <time>2025-09-08T11:48:48Z</time>
      </trkpt>
      <trkpt lat="46.09468" lon="4.38707">
        <ele>549.4</ele>
        <time>2025-09-08T11:48:49Z</time>
      </trkpt>
      <trkpt lat="46.09468" lon="4.38707">
        <ele>549.4</ele>
        <time>2025-09-08T11:48:50Z</time>
      </trkpt>
      <trkpt lat="46.09469" lon="4.38713">
        <ele>549.2</ele>
        <time>2025-09-08T11:49:51Z</time>
      </trkpt>
      <trkpt lat="46.0947" lon="4.38715">
        <ele>549.2</ele>
        <time>2025-09-08T11:49:52Z</time>
      </trkpt>
      <trkpt lat="46.09471" lon="4.38717">
        <ele>549.2</ele>
        <time>2025-09-08T11:49:53Z</time>
      </trkpt>
      <trkpt lat="46.09471" lon="4.38719">
        <ele>549.2</ele>
        <time>2025-09-08T11:49:54Z</time>
      </trkpt>
      <trkpt lat="46.09471" lon="4.38723">
        <ele>549</ele>
        <time>2025-09-08T11:49:55Z</time>
      </trkpt>
      <trkpt lat="46.09471" lon="4.38728">
        <ele>549</ele>
        <time>2025-09-08T11:49:56Z</time>
      </trkpt>
      <trkpt lat="46.0947" lon="4.38732">
        <ele>549</ele>
        <time>2025-09-08T11:49:57Z</time>
      </trkpt>
      <trkpt lat="46.09469" lon="4.38736">
        <ele>549</ele>
        <time>2025-09-08T11:49:58Z</time>
      </trkpt>
      <trkpt lat="46.09468" lon="4.3874">
        <ele>549</ele>
        <time>2025-09-08T11:49:59Z</time>
      </trkpt>
      <trkpt lat="46.09467" lon="4.38743">
        <ele>549</ele>
        <time>2025-09-08T11:50:00Z</time>
      </trkpt>
      <trkpt lat="46.09464" lon="4.38745">
        <ele>548.6</ele>
        <time>2025-09-08T11:50:01Z</time>
      </trkpt>
      <trkpt lat="46.09461" lon="4.38745">
        <ele>548.6</ele>
        <time>2025-09-08T11:50:02Z</time>
      </trkpt>
      <trkpt lat="46.09458" lon="4.38743">
        <ele>548.6</ele>
        <time>2025-09-08T11:50:03Z</time>
      </trkpt>
      <trkpt lat="46.09455" lon="4.38741">
        <ele>548.6</ele>
        <time>2025-09-08T11:50:04Z</time>
      </trkpt>
      <trkpt lat="46.09451" lon="4.3874">
        <ele>548.6</ele>
        <time>2025-09-08T11:50:05Z</time>
      </trkpt>
      <trkpt lat="46.09447" lon="4.38739">
        <ele>548.6</ele>
        <time>2025-09-08T11:50:06Z</time>
      </trkpt>
      <trkpt lat="46.09443" lon="4.38737">
        <ele>548.6</ele>
        <time>2025-09-08T11:50:07Z</time>
      </trkpt>
      <trkpt lat="46.09439" lon="4.38736">
        <ele>548.6</ele>
        <time>2025-09-08T11:50:08Z</time>
      </trkpt>
      <trkpt lat="46.09435" lon="4.38735">
        <ele>547.4</ele>
        <time>2025-09-08T11:50:09Z</time>
      </trkpt>
      <trkpt lat="46.09432" lon="4.38734">
        <ele>547.4</ele>
        <time>2025-09-08T11:50:10Z</time>
      </trkpt>
      <trkpt lat="46.09428" lon="4.38733">
        <ele>547.8</ele>
        <time>2025-09-08T11:50:11Z</time>
      </trkpt>
      <trkpt lat="46.09424" lon="4.38732">
        <ele>548</ele>
        <time>2025-09-08T11:50:12Z</time>
      </trkpt>
      <trkpt lat="46.0942" lon="4.38732">
        <ele>548</ele>
        <time>2025-09-08T11:50:13Z</time>
      </trkpt>
      <trkpt lat="46.09417" lon="4.38731">
        <ele>548</ele>
        <time>2025-09-08T11:50:14Z</time>
      </trkpt>
      <trkpt lat="46.09413" lon="4.38729">
        <ele>548</ele>
        <time>2025-09-08T11:50:15Z</time>
      </trkpt>
      <trkpt lat="46.09409" lon="4.38728">
        <ele>548</ele>
        <time>2025-09-08T11:50:16Z</time>
      </trkpt>
      <trkpt lat="46.09404" lon="4.38727">
        <ele>548</ele>
        <time>2025-09-08T11:50:17Z</time>
      </trkpt>
      <trkpt lat="46.094" lon="4.38726">
        <ele>548</ele>
        <time>2025-09-08T11:50:18Z</time>
      </trkpt>
      <trkpt lat="46.09395" lon="4.38726">
        <ele>548</ele>
        <time>2025-09-08T11:50:19Z</time>
      </trkpt>
      <trkpt lat="46.0939" lon="4.38725">
        <ele>548</ele>
        <time>2025-09-08T11:50:20Z</time>
      </trkpt>
      <trkpt lat="46.09385" lon="4.38725">
        <ele>548</ele>
        <time>2025-09-08T11:50:21Z</time>
      </trkpt>
      <trkpt lat="46.09381" lon="4.38725">
        <ele>548</ele>
        <time>2025-09-08T11:50:22Z</time>
      </trkpt>
      <trkpt lat="46.09376" lon="4.38725">
        <ele>548</ele>
        <time>2025-09-08T11:50:23Z</time>
      </trkpt>
      <trkpt lat="46.09372" lon="4.38724">
        <ele>547.8</ele>
        <time>2025-09-08T11:50:24Z</time>
      </trkpt>
      <trkpt lat="46.09366" lon="4.38724">
        <ele>547.8</ele>
        <time>2025-09-08T11:50:25Z</time>
      </trkpt>
      <trkpt lat="46.09361" lon="4.38724">
        <ele>547.8</ele>
        <time>2025-09-08T11:50:26Z</time>
      </trkpt>
      <trkpt lat="46.09357" lon="4.38725">
        <ele>547.4</ele>
        <time>2025-09-08T11:50:27Z</time>
      </trkpt>
      <trkpt lat="46.09352" lon="4.38725">
        <ele>547.4</ele>
        <time>2025-09-08T11:50:28Z</time>
      </trkpt>
      <trkpt lat="46.09347" lon="4.38725">
        <ele>547.4</ele>
        <time>2025-09-08T11:50:29Z</time>
      </trkpt>
      <trkpt lat="46.09342" lon="4.38726">
        <ele>547.4</ele>
        <time>2025-09-08T11:50:30Z</time>
      </trkpt>
      <trkpt lat="46.09336" lon="4.38725">
        <ele>547.4</ele>
        <time>2025-09-08T11:50:31Z</time>
      </trkpt>
      <trkpt lat="46.09331" lon="4.38726">
        <ele>547.4</ele>
        <time>2025-09-08T11:50:32Z</time>
      </trkpt>
      <trkpt lat="46.09326" lon="4.38727">
        <ele>547.2</ele>
        <time>2025-09-08T11:50:33Z</time>
      </trkpt>
      <trkpt lat="46.09321" lon="4.38727">
        <ele>547.2</ele>
        <time>2025-09-08T11:50:34Z</time>
      </trkpt>
      <trkpt lat="46.09316" lon="4.38727">
        <ele>547.2</ele>
        <time>2025-09-08T11:50:35Z</time>
      </trkpt>
      <trkpt lat="46.0931" lon="4.38727">
        <ele>547</ele>
        <time>2025-09-08T11:50:36Z</time>
      </trkpt>
      <trkpt lat="46.09306" lon="4.38728">
        <ele>547</ele>
        <time>2025-09-08T11:50:37Z</time>
      </trkpt>
      <trkpt lat="46.09301" lon="4.3873">
        <ele>546.6</ele>
        <time>2025-09-08T11:50:38Z</time>
      </trkpt>
      <trkpt lat="46.09297" lon="4.3873">
        <ele>546.6</ele>
        <time>2025-09-08T11:50:39Z</time>
      </trkpt>
      <trkpt lat="46.09293" lon="4.3873">
        <ele>546.6</ele>
        <time>2025-09-08T11:50:40Z</time>
      </trkpt>
      <trkpt lat="46.09291" lon="4.3873">
        <ele>546.6</ele>
        <time>2025-09-08T11:50:41Z</time>
      </trkpt>
      <trkpt lat="46.09289" lon="4.38726">
        <ele>546.6</ele>
        <time>2025-09-08T11:50:42Z</time>
      </trkpt>
      <trkpt lat="46.09288" lon="4.38726">
        <ele>546.6</ele>
        <time>2025-09-08T11:50:43Z</time>
      </trkpt>
      <trkpt lat="46.09288" lon="4.38726">
        <ele>546.6</ele>
        <time>2025-09-08T11:50:44Z</time>
      </trkpt>
      <trkpt lat="46.09289" lon="4.38726">
        <ele>546.4</ele>
        <time>2025-09-08T11:52:21Z</time>
      </trkpt>
      <trkpt lat="46.09288" lon="4.38727">
        <ele>546.4</ele>
        <time>2025-09-08T11:52:22Z</time>
      </trkpt>
      <trkpt lat="46.09289" lon="4.38728">
        <ele>546.4</ele>
        <time>2025-09-08T11:52:23Z</time>
      </trkpt>
      <trkpt lat="46.09289" lon="4.38728">
        <ele>546.4</ele>
        <time>2025-09-08T11:52:24Z</time>
      </trkpt>
      <trkpt lat="46.09288" lon="4.38728">
        <ele>546.4</ele>
        <time>2025-09-08T11:52:25Z</time>
      </trkpt>
      <trkpt lat="46.09287" lon="4.38729">
        <ele>546.6</ele>
        <time>2025-09-08T11:52:26Z</time>
      </trkpt>
      <trkpt lat="46.09286" lon="4.3873">
        <ele>546.6</ele>
        <time>2025-09-08T11:52:27Z</time>
      </trkpt>
      <trkpt lat="46.09285" lon="4.38731">
        <ele>546.6</ele>
        <time>2025-09-08T11:52:28Z</time>
      </trkpt>
      <trkpt lat="46.09283" lon="4.38732">
        <ele>546.6</ele>
        <time>2025-09-08T11:52:29Z</time>
      </trkpt>
      <trkpt lat="46.09282" lon="4.38732">
        <ele>546.6</ele>
        <time>2025-09-08T11:52:30Z</time>
      </trkpt>
      <trkpt lat="46.0928" lon="4.38733">
        <ele>546.8</ele>
        <time>2025-09-08T11:52:31Z</time>
      </trkpt>
      <trkpt lat="46.09277" lon="4.38734">
        <ele>546.8</ele>
        <time>2025-09-08T11:52:32Z</time>
      </trkpt>
      <trkpt lat="46.09275" lon="4.38735">
        <ele>546.8</ele>
        <time>2025-09-08T11:52:33Z</time>
      </trkpt>
      <trkpt lat="46.09272" lon="4.38736">
        <ele>546.8</ele>
        <time>2025-09-08T11:52:34Z</time>
      </trkpt>
      <trkpt lat="46.09269" lon="4.38737">
        <ele>546.8</ele>
        <time>2025-09-08T11:52:35Z</time>
      </trkpt>
      <trkpt lat="46.09266" lon="4.38737">
        <ele>546.8</ele>
        <time>2025-09-08T11:52:36Z</time>
      </trkpt>
      <trkpt lat="46.09263" lon="4.38738">
        <ele>546.8</ele>
        <time>2025-09-08T11:52:37Z</time>
      </trkpt>
      <trkpt lat="46.0926" lon="4.38739">
        <ele>546.6</ele>
        <time>2025-09-08T11:52:38Z</time>
      </trkpt>
      <trkpt lat="46.09256" lon="4.38739">
        <ele>546.4</ele>
        <time>2025-09-08T11:52:39Z</time>
      </trkpt>
      <trkpt lat="46.09252" lon="4.38739">
        <ele>546.4</ele>
        <time>2025-09-08T11:52:40Z</time>
      </trkpt>
      <trkpt lat="46.09248" lon="4.3874">
        <ele>546.4</ele>
        <time>2025-09-08T11:52:41Z</time>
      </trkpt>
      <trkpt lat="46.09245" lon="4.3874">
        <ele>546.4</ele>
        <time>2025-09-08T11:52:42Z</time>
      </trkpt>
      <trkpt lat="46.09241" lon="4.38741">
        <ele>546.6</ele>
        <time>2025-09-08T11:52:43Z</time>
      </trkpt>
      <trkpt lat="46.09236" lon="4.38741">
        <ele>546.6</ele>
        <time>2025-09-08T11:52:44Z</time>
      </trkpt>
      <trkpt lat="46.09232" lon="4.38742">
        <ele>546.6</ele>
        <time>2025-09-08T11:52:45Z</time>
      </trkpt>
      <trkpt lat="46.09228" lon="4.38743">
        <ele>546.6</ele>
        <time>2025-09-08T11:52:46Z</time>
      </trkpt>
      <trkpt lat="46.09223" lon="4.38743">
        <ele>546.6</ele>
        <time>2025-09-08T11:52:47Z</time>
      </trkpt>
      <trkpt lat="46.09219" lon="4.38744">
        <ele>546.6</ele>
        <time>2025-09-08T11:52:48Z</time>
      </trkpt>
      <trkpt lat="46.09214" lon="4.38745">
        <ele>546.6</ele>
        <time>2025-09-08T11:52:49Z</time>
      </trkpt>
      <trkpt lat="46.09209" lon="4.38747">
        <ele>546.6</ele>
        <time>2025-09-08T11:52:50Z</time>
      </trkpt>
      <trkpt lat="46.09205" lon="4.38749">
        <ele>546.6</ele>
        <time>2025-09-08T11:52:51Z</time>
      </trkpt>
      <trkpt lat="46.09201" lon="4.38749">
        <ele>546.6</ele>
        <time>2025-09-08T11:52:52Z</time>
      </trkpt>
      <trkpt lat="46.09196" lon="4.38749">
        <ele>546.6</ele>
        <time>2025-09-08T11:52:53Z</time>
      </trkpt>
      <trkpt lat="46.09192" lon="4.38751">
        <ele>546.6</ele>
        <time>2025-09-08T11:52:54Z</time>
      </trkpt>
      <trkpt lat="46.09188" lon="4.38751">
        <ele>546.6</ele>
        <time>2025-09-08T11:52:55Z</time>
      </trkpt>
      <trkpt lat="46.09183" lon="4.38752">
        <ele>546.6</ele>
        <time>2025-09-08T11:52:56Z</time>
      </trkpt>
      <trkpt lat="46.09178" lon="4.38753">
        <ele>546.8</ele>
        <time>2025-09-08T11:52:57Z</time>
      </trkpt>
      <trkpt lat="46.09174" lon="4.38755">
        <ele>546.8</ele>
        <time>2025-09-08T11:52:58Z</time>
      </trkpt>
      <trkpt lat="46.09169" lon="4.38757">
        <ele>546.8</ele>
        <time>2025-09-08T11:52:59Z</time>
      </trkpt>
      <trkpt lat="46.09164" lon="4.38759">
        <ele>546.8</ele>
        <time>2025-09-08T11:53:00Z</time>
      </trkpt>
      <trkpt lat="46.0916" lon="4.38761">
        <ele>546.8</ele>
        <time>2025-09-08T11:53:01Z</time>
      </trkpt>
      <trkpt lat="46.09156" lon="4.38763">
        <ele>546.8</ele>
        <time>2025-09-08T11:53:02Z</time>
      </trkpt>
      <trkpt lat="46.09152" lon="4.38766">
        <ele>547.2</ele>
        <time>2025-09-08T11:53:03Z</time>
      </trkpt>
      <trkpt lat="46.09147" lon="4.38768">
        <ele>547.2</ele>
        <time>2025-09-08T11:53:04Z</time>
      </trkpt>
      <trkpt lat="46.09143" lon="4.38771">
        <ele>547.2</ele>
        <time>2025-09-08T11:53:05Z</time>
      </trkpt>
      <trkpt lat="46.09139" lon="4.38774">
        <ele>547.4</ele>
        <time>2025-09-08T11:53:06Z</time>
      </trkpt>
      <trkpt lat="46.09135" lon="4.38776">
        <ele>547.4</ele>
        <time>2025-09-08T11:53:07Z</time>
      </trkpt>
      <trkpt lat="46.0913" lon="4.38778">
        <ele>547.4</ele>
        <time>2025-09-08T11:53:08Z</time>
      </trkpt>
      <trkpt lat="46.09127" lon="4.3878">
        <ele>547.6</ele>
        <time>2025-09-08T11:53:09Z</time>
      </trkpt>
      <trkpt lat="46.09123" lon="4.38783">
        <ele>547.6</ele>
        <time>2025-09-08T11:53:10Z</time>
      </trkpt>
      <trkpt lat="46.09119" lon="4.38786">
        <ele>547.6</ele>
        <time>2025-09-08T11:53:11Z</time>
      </trkpt>
      <trkpt lat="46.09114" lon="4.38788">
        <ele>547.6</ele>
        <time>2025-09-08T11:53:12Z</time>
      </trkpt>
      <trkpt lat="46.0911" lon="4.3879">
        <ele>547.6</ele>
        <time>2025-09-08T11:53:13Z</time>
      </trkpt>
      <trkpt lat="46.09106" lon="4.38793">
        <ele>547.6</ele>
        <time>2025-09-08T11:53:14Z</time>
      </trkpt>
      <trkpt lat="46.09102" lon="4.38796">
        <ele>547.6</ele>
        <time>2025-09-08T11:53:15Z</time>
      </trkpt>
      <trkpt lat="46.09098" lon="4.38799">
        <ele>547.6</ele>
        <time>2025-09-08T11:53:16Z</time>
      </trkpt>
      <trkpt lat="46.09093" lon="4.38802">
        <ele>547.6</ele>
        <time>2025-09-08T11:53:17Z</time>
      </trkpt>
      <trkpt lat="46.0909" lon="4.38805">
        <ele>547.4</ele>
        <time>2025-09-08T11:53:18Z</time>
      </trkpt>
      <trkpt lat="46.09085" lon="4.38807">
        <ele>547.4</ele>
        <time>2025-09-08T11:53:19Z</time>
      </trkpt>
      <trkpt lat="46.0908" lon="4.3881">
        <ele>547</ele>
        <time>2025-09-08T11:53:20Z</time>
      </trkpt>
      <trkpt lat="46.09076" lon="4.38813">
        <ele>547</ele>
        <time>2025-09-08T11:53:21Z</time>
      </trkpt>
      <trkpt lat="46.09071" lon="4.38815">
        <ele>547</ele>
        <time>2025-09-08T11:53:22Z</time>
      </trkpt>
      <trkpt lat="46.09067" lon="4.38817">
        <ele>547</ele>
        <time>2025-09-08T11:53:23Z</time>
      </trkpt>
      <trkpt lat="46.09063" lon="4.38819">
        <ele>546.8</ele>
        <time>2025-09-08T11:53:24Z</time>
      </trkpt>
      <trkpt lat="46.09059" lon="4.38821">
        <ele>546.8</ele>
        <time>2025-09-08T11:53:25Z</time>
      </trkpt>
      <trkpt lat="46.09055" lon="4.38825">
        <ele>546.8</ele>
        <time>2025-09-08T11:53:26Z</time>
      </trkpt>
      <trkpt lat="46.0905" lon="4.38827">
        <ele>546.8</ele>
        <time>2025-09-08T11:53:27Z</time>
      </trkpt>
      <trkpt lat="46.09046" lon="4.3883">
        <ele>546.8</ele>
        <time>2025-09-08T11:53:28Z</time>
      </trkpt>
      <trkpt lat="46.09041" lon="4.38833">
        <ele>546.8</ele>
        <time>2025-09-08T11:53:29Z</time>
      </trkpt>
      <trkpt lat="46.09036" lon="4.38836">
        <ele>546.6</ele>
        <time>2025-09-08T11:53:30Z</time>
      </trkpt>
      <trkpt lat="46.09031" lon="4.38838">
        <ele>546.6</ele>
        <time>2025-09-08T11:53:31Z</time>
      </trkpt>
      <trkpt lat="46.09026" lon="4.38842">
        <ele>546.4</ele>
        <time>2025-09-08T11:53:32Z</time>
      </trkpt>
      <trkpt lat="46.09021" lon="4.38847">
        <ele>546.2</ele>
        <time>2025-09-08T11:53:33Z</time>
      </trkpt>
      <trkpt lat="46.09018" lon="4.38853">
        <ele>545.8</ele>
        <time>2025-09-08T11:53:34Z</time>
      </trkpt>
      <trkpt lat="46.09015" lon="4.3886">
        <ele>545.4</ele>
        <time>2025-09-08T11:53:35Z</time>
      </trkpt>
      <trkpt lat="46.09014" lon="4.38869">
        <ele>545.2</ele>
        <time>2025-09-08T11:53:36Z</time>
      </trkpt>
      <trkpt lat="46.09013" lon="4.38878">
        <ele>544.8</ele>
        <time>2025-09-08T11:53:37Z</time>
      </trkpt>
      <trkpt lat="46.09012" lon="4.38884">
        <ele>544.6</ele>
        <time>2025-09-08T11:53:38Z</time>
      </trkpt>
      <trkpt lat="46.09011" lon="4.38893">
        <ele>544</ele>
        <time>2025-09-08T11:53:39Z</time>
      </trkpt>
      <trkpt lat="46.09009" lon="4.389">
        <ele>544</ele>
        <time>2025-09-08T11:53:40Z</time>
      </trkpt>
      <trkpt lat="46.09009" lon="4.389">
        <ele>543.6</ele>
        <time>2025-09-08T11:53:41Z</time>
      </trkpt>
      <trkpt lat="46.09007" lon="4.38908">
        <ele>543.6</ele>
        <time>2025-09-08T11:53:42Z</time>
      </trkpt>
      <trkpt lat="46.09004" lon="4.38914">
        <ele>543.4</ele>
        <time>2025-09-08T11:53:43Z</time>
      </trkpt>
      <trkpt lat="46.09001" lon="4.38918">
        <ele>543.2</ele>
        <time>2025-09-08T11:53:44Z</time>
      </trkpt>
      <trkpt lat="46.08999" lon="4.38922">
        <ele>543.2</ele>
        <time>2025-09-08T11:53:45Z</time>
      </trkpt>
      <trkpt lat="46.08997" lon="4.38924">
        <ele>542.8</ele>
        <time>2025-09-08T11:53:46Z</time>
      </trkpt>
      <trkpt lat="46.08996" lon="4.38925">
        <ele>542.8</ele>
        <time>2025-09-08T11:53:47Z</time>
      </trkpt>
      <trkpt lat="46.08996" lon="4.38927">
        <ele>542.8</ele>
        <time>2025-09-08T11:53:48Z</time>
      </trkpt>
      <trkpt lat="46.08995" lon="4.38928">
        <ele>542.8</ele>
        <time>2025-09-08T11:53:49Z</time>
      </trkpt>
      <trkpt lat="46.08995" lon="4.38929">
        <ele>542.8</ele>
        <time>2025-09-08T11:53:50Z</time>
      </trkpt>
      <trkpt lat="46.08992" lon="4.3893">
        <ele>542.8</ele>
        <time>2025-09-08T11:53:51Z</time>
      </trkpt>
      <trkpt lat="46.08991" lon="4.38931">
        <ele>542.8</ele>
        <time>2025-09-08T11:53:52Z</time>
      </trkpt>
      <trkpt lat="46.08989" lon="4.38931">
        <ele>542.8</ele>
        <time>2025-09-08T11:53:53Z</time>
      </trkpt>
      <trkpt lat="46.08987" lon="4.38931">
        <ele>543.2</ele>
        <time>2025-09-08T11:53:54Z</time>
      </trkpt>
      <trkpt lat="46.08986" lon="4.38932">
        <ele>543.2</ele>
        <time>2025-09-08T11:53:55Z</time>
      </trkpt>
      <trkpt lat="46.08986" lon="4.38932">
        <ele>543.2</ele>
        <time>2025-09-08T11:53:56Z</time>
      </trkpt>
      <trkpt lat="46.08984" lon="4.38932">
        <ele>543.2</ele>
        <time>2025-09-08T11:53:57Z</time>
      </trkpt>
      <trkpt lat="46.08983" lon="4.38931">
        <ele>543.2</ele>
        <time>2025-09-08T11:53:58Z</time>
      </trkpt>
      <trkpt lat="46.08982" lon="4.38929">
        <ele>543.4</ele>
        <time>2025-09-08T11:53:59Z</time>
      </trkpt>
      <trkpt lat="46.0898" lon="4.38925">
        <ele>543.4</ele>
        <time>2025-09-08T11:54:00Z</time>
      </trkpt>
      <trkpt lat="46.08979" lon="4.3892">
        <ele>543.4</ele>
        <time>2025-09-08T11:54:01Z</time>
      </trkpt>
      <trkpt lat="46.08978" lon="4.38913">
        <ele>543</ele>
        <time>2025-09-08T11:54:02Z</time>
      </trkpt>
      <trkpt lat="46.08977" lon="4.38907">
        <ele>542.6</ele>
        <time>2025-09-08T11:54:03Z</time>
      </trkpt>
      <trkpt lat="46.08974" lon="4.38899">
        <ele>542.2</ele>
        <time>2025-09-08T11:54:04Z</time>
      </trkpt>
      <trkpt lat="46.08971" lon="4.38891">
        <ele>541.8</ele>
        <time>2025-09-08T11:54:05Z</time>
      </trkpt>
      <trkpt lat="46.08968" lon="4.38881">
        <ele>542.6</ele>
        <time>2025-09-08T11:54:06Z</time>
      </trkpt>
      <trkpt lat="46.08965" lon="4.38871">
        <ele>542</ele>
        <time>2025-09-08T11:54:07Z</time>
      </trkpt>
      <trkpt lat="46.08962" lon="4.3886">
        <ele>541.4</ele>
        <time>2025-09-08T11:54:08Z</time>
      </trkpt>
      <trkpt lat="46.0896" lon="4.38849">
        <ele>540.6</ele>
        <time>2025-09-08T11:54:09Z</time>
      </trkpt>
      <trkpt lat="46.08956" lon="4.38838">
        <ele>540</ele>
        <time>2025-09-08T11:54:10Z</time>
      </trkpt>
      <trkpt lat="46.08953" lon="4.38827">
        <ele>539.2</ele>
        <time>2025-09-08T11:54:11Z</time>
      </trkpt>
      <trkpt lat="46.08951" lon="4.38816">
        <ele>539.2</ele>
        <time>2025-09-08T11:54:12Z</time>
      </trkpt>
      <trkpt lat="46.08948" lon="4.38806">
        <ele>538.6</ele>
        <time>2025-09-08T11:54:13Z</time>
      </trkpt>
      <trkpt lat="46.08945" lon="4.38796">
        <ele>538.6</ele>
        <time>2025-09-08T11:54:14Z</time>
      </trkpt>
      <trkpt lat="46.08944" lon="4.38787">
        <ele>538.4</ele>
        <time>2025-09-08T11:54:15Z</time>
      </trkpt>
      <trkpt lat="46.08943" lon="4.3878">
        <ele>538.4</ele>
        <time>2025-09-08T11:54:16Z</time>
      </trkpt>
      <trkpt lat="46.08941" lon="4.38775">
        <ele>538.2</ele>
        <time>2025-09-08T11:54:17Z</time>
      </trkpt>
      <trkpt lat="46.08939" lon="4.38773">
        <ele>538.2</ele>
        <time>2025-09-08T11:54:18Z</time>
      </trkpt>
      <trkpt lat="46.08937" lon="4.38771">
        <ele>538.2</ele>
        <time>2025-09-08T11:54:19Z</time>
      </trkpt>
      <trkpt lat="46.08934" lon="4.38771">
        <ele>538.6</ele>
        <time>2025-09-08T11:54:20Z</time>
      </trkpt>
      <trkpt lat="46.08932" lon="4.38773">
        <ele>538.6</ele>
        <time>2025-09-08T11:54:21Z</time>
      </trkpt>
      <trkpt lat="46.0893" lon="4.38772">
        <ele>538.6</ele>
        <time>2025-09-08T11:54:22Z</time>
      </trkpt>
      <trkpt lat="46.08927" lon="4.38774">
        <ele>538.8</ele>
        <time>2025-09-08T11:54:23Z</time>
      </trkpt>
      <trkpt lat="46.08925" lon="4.38777">
        <ele>538.8</ele>
        <time>2025-09-08T11:54:24Z</time>
      </trkpt>
      <trkpt lat="46.08923" lon="4.38778">
        <ele>539.2</ele>
        <time>2025-09-08T11:54:25Z</time>
      </trkpt>
      <trkpt lat="46.08919" lon="4.3878">
        <ele>539.2</ele>
        <time>2025-09-08T11:54:26Z</time>
      </trkpt>
      <trkpt lat="46.08917" lon="4.38782">
        <ele>539.4</ele>
        <time>2025-09-08T11:54:27Z</time>
      </trkpt>
      <trkpt lat="46.08914" lon="4.38784">
        <ele>539.6</ele>
        <time>2025-09-08T11:54:28Z</time>
      </trkpt>
      <trkpt lat="46.08911" lon="4.38786">
        <ele>539</ele>
        <time>2025-09-08T11:54:29Z</time>
      </trkpt>
      <trkpt lat="46.08908" lon="4.38788">
        <ele>539.4</ele>
        <time>2025-09-08T11:54:30Z</time>
      </trkpt>
      <trkpt lat="46.08905" lon="4.38789">
        <ele>539.6</ele>
        <time>2025-09-08T11:54:31Z</time>
      </trkpt>
      <trkpt lat="46.08902" lon="4.38791">
        <ele>539</ele>
        <time>2025-09-08T11:54:32Z</time>
      </trkpt>
      <trkpt lat="46.08899" lon="4.38792">
        <ele>539</ele>
        <time>2025-09-08T11:54:33Z</time>
      </trkpt>
      <trkpt lat="46.08896" lon="4.38793">
        <ele>539.8</ele>
        <time>2025-09-08T11:54:34Z</time>
      </trkpt>
      <trkpt lat="46.08893" lon="4.38794">
        <ele>540.2</ele>
        <time>2025-09-08T11:54:35Z</time>
      </trkpt>
      <trkpt lat="46.08891" lon="4.38795">
        <ele>540.6</ele>
        <time>2025-09-08T11:54:36Z</time>
      </trkpt>
      <trkpt lat="46.08889" lon="4.38796">
        <ele>540.8</ele>
        <time>2025-09-08T11:54:37Z</time>
      </trkpt>
      <trkpt lat="46.08887" lon="4.38797">
        <ele>541</ele>
        <time>2025-09-08T11:54:38Z</time>
      </trkpt>
      <trkpt lat="46.08885" lon="4.38798">
        <ele>541.4</ele>
        <time>2025-09-08T11:54:39Z</time>
      </trkpt>
      <trkpt lat="46.08883" lon="4.38798">
        <ele>541.4</ele>
        <time>2025-09-08T11:54:40Z</time>
      </trkpt>
      <trkpt lat="46.08881" lon="4.38799">
        <ele>541.6</ele>
        <time>2025-09-08T11:54:41Z</time>
      </trkpt>
      <trkpt lat="46.08879" lon="4.38799">
        <ele>541.6</ele>
        <time>2025-09-08T11:54:42Z</time>
      </trkpt>
      <trkpt lat="46.08876" lon="4.388">
        <ele>541.6</ele>
        <time>2025-09-08T11:54:43Z</time>
      </trkpt>
      <trkpt lat="46.08873" lon="4.388">
        <ele>541.6</ele>
        <time>2025-09-08T11:54:44Z</time>
      </trkpt>
      <trkpt lat="46.0887" lon="4.38801">
        <ele>542.2</ele>
        <time>2025-09-08T11:54:45Z</time>
      </trkpt>
      <trkpt lat="46.08867" lon="4.38801">
        <ele>542.2</ele>
        <time>2025-09-08T11:54:46Z</time>
      </trkpt>
      <trkpt lat="46.08865" lon="4.38802">
        <ele>542.2</ele>
        <time>2025-09-08T11:54:47Z</time>
      </trkpt>
      <trkpt lat="46.08862" lon="4.38802">
        <ele>542.2</ele>
        <time>2025-09-08T11:54:48Z</time>
      </trkpt>
      <trkpt lat="46.0886" lon="4.38802">
        <ele>542.4</ele>
        <time>2025-09-08T11:54:49Z</time>
      </trkpt>
      <trkpt lat="46.08858" lon="4.38802">
        <ele>542.4</ele>
        <time>2025-09-08T11:54:50Z</time>
      </trkpt>
      <trkpt lat="46.08855" lon="4.38802">
        <ele>542.4</ele>
        <time>2025-09-08T11:54:51Z</time>
      </trkpt>
      <trkpt lat="46.08852" lon="4.38801">
        <ele>542.4</ele>
        <time>2025-09-08T11:54:52Z</time>
      </trkpt>
      <trkpt lat="46.08849" lon="4.388">
        <ele>542.4</ele>
        <time>2025-09-08T11:54:53Z</time>
      </trkpt>
      <trkpt lat="46.08843" lon="4.38798">
        <ele>542.2</ele>
        <time>2025-09-08T11:54:54Z</time>
      </trkpt>
      <trkpt lat="46.08839" lon="4.38796">
        <ele>542.2</ele>
        <time>2025-09-08T11:54:55Z</time>
      </trkpt>
      <trkpt lat="46.08834" lon="4.38794">
        <ele>541.8</ele>
        <time>2025-09-08T11:54:56Z</time>
      </trkpt>
      <trkpt lat="46.08829" lon="4.3879">
        <ele>541.4</ele>
        <time>2025-09-08T11:54:57Z</time>
      </trkpt>
      <trkpt lat="46.08824" lon="4.38786">
        <ele>541</ele>
        <time>2025-09-08T11:54:58Z</time>
      </trkpt>
      <trkpt lat="46.08819" lon="4.38779">
        <ele>540.6</ele>
        <time>2025-09-08T11:54:59Z</time>
      </trkpt>
      <trkpt lat="46.08815" lon="4.38772">
        <ele>540.2</ele>
        <time>2025-09-08T11:55:00Z</time>
      </trkpt>
      <trkpt lat="46.08811" lon="4.38764">
        <ele>539.8</ele>
        <time>2025-09-08T11:55:01Z</time>
      </trkpt>
      <trkpt lat="46.08807" lon="4.38756">
        <ele>539.4</ele>
        <time>2025-09-08T11:55:02Z</time>
      </trkpt>
      <trkpt lat="46.08803" lon="4.38747">
        <ele>539.4</ele>
        <time>2025-09-08T11:55:03Z</time>
      </trkpt>
      <trkpt lat="46.08799" lon="4.38739">
        <ele>539.4</ele>
        <time>2025-09-08T11:55:04Z</time>
      </trkpt>
      <trkpt lat="46.08795" lon="4.38731">
        <ele>539</ele>
        <time>2025-09-08T11:55:05Z</time>
      </trkpt>
      <trkpt lat="46.08792" lon="4.38723">
        <ele>539</ele>
        <time>2025-09-08T11:55:06Z</time>
      </trkpt>
      <trkpt lat="46.08789" lon="4.38716">
        <ele>539</ele>
        <time>2025-09-08T11:55:07Z</time>
      </trkpt>
      <trkpt lat="46.08786" lon="4.38708">
        <ele>538.6</ele>
        <time>2025-09-08T11:55:08Z</time>
      </trkpt>
      <trkpt lat="46.08785" lon="4.38699">
        <ele>538.6</ele>
        <time>2025-09-08T11:55:09Z</time>
      </trkpt>
      <trkpt lat="46.08783" lon="4.38691">
        <ele>538.4</ele>
        <time>2025-09-08T11:55:10Z</time>
      </trkpt>
      <trkpt lat="46.08783" lon="4.38681">
        <ele>538.4</ele>
        <time>2025-09-08T11:55:11Z</time>
      </trkpt>
      <trkpt lat="46.08783" lon="4.38673">
        <ele>538.4</ele>
        <time>2025-09-08T11:55:12Z</time>
      </trkpt>
      <trkpt lat="46.08782" lon="4.38663">
        <ele>538.4</ele>
        <time>2025-09-08T11:55:13Z</time>
      </trkpt>
      <trkpt lat="46.08781" lon="4.38654">
        <ele>538.4</ele>
        <time>2025-09-08T11:55:14Z</time>
      </trkpt>
      <trkpt lat="46.08781" lon="4.38645">
        <ele>538</ele>
        <time>2025-09-08T11:55:15Z</time>
      </trkpt>
      <trkpt lat="46.0878" lon="4.38637">
        <ele>538</ele>
        <time>2025-09-08T11:55:16Z</time>
      </trkpt>
      <trkpt lat="46.08779" lon="4.38629">
        <ele>538</ele>
        <time>2025-09-08T11:55:17Z</time>
      </trkpt>
      <trkpt lat="46.08777" lon="4.3862">
        <ele>538</ele>
        <time>2025-09-08T11:55:18Z</time>
      </trkpt>
      <trkpt lat="46.08776" lon="4.38613">
        <ele>538</ele>
        <time>2025-09-08T11:55:19Z</time>
      </trkpt>
      <trkpt lat="46.08775" lon="4.38605">
        <ele>538.2</ele>
        <time>2025-09-08T11:55:20Z</time>
      </trkpt>
      <trkpt lat="46.08773" lon="4.38599">
        <ele>538.2</ele>
        <time>2025-09-08T11:55:21Z</time>
      </trkpt>
      <trkpt lat="46.08772" lon="4.38592">
        <ele>538.4</ele>
        <time>2025-09-08T11:55:22Z</time>
      </trkpt>
      <trkpt lat="46.08771" lon="4.38586">
        <ele>538.4</ele>
        <time>2025-09-08T11:55:23Z</time>
      </trkpt>
      <trkpt lat="46.08769" lon="4.38581">
        <ele>538.8</ele>
        <time>2025-09-08T11:55:24Z</time>
      </trkpt>
      <trkpt lat="46.08768" lon="4.38579">
        <ele>539</ele>
        <time>2025-09-08T11:55:25Z</time>
      </trkpt>
      <trkpt lat="46.08765" lon="4.38573">
        <ele>539.4</ele>
        <time>2025-09-08T11:55:26Z</time>
      </trkpt>
      <trkpt lat="46.08762" lon="4.38569">
        <ele>539.4</ele>
        <time>2025-09-08T11:55:27Z</time>
      </trkpt>
      <trkpt lat="46.08759" lon="4.38566">
        <ele>539.4</ele>
        <time>2025-09-08T11:55:28Z</time>
      </trkpt>
      <trkpt lat="46.08756" lon="4.38562">
        <ele>539.6</ele>
        <time>2025-09-08T11:55:29Z</time>
      </trkpt>
      <trkpt lat="46.08752" lon="4.38558">
        <ele>539.6</ele>
        <time>2025-09-08T11:55:30Z</time>
      </trkpt>
      <trkpt lat="46.08749" lon="4.38554">
        <ele>539.6</ele>
        <time>2025-09-08T11:55:31Z</time>
      </trkpt>
      <trkpt lat="46.08745" lon="4.38552">
        <ele>540</ele>
        <time>2025-09-08T11:55:32Z</time>
      </trkpt>
      <trkpt lat="46.08741" lon="4.38551">
        <ele>540</ele>
        <time>2025-09-08T11:55:33Z</time>
      </trkpt>
      <trkpt lat="46.08737" lon="4.38549">
        <ele>540</ele>
        <time>2025-09-08T11:55:34Z</time>
      </trkpt>
      <trkpt lat="46.08734" lon="4.38546">
        <ele>540</ele>
        <time>2025-09-08T11:55:35Z</time>
      </trkpt>
      <trkpt lat="46.0873" lon="4.38543">
        <ele>540</ele>
        <time>2025-09-08T11:55:36Z</time>
      </trkpt>
      <trkpt lat="46.08725" lon="4.38541">
        <ele>540</ele>
        <time>2025-09-08T11:55:37Z</time>
      </trkpt>
      <trkpt lat="46.08721" lon="4.38539">
        <ele>540.4</ele>
        <time>2025-09-08T11:55:38Z</time>
      </trkpt>
      <trkpt lat="46.08716" lon="4.38536">
        <ele>540.4</ele>
        <time>2025-09-08T11:55:39Z</time>
      </trkpt>
      <trkpt lat="46.08712" lon="4.38534">
        <ele>540.4</ele>
        <time>2025-09-08T11:55:40Z</time>
      </trkpt>
      <trkpt lat="46.08708" lon="4.38531">
        <ele>540.4</ele>
        <time>2025-09-08T11:55:41Z</time>
      </trkpt>
      <trkpt lat="46.08705" lon="4.38526">
        <ele>540.4</ele>
        <time>2025-09-08T11:55:42Z</time>
      </trkpt>
      <trkpt lat="46.08703" lon="4.38521">
        <ele>540.4</ele>
        <time>2025-09-08T11:55:43Z</time>
      </trkpt>
      <trkpt lat="46.087" lon="4.38515">
        <ele>540</ele>
        <time>2025-09-08T11:55:44Z</time>
      </trkpt>
      <trkpt lat="46.08697" lon="4.38509">
        <ele>539.8</ele>
        <time>2025-09-08T11:55:45Z</time>
      </trkpt>
      <trkpt lat="46.08694" lon="4.38506">
        <ele>539.2</ele>
        <time>2025-09-08T11:55:46Z</time>
      </trkpt>
      <trkpt lat="46.0869" lon="4.38505">
        <ele>538.8</ele>
        <time>2025-09-08T11:55:47Z</time>
      </trkpt>
      <trkpt lat="46.08687" lon="4.38504">
        <ele>538.8</ele>
        <time>2025-09-08T11:55:48Z</time>
      </trkpt>
      <trkpt lat="46.08683" lon="4.38504">
        <ele>538.6</ele>
        <time>2025-09-08T11:55:49Z</time>
      </trkpt>
      <trkpt lat="46.08677" lon="4.38504">
        <ele>538.4</ele>
        <time>2025-09-08T11:55:50Z</time>
      </trkpt>
      <trkpt lat="46.0867" lon="4.38505">
        <ele>537.6</ele>
        <time>2025-09-08T11:55:51Z</time>
      </trkpt>
      <trkpt lat="46.08665" lon="4.38506">
        <ele>537</ele>
        <time>2025-09-08T11:55:52Z</time>
      </trkpt>
      <trkpt lat="46.08662" lon="4.38507">
        <ele>536.6</ele>
        <time>2025-09-08T11:55:53Z</time>
      </trkpt>
      <trkpt lat="46.08659" lon="4.38508">
        <ele>536.2</ele>
        <time>2025-09-08T11:55:54Z</time>
      </trkpt>
      <trkpt lat="46.08658" lon="4.38508">
        <ele>536.2</ele>
        <time>2025-09-08T11:55:55Z</time>
      </trkpt>
      <trkpt lat="46.08657" lon="4.38509">
        <ele>536.2</ele>
        <time>2025-09-08T11:55:56Z</time>
      </trkpt>
      <trkpt lat="46.08658" lon="4.3851">
        <ele>536.2</ele>
        <time>2025-09-08T11:55:57Z</time>
      </trkpt>
      <trkpt lat="46.08659" lon="4.38511">
        <ele>536</ele>
        <time>2025-09-08T11:55:58Z</time>
      </trkpt>
      <trkpt lat="46.0866" lon="4.38511">
        <ele>536</ele>
        <time>2025-09-08T11:55:59Z</time>
      </trkpt>
      <trkpt lat="46.08662" lon="4.38509">
        <ele>535.8</ele>
        <time>2025-09-08T11:56:00Z</time>
      </trkpt>
      <trkpt lat="46.08664" lon="4.38509">
        <ele>535.8</ele>
        <time>2025-09-08T11:56:01Z</time>
      </trkpt>
      <trkpt lat="46.08666" lon="4.38508">
        <ele>535.4</ele>
        <time>2025-09-08T11:56:02Z</time>
      </trkpt>
      <trkpt lat="46.08666" lon="4.38511">
        <ele>535.4</ele>
        <time>2025-09-08T11:56:03Z</time>
      </trkpt>
      <trkpt lat="46.08665" lon="4.38514">
        <ele>535.2</ele>
        <time>2025-09-08T11:56:04Z</time>
      </trkpt>
      <trkpt lat="46.08662" lon="4.38515">
        <ele>535.2</ele>
        <time>2025-09-08T11:56:05Z</time>
      </trkpt>
      <trkpt lat="46.0866" lon="4.38517">
        <ele>535.2</ele>
        <time>2025-09-08T11:56:06Z</time>
      </trkpt>
      <trkpt lat="46.08657" lon="4.38518">
        <ele>535.2</ele>
        <time>2025-09-08T11:56:07Z</time>
      </trkpt>
      <trkpt lat="46.08655" lon="4.3852">
        <ele>534.8</ele>
        <time>2025-09-08T11:56:08Z</time>
      </trkpt>
      <trkpt lat="46.08651" lon="4.38523">
        <ele>534.8</ele>
        <time>2025-09-08T11:56:09Z</time>
      </trkpt>
      <trkpt lat="46.08648" lon="4.38526">
        <ele>534.8</ele>
        <time>2025-09-08T11:56:10Z</time>
      </trkpt>
      <trkpt lat="46.08646" lon="4.38528">
        <ele>534.4</ele>
        <time>2025-09-08T11:56:11Z</time>
      </trkpt>
      <trkpt lat="46.08646" lon="4.38532">
        <ele>534.2</ele>
        <time>2025-09-08T11:56:12Z</time>
      </trkpt>
      <trkpt lat="46.08646" lon="4.38536">
        <ele>534</ele>
        <time>2025-09-08T11:56:13Z</time>
      </trkpt>
      <trkpt lat="46.08649" lon="4.3854">
        <ele>533.8</ele>
        <time>2025-09-08T11:56:14Z</time>
      </trkpt>
      <trkpt lat="46.08652" lon="4.38544">
        <ele>533.2</ele>
        <time>2025-09-08T11:56:15Z</time>
      </trkpt>
      <trkpt lat="46.08661" lon="4.38547">
        <ele>533</ele>
        <time>2025-09-08T11:56:16Z</time>
      </trkpt>
      <trkpt lat="46.08664" lon="4.38551">
        <ele>533</ele>
        <time>2025-09-08T11:56:17Z</time>
      </trkpt>
      <trkpt lat="46.08668" lon="4.38557">
        <ele>533</ele>
        <time>2025-09-08T11:56:18Z</time>
      </trkpt>
      <trkpt lat="46.08672" lon="4.38562">
        <ele>532.8</ele>
        <time>2025-09-08T11:56:19Z</time>
      </trkpt>
      <trkpt lat="46.08678" lon="4.38567">
        <ele>532.8</ele>
        <time>2025-09-08T11:56:20Z</time>
      </trkpt>
      <trkpt lat="46.08683" lon="4.3857">
        <ele>532.8</ele>
        <time>2025-09-08T11:56:21Z</time>
      </trkpt>
      <trkpt lat="46.08688" lon="4.38571">
        <ele>532.4</ele>
        <time>2025-09-08T11:56:22Z</time>
      </trkpt>
      <trkpt lat="46.08693" lon="4.38573">
        <ele>532.4</ele>
        <time>2025-09-08T11:56:23Z</time>
      </trkpt>
      <trkpt lat="46.08697" lon="4.38573">
        <ele>532.4</ele>
        <time>2025-09-08T11:56:24Z</time>
      </trkpt>
      <trkpt lat="46.08703" lon="4.38574">
        <ele>532</ele>
        <time>2025-09-08T11:56:25Z</time>
      </trkpt>
      <trkpt lat="46.08706" lon="4.38575">
        <ele>532</ele>
        <time>2025-09-08T11:56:26Z</time>
      </trkpt>
      <trkpt lat="46.08712" lon="4.38577">
        <ele>532</ele>
        <time>2025-09-08T11:56:27Z</time>
      </trkpt>
      <trkpt lat="46.08716" lon="4.38579">
        <ele>531.4</ele>
        <time>2025-09-08T11:56:28Z</time>
      </trkpt>
      <trkpt lat="46.08721" lon="4.38582">
        <ele>531.4</ele>
        <time>2025-09-08T11:56:29Z</time>
      </trkpt>
      <trkpt lat="46.08726" lon="4.38584">
        <ele>531.4</ele>
        <time>2025-09-08T11:56:30Z</time>
      </trkpt>
      <trkpt lat="46.0873" lon="4.38589">
        <ele>531</ele>
        <time>2025-09-08T11:56:31Z</time>
      </trkpt>
      <trkpt lat="46.08734" lon="4.38594">
        <ele>531.4</ele>
        <time>2025-09-08T11:56:32Z</time>
      </trkpt>
      <trkpt lat="46.08737" lon="4.386">
        <ele>531.4</ele>
        <time>2025-09-08T11:56:33Z</time>
      </trkpt>
      <trkpt lat="46.08739" lon="4.38608">
        <ele>531.2</ele>
        <time>2025-09-08T11:56:34Z</time>
      </trkpt>
      <trkpt lat="46.08739" lon="4.38616">
        <ele>531.2</ele>
        <time>2025-09-08T11:56:35Z</time>
      </trkpt>
      <trkpt lat="46.0874" lon="4.38624">
        <ele>531.2</ele>
        <time>2025-09-08T11:56:36Z</time>
      </trkpt>
      <trkpt lat="46.08741" lon="4.38631">
        <ele>531.2</ele>
        <time>2025-09-08T11:56:37Z</time>
      </trkpt>
      <trkpt lat="46.08741" lon="4.38638">
        <ele>531.2</ele>
        <time>2025-09-08T11:56:38Z</time>
      </trkpt>
      <trkpt lat="46.08742" lon="4.38643">
        <ele>531.2</ele>
        <time>2025-09-08T11:56:39Z</time>
      </trkpt>
      <trkpt lat="46.08737" lon="4.3865">
        <ele>531.2</ele>
        <time>2025-09-08T11:56:40Z</time>
      </trkpt>
      <trkpt lat="46.08734" lon="4.38655">
        <ele>531.2</ele>
        <time>2025-09-08T11:56:41Z</time>
      </trkpt>
      <trkpt lat="46.08729" lon="4.38659">
        <ele>531.2</ele>
        <time>2025-09-08T11:56:42Z</time>
      </trkpt>
      <trkpt lat="46.08725" lon="4.38662">
        <ele>531.2</ele>
        <time>2025-09-08T11:56:43Z</time>
      </trkpt>
      <trkpt lat="46.0872" lon="4.38664">
        <ele>531.2</ele>
        <time>2025-09-08T11:56:44Z</time>
      </trkpt>
      <trkpt lat="46.08715" lon="4.38667">
        <ele>531.4</ele>
        <time>2025-09-08T11:56:45Z</time>
      </trkpt>
      <trkpt lat="46.0871" lon="4.38668">
        <ele>531.4</ele>
        <time>2025-09-08T11:56:46Z</time>
      </trkpt>
      <trkpt lat="46.08706" lon="4.38669">
        <ele>531.4</ele>
        <time>2025-09-08T11:56:47Z</time>
      </trkpt>
      <trkpt lat="46.087" lon="4.3867">
        <ele>531.4</ele>
        <time>2025-09-08T11:56:48Z</time>
      </trkpt>
      <trkpt lat="46.0869" lon="4.38673">
        <ele>531.4</ele>
        <time>2025-09-08T11:56:49Z</time>
      </trkpt>
      <trkpt lat="46.08686" lon="4.38674">
        <ele>531.4</ele>
        <time>2025-09-08T11:56:50Z</time>
      </trkpt>
      <trkpt lat="46.08682" lon="4.38676">
        <ele>531.4</ele>
        <time>2025-09-08T11:56:51Z</time>
      </trkpt>
      <trkpt lat="46.08677" lon="4.38677">
        <ele>531.4</ele>
        <time>2025-09-08T11:56:52Z</time>
      </trkpt>
      <trkpt lat="46.08673" lon="4.38679">
        <ele>531.8</ele>
        <time>2025-09-08T11:56:53Z</time>
      </trkpt>
      <trkpt lat="46.08668" lon="4.38681">
        <ele>531.8</ele>
        <time>2025-09-08T11:56:54Z</time>
      </trkpt>
      <trkpt lat="46.08664" lon="4.38683">
        <ele>531.8</ele>
        <time>2025-09-08T11:56:55Z</time>
      </trkpt>
      <trkpt lat="46.0866" lon="4.38684">
        <ele>532</ele>
        <time>2025-09-08T11:56:56Z</time>
      </trkpt>
      <trkpt lat="46.08657" lon="4.38686">
        <ele>532.4</ele>
        <time>2025-09-08T11:56:57Z</time>
      </trkpt>
      <trkpt lat="46.08653" lon="4.38687">
        <ele>532.4</ele>
        <time>2025-09-08T11:56:58Z</time>
      </trkpt>
      <trkpt lat="46.08649" lon="4.38688">
        <ele>532.4</ele>
        <time>2025-09-08T11:56:59Z</time>
      </trkpt>
      <trkpt lat="46.08646" lon="4.3869">
        <ele>532.4</ele>
        <time>2025-09-08T11:57:00Z</time>
      </trkpt>
      <trkpt lat="46.08642" lon="4.38691">
        <ele>532.4</ele>
        <time>2025-09-08T11:57:01Z</time>
      </trkpt>
      <trkpt lat="46.08638" lon="4.38693">
        <ele>532.4</ele>
        <time>2025-09-08T11:57:02Z</time>
      </trkpt>
      <trkpt lat="46.08634" lon="4.38695">
        <ele>532.4</ele>
        <time>2025-09-08T11:57:03Z</time>
      </trkpt>
      <trkpt lat="46.08631" lon="4.38696">
        <ele>532.6</ele>
        <time>2025-09-08T11:57:04Z</time>
      </trkpt>
      <trkpt lat="46.08627" lon="4.38698">
        <ele>532.6</ele>
        <time>2025-09-08T11:57:05Z</time>
      </trkpt>
      <trkpt lat="46.08623" lon="4.38699">
        <ele>532.6</ele>
        <time>2025-09-08T11:57:06Z</time>
      </trkpt>
      <trkpt lat="46.08619" lon="4.38701">
        <ele>532.6</ele>
        <time>2025-09-08T11:57:07Z</time>
      </trkpt>
      <trkpt lat="46.08615" lon="4.38704">
        <ele>532.6</ele>
        <time>2025-09-08T11:57:08Z</time>
      </trkpt>
      <trkpt lat="46.08612" lon="4.38706">
        <ele>532.6</ele>
        <time>2025-09-08T11:57:09Z</time>
      </trkpt>
      <trkpt lat="46.08608" lon="4.38708">
        <ele>532.8</ele>
        <time>2025-09-08T11:57:10Z</time>
      </trkpt>
      <trkpt lat="46.08605" lon="4.3871">
        <ele>532.8</ele>
        <time>2025-09-08T11:57:11Z</time>
      </trkpt>
      <trkpt lat="46.08601" lon="4.38712">
        <ele>532.8</ele>
        <time>2025-09-08T11:57:12Z</time>
      </trkpt>
      <trkpt lat="46.08596" lon="4.38715">
        <ele>532.8</ele>
        <time>2025-09-08T11:57:13Z</time>
      </trkpt>
      <trkpt lat="46.08593" lon="4.38718">
        <ele>532.8</ele>
        <time>2025-09-08T11:57:14Z</time>
      </trkpt>
      <trkpt lat="46.08589" lon="4.3872">
        <ele>532.6</ele>
        <time>2025-09-08T11:57:15Z</time>
      </trkpt>
      <trkpt lat="46.08584" lon="4.38722">
        <ele>532.6</ele>
        <time>2025-09-08T11:57:16Z</time>
      </trkpt>
      <trkpt lat="46.08581" lon="4.38725">
        <ele>532.6</ele>
        <time>2025-09-08T11:57:17Z</time>
      </trkpt>
      <trkpt lat="46.08576" lon="4.38728">
        <ele>532.6</ele>
        <time>2025-09-08T11:57:18Z</time>
      </trkpt>
      <trkpt lat="46.08571" lon="4.38731">
        <ele>532.8</ele>
        <time>2025-09-08T11:57:19Z</time>
      </trkpt>
      <trkpt lat="46.08568" lon="4.38734">
        <ele>532.8</ele>
        <time>2025-09-08T11:57:20Z</time>
      </trkpt>
      <trkpt lat="46.08564" lon="4.38737">
        <ele>532.8</ele>
        <time>2025-09-08T11:57:21Z</time>
      </trkpt>
      <trkpt lat="46.0856" lon="4.38741">
        <ele>532.6</ele>
        <time>2025-09-08T11:57:22Z</time>
      </trkpt>
      <trkpt lat="46.08556" lon="4.38745">
        <ele>532.6</ele>
        <time>2025-09-08T11:57:23Z</time>
      </trkpt>
      <trkpt lat="46.08552" lon="4.38749">
        <ele>532.6</ele>
        <time>2025-09-08T11:57:24Z</time>
      </trkpt>
      <trkpt lat="46.08548" lon="4.38754">
        <ele>532.6</ele>
        <time>2025-09-08T11:57:25Z</time>
      </trkpt>
      <trkpt lat="46.08544" lon="4.38757">
        <ele>532.6</ele>
        <time>2025-09-08T11:57:26Z</time>
      </trkpt>
      <trkpt lat="46.08539" lon="4.38761">
        <ele>532.8</ele>
        <time>2025-09-08T11:57:27Z</time>
      </trkpt>
      <trkpt lat="46.08536" lon="4.38765">
        <ele>532.8</ele>
        <time>2025-09-08T11:57:28Z</time>
      </trkpt>
      <trkpt lat="46.08534" lon="4.38769">
        <ele>532.8</ele>
        <time>2025-09-08T11:57:29Z</time>
      </trkpt>
      <trkpt lat="46.0853" lon="4.38774">
        <ele>532.8</ele>
        <time>2025-09-08T11:57:30Z</time>
      </trkpt>
      <trkpt lat="46.08528" lon="4.38778">
        <ele>533</ele>
        <time>2025-09-08T11:57:31Z</time>
      </trkpt>
      <trkpt lat="46.08524" lon="4.38781">
        <ele>533</ele>
        <time>2025-09-08T11:57:32Z</time>
      </trkpt>
      <trkpt lat="46.0852" lon="4.38786">
        <ele>533</ele>
        <time>2025-09-08T11:57:33Z</time>
      </trkpt>
      <trkpt lat="46.08517" lon="4.38787">
        <ele>533</ele>
        <time>2025-09-08T11:57:34Z</time>
      </trkpt>
      <trkpt lat="46.08514" lon="4.38792">
        <ele>532.8</ele>
        <time>2025-09-08T11:57:35Z</time>
      </trkpt>
      <trkpt lat="46.08511" lon="4.38796">
        <ele>532.8</ele>
        <time>2025-09-08T11:57:36Z</time>
      </trkpt>
      <trkpt lat="46.08509" lon="4.38799">
        <ele>532.8</ele>
        <time>2025-09-08T11:57:37Z</time>
      </trkpt>
      <trkpt lat="46.08506" lon="4.38802">
        <ele>532.8</ele>
        <time>2025-09-08T11:57:38Z</time>
      </trkpt>
      <trkpt lat="46.08503" lon="4.38805">
        <ele>533.2</ele>
        <time>2025-09-08T11:57:39Z</time>
      </trkpt>
      <trkpt lat="46.085" lon="4.38807">
        <ele>533.2</ele>
        <time>2025-09-08T11:57:40Z</time>
      </trkpt>
      <trkpt lat="46.08497" lon="4.3881">
        <ele>533.2</ele>
        <time>2025-09-08T11:57:41Z</time>
      </trkpt>
      <trkpt lat="46.08497" lon="4.3881">
        <ele>533.2</ele>
        <time>2025-09-08T11:57:42Z</time>
      </trkpt>
      <trkpt lat="46.08494" lon="4.38813">
        <ele>533.4</ele>
        <time>2025-09-08T11:57:43Z</time>
      </trkpt>
      <trkpt lat="46.08492" lon="4.38816">
        <ele>533.4</ele>
        <time>2025-09-08T11:57:44Z</time>
      </trkpt>
      <trkpt lat="46.08489" lon="4.38818">
        <ele>533.4</ele>
        <time>2025-09-08T11:57:45Z</time>
      </trkpt>
      <trkpt lat="46.08486" lon="4.3882">
        <ele>533.4</ele>
        <time>2025-09-08T11:57:46Z</time>
      </trkpt>
      <trkpt lat="46.08483" lon="4.38823">
        <ele>533.4</ele>
        <time>2025-09-08T11:57:47Z</time>
      </trkpt>
      <trkpt lat="46.0848" lon="4.38825">
        <ele>533.6</ele>
        <time>2025-09-08T11:57:48Z</time>
      </trkpt>
      <trkpt lat="46.08478" lon="4.38829">
        <ele>533.6</ele>
        <time>2025-09-08T11:57:49Z</time>
      </trkpt>
      <trkpt lat="46.08476" lon="4.38832">
        <ele>533.6</ele>
        <time>2025-09-08T11:57:50Z</time>
      </trkpt>
      <trkpt lat="46.08473" lon="4.38835">
        <ele>533.6</ele>
        <time>2025-09-08T11:57:51Z</time>
      </trkpt>
      <trkpt lat="46.0847" lon="4.38838">
        <ele>533.6</ele>
        <time>2025-09-08T11:57:52Z</time>
      </trkpt>
      <trkpt lat="46.08466" lon="4.3884">
        <ele>533.6</ele>
        <time>2025-09-08T11:57:53Z</time>
      </trkpt>
      <trkpt lat="46.0846" lon="4.38842">
        <ele>533.4</ele>
        <time>2025-09-08T11:57:54Z</time>
      </trkpt>
      <trkpt lat="46.08456" lon="4.38845">
        <ele>533.2</ele>
        <time>2025-09-08T11:57:55Z</time>
      </trkpt>
      <trkpt lat="46.08451" lon="4.38848">
        <ele>533.2</ele>
        <time>2025-09-08T11:57:56Z</time>
      </trkpt>
      <trkpt lat="46.08447" lon="4.38852">
        <ele>533</ele>
        <time>2025-09-08T11:57:57Z</time>
      </trkpt>
      <trkpt lat="46.08442" lon="4.38856">
        <ele>533</ele>
        <time>2025-09-08T11:57:58Z</time>
      </trkpt>
      <trkpt lat="46.08437" lon="4.3886">
        <ele>532.6</ele>
        <time>2025-09-08T11:57:59Z</time>
      </trkpt>
      <trkpt lat="46.08432" lon="4.38864">
        <ele>532.4</ele>
        <time>2025-09-08T11:58:00Z</time>
      </trkpt>
      <trkpt lat="46.08426" lon="4.38867">
        <ele>532.2</ele>
        <time>2025-09-08T11:58:01Z</time>
      </trkpt>
      <trkpt lat="46.0842" lon="4.38871">
        <ele>532</ele>
        <time>2025-09-08T11:58:02Z</time>
      </trkpt>
      <trkpt lat="46.08414" lon="4.38875">
        <ele>531.8</ele>
        <time>2025-09-08T11:58:03Z</time>
      </trkpt>
      <trkpt lat="46.08408" lon="4.38879">
        <ele>531.4</ele>
        <time>2025-09-08T11:58:04Z</time>
      </trkpt>
      <trkpt lat="46.08403" lon="4.38884">
        <ele>531.2</ele>
        <time>2025-09-08T11:58:05Z</time>
      </trkpt>
      <trkpt lat="46.08396" lon="4.3889">
        <ele>530.6</ele>
        <time>2025-09-08T11:58:06Z</time>
      </trkpt>
      <trkpt lat="46.0839" lon="4.38894">
        <ele>530.4</ele>
        <time>2025-09-08T11:58:07Z</time>
      </trkpt>
      <trkpt lat="46.08384" lon="4.38898">
        <ele>530</ele>
        <time>2025-09-08T11:58:08Z</time>
      </trkpt>
      <trkpt lat="46.08378" lon="4.38901">
        <ele>529.8</ele>
        <time>2025-09-08T11:58:09Z</time>
      </trkpt>
      <trkpt lat="46.08373" lon="4.38902">
        <ele>529.2</ele>
        <time>2025-09-08T11:58:10Z</time>
      </trkpt>
      <trkpt lat="46.08368" lon="4.38903">
        <ele>528.4</ele>
        <time>2025-09-08T11:58:11Z</time>
      </trkpt>
      <trkpt lat="46.08363" lon="4.38902">
        <ele>528</ele>
        <time>2025-09-08T11:58:12Z</time>
      </trkpt>
      <trkpt lat="46.08358" lon="4.38901">
        <ele>528</ele>
        <time>2025-09-08T11:58:13Z</time>
      </trkpt>
      <trkpt lat="46.08352" lon="4.38901">
        <ele>527.6</ele>
        <time>2025-09-08T11:58:14Z</time>
      </trkpt>
      <trkpt lat="46.08347" lon="4.38904">
        <ele>527.4</ele>
        <time>2025-09-08T11:58:15Z</time>
      </trkpt>
      <trkpt lat="46.08342" lon="4.38909">
        <ele>527</ele>
        <time>2025-09-08T11:58:16Z</time>
      </trkpt>
      <trkpt lat="46.08338" lon="4.38913">
        <ele>526.8</ele>
        <time>2025-09-08T11:58:17Z</time>
      </trkpt>
      <trkpt lat="46.08333" lon="4.38918">
        <ele>526.8</ele>
        <time>2025-09-08T11:58:18Z</time>
      </trkpt>
      <trkpt lat="46.08329" lon="4.38923">
        <ele>526.8</ele>
        <time>2025-09-08T11:58:19Z</time>
      </trkpt>
      <trkpt lat="46.08324" lon="4.38929">
        <ele>526.6</ele>
        <time>2025-09-08T11:58:20Z</time>
      </trkpt>
      <trkpt lat="46.08319" lon="4.38934">
        <ele>526.2</ele>
        <time>2025-09-08T11:58:21Z</time>
      </trkpt>
      <trkpt lat="46.08315" lon="4.3894">
        <ele>526</ele>
        <time>2025-09-08T11:58:22Z</time>
      </trkpt>
      <trkpt lat="46.08311" lon="4.38946">
        <ele>526</ele>
        <time>2025-09-08T11:58:23Z</time>
      </trkpt>
      <trkpt lat="46.08306" lon="4.38952">
        <ele>526</ele>
        <time>2025-09-08T11:58:24Z</time>
      </trkpt>
      <trkpt lat="46.083" lon="4.38957">
        <ele>525.8</ele>
        <time>2025-09-08T11:58:25Z</time>
      </trkpt>
      <trkpt lat="46.08296" lon="4.38963">
        <ele>525.8</ele>
        <time>2025-09-08T11:58:26Z</time>
      </trkpt>
      <trkpt lat="46.0829" lon="4.38969">
        <ele>525.4</ele>
        <time>2025-09-08T11:58:27Z</time>
      </trkpt>
      <trkpt lat="46.08283" lon="4.38975">
        <ele>525.4</ele>
        <time>2025-09-08T11:58:28Z</time>
      </trkpt>
      <trkpt lat="46.08281" lon="4.38981">
        <ele>525.4</ele>
        <time>2025-09-08T11:58:29Z</time>
      </trkpt>
      <trkpt lat="46.08276" lon="4.38986">
        <ele>525.2</ele>
        <time>2025-09-08T11:58:30Z</time>
      </trkpt>
      <trkpt lat="46.0827" lon="4.38992">
        <ele>525.2</ele>
        <time>2025-09-08T11:58:31Z</time>
      </trkpt>
      <trkpt lat="46.08265" lon="4.38997">
        <ele>525.2</ele>
        <time>2025-09-08T11:58:32Z</time>
      </trkpt>
      <trkpt lat="46.0826" lon="4.39002">
        <ele>525.2</ele>
        <time>2025-09-08T11:58:33Z</time>
      </trkpt>
      <trkpt lat="46.08254" lon="4.39008">
        <ele>524.6</ele>
        <time>2025-09-08T11:58:34Z</time>
      </trkpt>
      <trkpt lat="46.08249" lon="4.39013">
        <ele>524.6</ele>
        <time>2025-09-08T11:58:35Z</time>
      </trkpt>
      <trkpt lat="46.08245" lon="4.39018">
        <ele>524.4</ele>
        <time>2025-09-08T11:58:36Z</time>
      </trkpt>
      <trkpt lat="46.0824" lon="4.39023">
        <ele>524.4</ele>
        <time>2025-09-08T11:58:37Z</time>
      </trkpt>
      <trkpt lat="46.08236" lon="4.39028">
        <ele>524.2</ele>
        <time>2025-09-08T11:58:38Z</time>
      </trkpt>
      <trkpt lat="46.0823" lon="4.39032">
        <ele>524.4</ele>
        <time>2025-09-08T11:58:39Z</time>
      </trkpt>
      <trkpt lat="46.08226" lon="4.39038">
        <ele>524.4</ele>
        <time>2025-09-08T11:58:40Z</time>
      </trkpt>
      <trkpt lat="46.08221" lon="4.39044">
        <ele>524.4</ele>
        <time>2025-09-08T11:58:41Z</time>
      </trkpt>
      <trkpt lat="46.08216" lon="4.39048">
        <ele>524</ele>
        <time>2025-09-08T11:58:42Z</time>
      </trkpt>
      <trkpt lat="46.08212" lon="4.39053">
        <ele>524</ele>
        <time>2025-09-08T11:58:43Z</time>
      </trkpt>
      <trkpt lat="46.08207" lon="4.39057">
        <ele>524</ele>
        <time>2025-09-08T11:58:44Z</time>
      </trkpt>
      <trkpt lat="46.08203" lon="4.39062">
        <ele>524</ele>
        <time>2025-09-08T11:58:45Z</time>
      </trkpt>
      <trkpt lat="46.08198" lon="4.39066">
        <ele>524</ele>
        <time>2025-09-08T11:58:46Z</time>
      </trkpt>
      <trkpt lat="46.08193" lon="4.39069">
        <ele>524</ele>
        <time>2025-09-08T11:58:47Z</time>
      </trkpt>
      <trkpt lat="46.08188" lon="4.39072">
        <ele>523.8</ele>
        <time>2025-09-08T11:58:48Z</time>
      </trkpt>
      <trkpt lat="46.08182" lon="4.39075">
        <ele>524.2</ele>
        <time>2025-09-08T11:58:49Z</time>
      </trkpt>
      <trkpt lat="46.08175" lon="4.39079">
        <ele>524.2</ele>
        <time>2025-09-08T11:58:50Z</time>
      </trkpt>
      <trkpt lat="46.08171" lon="4.39082">
        <ele>524.2</ele>
        <time>2025-09-08T11:58:51Z</time>
      </trkpt>
      <trkpt lat="46.08165" lon="4.39085">
        <ele>523.8</ele>
        <time>2025-09-08T11:58:52Z</time>
      </trkpt>
      <trkpt lat="46.0816" lon="4.39087">
        <ele>523.8</ele>
        <time>2025-09-08T11:58:53Z</time>
      </trkpt>
      <trkpt lat="46.08155" lon="4.39091">
        <ele>523.8</ele>
        <time>2025-09-08T11:58:54Z</time>
      </trkpt>
      <trkpt lat="46.0815" lon="4.39094">
        <ele>523.8</ele>
        <time>2025-09-08T11:58:55Z</time>
      </trkpt>
      <trkpt lat="46.08145" lon="4.39096">
        <ele>523.8</ele>
        <time>2025-09-08T11:58:56Z</time>
      </trkpt>
      <trkpt lat="46.08139" lon="4.39099">
        <ele>524.2</ele>
        <time>2025-09-08T11:58:57Z</time>
      </trkpt>
      <trkpt lat="46.08134" lon="4.39101">
        <ele>524.2</ele>
        <time>2025-09-08T11:58:58Z</time>
      </trkpt>
      <trkpt lat="46.0813" lon="4.39103">
        <ele>524.2</ele>
        <time>2025-09-08T11:58:59Z</time>
      </trkpt>
      <trkpt lat="46.08124" lon="4.39105">
        <ele>524.2</ele>
        <time>2025-09-08T11:59:00Z</time>
      </trkpt>
      <trkpt lat="46.08119" lon="4.39108">
        <ele>524.4</ele>
        <time>2025-09-08T11:59:01Z</time>
      </trkpt>
      <trkpt lat="46.08113" lon="4.39111">
        <ele>524.4</ele>
        <time>2025-09-08T11:59:02Z</time>
      </trkpt>
      <trkpt lat="46.08107" lon="4.39114">
        <ele>524.2</ele>
        <time>2025-09-08T11:59:03Z</time>
      </trkpt>
      <trkpt lat="46.08103" lon="4.39117">
        <ele>524.2</ele>
        <time>2025-09-08T11:59:04Z</time>
      </trkpt>
      <trkpt lat="46.08096" lon="4.39118">
        <ele>523.8</ele>
        <time>2025-09-08T11:59:05Z</time>
      </trkpt>
      <trkpt lat="46.0809" lon="4.39119">
        <ele>523.8</ele>
        <time>2025-09-08T11:59:06Z</time>
      </trkpt>
      <trkpt lat="46.08084" lon="4.39121">
        <ele>523.8</ele>
        <time>2025-09-08T11:59:07Z</time>
      </trkpt>
      <trkpt lat="46.08079" lon="4.39122">
        <ele>523.8</ele>
        <time>2025-09-08T11:59:08Z</time>
      </trkpt>
      <trkpt lat="46.08073" lon="4.39123">
        <ele>523.8</ele>
        <time>2025-09-08T11:59:09Z</time>
      </trkpt>
      <trkpt lat="46.08068" lon="4.39123">
        <ele>523.8</ele>
        <time>2025-09-08T11:59:10Z</time>
      </trkpt>
      <trkpt lat="46.08062" lon="4.39123">
        <ele>523.8</ele>
        <time>2025-09-08T11:59:11Z</time>
      </trkpt>
      <trkpt lat="46.08056" lon="4.39123">
        <ele>523.8</ele>
        <time>2025-09-08T11:59:12Z</time>
      </trkpt>
      <trkpt lat="46.08051" lon="4.39124">
        <ele>523.6</ele>
        <time>2025-09-08T11:59:13Z</time>
      </trkpt>
      <trkpt lat="46.08045" lon="4.39124">
        <ele>523.6</ele>
        <time>2025-09-08T11:59:14Z</time>
      </trkpt>
      <trkpt lat="46.08038" lon="4.39124">
        <ele>523.6</ele>
        <time>2025-09-08T11:59:15Z</time>
      </trkpt>
      <trkpt lat="46.08033" lon="4.39126">
        <ele>523.8</ele>
        <time>2025-09-08T11:59:16Z</time>
      </trkpt>
      <trkpt lat="46.08027" lon="4.39128">
        <ele>523.8</ele>
        <time>2025-09-08T11:59:17Z</time>
      </trkpt>
      <trkpt lat="46.08021" lon="4.39131">
        <ele>523.6</ele>
        <time>2025-09-08T11:59:18Z</time>
      </trkpt>
      <trkpt lat="46.08016" lon="4.39133">
        <ele>523.2</ele>
        <time>2025-09-08T11:59:19Z</time>
      </trkpt>
      <trkpt lat="46.08011" lon="4.39135">
        <ele>523.2</ele>
        <time>2025-09-08T11:59:20Z</time>
      </trkpt>
      <trkpt lat="46.08007" lon="4.39138">
        <ele>523.2</ele>
        <time>2025-09-08T11:59:21Z</time>
      </trkpt>
      <trkpt lat="46.08001" lon="4.39142">
        <ele>522.6</ele>
        <time>2025-09-08T11:59:22Z</time>
      </trkpt>
      <trkpt lat="46.07994" lon="4.39144">
        <ele>522.4</ele>
        <time>2025-09-08T11:59:23Z</time>
      </trkpt>
      <trkpt lat="46.0799" lon="4.39148">
        <ele>522.4</ele>
        <time>2025-09-08T11:59:24Z</time>
      </trkpt>
      <trkpt lat="46.07982" lon="4.39152">
        <ele>522</ele>
        <time>2025-09-08T11:59:25Z</time>
      </trkpt>
      <trkpt lat="46.07976" lon="4.39156">
        <ele>521.8</ele>
        <time>2025-09-08T11:59:26Z</time>
      </trkpt>
      <trkpt lat="46.0797" lon="4.3916">
        <ele>521.6</ele>
        <time>2025-09-08T11:59:27Z</time>
      </trkpt>
      <trkpt lat="46.07964" lon="4.39164">
        <ele>521.2</ele>
        <time>2025-09-08T11:59:28Z</time>
      </trkpt>
      <trkpt lat="46.07959" lon="4.39168">
        <ele>521.2</ele>
        <time>2025-09-08T11:59:29Z</time>
      </trkpt>
      <trkpt lat="46.07953" lon="4.39173">
        <ele>521</ele>
        <time>2025-09-08T11:59:30Z</time>
      </trkpt>
      <trkpt lat="46.07948" lon="4.39178">
        <ele>521</ele>
        <time>2025-09-08T11:59:31Z</time>
      </trkpt>
      <trkpt lat="46.07941" lon="4.39182">
        <ele>521.6</ele>
        <time>2025-09-08T11:59:32Z</time>
      </trkpt>
      <trkpt lat="46.07935" lon="4.39187">
        <ele>521.2</ele>
        <time>2025-09-08T11:59:33Z</time>
      </trkpt>
      <trkpt lat="46.0793" lon="4.39191">
        <ele>521.2</ele>
        <time>2025-09-08T11:59:34Z</time>
      </trkpt>
      <trkpt lat="46.07922" lon="4.39196">
        <ele>521.2</ele>
        <time>2025-09-08T11:59:35Z</time>
      </trkpt>
      <trkpt lat="46.07917" lon="4.392">
        <ele>521</ele>
        <time>2025-09-08T11:59:36Z</time>
      </trkpt>
      <trkpt lat="46.0791" lon="4.39204">
        <ele>521</ele>
        <time>2025-09-08T11:59:37Z</time>
      </trkpt>
      <trkpt lat="46.07902" lon="4.39208">
        <ele>521</ele>
        <time>2025-09-08T11:59:38Z</time>
      </trkpt>
      <trkpt lat="46.07896" lon="4.39212">
        <ele>520.8</ele>
        <time>2025-09-08T11:59:39Z</time>
      </trkpt>
      <trkpt lat="46.07887" lon="4.39215">
        <ele>520.8</ele>
        <time>2025-09-08T11:59:40Z</time>
      </trkpt>
      <trkpt lat="46.07883" lon="4.39219">
        <ele>520.6</ele>
        <time>2025-09-08T11:59:41Z</time>
      </trkpt>
      <trkpt lat="46.07878" lon="4.39224">
        <ele>520.6</ele>
        <time>2025-09-08T11:59:42Z</time>
      </trkpt>
      <trkpt lat="46.07872" lon="4.39228">
        <ele>520.6</ele>
        <time>2025-09-08T11:59:43Z</time>
      </trkpt>
      <trkpt lat="46.07867" lon="4.39232">
        <ele>520.6</ele>
        <time>2025-09-08T11:59:44Z</time>
      </trkpt>
      <trkpt lat="46.07861" lon="4.39233">
        <ele>520.6</ele>
        <time>2025-09-08T11:59:45Z</time>
      </trkpt>
      <trkpt lat="46.07855" lon="4.39237">
        <ele>520.4</ele>
        <time>2025-09-08T11:59:46Z</time>
      </trkpt>
      <trkpt lat="46.0785" lon="4.3924">
        <ele>520.4</ele>
        <time>2025-09-08T11:59:47Z</time>
      </trkpt>
      <trkpt lat="46.07845" lon="4.39246">
        <ele>520.4</ele>
        <time>2025-09-08T11:59:48Z</time>
      </trkpt>
      <trkpt lat="46.07838" lon="4.39247">
        <ele>520.4</ele>
        <time>2025-09-08T11:59:49Z</time>
      </trkpt>
      <trkpt lat="46.07831" lon="4.39249">
        <ele>520.4</ele>
        <time>2025-09-08T11:59:50Z</time>
      </trkpt>
      <trkpt lat="46.07825" lon="4.39251">
        <ele>520.4</ele>
        <time>2025-09-08T11:59:51Z</time>
      </trkpt>
      <trkpt lat="46.07814" lon="4.39259">
        <ele>520.4</ele>
        <time>2025-09-08T11:59:52Z</time>
      </trkpt>
      <trkpt lat="46.07808" lon="4.39264">
        <ele>520.4</ele>
        <time>2025-09-08T11:59:53Z</time>
      </trkpt>
      <trkpt lat="46.07802" lon="4.39267">
        <ele>520</ele>
        <time>2025-09-08T11:59:54Z</time>
      </trkpt>
      <trkpt lat="46.07797" lon="4.39272">
        <ele>520</ele>
        <time>2025-09-08T11:59:55Z</time>
      </trkpt>
      <trkpt lat="46.07791" lon="4.39277">
        <ele>520</ele>
        <time>2025-09-08T11:59:56Z</time>
      </trkpt>
      <trkpt lat="46.07785" lon="4.39279">
        <ele>520</ele>
        <time>2025-09-08T11:59:57Z</time>
      </trkpt>
      <trkpt lat="46.07779" lon="4.39283">
        <ele>520</ele>
        <time>2025-09-08T11:59:58Z</time>
      </trkpt>
      <trkpt lat="46.07773" lon="4.39287">
        <ele>519.8</ele>
        <time>2025-09-08T11:59:59Z</time>
      </trkpt>
      <trkpt lat="46.07768" lon="4.39291">
        <ele>519.8</ele>
        <time>2025-09-08T12:00:00Z</time>
      </trkpt>
      <trkpt lat="46.07763" lon="4.39296">
        <ele>519.8</ele>
        <time>2025-09-08T12:00:01Z</time>
      </trkpt>
      <trkpt lat="46.07756" lon="4.39301">
        <ele>519.8</ele>
        <time>2025-09-08T12:00:02Z</time>
      </trkpt>
      <trkpt lat="46.07751" lon="4.39305">
        <ele>520</ele>
        <time>2025-09-08T12:00:03Z</time>
      </trkpt>
      <trkpt lat="46.07747" lon="4.39309">
        <ele>520</ele>
        <time>2025-09-08T12:00:04Z</time>
      </trkpt>
      <trkpt lat="46.07742" lon="4.39315">
        <ele>520</ele>
        <time>2025-09-08T12:00:05Z</time>
      </trkpt>
      <trkpt lat="46.07734" lon="4.39317">
        <ele>519.8</ele>
        <time>2025-09-08T12:00:06Z</time>
      </trkpt>
      <trkpt lat="46.07729" lon="4.39324">
        <ele>519.8</ele>
        <time>2025-09-08T12:00:07Z</time>
      </trkpt>
      <trkpt lat="46.07726" lon="4.39329">
        <ele>519.8</ele>
        <time>2025-09-08T12:00:08Z</time>
      </trkpt>
      <trkpt lat="46.0772" lon="4.39331">
        <ele>519.8</ele>
        <time>2025-09-08T12:00:09Z</time>
      </trkpt>
      <trkpt lat="46.07714" lon="4.39335">
        <ele>519.8</ele>
        <time>2025-09-08T12:00:10Z</time>
      </trkpt>
      <trkpt lat="46.07711" lon="4.39337">
        <ele>519.8</ele>
        <time>2025-09-08T12:00:11Z</time>
      </trkpt>
      <trkpt lat="46.07704" lon="4.39342">
        <ele>519.6</ele>
        <time>2025-09-08T12:00:12Z</time>
      </trkpt>
      <trkpt lat="46.07698" lon="4.39346">
        <ele>519.6</ele>
        <time>2025-09-08T12:00:13Z</time>
      </trkpt>
      <trkpt lat="46.07691" lon="4.3935">
        <ele>519.2</ele>
        <time>2025-09-08T12:00:14Z</time>
      </trkpt>
      <trkpt lat="46.07685" lon="4.39353">
        <ele>519.2</ele>
        <time>2025-09-08T12:00:15Z</time>
      </trkpt>
      <trkpt lat="46.07678" lon="4.39359">
        <ele>519.2</ele>
        <time>2025-09-08T12:00:16Z</time>
      </trkpt>
      <trkpt lat="46.07672" lon="4.39361">
        <ele>519</ele>
        <time>2025-09-08T12:00:17Z</time>
      </trkpt>
      <trkpt lat="46.07667" lon="4.39364">
        <ele>519.2</ele>
        <time>2025-09-08T12:00:18Z</time>
      </trkpt>
      <trkpt lat="46.0766" lon="4.39368">
        <ele>519.2</ele>
        <time>2025-09-08T12:00:19Z</time>
      </trkpt>
      <trkpt lat="46.07654" lon="4.39371">
        <ele>519.2</ele>
        <time>2025-09-08T12:00:20Z</time>
      </trkpt>
      <trkpt lat="46.07647" lon="4.39374">
        <ele>519.2</ele>
        <time>2025-09-08T12:00:21Z</time>
      </trkpt>
      <trkpt lat="46.07641" lon="4.39376">
        <ele>519.2</ele>
        <time>2025-09-08T12:00:22Z</time>
      </trkpt>
      <trkpt lat="46.07635" lon="4.39379">
        <ele>519</ele>
        <time>2025-09-08T12:00:23Z</time>
      </trkpt>
      <trkpt lat="46.07628" lon="4.3938">
        <ele>519</ele>
        <time>2025-09-08T12:00:24Z</time>
      </trkpt>
      <trkpt lat="46.07622" lon="4.39381">
        <ele>518.8</ele>
        <time>2025-09-08T12:00:25Z</time>
      </trkpt>
      <trkpt lat="46.07615" lon="4.39381">
        <ele>518.8</ele>
        <time>2025-09-08T12:00:26Z</time>
      </trkpt>
      <trkpt lat="46.07608" lon="4.3938">
        <ele>518.8</ele>
        <time>2025-09-08T12:00:27Z</time>
      </trkpt>
      <trkpt lat="46.07601" lon="4.3938">
        <ele>518.4</ele>
        <time>2025-09-08T12:00:28Z</time>
      </trkpt>
      <trkpt lat="46.07594" lon="4.39379">
        <ele>518.4</ele>
        <time>2025-09-08T12:00:29Z</time>
      </trkpt>
      <trkpt lat="46.07587" lon="4.39378">
        <ele>518.2</ele>
        <time>2025-09-08T12:00:30Z</time>
      </trkpt>
      <trkpt lat="46.07579" lon="4.39376">
        <ele>518.2</ele>
        <time>2025-09-08T12:00:31Z</time>
      </trkpt>
      <trkpt lat="46.07571" lon="4.39375">
        <ele>517.6</ele>
        <time>2025-09-08T12:00:32Z</time>
      </trkpt>
      <trkpt lat="46.07564" lon="4.39374">
        <ele>517.2</ele>
        <time>2025-09-08T12:00:33Z</time>
      </trkpt>
      <trkpt lat="46.07556" lon="4.39373">
        <ele>516.8</ele>
        <time>2025-09-08T12:00:34Z</time>
      </trkpt>
      <trkpt lat="46.07548" lon="4.39372">
        <ele>516.4</ele>
        <time>2025-09-08T12:00:35Z</time>
      </trkpt>
      <trkpt lat="46.07538" lon="4.39371">
        <ele>515.8</ele>
        <time>2025-09-08T12:00:36Z</time>
      </trkpt>
      <trkpt lat="46.07531" lon="4.3937">
        <ele>515.4</ele>
        <time>2025-09-08T12:00:37Z</time>
      </trkpt>
      <trkpt lat="46.07522" lon="4.39368">
        <ele>515</ele>
        <time>2025-09-08T12:00:38Z</time>
      </trkpt>
      <trkpt lat="46.07513" lon="4.39368">
        <ele>514.6</ele>
        <time>2025-09-08T12:00:39Z</time>
      </trkpt>
      <trkpt lat="46.07505" lon="4.39366">
        <ele>514.2</ele>
        <time>2025-09-08T12:00:40Z</time>
      </trkpt>
      <trkpt lat="46.07496" lon="4.39365">
        <ele>513.8</ele>
        <time>2025-09-08T12:00:41Z</time>
      </trkpt>
      <trkpt lat="46.07488" lon="4.39363">
        <ele>513.4</ele>
        <time>2025-09-08T12:00:42Z</time>
      </trkpt>
      <trkpt lat="46.07488" lon="4.39363">
        <ele>513</ele>
        <time>2025-09-08T12:00:43Z</time>
      </trkpt>
      <trkpt lat="46.07479" lon="4.3936">
        <ele>513</ele>
        <time>2025-09-08T12:00:44Z</time>
      </trkpt>
      <trkpt lat="46.0747" lon="4.39357">
        <ele>512.8</ele>
        <time>2025-09-08T12:00:45Z</time>
      </trkpt>
      <trkpt lat="46.07461" lon="4.39353">
        <ele>512.4</ele>
        <time>2025-09-08T12:00:46Z</time>
      </trkpt>
      <trkpt lat="46.07453" lon="4.39348">
        <ele>512.2</ele>
        <time>2025-09-08T12:00:47Z</time>
      </trkpt>
      <trkpt lat="46.07445" lon="4.39343">
        <ele>511.8</ele>
        <time>2025-09-08T12:00:48Z</time>
      </trkpt>
      <trkpt lat="46.07437" lon="4.39337">
        <ele>511.6</ele>
        <time>2025-09-08T12:00:49Z</time>
      </trkpt>
      <trkpt lat="46.0743" lon="4.39331">
        <ele>511.2</ele>
        <time>2025-09-08T12:00:50Z</time>
      </trkpt>
      <trkpt lat="46.07424" lon="4.39323">
        <ele>511.2</ele>
        <time>2025-09-08T12:00:51Z</time>
      </trkpt>
      <trkpt lat="46.07417" lon="4.39317">
        <ele>510.8</ele>
        <time>2025-09-08T12:00:52Z</time>
      </trkpt>
      <trkpt lat="46.07411" lon="4.39311">
        <ele>510.8</ele>
        <time>2025-09-08T12:00:53Z</time>
      </trkpt>
      <trkpt lat="46.07405" lon="4.39304">
        <ele>510.8</ele>
        <time>2025-09-08T12:00:54Z</time>
      </trkpt>
      <trkpt lat="46.07399" lon="4.39299">
        <ele>510.6</ele>
        <time>2025-09-08T12:00:55Z</time>
      </trkpt>
      <trkpt lat="46.07393" lon="4.39293">
        <ele>510.6</ele>
        <time>2025-09-08T12:00:56Z</time>
      </trkpt>
      <trkpt lat="46.07387" lon="4.39287">
        <ele>510.6</ele>
        <time>2025-09-08T12:00:57Z</time>
      </trkpt>
      <trkpt lat="46.07382" lon="4.39282">
        <ele>510.4</ele>
        <time>2025-09-08T12:00:58Z</time>
      </trkpt>
      <trkpt lat="46.07376" lon="4.39276">
        <ele>510.8</ele>
        <time>2025-09-08T12:00:59Z</time>
      </trkpt>
      <trkpt lat="46.07371" lon="4.39271">
        <ele>510.8</ele>
        <time>2025-09-08T12:01:00Z</time>
      </trkpt>
      <trkpt lat="46.07371" lon="4.39271">
        <ele>510.8</ele>
        <time>2025-09-08T12:01:01Z</time>
      </trkpt>
      <trkpt lat="46.07361" lon="4.39262">
        <ele>510.8</ele>
        <time>2025-09-08T12:01:02Z</time>
      </trkpt>
      <trkpt lat="46.07357" lon="4.39257">
        <ele>510.8</ele>
        <time>2025-09-08T12:01:03Z</time>
      </trkpt>
      <trkpt lat="46.07352" lon="4.39253">
        <ele>510.8</ele>
        <time>2025-09-08T12:01:04Z</time>
      </trkpt>
      <trkpt lat="46.07347" lon="4.39249">
        <ele>510.8</ele>
        <time>2025-09-08T12:01:05Z</time>
      </trkpt>
      <trkpt lat="46.07342" lon="4.39245">
        <ele>511</ele>
        <time>2025-09-08T12:01:06Z</time>
      </trkpt>
      <trkpt lat="46.07337" lon="4.39241">
        <ele>511</ele>
        <time>2025-09-08T12:01:07Z</time>
      </trkpt>
      <trkpt lat="46.07333" lon="4.39239">
        <ele>511.2</ele>
        <time>2025-09-08T12:01:08Z</time>
      </trkpt>
      <trkpt lat="46.07328" lon="4.39236">
        <ele>511.2</ele>
        <time>2025-09-08T12:01:09Z</time>
      </trkpt>
      <trkpt lat="46.07323" lon="4.39234">
        <ele>511.4</ele>
        <time>2025-09-08T12:01:10Z</time>
      </trkpt>
      <trkpt lat="46.07316" lon="4.39233">
        <ele>511.4</ele>
        <time>2025-09-08T12:01:11Z</time>
      </trkpt>
      <trkpt lat="46.07312" lon="4.3923">
        <ele>511.8</ele>
        <time>2025-09-08T12:01:12Z</time>
      </trkpt>
      <trkpt lat="46.07307" lon="4.39228">
        <ele>511.8</ele>
        <time>2025-09-08T12:01:13Z</time>
      </trkpt>
      <trkpt lat="46.07302" lon="4.39226">
        <ele>511.8</ele>
        <time>2025-09-08T12:01:14Z</time>
      </trkpt>
      <trkpt lat="46.07298" lon="4.39225">
        <ele>512</ele>
        <time>2025-09-08T12:01:15Z</time>
      </trkpt>
      <trkpt lat="46.07293" lon="4.39223">
        <ele>512</ele>
        <time>2025-09-08T12:01:16Z</time>
      </trkpt>
      <trkpt lat="46.07288" lon="4.39222">
        <ele>512</ele>
        <time>2025-09-08T12:01:17Z</time>
      </trkpt>
      <trkpt lat="46.07284" lon="4.39221">
        <ele>511.8</ele>
        <time>2025-09-08T12:01:18Z</time>
      </trkpt>
      <trkpt lat="46.07279" lon="4.3922">
        <ele>511.8</ele>
        <time>2025-09-08T12:01:19Z</time>
      </trkpt>
      <trkpt lat="46.07275" lon="4.3922">
        <ele>512</ele>
        <time>2025-09-08T12:01:20Z</time>
      </trkpt>
      <trkpt lat="46.07271" lon="4.39219">
        <ele>512</ele>
        <time>2025-09-08T12:01:21Z</time>
      </trkpt>
      <trkpt lat="46.07268" lon="4.3922">
        <ele>512</ele>
        <time>2025-09-08T12:01:22Z</time>
      </trkpt>
      <trkpt lat="46.07264" lon="4.39221">
        <ele>512</ele>
        <time>2025-09-08T12:01:23Z</time>
      </trkpt>
      <trkpt lat="46.07262" lon="4.39223">
        <ele>512</ele>
        <time>2025-09-08T12:01:24Z</time>
      </trkpt>
      <trkpt lat="46.07258" lon="4.39225">
        <ele>512</ele>
        <time>2025-09-08T12:01:25Z</time>
      </trkpt>
      <trkpt lat="46.07256" lon="4.39227">
        <ele>512</ele>
        <time>2025-09-08T12:01:26Z</time>
      </trkpt>
      <trkpt lat="46.07254" lon="4.39231">
        <ele>512</ele>
        <time>2025-09-08T12:01:27Z</time>
      </trkpt>
      <trkpt lat="46.07251" lon="4.39234">
        <ele>512.2</ele>
        <time>2025-09-08T12:01:28Z</time>
      </trkpt>
      <trkpt lat="46.07249" lon="4.39238">
        <ele>512.2</ele>
        <time>2025-09-08T12:01:29Z</time>
      </trkpt>
      <trkpt lat="46.07246" lon="4.39242">
        <ele>512.2</ele>
        <time>2025-09-08T12:01:30Z</time>
      </trkpt>
      <trkpt lat="46.07243" lon="4.39245">
        <ele>512.4</ele>
        <time>2025-09-08T12:01:31Z</time>
      </trkpt>
      <trkpt lat="46.07239" lon="4.39249">
        <ele>512.4</ele>
        <time>2025-09-08T12:01:32Z</time>
      </trkpt>
      <trkpt lat="46.07236" lon="4.39253">
        <ele>512.4</ele>
        <time>2025-09-08T12:01:33Z</time>
      </trkpt>
      <trkpt lat="46.07233" lon="4.39257">
        <ele>512.8</ele>
        <time>2025-09-08T12:01:34Z</time>
      </trkpt>
      <trkpt lat="46.0723" lon="4.3926">
        <ele>512.8</ele>
        <time>2025-09-08T12:01:35Z</time>
      </trkpt>
      <trkpt lat="46.07227" lon="4.39263">
        <ele>512.8</ele>
        <time>2025-09-08T12:01:36Z</time>
      </trkpt>
      <trkpt lat="46.07223" lon="4.39265">
        <ele>512.8</ele>
        <time>2025-09-08T12:01:37Z</time>
      </trkpt>
      <trkpt lat="46.0722" lon="4.39267">
        <ele>512.8</ele>
        <time>2025-09-08T12:01:38Z</time>
      </trkpt>
      <trkpt lat="46.07216" lon="4.39269">
        <ele>512.4</ele>
        <time>2025-09-08T12:01:39Z</time>
      </trkpt>
      <trkpt lat="46.07212" lon="4.39269">
        <ele>512.4</ele>
        <time>2025-09-08T12:01:40Z</time>
      </trkpt>
      <trkpt lat="46.07207" lon="4.3927">
        <ele>512.4</ele>
        <time>2025-09-08T12:01:41Z</time>
      </trkpt>
      <trkpt lat="46.07202" lon="4.3927">
        <ele>512.2</ele>
        <time>2025-09-08T12:01:42Z</time>
      </trkpt>
      <trkpt lat="46.07197" lon="4.39272">
        <ele>512.2</ele>
        <time>2025-09-08T12:01:43Z</time>
      </trkpt>
      <trkpt lat="46.07193" lon="4.39274">
        <ele>512.2</ele>
        <time>2025-09-08T12:01:44Z</time>
      </trkpt>
      <trkpt lat="46.07189" lon="4.39273">
        <ele>512</ele>
        <time>2025-09-08T12:01:45Z</time>
      </trkpt>
      <trkpt lat="46.07183" lon="4.39274">
        <ele>512</ele>
        <time>2025-09-08T12:01:46Z</time>
      </trkpt>
      <trkpt lat="46.07179" lon="4.39274">
        <ele>512</ele>
        <time>2025-09-08T12:01:47Z</time>
      </trkpt>
      <trkpt lat="46.07173" lon="4.39276">
        <ele>512</ele>
        <time>2025-09-08T12:01:48Z</time>
      </trkpt>
      <trkpt lat="46.07168" lon="4.39277">
        <ele>512</ele>
        <time>2025-09-08T12:01:49Z</time>
      </trkpt>
      <trkpt lat="46.07163" lon="4.39277">
        <ele>512</ele>
        <time>2025-09-08T12:01:50Z</time>
      </trkpt>
      <trkpt lat="46.07158" lon="4.39279">
        <ele>512</ele>
        <time>2025-09-08T12:01:51Z</time>
      </trkpt>
      <trkpt lat="46.07153" lon="4.3928">
        <ele>512</ele>
        <time>2025-09-08T12:01:52Z</time>
      </trkpt>
      <trkpt lat="46.07147" lon="4.39279">
        <ele>512</ele>
        <time>2025-09-08T12:01:53Z</time>
      </trkpt>
      <trkpt lat="46.07142" lon="4.39281">
        <ele>512</ele>
        <time>2025-09-08T12:01:54Z</time>
      </trkpt>
      <trkpt lat="46.07137" lon="4.39281">
        <ele>512</ele>
        <time>2025-09-08T12:01:55Z</time>
      </trkpt>
      <trkpt lat="46.07133" lon="4.3928">
        <ele>512</ele>
        <time>2025-09-08T12:01:56Z</time>
      </trkpt>
      <trkpt lat="46.07127" lon="4.3928">
        <ele>512</ele>
        <time>2025-09-08T12:01:57Z</time>
      </trkpt>
      <trkpt lat="46.07122" lon="4.39279">
        <ele>512</ele>
        <time>2025-09-08T12:01:58Z</time>
      </trkpt>
      <trkpt lat="46.07117" lon="4.39279">
        <ele>512</ele>
        <time>2025-09-08T12:01:59Z</time>
      </trkpt>
      <trkpt lat="46.07112" lon="4.39278">
        <ele>512</ele>
        <time>2025-09-08T12:02:00Z</time>
      </trkpt>
      <trkpt lat="46.07107" lon="4.39277">
        <ele>512</ele>
        <time>2025-09-08T12:02:01Z</time>
      </trkpt>
      <trkpt lat="46.07101" lon="4.39276">
        <ele>511.6</ele>
        <time>2025-09-08T12:02:02Z</time>
      </trkpt>
      <trkpt lat="46.07096" lon="4.39275">
        <ele>511.6</ele>
        <time>2025-09-08T12:02:03Z</time>
      </trkpt>
      <trkpt lat="46.07091" lon="4.39273">
        <ele>511.6</ele>
        <time>2025-09-08T12:02:04Z</time>
      </trkpt>
      <trkpt lat="46.07086" lon="4.39271">
        <ele>511.6</ele>
        <time>2025-09-08T12:02:05Z</time>
      </trkpt>
      <trkpt lat="46.07081" lon="4.3927">
        <ele>512</ele>
        <time>2025-09-08T12:02:06Z</time>
      </trkpt>
      <trkpt lat="46.07077" lon="4.39268">
        <ele>512</ele>
        <time>2025-09-08T12:02:07Z</time>
      </trkpt>
      <trkpt lat="46.07071" lon="4.39267">
        <ele>512</ele>
        <time>2025-09-08T12:02:08Z</time>
      </trkpt>
      <trkpt lat="46.07067" lon="4.39267">
        <ele>512</ele>
        <time>2025-09-08T12:02:09Z</time>
      </trkpt>
      <trkpt lat="46.07061" lon="4.39266">
        <ele>512</ele>
        <time>2025-09-08T12:02:10Z</time>
      </trkpt>
      <trkpt lat="46.07056" lon="4.39264">
        <ele>512</ele>
        <time>2025-09-08T12:02:11Z</time>
      </trkpt>
      <trkpt lat="46.07051" lon="4.39262">
        <ele>512</ele>
        <time>2025-09-08T12:02:12Z</time>
      </trkpt>
      <trkpt lat="46.07045" lon="4.39262">
        <ele>512</ele>
        <time>2025-09-08T12:02:13Z</time>
      </trkpt>
      <trkpt lat="46.0704" lon="4.39261">
        <ele>512</ele>
        <time>2025-09-08T12:02:14Z</time>
      </trkpt>
      <trkpt lat="46.07035" lon="4.39259">
        <ele>512.2</ele>
        <time>2025-09-08T12:02:15Z</time>
      </trkpt>
      <trkpt lat="46.07031" lon="4.39257">
        <ele>512.2</ele>
        <time>2025-09-08T12:02:16Z</time>
      </trkpt>
      <trkpt lat="46.07025" lon="4.39257">
        <ele>512.2</ele>
        <time>2025-09-08T12:02:17Z</time>
      </trkpt>
      <trkpt lat="46.0702" lon="4.39255">
        <ele>512</ele>
        <time>2025-09-08T12:02:18Z</time>
      </trkpt>
      <trkpt lat="46.07016" lon="4.39253">
        <ele>511.8</ele>
        <time>2025-09-08T12:02:19Z</time>
      </trkpt>
      <trkpt lat="46.07011" lon="4.3925">
        <ele>511.8</ele>
        <time>2025-09-08T12:02:20Z</time>
      </trkpt>
      <trkpt lat="46.07005" lon="4.39249">
        <ele>511.8</ele>
        <time>2025-09-08T12:02:21Z</time>
      </trkpt>
      <trkpt lat="46.06999" lon="4.39246">
        <ele>511.8</ele>
        <time>2025-09-08T12:02:22Z</time>
      </trkpt>
      <trkpt lat="46.06995" lon="4.39244">
        <ele>511.8</ele>
        <time>2025-09-08T12:02:23Z</time>
      </trkpt>
      <trkpt lat="46.0699" lon="4.39243">
        <ele>512</ele>
        <time>2025-09-08T12:02:24Z</time>
      </trkpt>
      <trkpt lat="46.06985" lon="4.39241">
        <ele>512</ele>
        <time>2025-09-08T12:02:25Z</time>
      </trkpt>
      <trkpt lat="46.0698" lon="4.39239">
        <ele>512</ele>
        <time>2025-09-08T12:02:26Z</time>
      </trkpt>
      <trkpt lat="46.06975" lon="4.39238">
        <ele>512</ele>
        <time>2025-09-08T12:02:27Z</time>
      </trkpt>
      <trkpt lat="46.0697" lon="4.39236">
        <ele>512</ele>
        <time>2025-09-08T12:02:28Z</time>
      </trkpt>
      <trkpt lat="46.06965" lon="4.39234">
        <ele>512</ele>
        <time>2025-09-08T12:02:29Z</time>
      </trkpt>
      <trkpt lat="46.0696" lon="4.39233">
        <ele>512</ele>
        <time>2025-09-08T12:02:30Z</time>
      </trkpt>
      <trkpt lat="46.06956" lon="4.3923">
        <ele>512</ele>
        <time>2025-09-08T12:02:31Z</time>
      </trkpt>
      <trkpt lat="46.06951" lon="4.39229">
        <ele>512</ele>
        <time>2025-09-08T12:02:32Z</time>
      </trkpt>
      <trkpt lat="46.06946" lon="4.39226">
        <ele>512</ele>
        <time>2025-09-08T12:02:33Z</time>
      </trkpt>
      <trkpt lat="46.06941" lon="4.39226">
        <ele>512</ele>
        <time>2025-09-08T12:02:34Z</time>
      </trkpt>
      <trkpt lat="46.06936" lon="4.39224">
        <ele>512</ele>
        <time>2025-09-08T12:02:35Z</time>
      </trkpt>
      <trkpt lat="46.06932" lon="4.39223">
        <ele>512</ele>
        <time>2025-09-08T12:02:36Z</time>
      </trkpt>
      <trkpt lat="46.06927" lon="4.39221">
        <ele>512</ele>
        <time>2025-09-08T12:02:37Z</time>
      </trkpt>
      <trkpt lat="46.06921" lon="4.3922">
        <ele>512.4</ele>
        <time>2025-09-08T12:02:38Z</time>
      </trkpt>
      <trkpt lat="46.06918" lon="4.39219">
        <ele>512.4</ele>
        <time>2025-09-08T12:02:39Z</time>
      </trkpt>
      <trkpt lat="46.06914" lon="4.39219">
        <ele>512.4</ele>
        <time>2025-09-08T12:02:40Z</time>
      </trkpt>
      <trkpt lat="46.0691" lon="4.39219">
        <ele>512.4</ele>
        <time>2025-09-08T12:02:41Z</time>
      </trkpt>
      <trkpt lat="46.06904" lon="4.3922">
        <ele>512.4</ele>
        <time>2025-09-08T12:02:42Z</time>
      </trkpt>
      <trkpt lat="46.06899" lon="4.3922">
        <ele>512.4</ele>
        <time>2025-09-08T12:02:43Z</time>
      </trkpt>
      <trkpt lat="46.06894" lon="4.3922">
        <ele>512.4</ele>
        <time>2025-09-08T12:02:44Z</time>
      </trkpt>
      <trkpt lat="46.06889" lon="4.39221">
        <ele>512.6</ele>
        <time>2025-09-08T12:02:45Z</time>
      </trkpt>
      <trkpt lat="46.06883" lon="4.39222">
        <ele>512.6</ele>
        <time>2025-09-08T12:02:46Z</time>
      </trkpt>
      <trkpt lat="46.06878" lon="4.39225">
        <ele>512.4</ele>
        <time>2025-09-08T12:02:47Z</time>
      </trkpt>
      <trkpt lat="46.06872" lon="4.39226">
        <ele>512</ele>
        <time>2025-09-08T12:02:48Z</time>
      </trkpt>
      <trkpt lat="46.06866" lon="4.39228">
        <ele>512</ele>
        <time>2025-09-08T12:02:49Z</time>
      </trkpt>
      <trkpt lat="46.06861" lon="4.3923">
        <ele>511.8</ele>
        <time>2025-09-08T12:02:50Z</time>
      </trkpt>
      <trkpt lat="46.06855" lon="4.39232">
        <ele>511.6</ele>
        <time>2025-09-08T12:02:51Z</time>
      </trkpt>
      <trkpt lat="46.0685" lon="4.39235">
        <ele>511.6</ele>
        <time>2025-09-08T12:02:52Z</time>
      </trkpt>
      <trkpt lat="46.06844" lon="4.39237">
        <ele>511.6</ele>
        <time>2025-09-08T12:02:53Z</time>
      </trkpt>
      <trkpt lat="46.06838" lon="4.3924">
        <ele>511.6</ele>
        <time>2025-09-08T12:02:54Z</time>
      </trkpt>
      <trkpt lat="46.06833" lon="4.39244">
        <ele>511.4</ele>
        <time>2025-09-08T12:02:55Z</time>
      </trkpt>
      <trkpt lat="46.06826" lon="4.39246">
        <ele>511.4</ele>
        <time>2025-09-08T12:02:56Z</time>
      </trkpt>
      <trkpt lat="46.0682" lon="4.3925">
        <ele>511.4</ele>
        <time>2025-09-08T12:02:57Z</time>
      </trkpt>
      <trkpt lat="46.06814" lon="4.39253">
        <ele>511.4</ele>
        <time>2025-09-08T12:02:58Z</time>
      </trkpt>
      <trkpt lat="46.06808" lon="4.39256">
        <ele>511</ele>
        <time>2025-09-08T12:02:59Z</time>
      </trkpt>
      <trkpt lat="46.06802" lon="4.3926">
        <ele>511</ele>
        <time>2025-09-08T12:03:00Z</time>
      </trkpt>
      <trkpt lat="46.06796" lon="4.39264">
        <ele>510.8</ele>
        <time>2025-09-08T12:03:01Z</time>
      </trkpt>
      <trkpt lat="46.0679" lon="4.39268">
        <ele>510.4</ele>
        <time>2025-09-08T12:03:02Z</time>
      </trkpt>
      <trkpt lat="46.06782" lon="4.39273">
        <ele>510.4</ele>
        <time>2025-09-08T12:03:03Z</time>
      </trkpt>
      <trkpt lat="46.06776" lon="4.39278">
        <ele>510</ele>
        <time>2025-09-08T12:03:04Z</time>
      </trkpt>
      <trkpt lat="46.0677" lon="4.39282">
        <ele>509.8</ele>
        <time>2025-09-08T12:03:05Z</time>
      </trkpt>
      <trkpt lat="46.06764" lon="4.39287">
        <ele>509.6</ele>
        <time>2025-09-08T12:03:06Z</time>
      </trkpt>
      <trkpt lat="46.06758" lon="4.39292">
        <ele>509.6</ele>
        <time>2025-09-08T12:03:07Z</time>
      </trkpt>
      <trkpt lat="46.06751" lon="4.39297">
        <ele>509.2</ele>
        <time>2025-09-08T12:03:08Z</time>
      </trkpt>
      <trkpt lat="46.06744" lon="4.39302">
        <ele>508.8</ele>
        <time>2025-09-08T12:03:09Z</time>
      </trkpt>
      <trkpt lat="46.06737" lon="4.39307">
        <ele>508.8</ele>
        <time>2025-09-08T12:03:10Z</time>
      </trkpt>
      <trkpt lat="46.06731" lon="4.39314">
        <ele>508.2</ele>
        <time>2025-09-08T12:03:11Z</time>
      </trkpt>
      <trkpt lat="46.06726" lon="4.39322">
        <ele>508.2</ele>
        <time>2025-09-08T12:03:12Z</time>
      </trkpt>
      <trkpt lat="46.06721" lon="4.39329">
        <ele>508.2</ele>
        <time>2025-09-08T12:03:13Z</time>
      </trkpt>
      <trkpt lat="46.06716" lon="4.39337">
        <ele>508</ele>
        <time>2025-09-08T12:03:14Z</time>
      </trkpt>
      <trkpt lat="46.06711" lon="4.39345">
        <ele>507.6</ele>
        <time>2025-09-08T12:03:15Z</time>
      </trkpt>
      <trkpt lat="46.06704" lon="4.39352">
        <ele>507.2</ele>
        <time>2025-09-08T12:03:16Z</time>
      </trkpt>
      <trkpt lat="46.06697" lon="4.39359">
        <ele>507.2</ele>
        <time>2025-09-08T12:03:17Z</time>
      </trkpt>
      <trkpt lat="46.06694" lon="4.39365">
        <ele>506.8</ele>
        <time>2025-09-08T12:03:18Z</time>
      </trkpt>
      <trkpt lat="46.06689" lon="4.39371">
        <ele>506.6</ele>
        <time>2025-09-08T12:03:19Z</time>
      </trkpt>
      <trkpt lat="46.0668" lon="4.39377">
        <ele>506.2</ele>
        <time>2025-09-08T12:03:20Z</time>
      </trkpt>
      <trkpt lat="46.06672" lon="4.3938">
        <ele>506</ele>
        <time>2025-09-08T12:03:21Z</time>
      </trkpt>
      <trkpt lat="46.06664" lon="4.39384">
        <ele>506</ele>
        <time>2025-09-08T12:03:22Z</time>
      </trkpt>
      <trkpt lat="46.06656" lon="4.39386">
        <ele>505.4</ele>
        <time>2025-09-08T12:03:23Z</time>
      </trkpt>
      <trkpt lat="46.06648" lon="4.39388">
        <ele>505.2</ele>
        <time>2025-09-08T12:03:24Z</time>
      </trkpt>
      <trkpt lat="46.06639" lon="4.39391">
        <ele>505</ele>
        <time>2025-09-08T12:03:25Z</time>
      </trkpt>
      <trkpt lat="46.06631" lon="4.39393">
        <ele>504.4</ele>
        <time>2025-09-08T12:03:26Z</time>
      </trkpt>
      <trkpt lat="46.06623" lon="4.39396">
        <ele>504.2</ele>
        <time>2025-09-08T12:03:27Z</time>
      </trkpt>
      <trkpt lat="46.06615" lon="4.39397">
        <ele>504.2</ele>
        <time>2025-09-08T12:03:28Z</time>
      </trkpt>
      <trkpt lat="46.06607" lon="4.39401">
        <ele>503.8</ele>
        <time>2025-09-08T12:03:29Z</time>
      </trkpt>
      <trkpt lat="46.066" lon="4.39405">
        <ele>503.6</ele>
        <time>2025-09-08T12:03:30Z</time>
      </trkpt>
      <trkpt lat="46.06592" lon="4.3941">
        <ele>503.2</ele>
        <time>2025-09-08T12:03:31Z</time>
      </trkpt>
      <trkpt lat="46.06585" lon="4.39416">
        <ele>503.2</ele>
        <time>2025-09-08T12:03:32Z</time>
      </trkpt>
      <trkpt lat="46.06578" lon="4.39421">
        <ele>503.2</ele>
        <time>2025-09-08T12:03:33Z</time>
      </trkpt>
      <trkpt lat="46.06572" lon="4.39427">
        <ele>503.2</ele>
        <time>2025-09-08T12:03:34Z</time>
      </trkpt>
      <trkpt lat="46.06566" lon="4.39432">
        <ele>503.2</ele>
        <time>2025-09-08T12:03:35Z</time>
      </trkpt>
      <trkpt lat="46.0656" lon="4.39438">
        <ele>503.2</ele>
        <time>2025-09-08T12:03:36Z</time>
      </trkpt>
      <trkpt lat="46.06549" lon="4.39449">
        <ele>503.2</ele>
        <time>2025-09-08T12:03:37Z</time>
      </trkpt>
      <trkpt lat="46.06543" lon="4.39453">
        <ele>503</ele>
        <time>2025-09-08T12:03:38Z</time>
      </trkpt>
      <trkpt lat="46.06537" lon="4.39458">
        <ele>503</ele>
        <time>2025-09-08T12:03:39Z</time>
      </trkpt>
      <trkpt lat="46.06532" lon="4.39463">
        <ele>503</ele>
        <time>2025-09-08T12:03:40Z</time>
      </trkpt>
      <trkpt lat="46.06527" lon="4.39468">
        <ele>503</ele>
        <time>2025-09-08T12:03:41Z</time>
      </trkpt>
      <trkpt lat="46.06522" lon="4.39472">
        <ele>503</ele>
        <time>2025-09-08T12:03:42Z</time>
      </trkpt>
      <trkpt lat="46.06517" lon="4.39476">
        <ele>503</ele>
        <time>2025-09-08T12:03:43Z</time>
      </trkpt>
      <trkpt lat="46.06513" lon="4.3948">
        <ele>503</ele>
        <time>2025-09-08T12:03:44Z</time>
      </trkpt>
      <trkpt lat="46.06507" lon="4.39483">
        <ele>503</ele>
        <time>2025-09-08T12:03:45Z</time>
      </trkpt>
      <trkpt lat="46.06502" lon="4.39486">
        <ele>503.2</ele>
        <time>2025-09-08T12:03:46Z</time>
      </trkpt>
      <trkpt lat="46.06496" lon="4.39488">
        <ele>503.2</ele>
        <time>2025-09-08T12:03:47Z</time>
      </trkpt>
      <trkpt lat="46.06491" lon="4.3949">
        <ele>503.2</ele>
        <time>2025-09-08T12:03:48Z</time>
      </trkpt>
      <trkpt lat="46.06486" lon="4.39493">
        <ele>503.4</ele>
        <time>2025-09-08T12:03:49Z</time>
      </trkpt>
      <trkpt lat="46.06482" lon="4.39495">
        <ele>503.4</ele>
        <time>2025-09-08T12:03:50Z</time>
      </trkpt>
      <trkpt lat="46.06477" lon="4.39497">
        <ele>503.4</ele>
        <time>2025-09-08T12:03:51Z</time>
      </trkpt>
      <trkpt lat="46.06471" lon="4.395">
        <ele>503.4</ele>
        <time>2025-09-08T12:03:52Z</time>
      </trkpt>
      <trkpt lat="46.06467" lon="4.39501">
        <ele>503.8</ele>
        <time>2025-09-08T12:03:53Z</time>
      </trkpt>
      <trkpt lat="46.06461" lon="4.39504">
        <ele>503.8</ele>
        <time>2025-09-08T12:03:54Z</time>
      </trkpt>
      <trkpt lat="46.06456" lon="4.39506">
        <ele>503.8</ele>
        <time>2025-09-08T12:03:55Z</time>
      </trkpt>
      <trkpt lat="46.06452" lon="4.39509">
        <ele>504.2</ele>
        <time>2025-09-08T12:03:56Z</time>
      </trkpt>
      <trkpt lat="46.06448" lon="4.39511">
        <ele>504.2</ele>
        <time>2025-09-08T12:03:57Z</time>
      </trkpt>
      <trkpt lat="46.06443" lon="4.39514">
        <ele>504.2</ele>
        <time>2025-09-08T12:03:58Z</time>
      </trkpt>
      <trkpt lat="46.06439" lon="4.39517">
        <ele>504.4</ele>
        <time>2025-09-08T12:03:59Z</time>
      </trkpt>
      <trkpt lat="46.06435" lon="4.39519">
        <ele>504.4</ele>
        <time>2025-09-08T12:04:00Z</time>
      </trkpt>
      <trkpt lat="46.0643" lon="4.39522">
        <ele>504.6</ele>
        <time>2025-09-08T12:04:01Z</time>
      </trkpt>
      <trkpt lat="46.06426" lon="4.39526">
        <ele>504.6</ele>
        <time>2025-09-08T12:04:02Z</time>
      </trkpt>
      <trkpt lat="46.06421" lon="4.39529">
        <ele>504.6</ele>
        <time>2025-09-08T12:04:03Z</time>
      </trkpt>
      <trkpt lat="46.06416" lon="4.39532">
        <ele>504.6</ele>
        <time>2025-09-08T12:04:04Z</time>
      </trkpt>
      <trkpt lat="46.06412" lon="4.39535">
        <ele>504.6</ele>
        <time>2025-09-08T12:04:05Z</time>
      </trkpt>
      <trkpt lat="46.06407" lon="4.39538">
        <ele>504.8</ele>
        <time>2025-09-08T12:04:06Z</time>
      </trkpt>
      <trkpt lat="46.06403" lon="4.39541">
        <ele>504.8</ele>
        <time>2025-09-08T12:04:07Z</time>
      </trkpt>
      <trkpt lat="46.06399" lon="4.39545">
        <ele>504.8</ele>
        <time>2025-09-08T12:04:08Z</time>
      </trkpt>
      <trkpt lat="46.06396" lon="4.39549">
        <ele>504.8</ele>
        <time>2025-09-08T12:04:09Z</time>
      </trkpt>
      <trkpt lat="46.06392" lon="4.39551">
        <ele>504.6</ele>
        <time>2025-09-08T12:04:10Z</time>
      </trkpt>
      <trkpt lat="46.06388" lon="4.39555">
        <ele>504.6</ele>
        <time>2025-09-08T12:04:11Z</time>
      </trkpt>
      <trkpt lat="46.06384" lon="4.39558">
        <ele>505</ele>
        <time>2025-09-08T12:04:12Z</time>
      </trkpt>
      <trkpt lat="46.06381" lon="4.3956">
        <ele>505</ele>
        <time>2025-09-08T12:04:13Z</time>
      </trkpt>
      <trkpt lat="46.06377" lon="4.39563">
        <ele>505</ele>
        <time>2025-09-08T12:04:14Z</time>
      </trkpt>
      <trkpt lat="46.06373" lon="4.39566">
        <ele>505.2</ele>
        <time>2025-09-08T12:04:15Z</time>
      </trkpt>
      <trkpt lat="46.06369" lon="4.3957">
        <ele>505.2</ele>
        <time>2025-09-08T12:04:16Z</time>
      </trkpt>
      <trkpt lat="46.06365" lon="4.39574">
        <ele>505.2</ele>
        <time>2025-09-08T12:04:17Z</time>
      </trkpt>
      <trkpt lat="46.06362" lon="4.39576">
        <ele>505.2</ele>
        <time>2025-09-08T12:04:18Z</time>
      </trkpt>
      <trkpt lat="46.06357" lon="4.39579">
        <ele>505.2</ele>
        <time>2025-09-08T12:04:19Z</time>
      </trkpt>
      <trkpt lat="46.06355" lon="4.39583">
        <ele>505.2</ele>
        <time>2025-09-08T12:04:20Z</time>
      </trkpt>
      <trkpt lat="46.06353" lon="4.39586">
        <ele>505.4</ele>
        <time>2025-09-08T12:04:21Z</time>
      </trkpt>
      <trkpt lat="46.06349" lon="4.3959">
        <ele>505.6</ele>
        <time>2025-09-08T12:04:22Z</time>
      </trkpt>
      <trkpt lat="46.06345" lon="4.39593">
        <ele>505.6</ele>
        <time>2025-09-08T12:04:23Z</time>
      </trkpt>
      <trkpt lat="46.06341" lon="4.39596">
        <ele>505.6</ele>
        <time>2025-09-08T12:04:24Z</time>
      </trkpt>
      <trkpt lat="46.06338" lon="4.39599">
        <ele>505.6</ele>
        <time>2025-09-08T12:04:25Z</time>
      </trkpt>
      <trkpt lat="46.06335" lon="4.39601">
        <ele>505.6</ele>
        <time>2025-09-08T12:04:26Z</time>
      </trkpt>
      <trkpt lat="46.06332" lon="4.39604">
        <ele>505.8</ele>
        <time>2025-09-08T12:04:27Z</time>
      </trkpt>
      <trkpt lat="46.06328" lon="4.39606">
        <ele>505.8</ele>
        <time>2025-09-08T12:04:28Z</time>
      </trkpt>
      <trkpt lat="46.06325" lon="4.39608">
        <ele>505.8</ele>
        <time>2025-09-08T12:04:29Z</time>
      </trkpt>
      <trkpt lat="46.06325" lon="4.39608">
        <ele>506</ele>
        <time>2025-09-08T12:04:30Z</time>
      </trkpt>
      <trkpt lat="46.06322" lon="4.39611">
        <ele>506</ele>
        <time>2025-09-08T12:04:31Z</time>
      </trkpt>
      <trkpt lat="46.06319" lon="4.39613">
        <ele>506</ele>
        <time>2025-09-08T12:04:32Z</time>
      </trkpt>
      <trkpt lat="46.06316" lon="4.39615">
        <ele>506</ele>
        <time>2025-09-08T12:04:33Z</time>
      </trkpt>
      <trkpt lat="46.06313" lon="4.39617">
        <ele>506.2</ele>
        <time>2025-09-08T12:04:34Z</time>
      </trkpt>
      <trkpt lat="46.0631" lon="4.39619">
        <ele>506.2</ele>
        <time>2025-09-08T12:04:35Z</time>
      </trkpt>
      <trkpt lat="46.06306" lon="4.39622">
        <ele>506.6</ele>
        <time>2025-09-08T12:04:36Z</time>
      </trkpt>
      <trkpt lat="46.06303" lon="4.39624">
        <ele>506.6</ele>
        <time>2025-09-08T12:04:37Z</time>
      </trkpt>
      <trkpt lat="46.063" lon="4.39625">
        <ele>506.6</ele>
        <time>2025-09-08T12:04:38Z</time>
      </trkpt>
      <trkpt lat="46.06297" lon="4.39627">
        <ele>506.8</ele>
        <time>2025-09-08T12:04:39Z</time>
      </trkpt>
      <trkpt lat="46.06294" lon="4.39629">
        <ele>506.8</ele>
        <time>2025-09-08T12:04:40Z</time>
      </trkpt>
      <trkpt lat="46.06291" lon="4.39631">
        <ele>506.8</ele>
        <time>2025-09-08T12:04:41Z</time>
      </trkpt>
      <trkpt lat="46.06288" lon="4.39633">
        <ele>507.2</ele>
        <time>2025-09-08T12:04:42Z</time>
      </trkpt>
      <trkpt lat="46.06285" lon="4.39635">
        <ele>507.2</ele>
        <time>2025-09-08T12:04:43Z</time>
      </trkpt>
      <trkpt lat="46.06281" lon="4.39638">
        <ele>507.4</ele>
        <time>2025-09-08T12:04:44Z</time>
      </trkpt>
      <trkpt lat="46.06278" lon="4.3964">
        <ele>507.4</ele>
        <time>2025-09-08T12:04:45Z</time>
      </trkpt>
      <trkpt lat="46.06275" lon="4.39642">
        <ele>507.4</ele>
        <time>2025-09-08T12:04:46Z</time>
      </trkpt>
      <trkpt lat="46.06272" lon="4.39645">
        <ele>507</ele>
        <time>2025-09-08T12:04:47Z</time>
      </trkpt>
      <trkpt lat="46.06269" lon="4.39648">
        <ele>507.4</ele>
        <time>2025-09-08T12:04:48Z</time>
      </trkpt>
      <trkpt lat="46.06266" lon="4.39651">
        <ele>507.4</ele>
        <time>2025-09-08T12:04:49Z</time>
      </trkpt>
      <trkpt lat="46.06263" lon="4.39654">
        <ele>507.6</ele>
        <time>2025-09-08T12:04:50Z</time>
      </trkpt>
      <trkpt lat="46.0626" lon="4.39656">
        <ele>508</ele>
        <time>2025-09-08T12:04:51Z</time>
      </trkpt>
      <trkpt lat="46.06257" lon="4.39659">
        <ele>508</ele>
        <time>2025-09-08T12:04:52Z</time>
      </trkpt>
      <trkpt lat="46.06254" lon="4.39661">
        <ele>508</ele>
        <time>2025-09-08T12:04:53Z</time>
      </trkpt>
      <trkpt lat="46.0625" lon="4.39663">
        <ele>508</ele>
        <time>2025-09-08T12:04:54Z</time>
      </trkpt>
      <trkpt lat="46.06247" lon="4.39665">
        <ele>508.2</ele>
        <time>2025-09-08T12:04:55Z</time>
      </trkpt>
      <trkpt lat="46.06243" lon="4.39668">
        <ele>508.2</ele>
        <time>2025-09-08T12:04:56Z</time>
      </trkpt>
      <trkpt lat="46.0624" lon="4.3967">
        <ele>508.2</ele>
        <time>2025-09-08T12:04:57Z</time>
      </trkpt>
      <trkpt lat="46.06236" lon="4.39672">
        <ele>508.2</ele>
        <time>2025-09-08T12:04:58Z</time>
      </trkpt>
      <trkpt lat="46.06232" lon="4.39674">
        <ele>508.2</ele>
        <time>2025-09-08T12:04:59Z</time>
      </trkpt>
      <trkpt lat="46.06229" lon="4.39675">
        <ele>508.2</ele>
        <time>2025-09-08T12:05:00Z</time>
      </trkpt>
      <trkpt lat="46.06225" lon="4.39677">
        <ele>508.2</ele>
        <time>2025-09-08T12:05:01Z</time>
      </trkpt>
      <trkpt lat="46.06221" lon="4.39679">
        <ele>508.2</ele>
        <time>2025-09-08T12:05:02Z</time>
      </trkpt>
      <trkpt lat="46.06218" lon="4.3968">
        <ele>508.4</ele>
        <time>2025-09-08T12:05:03Z</time>
      </trkpt>
      <trkpt lat="46.06214" lon="4.39682">
        <ele>508.4</ele>
        <time>2025-09-08T12:05:04Z</time>
      </trkpt>
      <trkpt lat="46.06211" lon="4.39684">
        <ele>508.4</ele>
        <time>2025-09-08T12:05:05Z</time>
      </trkpt>
      <trkpt lat="46.06207" lon="4.39685">
        <ele>508.8</ele>
        <time>2025-09-08T12:05:06Z</time>
      </trkpt>
      <trkpt lat="46.06203" lon="4.39686">
        <ele>508.8</ele>
        <time>2025-09-08T12:05:07Z</time>
      </trkpt>
      <trkpt lat="46.06199" lon="4.39687">
        <ele>508.8</ele>
        <time>2025-09-08T12:05:08Z</time>
      </trkpt>
      <trkpt lat="46.06194" lon="4.39688">
        <ele>508.6</ele>
        <time>2025-09-08T12:05:09Z</time>
      </trkpt>
      <trkpt lat="46.0619" lon="4.39689">
        <ele>508.6</ele>
        <time>2025-09-08T12:05:10Z</time>
      </trkpt>
      <trkpt lat="46.06185" lon="4.3969">
        <ele>508.6</ele>
        <time>2025-09-08T12:05:11Z</time>
      </trkpt>
      <trkpt lat="46.0618" lon="4.39691">
        <ele>508.6</ele>
        <time>2025-09-08T12:05:12Z</time>
      </trkpt>
      <trkpt lat="46.06175" lon="4.39691">
        <ele>508.6</ele>
        <time>2025-09-08T12:05:13Z</time>
      </trkpt>
      <trkpt lat="46.0617" lon="4.39691">
        <ele>508.6</ele>
        <time>2025-09-08T12:05:14Z</time>
      </trkpt>
      <trkpt lat="46.06164" lon="4.39691">
        <ele>508.2</ele>
        <time>2025-09-08T12:05:15Z</time>
      </trkpt>
      <trkpt lat="46.06159" lon="4.39692">
        <ele>508.2</ele>
        <time>2025-09-08T12:05:16Z</time>
      </trkpt>
      <trkpt lat="46.06153" lon="4.39692">
        <ele>507.8</ele>
        <time>2025-09-08T12:05:17Z</time>
      </trkpt>
      <trkpt lat="46.06147" lon="4.39691">
        <ele>507.8</ele>
        <time>2025-09-08T12:05:18Z</time>
      </trkpt>
      <trkpt lat="46.06142" lon="4.3969">
        <ele>507.2</ele>
        <time>2025-09-08T12:05:19Z</time>
      </trkpt>
      <trkpt lat="46.06135" lon="4.39689">
        <ele>507</ele>
        <time>2025-09-08T12:05:20Z</time>
      </trkpt>
      <trkpt lat="46.06129" lon="4.39687">
        <ele>506.6</ele>
        <time>2025-09-08T12:05:21Z</time>
      </trkpt>
      <trkpt lat="46.06121" lon="4.39685">
        <ele>506.2</ele>
        <time>2025-09-08T12:05:22Z</time>
      </trkpt>
      <trkpt lat="46.06114" lon="4.39684">
        <ele>505.8</ele>
        <time>2025-09-08T12:05:23Z</time>
      </trkpt>
      <trkpt lat="46.06107" lon="4.39682">
        <ele>505.4</ele>
        <time>2025-09-08T12:05:24Z</time>
      </trkpt>
      <trkpt lat="46.061" lon="4.3968">
        <ele>505</ele>
        <time>2025-09-08T12:05:25Z</time>
      </trkpt>
      <trkpt lat="46.06093" lon="4.39678">
        <ele>504.6</ele>
        <time>2025-09-08T12:05:26Z</time>
      </trkpt>
      <trkpt lat="46.06085" lon="4.39676">
        <ele>504.2</ele>
        <time>2025-09-08T12:05:27Z</time>
      </trkpt>
      <trkpt lat="46.06076" lon="4.39673">
        <ele>504.2</ele>
        <time>2025-09-08T12:05:28Z</time>
      </trkpt>
      <trkpt lat="46.06068" lon="4.39672">
        <ele>503.8</ele>
        <time>2025-09-08T12:05:29Z</time>
      </trkpt>
      <trkpt lat="46.06059" lon="4.3967">
        <ele>503.4</ele>
        <time>2025-09-08T12:05:30Z</time>
      </trkpt>
      <trkpt lat="46.06051" lon="4.39668">
        <ele>502.8</ele>
        <time>2025-09-08T12:05:31Z</time>
      </trkpt>
      <trkpt lat="46.06043" lon="4.39666">
        <ele>502.4</ele>
        <time>2025-09-08T12:05:32Z</time>
      </trkpt>
      <trkpt lat="46.06035" lon="4.39664">
        <ele>502.2</ele>
        <time>2025-09-08T12:05:33Z</time>
      </trkpt>
      <trkpt lat="46.06026" lon="4.39661">
        <ele>501.8</ele>
        <time>2025-09-08T12:05:34Z</time>
      </trkpt>
      <trkpt lat="46.06017" lon="4.39659">
        <ele>501.4</ele>
        <time>2025-09-08T12:05:35Z</time>
      </trkpt>
      <trkpt lat="46.06008" lon="4.39656">
        <ele>501.4</ele>
        <time>2025-09-08T12:05:36Z</time>
      </trkpt>
      <trkpt lat="46.05999" lon="4.39655">
        <ele>501</ele>
        <time>2025-09-08T12:05:37Z</time>
      </trkpt>
      <trkpt lat="46.0599" lon="4.39652">
        <ele>500.6</ele>
        <time>2025-09-08T12:05:38Z</time>
      </trkpt>
      <trkpt lat="46.05982" lon="4.39649">
        <ele>500.4</ele>
        <time>2025-09-08T12:05:39Z</time>
      </trkpt>
      <trkpt lat="46.05973" lon="4.39646">
        <ele>500.4</ele>
        <time>2025-09-08T12:05:40Z</time>
      </trkpt>
      <trkpt lat="46.05964" lon="4.39643">
        <ele>500</ele>
        <time>2025-09-08T12:05:41Z</time>
      </trkpt>
      <trkpt lat="46.05956" lon="4.39641">
        <ele>499.6</ele>
        <time>2025-09-08T12:05:42Z</time>
      </trkpt>
      <trkpt lat="46.05947" lon="4.39638">
        <ele>499.2</ele>
        <time>2025-09-08T12:05:43Z</time>
      </trkpt>
      <trkpt lat="46.05938" lon="4.39634">
        <ele>499</ele>
        <time>2025-09-08T12:05:44Z</time>
      </trkpt>
      <trkpt lat="46.05929" lon="4.39632">
        <ele>498.4</ele>
        <time>2025-09-08T12:05:45Z</time>
      </trkpt>
      <trkpt lat="46.05921" lon="4.39629">
        <ele>498.2</ele>
        <time>2025-09-08T12:05:46Z</time>
      </trkpt>
      <trkpt lat="46.05912" lon="4.39625">
        <ele>497.8</ele>
        <time>2025-09-08T12:05:47Z</time>
      </trkpt>
      <trkpt lat="46.05903" lon="4.39622">
        <ele>497.4</ele>
        <time>2025-09-08T12:05:48Z</time>
      </trkpt>
      <trkpt lat="46.05894" lon="4.39621">
        <ele>497.2</ele>
        <time>2025-09-08T12:05:49Z</time>
      </trkpt>
      <trkpt lat="46.05885" lon="4.39616">
        <ele>496.8</ele>
        <time>2025-09-08T12:05:50Z</time>
      </trkpt>
      <trkpt lat="46.05876" lon="4.39614">
        <ele>496.6</ele>
        <time>2025-09-08T12:05:51Z</time>
      </trkpt>
      <trkpt lat="46.05868" lon="4.3961">
        <ele>496.4</ele>
        <time>2025-09-08T12:05:52Z</time>
      </trkpt>
      <trkpt lat="46.05859" lon="4.39607">
        <ele>496</ele>
        <time>2025-09-08T12:05:53Z</time>
      </trkpt>
      <trkpt lat="46.05851" lon="4.39603">
        <ele>496</ele>
        <time>2025-09-08T12:05:54Z</time>
      </trkpt>
      <trkpt lat="46.05842" lon="4.396">
        <ele>495.8</ele>
        <time>2025-09-08T12:05:55Z</time>
      </trkpt>
      <trkpt lat="46.05834" lon="4.39596">
        <ele>495.4</ele>
        <time>2025-09-08T12:05:56Z</time>
      </trkpt>
      <trkpt lat="46.05826" lon="4.39593">
        <ele>495.4</ele>
        <time>2025-09-08T12:05:57Z</time>
      </trkpt>
      <trkpt lat="46.05818" lon="4.3959">
        <ele>494.8</ele>
        <time>2025-09-08T12:05:58Z</time>
      </trkpt>
      <trkpt lat="46.05809" lon="4.39586">
        <ele>494.8</ele>
        <time>2025-09-08T12:05:59Z</time>
      </trkpt>
      <trkpt lat="46.05801" lon="4.39583">
        <ele>494.8</ele>
        <time>2025-09-08T12:06:00Z</time>
      </trkpt>
      <trkpt lat="46.05793" lon="4.3958">
        <ele>494.6</ele>
        <time>2025-09-08T12:06:01Z</time>
      </trkpt>
      <trkpt lat="46.05785" lon="4.39577">
        <ele>494.6</ele>
        <time>2025-09-08T12:06:02Z</time>
      </trkpt>
      <trkpt lat="46.05777" lon="4.39574">
        <ele>494.6</ele>
        <time>2025-09-08T12:06:03Z</time>
      </trkpt>
      <trkpt lat="46.05769" lon="4.39571">
        <ele>494.2</ele>
        <time>2025-09-08T12:06:04Z</time>
      </trkpt>
      <trkpt lat="46.05762" lon="4.39568">
        <ele>493.8</ele>
        <time>2025-09-08T12:06:05Z</time>
      </trkpt>
      <trkpt lat="46.05754" lon="4.39565">
        <ele>493.8</ele>
        <time>2025-09-08T12:06:06Z</time>
      </trkpt>
      <trkpt lat="46.05747" lon="4.39561">
        <ele>493.8</ele>
        <time>2025-09-08T12:06:07Z</time>
      </trkpt>
      <trkpt lat="46.05739" lon="4.39559">
        <ele>493.4</ele>
        <time>2025-09-08T12:06:08Z</time>
      </trkpt>
      <trkpt lat="46.05732" lon="4.39556">
        <ele>493.4</ele>
        <time>2025-09-08T12:06:09Z</time>
      </trkpt>
      <trkpt lat="46.05724" lon="4.39553">
        <ele>493.2</ele>
        <time>2025-09-08T12:06:10Z</time>
      </trkpt>
      <trkpt lat="46.05717" lon="4.3955">
        <ele>493.6</ele>
        <time>2025-09-08T12:06:11Z</time>
      </trkpt>
      <trkpt lat="46.0571" lon="4.39547">
        <ele>493.4</ele>
        <time>2025-09-08T12:06:12Z</time>
      </trkpt>
      <trkpt lat="46.05703" lon="4.39546">
        <ele>493.4</ele>
        <time>2025-09-08T12:06:13Z</time>
      </trkpt>
      <trkpt lat="46.05697" lon="4.39544">
        <ele>493.2</ele>
        <time>2025-09-08T12:06:14Z</time>
      </trkpt>
      <trkpt lat="46.05689" lon="4.3954">
        <ele>493.2</ele>
        <time>2025-09-08T12:06:15Z</time>
      </trkpt>
      <trkpt lat="46.05683" lon="4.39538">
        <ele>492.8</ele>
        <time>2025-09-08T12:06:16Z</time>
      </trkpt>
      <trkpt lat="46.05675" lon="4.39536">
        <ele>492.8</ele>
        <time>2025-09-08T12:06:17Z</time>
      </trkpt>
      <trkpt lat="46.05668" lon="4.39534">
        <ele>492.6</ele>
        <time>2025-09-08T12:06:18Z</time>
      </trkpt>
      <trkpt lat="46.05662" lon="4.39532">
        <ele>492.6</ele>
        <time>2025-09-08T12:06:19Z</time>
      </trkpt>
      <trkpt lat="46.05655" lon="4.39531">
        <ele>492.6</ele>
        <time>2025-09-08T12:06:20Z</time>
      </trkpt>
      <trkpt lat="46.05648" lon="4.39529">
        <ele>492.6</ele>
        <time>2025-09-08T12:06:21Z</time>
      </trkpt>
      <trkpt lat="46.05641" lon="4.39528">
        <ele>492.2</ele>
        <time>2025-09-08T12:06:22Z</time>
      </trkpt>
      <trkpt lat="46.05634" lon="4.39527">
        <ele>492.2</ele>
        <time>2025-09-08T12:06:23Z</time>
      </trkpt>
      <trkpt lat="46.05628" lon="4.39525">
        <ele>492.2</ele>
        <time>2025-09-08T12:06:24Z</time>
      </trkpt>
      <trkpt lat="46.05621" lon="4.39526">
        <ele>492.2</ele>
        <time>2025-09-08T12:06:25Z</time>
      </trkpt>
      <trkpt lat="46.05615" lon="4.39525">
        <ele>492.2</ele>
        <time>2025-09-08T12:06:26Z</time>
      </trkpt>
      <trkpt lat="46.05608" lon="4.39525">
        <ele>491.8</ele>
        <time>2025-09-08T12:06:27Z</time>
      </trkpt>
      <trkpt lat="46.05602" lon="4.39526">
        <ele>491.8</ele>
        <time>2025-09-08T12:06:28Z</time>
      </trkpt>
      <trkpt lat="46.05595" lon="4.39527">
        <ele>491.8</ele>
        <time>2025-09-08T12:06:29Z</time>
      </trkpt>
      <trkpt lat="46.05589" lon="4.39528">
        <ele>491.8</ele>
        <time>2025-09-08T12:06:30Z</time>
      </trkpt>
      <trkpt lat="46.05585" lon="4.39528">
        <ele>491.8</ele>
        <time>2025-09-08T12:06:31Z</time>
      </trkpt>
      <trkpt lat="46.05578" lon="4.39528">
        <ele>492</ele>
        <time>2025-09-08T12:06:32Z</time>
      </trkpt>
      <trkpt lat="46.05571" lon="4.39528">
        <ele>492</ele>
        <time>2025-09-08T12:06:33Z</time>
      </trkpt>
      <trkpt lat="46.05565" lon="4.39528">
        <ele>492</ele>
        <time>2025-09-08T12:06:34Z</time>
      </trkpt>
      <trkpt lat="46.05559" lon="4.39529">
        <ele>492</ele>
        <time>2025-09-08T12:06:35Z</time>
      </trkpt>
      <trkpt lat="46.05553" lon="4.3953">
        <ele>492</ele>
        <time>2025-09-08T12:06:36Z</time>
      </trkpt>
      <trkpt lat="46.05546" lon="4.39536">
        <ele>492</ele>
        <time>2025-09-08T12:06:37Z</time>
      </trkpt>
      <trkpt lat="46.05542" lon="4.39535">
        <ele>492</ele>
        <time>2025-09-08T12:06:38Z</time>
      </trkpt>
      <trkpt lat="46.05538" lon="4.39536">
        <ele>492</ele>
        <time>2025-09-08T12:06:39Z</time>
      </trkpt>
      <trkpt lat="46.05534" lon="4.39537">
        <ele>492</ele>
        <time>2025-09-08T12:06:40Z</time>
      </trkpt>
      <trkpt lat="46.05528" lon="4.39539">
        <ele>492</ele>
        <time>2025-09-08T12:06:41Z</time>
      </trkpt>
      <trkpt lat="46.05517" lon="4.39543">
        <ele>492</ele>
        <time>2025-09-08T12:06:42Z</time>
      </trkpt>
      <trkpt lat="46.0551" lon="4.39544">
        <ele>492</ele>
        <time>2025-09-08T12:06:43Z</time>
      </trkpt>
      <trkpt lat="46.05504" lon="4.39546">
        <ele>492</ele>
        <time>2025-09-08T12:06:44Z</time>
      </trkpt>
      <trkpt lat="46.05498" lon="4.39548">
        <ele>492</ele>
        <time>2025-09-08T12:06:45Z</time>
      </trkpt>
      <trkpt lat="46.05491" lon="4.39551">
        <ele>492</ele>
        <time>2025-09-08T12:06:46Z</time>
      </trkpt>
      <trkpt lat="46.05485" lon="4.39553">
        <ele>491.8</ele>
        <time>2025-09-08T12:06:47Z</time>
      </trkpt>
      <trkpt lat="46.05479" lon="4.39556">
        <ele>491.8</ele>
        <time>2025-09-08T12:06:48Z</time>
      </trkpt>
      <trkpt lat="46.05473" lon="4.39558">
        <ele>491.8</ele>
        <time>2025-09-08T12:06:49Z</time>
      </trkpt>
      <trkpt lat="46.05467" lon="4.3956">
        <ele>491.8</ele>
        <time>2025-09-08T12:06:50Z</time>
      </trkpt>
      <trkpt lat="46.05461" lon="4.39562">
        <ele>491.8</ele>
        <time>2025-09-08T12:06:51Z</time>
      </trkpt>
      <trkpt lat="46.05456" lon="4.39564">
        <ele>491.8</ele>
        <time>2025-09-08T12:06:52Z</time>
      </trkpt>
      <trkpt lat="46.05449" lon="4.39565">
        <ele>491.2</ele>
        <time>2025-09-08T12:06:53Z</time>
      </trkpt>
      <trkpt lat="46.05443" lon="4.39568">
        <ele>490.8</ele>
        <time>2025-09-08T12:06:54Z</time>
      </trkpt>
      <trkpt lat="46.05439" lon="4.39571">
        <ele>490.6</ele>
        <time>2025-09-08T12:06:55Z</time>
      </trkpt>
      <trkpt lat="46.05433" lon="4.39572">
        <ele>490.6</ele>
        <time>2025-09-08T12:06:56Z</time>
      </trkpt>
      <trkpt lat="46.05428" lon="4.39574">
        <ele>490.6</ele>
        <time>2025-09-08T12:06:57Z</time>
      </trkpt>
      <trkpt lat="46.05422" lon="4.39576">
        <ele>490.6</ele>
        <time>2025-09-08T12:06:58Z</time>
      </trkpt>
      <trkpt lat="46.05415" lon="4.39577">
        <ele>490.4</ele>
        <time>2025-09-08T12:06:59Z</time>
      </trkpt>
      <trkpt lat="46.05415" lon="4.39577">
        <ele>490.4</ele>
        <time>2025-09-08T12:07:00Z</time>
      </trkpt>
      <trkpt lat="46.05409" lon="4.39577">
        <ele>490.4</ele>
        <time>2025-09-08T12:07:01Z</time>
      </trkpt>
      <trkpt lat="46.05404" lon="4.39579">
        <ele>490.4</ele>
        <time>2025-09-08T12:07:02Z</time>
      </trkpt>
      <trkpt lat="46.05396" lon="4.3958">
        <ele>490.4</ele>
        <time>2025-09-08T12:07:03Z</time>
      </trkpt>
      <trkpt lat="46.0539" lon="4.39582">
        <ele>490</ele>
        <time>2025-09-08T12:07:04Z</time>
      </trkpt>
      <trkpt lat="46.05384" lon="4.39583">
        <ele>490</ele>
        <time>2025-09-08T12:07:05Z</time>
      </trkpt>
      <trkpt lat="46.05378" lon="4.39585">
        <ele>490</ele>
        <time>2025-09-08T12:07:06Z</time>
      </trkpt>
      <trkpt lat="46.05372" lon="4.39587">
        <ele>490</ele>
        <time>2025-09-08T12:07:07Z</time>
      </trkpt>
      <trkpt lat="46.05365" lon="4.39589">
        <ele>490</ele>
        <time>2025-09-08T12:07:08Z</time>
      </trkpt>
      <trkpt lat="46.05359" lon="4.39591">
        <ele>490</ele>
        <time>2025-09-08T12:07:09Z</time>
      </trkpt>
      <trkpt lat="46.05353" lon="4.39592">
        <ele>490</ele>
        <time>2025-09-08T12:07:10Z</time>
      </trkpt>
      <trkpt lat="46.05346" lon="4.39594">
        <ele>489.8</ele>
        <time>2025-09-08T12:07:11Z</time>
      </trkpt>
      <trkpt lat="46.05339" lon="4.39595">
        <ele>489.6</ele>
        <time>2025-09-08T12:07:12Z</time>
      </trkpt>
      <trkpt lat="46.05332" lon="4.39596">
        <ele>489.2</ele>
        <time>2025-09-08T12:07:13Z</time>
      </trkpt>
      <trkpt lat="46.05325" lon="4.39595">
        <ele>489.2</ele>
        <time>2025-09-08T12:07:14Z</time>
      </trkpt>
      <trkpt lat="46.05317" lon="4.39594">
        <ele>488.6</ele>
        <time>2025-09-08T12:07:15Z</time>
      </trkpt>
      <trkpt lat="46.0531" lon="4.39592">
        <ele>488</ele>
        <time>2025-09-08T12:07:16Z</time>
      </trkpt>
      <trkpt lat="46.05305" lon="4.39587">
        <ele>488</ele>
        <time>2025-09-08T12:07:17Z</time>
      </trkpt>
      <trkpt lat="46.05297" lon="4.39583">
        <ele>488</ele>
        <time>2025-09-08T12:07:18Z</time>
      </trkpt>
      <trkpt lat="46.05291" lon="4.39577">
        <ele>487.4</ele>
        <time>2025-09-08T12:07:19Z</time>
      </trkpt>
      <trkpt lat="46.05285" lon="4.39571">
        <ele>487.4</ele>
        <time>2025-09-08T12:07:20Z</time>
      </trkpt>
      <trkpt lat="46.0528" lon="4.39565">
        <ele>487.2</ele>
        <time>2025-09-08T12:07:21Z</time>
      </trkpt>
      <trkpt lat="46.05274" lon="4.39558">
        <ele>487.2</ele>
        <time>2025-09-08T12:07:22Z</time>
      </trkpt>
      <trkpt lat="46.0527" lon="4.39551">
        <ele>487.2</ele>
        <time>2025-09-08T12:07:23Z</time>
      </trkpt>
      <trkpt lat="46.05265" lon="4.39544">
        <ele>486.8</ele>
        <time>2025-09-08T12:07:24Z</time>
      </trkpt>
      <trkpt lat="46.0526" lon="4.39538">
        <ele>486.8</ele>
        <time>2025-09-08T12:07:25Z</time>
      </trkpt>
      <trkpt lat="46.05256" lon="4.39532">
        <ele>487</ele>
        <time>2025-09-08T12:07:26Z</time>
      </trkpt>
      <trkpt lat="46.05252" lon="4.39526">
        <ele>486.6</ele>
        <time>2025-09-08T12:07:27Z</time>
      </trkpt>
      <trkpt lat="46.05247" lon="4.39521">
        <ele>486.6</ele>
        <time>2025-09-08T12:07:28Z</time>
      </trkpt>
      <trkpt lat="46.05242" lon="4.39516">
        <ele>486.4</ele>
        <time>2025-09-08T12:07:29Z</time>
      </trkpt>
      <trkpt lat="46.05237" lon="4.39512">
        <ele>486.6</ele>
        <time>2025-09-08T12:07:30Z</time>
      </trkpt>
      <trkpt lat="46.05232" lon="4.39508">
        <ele>486.6</ele>
        <time>2025-09-08T12:07:31Z</time>
      </trkpt>
      <trkpt lat="46.05228" lon="4.39503">
        <ele>486.6</ele>
        <time>2025-09-08T12:07:32Z</time>
      </trkpt>
      <trkpt lat="46.05223" lon="4.39499">
        <ele>486.6</ele>
        <time>2025-09-08T12:07:33Z</time>
      </trkpt>
      <trkpt lat="46.05218" lon="4.39495">
        <ele>486.8</ele>
        <time>2025-09-08T12:07:34Z</time>
      </trkpt>
      <trkpt lat="46.05212" lon="4.3949">
        <ele>486.8</ele>
        <time>2025-09-08T12:07:35Z</time>
      </trkpt>
      <trkpt lat="46.05207" lon="4.39487">
        <ele>486.8</ele>
        <time>2025-09-08T12:07:36Z</time>
      </trkpt>
      <trkpt lat="46.05203" lon="4.39483">
        <ele>486.8</ele>
        <time>2025-09-08T12:07:37Z</time>
      </trkpt>
      <trkpt lat="46.05198" lon="4.39478">
        <ele>486.8</ele>
        <time>2025-09-08T12:07:38Z</time>
      </trkpt>
      <trkpt lat="46.05195" lon="4.39473">
        <ele>487.4</ele>
        <time>2025-09-08T12:07:39Z</time>
      </trkpt>
      <trkpt lat="46.0519" lon="4.39469">
        <ele>487.4</ele>
        <time>2025-09-08T12:07:40Z</time>
      </trkpt>
      <trkpt lat="46.05185" lon="4.39465">
        <ele>487.4</ele>
        <time>2025-09-08T12:07:41Z</time>
      </trkpt>
      <trkpt lat="46.05181" lon="4.39461">
        <ele>487.2</ele>
        <time>2025-09-08T12:07:42Z</time>
      </trkpt>
      <trkpt lat="46.05176" lon="4.39456">
        <ele>487.2</ele>
        <time>2025-09-08T12:07:43Z</time>
      </trkpt>
      <trkpt lat="46.05172" lon="4.39452">
        <ele>487.2</ele>
        <time>2025-09-08T12:07:44Z</time>
      </trkpt>
      <trkpt lat="46.05167" lon="4.39448">
        <ele>487.2</ele>
        <time>2025-09-08T12:07:45Z</time>
      </trkpt>
      <trkpt lat="46.05163" lon="4.39445">
        <ele>487.2</ele>
        <time>2025-09-08T12:07:46Z</time>
      </trkpt>
      <trkpt lat="46.05158" lon="4.39442">
        <ele>487.2</ele>
        <time>2025-09-08T12:07:47Z</time>
      </trkpt>
      <trkpt lat="46.05152" lon="4.39438">
        <ele>487.2</ele>
        <time>2025-09-08T12:07:48Z</time>
      </trkpt>
      <trkpt lat="46.05147" lon="4.39435">
        <ele>487.2</ele>
        <time>2025-09-08T12:07:49Z</time>
      </trkpt>
      <trkpt lat="46.05142" lon="4.39432">
        <ele>486.8</ele>
        <time>2025-09-08T12:07:50Z</time>
      </trkpt>
      <trkpt lat="46.05136" lon="4.39428">
        <ele>486.8</ele>
        <time>2025-09-08T12:07:51Z</time>
      </trkpt>
      <trkpt lat="46.0513" lon="4.39426">
        <ele>486.8</ele>
        <time>2025-09-08T12:07:52Z</time>
      </trkpt>
      <trkpt lat="46.05124" lon="4.39424">
        <ele>486.8</ele>
        <time>2025-09-08T12:07:53Z</time>
      </trkpt>
      <trkpt lat="46.05118" lon="4.39422">
        <ele>486.8</ele>
        <time>2025-09-08T12:07:54Z</time>
      </trkpt>
      <trkpt lat="46.05113" lon="4.39419">
        <ele>486.6</ele>
        <time>2025-09-08T12:07:55Z</time>
      </trkpt>
      <trkpt lat="46.05106" lon="4.39418">
        <ele>486.6</ele>
        <time>2025-09-08T12:07:56Z</time>
      </trkpt>
      <trkpt lat="46.05099" lon="4.39416">
        <ele>486.4</ele>
        <time>2025-09-08T12:07:57Z</time>
      </trkpt>
      <trkpt lat="46.05092" lon="4.39413">
        <ele>486.4</ele>
        <time>2025-09-08T12:07:58Z</time>
      </trkpt>
      <trkpt lat="46.05086" lon="4.39412">
        <ele>486</ele>
        <time>2025-09-08T12:07:59Z</time>
      </trkpt>
      <trkpt lat="46.05078" lon="4.39409">
        <ele>486</ele>
        <time>2025-09-08T12:08:00Z</time>
      </trkpt>
      <trkpt lat="46.05072" lon="4.39407">
        <ele>485.8</ele>
        <time>2025-09-08T12:08:01Z</time>
      </trkpt>
      <trkpt lat="46.05065" lon="4.39405">
        <ele>485.4</ele>
        <time>2025-09-08T12:08:02Z</time>
      </trkpt>
      <trkpt lat="46.05058" lon="4.39404">
        <ele>485.4</ele>
        <time>2025-09-08T12:08:03Z</time>
      </trkpt>
      <trkpt lat="46.05052" lon="4.39402">
        <ele>485.2</ele>
        <time>2025-09-08T12:08:04Z</time>
      </trkpt>
      <trkpt lat="46.05046" lon="4.394">
        <ele>485.2</ele>
        <time>2025-09-08T12:08:05Z</time>
      </trkpt>
      <trkpt lat="46.05039" lon="4.39398">
        <ele>485.2</ele>
        <time>2025-09-08T12:08:06Z</time>
      </trkpt>
      <trkpt lat="46.05032" lon="4.39396">
        <ele>485</ele>
        <time>2025-09-08T12:08:07Z</time>
      </trkpt>
      <trkpt lat="46.05026" lon="4.39395">
        <ele>484.6</ele>
        <time>2025-09-08T12:08:08Z</time>
      </trkpt>
      <trkpt lat="46.05019" lon="4.39392">
        <ele>484.6</ele>
        <time>2025-09-08T12:08:09Z</time>
      </trkpt>
      <trkpt lat="46.05012" lon="4.39392">
        <ele>484.6</ele>
        <time>2025-09-08T12:08:10Z</time>
      </trkpt>
      <trkpt lat="46.05005" lon="4.3939">
        <ele>484.2</ele>
        <time>2025-09-08T12:08:11Z</time>
      </trkpt>
      <trkpt lat="46.04997" lon="4.39389">
        <ele>484</ele>
        <time>2025-09-08T12:08:12Z</time>
      </trkpt>
      <trkpt lat="46.0499" lon="4.39388">
        <ele>483.8</ele>
        <time>2025-09-08T12:08:13Z</time>
      </trkpt>
      <trkpt lat="46.04985" lon="4.39385">
        <ele>483.8</ele>
        <time>2025-09-08T12:08:14Z</time>
      </trkpt>
      <trkpt lat="46.04979" lon="4.39383">
        <ele>483.6</ele>
        <time>2025-09-08T12:08:15Z</time>
      </trkpt>
      <trkpt lat="46.04972" lon="4.39382">
        <ele>483.6</ele>
        <time>2025-09-08T12:08:16Z</time>
      </trkpt>
      <trkpt lat="46.04965" lon="4.39382">
        <ele>483.6</ele>
        <time>2025-09-08T12:08:17Z</time>
      </trkpt>
      <trkpt lat="46.04959" lon="4.3938">
        <ele>483.6</ele>
        <time>2025-09-08T12:08:18Z</time>
      </trkpt>
      <trkpt lat="46.04953" lon="4.39381">
        <ele>483.6</ele>
        <time>2025-09-08T12:08:19Z</time>
      </trkpt>
      <trkpt lat="46.04947" lon="4.39381">
        <ele>483.6</ele>
        <time>2025-09-08T12:08:20Z</time>
      </trkpt>
      <trkpt lat="46.04941" lon="4.39379">
        <ele>483.6</ele>
        <time>2025-09-08T12:08:21Z</time>
      </trkpt>
      <trkpt lat="46.04934" lon="4.3938">
        <ele>483</ele>
        <time>2025-09-08T12:08:22Z</time>
      </trkpt>
      <trkpt lat="46.04928" lon="4.39382">
        <ele>483</ele>
        <time>2025-09-08T12:08:23Z</time>
      </trkpt>
      <trkpt lat="46.04922" lon="4.39384">
        <ele>483</ele>
        <time>2025-09-08T12:08:24Z</time>
      </trkpt>
      <trkpt lat="46.04915" lon="4.39385">
        <ele>483</ele>
        <time>2025-09-08T12:08:25Z</time>
      </trkpt>
      <trkpt lat="46.0491" lon="4.39386">
        <ele>483</ele>
        <time>2025-09-08T12:08:26Z</time>
      </trkpt>
      <trkpt lat="46.04902" lon="4.39388">
        <ele>483</ele>
        <time>2025-09-08T12:08:27Z</time>
      </trkpt>
      <trkpt lat="46.04897" lon="4.39389">
        <ele>483</ele>
        <time>2025-09-08T12:08:28Z</time>
      </trkpt>
      <trkpt lat="46.04891" lon="4.39388">
        <ele>483.4</ele>
        <time>2025-09-08T12:08:29Z</time>
      </trkpt>
      <trkpt lat="46.04885" lon="4.39389">
        <ele>483.2</ele>
        <time>2025-09-08T12:08:30Z</time>
      </trkpt>
      <trkpt lat="46.04879" lon="4.39389">
        <ele>483.2</ele>
        <time>2025-09-08T12:08:31Z</time>
      </trkpt>
      <trkpt lat="46.04873" lon="4.39389">
        <ele>483.2</ele>
        <time>2025-09-08T12:08:32Z</time>
      </trkpt>
      <trkpt lat="46.04867" lon="4.39389">
        <ele>482.8</ele>
        <time>2025-09-08T12:08:33Z</time>
      </trkpt>
      <trkpt lat="46.04862" lon="4.3939">
        <ele>482.8</ele>
        <time>2025-09-08T12:08:34Z</time>
      </trkpt>
      <trkpt lat="46.04856" lon="4.39389">
        <ele>483</ele>
        <time>2025-09-08T12:08:35Z</time>
      </trkpt>
      <trkpt lat="46.0485" lon="4.39388">
        <ele>483</ele>
        <time>2025-09-08T12:08:36Z</time>
      </trkpt>
      <trkpt lat="46.04844" lon="4.39388">
        <ele>483</ele>
        <time>2025-09-08T12:08:37Z</time>
      </trkpt>
      <trkpt lat="46.04838" lon="4.39387">
        <ele>483</ele>
        <time>2025-09-08T12:08:38Z</time>
      </trkpt>
      <trkpt lat="46.04833" lon="4.39386">
        <ele>483</ele>
        <time>2025-09-08T12:08:39Z</time>
      </trkpt>
      <trkpt lat="46.04827" lon="4.39385">
        <ele>483</ele>
        <time>2025-09-08T12:08:40Z</time>
      </trkpt>
      <trkpt lat="46.04823" lon="4.39385">
        <ele>483</ele>
        <time>2025-09-08T12:08:41Z</time>
      </trkpt>
      <trkpt lat="46.04818" lon="4.39386">
        <ele>483.4</ele>
        <time>2025-09-08T12:08:42Z</time>
      </trkpt>
      <trkpt lat="46.04812" lon="4.39383">
        <ele>483.2</ele>
        <time>2025-09-08T12:08:43Z</time>
      </trkpt>
      <trkpt lat="46.04807" lon="4.39383">
        <ele>483.2</ele>
        <time>2025-09-08T12:08:44Z</time>
      </trkpt>
      <trkpt lat="46.04802" lon="4.39382">
        <ele>483.2</ele>
        <time>2025-09-08T12:08:45Z</time>
      </trkpt>
      <trkpt lat="46.04797" lon="4.39381">
        <ele>483.6</ele>
        <time>2025-09-08T12:08:46Z</time>
      </trkpt>
      <trkpt lat="46.04793" lon="4.3938">
        <ele>483.6</ele>
        <time>2025-09-08T12:08:47Z</time>
      </trkpt>
      <trkpt lat="46.04788" lon="4.3938">
        <ele>483.6</ele>
        <time>2025-09-08T12:08:48Z</time>
      </trkpt>
      <trkpt lat="46.04783" lon="4.39379">
        <ele>484</ele>
        <time>2025-09-08T12:08:49Z</time>
      </trkpt>
      <trkpt lat="46.04779" lon="4.3938">
        <ele>484</ele>
        <time>2025-09-08T12:08:50Z</time>
      </trkpt>
      <trkpt lat="46.04773" lon="4.39379">
        <ele>483.6</ele>
        <time>2025-09-08T12:08:51Z</time>
      </trkpt>
      <trkpt lat="46.04768" lon="4.39378">
        <ele>483.6</ele>
        <time>2025-09-08T12:08:52Z</time>
      </trkpt>
      <trkpt lat="46.04764" lon="4.39377">
        <ele>483.6</ele>
        <time>2025-09-08T12:08:53Z</time>
      </trkpt>
      <trkpt lat="46.04759" lon="4.39376">
        <ele>483.6</ele>
        <time>2025-09-08T12:08:54Z</time>
      </trkpt>
      <trkpt lat="46.04754" lon="4.39376">
        <ele>483.6</ele>
        <time>2025-09-08T12:08:55Z</time>
      </trkpt>
      <trkpt lat="46.04749" lon="4.39375">
        <ele>483.6</ele>
        <time>2025-09-08T12:08:56Z</time>
      </trkpt>
      <trkpt lat="46.04744" lon="4.39374">
        <ele>484.2</ele>
        <time>2025-09-08T12:08:57Z</time>
      </trkpt>
      <trkpt lat="46.0474" lon="4.39373">
        <ele>484.2</ele>
        <time>2025-09-08T12:08:58Z</time>
      </trkpt>
      <trkpt lat="46.04735" lon="4.39372">
        <ele>484.2</ele>
        <time>2025-09-08T12:08:59Z</time>
      </trkpt>
      <trkpt lat="46.0473" lon="4.39372">
        <ele>484.4</ele>
        <time>2025-09-08T12:09:00Z</time>
      </trkpt>
      <trkpt lat="46.04725" lon="4.3937">
        <ele>484.4</ele>
        <time>2025-09-08T12:09:01Z</time>
      </trkpt>
      <trkpt lat="46.0472" lon="4.39369">
        <ele>484.4</ele>
        <time>2025-09-08T12:09:02Z</time>
      </trkpt>
      <trkpt lat="46.04715" lon="4.39368">
        <ele>484.4</ele>
        <time>2025-09-08T12:09:03Z</time>
      </trkpt>
      <trkpt lat="46.0471" lon="4.39367">
        <ele>484.4</ele>
        <time>2025-09-08T12:09:04Z</time>
      </trkpt>
      <trkpt lat="46.04705" lon="4.39366">
        <ele>484.2</ele>
        <time>2025-09-08T12:09:05Z</time>
      </trkpt>
      <trkpt lat="46.047" lon="4.39364">
        <ele>484.2</ele>
        <time>2025-09-08T12:09:06Z</time>
      </trkpt>
      <trkpt lat="46.04696" lon="4.39362">
        <ele>484.2</ele>
        <time>2025-09-08T12:09:07Z</time>
      </trkpt>
      <trkpt lat="46.04691" lon="4.3936">
        <ele>484.2</ele>
        <time>2025-09-08T12:09:08Z</time>
      </trkpt>
      <trkpt lat="46.04685" lon="4.39357">
        <ele>483.8</ele>
        <time>2025-09-08T12:09:09Z</time>
      </trkpt>
      <trkpt lat="46.0468" lon="4.39355">
        <ele>483.6</ele>
        <time>2025-09-08T12:09:10Z</time>
      </trkpt>
      <trkpt lat="46.04676" lon="4.39352">
        <ele>483.6</ele>
        <time>2025-09-08T12:09:11Z</time>
      </trkpt>
      <trkpt lat="46.0467" lon="4.3935">
        <ele>483.6</ele>
        <time>2025-09-08T12:09:12Z</time>
      </trkpt>
      <trkpt lat="46.04665" lon="4.39347">
        <ele>483.6</ele>
        <time>2025-09-08T12:09:13Z</time>
      </trkpt>
      <trkpt lat="46.0466" lon="4.39344">
        <ele>483.6</ele>
        <time>2025-09-08T12:09:14Z</time>
      </trkpt>
      <trkpt lat="46.04655" lon="4.3934">
        <ele>483.6</ele>
        <time>2025-09-08T12:09:15Z</time>
      </trkpt>
      <trkpt lat="46.0465" lon="4.39337">
        <ele>483.8</ele>
        <time>2025-09-08T12:09:16Z</time>
      </trkpt>
      <trkpt lat="46.04645" lon="4.39334">
        <ele>483.2</ele>
        <time>2025-09-08T12:09:17Z</time>
      </trkpt>
      <trkpt lat="46.04639" lon="4.3933">
        <ele>483</ele>
        <time>2025-09-08T12:09:18Z</time>
      </trkpt>
      <trkpt lat="46.04634" lon="4.39328">
        <ele>483</ele>
        <time>2025-09-08T12:09:19Z</time>
      </trkpt>
      <trkpt lat="46.04629" lon="4.39324">
        <ele>482.6</ele>
        <time>2025-09-08T12:09:20Z</time>
      </trkpt>
      <trkpt lat="46.04623" lon="4.39321">
        <ele>482.6</ele>
        <time>2025-09-08T12:09:21Z</time>
      </trkpt>
      <trkpt lat="46.04617" lon="4.39318">
        <ele>482.6</ele>
        <time>2025-09-08T12:09:22Z</time>
      </trkpt>
      <trkpt lat="46.04612" lon="4.39314">
        <ele>482.2</ele>
        <time>2025-09-08T12:09:23Z</time>
      </trkpt>
      <trkpt lat="46.04607" lon="4.39311">
        <ele>482.2</ele>
        <time>2025-09-08T12:09:24Z</time>
      </trkpt>
      <trkpt lat="46.04601" lon="4.39306">
        <ele>482.2</ele>
        <time>2025-09-08T12:09:25Z</time>
      </trkpt>
      <trkpt lat="46.04595" lon="4.39302">
        <ele>482.2</ele>
        <time>2025-09-08T12:09:26Z</time>
      </trkpt>
      <trkpt lat="46.0459" lon="4.39298">
        <ele>482.2</ele>
        <time>2025-09-08T12:09:27Z</time>
      </trkpt>
      <trkpt lat="46.04584" lon="4.39295">
        <ele>481.8</ele>
        <time>2025-09-08T12:09:28Z</time>
      </trkpt>
      <trkpt lat="46.04578" lon="4.39291">
        <ele>481.4</ele>
        <time>2025-09-08T12:09:29Z</time>
      </trkpt>
      <trkpt lat="46.04572" lon="4.39287">
        <ele>481.2</ele>
        <time>2025-09-08T12:09:30Z</time>
      </trkpt>
      <trkpt lat="46.04567" lon="4.39282">
        <ele>481.2</ele>
        <time>2025-09-08T12:09:31Z</time>
      </trkpt>
      <trkpt lat="46.04562" lon="4.39279">
        <ele>481.2</ele>
        <time>2025-09-08T12:09:32Z</time>
      </trkpt>
      <trkpt lat="46.04556" lon="4.39274">
        <ele>480.8</ele>
        <time>2025-09-08T12:09:33Z</time>
      </trkpt>
      <trkpt lat="46.04551" lon="4.39269">
        <ele>480.8</ele>
        <time>2025-09-08T12:09:34Z</time>
      </trkpt>
      <trkpt lat="46.04545" lon="4.39265">
        <ele>480.8</ele>
        <time>2025-09-08T12:09:35Z</time>
      </trkpt>
      <trkpt lat="46.0454" lon="4.3926">
        <ele>480.6</ele>
        <time>2025-09-08T12:09:36Z</time>
      </trkpt>
      <trkpt lat="46.04534" lon="4.39255">
        <ele>480.6</ele>
        <time>2025-09-08T12:09:37Z</time>
      </trkpt>
      <trkpt lat="46.04529" lon="4.3925">
        <ele>480.4</ele>
        <time>2025-09-08T12:09:38Z</time>
      </trkpt>
      <trkpt lat="46.04523" lon="4.39245">
        <ele>480.4</ele>
        <time>2025-09-08T12:09:39Z</time>
      </trkpt>
      <trkpt lat="46.04518" lon="4.39241">
        <ele>480.4</ele>
        <time>2025-09-08T12:09:40Z</time>
      </trkpt>
      <trkpt lat="46.04513" lon="4.39237">
        <ele>480.2</ele>
        <time>2025-09-08T12:09:41Z</time>
      </trkpt>
      <trkpt lat="46.04509" lon="4.39234">
        <ele>480.2</ele>
        <time>2025-09-08T12:09:42Z</time>
      </trkpt>
      <trkpt lat="46.04503" lon="4.39228">
        <ele>480.2</ele>
        <time>2025-09-08T12:09:43Z</time>
      </trkpt>
      <trkpt lat="46.04498" lon="4.39224">
        <ele>480.2</ele>
        <time>2025-09-08T12:09:44Z</time>
      </trkpt>
      <trkpt lat="46.04492" lon="4.39219">
        <ele>480</ele>
        <time>2025-09-08T12:09:45Z</time>
      </trkpt>
      <trkpt lat="46.04487" lon="4.39214">
        <ele>480</ele>
        <time>2025-09-08T12:09:46Z</time>
      </trkpt>
      <trkpt lat="46.04481" lon="4.39209">
        <ele>480</ele>
        <time>2025-09-08T12:09:47Z</time>
      </trkpt>
      <trkpt lat="46.04477" lon="4.39205">
        <ele>479.8</ele>
        <time>2025-09-08T12:09:48Z</time>
      </trkpt>
      <trkpt lat="46.04471" lon="4.392">
        <ele>479.8</ele>
        <time>2025-09-08T12:09:49Z</time>
      </trkpt>
      <trkpt lat="46.04461" lon="4.39191">
        <ele>479.8</ele>
        <time>2025-09-08T12:09:50Z</time>
      </trkpt>
      <trkpt lat="46.04456" lon="4.39187">
        <ele>480</ele>
        <time>2025-09-08T12:09:51Z</time>
      </trkpt>
      <trkpt lat="46.04451" lon="4.39182">
        <ele>479.8</ele>
        <time>2025-09-08T12:09:52Z</time>
      </trkpt>
      <trkpt lat="46.04445" lon="4.39178">
        <ele>479.8</ele>
        <time>2025-09-08T12:09:53Z</time>
      </trkpt>
      <trkpt lat="46.0444" lon="4.39174">
        <ele>479.8</ele>
        <time>2025-09-08T12:09:54Z</time>
      </trkpt>
      <trkpt lat="46.04435" lon="4.39169">
        <ele>479.8</ele>
        <time>2025-09-08T12:09:55Z</time>
      </trkpt>
      <trkpt lat="46.0443" lon="4.39165">
        <ele>480</ele>
        <time>2025-09-08T12:09:56Z</time>
      </trkpt>
      <trkpt lat="46.04426" lon="4.3916">
        <ele>480</ele>
        <time>2025-09-08T12:09:57Z</time>
      </trkpt>
      <trkpt lat="46.04421" lon="4.39155">
        <ele>479.6</ele>
        <time>2025-09-08T12:09:58Z</time>
      </trkpt>
      <trkpt lat="46.04416" lon="4.39151">
        <ele>479.6</ele>
        <time>2025-09-08T12:09:59Z</time>
      </trkpt>
      <trkpt lat="46.04411" lon="4.39146">
        <ele>479.6</ele>
        <time>2025-09-08T12:10:00Z</time>
      </trkpt>
      <trkpt lat="46.04406" lon="4.39142">
        <ele>479.6</ele>
        <time>2025-09-08T12:10:01Z</time>
      </trkpt>
      <trkpt lat="46.04402" lon="4.39137">
        <ele>479.4</ele>
        <time>2025-09-08T12:10:02Z</time>
      </trkpt>
      <trkpt lat="46.04397" lon="4.39132">
        <ele>479.4</ele>
        <time>2025-09-08T12:10:03Z</time>
      </trkpt>
      <trkpt lat="46.04392" lon="4.39126">
        <ele>479.4</ele>
        <time>2025-09-08T12:10:04Z</time>
      </trkpt>
      <trkpt lat="46.04388" lon="4.39121">
        <ele>479.4</ele>
        <time>2025-09-08T12:10:05Z</time>
      </trkpt>
      <trkpt lat="46.04383" lon="4.39114">
        <ele>479.4</ele>
        <time>2025-09-08T12:10:06Z</time>
      </trkpt>
      <trkpt lat="46.04378" lon="4.39109">
        <ele>479.4</ele>
        <time>2025-09-08T12:10:07Z</time>
      </trkpt>
      <trkpt lat="46.04374" lon="4.39103">
        <ele>479.4</ele>
        <time>2025-09-08T12:10:08Z</time>
      </trkpt>
      <trkpt lat="46.04369" lon="4.39096">
        <ele>479.4</ele>
        <time>2025-09-08T12:10:09Z</time>
      </trkpt>
      <trkpt lat="46.04365" lon="4.39089">
        <ele>479.2</ele>
        <time>2025-09-08T12:10:10Z</time>
      </trkpt>
      <trkpt lat="46.0436" lon="4.39082">
        <ele>479.2</ele>
        <time>2025-09-08T12:10:11Z</time>
      </trkpt>
      <trkpt lat="46.04356" lon="4.39075">
        <ele>479.2</ele>
        <time>2025-09-08T12:10:12Z</time>
      </trkpt>
      <trkpt lat="46.04351" lon="4.39068">
        <ele>478.8</ele>
        <time>2025-09-08T12:10:13Z</time>
      </trkpt>
      <trkpt lat="46.04347" lon="4.39063">
        <ele>478.8</ele>
        <time>2025-09-08T12:10:14Z</time>
      </trkpt>
      <trkpt lat="46.04342" lon="4.39056">
        <ele>478.8</ele>
        <time>2025-09-08T12:10:15Z</time>
      </trkpt>
      <trkpt lat="46.04337" lon="4.3905">
        <ele>478.8</ele>
        <time>2025-09-08T12:10:16Z</time>
      </trkpt>
      <trkpt lat="46.04331" lon="4.39043">
        <ele>478.8</ele>
        <time>2025-09-08T12:10:17Z</time>
      </trkpt>
      <trkpt lat="46.04325" lon="4.39037">
        <ele>478.8</ele>
        <time>2025-09-08T12:10:18Z</time>
      </trkpt>
      <trkpt lat="46.0432" lon="4.3903">
        <ele>478.6</ele>
        <time>2025-09-08T12:10:19Z</time>
      </trkpt>
      <trkpt lat="46.04314" lon="4.39024">
        <ele>478.2</ele>
        <time>2025-09-08T12:10:20Z</time>
      </trkpt>
      <trkpt lat="46.04308" lon="4.39019">
        <ele>478</ele>
        <time>2025-09-08T12:10:21Z</time>
      </trkpt>
      <trkpt lat="46.04302" lon="4.39014">
        <ele>478</ele>
        <time>2025-09-08T12:10:22Z</time>
      </trkpt>
      <trkpt lat="46.04296" lon="4.39009">
        <ele>477.6</ele>
        <time>2025-09-08T12:10:23Z</time>
      </trkpt>
      <trkpt lat="46.0429" lon="4.39004">
        <ele>477.6</ele>
        <time>2025-09-08T12:10:24Z</time>
      </trkpt>
      <trkpt lat="46.04282" lon="4.39001">
        <ele>477.2</ele>
        <time>2025-09-08T12:10:25Z</time>
      </trkpt>
      <trkpt lat="46.04276" lon="4.38995">
        <ele>477.2</ele>
        <time>2025-09-08T12:10:26Z</time>
      </trkpt>
      <trkpt lat="46.04271" lon="4.38989">
        <ele>477.2</ele>
        <time>2025-09-08T12:10:27Z</time>
      </trkpt>
      <trkpt lat="46.04265" lon="4.38984">
        <ele>476.6</ele>
        <time>2025-09-08T12:10:28Z</time>
      </trkpt>
      <trkpt lat="46.04259" lon="4.3898">
        <ele>476.2</ele>
        <time>2025-09-08T12:10:29Z</time>
      </trkpt>
      <trkpt lat="46.04254" lon="4.38972">
        <ele>476.2</ele>
        <time>2025-09-08T12:10:30Z</time>
      </trkpt>
      <trkpt lat="46.04248" lon="4.38967">
        <ele>476.2</ele>
        <time>2025-09-08T12:10:31Z</time>
      </trkpt>
      <trkpt lat="46.04242" lon="4.38961">
        <ele>475.8</ele>
        <time>2025-09-08T12:10:32Z</time>
      </trkpt>
      <trkpt lat="46.04236" lon="4.38955">
        <ele>475.8</ele>
        <time>2025-09-08T12:10:33Z</time>
      </trkpt>
      <trkpt lat="46.04231" lon="4.3895">
        <ele>475.8</ele>
        <time>2025-09-08T12:10:34Z</time>
      </trkpt>
      <trkpt lat="46.04226" lon="4.38945">
        <ele>475.4</ele>
        <time>2025-09-08T12:10:35Z</time>
      </trkpt>
      <trkpt lat="46.04221" lon="4.38939">
        <ele>475.4</ele>
        <time>2025-09-08T12:10:36Z</time>
      </trkpt>
      <trkpt lat="46.04216" lon="4.38935">
        <ele>475.4</ele>
        <time>2025-09-08T12:10:37Z</time>
      </trkpt>
      <trkpt lat="46.04209" lon="4.38932">
        <ele>475.2</ele>
        <time>2025-09-08T12:10:38Z</time>
      </trkpt>
      <trkpt lat="46.04204" lon="4.38926">
        <ele>475.2</ele>
        <time>2025-09-08T12:10:39Z</time>
      </trkpt>
      <trkpt lat="46.04199" lon="4.38921">
        <ele>475</ele>
        <time>2025-09-08T12:10:40Z</time>
      </trkpt>
      <trkpt lat="46.04199" lon="4.38921">
        <ele>475</ele>
        <time>2025-09-08T12:10:41Z</time>
      </trkpt>
      <trkpt lat="46.04193" lon="4.38917">
        <ele>475</ele>
        <time>2025-09-08T12:10:42Z</time>
      </trkpt>
      <trkpt lat="46.04187" lon="4.38912">
        <ele>475.4</ele>
        <time>2025-09-08T12:10:43Z</time>
      </trkpt>
      <trkpt lat="46.04181" lon="4.38907">
        <ele>475.4</ele>
        <time>2025-09-08T12:10:44Z</time>
      </trkpt>
      <trkpt lat="46.04176" lon="4.38902">
        <ele>475.2</ele>
        <time>2025-09-08T12:10:45Z</time>
      </trkpt>
      <trkpt lat="46.04171" lon="4.38898">
        <ele>475.2</ele>
        <time>2025-09-08T12:10:46Z</time>
      </trkpt>
      <trkpt lat="46.04165" lon="4.38893">
        <ele>475.2</ele>
        <time>2025-09-08T12:10:47Z</time>
      </trkpt>
      <trkpt lat="46.04159" lon="4.38889">
        <ele>475</ele>
        <time>2025-09-08T12:10:48Z</time>
      </trkpt>
      <trkpt lat="46.04154" lon="4.38885">
        <ele>475</ele>
        <time>2025-09-08T12:10:49Z</time>
      </trkpt>
      <trkpt lat="46.04148" lon="4.38881">
        <ele>475</ele>
        <time>2025-09-08T12:10:50Z</time>
      </trkpt>
      <trkpt lat="46.04142" lon="4.38877">
        <ele>475</ele>
        <time>2025-09-08T12:10:51Z</time>
      </trkpt>
      <trkpt lat="46.04136" lon="4.38873">
        <ele>475</ele>
        <time>2025-09-08T12:10:52Z</time>
      </trkpt>
      <trkpt lat="46.04131" lon="4.3887">
        <ele>474.6</ele>
        <time>2025-09-08T12:10:53Z</time>
      </trkpt>
      <trkpt lat="46.04124" lon="4.38867">
        <ele>474.6</ele>
        <time>2025-09-08T12:10:54Z</time>
      </trkpt>
      <trkpt lat="46.04119" lon="4.38864">
        <ele>474.6</ele>
        <time>2025-09-08T12:10:55Z</time>
      </trkpt>
      <trkpt lat="46.04113" lon="4.38861">
        <ele>474.4</ele>
        <time>2025-09-08T12:10:56Z</time>
      </trkpt>
      <trkpt lat="46.04108" lon="4.38859">
        <ele>474.4</ele>
        <time>2025-09-08T12:10:57Z</time>
      </trkpt>
      <trkpt lat="46.04103" lon="4.38857">
        <ele>474.4</ele>
        <time>2025-09-08T12:10:58Z</time>
      </trkpt>
      <trkpt lat="46.04098" lon="4.38853">
        <ele>474.4</ele>
        <time>2025-09-08T12:10:59Z</time>
      </trkpt>
      <trkpt lat="46.04092" lon="4.38851">
        <ele>474</ele>
        <time>2025-09-08T12:11:00Z</time>
      </trkpt>
      <trkpt lat="46.04087" lon="4.3885">
        <ele>474</ele>
        <time>2025-09-08T12:11:01Z</time>
      </trkpt>
      <trkpt lat="46.04081" lon="4.38848">
        <ele>474</ele>
        <time>2025-09-08T12:11:02Z</time>
      </trkpt>
      <trkpt lat="46.04074" lon="4.38847">
        <ele>473.8</ele>
        <time>2025-09-08T12:11:03Z</time>
      </trkpt>
      <trkpt lat="46.04068" lon="4.38847">
        <ele>473.8</ele>
        <time>2025-09-08T12:11:04Z</time>
      </trkpt>
      <trkpt lat="46.04062" lon="4.38847">
        <ele>473.8</ele>
        <time>2025-09-08T12:11:05Z</time>
      </trkpt>
      <trkpt lat="46.04056" lon="4.38846">
        <ele>473.4</ele>
        <time>2025-09-08T12:11:06Z</time>
      </trkpt>
      <trkpt lat="46.0405" lon="4.38846">
        <ele>473.4</ele>
        <time>2025-09-08T12:11:07Z</time>
      </trkpt>
      <trkpt lat="46.04044" lon="4.38846">
        <ele>473</ele>
        <time>2025-09-08T12:11:08Z</time>
      </trkpt>
      <trkpt lat="46.04038" lon="4.38846">
        <ele>473</ele>
        <time>2025-09-08T12:11:09Z</time>
      </trkpt>
      <trkpt lat="46.04032" lon="4.38844">
        <ele>473.4</ele>
        <time>2025-09-08T12:11:10Z</time>
      </trkpt>
      <trkpt lat="46.04026" lon="4.38843">
        <ele>473.4</ele>
        <time>2025-09-08T12:11:11Z</time>
      </trkpt>
      <trkpt lat="46.0402" lon="4.38841">
        <ele>473.4</ele>
        <time>2025-09-08T12:11:12Z</time>
      </trkpt>
      <trkpt lat="46.04015" lon="4.38839">
        <ele>473.4</ele>
        <time>2025-09-08T12:11:13Z</time>
      </trkpt>
      <trkpt lat="46.04009" lon="4.38838">
        <ele>473.2</ele>
        <time>2025-09-08T12:11:14Z</time>
      </trkpt>
      <trkpt lat="46.04006" lon="4.38833">
        <ele>473.4</ele>
        <time>2025-09-08T12:11:15Z</time>
      </trkpt>
      <trkpt lat="46.04002" lon="4.38831">
        <ele>473.4</ele>
        <time>2025-09-08T12:11:16Z</time>
      </trkpt>
      <trkpt lat="46.03999" lon="4.38829">
        <ele>473.8</ele>
        <time>2025-09-08T12:11:17Z</time>
      </trkpt>
      <trkpt lat="46.03995" lon="4.38829">
        <ele>473.8</ele>
        <time>2025-09-08T12:11:18Z</time>
      </trkpt>
      <trkpt lat="46.03992" lon="4.38827">
        <ele>473.8</ele>
        <time>2025-09-08T12:11:19Z</time>
      </trkpt>
      <trkpt lat="46.03991" lon="4.38826">
        <ele>473.8</ele>
        <time>2025-09-08T12:11:20Z</time>
      </trkpt>
      <trkpt lat="46.03988" lon="4.38822">
        <ele>473.8</ele>
        <time>2025-09-08T12:11:21Z</time>
      </trkpt>
      <trkpt lat="46.03986" lon="4.38821">
        <ele>474</ele>
        <time>2025-09-08T12:11:22Z</time>
      </trkpt>
      <trkpt lat="46.03984" lon="4.38819">
        <ele>474.2</ele>
        <time>2025-09-08T12:11:23Z</time>
      </trkpt>
      <trkpt lat="46.03983" lon="4.38817">
        <ele>474.6</ele>
        <time>2025-09-08T12:11:24Z</time>
      </trkpt>
      <trkpt lat="46.03981" lon="4.38816">
        <ele>474.6</ele>
        <time>2025-09-08T12:11:25Z</time>
      </trkpt>
      <trkpt lat="46.03979" lon="4.38814">
        <ele>474.6</ele>
        <time>2025-09-08T12:11:26Z</time>
      </trkpt>
      <trkpt lat="46.03977" lon="4.38812">
        <ele>474.6</ele>
        <time>2025-09-08T12:11:27Z</time>
      </trkpt>
      <trkpt lat="46.03976" lon="4.38811">
        <ele>475</ele>
        <time>2025-09-08T12:11:28Z</time>
      </trkpt>
      <trkpt lat="46.03975" lon="4.38809">
        <ele>475</ele>
        <time>2025-09-08T12:11:29Z</time>
      </trkpt>
      <trkpt lat="46.03973" lon="4.38808">
        <ele>475.2</ele>
        <time>2025-09-08T12:11:30Z</time>
      </trkpt>
      <trkpt lat="46.03971" lon="4.38806">
        <ele>475.6</ele>
        <time>2025-09-08T12:11:31Z</time>
      </trkpt>
      <trkpt lat="46.0397" lon="4.38805">
        <ele>475.6</ele>
        <time>2025-09-08T12:11:32Z</time>
      </trkpt>
      <trkpt lat="46.03969" lon="4.38804">
        <ele>475.8</ele>
        <time>2025-09-08T12:11:33Z</time>
      </trkpt>
      <trkpt lat="46.03967" lon="4.38802">
        <ele>475.8</ele>
        <time>2025-09-08T12:11:34Z</time>
      </trkpt>
      <trkpt lat="46.03966" lon="4.388">
        <ele>475.8</ele>
        <time>2025-09-08T12:11:35Z</time>
      </trkpt>
      <trkpt lat="46.03964" lon="4.38798">
        <ele>476.2</ele>
        <time>2025-09-08T12:11:36Z</time>
      </trkpt>
      <trkpt lat="46.03963" lon="4.38797">
        <ele>476.2</ele>
        <time>2025-09-08T12:11:37Z</time>
      </trkpt>
      <trkpt lat="46.03961" lon="4.38796">
        <ele>476.2</ele>
        <time>2025-09-08T12:11:38Z</time>
      </trkpt>
      <trkpt lat="46.0396" lon="4.38795">
        <ele>476.2</ele>
        <time>2025-09-08T12:11:39Z</time>
      </trkpt>
      <trkpt lat="46.03959" lon="4.38795">
        <ele>476.2</ele>
        <time>2025-09-08T12:11:40Z</time>
      </trkpt>
      <trkpt lat="46.03957" lon="4.38793">
        <ele>476.2</ele>
        <time>2025-09-08T12:11:41Z</time>
      </trkpt>
      <trkpt lat="46.03956" lon="4.38793">
        <ele>476.6</ele>
        <time>2025-09-08T12:11:42Z</time>
      </trkpt>
      <trkpt lat="46.03955" lon="4.38792">
        <ele>476.6</ele>
        <time>2025-09-08T12:11:43Z</time>
      </trkpt>
      <trkpt lat="46.03954" lon="4.38791">
        <ele>476.6</ele>
        <time>2025-09-08T12:11:44Z</time>
      </trkpt>
      <trkpt lat="46.03952" lon="4.38789">
        <ele>476.6</ele>
        <time>2025-09-08T12:11:45Z</time>
      </trkpt>
      <trkpt lat="46.03951" lon="4.38788">
        <ele>476.6</ele>
        <time>2025-09-08T12:11:46Z</time>
      </trkpt>
      <trkpt lat="46.03949" lon="4.38787">
        <ele>476.8</ele>
        <time>2025-09-08T12:11:47Z</time>
      </trkpt>
      <trkpt lat="46.03948" lon="4.38786">
        <ele>476.8</ele>
        <time>2025-09-08T12:11:48Z</time>
      </trkpt>
      <trkpt lat="46.03946" lon="4.38784">
        <ele>477</ele>
        <time>2025-09-08T12:11:49Z</time>
      </trkpt>
      <trkpt lat="46.03945" lon="4.38783">
        <ele>477</ele>
        <time>2025-09-08T12:11:50Z</time>
      </trkpt>
      <trkpt lat="46.03944" lon="4.38782">
        <ele>477.4</ele>
        <time>2025-09-08T12:11:51Z</time>
      </trkpt>
      <trkpt lat="46.03943" lon="4.38781">
        <ele>477.4</ele>
        <time>2025-09-08T12:11:52Z</time>
      </trkpt>
      <trkpt lat="46.03942" lon="4.3878">
        <ele>477.6</ele>
        <time>2025-09-08T12:11:53Z</time>
      </trkpt>
      <trkpt lat="46.03941" lon="4.38779">
        <ele>478</ele>
        <time>2025-09-08T12:11:54Z</time>
      </trkpt>
      <trkpt lat="46.0394" lon="4.38778">
        <ele>478</ele>
        <time>2025-09-08T12:11:55Z</time>
      </trkpt>
      <trkpt lat="46.03938" lon="4.38776">
        <ele>478.2</ele>
        <time>2025-09-08T12:11:56Z</time>
      </trkpt>
      <trkpt lat="46.03937" lon="4.38776">
        <ele>478.2</ele>
        <time>2025-09-08T12:11:57Z</time>
      </trkpt>
      <trkpt lat="46.03937" lon="4.38775">
        <ele>478.4</ele>
        <time>2025-09-08T12:11:58Z</time>
      </trkpt>
      <trkpt lat="46.03935" lon="4.38775">
        <ele>478.4</ele>
        <time>2025-09-08T12:11:59Z</time>
      </trkpt>
      <trkpt lat="46.03933" lon="4.38775">
        <ele>478.4</ele>
        <time>2025-09-08T12:12:00Z</time>
      </trkpt>
      <trkpt lat="46.03931" lon="4.38774">
        <ele>478.8</ele>
        <time>2025-09-08T12:12:01Z</time>
      </trkpt>
      <trkpt lat="46.03929" lon="4.38774">
        <ele>478.8</ele>
        <time>2025-09-08T12:12:02Z</time>
      </trkpt>
      <trkpt lat="46.03928" lon="4.38773">
        <ele>478.8</ele>
        <time>2025-09-08T12:12:03Z</time>
      </trkpt>
      <trkpt lat="46.03926" lon="4.38772">
        <ele>479</ele>
        <time>2025-09-08T12:12:04Z</time>
      </trkpt>
      <trkpt lat="46.03925" lon="4.38771">
        <ele>479</ele>
        <time>2025-09-08T12:12:05Z</time>
      </trkpt>
      <trkpt lat="46.03924" lon="4.38769">
        <ele>479.4</ele>
        <time>2025-09-08T12:12:06Z</time>
      </trkpt>
      <trkpt lat="46.03923" lon="4.38768">
        <ele>479.4</ele>
        <time>2025-09-08T12:12:07Z</time>
      </trkpt>
      <trkpt lat="46.03922" lon="4.38767">
        <ele>479.8</ele>
        <time>2025-09-08T12:12:08Z</time>
      </trkpt>
      <trkpt lat="46.03921" lon="4.38765">
        <ele>479.8</ele>
        <time>2025-09-08T12:12:09Z</time>
      </trkpt>
      <trkpt lat="46.0392" lon="4.38764">
        <ele>480</ele>
        <time>2025-09-08T12:12:10Z</time>
      </trkpt>
      <trkpt lat="46.03919" lon="4.38763">
        <ele>480.2</ele>
        <time>2025-09-08T12:12:11Z</time>
      </trkpt>
      <trkpt lat="46.03918" lon="4.38762">
        <ele>480.2</ele>
        <time>2025-09-08T12:12:12Z</time>
      </trkpt>
      <trkpt lat="46.03917" lon="4.3876">
        <ele>480.2</ele>
        <time>2025-09-08T12:12:13Z</time>
      </trkpt>
      <trkpt lat="46.03915" lon="4.38758">
        <ele>480.2</ele>
        <time>2025-09-08T12:12:14Z</time>
      </trkpt>
      <trkpt lat="46.03914" lon="4.38757">
        <ele>480.6</ele>
        <time>2025-09-08T12:12:15Z</time>
      </trkpt>
      <trkpt lat="46.03913" lon="4.38755">
        <ele>480.6</ele>
        <time>2025-09-08T12:12:16Z</time>
      </trkpt>
      <trkpt lat="46.03911" lon="4.38754">
        <ele>481</ele>
        <time>2025-09-08T12:12:17Z</time>
      </trkpt>
      <trkpt lat="46.03911" lon="4.38754">
        <ele>481</ele>
        <time>2025-09-08T12:12:18Z</time>
      </trkpt>
      <trkpt lat="46.0391" lon="4.38754">
        <ele>481</ele>
        <time>2025-09-08T12:12:19Z</time>
      </trkpt>
      <trkpt lat="46.03909" lon="4.38753">
        <ele>481.2</ele>
        <time>2025-09-08T12:12:27Z</time>
      </trkpt>
      <trkpt lat="46.03908" lon="4.38751">
        <ele>481.4</ele>
        <time>2025-09-08T12:12:28Z</time>
      </trkpt>
      <trkpt lat="46.03907" lon="4.3875">
        <ele>481.4</ele>
        <time>2025-09-08T12:12:29Z</time>
      </trkpt>
      <trkpt lat="46.03905" lon="4.38748">
        <ele>481.8</ele>
        <time>2025-09-08T12:12:30Z</time>
      </trkpt>
      <trkpt lat="46.03904" lon="4.38746">
        <ele>481.8</ele>
        <time>2025-09-08T12:12:31Z</time>
      </trkpt>
      <trkpt lat="46.03903" lon="4.38745">
        <ele>481.8</ele>
        <time>2025-09-08T12:12:32Z</time>
      </trkpt>
      <trkpt lat="46.03903" lon="4.38744">
        <ele>482</ele>
        <time>2025-09-08T12:12:33Z</time>
      </trkpt>
      <trkpt lat="46.03902" lon="4.38743">
        <ele>482.4</ele>
        <time>2025-09-08T12:12:34Z</time>
      </trkpt>
      <trkpt lat="46.039" lon="4.38741">
        <ele>482.4</ele>
        <time>2025-09-08T12:12:35Z</time>
      </trkpt>
      <trkpt lat="46.03899" lon="4.3874">
        <ele>482.4</ele>
        <time>2025-09-08T12:12:36Z</time>
      </trkpt>
      <trkpt lat="46.03898" lon="4.38739">
        <ele>482.4</ele>
        <time>2025-09-08T12:12:37Z</time>
      </trkpt>
      <trkpt lat="46.03897" lon="4.38738">
        <ele>482.6</ele>
        <time>2025-09-08T12:12:38Z</time>
      </trkpt>
      <trkpt lat="46.03896" lon="4.38737">
        <ele>482.6</ele>
        <time>2025-09-08T12:12:39Z</time>
      </trkpt>
      <trkpt lat="46.03896" lon="4.38736">
        <ele>482.8</ele>
        <time>2025-09-08T12:12:40Z</time>
      </trkpt>
      <trkpt lat="46.03895" lon="4.38734">
        <ele>482.8</ele>
        <time>2025-09-08T12:12:41Z</time>
      </trkpt>
      <trkpt lat="46.03895" lon="4.38733">
        <ele>483.2</ele>
        <time>2025-09-08T12:12:42Z</time>
      </trkpt>
      <trkpt lat="46.03894" lon="4.38731">
        <ele>483.2</ele>
        <time>2025-09-08T12:12:43Z</time>
      </trkpt>
      <trkpt lat="46.03893" lon="4.3873">
        <ele>483.4</ele>
        <time>2025-09-08T12:12:44Z</time>
      </trkpt>
      <trkpt lat="46.03892" lon="4.38728">
        <ele>483.4</ele>
        <time>2025-09-08T12:12:45Z</time>
      </trkpt>
      <trkpt lat="46.03891" lon="4.38727">
        <ele>483.8</ele>
        <time>2025-09-08T12:12:46Z</time>
      </trkpt>
      <trkpt lat="46.03891" lon="4.38725">
        <ele>483.8</ele>
        <time>2025-09-08T12:12:47Z</time>
      </trkpt>
      <trkpt lat="46.0389" lon="4.38723">
        <ele>484</ele>
        <time>2025-09-08T12:12:48Z</time>
      </trkpt>
      <trkpt lat="46.03889" lon="4.38722">
        <ele>484</ele>
        <time>2025-09-08T12:12:49Z</time>
      </trkpt>
      <trkpt lat="46.03889" lon="4.38721">
        <ele>484.4</ele>
        <time>2025-09-08T12:12:50Z</time>
      </trkpt>
      <trkpt lat="46.03888" lon="4.38719">
        <ele>484.6</ele>
        <time>2025-09-08T12:12:51Z</time>
      </trkpt>
      <trkpt lat="46.03888" lon="4.38717">
        <ele>484.6</ele>
        <time>2025-09-08T12:12:52Z</time>
      </trkpt>
      <trkpt lat="46.03887" lon="4.38716">
        <ele>484.6</ele>
        <time>2025-09-08T12:12:53Z</time>
      </trkpt>
      <trkpt lat="46.03886" lon="4.38715">
        <ele>485</ele>
        <time>2025-09-08T12:12:54Z</time>
      </trkpt>
      <trkpt lat="46.03885" lon="4.38714">
        <ele>485</ele>
        <time>2025-09-08T12:12:55Z</time>
      </trkpt>
      <trkpt lat="46.03885" lon="4.38713">
        <ele>485.2</ele>
        <time>2025-09-08T12:12:56Z</time>
      </trkpt>
      <trkpt lat="46.03884" lon="4.38711">
        <ele>485.2</ele>
        <time>2025-09-08T12:12:57Z</time>
      </trkpt>
      <trkpt lat="46.03884" lon="4.3871">
        <ele>485.2</ele>
        <time>2025-09-08T12:12:58Z</time>
      </trkpt>
      <trkpt lat="46.03884" lon="4.38708">
        <ele>485.6</ele>
        <time>2025-09-08T12:12:59Z</time>
      </trkpt>
      <trkpt lat="46.03884" lon="4.38707">
        <ele>485.6</ele>
        <time>2025-09-08T12:13:00Z</time>
      </trkpt>
      <trkpt lat="46.03883" lon="4.38706">
        <ele>485.8</ele>
        <time>2025-09-08T12:13:01Z</time>
      </trkpt>
      <trkpt lat="46.03882" lon="4.38705">
        <ele>485.8</ele>
        <time>2025-09-08T12:13:02Z</time>
      </trkpt>
      <trkpt lat="46.03881" lon="4.38704">
        <ele>486.2</ele>
        <time>2025-09-08T12:13:03Z</time>
      </trkpt>
      <trkpt lat="46.03881" lon="4.38704">
        <ele>486.2</ele>
        <time>2025-09-08T12:13:04Z</time>
      </trkpt>
      <trkpt lat="46.03881" lon="4.38704">
        <ele>486.4</ele>
        <time>2025-09-08T12:13:05Z</time>
      </trkpt>
      <trkpt lat="46.03879" lon="4.387">
        <ele>486.4</ele>
        <time>2025-09-08T12:13:15Z</time>
      </trkpt>
      <trkpt lat="46.03879" lon="4.38698">
        <ele>486.4</ele>
        <time>2025-09-08T12:13:16Z</time>
      </trkpt>
      <trkpt lat="46.03879" lon="4.38696">
        <ele>486.8</ele>
        <time>2025-09-08T12:13:17Z</time>
      </trkpt>
      <trkpt lat="46.03879" lon="4.38694">
        <ele>486.8</ele>
        <time>2025-09-08T12:13:18Z</time>
      </trkpt>
      <trkpt lat="46.03879" lon="4.38693">
        <ele>487.2</ele>
        <time>2025-09-08T12:13:19Z</time>
      </trkpt>
      <trkpt lat="46.03879" lon="4.38692">
        <ele>487.2</ele>
        <time>2025-09-08T12:13:20Z</time>
      </trkpt>
      <trkpt lat="46.03879" lon="4.38692">
        <ele>487.4</ele>
        <time>2025-09-08T12:13:21Z</time>
      </trkpt>
      <trkpt lat="46.03878" lon="4.3869">
        <ele>487.4</ele>
        <time>2025-09-08T12:13:22Z</time>
      </trkpt>
      <trkpt lat="46.03878" lon="4.38689">
        <ele>487.4</ele>
        <time>2025-09-08T12:13:23Z</time>
      </trkpt>
      <trkpt lat="46.03877" lon="4.38687">
        <ele>487.4</ele>
        <time>2025-09-08T12:13:24Z</time>
      </trkpt>
      <trkpt lat="46.03877" lon="4.38686">
        <ele>487.8</ele>
        <time>2025-09-08T12:13:25Z</time>
      </trkpt>
      <trkpt lat="46.03877" lon="4.38685">
        <ele>488</ele>
        <time>2025-09-08T12:13:26Z</time>
      </trkpt>
      <trkpt lat="46.03876" lon="4.38684">
        <ele>488.2</ele>
        <time>2025-09-08T12:13:27Z</time>
      </trkpt>
      <trkpt lat="46.03876" lon="4.38683">
        <ele>488.2</ele>
        <time>2025-09-08T12:13:28Z</time>
      </trkpt>
      <trkpt lat="46.03875" lon="4.38681">
        <ele>488.2</ele>
        <time>2025-09-08T12:13:29Z</time>
      </trkpt>
      <trkpt lat="46.03875" lon="4.3868">
        <ele>488.6</ele>
        <time>2025-09-08T12:13:30Z</time>
      </trkpt>
      <trkpt lat="46.03875" lon="4.38679">
        <ele>488.8</ele>
        <time>2025-09-08T12:13:31Z</time>
      </trkpt>
      <trkpt lat="46.03875" lon="4.38678">
        <ele>488.8</ele>
        <time>2025-09-08T12:13:32Z</time>
      </trkpt>
      <trkpt lat="46.03875" lon="4.38677">
        <ele>488.8</ele>
        <time>2025-09-08T12:13:33Z</time>
      </trkpt>
      <trkpt lat="46.03874" lon="4.38676">
        <ele>488.8</ele>
        <time>2025-09-08T12:13:34Z</time>
      </trkpt>
      <trkpt lat="46.03873" lon="4.38675">
        <ele>488.8</ele>
        <time>2025-09-08T12:13:35Z</time>
      </trkpt>
      <trkpt lat="46.03873" lon="4.38674">
        <ele>488.8</ele>
        <time>2025-09-08T12:13:36Z</time>
      </trkpt>
      <trkpt lat="46.03873" lon="4.38673">
        <ele>488.8</ele>
        <time>2025-09-08T12:13:37Z</time>
      </trkpt>
      <trkpt lat="46.03872" lon="4.38672">
        <ele>489.2</ele>
        <time>2025-09-08T12:13:38Z</time>
      </trkpt>
      <trkpt lat="46.03871" lon="4.38671">
        <ele>489.2</ele>
        <time>2025-09-08T12:13:39Z</time>
      </trkpt>
      <trkpt lat="46.03871" lon="4.38669">
        <ele>489.4</ele>
        <time>2025-09-08T12:13:40Z</time>
      </trkpt>
      <trkpt lat="46.03871" lon="4.38668">
        <ele>489.4</ele>
        <time>2025-09-08T12:13:41Z</time>
      </trkpt>
      <trkpt lat="46.03871" lon="4.38667">
        <ele>489.8</ele>
        <time>2025-09-08T12:13:42Z</time>
      </trkpt>
      <trkpt lat="46.03871" lon="4.38666">
        <ele>490</ele>
        <time>2025-09-08T12:13:43Z</time>
      </trkpt>
      <trkpt lat="46.0387" lon="4.38665">
        <ele>490</ele>
        <time>2025-09-08T12:13:44Z</time>
      </trkpt>
      <trkpt lat="46.0387" lon="4.38664">
        <ele>490.2</ele>
        <time>2025-09-08T12:13:45Z</time>
      </trkpt>
      <trkpt lat="46.0387" lon="4.38663">
        <ele>490.2</ele>
        <time>2025-09-08T12:13:46Z</time>
      </trkpt>
      <trkpt lat="46.0387" lon="4.38662">
        <ele>490.4</ele>
        <time>2025-09-08T12:13:47Z</time>
      </trkpt>
      <trkpt lat="46.03869" lon="4.38661">
        <ele>490.4</ele>
        <time>2025-09-08T12:13:48Z</time>
      </trkpt>
      <trkpt lat="46.03869" lon="4.3866">
        <ele>490.4</ele>
        <time>2025-09-08T12:13:49Z</time>
      </trkpt>
      <trkpt lat="46.03869" lon="4.3866">
        <ele>490.4</ele>
        <time>2025-09-08T12:13:50Z</time>
      </trkpt>
      <trkpt lat="46.03869" lon="4.38659">
        <ele>490.4</ele>
        <time>2025-09-08T12:13:51Z</time>
      </trkpt>
      <trkpt lat="46.03868" lon="4.38659">
        <ele>490.4</ele>
        <time>2025-09-08T12:13:52Z</time>
      </trkpt>
      <trkpt lat="46.03868" lon="4.38658">
        <ele>490.8</ele>
        <time>2025-09-08T12:13:53Z</time>
      </trkpt>
      <trkpt lat="46.03867" lon="4.38658">
        <ele>491.2</ele>
        <time>2025-09-08T12:13:54Z</time>
      </trkpt>
      <trkpt lat="46.03866" lon="4.38657">
        <ele>491.2</ele>
        <time>2025-09-08T12:13:55Z</time>
      </trkpt>
      <trkpt lat="46.03865" lon="4.38657">
        <ele>491.4</ele>
        <time>2025-09-08T12:13:56Z</time>
      </trkpt>
      <trkpt lat="46.03865" lon="4.38656">
        <ele>491.4</ele>
        <time>2025-09-08T12:13:57Z</time>
      </trkpt>
      <trkpt lat="46.03865" lon="4.38655">
        <ele>491.8</ele>
        <time>2025-09-08T12:13:58Z</time>
      </trkpt>
      <trkpt lat="46.03865" lon="4.38654">
        <ele>491.8</ele>
        <time>2025-09-08T12:13:59Z</time>
      </trkpt>
      <trkpt lat="46.03864" lon="4.38654">
        <ele>492</ele>
        <time>2025-09-08T12:14:00Z</time>
      </trkpt>
      <trkpt lat="46.03864" lon="4.38653">
        <ele>492</ele>
        <time>2025-09-08T12:14:01Z</time>
      </trkpt>
      <trkpt lat="46.03864" lon="4.38652">
        <ele>492.4</ele>
        <time>2025-09-08T12:14:02Z</time>
      </trkpt>
      <trkpt lat="46.03864" lon="4.3865">
        <ele>492.4</ele>
        <time>2025-09-08T12:14:03Z</time>
      </trkpt>
      <trkpt lat="46.03863" lon="4.38649">
        <ele>492.8</ele>
        <time>2025-09-08T12:14:04Z</time>
      </trkpt>
      <trkpt lat="46.03863" lon="4.38649">
        <ele>493.2</ele>
        <time>2025-09-08T12:14:05Z</time>
      </trkpt>
      <trkpt lat="46.03863" lon="4.38648">
        <ele>493.2</ele>
        <time>2025-09-08T12:14:06Z</time>
      </trkpt>
      <trkpt lat="46.03862" lon="4.38647">
        <ele>493.4</ele>
        <time>2025-09-08T12:14:07Z</time>
      </trkpt>
      <trkpt lat="46.03861" lon="4.38647">
        <ele>493.4</ele>
        <time>2025-09-08T12:14:08Z</time>
      </trkpt>
      <trkpt lat="46.03861" lon="4.38647">
        <ele>493.8</ele>
        <time>2025-09-08T12:14:09Z</time>
      </trkpt>
      <trkpt lat="46.03858" lon="4.38646">
        <ele>494.2</ele>
        <time>2025-09-08T12:14:25Z</time>
      </trkpt>
      <trkpt lat="46.03858" lon="4.38645">
        <ele>494.6</ele>
        <time>2025-09-08T12:14:26Z</time>
      </trkpt>
      <trkpt lat="46.03858" lon="4.38644">
        <ele>494.6</ele>
        <time>2025-09-08T12:14:27Z</time>
      </trkpt>
      <trkpt lat="46.03857" lon="4.38644">
        <ele>494.6</ele>
        <time>2025-09-08T12:14:28Z</time>
      </trkpt>
      <trkpt lat="46.03857" lon="4.38643">
        <ele>494.6</ele>
        <time>2025-09-08T12:14:29Z</time>
      </trkpt>
      <trkpt lat="46.03857" lon="4.38643">
        <ele>494.6</ele>
        <time>2025-09-08T12:14:30Z</time>
      </trkpt>
      <trkpt lat="46.03856" lon="4.38643">
        <ele>494.8</ele>
        <time>2025-09-08T12:14:31Z</time>
      </trkpt>
      <trkpt lat="46.03854" lon="4.38643">
        <ele>495.2</ele>
        <time>2025-09-08T12:14:35Z</time>
      </trkpt>
      <trkpt lat="46.03854" lon="4.38642">
        <ele>495.6</ele>
        <time>2025-09-08T12:14:36Z</time>
      </trkpt>
      <trkpt lat="46.03853" lon="4.38641">
        <ele>495.6</ele>
        <time>2025-09-08T12:14:37Z</time>
      </trkpt>
      <trkpt lat="46.03852" lon="4.38641">
        <ele>495.6</ele>
        <time>2025-09-08T12:14:38Z</time>
      </trkpt>
      <trkpt lat="46.03851" lon="4.38641">
        <ele>496</ele>
        <time>2025-09-08T12:14:39Z</time>
      </trkpt>
      <trkpt lat="46.0385" lon="4.38641">
        <ele>496</ele>
        <time>2025-09-08T12:14:40Z</time>
      </trkpt>
      <trkpt lat="46.03849" lon="4.3864">
        <ele>496.2</ele>
        <time>2025-09-08T12:14:41Z</time>
      </trkpt>
      <trkpt lat="46.03849" lon="4.38639">
        <ele>496.4</ele>
        <time>2025-09-08T12:14:42Z</time>
      </trkpt>
      <trkpt lat="46.03848" lon="4.38638">
        <ele>496.4</ele>
        <time>2025-09-08T12:14:43Z</time>
      </trkpt>
      <trkpt lat="46.03848" lon="4.38638">
        <ele>496.8</ele>
        <time>2025-09-08T12:14:44Z</time>
      </trkpt>
      <trkpt lat="46.03847" lon="4.38637">
        <ele>496.8</ele>
        <time>2025-09-08T12:14:45Z</time>
      </trkpt>
      <trkpt lat="46.03847" lon="4.38636">
        <ele>497.2</ele>
        <time>2025-09-08T12:14:46Z</time>
      </trkpt>
      <trkpt lat="46.03846" lon="4.38636">
        <ele>497.2</ele>
        <time>2025-09-08T12:14:47Z</time>
      </trkpt>
      <trkpt lat="46.03846" lon="4.38634">
        <ele>497.4</ele>
        <time>2025-09-08T12:14:48Z</time>
      </trkpt>
      <trkpt lat="46.03845" lon="4.38633">
        <ele>497.4</ele>
        <time>2025-09-08T12:14:49Z</time>
      </trkpt>
      <trkpt lat="46.03844" lon="4.38632">
        <ele>497.4</ele>
        <time>2025-09-08T12:14:50Z</time>
      </trkpt>
      <trkpt lat="46.03844" lon="4.38632">
        <ele>497.4</ele>
        <time>2025-09-08T12:14:51Z</time>
      </trkpt>
      <trkpt lat="46.03843" lon="4.38632">
        <ele>497.6</ele>
        <time>2025-09-08T12:14:52Z</time>
      </trkpt>
      <trkpt lat="46.03842" lon="4.38631">
        <ele>497.6</ele>
        <time>2025-09-08T12:14:53Z</time>
      </trkpt>
      <trkpt lat="46.03842" lon="4.3863">
        <ele>497.6</ele>
        <time>2025-09-08T12:14:54Z</time>
      </trkpt>
      <trkpt lat="46.03841" lon="4.3863">
        <ele>497.8</ele>
        <time>2025-09-08T12:14:55Z</time>
      </trkpt>
      <trkpt lat="46.03841" lon="4.38629">
        <ele>497.8</ele>
        <time>2025-09-08T12:14:56Z</time>
      </trkpt>
      <trkpt lat="46.0384" lon="4.38629">
        <ele>498.2</ele>
        <time>2025-09-08T12:14:57Z</time>
      </trkpt>
      <trkpt lat="46.0384" lon="4.38629">
        <ele>498.4</ele>
        <time>2025-09-08T12:14:58Z</time>
      </trkpt>
      <trkpt lat="46.0384" lon="4.38629">
        <ele>498.6</ele>
        <time>2025-09-08T12:14:59Z</time>
      </trkpt>
      <trkpt lat="46.0384" lon="4.38629">
        <ele>498.6</ele>
        <time>2025-09-08T12:15:00Z</time>
      </trkpt>
      <trkpt lat="46.03839" lon="4.38629">
        <ele>498.8</ele>
        <time>2025-09-08T12:15:07Z</time>
      </trkpt>
      <trkpt lat="46.03839" lon="4.38628">
        <ele>499</ele>
        <time>2025-09-08T12:15:08Z</time>
      </trkpt>
      <trkpt lat="46.03838" lon="4.38627">
        <ele>499</ele>
        <time>2025-09-08T12:15:09Z</time>
      </trkpt>
      <trkpt lat="46.03838" lon="4.38626">
        <ele>499</ele>
        <time>2025-09-08T12:15:10Z</time>
      </trkpt>
      <trkpt lat="46.03837" lon="4.38625">
        <ele>499</ele>
        <time>2025-09-08T12:15:11Z</time>
      </trkpt>
      <trkpt lat="46.03837" lon="4.38624">
        <ele>499</ele>
        <time>2025-09-08T12:15:12Z</time>
      </trkpt>
      <trkpt lat="46.03836" lon="4.38624">
        <ele>499</ele>
        <time>2025-09-08T12:15:13Z</time>
      </trkpt>
      <trkpt lat="46.03835" lon="4.38623">
        <ele>499.6</ele>
        <time>2025-09-08T12:15:14Z</time>
      </trkpt>
      <trkpt lat="46.03834" lon="4.38623">
        <ele>499.6</ele>
        <time>2025-09-08T12:15:15Z</time>
      </trkpt>
      <trkpt lat="46.03834" lon="4.38623">
        <ele>499.6</ele>
        <time>2025-09-08T12:15:16Z</time>
      </trkpt>
      <trkpt lat="46.03834" lon="4.38622">
        <ele>499.8</ele>
        <time>2025-09-08T12:15:17Z</time>
      </trkpt>
      <trkpt lat="46.03833" lon="4.38621">
        <ele>499.8</ele>
        <time>2025-09-08T12:15:18Z</time>
      </trkpt>
      <trkpt lat="46.03833" lon="4.3862">
        <ele>500</ele>
        <time>2025-09-08T12:15:19Z</time>
      </trkpt>
      <trkpt lat="46.03833" lon="4.38619">
        <ele>500</ele>
        <time>2025-09-08T12:15:20Z</time>
      </trkpt>
      <trkpt lat="46.03833" lon="4.38618">
        <ele>500.4</ele>
        <time>2025-09-08T12:15:21Z</time>
      </trkpt>
      <trkpt lat="46.03832" lon="4.38617">
        <ele>500.4</ele>
        <time>2025-09-08T12:15:22Z</time>
      </trkpt>
      <trkpt lat="46.03832" lon="4.38616">
        <ele>500.4</ele>
        <time>2025-09-08T12:15:23Z</time>
      </trkpt>
      <trkpt lat="46.03832" lon="4.38615">
        <ele>500.8</ele>
        <time>2025-09-08T12:15:24Z</time>
      </trkpt>
      <trkpt lat="46.03831" lon="4.38614">
        <ele>500.8</ele>
        <time>2025-09-08T12:15:25Z</time>
      </trkpt>
      <trkpt lat="46.03831" lon="4.38613">
        <ele>501</ele>
        <time>2025-09-08T12:15:26Z</time>
      </trkpt>
      <trkpt lat="46.0383" lon="4.38612">
        <ele>501</ele>
        <time>2025-09-08T12:15:27Z</time>
      </trkpt>
      <trkpt lat="46.0383" lon="4.38611">
        <ele>501.2</ele>
        <time>2025-09-08T12:15:28Z</time>
      </trkpt>
      <trkpt lat="46.03829" lon="4.3861">
        <ele>501.2</ele>
        <time>2025-09-08T12:15:29Z</time>
      </trkpt>
      <trkpt lat="46.03829" lon="4.3861">
        <ele>501.6</ele>
        <time>2025-09-08T12:15:30Z</time>
      </trkpt>
      <trkpt lat="46.03828" lon="4.38608">
        <ele>501.6</ele>
        <time>2025-09-08T12:15:31Z</time>
      </trkpt>
      <trkpt lat="46.03828" lon="4.38606">
        <ele>502</ele>
        <time>2025-09-08T12:15:32Z</time>
      </trkpt>
      <trkpt lat="46.03828" lon="4.38605">
        <ele>502</ele>
        <time>2025-09-08T12:15:33Z</time>
      </trkpt>
      <trkpt lat="46.03827" lon="4.38604">
        <ele>502.2</ele>
        <time>2025-09-08T12:15:34Z</time>
      </trkpt>
      <trkpt lat="46.03826" lon="4.38603">
        <ele>502.2</ele>
        <time>2025-09-08T12:15:35Z</time>
      </trkpt>
      <trkpt lat="46.03826" lon="4.38603">
        <ele>502.6</ele>
        <time>2025-09-08T12:15:36Z</time>
      </trkpt>
      <trkpt lat="46.03825" lon="4.38602">
        <ele>502.8</ele>
        <time>2025-09-08T12:15:37Z</time>
      </trkpt>
      <trkpt lat="46.03825" lon="4.38601">
        <ele>502.8</ele>
        <time>2025-09-08T12:15:38Z</time>
      </trkpt>
      <trkpt lat="46.03824" lon="4.38599">
        <ele>503.2</ele>
        <time>2025-09-08T12:15:39Z</time>
      </trkpt>
      <trkpt lat="46.03823" lon="4.38599">
        <ele>503.2</ele>
        <time>2025-09-08T12:15:40Z</time>
      </trkpt>
      <trkpt lat="46.03822" lon="4.38599">
        <ele>503.4</ele>
        <time>2025-09-08T12:15:41Z</time>
      </trkpt>
      <trkpt lat="46.03821" lon="4.38599">
        <ele>503.4</ele>
        <time>2025-09-08T12:15:42Z</time>
      </trkpt>
      <trkpt lat="46.03821" lon="4.38598">
        <ele>503.8</ele>
        <time>2025-09-08T12:15:43Z</time>
      </trkpt>
      <trkpt lat="46.0382" lon="4.38598">
        <ele>503.8</ele>
        <time>2025-09-08T12:15:44Z</time>
      </trkpt>
      <trkpt lat="46.03819" lon="4.38598">
        <ele>504</ele>
        <time>2025-09-08T12:15:45Z</time>
      </trkpt>
      <trkpt lat="46.03818" lon="4.38597">
        <ele>504.2</ele>
        <time>2025-09-08T12:15:46Z</time>
      </trkpt>
      <trkpt lat="46.03817" lon="4.38597">
        <ele>504.6</ele>
        <time>2025-09-08T12:15:47Z</time>
      </trkpt>
      <trkpt lat="46.03817" lon="4.38596">
        <ele>504.6</ele>
        <time>2025-09-08T12:15:48Z</time>
      </trkpt>
      <trkpt lat="46.03817" lon="4.38595">
        <ele>504.6</ele>
        <time>2025-09-08T12:15:49Z</time>
      </trkpt>
      <trkpt lat="46.03816" lon="4.38594">
        <ele>504.8</ele>
        <time>2025-09-08T12:15:50Z</time>
      </trkpt>
      <trkpt lat="46.03816" lon="4.38593">
        <ele>504.8</ele>
        <time>2025-09-08T12:15:51Z</time>
      </trkpt>
      <trkpt lat="46.03816" lon="4.38591">
        <ele>504.8</ele>
        <time>2025-09-08T12:15:52Z</time>
      </trkpt>
      <trkpt lat="46.03816" lon="4.38591">
        <ele>505</ele>
        <time>2025-09-08T12:15:53Z</time>
      </trkpt>
      <trkpt lat="46.03816" lon="4.3859">
        <ele>505</ele>
        <time>2025-09-08T12:15:54Z</time>
      </trkpt>
      <trkpt lat="46.03816" lon="4.38588">
        <ele>505.4</ele>
        <time>2025-09-08T12:15:55Z</time>
      </trkpt>
      <trkpt lat="46.03815" lon="4.38586">
        <ele>505.4</ele>
        <time>2025-09-08T12:15:56Z</time>
      </trkpt>
      <trkpt lat="46.03815" lon="4.38585">
        <ele>505.6</ele>
        <time>2025-09-08T12:15:57Z</time>
      </trkpt>
      <trkpt lat="46.03815" lon="4.38584">
        <ele>505.6</ele>
        <time>2025-09-08T12:15:58Z</time>
      </trkpt>
      <trkpt lat="46.03815" lon="4.38582">
        <ele>505.6</ele>
        <time>2025-09-08T12:15:59Z</time>
      </trkpt>
      <trkpt lat="46.03815" lon="4.38582">
        <ele>505.6</ele>
        <time>2025-09-08T12:16:00Z</time>
      </trkpt>
      <trkpt lat="46.03815" lon="4.38582">
        <ele>506</ele>
        <time>2025-09-08T12:16:01Z</time>
      </trkpt>
      <trkpt lat="46.03815" lon="4.38578">
        <ele>506</ele>
        <time>2025-09-08T12:16:02Z</time>
      </trkpt>
      <trkpt lat="46.03815" lon="4.38577">
        <ele>506.2</ele>
        <time>2025-09-08T12:16:03Z</time>
      </trkpt>
      <trkpt lat="46.03815" lon="4.38576">
        <ele>506.2</ele>
        <time>2025-09-08T12:16:04Z</time>
      </trkpt>
      <trkpt lat="46.03814" lon="4.38576">
        <ele>506.2</ele>
        <time>2025-09-08T12:16:05Z</time>
      </trkpt>
      <trkpt lat="46.03815" lon="4.38576">
        <ele>506.4</ele>
        <time>2025-09-08T12:16:06Z</time>
      </trkpt>
      <trkpt lat="46.03815" lon="4.38577">
        <ele>506.4</ele>
        <time>2025-09-08T12:16:36Z</time>
      </trkpt>
      <trkpt lat="46.03814" lon="4.38576">
        <ele>506.4</ele>
        <time>2025-09-08T12:16:37Z</time>
      </trkpt>
      <trkpt lat="46.03813" lon="4.38574">
        <ele>506.6</ele>
        <time>2025-09-08T12:16:38Z</time>
      </trkpt>
      <trkpt lat="46.03813" lon="4.38573">
        <ele>506.6</ele>
        <time>2025-09-08T12:16:39Z</time>
      </trkpt>
      <trkpt lat="46.03812" lon="4.38572">
        <ele>507</ele>
        <time>2025-09-08T12:16:40Z</time>
      </trkpt>
      <trkpt lat="46.0381" lon="4.38571">
        <ele>507</ele>
        <time>2025-09-08T12:16:41Z</time>
      </trkpt>
      <trkpt lat="46.03809" lon="4.38571">
        <ele>507.2</ele>
        <time>2025-09-08T12:16:42Z</time>
      </trkpt>
      <trkpt lat="46.03808" lon="4.3857">
        <ele>507.2</ele>
        <time>2025-09-08T12:16:43Z</time>
      </trkpt>
      <trkpt lat="46.03808" lon="4.38568">
        <ele>507.2</ele>
        <time>2025-09-08T12:16:44Z</time>
      </trkpt>
      <trkpt lat="46.03807" lon="4.38567">
        <ele>507.4</ele>
        <time>2025-09-08T12:16:45Z</time>
      </trkpt>
      <trkpt lat="46.03806" lon="4.38566">
        <ele>507.4</ele>
        <time>2025-09-08T12:16:46Z</time>
      </trkpt>
      <trkpt lat="46.03805" lon="4.38565">
        <ele>507.6</ele>
        <time>2025-09-08T12:16:47Z</time>
      </trkpt>
      <trkpt lat="46.03805" lon="4.38564">
        <ele>507.8</ele>
        <time>2025-09-08T12:16:48Z</time>
      </trkpt>
      <trkpt lat="46.03804" lon="4.38563">
        <ele>507.8</ele>
        <time>2025-09-08T12:16:49Z</time>
      </trkpt>
      <trkpt lat="46.03803" lon="4.38562">
        <ele>507.8</ele>
        <time>2025-09-08T12:16:50Z</time>
      </trkpt>
      <trkpt lat="46.03802" lon="4.38562">
        <ele>507.8</ele>
        <time>2025-09-08T12:16:51Z</time>
      </trkpt>
      <trkpt lat="46.03801" lon="4.38561">
        <ele>507.8</ele>
        <time>2025-09-08T12:16:52Z</time>
      </trkpt>
      <trkpt lat="46.03801" lon="4.3856">
        <ele>507.8</ele>
        <time>2025-09-08T12:16:53Z</time>
      </trkpt>
      <trkpt lat="46.038" lon="4.38559">
        <ele>508.2</ele>
        <time>2025-09-08T12:16:54Z</time>
      </trkpt>
      <trkpt lat="46.038" lon="4.38558">
        <ele>508.2</ele>
        <time>2025-09-08T12:16:55Z</time>
      </trkpt>
      <trkpt lat="46.03799" lon="4.38557">
        <ele>508.8</ele>
        <time>2025-09-08T12:16:56Z</time>
      </trkpt>
      <trkpt lat="46.03799" lon="4.38557">
        <ele>509</ele>
        <time>2025-09-08T12:16:57Z</time>
      </trkpt>
      <trkpt lat="46.03798" lon="4.38556">
        <ele>509</ele>
        <time>2025-09-08T12:16:58Z</time>
      </trkpt>
      <trkpt lat="46.03798" lon="4.38555">
        <ele>509</ele>
        <time>2025-09-08T12:16:59Z</time>
      </trkpt>
      <trkpt lat="46.03797" lon="4.38554">
        <ele>509.4</ele>
        <time>2025-09-08T12:17:00Z</time>
      </trkpt>
      <trkpt lat="46.03796" lon="4.38554">
        <ele>509.4</ele>
        <time>2025-09-08T12:17:01Z</time>
      </trkpt>
      <trkpt lat="46.03795" lon="4.38553">
        <ele>509.4</ele>
        <time>2025-09-08T12:17:02Z</time>
      </trkpt>
      <trkpt lat="46.03795" lon="4.38553">
        <ele>509.6</ele>
        <time>2025-09-08T12:17:03Z</time>
      </trkpt>
      <trkpt lat="46.03794" lon="4.38552">
        <ele>509.6</ele>
        <time>2025-09-08T12:17:04Z</time>
      </trkpt>
      <trkpt lat="46.03794" lon="4.38551">
        <ele>510</ele>
        <time>2025-09-08T12:17:05Z</time>
      </trkpt>
      <trkpt lat="46.03793" lon="4.38551">
        <ele>510</ele>
        <time>2025-09-08T12:17:06Z</time>
      </trkpt>
      <trkpt lat="46.03792" lon="4.38549">
        <ele>510.2</ele>
        <time>2025-09-08T12:17:07Z</time>
      </trkpt>
      <trkpt lat="46.03792" lon="4.38548">
        <ele>510.4</ele>
        <time>2025-09-08T12:17:08Z</time>
      </trkpt>
      <trkpt lat="46.03791" lon="4.38548">
        <ele>510.4</ele>
        <time>2025-09-08T12:17:09Z</time>
      </trkpt>
      <trkpt lat="46.0379" lon="4.38547">
        <ele>510.8</ele>
        <time>2025-09-08T12:17:10Z</time>
      </trkpt>
      <trkpt lat="46.03789" lon="4.38546">
        <ele>510.8</ele>
        <time>2025-09-08T12:17:11Z</time>
      </trkpt>
      <trkpt lat="46.03788" lon="4.38546">
        <ele>510.8</ele>
        <time>2025-09-08T12:17:12Z</time>
      </trkpt>
      <trkpt lat="46.03787" lon="4.38545">
        <ele>511</ele>
        <time>2025-09-08T12:17:13Z</time>
      </trkpt>
      <trkpt lat="46.03787" lon="4.38545">
        <ele>511</ele>
        <time>2025-09-08T12:17:14Z</time>
      </trkpt>
      <trkpt lat="46.03786" lon="4.38544">
        <ele>511</ele>
        <time>2025-09-08T12:17:15Z</time>
      </trkpt>
      <trkpt lat="46.03785" lon="4.38543">
        <ele>511.2</ele>
        <time>2025-09-08T12:17:16Z</time>
      </trkpt>
      <trkpt lat="46.03784" lon="4.38543">
        <ele>511.2</ele>
        <time>2025-09-08T12:17:17Z</time>
      </trkpt>
      <trkpt lat="46.03784" lon="4.38542">
        <ele>511.4</ele>
        <time>2025-09-08T12:17:18Z</time>
      </trkpt>
      <trkpt lat="46.03783" lon="4.38542">
        <ele>511.4</ele>
        <time>2025-09-08T12:17:19Z</time>
      </trkpt>
      <trkpt lat="46.03782" lon="4.38541">
        <ele>511.4</ele>
        <time>2025-09-08T12:17:20Z</time>
      </trkpt>
      <trkpt lat="46.03782" lon="4.3854">
        <ele>511.4</ele>
        <time>2025-09-08T12:17:21Z</time>
      </trkpt>
      <trkpt lat="46.03782" lon="4.38539">
        <ele>511.8</ele>
        <time>2025-09-08T12:17:22Z</time>
      </trkpt>
      <trkpt lat="46.03781" lon="4.38537">
        <ele>511.8</ele>
        <time>2025-09-08T12:17:23Z</time>
      </trkpt>
      <trkpt lat="46.03781" lon="4.38536">
        <ele>511.8</ele>
        <time>2025-09-08T12:17:24Z</time>
      </trkpt>
      <trkpt lat="46.0378" lon="4.38535">
        <ele>512</ele>
        <time>2025-09-08T12:17:25Z</time>
      </trkpt>
      <trkpt lat="46.0378" lon="4.38534">
        <ele>512</ele>
        <time>2025-09-08T12:17:26Z</time>
      </trkpt>
      <trkpt lat="46.0378" lon="4.38533">
        <ele>512</ele>
        <time>2025-09-08T12:17:27Z</time>
      </trkpt>
      <trkpt lat="46.0378" lon="4.38533">
        <ele>512</ele>
        <time>2025-09-08T12:17:28Z</time>
      </trkpt>
      <trkpt lat="46.03779" lon="4.38532">
        <ele>512</ele>
        <time>2025-09-08T12:17:29Z</time>
      </trkpt>
      <trkpt lat="46.03779" lon="4.38531">
        <ele>512</ele>
        <time>2025-09-08T12:17:30Z</time>
      </trkpt>
      <trkpt lat="46.03779" lon="4.38531">
        <ele>512</ele>
        <time>2025-09-08T12:17:31Z</time>
      </trkpt>
      <trkpt lat="46.03775" lon="4.38532">
        <ele>511.6</ele>
        <time>2025-09-08T12:21:26Z</time>
      </trkpt>
      <trkpt lat="46.03774" lon="4.38532">
        <ele>511.6</ele>
        <time>2025-09-08T12:21:27Z</time>
      </trkpt>
      <trkpt lat="46.03774" lon="4.38532">
        <ele>511.6</ele>
        <time>2025-09-08T12:21:28Z</time>
      </trkpt>
      <trkpt lat="46.03773" lon="4.38532">
        <ele>511.6</ele>
        <time>2025-09-08T12:21:37Z</time>
      </trkpt>
      <trkpt lat="46.03772" lon="4.38531">
        <ele>511.4</ele>
        <time>2025-09-08T12:21:38Z</time>
      </trkpt>
      <trkpt lat="46.0377" lon="4.38529">
        <ele>511.4</ele>
        <time>2025-09-08T12:21:39Z</time>
      </trkpt>
      <trkpt lat="46.03768" lon="4.38525">
        <ele>511</ele>
        <time>2025-09-08T12:21:40Z</time>
      </trkpt>
      <trkpt lat="46.03765" lon="4.38521">
        <ele>511</ele>
        <time>2025-09-08T12:21:41Z</time>
      </trkpt>
      <trkpt lat="46.03763" lon="4.38518">
        <ele>510.6</ele>
        <time>2025-09-08T12:21:42Z</time>
      </trkpt>
      <trkpt lat="46.03758" lon="4.38513">
        <ele>510.6</ele>
        <time>2025-09-08T12:21:43Z</time>
      </trkpt>
      <trkpt lat="46.03753" lon="4.38509">
        <ele>510.4</ele>
        <time>2025-09-08T12:21:44Z</time>
      </trkpt>
      <trkpt lat="46.03749" lon="4.38506">
        <ele>510.4</ele>
        <time>2025-09-08T12:21:45Z</time>
      </trkpt>
      <trkpt lat="46.03743" lon="4.38505">
        <ele>510</ele>
        <time>2025-09-08T12:21:46Z</time>
      </trkpt>
      <trkpt lat="46.03737" lon="4.38505">
        <ele>509.4</ele>
        <time>2025-09-08T12:21:47Z</time>
      </trkpt>
      <trkpt lat="46.03731" lon="4.38503">
        <ele>509</ele>
        <time>2025-09-08T12:21:48Z</time>
      </trkpt>
      <trkpt lat="46.03726" lon="4.38502">
        <ele>508.6</ele>
        <time>2025-09-08T12:21:49Z</time>
      </trkpt>
      <trkpt lat="46.03724" lon="4.38503">
        <ele>508.4</ele>
        <time>2025-09-08T12:21:50Z</time>
      </trkpt>
      <trkpt lat="46.03719" lon="4.38501">
        <ele>508.4</ele>
        <time>2025-09-08T12:21:51Z</time>
      </trkpt>
      <trkpt lat="46.03714" lon="4.385">
        <ele>508.4</ele>
        <time>2025-09-08T12:21:52Z</time>
      </trkpt>
      <trkpt lat="46.03711" lon="4.38499">
        <ele>508</ele>
        <time>2025-09-08T12:21:53Z</time>
      </trkpt>
      <trkpt lat="46.03708" lon="4.38499">
        <ele>508</ele>
        <time>2025-09-08T12:21:54Z</time>
      </trkpt>
      <trkpt lat="46.03705" lon="4.38498">
        <ele>507.8</ele>
        <time>2025-09-08T12:21:55Z</time>
      </trkpt>
      <trkpt lat="46.037" lon="4.38499">
        <ele>507.8</ele>
        <time>2025-09-08T12:21:56Z</time>
      </trkpt>
      <trkpt lat="46.03696" lon="4.385">
        <ele>507.4</ele>
        <time>2025-09-08T12:21:57Z</time>
      </trkpt>
      <trkpt lat="46.03692" lon="4.38498">
        <ele>507.4</ele>
        <time>2025-09-08T12:21:58Z</time>
      </trkpt>
      <trkpt lat="46.03688" lon="4.38496">
        <ele>507</ele>
        <time>2025-09-08T12:21:59Z</time>
      </trkpt>
      <trkpt lat="46.03688" lon="4.38496">
        <ele>506.8</ele>
        <time>2025-09-08T12:22:00Z</time>
      </trkpt>
      <trkpt lat="46.03684" lon="4.38494">
        <ele>506.2</ele>
        <time>2025-09-08T12:22:01Z</time>
      </trkpt>
      <trkpt lat="46.0368" lon="4.38492">
        <ele>505.6</ele>
        <time>2025-09-08T12:22:02Z</time>
      </trkpt>
      <trkpt lat="46.03676" lon="4.38489">
        <ele>505.4</ele>
        <time>2025-09-08T12:22:03Z</time>
      </trkpt>
      <trkpt lat="46.03669" lon="4.38487">
        <ele>505</ele>
        <time>2025-09-08T12:22:04Z</time>
      </trkpt>
      <trkpt lat="46.03664" lon="4.38486">
        <ele>505</ele>
        <time>2025-09-08T12:22:05Z</time>
      </trkpt>
      <trkpt lat="46.03659" lon="4.38483">
        <ele>504.6</ele>
        <time>2025-09-08T12:22:06Z</time>
      </trkpt>
      <trkpt lat="46.03656" lon="4.3848">
        <ele>504.6</ele>
        <time>2025-09-08T12:22:07Z</time>
      </trkpt>
      <trkpt lat="46.03653" lon="4.38479">
        <ele>504.4</ele>
        <time>2025-09-08T12:22:08Z</time>
      </trkpt>
      <trkpt lat="46.03649" lon="4.38479">
        <ele>504.2</ele>
        <time>2025-09-08T12:22:09Z</time>
      </trkpt>
      <trkpt lat="46.03646" lon="4.38479">
        <ele>504</ele>
        <time>2025-09-08T12:22:10Z</time>
      </trkpt>
      <trkpt lat="46.03641" lon="4.38479">
        <ele>503.6</ele>
        <time>2025-09-08T12:22:11Z</time>
      </trkpt>
      <trkpt lat="46.03637" lon="4.3848">
        <ele>503.4</ele>
        <time>2025-09-08T12:22:12Z</time>
      </trkpt>
      <trkpt lat="46.03632" lon="4.38481">
        <ele>502.8</ele>
        <time>2025-09-08T12:22:13Z</time>
      </trkpt>
      <trkpt lat="46.03629" lon="4.38482">
        <ele>502.6</ele>
        <time>2025-09-08T12:22:14Z</time>
      </trkpt>
      <trkpt lat="46.03624" lon="4.38483">
        <ele>502.6</ele>
        <time>2025-09-08T12:22:15Z</time>
      </trkpt>
      <trkpt lat="46.0362" lon="4.38484">
        <ele>502.2</ele>
        <time>2025-09-08T12:22:16Z</time>
      </trkpt>
      <trkpt lat="46.03617" lon="4.38484">
        <ele>501.8</ele>
        <time>2025-09-08T12:22:17Z</time>
      </trkpt>
      <trkpt lat="46.03615" lon="4.38486">
        <ele>501.6</ele>
        <time>2025-09-08T12:22:18Z</time>
      </trkpt>
      <trkpt lat="46.03612" lon="4.38486">
        <ele>501.2</ele>
        <time>2025-09-08T12:22:19Z</time>
      </trkpt>
      <trkpt lat="46.0361" lon="4.38486">
        <ele>501</ele>
        <time>2025-09-08T12:22:20Z</time>
      </trkpt>
      <trkpt lat="46.03609" lon="4.38486">
        <ele>501</ele>
        <time>2025-09-08T12:22:21Z</time>
      </trkpt>
      <trkpt lat="46.03607" lon="4.38487">
        <ele>501</ele>
        <time>2025-09-08T12:22:22Z</time>
      </trkpt>
      <trkpt lat="46.03605" lon="4.38486">
        <ele>500.8</ele>
        <time>2025-09-08T12:22:23Z</time>
      </trkpt>
      <trkpt lat="46.03603" lon="4.38486">
        <ele>500.6</ele>
        <time>2025-09-08T12:22:24Z</time>
      </trkpt>
      <trkpt lat="46.036" lon="4.38486">
        <ele>500.6</ele>
        <time>2025-09-08T12:22:25Z</time>
      </trkpt>
      <trkpt lat="46.03597" lon="4.38485">
        <ele>500.2</ele>
        <time>2025-09-08T12:22:26Z</time>
      </trkpt>
      <trkpt lat="46.03593" lon="4.38486">
        <ele>500.2</ele>
        <time>2025-09-08T12:22:27Z</time>
      </trkpt>
      <trkpt lat="46.03589" lon="4.38485">
        <ele>500</ele>
        <time>2025-09-08T12:22:28Z</time>
      </trkpt>
      <trkpt lat="46.03585" lon="4.38485">
        <ele>500</ele>
        <time>2025-09-08T12:22:29Z</time>
      </trkpt>
      <trkpt lat="46.0358" lon="4.38485">
        <ele>499.6</ele>
        <time>2025-09-08T12:22:30Z</time>
      </trkpt>
      <trkpt lat="46.03576" lon="4.38485">
        <ele>499.6</ele>
        <time>2025-09-08T12:22:31Z</time>
      </trkpt>
      <trkpt lat="46.03572" lon="4.38483">
        <ele>499.2</ele>
        <time>2025-09-08T12:22:32Z</time>
      </trkpt>
      <trkpt lat="46.03568" lon="4.38482">
        <ele>499.6</ele>
        <time>2025-09-08T12:22:33Z</time>
      </trkpt>
      <trkpt lat="46.03563" lon="4.3848">
        <ele>499.6</ele>
        <time>2025-09-08T12:22:34Z</time>
      </trkpt>
      <trkpt lat="46.03559" lon="4.38477">
        <ele>499.6</ele>
        <time>2025-09-08T12:22:35Z</time>
      </trkpt>
      <trkpt lat="46.03557" lon="4.38476">
        <ele>499.4</ele>
        <time>2025-09-08T12:22:36Z</time>
      </trkpt>
      <trkpt lat="46.03554" lon="4.38475">
        <ele>499.4</ele>
        <time>2025-09-08T12:22:37Z</time>
      </trkpt>
      <trkpt lat="46.03552" lon="4.38474">
        <ele>499.6</ele>
        <time>2025-09-08T12:22:38Z</time>
      </trkpt>
      <trkpt lat="46.03551" lon="4.38473">
        <ele>499.6</ele>
        <time>2025-09-08T12:22:39Z</time>
      </trkpt>
      <trkpt lat="46.03549" lon="4.38473">
        <ele>499.6</ele>
        <time>2025-09-08T12:22:40Z</time>
      </trkpt>
      <trkpt lat="46.03547" lon="4.38472">
        <ele>499.6</ele>
        <time>2025-09-08T12:22:41Z</time>
      </trkpt>
      <trkpt lat="46.03546" lon="4.38471">
        <ele>499.6</ele>
        <time>2025-09-08T12:22:42Z</time>
      </trkpt>
      <trkpt lat="46.03545" lon="4.3847">
        <ele>499.6</ele>
        <time>2025-09-08T12:22:43Z</time>
      </trkpt>
      <trkpt lat="46.03543" lon="4.38469">
        <ele>499.6</ele>
        <time>2025-09-08T12:22:44Z</time>
      </trkpt>
      <trkpt lat="46.03542" lon="4.38469">
        <ele>499.6</ele>
        <time>2025-09-08T12:22:45Z</time>
      </trkpt>
      <trkpt lat="46.03542" lon="4.3847">
        <ele>499.6</ele>
        <time>2025-09-08T12:22:46Z</time>
      </trkpt>
      <trkpt lat="46.03542" lon="4.38469">
        <ele>499.6</ele>
        <time>2025-09-08T12:25:40Z</time>
      </trkpt>
      <trkpt lat="46.03541" lon="4.38468">
        <ele>499.6</ele>
        <time>2025-09-08T12:25:41Z</time>
      </trkpt>
      <trkpt lat="46.03539" lon="4.38467">
        <ele>499.6</ele>
        <time>2025-09-08T12:25:42Z</time>
      </trkpt>
      <trkpt lat="46.03538" lon="4.38467">
        <ele>499.6</ele>
        <time>2025-09-08T12:25:43Z</time>
      </trkpt>
      <trkpt lat="46.03536" lon="4.38466">
        <ele>499.6</ele>
        <time>2025-09-08T12:25:44Z</time>
      </trkpt>
      <trkpt lat="46.03534" lon="4.38465">
        <ele>499.6</ele>
        <time>2025-09-08T12:25:45Z</time>
      </trkpt>
      <trkpt lat="46.03532" lon="4.38464">
        <ele>499.6</ele>
        <time>2025-09-08T12:25:46Z</time>
      </trkpt>
      <trkpt lat="46.03529" lon="4.38463">
        <ele>500</ele>
        <time>2025-09-08T12:25:47Z</time>
      </trkpt>
      <trkpt lat="46.03527" lon="4.38462">
        <ele>500</ele>
        <time>2025-09-08T12:25:48Z</time>
      </trkpt>
      <trkpt lat="46.03522" lon="4.3846">
        <ele>500</ele>
        <time>2025-09-08T12:25:49Z</time>
      </trkpt>
      <trkpt lat="46.03519" lon="4.38459">
        <ele>500</ele>
        <time>2025-09-08T12:25:50Z</time>
      </trkpt>
      <trkpt lat="46.03516" lon="4.38457">
        <ele>500</ele>
        <time>2025-09-08T12:25:51Z</time>
      </trkpt>
      <trkpt lat="46.03514" lon="4.38456">
        <ele>500</ele>
        <time>2025-09-08T12:25:52Z</time>
      </trkpt>
      <trkpt lat="46.03511" lon="4.38455">
        <ele>500</ele>
        <time>2025-09-08T12:25:53Z</time>
      </trkpt>
      <trkpt lat="46.03508" lon="4.38454">
        <ele>500</ele>
        <time>2025-09-08T12:25:54Z</time>
      </trkpt>
      <trkpt lat="46.03505" lon="4.38453">
        <ele>500.2</ele>
        <time>2025-09-08T12:25:55Z</time>
      </trkpt>
      <trkpt lat="46.03503" lon="4.38452">
        <ele>500.2</ele>
        <time>2025-09-08T12:25:56Z</time>
      </trkpt>
      <trkpt lat="46.035" lon="4.38452">
        <ele>500.2</ele>
        <time>2025-09-08T12:25:57Z</time>
      </trkpt>
      <trkpt lat="46.03497" lon="4.38451">
        <ele>500.2</ele>
        <time>2025-09-08T12:25:58Z</time>
      </trkpt>
      <trkpt lat="46.03494" lon="4.38451">
        <ele>500.2</ele>
        <time>2025-09-08T12:25:59Z</time>
      </trkpt>
      <trkpt lat="46.03494" lon="4.38451">
        <ele>500.4</ele>
        <time>2025-09-08T12:26:00Z</time>
      </trkpt>
      <trkpt lat="46.03491" lon="4.3845">
        <ele>500.4</ele>
        <time>2025-09-08T12:26:01Z</time>
      </trkpt>
      <trkpt lat="46.03489" lon="4.3845">
        <ele>500.8</ele>
        <time>2025-09-08T12:26:02Z</time>
      </trkpt>
      <trkpt lat="46.03486" lon="4.38449">
        <ele>500.8</ele>
        <time>2025-09-08T12:26:03Z</time>
      </trkpt>
      <trkpt lat="46.03483" lon="4.38448">
        <ele>500.8</ele>
        <time>2025-09-08T12:26:04Z</time>
      </trkpt>
      <trkpt lat="46.0348" lon="4.38447">
        <ele>500.8</ele>
        <time>2025-09-08T12:26:05Z</time>
      </trkpt>
      <trkpt lat="46.03477" lon="4.38446">
        <ele>501</ele>
        <time>2025-09-08T12:26:06Z</time>
      </trkpt>
      <trkpt lat="46.03474" lon="4.38446">
        <ele>501</ele>
        <time>2025-09-08T12:26:07Z</time>
      </trkpt>
      <trkpt lat="46.03471" lon="4.38445">
        <ele>501</ele>
        <time>2025-09-08T12:26:08Z</time>
      </trkpt>
      <trkpt lat="46.03468" lon="4.38444">
        <ele>500.6</ele>
        <time>2025-09-08T12:26:09Z</time>
      </trkpt>
      <trkpt lat="46.03465" lon="4.38443">
        <ele>500.6</ele>
        <time>2025-09-08T12:26:10Z</time>
      </trkpt>
      <trkpt lat="46.03464" lon="4.38442">
        <ele>500.6</ele>
        <time>2025-09-08T12:26:11Z</time>
      </trkpt>
      <trkpt lat="46.03463" lon="4.38442">
        <ele>500.6</ele>
        <time>2025-09-08T12:26:12Z</time>
      </trkpt>
      <trkpt lat="46.03462" lon="4.38441">
        <ele>500.6</ele>
        <time>2025-09-08T12:26:13Z</time>
      </trkpt>
      <trkpt lat="46.03462" lon="4.3844">
        <ele>500.6</ele>
        <time>2025-09-08T12:26:14Z</time>
      </trkpt>
      <trkpt lat="46.0346" lon="4.3844">
        <ele>500.6</ele>
        <time>2025-09-08T12:26:15Z</time>
      </trkpt>
      <trkpt lat="46.03459" lon="4.38439">
        <ele>500.2</ele>
        <time>2025-09-08T12:26:16Z</time>
      </trkpt>
      <trkpt lat="46.03458" lon="4.38439">
        <ele>500.2</ele>
        <time>2025-09-08T12:26:17Z</time>
      </trkpt>
      <trkpt lat="46.03457" lon="4.3844">
        <ele>500.2</ele>
        <time>2025-09-08T12:26:18Z</time>
      </trkpt>
      <trkpt lat="46.03457" lon="4.3844">
        <ele>500.2</ele>
        <time>2025-09-08T12:26:19Z</time>
      </trkpt>
      <trkpt lat="46.03456" lon="4.3844">
        <ele>500.2</ele>
        <time>2025-09-08T12:26:20Z</time>
      </trkpt>
      <trkpt lat="46.03456" lon="4.38441">
        <ele>500.2</ele>
        <time>2025-09-08T12:26:21Z</time>
      </trkpt>
      <trkpt lat="46.03457" lon="4.38442">
        <ele>500.2</ele>
        <time>2025-09-08T12:27:11Z</time>
      </trkpt>
      <trkpt lat="46.03456" lon="4.38442">
        <ele>500.2</ele>
        <time>2025-09-08T12:27:12Z</time>
      </trkpt>
      <trkpt lat="46.03455" lon="4.3844">
        <ele>500.2</ele>
        <time>2025-09-08T12:27:13Z</time>
      </trkpt>
      <trkpt lat="46.03453" lon="4.38438">
        <ele>499.8</ele>
        <time>2025-09-08T12:27:14Z</time>
      </trkpt>
      <trkpt lat="46.03451" lon="4.38436">
        <ele>499.8</ele>
        <time>2025-09-08T12:27:15Z</time>
      </trkpt>
      <trkpt lat="46.03449" lon="4.38434">
        <ele>499.6</ele>
        <time>2025-09-08T12:27:16Z</time>
      </trkpt>
      <trkpt lat="46.03446" lon="4.38432">
        <ele>499.6</ele>
        <time>2025-09-08T12:27:17Z</time>
      </trkpt>
      <trkpt lat="46.03441" lon="4.38427">
        <ele>499.2</ele>
        <time>2025-09-08T12:27:18Z</time>
      </trkpt>
      <trkpt lat="46.03438" lon="4.38425">
        <ele>499.2</ele>
        <time>2025-09-08T12:27:19Z</time>
      </trkpt>
      <trkpt lat="46.03433" lon="4.3842">
        <ele>499.2</ele>
        <time>2025-09-08T12:27:20Z</time>
      </trkpt>
      <trkpt lat="46.03428" lon="4.38416">
        <ele>498.8</ele>
        <time>2025-09-08T12:27:21Z</time>
      </trkpt>
      <trkpt lat="46.03423" lon="4.38409">
        <ele>498.8</ele>
        <time>2025-09-08T12:27:22Z</time>
      </trkpt>
      <trkpt lat="46.03418" lon="4.38403">
        <ele>498.6</ele>
        <time>2025-09-08T12:27:23Z</time>
      </trkpt>
      <trkpt lat="46.03412" lon="4.38396">
        <ele>497.8</ele>
        <time>2025-09-08T12:27:24Z</time>
      </trkpt>
      <trkpt lat="46.03407" lon="4.38388">
        <ele>497</ele>
        <time>2025-09-08T12:27:25Z</time>
      </trkpt>
      <trkpt lat="46.03402" lon="4.38382">
        <ele>496</ele>
        <time>2025-09-08T12:27:26Z</time>
      </trkpt>
      <trkpt lat="46.03396" lon="4.38376">
        <ele>495.2</ele>
        <time>2025-09-08T12:27:27Z</time>
      </trkpt>
      <trkpt lat="46.0339" lon="4.38373">
        <ele>494.8</ele>
        <time>2025-09-08T12:27:28Z</time>
      </trkpt>
      <trkpt lat="46.03386" lon="4.3837">
        <ele>494.8</ele>
        <time>2025-09-08T12:27:29Z</time>
      </trkpt>
      <trkpt lat="46.0338" lon="4.38373">
        <ele>494.4</ele>
        <time>2025-09-08T12:27:30Z</time>
      </trkpt>
      <trkpt lat="46.03374" lon="4.38375">
        <ele>493.6</ele>
        <time>2025-09-08T12:27:31Z</time>
      </trkpt>
      <trkpt lat="46.03369" lon="4.38383">
        <ele>493.2</ele>
        <time>2025-09-08T12:27:32Z</time>
      </trkpt>
      <trkpt lat="46.03364" lon="4.38389">
        <ele>492.6</ele>
        <time>2025-09-08T12:27:33Z</time>
      </trkpt>
      <trkpt lat="46.03359" lon="4.38397">
        <ele>492.2</ele>
        <time>2025-09-08T12:27:34Z</time>
      </trkpt>
      <trkpt lat="46.03354" lon="4.38405">
        <ele>492</ele>
        <time>2025-09-08T12:27:35Z</time>
      </trkpt>
      <trkpt lat="46.0335" lon="4.38413">
        <ele>491.6</ele>
        <time>2025-09-08T12:27:36Z</time>
      </trkpt>
      <trkpt lat="46.03346" lon="4.38419">
        <ele>491.4</ele>
        <time>2025-09-08T12:27:37Z</time>
      </trkpt>
      <trkpt lat="46.03341" lon="4.38427">
        <ele>491.4</ele>
        <time>2025-09-08T12:27:38Z</time>
      </trkpt>
      <trkpt lat="46.03336" lon="4.38434">
        <ele>491</ele>
        <time>2025-09-08T12:27:39Z</time>
      </trkpt>
      <trkpt lat="46.03331" lon="4.38441">
        <ele>490.6</ele>
        <time>2025-09-08T12:27:40Z</time>
      </trkpt>
      <trkpt lat="46.03327" lon="4.38444">
        <ele>491</ele>
        <time>2025-09-08T12:27:41Z</time>
      </trkpt>
      <trkpt lat="46.03322" lon="4.38448">
        <ele>491.4</ele>
        <time>2025-09-08T12:27:42Z</time>
      </trkpt>
      <trkpt lat="46.03318" lon="4.38451">
        <ele>491.4</ele>
        <time>2025-09-08T12:27:43Z</time>
      </trkpt>
      <trkpt lat="46.03314" lon="4.38453">
        <ele>491.4</ele>
        <time>2025-09-08T12:27:44Z</time>
      </trkpt>
      <trkpt lat="46.03311" lon="4.38453">
        <ele>491.4</ele>
        <time>2025-09-08T12:27:45Z</time>
      </trkpt>
      <trkpt lat="46.03306" lon="4.38454">
        <ele>491.8</ele>
        <time>2025-09-08T12:27:46Z</time>
      </trkpt>
      <trkpt lat="46.03303" lon="4.38457">
        <ele>492.2</ele>
        <time>2025-09-08T12:27:47Z</time>
      </trkpt>
      <trkpt lat="46.033" lon="4.3846">
        <ele>492.6</ele>
        <time>2025-09-08T12:27:48Z</time>
      </trkpt>
      <trkpt lat="46.03296" lon="4.3846">
        <ele>492.8</ele>
        <time>2025-09-08T12:27:49Z</time>
      </trkpt>
      <trkpt lat="46.03293" lon="4.38463">
        <ele>492.8</ele>
        <time>2025-09-08T12:27:50Z</time>
      </trkpt>
      <trkpt lat="46.03292" lon="4.38462">
        <ele>493</ele>
        <time>2025-09-08T12:27:51Z</time>
      </trkpt>
      <trkpt lat="46.0329" lon="4.38464">
        <ele>493</ele>
        <time>2025-09-08T12:27:52Z</time>
      </trkpt>
      <trkpt lat="46.03288" lon="4.38464">
        <ele>493.2</ele>
        <time>2025-09-08T12:27:53Z</time>
      </trkpt>
      <trkpt lat="46.03286" lon="4.38464">
        <ele>493.4</ele>
        <time>2025-09-08T12:27:54Z</time>
      </trkpt>
      <trkpt lat="46.03286" lon="4.38465">
        <ele>493.4</ele>
        <time>2025-09-08T12:27:55Z</time>
      </trkpt>
      <trkpt lat="46.03284" lon="4.38466">
        <ele>494</ele>
        <time>2025-09-08T12:27:56Z</time>
      </trkpt>
      <trkpt lat="46.03282" lon="4.38468">
        <ele>494</ele>
        <time>2025-09-08T12:27:57Z</time>
      </trkpt>
      <trkpt lat="46.0328" lon="4.38468">
        <ele>494.4</ele>
        <time>2025-09-08T12:27:58Z</time>
      </trkpt>
      <trkpt lat="46.03279" lon="4.38468">
        <ele>494.4</ele>
        <time>2025-09-08T12:27:59Z</time>
      </trkpt>
      <trkpt lat="46.03278" lon="4.38468">
        <ele>494.4</ele>
        <time>2025-09-08T12:28:00Z</time>
      </trkpt>
      <trkpt lat="46.03277" lon="4.38468">
        <ele>494.8</ele>
        <time>2025-09-08T12:28:01Z</time>
      </trkpt>
      <trkpt lat="46.03275" lon="4.38467">
        <ele>495</ele>
        <time>2025-09-08T12:28:02Z</time>
      </trkpt>
      <trkpt lat="46.03273" lon="4.38467">
        <ele>495</ele>
        <time>2025-09-08T12:28:03Z</time>
      </trkpt>
      <trkpt lat="46.03272" lon="4.38467">
        <ele>495.4</ele>
        <time>2025-09-08T12:28:04Z</time>
      </trkpt>
      <trkpt lat="46.03271" lon="4.38466">
        <ele>495.4</ele>
        <time>2025-09-08T12:28:05Z</time>
      </trkpt>
      <trkpt lat="46.0327" lon="4.38466">
        <ele>495.8</ele>
        <time>2025-09-08T12:28:06Z</time>
      </trkpt>
      <trkpt lat="46.03269" lon="4.38466">
        <ele>495.8</ele>
        <time>2025-09-08T12:28:07Z</time>
      </trkpt>
      <trkpt lat="46.03268" lon="4.38465">
        <ele>496</ele>
        <time>2025-09-08T12:28:08Z</time>
      </trkpt>
      <trkpt lat="46.03267" lon="4.38465">
        <ele>496</ele>
        <time>2025-09-08T12:28:09Z</time>
      </trkpt>
      <trkpt lat="46.03265" lon="4.38465">
        <ele>496.4</ele>
        <time>2025-09-08T12:28:10Z</time>
      </trkpt>
      <trkpt lat="46.03264" lon="4.38465">
        <ele>496.6</ele>
        <time>2025-09-08T12:28:11Z</time>
      </trkpt>
      <trkpt lat="46.03263" lon="4.38465">
        <ele>496.6</ele>
        <time>2025-09-08T12:28:12Z</time>
      </trkpt>
      <trkpt lat="46.03262" lon="4.38465">
        <ele>496.6</ele>
        <time>2025-09-08T12:28:13Z</time>
      </trkpt>
      <trkpt lat="46.03261" lon="4.38465">
        <ele>496.6</ele>
        <time>2025-09-08T12:28:14Z</time>
      </trkpt>
      <trkpt lat="46.0326" lon="4.38465">
        <ele>497</ele>
        <time>2025-09-08T12:28:15Z</time>
      </trkpt>
      <trkpt lat="46.03259" lon="4.38465">
        <ele>497</ele>
        <time>2025-09-08T12:28:16Z</time>
      </trkpt>
      <trkpt lat="46.03257" lon="4.38466">
        <ele>497</ele>
        <time>2025-09-08T12:28:17Z</time>
      </trkpt>
      <trkpt lat="46.03256" lon="4.38466">
        <ele>497.2</ele>
        <time>2025-09-08T12:28:18Z</time>
      </trkpt>
      <trkpt lat="46.03254" lon="4.38466">
        <ele>497.2</ele>
        <time>2025-09-08T12:28:19Z</time>
      </trkpt>
      <trkpt lat="46.03253" lon="4.38466">
        <ele>497.2</ele>
        <time>2025-09-08T12:28:20Z</time>
      </trkpt>
      <trkpt lat="46.03252" lon="4.38466">
        <ele>497.2</ele>
        <time>2025-09-08T12:28:21Z</time>
      </trkpt>
      <trkpt lat="46.0325" lon="4.38466">
        <ele>497.6</ele>
        <time>2025-09-08T12:28:22Z</time>
      </trkpt>
      <trkpt lat="46.03249" lon="4.38465">
        <ele>497.6</ele>
        <time>2025-09-08T12:28:23Z</time>
      </trkpt>
      <trkpt lat="46.03248" lon="4.38465">
        <ele>497.6</ele>
        <time>2025-09-08T12:28:24Z</time>
      </trkpt>
      <trkpt lat="46.03248" lon="4.38465">
        <ele>498.2</ele>
        <time>2025-09-08T12:28:25Z</time>
      </trkpt>
      <trkpt lat="46.03247" lon="4.38464">
        <ele>498.2</ele>
        <time>2025-09-08T12:28:26Z</time>
      </trkpt>
      <trkpt lat="46.03246" lon="4.38464">
        <ele>498.2</ele>
        <time>2025-09-08T12:28:27Z</time>
      </trkpt>
      <trkpt lat="46.03245" lon="4.38463">
        <ele>498.4</ele>
        <time>2025-09-08T12:28:28Z</time>
      </trkpt>
      <trkpt lat="46.03244" lon="4.38462">
        <ele>498.8</ele>
        <time>2025-09-08T12:28:29Z</time>
      </trkpt>
      <trkpt lat="46.03243" lon="4.38462">
        <ele>498.8</ele>
        <time>2025-09-08T12:28:30Z</time>
      </trkpt>
      <trkpt lat="46.03242" lon="4.38462">
        <ele>498.8</ele>
        <time>2025-09-08T12:28:31Z</time>
      </trkpt>
      <trkpt lat="46.03241" lon="4.38463">
        <ele>499</ele>
        <time>2025-09-08T12:28:32Z</time>
      </trkpt>
      <trkpt lat="46.0324" lon="4.38463">
        <ele>499</ele>
        <time>2025-09-08T12:28:33Z</time>
      </trkpt>
      <trkpt lat="46.03238" lon="4.38462">
        <ele>499</ele>
        <time>2025-09-08T12:28:34Z</time>
      </trkpt>
      <trkpt lat="46.03237" lon="4.38462">
        <ele>499.4</ele>
        <time>2025-09-08T12:28:35Z</time>
      </trkpt>
      <trkpt lat="46.03236" lon="4.38461">
        <ele>499.4</ele>
        <time>2025-09-08T12:28:36Z</time>
      </trkpt>
      <trkpt lat="46.03235" lon="4.3846">
        <ele>499.6</ele>
        <time>2025-09-08T12:28:37Z</time>
      </trkpt>
      <trkpt lat="46.03234" lon="4.38459">
        <ele>499.6</ele>
        <time>2025-09-08T12:28:38Z</time>
      </trkpt>
      <trkpt lat="46.03233" lon="4.38459">
        <ele>499.6</ele>
        <time>2025-09-08T12:28:39Z</time>
      </trkpt>
      <trkpt lat="46.03232" lon="4.38459">
        <ele>500</ele>
        <time>2025-09-08T12:28:40Z</time>
      </trkpt>
      <trkpt lat="46.0323" lon="4.38459">
        <ele>500.2</ele>
        <time>2025-09-08T12:28:41Z</time>
      </trkpt>
      <trkpt lat="46.03229" lon="4.38459">
        <ele>500.4</ele>
        <time>2025-09-08T12:28:42Z</time>
      </trkpt>
      <trkpt lat="46.03228" lon="4.38459">
        <ele>500.4</ele>
        <time>2025-09-08T12:28:43Z</time>
      </trkpt>
      <trkpt lat="46.03227" lon="4.38459">
        <ele>500.4</ele>
        <time>2025-09-08T12:28:44Z</time>
      </trkpt>
      <trkpt lat="46.03226" lon="4.38458">
        <ele>500.4</ele>
        <time>2025-09-08T12:28:45Z</time>
      </trkpt>
      <trkpt lat="46.03225" lon="4.38458">
        <ele>500.6</ele>
        <time>2025-09-08T12:28:46Z</time>
      </trkpt>
      <trkpt lat="46.03224" lon="4.38457">
        <ele>500.6</ele>
        <time>2025-09-08T12:28:47Z</time>
      </trkpt>
      <trkpt lat="46.03223" lon="4.38457">
        <ele>500.6</ele>
        <time>2025-09-08T12:28:48Z</time>
      </trkpt>
      <trkpt lat="46.03222" lon="4.38456">
        <ele>501</ele>
        <time>2025-09-08T12:28:49Z</time>
      </trkpt>
      <trkpt lat="46.03221" lon="4.38456">
        <ele>501</ele>
        <time>2025-09-08T12:28:50Z</time>
      </trkpt>
      <trkpt lat="46.0322" lon="4.38456">
        <ele>501.4</ele>
        <time>2025-09-08T12:28:51Z</time>
      </trkpt>
      <trkpt lat="46.03218" lon="4.38455">
        <ele>501.6</ele>
        <time>2025-09-08T12:28:52Z</time>
      </trkpt>
      <trkpt lat="46.03217" lon="4.38454">
        <ele>501.6</ele>
        <time>2025-09-08T12:28:53Z</time>
      </trkpt>
      <trkpt lat="46.03216" lon="4.38453">
        <ele>501.6</ele>
        <time>2025-09-08T12:28:54Z</time>
      </trkpt>
      <trkpt lat="46.03215" lon="4.38452">
        <ele>501.6</ele>
        <time>2025-09-08T12:28:55Z</time>
      </trkpt>
      <trkpt lat="46.03213" lon="4.38451">
        <ele>501.6</ele>
        <time>2025-09-08T12:28:56Z</time>
      </trkpt>
      <trkpt lat="46.03212" lon="4.38449">
        <ele>501.6</ele>
        <time>2025-09-08T12:28:57Z</time>
      </trkpt>
      <trkpt lat="46.0321" lon="4.38448">
        <ele>501.6</ele>
        <time>2025-09-08T12:28:58Z</time>
      </trkpt>
      <trkpt lat="46.03208" lon="4.38447">
        <ele>501.6</ele>
        <time>2025-09-08T12:28:59Z</time>
      </trkpt>
      <trkpt lat="46.03206" lon="4.38446">
        <ele>501.6</ele>
        <time>2025-09-08T12:29:00Z</time>
      </trkpt>
      <trkpt lat="46.03203" lon="4.38444">
        <ele>501.6</ele>
        <time>2025-09-08T12:29:01Z</time>
      </trkpt>
      <trkpt lat="46.03199" lon="4.38441">
        <ele>501.6</ele>
        <time>2025-09-08T12:29:02Z</time>
      </trkpt>
      <trkpt lat="46.03196" lon="4.38438">
        <ele>501.4</ele>
        <time>2025-09-08T12:29:03Z</time>
      </trkpt>
      <trkpt lat="46.03192" lon="4.38434">
        <ele>501.4</ele>
        <time>2025-09-08T12:29:04Z</time>
      </trkpt>
      <trkpt lat="46.0319" lon="4.38431">
        <ele>501.4</ele>
        <time>2025-09-08T12:29:05Z</time>
      </trkpt>
      <trkpt lat="46.03187" lon="4.38427">
        <ele>501.4</ele>
        <time>2025-09-08T12:29:06Z</time>
      </trkpt>
      <trkpt lat="46.03184" lon="4.38422">
        <ele>501.4</ele>
        <time>2025-09-08T12:29:07Z</time>
      </trkpt>
      <trkpt lat="46.03181" lon="4.38418">
        <ele>501.2</ele>
        <time>2025-09-08T12:29:08Z</time>
      </trkpt>
      <trkpt lat="46.03178" lon="4.38413">
        <ele>501.2</ele>
        <time>2025-09-08T12:29:09Z</time>
      </trkpt>
      <trkpt lat="46.03176" lon="4.38409">
        <ele>501.2</ele>
        <time>2025-09-08T12:29:10Z</time>
      </trkpt>
      <trkpt lat="46.03173" lon="4.38405">
        <ele>500.8</ele>
        <time>2025-09-08T12:29:11Z</time>
      </trkpt>
      <trkpt lat="46.03169" lon="4.38402">
        <ele>500.8</ele>
        <time>2025-09-08T12:29:12Z</time>
      </trkpt>
      <trkpt lat="46.03166" lon="4.38399">
        <ele>500.6</ele>
        <time>2025-09-08T12:29:13Z</time>
      </trkpt>
      <trkpt lat="46.03163" lon="4.38396">
        <ele>500.6</ele>
        <time>2025-09-08T12:29:14Z</time>
      </trkpt>
      <trkpt lat="46.03159" lon="4.38393">
        <ele>500.6</ele>
        <time>2025-09-08T12:29:15Z</time>
      </trkpt>
      <trkpt lat="46.03155" lon="4.3839">
        <ele>500</ele>
        <time>2025-09-08T12:29:16Z</time>
      </trkpt>
      <trkpt lat="46.03152" lon="4.38386">
        <ele>500</ele>
        <time>2025-09-08T12:29:17Z</time>
      </trkpt>
      <trkpt lat="46.03148" lon="4.38382">
        <ele>500</ele>
        <time>2025-09-08T12:29:18Z</time>
      </trkpt>
      <trkpt lat="46.03145" lon="4.38377">
        <ele>500</ele>
        <time>2025-09-08T12:29:19Z</time>
      </trkpt>
      <trkpt lat="46.03142" lon="4.38373">
        <ele>499.6</ele>
        <time>2025-09-08T12:29:20Z</time>
      </trkpt>
      <trkpt lat="46.03139" lon="4.38369">
        <ele>499.6</ele>
        <time>2025-09-08T12:29:21Z</time>
      </trkpt>
      <trkpt lat="46.03137" lon="4.38366">
        <ele>500</ele>
        <time>2025-09-08T12:29:22Z</time>
      </trkpt>
      <trkpt lat="46.03134" lon="4.38362">
        <ele>500</ele>
        <time>2025-09-08T12:29:23Z</time>
      </trkpt>
      <trkpt lat="46.03131" lon="4.38358">
        <ele>500</ele>
        <time>2025-09-08T12:29:24Z</time>
      </trkpt>
      <trkpt lat="46.03129" lon="4.38354">
        <ele>500</ele>
        <time>2025-09-08T12:29:25Z</time>
      </trkpt>
      <trkpt lat="46.03126" lon="4.38351">
        <ele>500</ele>
        <time>2025-09-08T12:29:26Z</time>
      </trkpt>
      <trkpt lat="46.03124" lon="4.38348">
        <ele>500</ele>
        <time>2025-09-08T12:29:27Z</time>
      </trkpt>
      <trkpt lat="46.03121" lon="4.38345">
        <ele>500.4</ele>
        <time>2025-09-08T12:29:28Z</time>
      </trkpt>
      <trkpt lat="46.03119" lon="4.38342">
        <ele>500.6</ele>
        <time>2025-09-08T12:29:29Z</time>
      </trkpt>
      <trkpt lat="46.03116" lon="4.3834">
        <ele>500.8</ele>
        <time>2025-09-08T12:29:30Z</time>
      </trkpt>
      <trkpt lat="46.03114" lon="4.38338">
        <ele>501</ele>
        <time>2025-09-08T12:29:31Z</time>
      </trkpt>
      <trkpt lat="46.03112" lon="4.38336">
        <ele>501.4</ele>
        <time>2025-09-08T12:29:32Z</time>
      </trkpt>
      <trkpt lat="46.0311" lon="4.38335">
        <ele>501.6</ele>
        <time>2025-09-08T12:29:33Z</time>
      </trkpt>
      <trkpt lat="46.03109" lon="4.38333">
        <ele>501.6</ele>
        <time>2025-09-08T12:29:34Z</time>
      </trkpt>
      <trkpt lat="46.03107" lon="4.38332">
        <ele>502.2</ele>
        <time>2025-09-08T12:29:35Z</time>
      </trkpt>
      <trkpt lat="46.03105" lon="4.38331">
        <ele>502.6</ele>
        <time>2025-09-08T12:29:36Z</time>
      </trkpt>
      <trkpt lat="46.03104" lon="4.38329">
        <ele>502.8</ele>
        <time>2025-09-08T12:29:37Z</time>
      </trkpt>
      <trkpt lat="46.03103" lon="4.38328">
        <ele>502.8</ele>
        <time>2025-09-08T12:29:38Z</time>
      </trkpt>
      <trkpt lat="46.03101" lon="4.38327">
        <ele>502.8</ele>
        <time>2025-09-08T12:29:39Z</time>
      </trkpt>
      <trkpt lat="46.031" lon="4.38326">
        <ele>502.8</ele>
        <time>2025-09-08T12:29:40Z</time>
      </trkpt>
      <trkpt lat="46.03099" lon="4.38324">
        <ele>503.2</ele>
        <time>2025-09-08T12:29:41Z</time>
      </trkpt>
      <trkpt lat="46.03098" lon="4.38323">
        <ele>503.4</ele>
        <time>2025-09-08T12:29:42Z</time>
      </trkpt>
      <trkpt lat="46.03097" lon="4.38321">
        <ele>503.8</ele>
        <time>2025-09-08T12:29:43Z</time>
      </trkpt>
      <trkpt lat="46.03095" lon="4.3832">
        <ele>503.8</ele>
        <time>2025-09-08T12:29:44Z</time>
      </trkpt>
      <trkpt lat="46.03094" lon="4.38319">
        <ele>504</ele>
        <time>2025-09-08T12:29:45Z</time>
      </trkpt>
      <trkpt lat="46.03093" lon="4.38318">
        <ele>504.4</ele>
        <time>2025-09-08T12:29:46Z</time>
      </trkpt>
      <trkpt lat="46.03091" lon="4.38317">
        <ele>504.4</ele>
        <time>2025-09-08T12:29:47Z</time>
      </trkpt>
      <trkpt lat="46.0309" lon="4.38317">
        <ele>504.8</ele>
        <time>2025-09-08T12:29:48Z</time>
      </trkpt>
      <trkpt lat="46.03089" lon="4.38316">
        <ele>504.8</ele>
        <time>2025-09-08T12:29:49Z</time>
      </trkpt>
      <trkpt lat="46.03088" lon="4.38314">
        <ele>505</ele>
        <time>2025-09-08T12:29:50Z</time>
      </trkpt>
      <trkpt lat="46.03087" lon="4.38313">
        <ele>505.2</ele>
        <time>2025-09-08T12:29:51Z</time>
      </trkpt>
      <trkpt lat="46.03086" lon="4.38312">
        <ele>505.2</ele>
        <time>2025-09-08T12:29:52Z</time>
      </trkpt>
      <trkpt lat="46.03085" lon="4.38311">
        <ele>505.2</ele>
        <time>2025-09-08T12:29:53Z</time>
      </trkpt>
      <trkpt lat="46.03084" lon="4.38309">
        <ele>505.4</ele>
        <time>2025-09-08T12:29:54Z</time>
      </trkpt>
      <trkpt lat="46.03084" lon="4.38308">
        <ele>505.4</ele>
        <time>2025-09-08T12:29:55Z</time>
      </trkpt>
      <trkpt lat="46.03083" lon="4.38306">
        <ele>505.4</ele>
        <time>2025-09-08T12:29:56Z</time>
      </trkpt>
      <trkpt lat="46.03083" lon="4.38304">
        <ele>505.6</ele>
        <time>2025-09-08T12:29:57Z</time>
      </trkpt>
      <trkpt lat="46.03082" lon="4.38303">
        <ele>505.6</ele>
        <time>2025-09-08T12:29:58Z</time>
      </trkpt>
      <trkpt lat="46.03081" lon="4.38301">
        <ele>506</ele>
        <time>2025-09-08T12:29:59Z</time>
      </trkpt>
      <trkpt lat="46.0308" lon="4.383">
        <ele>506</ele>
        <time>2025-09-08T12:30:00Z</time>
      </trkpt>
      <trkpt lat="46.0308" lon="4.38298">
        <ele>506</ele>
        <time>2025-09-08T12:30:01Z</time>
      </trkpt>
      <trkpt lat="46.03079" lon="4.38296">
        <ele>506</ele>
        <time>2025-09-08T12:30:02Z</time>
      </trkpt>
      <trkpt lat="46.03078" lon="4.38294">
        <ele>506</ele>
        <time>2025-09-08T12:30:03Z</time>
      </trkpt>
      <trkpt lat="46.03077" lon="4.38293">
        <ele>506.2</ele>
        <time>2025-09-08T12:30:04Z</time>
      </trkpt>
      <trkpt lat="46.03076" lon="4.38291">
        <ele>506.2</ele>
        <time>2025-09-08T12:30:05Z</time>
      </trkpt>
      <trkpt lat="46.03075" lon="4.3829">
        <ele>506.6</ele>
        <time>2025-09-08T12:30:06Z</time>
      </trkpt>
      <trkpt lat="46.03074" lon="4.38288">
        <ele>506.6</ele>
        <time>2025-09-08T12:30:07Z</time>
      </trkpt>
      <trkpt lat="46.03073" lon="4.38287">
        <ele>506.8</ele>
        <time>2025-09-08T12:30:08Z</time>
      </trkpt>
      <trkpt lat="46.03072" lon="4.38286">
        <ele>506.8</ele>
        <time>2025-09-08T12:30:09Z</time>
      </trkpt>
      <trkpt lat="46.03071" lon="4.38284">
        <ele>506.8</ele>
        <time>2025-09-08T12:30:10Z</time>
      </trkpt>
      <trkpt lat="46.0307" lon="4.38283">
        <ele>507.2</ele>
        <time>2025-09-08T12:30:11Z</time>
      </trkpt>
      <trkpt lat="46.03069" lon="4.38282">
        <ele>507.2</ele>
        <time>2025-09-08T12:30:12Z</time>
      </trkpt>
      <trkpt lat="46.03067" lon="4.38281">
        <ele>507.2</ele>
        <time>2025-09-08T12:30:13Z</time>
      </trkpt>
      <trkpt lat="46.03066" lon="4.3828">
        <ele>507.6</ele>
        <time>2025-09-08T12:30:14Z</time>
      </trkpt>
      <trkpt lat="46.03064" lon="4.38279">
        <ele>507.6</ele>
        <time>2025-09-08T12:30:15Z</time>
      </trkpt>
      <trkpt lat="46.03063" lon="4.38277">
        <ele>507.6</ele>
        <time>2025-09-08T12:30:16Z</time>
      </trkpt>
      <trkpt lat="46.03062" lon="4.38276">
        <ele>507.6</ele>
        <time>2025-09-08T12:30:17Z</time>
      </trkpt>
      <trkpt lat="46.03061" lon="4.38274">
        <ele>508</ele>
        <time>2025-09-08T12:30:18Z</time>
      </trkpt>
      <trkpt lat="46.03061" lon="4.38272">
        <ele>508</ele>
        <time>2025-09-08T12:30:19Z</time>
      </trkpt>
      <trkpt lat="46.0306" lon="4.3827">
        <ele>508.2</ele>
        <time>2025-09-08T12:30:20Z</time>
      </trkpt>
      <trkpt lat="46.0306" lon="4.38268">
        <ele>508.4</ele>
        <time>2025-09-08T12:30:21Z</time>
      </trkpt>
      <trkpt lat="46.03059" lon="4.38266">
        <ele>508.4</ele>
        <time>2025-09-08T12:30:22Z</time>
      </trkpt>
      <trkpt lat="46.03058" lon="4.38265">
        <ele>508.8</ele>
        <time>2025-09-08T12:30:23Z</time>
      </trkpt>
      <trkpt lat="46.03057" lon="4.38263">
        <ele>508.8</ele>
        <time>2025-09-08T12:30:24Z</time>
      </trkpt>
      <trkpt lat="46.03057" lon="4.38263">
        <ele>508.8</ele>
        <time>2025-09-08T12:30:25Z</time>
      </trkpt>
      <trkpt lat="46.03056" lon="4.38262">
        <ele>508.8</ele>
        <time>2025-09-08T12:30:26Z</time>
      </trkpt>
      <trkpt lat="46.03055" lon="4.38261">
        <ele>509.2</ele>
        <time>2025-09-08T12:30:27Z</time>
      </trkpt>
      <trkpt lat="46.03054" lon="4.38259">
        <ele>509.2</ele>
        <time>2025-09-08T12:30:28Z</time>
      </trkpt>
      <trkpt lat="46.03053" lon="4.38258">
        <ele>509.4</ele>
        <time>2025-09-08T12:30:29Z</time>
      </trkpt>
      <trkpt lat="46.03053" lon="4.38256">
        <ele>509.6</ele>
        <time>2025-09-08T12:30:30Z</time>
      </trkpt>
      <trkpt lat="46.03051" lon="4.38255">
        <ele>509.6</ele>
        <time>2025-09-08T12:30:31Z</time>
      </trkpt>
      <trkpt lat="46.0305" lon="4.38254">
        <ele>509.6</ele>
        <time>2025-09-08T12:30:32Z</time>
      </trkpt>
      <trkpt lat="46.03049" lon="4.38252">
        <ele>509.6</ele>
        <time>2025-09-08T12:30:33Z</time>
      </trkpt>
      <trkpt lat="46.03049" lon="4.3825">
        <ele>509.6</ele>
        <time>2025-09-08T12:30:34Z</time>
      </trkpt>
      <trkpt lat="46.03048" lon="4.38249">
        <ele>509.6</ele>
        <time>2025-09-08T12:30:35Z</time>
      </trkpt>
      <trkpt lat="46.03048" lon="4.38247">
        <ele>510</ele>
        <time>2025-09-08T12:30:36Z</time>
      </trkpt>
      <trkpt lat="46.03047" lon="4.38245">
        <ele>510</ele>
        <time>2025-09-08T12:30:37Z</time>
      </trkpt>
      <trkpt lat="46.03046" lon="4.38244">
        <ele>510</ele>
        <time>2025-09-08T12:30:38Z</time>
      </trkpt>
      <trkpt lat="46.03045" lon="4.38242">
        <ele>510.2</ele>
        <time>2025-09-08T12:30:39Z</time>
      </trkpt>
      <trkpt lat="46.03044" lon="4.38241">
        <ele>510.2</ele>
        <time>2025-09-08T12:30:40Z</time>
      </trkpt>
      <trkpt lat="46.03043" lon="4.3824">
        <ele>510.2</ele>
        <time>2025-09-08T12:30:41Z</time>
      </trkpt>
      <trkpt lat="46.03042" lon="4.38238">
        <ele>510.6</ele>
        <time>2025-09-08T12:30:42Z</time>
      </trkpt>
      <trkpt lat="46.03041" lon="4.38237">
        <ele>510.6</ele>
        <time>2025-09-08T12:30:43Z</time>
      </trkpt>
      <trkpt lat="46.0304" lon="4.38235">
        <ele>510.6</ele>
        <time>2025-09-08T12:30:44Z</time>
      </trkpt>
      <trkpt lat="46.03039" lon="4.38233">
        <ele>510.6</ele>
        <time>2025-09-08T12:30:45Z</time>
      </trkpt>
      <trkpt lat="46.03037" lon="4.38231">
        <ele>510.8</ele>
        <time>2025-09-08T12:30:46Z</time>
      </trkpt>
      <trkpt lat="46.03035" lon="4.38229">
        <ele>510.8</ele>
        <time>2025-09-08T12:30:47Z</time>
      </trkpt>
      <trkpt lat="46.03034" lon="4.38227">
        <ele>510.8</ele>
        <time>2025-09-08T12:30:48Z</time>
      </trkpt>
      <trkpt lat="46.03032" lon="4.38225">
        <ele>510.8</ele>
        <time>2025-09-08T12:30:49Z</time>
      </trkpt>
      <trkpt lat="46.0303" lon="4.38223">
        <ele>510.8</ele>
        <time>2025-09-08T12:30:50Z</time>
      </trkpt>
      <trkpt lat="46.03028" lon="4.3822">
        <ele>510.8</ele>
        <time>2025-09-08T12:30:51Z</time>
      </trkpt>
      <trkpt lat="46.03026" lon="4.38218">
        <ele>510.8</ele>
        <time>2025-09-08T12:30:52Z</time>
      </trkpt>
      <trkpt lat="46.03023" lon="4.38215">
        <ele>510.8</ele>
        <time>2025-09-08T12:30:53Z</time>
      </trkpt>
      <trkpt lat="46.03021" lon="4.38212">
        <ele>510.8</ele>
        <time>2025-09-08T12:30:54Z</time>
      </trkpt>
      <trkpt lat="46.03018" lon="4.38209">
        <ele>510.8</ele>
        <time>2025-09-08T12:30:55Z</time>
      </trkpt>
      <trkpt lat="46.03015" lon="4.38206">
        <ele>510.2</ele>
        <time>2025-09-08T12:30:56Z</time>
      </trkpt>
      <trkpt lat="46.03012" lon="4.38203">
        <ele>510.2</ele>
        <time>2025-09-08T12:30:57Z</time>
      </trkpt>
      <trkpt lat="46.03004" lon="4.38195">
        <ele>509.6</ele>
        <time>2025-09-08T12:30:58Z</time>
      </trkpt>
      <trkpt lat="46.02999" lon="4.3819">
        <ele>509</ele>
        <time>2025-09-08T12:30:59Z</time>
      </trkpt>
      <trkpt lat="46.02999" lon="4.3819">
        <ele>508</ele>
        <time>2025-09-08T12:31:00Z</time>
      </trkpt>
      <trkpt lat="46.02999" lon="4.3819">
        <ele>507</ele>
        <time>2025-09-08T12:31:01Z</time>
      </trkpt>
      <trkpt lat="46.02988" lon="4.38178">
        <ele>506</ele>
        <time>2025-09-08T12:31:02Z</time>
      </trkpt>
      <trkpt lat="46.02981" lon="4.38172">
        <ele>505.4</ele>
        <time>2025-09-08T12:31:03Z</time>
      </trkpt>
      <trkpt lat="46.02974" lon="4.38167">
        <ele>504.8</ele>
        <time>2025-09-08T12:31:04Z</time>
      </trkpt>
      <trkpt lat="46.02967" lon="4.38161">
        <ele>503.4</ele>
        <time>2025-09-08T12:31:05Z</time>
      </trkpt>
      <trkpt lat="46.0296" lon="4.38155">
        <ele>502.6</ele>
        <time>2025-09-08T12:31:06Z</time>
      </trkpt>
      <trkpt lat="46.02952" lon="4.38151">
        <ele>501.8</ele>
        <time>2025-09-08T12:31:07Z</time>
      </trkpt>
      <trkpt lat="46.02944" lon="4.38145">
        <ele>501</ele>
        <time>2025-09-08T12:31:08Z</time>
      </trkpt>
      <trkpt lat="46.02936" lon="4.38139">
        <ele>500.6</ele>
        <time>2025-09-08T12:31:09Z</time>
      </trkpt>
      <trkpt lat="46.02927" lon="4.38136">
        <ele>500.2</ele>
        <time>2025-09-08T12:31:10Z</time>
      </trkpt>
      <trkpt lat="46.02919" lon="4.38133">
        <ele>500.2</ele>
        <time>2025-09-08T12:31:11Z</time>
      </trkpt>
      <trkpt lat="46.02911" lon="4.38133">
        <ele>500.2</ele>
        <time>2025-09-08T12:31:12Z</time>
      </trkpt>
      <trkpt lat="46.02903" lon="4.38134">
        <ele>500.2</ele>
        <time>2025-09-08T12:31:13Z</time>
      </trkpt>
      <trkpt lat="46.02896" lon="4.38133">
        <ele>500.2</ele>
        <time>2025-09-08T12:31:14Z</time>
      </trkpt>
      <trkpt lat="46.02889" lon="4.38134">
        <ele>500.2</ele>
        <time>2025-09-08T12:31:15Z</time>
      </trkpt>
      <trkpt lat="46.02883" lon="4.38134">
        <ele>500.2</ele>
        <time>2025-09-08T12:31:16Z</time>
      </trkpt>
      <trkpt lat="46.02878" lon="4.38134">
        <ele>500.8</ele>
        <time>2025-09-08T12:31:17Z</time>
      </trkpt>
      <trkpt lat="46.02874" lon="4.38135">
        <ele>501</ele>
        <time>2025-09-08T12:31:18Z</time>
      </trkpt>
      <trkpt lat="46.02869" lon="4.38134">
        <ele>501.4</ele>
        <time>2025-09-08T12:31:19Z</time>
      </trkpt>
      <trkpt lat="46.02866" lon="4.38135">
        <ele>501.6</ele>
        <time>2025-09-08T12:31:20Z</time>
      </trkpt>
      <trkpt lat="46.02863" lon="4.38133">
        <ele>502.6</ele>
        <time>2025-09-08T12:31:21Z</time>
      </trkpt>
      <trkpt lat="46.0286" lon="4.38132">
        <ele>502.6</ele>
        <time>2025-09-08T12:31:22Z</time>
      </trkpt>
      <trkpt lat="46.02857" lon="4.38132">
        <ele>502.8</ele>
        <time>2025-09-08T12:31:23Z</time>
      </trkpt>
      <trkpt lat="46.02854" lon="4.38132">
        <ele>503</ele>
        <time>2025-09-08T12:31:24Z</time>
      </trkpt>
      <trkpt lat="46.0285" lon="4.38131">
        <ele>503</ele>
        <time>2025-09-08T12:31:25Z</time>
      </trkpt>
      <trkpt lat="46.02847" lon="4.38129">
        <ele>503.4</ele>
        <time>2025-09-08T12:31:26Z</time>
      </trkpt>
      <trkpt lat="46.02844" lon="4.38127">
        <ele>503.4</ele>
        <time>2025-09-08T12:31:27Z</time>
      </trkpt>
      <trkpt lat="46.02841" lon="4.38125">
        <ele>503.4</ele>
        <time>2025-09-08T12:31:28Z</time>
      </trkpt>
      <trkpt lat="46.02839" lon="4.38123">
        <ele>503.4</ele>
        <time>2025-09-08T12:31:29Z</time>
      </trkpt>
      <trkpt lat="46.02836" lon="4.3812">
        <ele>503.6</ele>
        <time>2025-09-08T12:31:30Z</time>
      </trkpt>
      <trkpt lat="46.02834" lon="4.38117">
        <ele>503.6</ele>
        <time>2025-09-08T12:31:31Z</time>
      </trkpt>
      <trkpt lat="46.02832" lon="4.38115">
        <ele>504</ele>
        <time>2025-09-08T12:31:32Z</time>
      </trkpt>
      <trkpt lat="46.0283" lon="4.38112">
        <ele>504</ele>
        <time>2025-09-08T12:31:33Z</time>
      </trkpt>
      <trkpt lat="46.02827" lon="4.38109">
        <ele>504</ele>
        <time>2025-09-08T12:31:34Z</time>
      </trkpt>
      <trkpt lat="46.02825" lon="4.38106">
        <ele>504</ele>
        <time>2025-09-08T12:31:35Z</time>
      </trkpt>
      <trkpt lat="46.02823" lon="4.38104">
        <ele>504.2</ele>
        <time>2025-09-08T12:31:36Z</time>
      </trkpt>
      <trkpt lat="46.02821" lon="4.38101">
        <ele>504.2</ele>
        <time>2025-09-08T12:31:37Z</time>
      </trkpt>
      <trkpt lat="46.0282" lon="4.38099">
        <ele>504.2</ele>
        <time>2025-09-08T12:31:38Z</time>
      </trkpt>
      <trkpt lat="46.02818" lon="4.38096">
        <ele>504.2</ele>
        <time>2025-09-08T12:31:39Z</time>
      </trkpt>
      <trkpt lat="46.02817" lon="4.38094">
        <ele>504.2</ele>
        <time>2025-09-08T12:31:40Z</time>
      </trkpt>
      <trkpt lat="46.02815" lon="4.38092">
        <ele>504.2</ele>
        <time>2025-09-08T12:31:41Z</time>
      </trkpt>
      <trkpt lat="46.02814" lon="4.38091">
        <ele>504.8</ele>
        <time>2025-09-08T12:31:42Z</time>
      </trkpt>
      <trkpt lat="46.02813" lon="4.38089">
        <ele>505.2</ele>
        <time>2025-09-08T12:31:43Z</time>
      </trkpt>
      <trkpt lat="46.02812" lon="4.38087">
        <ele>505.2</ele>
        <time>2025-09-08T12:31:44Z</time>
      </trkpt>
      <trkpt lat="46.02811" lon="4.38085">
        <ele>505.6</ele>
        <time>2025-09-08T12:31:45Z</time>
      </trkpt>
      <trkpt lat="46.0281" lon="4.38084">
        <ele>505.8</ele>
        <time>2025-09-08T12:31:46Z</time>
      </trkpt>
      <trkpt lat="46.02809" lon="4.38082">
        <ele>506.2</ele>
        <time>2025-09-08T12:31:47Z</time>
      </trkpt>
      <trkpt lat="46.02808" lon="4.3808">
        <ele>506.4</ele>
        <time>2025-09-08T12:31:48Z</time>
      </trkpt>
      <trkpt lat="46.02807" lon="4.38079">
        <ele>506.4</ele>
        <time>2025-09-08T12:31:49Z</time>
      </trkpt>
      <trkpt lat="46.02807" lon="4.38078">
        <ele>506.4</ele>
        <time>2025-09-08T12:31:50Z</time>
      </trkpt>
      <trkpt lat="46.02808" lon="4.38078">
        <ele>506.6</ele>
        <time>2025-09-08T12:31:51Z</time>
      </trkpt>
      <trkpt lat="46.02805" lon="4.38078">
        <ele>506.6</ele>
        <time>2025-09-08T12:31:57Z</time>
      </trkpt>
      <trkpt lat="46.02803" lon="4.38077">
        <ele>506.6</ele>
        <time>2025-09-08T12:31:58Z</time>
      </trkpt>
      <trkpt lat="46.028" lon="4.38075">
        <ele>506.6</ele>
        <time>2025-09-08T12:31:59Z</time>
      </trkpt>
      <trkpt lat="46.02798" lon="4.38074">
        <ele>506.6</ele>
        <time>2025-09-08T12:32:00Z</time>
      </trkpt>
      <trkpt lat="46.02796" lon="4.38072">
        <ele>506.6</ele>
        <time>2025-09-08T12:32:01Z</time>
      </trkpt>
      <trkpt lat="46.02794" lon="4.3807">
        <ele>507</ele>
        <time>2025-09-08T12:32:02Z</time>
      </trkpt>
      <trkpt lat="46.02793" lon="4.38068">
        <ele>507.2</ele>
        <time>2025-09-08T12:32:03Z</time>
      </trkpt>
      <trkpt lat="46.02791" lon="4.38066">
        <ele>507.4</ele>
        <time>2025-09-08T12:32:04Z</time>
      </trkpt>
      <trkpt lat="46.02789" lon="4.38064">
        <ele>507.4</ele>
        <time>2025-09-08T12:32:05Z</time>
      </trkpt>
      <trkpt lat="46.02788" lon="4.38062">
        <ele>507.8</ele>
        <time>2025-09-08T12:32:06Z</time>
      </trkpt>
      <trkpt lat="46.02787" lon="4.3806">
        <ele>507.8</ele>
        <time>2025-09-08T12:32:07Z</time>
      </trkpt>
      <trkpt lat="46.02786" lon="4.38058">
        <ele>507.8</ele>
        <time>2025-09-08T12:32:08Z</time>
      </trkpt>
      <trkpt lat="46.02784" lon="4.38057">
        <ele>508</ele>
        <time>2025-09-08T12:32:09Z</time>
      </trkpt>
      <trkpt lat="46.02782" lon="4.38055">
        <ele>508</ele>
        <time>2025-09-08T12:32:10Z</time>
      </trkpt>
      <trkpt lat="46.02779" lon="4.38054">
        <ele>508</ele>
        <time>2025-09-08T12:32:11Z</time>
      </trkpt>
      <trkpt lat="46.02776" lon="4.38053">
        <ele>508</ele>
        <time>2025-09-08T12:32:12Z</time>
      </trkpt>
      <trkpt lat="46.02774" lon="4.38053">
        <ele>508</ele>
        <time>2025-09-08T12:32:13Z</time>
      </trkpt>
      <trkpt lat="46.02771" lon="4.38052">
        <ele>508.4</ele>
        <time>2025-09-08T12:32:14Z</time>
      </trkpt>
      <trkpt lat="46.02769" lon="4.38051">
        <ele>508.4</ele>
        <time>2025-09-08T12:32:15Z</time>
      </trkpt>
      <trkpt lat="46.02767" lon="4.38049">
        <ele>508.6</ele>
        <time>2025-09-08T12:32:16Z</time>
      </trkpt>
      <trkpt lat="46.02765" lon="4.38048">
        <ele>508.6</ele>
        <time>2025-09-08T12:32:17Z</time>
      </trkpt>
      <trkpt lat="46.02764" lon="4.38047">
        <ele>508.8</ele>
        <time>2025-09-08T12:32:18Z</time>
      </trkpt>
      <trkpt lat="46.02762" lon="4.38046">
        <ele>508.8</ele>
        <time>2025-09-08T12:32:19Z</time>
      </trkpt>
      <trkpt lat="46.0276" lon="4.38045">
        <ele>508.8</ele>
        <time>2025-09-08T12:32:20Z</time>
      </trkpt>
      <trkpt lat="46.02758" lon="4.38044">
        <ele>509.2</ele>
        <time>2025-09-08T12:32:21Z</time>
      </trkpt>
      <trkpt lat="46.02756" lon="4.38043">
        <ele>509.4</ele>
        <time>2025-09-08T12:32:22Z</time>
      </trkpt>
      <trkpt lat="46.02754" lon="4.38042">
        <ele>509.4</ele>
        <time>2025-09-08T12:32:23Z</time>
      </trkpt>
      <trkpt lat="46.02752" lon="4.38041">
        <ele>509.4</ele>
        <time>2025-09-08T12:32:24Z</time>
      </trkpt>
      <trkpt lat="46.0275" lon="4.38041">
        <ele>509.8</ele>
        <time>2025-09-08T12:32:25Z</time>
      </trkpt>
      <trkpt lat="46.02748" lon="4.38041">
        <ele>509.8</ele>
        <time>2025-09-08T12:32:26Z</time>
      </trkpt>
      <trkpt lat="46.02746" lon="4.3804">
        <ele>509.8</ele>
        <time>2025-09-08T12:32:27Z</time>
      </trkpt>
      <trkpt lat="46.02744" lon="4.3804">
        <ele>510</ele>
        <time>2025-09-08T12:32:28Z</time>
      </trkpt>
      <trkpt lat="46.02742" lon="4.3804">
        <ele>510</ele>
        <time>2025-09-08T12:32:29Z</time>
      </trkpt>
      <trkpt lat="46.02741" lon="4.38039">
        <ele>510.2</ele>
        <time>2025-09-08T12:32:30Z</time>
      </trkpt>
      <trkpt lat="46.02739" lon="4.38039">
        <ele>510.2</ele>
        <time>2025-09-08T12:32:31Z</time>
      </trkpt>
      <trkpt lat="46.02737" lon="4.38039">
        <ele>510.4</ele>
        <time>2025-09-08T12:32:32Z</time>
      </trkpt>
      <trkpt lat="46.02735" lon="4.38038">
        <ele>510.4</ele>
        <time>2025-09-08T12:32:33Z</time>
      </trkpt>
      <trkpt lat="46.02734" lon="4.38037">
        <ele>510.4</ele>
        <time>2025-09-08T12:32:34Z</time>
      </trkpt>
      <trkpt lat="46.02732" lon="4.38036">
        <ele>510.6</ele>
        <time>2025-09-08T12:32:35Z</time>
      </trkpt>
      <trkpt lat="46.0273" lon="4.38035">
        <ele>510.6</ele>
        <time>2025-09-08T12:32:36Z</time>
      </trkpt>
      <trkpt lat="46.02728" lon="4.38034">
        <ele>510.6</ele>
        <time>2025-09-08T12:32:37Z</time>
      </trkpt>
      <trkpt lat="46.02727" lon="4.38033">
        <ele>511</ele>
        <time>2025-09-08T12:32:38Z</time>
      </trkpt>
      <trkpt lat="46.02725" lon="4.38032">
        <ele>511</ele>
        <time>2025-09-08T12:32:39Z</time>
      </trkpt>
      <trkpt lat="46.02724" lon="4.38031">
        <ele>511</ele>
        <time>2025-09-08T12:32:40Z</time>
      </trkpt>
      <trkpt lat="46.02722" lon="4.3803">
        <ele>511.2</ele>
        <time>2025-09-08T12:32:41Z</time>
      </trkpt>
      <trkpt lat="46.0272" lon="4.3803">
        <ele>511.2</ele>
        <time>2025-09-08T12:32:42Z</time>
      </trkpt>
      <trkpt lat="46.02717" lon="4.38029">
        <ele>511.2</ele>
        <time>2025-09-08T12:32:43Z</time>
      </trkpt>
      <trkpt lat="46.02715" lon="4.38028">
        <ele>511</ele>
        <time>2025-09-08T12:32:44Z</time>
      </trkpt>
      <trkpt lat="46.02714" lon="4.38028">
        <ele>511</ele>
        <time>2025-09-08T12:32:45Z</time>
      </trkpt>
      <trkpt lat="46.02712" lon="4.38027">
        <ele>511</ele>
        <time>2025-09-08T12:32:46Z</time>
      </trkpt>
      <trkpt lat="46.0271" lon="4.38027">
        <ele>511</ele>
        <time>2025-09-08T12:32:47Z</time>
      </trkpt>
      <trkpt lat="46.02707" lon="4.38027">
        <ele>511</ele>
        <time>2025-09-08T12:32:48Z</time>
      </trkpt>
      <trkpt lat="46.02704" lon="4.38026">
        <ele>511</ele>
        <time>2025-09-08T12:32:49Z</time>
      </trkpt>
      <trkpt lat="46.02701" lon="4.38025">
        <ele>511</ele>
        <time>2025-09-08T12:32:50Z</time>
      </trkpt>
      <trkpt lat="46.02698" lon="4.38024">
        <ele>511</ele>
        <time>2025-09-08T12:32:51Z</time>
      </trkpt>
      <trkpt lat="46.02695" lon="4.38022">
        <ele>510.8</ele>
        <time>2025-09-08T12:32:52Z</time>
      </trkpt>
      <trkpt lat="46.02691" lon="4.38021">
        <ele>510.6</ele>
        <time>2025-09-08T12:32:53Z</time>
      </trkpt>
      <trkpt lat="46.02688" lon="4.38019">
        <ele>510.6</ele>
        <time>2025-09-08T12:32:54Z</time>
      </trkpt>
      <trkpt lat="46.02684" lon="4.38017">
        <ele>510.6</ele>
        <time>2025-09-08T12:32:55Z</time>
      </trkpt>
      <trkpt lat="46.0268" lon="4.38015">
        <ele>510</ele>
        <time>2025-09-08T12:32:56Z</time>
      </trkpt>
      <trkpt lat="46.02676" lon="4.38013">
        <ele>509.6</ele>
        <time>2025-09-08T12:32:57Z</time>
      </trkpt>
      <trkpt lat="46.02672" lon="4.38012">
        <ele>509.4</ele>
        <time>2025-09-08T12:32:58Z</time>
      </trkpt>
      <trkpt lat="46.02667" lon="4.38012">
        <ele>509.4</ele>
        <time>2025-09-08T12:32:59Z</time>
      </trkpt>
      <trkpt lat="46.02662" lon="4.3801">
        <ele>508.6</ele>
        <time>2025-09-08T12:33:00Z</time>
      </trkpt>
      <trkpt lat="46.02657" lon="4.38004">
        <ele>507.8</ele>
        <time>2025-09-08T12:33:01Z</time>
      </trkpt>
      <trkpt lat="46.02653" lon="4.37999">
        <ele>507.2</ele>
        <time>2025-09-08T12:33:02Z</time>
      </trkpt>
      <trkpt lat="46.02648" lon="4.37991">
        <ele>506</ele>
        <time>2025-09-08T12:33:03Z</time>
      </trkpt>
      <trkpt lat="46.02642" lon="4.37984">
        <ele>505.4</ele>
        <time>2025-09-08T12:33:04Z</time>
      </trkpt>
      <trkpt lat="46.02635" lon="4.37982">
        <ele>504.4</ele>
        <time>2025-09-08T12:33:05Z</time>
      </trkpt>
      <trkpt lat="46.02629" lon="4.37976">
        <ele>503.6</ele>
        <time>2025-09-08T12:33:06Z</time>
      </trkpt>
      <trkpt lat="46.02622" lon="4.37972">
        <ele>502.6</ele>
        <time>2025-09-08T12:33:07Z</time>
      </trkpt>
      <trkpt lat="46.02614" lon="4.37967">
        <ele>501.2</ele>
        <time>2025-09-08T12:33:08Z</time>
      </trkpt>
      <trkpt lat="46.02606" lon="4.37962">
        <ele>499.8</ele>
        <time>2025-09-08T12:33:09Z</time>
      </trkpt>
      <trkpt lat="46.02599" lon="4.37957">
        <ele>498.8</ele>
        <time>2025-09-08T12:33:10Z</time>
      </trkpt>
      <trkpt lat="46.02592" lon="4.37953">
        <ele>498</ele>
        <time>2025-09-08T12:33:11Z</time>
      </trkpt>
      <trkpt lat="46.02585" lon="4.37949">
        <ele>497.4</ele>
        <time>2025-09-08T12:33:12Z</time>
      </trkpt>
      <trkpt lat="46.02577" lon="4.37946">
        <ele>496.4</ele>
        <time>2025-09-08T12:33:13Z</time>
      </trkpt>
      <trkpt lat="46.0257" lon="4.37943">
        <ele>495.6</ele>
        <time>2025-09-08T12:33:14Z</time>
      </trkpt>
      <trkpt lat="46.02562" lon="4.37941">
        <ele>494.6</ele>
        <time>2025-09-08T12:33:15Z</time>
      </trkpt>
      <trkpt lat="46.02552" lon="4.37939">
        <ele>493.4</ele>
        <time>2025-09-08T12:33:16Z</time>
      </trkpt>
      <trkpt lat="46.02542" lon="4.37938">
        <ele>492.4</ele>
        <time>2025-09-08T12:33:17Z</time>
      </trkpt>
      <trkpt lat="46.02532" lon="4.37939">
        <ele>491.8</ele>
        <time>2025-09-08T12:33:18Z</time>
      </trkpt>
      <trkpt lat="46.02523" lon="4.37941">
        <ele>491</ele>
        <time>2025-09-08T12:33:19Z</time>
      </trkpt>
      <trkpt lat="46.02512" lon="4.37943">
        <ele>490.6</ele>
        <time>2025-09-08T12:33:20Z</time>
      </trkpt>
      <trkpt lat="46.02502" lon="4.37945">
        <ele>489.8</ele>
        <time>2025-09-08T12:33:21Z</time>
      </trkpt>
      <trkpt lat="46.02496" lon="4.37943">
        <ele>489.2</ele>
        <time>2025-09-08T12:33:22Z</time>
      </trkpt>
      <trkpt lat="46.02487" lon="4.37945">
        <ele>488.6</ele>
        <time>2025-09-08T12:33:23Z</time>
      </trkpt>
      <trkpt lat="46.02479" lon="4.37945">
        <ele>488</ele>
        <time>2025-09-08T12:33:24Z</time>
      </trkpt>
      <trkpt lat="46.02471" lon="4.37945">
        <ele>487.4</ele>
        <time>2025-09-08T12:33:25Z</time>
      </trkpt>
      <trkpt lat="46.02465" lon="4.37945">
        <ele>487</ele>
        <time>2025-09-08T12:33:26Z</time>
      </trkpt>
      <trkpt lat="46.02459" lon="4.37944">
        <ele>486.2</ele>
        <time>2025-09-08T12:33:27Z</time>
      </trkpt>
      <trkpt lat="46.02453" lon="4.37942">
        <ele>486</ele>
        <time>2025-09-08T12:33:28Z</time>
      </trkpt>
      <trkpt lat="46.02446" lon="4.37939">
        <ele>485.2</ele>
        <time>2025-09-08T12:33:29Z</time>
      </trkpt>
      <trkpt lat="46.02439" lon="4.37936">
        <ele>484.8</ele>
        <time>2025-09-08T12:33:30Z</time>
      </trkpt>
      <trkpt lat="46.02433" lon="4.37931">
        <ele>484.2</ele>
        <time>2025-09-08T12:33:31Z</time>
      </trkpt>
      <trkpt lat="46.02426" lon="4.37928">
        <ele>483</ele>
        <time>2025-09-08T12:33:32Z</time>
      </trkpt>
      <trkpt lat="46.02421" lon="4.3792">
        <ele>482.6</ele>
        <time>2025-09-08T12:33:33Z</time>
      </trkpt>
      <trkpt lat="46.02416" lon="4.37915">
        <ele>482</ele>
        <time>2025-09-08T12:33:34Z</time>
      </trkpt>
      <trkpt lat="46.02412" lon="4.37911">
        <ele>481.2</ele>
        <time>2025-09-08T12:33:35Z</time>
      </trkpt>
      <trkpt lat="46.02407" lon="4.37908">
        <ele>480.8</ele>
        <time>2025-09-08T12:33:36Z</time>
      </trkpt>
      <trkpt lat="46.02401" lon="4.37908">
        <ele>480</ele>
        <time>2025-09-08T12:33:37Z</time>
      </trkpt>
      <trkpt lat="46.02395" lon="4.37907">
        <ele>479.4</ele>
        <time>2025-09-08T12:33:38Z</time>
      </trkpt>
      <trkpt lat="46.0239" lon="4.37907">
        <ele>478.6</ele>
        <time>2025-09-08T12:33:39Z</time>
      </trkpt>
      <trkpt lat="46.02384" lon="4.37908">
        <ele>478.2</ele>
        <time>2025-09-08T12:33:40Z</time>
      </trkpt>
      <trkpt lat="46.02377" lon="4.37908">
        <ele>477.8</ele>
        <time>2025-09-08T12:33:41Z</time>
      </trkpt>
      <trkpt lat="46.02371" lon="4.37908">
        <ele>477</ele>
        <time>2025-09-08T12:33:42Z</time>
      </trkpt>
      <trkpt lat="46.02364" lon="4.37907">
        <ele>476.4</ele>
        <time>2025-09-08T12:33:43Z</time>
      </trkpt>
      <trkpt lat="46.02357" lon="4.37907">
        <ele>475.4</ele>
        <time>2025-09-08T12:33:44Z</time>
      </trkpt>
      <trkpt lat="46.0235" lon="4.37907">
        <ele>474.6</ele>
        <time>2025-09-08T12:33:45Z</time>
      </trkpt>
      <trkpt lat="46.02343" lon="4.37907">
        <ele>473.8</ele>
        <time>2025-09-08T12:33:46Z</time>
      </trkpt>
      <trkpt lat="46.02334" lon="4.37909">
        <ele>472.6</ele>
        <time>2025-09-08T12:33:47Z</time>
      </trkpt>
      <trkpt lat="46.02326" lon="4.3791">
        <ele>471.4</ele>
        <time>2025-09-08T12:33:48Z</time>
      </trkpt>
      <trkpt lat="46.02318" lon="4.37912">
        <ele>470.8</ele>
        <time>2025-09-08T12:33:49Z</time>
      </trkpt>
      <trkpt lat="46.02312" lon="4.37912">
        <ele>470.8</ele>
        <time>2025-09-08T12:33:50Z</time>
      </trkpt>
      <trkpt lat="46.02305" lon="4.37914">
        <ele>469.8</ele>
        <time>2025-09-08T12:33:51Z</time>
      </trkpt>
      <trkpt lat="46.02298" lon="4.37915">
        <ele>468.8</ele>
        <time>2025-09-08T12:33:52Z</time>
      </trkpt>
      <trkpt lat="46.02292" lon="4.37921">
        <ele>468.4</ele>
        <time>2025-09-08T12:33:53Z</time>
      </trkpt>
      <trkpt lat="46.02285" lon="4.37925">
        <ele>467.2</ele>
        <time>2025-09-08T12:33:54Z</time>
      </trkpt>
      <trkpt lat="46.02279" lon="4.3793">
        <ele>466.6</ele>
        <time>2025-09-08T12:33:55Z</time>
      </trkpt>
      <trkpt lat="46.02273" lon="4.37933">
        <ele>465.6</ele>
        <time>2025-09-08T12:33:56Z</time>
      </trkpt>
      <trkpt lat="46.02267" lon="4.37937">
        <ele>464.6</ele>
        <time>2025-09-08T12:33:57Z</time>
      </trkpt>
      <trkpt lat="46.02261" lon="4.3794">
        <ele>464</ele>
        <time>2025-09-08T12:33:58Z</time>
      </trkpt>
      <trkpt lat="46.02255" lon="4.37941">
        <ele>463.2</ele>
        <time>2025-09-08T12:33:59Z</time>
      </trkpt>
      <trkpt lat="46.02248" lon="4.37941">
        <ele>463.2</ele>
        <time>2025-09-08T12:34:00Z</time>
      </trkpt>
      <trkpt lat="46.02242" lon="4.3794">
        <ele>462.8</ele>
        <time>2025-09-08T12:34:01Z</time>
      </trkpt>
      <trkpt lat="46.02235" lon="4.37939">
        <ele>462.2</ele>
        <time>2025-09-08T12:34:02Z</time>
      </trkpt>
      <trkpt lat="46.0223" lon="4.37937">
        <ele>462.2</ele>
        <time>2025-09-08T12:34:03Z</time>
      </trkpt>
      <trkpt lat="46.02226" lon="4.37935">
        <ele>462.2</ele>
        <time>2025-09-08T12:34:04Z</time>
      </trkpt>
      <trkpt lat="46.02221" lon="4.37932">
        <ele>461.6</ele>
        <time>2025-09-08T12:34:05Z</time>
      </trkpt>
      <trkpt lat="46.02217" lon="4.37928">
        <ele>461.6</ele>
        <time>2025-09-08T12:34:06Z</time>
      </trkpt>
      <trkpt lat="46.02213" lon="4.37924">
        <ele>461.8</ele>
        <time>2025-09-08T12:34:07Z</time>
      </trkpt>
      <trkpt lat="46.02209" lon="4.37921">
        <ele>461.6</ele>
        <time>2025-09-08T12:34:08Z</time>
      </trkpt>
      <trkpt lat="46.02205" lon="4.37918">
        <ele>461.4</ele>
        <time>2025-09-08T12:34:09Z</time>
      </trkpt>
      <trkpt lat="46.022" lon="4.37917">
        <ele>461</ele>
        <time>2025-09-08T12:34:10Z</time>
      </trkpt>
      <trkpt lat="46.02196" lon="4.37916">
        <ele>460.8</ele>
        <time>2025-09-08T12:34:11Z</time>
      </trkpt>
      <trkpt lat="46.02193" lon="4.37917">
        <ele>460.2</ele>
        <time>2025-09-08T12:34:12Z</time>
      </trkpt>
      <trkpt lat="46.02189" lon="4.37917">
        <ele>459.6</ele>
        <time>2025-09-08T12:34:13Z</time>
      </trkpt>
      <trkpt lat="46.02185" lon="4.3792">
        <ele>459.2</ele>
        <time>2025-09-08T12:34:14Z</time>
      </trkpt>
      <trkpt lat="46.02181" lon="4.37923">
        <ele>458.6</ele>
        <time>2025-09-08T12:34:15Z</time>
      </trkpt>
      <trkpt lat="46.02178" lon="4.37926">
        <ele>458.4</ele>
        <time>2025-09-08T12:34:16Z</time>
      </trkpt>
      <trkpt lat="46.02176" lon="4.37929">
        <ele>458</ele>
        <time>2025-09-08T12:34:17Z</time>
      </trkpt>
      <trkpt lat="46.02173" lon="4.3793">
        <ele>457.6</ele>
        <time>2025-09-08T12:34:18Z</time>
      </trkpt>
      <trkpt lat="46.02171" lon="4.37932">
        <ele>457.6</ele>
        <time>2025-09-08T12:34:19Z</time>
      </trkpt>
      <trkpt lat="46.0217" lon="4.37933">
        <ele>457.2</ele>
        <time>2025-09-08T12:34:20Z</time>
      </trkpt>
      <trkpt lat="46.02167" lon="4.37934">
        <ele>457</ele>
        <time>2025-09-08T12:34:21Z</time>
      </trkpt>
      <trkpt lat="46.02165" lon="4.37934">
        <ele>456.6</ele>
        <time>2025-09-08T12:34:22Z</time>
      </trkpt>
      <trkpt lat="46.02162" lon="4.37933">
        <ele>456.6</ele>
        <time>2025-09-08T12:34:23Z</time>
      </trkpt>
      <trkpt lat="46.02158" lon="4.37931">
        <ele>456.2</ele>
        <time>2025-09-08T12:34:24Z</time>
      </trkpt>
      <trkpt lat="46.02153" lon="4.37928">
        <ele>456</ele>
        <time>2025-09-08T12:34:25Z</time>
      </trkpt>
      <trkpt lat="46.02148" lon="4.37928">
        <ele>455.8</ele>
        <time>2025-09-08T12:34:26Z</time>
      </trkpt>
      <trkpt lat="46.02143" lon="4.37927">
        <ele>455.4</ele>
        <time>2025-09-08T12:34:27Z</time>
      </trkpt>
      <trkpt lat="46.02137" lon="4.37927">
        <ele>454.8</ele>
        <time>2025-09-08T12:34:28Z</time>
      </trkpt>
      <trkpt lat="46.02131" lon="4.37926">
        <ele>454.4</ele>
        <time>2025-09-08T12:34:29Z</time>
      </trkpt>
      <trkpt lat="46.02125" lon="4.37926">
        <ele>454.2</ele>
        <time>2025-09-08T12:34:30Z</time>
      </trkpt>
      <trkpt lat="46.02119" lon="4.37926">
        <ele>453.6</ele>
        <time>2025-09-08T12:34:31Z</time>
      </trkpt>
      <trkpt lat="46.02113" lon="4.37926">
        <ele>453.4</ele>
        <time>2025-09-08T12:34:32Z</time>
      </trkpt>
      <trkpt lat="46.02106" lon="4.37925">
        <ele>453.4</ele>
        <time>2025-09-08T12:34:33Z</time>
      </trkpt>
      <trkpt lat="46.021" lon="4.37922">
        <ele>453</ele>
        <time>2025-09-08T12:34:34Z</time>
      </trkpt>
      <trkpt lat="46.02095" lon="4.3792">
        <ele>453</ele>
        <time>2025-09-08T12:34:35Z</time>
      </trkpt>
      <trkpt lat="46.0209" lon="4.37919">
        <ele>453.2</ele>
        <time>2025-09-08T12:34:36Z</time>
      </trkpt>
      <trkpt lat="46.02086" lon="4.37918">
        <ele>453.2</ele>
        <time>2025-09-08T12:34:37Z</time>
      </trkpt>
      <trkpt lat="46.02082" lon="4.37918">
        <ele>453</ele>
        <time>2025-09-08T12:34:38Z</time>
      </trkpt>
      <trkpt lat="46.02078" lon="4.37916">
        <ele>453</ele>
        <time>2025-09-08T12:34:39Z</time>
      </trkpt>
      <trkpt lat="46.02073" lon="4.37914">
        <ele>452.8</ele>
        <time>2025-09-08T12:34:40Z</time>
      </trkpt>
      <trkpt lat="46.02072" lon="4.37914">
        <ele>452.8</ele>
        <time>2025-09-08T12:34:41Z</time>
      </trkpt>
      <trkpt lat="46.0207" lon="4.37913">
        <ele>452.8</ele>
        <time>2025-09-08T12:34:42Z</time>
      </trkpt>
      <trkpt lat="46.02069" lon="4.37912">
        <ele>452.4</ele>
        <time>2025-09-08T12:34:43Z</time>
      </trkpt>
      <trkpt lat="46.02066" lon="4.37911">
        <ele>452.4</ele>
        <time>2025-09-08T12:34:44Z</time>
      </trkpt>
      <trkpt lat="46.02065" lon="4.37911">
        <ele>452.4</ele>
        <time>2025-09-08T12:34:45Z</time>
      </trkpt>
      <trkpt lat="46.02063" lon="4.3791">
        <ele>452.4</ele>
        <time>2025-09-08T12:34:46Z</time>
      </trkpt>
      <trkpt lat="46.02061" lon="4.37908">
        <ele>452.4</ele>
        <time>2025-09-08T12:34:47Z</time>
      </trkpt>
      <trkpt lat="46.02058" lon="4.37907">
        <ele>452.8</ele>
        <time>2025-09-08T12:34:48Z</time>
      </trkpt>
      <trkpt lat="46.02056" lon="4.37906">
        <ele>452.8</ele>
        <time>2025-09-08T12:34:49Z</time>
      </trkpt>
      <trkpt lat="46.02053" lon="4.37903">
        <ele>452.8</ele>
        <time>2025-09-08T12:34:50Z</time>
      </trkpt>
      <trkpt lat="46.02051" lon="4.37902">
        <ele>452.8</ele>
        <time>2025-09-08T12:34:51Z</time>
      </trkpt>
      <trkpt lat="46.02048" lon="4.37901">
        <ele>452.4</ele>
        <time>2025-09-08T12:34:52Z</time>
      </trkpt>
      <trkpt lat="46.02045" lon="4.37899">
        <ele>452.4</ele>
        <time>2025-09-08T12:34:53Z</time>
      </trkpt>
      <trkpt lat="46.02042" lon="4.37897">
        <ele>452.4</ele>
        <time>2025-09-08T12:34:54Z</time>
      </trkpt>
      <trkpt lat="46.02038" lon="4.37895">
        <ele>452.4</ele>
        <time>2025-09-08T12:34:55Z</time>
      </trkpt>
      <trkpt lat="46.02036" lon="4.37892">
        <ele>452.4</ele>
        <time>2025-09-08T12:34:56Z</time>
      </trkpt>
      <trkpt lat="46.02034" lon="4.37889">
        <ele>452.4</ele>
        <time>2025-09-08T12:34:57Z</time>
      </trkpt>
      <trkpt lat="46.02032" lon="4.37886">
        <ele>452.4</ele>
        <time>2025-09-08T12:34:58Z</time>
      </trkpt>
      <trkpt lat="46.0203" lon="4.37884">
        <ele>452.4</ele>
        <time>2025-09-08T12:34:59Z</time>
      </trkpt>
      <trkpt lat="46.02028" lon="4.37881">
        <ele>452.4</ele>
        <time>2025-09-08T12:35:00Z</time>
      </trkpt>
      <trkpt lat="46.02025" lon="4.37879">
        <ele>452.4</ele>
        <time>2025-09-08T12:35:01Z</time>
      </trkpt>
      <trkpt lat="46.02023" lon="4.37877">
        <ele>452.4</ele>
        <time>2025-09-08T12:35:02Z</time>
      </trkpt>
      <trkpt lat="46.0202" lon="4.37875">
        <ele>452.8</ele>
        <time>2025-09-08T12:35:03Z</time>
      </trkpt>
      <trkpt lat="46.02017" lon="4.37874">
        <ele>452.8</ele>
        <time>2025-09-08T12:35:04Z</time>
      </trkpt>
      <trkpt lat="46.02014" lon="4.37873">
        <ele>452.8</ele>
        <time>2025-09-08T12:35:05Z</time>
      </trkpt>
      <trkpt lat="46.02011" lon="4.37871">
        <ele>452.8</ele>
        <time>2025-09-08T12:35:06Z</time>
      </trkpt>
      <trkpt lat="46.02008" lon="4.37869">
        <ele>453</ele>
        <time>2025-09-08T12:35:07Z</time>
      </trkpt>
      <trkpt lat="46.02008" lon="4.37869">
        <ele>453.4</ele>
        <time>2025-09-08T12:35:08Z</time>
      </trkpt>
      <trkpt lat="46.02002" lon="4.37864">
        <ele>453.2</ele>
        <time>2025-09-08T12:35:09Z</time>
      </trkpt>
      <trkpt lat="46.02002" lon="4.37864">
        <ele>453</ele>
        <time>2025-09-08T12:35:10Z</time>
      </trkpt>
      <trkpt lat="46.01999" lon="4.37861">
        <ele>453</ele>
        <time>2025-09-08T12:35:11Z</time>
      </trkpt>
      <trkpt lat="46.01995" lon="4.37859">
        <ele>453.2</ele>
        <time>2025-09-08T12:35:12Z</time>
      </trkpt>
      <trkpt lat="46.01991" lon="4.37857">
        <ele>453.2</ele>
        <time>2025-09-08T12:35:13Z</time>
      </trkpt>
      <trkpt lat="46.01988" lon="4.37855">
        <ele>453.6</ele>
        <time>2025-09-08T12:35:14Z</time>
      </trkpt>
      <trkpt lat="46.01985" lon="4.37853">
        <ele>454.2</ele>
        <time>2025-09-08T12:35:15Z</time>
      </trkpt>
      <trkpt lat="46.01982" lon="4.37851">
        <ele>454.2</ele>
        <time>2025-09-08T12:35:16Z</time>
      </trkpt>
      <trkpt lat="46.01979" lon="4.37849">
        <ele>454</ele>
        <time>2025-09-08T12:35:17Z</time>
      </trkpt>
      <trkpt lat="46.01976" lon="4.37847">
        <ele>454</ele>
        <time>2025-09-08T12:35:18Z</time>
      </trkpt>
      <trkpt lat="46.01973" lon="4.37845">
        <ele>454</ele>
        <time>2025-09-08T12:35:19Z</time>
      </trkpt>
      <trkpt lat="46.0197" lon="4.37843">
        <ele>454</ele>
        <time>2025-09-08T12:35:20Z</time>
      </trkpt>
      <trkpt lat="46.01968" lon="4.3784">
        <ele>454</ele>
        <time>2025-09-08T12:35:21Z</time>
      </trkpt>
      <trkpt lat="46.01965" lon="4.37838">
        <ele>454</ele>
        <time>2025-09-08T12:35:22Z</time>
      </trkpt>
      <trkpt lat="46.01963" lon="4.37835">
        <ele>454</ele>
        <time>2025-09-08T12:35:23Z</time>
      </trkpt>
      <trkpt lat="46.01961" lon="4.37833">
        <ele>454</ele>
        <time>2025-09-08T12:35:24Z</time>
      </trkpt>
      <trkpt lat="46.01958" lon="4.3783">
        <ele>454</ele>
        <time>2025-09-08T12:35:25Z</time>
      </trkpt>
      <trkpt lat="46.01955" lon="4.37828">
        <ele>454.4</ele>
        <time>2025-09-08T12:35:26Z</time>
      </trkpt>
      <trkpt lat="46.01952" lon="4.37825">
        <ele>454.4</ele>
        <time>2025-09-08T12:35:27Z</time>
      </trkpt>
      <trkpt lat="46.0195" lon="4.37822">
        <ele>454.4</ele>
        <time>2025-09-08T12:35:28Z</time>
      </trkpt>
      <trkpt lat="46.01948" lon="4.3782">
        <ele>454.4</ele>
        <time>2025-09-08T12:35:29Z</time>
      </trkpt>
      <trkpt lat="46.01947" lon="4.37819">
        <ele>454.6</ele>
        <time>2025-09-08T12:35:30Z</time>
      </trkpt>
      <trkpt lat="46.01946" lon="4.37818">
        <ele>454.8</ele>
        <time>2025-09-08T12:35:31Z</time>
      </trkpt>
      <trkpt lat="46.01944" lon="4.37818">
        <ele>454.8</ele>
        <time>2025-09-08T12:35:32Z</time>
      </trkpt>
      <trkpt lat="46.01942" lon="4.37818">
        <ele>454.8</ele>
        <time>2025-09-08T12:35:33Z</time>
      </trkpt>
      <trkpt lat="46.0194" lon="4.37818">
        <ele>454.8</ele>
        <time>2025-09-08T12:35:34Z</time>
      </trkpt>
      <trkpt lat="46.01937" lon="4.37817">
        <ele>454.8</ele>
        <time>2025-09-08T12:35:35Z</time>
      </trkpt>
      <trkpt lat="46.01934" lon="4.37815">
        <ele>455</ele>
        <time>2025-09-08T12:35:36Z</time>
      </trkpt>
      <trkpt lat="46.01932" lon="4.37814">
        <ele>455</ele>
        <time>2025-09-08T12:35:37Z</time>
      </trkpt>
      <trkpt lat="46.01929" lon="4.37812">
        <ele>455.2</ele>
        <time>2025-09-08T12:35:38Z</time>
      </trkpt>
      <trkpt lat="46.01927" lon="4.37811">
        <ele>455.2</ele>
        <time>2025-09-08T12:35:39Z</time>
      </trkpt>
      <trkpt lat="46.01925" lon="4.3781">
        <ele>455.2</ele>
        <time>2025-09-08T12:35:40Z</time>
      </trkpt>
      <trkpt lat="46.01922" lon="4.37809">
        <ele>455.4</ele>
        <time>2025-09-08T12:35:41Z</time>
      </trkpt>
      <trkpt lat="46.0192" lon="4.37808">
        <ele>455.4</ele>
        <time>2025-09-08T12:35:42Z</time>
      </trkpt>
      <trkpt lat="46.01917" lon="4.37807">
        <ele>455.8</ele>
        <time>2025-09-08T12:35:43Z</time>
      </trkpt>
      <trkpt lat="46.01915" lon="4.37806">
        <ele>455.8</ele>
        <time>2025-09-08T12:35:44Z</time>
      </trkpt>
      <trkpt lat="46.01913" lon="4.37805">
        <ele>455.8</ele>
        <time>2025-09-08T12:35:45Z</time>
      </trkpt>
      <trkpt lat="46.0191" lon="4.37803">
        <ele>456</ele>
        <time>2025-09-08T12:35:46Z</time>
      </trkpt>
      <trkpt lat="46.01908" lon="4.37802">
        <ele>456</ele>
        <time>2025-09-08T12:35:47Z</time>
      </trkpt>
      <trkpt lat="46.01906" lon="4.37801">
        <ele>456</ele>
        <time>2025-09-08T12:35:48Z</time>
      </trkpt>
      <trkpt lat="46.01903" lon="4.378">
        <ele>456.4</ele>
        <time>2025-09-08T12:35:49Z</time>
      </trkpt>
      <trkpt lat="46.01901" lon="4.37799">
        <ele>456.4</ele>
        <time>2025-09-08T12:35:50Z</time>
      </trkpt>
      <trkpt lat="46.01898" lon="4.37799">
        <ele>456.6</ele>
        <time>2025-09-08T12:35:51Z</time>
      </trkpt>
      <trkpt lat="46.01896" lon="4.37798">
        <ele>456.6</ele>
        <time>2025-09-08T12:35:52Z</time>
      </trkpt>
      <trkpt lat="46.01894" lon="4.37797">
        <ele>456.6</ele>
        <time>2025-09-08T12:35:53Z</time>
      </trkpt>
      <trkpt lat="46.01891" lon="4.37796">
        <ele>456.8</ele>
        <time>2025-09-08T12:35:54Z</time>
      </trkpt>
      <trkpt lat="46.01889" lon="4.37795">
        <ele>456.4</ele>
        <time>2025-09-08T12:35:55Z</time>
      </trkpt>
      <trkpt lat="46.01887" lon="4.37794">
        <ele>456.6</ele>
        <time>2025-09-08T12:35:56Z</time>
      </trkpt>
      <trkpt lat="46.01885" lon="4.37794">
        <ele>457.2</ele>
        <time>2025-09-08T12:35:57Z</time>
      </trkpt>
      <trkpt lat="46.01884" lon="4.37793">
        <ele>457.2</ele>
        <time>2025-09-08T12:35:58Z</time>
      </trkpt>
      <trkpt lat="46.01882" lon="4.37792">
        <ele>457.2</ele>
        <time>2025-09-08T12:35:59Z</time>
      </trkpt>
      <trkpt lat="46.0188" lon="4.37791">
        <ele>457.2</ele>
        <time>2025-09-08T12:36:00Z</time>
      </trkpt>
      <trkpt lat="46.01878" lon="4.3779">
        <ele>456.2</ele>
        <time>2025-09-08T12:36:01Z</time>
      </trkpt>
      <trkpt lat="46.01877" lon="4.3779">
        <ele>456</ele>
        <time>2025-09-08T12:36:02Z</time>
      </trkpt>
      <trkpt lat="46.01875" lon="4.37789">
        <ele>457.6</ele>
        <time>2025-09-08T12:36:03Z</time>
      </trkpt>
      <trkpt lat="46.01872" lon="4.37788">
        <ele>457.8</ele>
        <time>2025-09-08T12:36:04Z</time>
      </trkpt>
      <trkpt lat="46.0187" lon="4.37787">
        <ele>457.8</ele>
        <time>2025-09-08T12:36:05Z</time>
      </trkpt>
      <trkpt lat="46.01868" lon="4.37786">
        <ele>457.8</ele>
        <time>2025-09-08T12:36:06Z</time>
      </trkpt>
      <trkpt lat="46.01866" lon="4.37785">
        <ele>457.8</ele>
        <time>2025-09-08T12:36:07Z</time>
      </trkpt>
      <trkpt lat="46.01864" lon="4.37784">
        <ele>458.2</ele>
        <time>2025-09-08T12:36:08Z</time>
      </trkpt>
      <trkpt lat="46.01862" lon="4.37783">
        <ele>458.2</ele>
        <time>2025-09-08T12:36:09Z</time>
      </trkpt>
      <trkpt lat="46.0186" lon="4.37781">
        <ele>458.2</ele>
        <time>2025-09-08T12:36:10Z</time>
      </trkpt>
      <trkpt lat="46.01857" lon="4.3778">
        <ele>458.4</ele>
        <time>2025-09-08T12:36:11Z</time>
      </trkpt>
      <trkpt lat="46.01855" lon="4.37779">
        <ele>458.4</ele>
        <time>2025-09-08T12:36:12Z</time>
      </trkpt>
      <trkpt lat="46.01853" lon="4.37777">
        <ele>458.4</ele>
        <time>2025-09-08T12:36:13Z</time>
      </trkpt>
      <trkpt lat="46.01851" lon="4.37777">
        <ele>458.4</ele>
        <time>2025-09-08T12:36:14Z</time>
      </trkpt>
      <trkpt lat="46.01848" lon="4.37776">
        <ele>458.8</ele>
        <time>2025-09-08T12:36:15Z</time>
      </trkpt>
      <trkpt lat="46.01846" lon="4.37776">
        <ele>458.8</ele>
        <time>2025-09-08T12:36:16Z</time>
      </trkpt>
      <trkpt lat="46.01844" lon="4.37776">
        <ele>459</ele>
        <time>2025-09-08T12:36:17Z</time>
      </trkpt>
      <trkpt lat="46.01842" lon="4.37776">
        <ele>459</ele>
        <time>2025-09-08T12:36:18Z</time>
      </trkpt>
      <trkpt lat="46.0184" lon="4.37776">
        <ele>458.8</ele>
        <time>2025-09-08T12:36:19Z</time>
      </trkpt>
      <trkpt lat="46.01837" lon="4.37775">
        <ele>459</ele>
        <time>2025-09-08T12:36:20Z</time>
      </trkpt>
      <trkpt lat="46.01835" lon="4.37775">
        <ele>459</ele>
        <time>2025-09-08T12:36:21Z</time>
      </trkpt>
      <trkpt lat="46.01833" lon="4.37775">
        <ele>459</ele>
        <time>2025-09-08T12:36:22Z</time>
      </trkpt>
      <trkpt lat="46.01831" lon="4.37774">
        <ele>459</ele>
        <time>2025-09-08T12:36:23Z</time>
      </trkpt>
      <trkpt lat="46.01828" lon="4.37774">
        <ele>459</ele>
        <time>2025-09-08T12:36:24Z</time>
      </trkpt>
      <trkpt lat="46.01826" lon="4.37773">
        <ele>459</ele>
        <time>2025-09-08T12:36:25Z</time>
      </trkpt>
      <trkpt lat="46.01824" lon="4.37772">
        <ele>459.2</ele>
        <time>2025-09-08T12:36:26Z</time>
      </trkpt>
      <trkpt lat="46.01821" lon="4.37771">
        <ele>459.2</ele>
        <time>2025-09-08T12:36:27Z</time>
      </trkpt>
      <trkpt lat="46.01819" lon="4.3777">
        <ele>459.2</ele>
        <time>2025-09-08T12:36:28Z</time>
      </trkpt>
      <trkpt lat="46.01817" lon="4.37769">
        <ele>459.2</ele>
        <time>2025-09-08T12:36:29Z</time>
      </trkpt>
      <trkpt lat="46.01815" lon="4.37769">
        <ele>459.2</ele>
        <time>2025-09-08T12:36:30Z</time>
      </trkpt>
      <trkpt lat="46.01812" lon="4.37769">
        <ele>459.6</ele>
        <time>2025-09-08T12:36:31Z</time>
      </trkpt>
      <trkpt lat="46.01809" lon="4.37769">
        <ele>459.6</ele>
        <time>2025-09-08T12:36:32Z</time>
      </trkpt>
      <trkpt lat="46.01807" lon="4.37769">
        <ele>459.6</ele>
        <time>2025-09-08T12:36:33Z</time>
      </trkpt>
      <trkpt lat="46.01804" lon="4.37767">
        <ele>459.6</ele>
        <time>2025-09-08T12:36:34Z</time>
      </trkpt>
      <trkpt lat="46.01802" lon="4.37766">
        <ele>459.6</ele>
        <time>2025-09-08T12:36:35Z</time>
      </trkpt>
      <trkpt lat="46.01799" lon="4.37766">
        <ele>459.6</ele>
        <time>2025-09-08T12:36:36Z</time>
      </trkpt>
      <trkpt lat="46.01796" lon="4.37766">
        <ele>459.6</ele>
        <time>2025-09-08T12:36:37Z</time>
      </trkpt>
      <trkpt lat="46.01794" lon="4.37766">
        <ele>459.6</ele>
        <time>2025-09-08T12:36:38Z</time>
      </trkpt>
      <trkpt lat="46.01792" lon="4.37765">
        <ele>459.6</ele>
        <time>2025-09-08T12:36:39Z</time>
      </trkpt>
      <trkpt lat="46.0179" lon="4.37764">
        <ele>459.6</ele>
        <time>2025-09-08T12:36:40Z</time>
      </trkpt>
      <trkpt lat="46.01788" lon="4.37763">
        <ele>460</ele>
        <time>2025-09-08T12:36:41Z</time>
      </trkpt>
      <trkpt lat="46.01786" lon="4.37762">
        <ele>460</ele>
        <time>2025-09-08T12:36:42Z</time>
      </trkpt>
      <trkpt lat="46.01784" lon="4.37761">
        <ele>460.2</ele>
        <time>2025-09-08T12:36:43Z</time>
      </trkpt>
      <trkpt lat="46.01782" lon="4.3776">
        <ele>460.2</ele>
        <time>2025-09-08T12:36:44Z</time>
      </trkpt>
      <trkpt lat="46.01781" lon="4.37759">
        <ele>460.4</ele>
        <time>2025-09-08T12:36:45Z</time>
      </trkpt>
      <trkpt lat="46.01779" lon="4.37758">
        <ele>460.4</ele>
        <time>2025-09-08T12:36:46Z</time>
      </trkpt>
      <trkpt lat="46.01777" lon="4.37758">
        <ele>460.4</ele>
        <time>2025-09-08T12:36:47Z</time>
      </trkpt>
      <trkpt lat="46.01775" lon="4.37757">
        <ele>460.4</ele>
        <time>2025-09-08T12:36:48Z</time>
      </trkpt>
      <trkpt lat="46.01772" lon="4.37757">
        <ele>460.4</ele>
        <time>2025-09-08T12:36:49Z</time>
      </trkpt>
      <trkpt lat="46.0177" lon="4.37757">
        <ele>460.4</ele>
        <time>2025-09-08T12:36:50Z</time>
      </trkpt>
      <trkpt lat="46.01767" lon="4.37756">
        <ele>460.4</ele>
        <time>2025-09-08T12:36:51Z</time>
      </trkpt>
      <trkpt lat="46.01765" lon="4.37756">
        <ele>460.4</ele>
        <time>2025-09-08T12:36:52Z</time>
      </trkpt>
      <trkpt lat="46.01762" lon="4.37755">
        <ele>460.4</ele>
        <time>2025-09-08T12:36:53Z</time>
      </trkpt>
      <trkpt lat="46.0176" lon="4.37754">
        <ele>460.6</ele>
        <time>2025-09-08T12:36:54Z</time>
      </trkpt>
      <trkpt lat="46.01758" lon="4.37753">
        <ele>460.6</ele>
        <time>2025-09-08T12:36:55Z</time>
      </trkpt>
      <trkpt lat="46.01756" lon="4.37752">
        <ele>460.6</ele>
        <time>2025-09-08T12:36:56Z</time>
      </trkpt>
      <trkpt lat="46.01753" lon="4.3775">
        <ele>460.6</ele>
        <time>2025-09-08T12:36:57Z</time>
      </trkpt>
      <trkpt lat="46.01751" lon="4.37748">
        <ele>460.8</ele>
        <time>2025-09-08T12:36:58Z</time>
      </trkpt>
      <trkpt lat="46.01749" lon="4.37746">
        <ele>460.8</ele>
        <time>2025-09-08T12:36:59Z</time>
      </trkpt>
      <trkpt lat="46.01746" lon="4.37745">
        <ele>460.8</ele>
        <time>2025-09-08T12:37:00Z</time>
      </trkpt>
      <trkpt lat="46.01743" lon="4.37744">
        <ele>460.8</ele>
        <time>2025-09-08T12:37:01Z</time>
      </trkpt>
      <trkpt lat="46.01741" lon="4.37742">
        <ele>460.8</ele>
        <time>2025-09-08T12:37:02Z</time>
      </trkpt>
      <trkpt lat="46.01738" lon="4.37741">
        <ele>460.8</ele>
        <time>2025-09-08T12:37:03Z</time>
      </trkpt>
      <trkpt lat="46.01735" lon="4.37739">
        <ele>461.2</ele>
        <time>2025-09-08T12:37:04Z</time>
      </trkpt>
      <trkpt lat="46.01733" lon="4.37738">
        <ele>461.2</ele>
        <time>2025-09-08T12:37:05Z</time>
      </trkpt>
      <trkpt lat="46.0173" lon="4.37737">
        <ele>461.2</ele>
        <time>2025-09-08T12:37:06Z</time>
      </trkpt>
      <trkpt lat="46.01728" lon="4.37736">
        <ele>461.2</ele>
        <time>2025-09-08T12:37:07Z</time>
      </trkpt>
      <trkpt lat="46.01725" lon="4.37734">
        <ele>461.2</ele>
        <time>2025-09-08T12:37:08Z</time>
      </trkpt>
      <trkpt lat="46.01722" lon="4.37733">
        <ele>461.2</ele>
        <time>2025-09-08T12:37:09Z</time>
      </trkpt>
      <trkpt lat="46.01719" lon="4.37732">
        <ele>461.2</ele>
        <time>2025-09-08T12:37:10Z</time>
      </trkpt>
      <trkpt lat="46.01716" lon="4.37731">
        <ele>461.6</ele>
        <time>2025-09-08T12:37:11Z</time>
      </trkpt>
      <trkpt lat="46.01713" lon="4.37729">
        <ele>461.6</ele>
        <time>2025-09-08T12:37:12Z</time>
      </trkpt>
      <trkpt lat="46.0171" lon="4.37727">
        <ele>461.6</ele>
        <time>2025-09-08T12:37:13Z</time>
      </trkpt>
      <trkpt lat="46.01708" lon="4.37726">
        <ele>461.6</ele>
        <time>2025-09-08T12:37:14Z</time>
      </trkpt>
      <trkpt lat="46.01705" lon="4.37725">
        <ele>461.6</ele>
        <time>2025-09-08T12:37:15Z</time>
      </trkpt>
      <trkpt lat="46.01701" lon="4.37724">
        <ele>461.6</ele>
        <time>2025-09-08T12:37:16Z</time>
      </trkpt>
      <trkpt lat="46.01698" lon="4.37723">
        <ele>461.6</ele>
        <time>2025-09-08T12:37:17Z</time>
      </trkpt>
      <trkpt lat="46.01695" lon="4.37722">
        <ele>461.6</ele>
        <time>2025-09-08T12:37:18Z</time>
      </trkpt>
      <trkpt lat="46.01691" lon="4.3772">
        <ele>461.6</ele>
        <time>2025-09-08T12:37:19Z</time>
      </trkpt>
      <trkpt lat="46.01688" lon="4.37719">
        <ele>461.6</ele>
        <time>2025-09-08T12:37:20Z</time>
      </trkpt>
      <trkpt lat="46.01685" lon="4.37718">
        <ele>461.6</ele>
        <time>2025-09-08T12:37:21Z</time>
      </trkpt>
      <trkpt lat="46.01681" lon="4.37717">
        <ele>461.6</ele>
        <time>2025-09-08T12:37:22Z</time>
      </trkpt>
      <trkpt lat="46.01679" lon="4.37715">
        <ele>461.6</ele>
        <time>2025-09-08T12:37:23Z</time>
      </trkpt>
      <trkpt lat="46.01676" lon="4.37714">
        <ele>461.6</ele>
        <time>2025-09-08T12:37:24Z</time>
      </trkpt>
      <trkpt lat="46.01673" lon="4.37712">
        <ele>461.6</ele>
        <time>2025-09-08T12:37:25Z</time>
      </trkpt>
      <trkpt lat="46.0167" lon="4.37711">
        <ele>461.6</ele>
        <time>2025-09-08T12:37:26Z</time>
      </trkpt>
      <trkpt lat="46.01667" lon="4.3771">
        <ele>462</ele>
        <time>2025-09-08T12:37:27Z</time>
      </trkpt>
      <trkpt lat="46.01665" lon="4.37709">
        <ele>462</ele>
        <time>2025-09-08T12:37:28Z</time>
      </trkpt>
      <trkpt lat="46.01662" lon="4.37708">
        <ele>462</ele>
        <time>2025-09-08T12:37:29Z</time>
      </trkpt>
      <trkpt lat="46.01659" lon="4.37706">
        <ele>462</ele>
        <time>2025-09-08T12:37:30Z</time>
      </trkpt>
      <trkpt lat="46.01656" lon="4.37705">
        <ele>462</ele>
        <time>2025-09-08T12:37:31Z</time>
      </trkpt>
      <trkpt lat="46.01652" lon="4.37703">
        <ele>462.2</ele>
        <time>2025-09-08T12:37:32Z</time>
      </trkpt>
      <trkpt lat="46.01649" lon="4.37702">
        <ele>462.2</ele>
        <time>2025-09-08T12:37:33Z</time>
      </trkpt>
      <trkpt lat="46.01646" lon="4.37701">
        <ele>462.2</ele>
        <time>2025-09-08T12:37:34Z</time>
      </trkpt>
      <trkpt lat="46.01643" lon="4.377">
        <ele>462.2</ele>
        <time>2025-09-08T12:37:35Z</time>
      </trkpt>
      <trkpt lat="46.0164" lon="4.377">
        <ele>462.6</ele>
        <time>2025-09-08T12:37:36Z</time>
      </trkpt>
      <trkpt lat="46.01637" lon="4.37699">
        <ele>462.6</ele>
        <time>2025-09-08T12:37:37Z</time>
      </trkpt>
      <trkpt lat="46.01634" lon="4.37697">
        <ele>462.6</ele>
        <time>2025-09-08T12:37:38Z</time>
      </trkpt>
      <trkpt lat="46.01631" lon="4.37696">
        <ele>462.6</ele>
        <time>2025-09-08T12:37:39Z</time>
      </trkpt>
      <trkpt lat="46.01628" lon="4.37695">
        <ele>462.8</ele>
        <time>2025-09-08T12:37:40Z</time>
      </trkpt>
      <trkpt lat="46.01624" lon="4.37694">
        <ele>462.8</ele>
        <time>2025-09-08T12:37:41Z</time>
      </trkpt>
      <trkpt lat="46.01621" lon="4.37692">
        <ele>463</ele>
        <time>2025-09-08T12:37:42Z</time>
      </trkpt>
      <trkpt lat="46.01618" lon="4.3769">
        <ele>463</ele>
        <time>2025-09-08T12:37:43Z</time>
      </trkpt>
      <trkpt lat="46.01615" lon="4.37689">
        <ele>463</ele>
        <time>2025-09-08T12:37:44Z</time>
      </trkpt>
      <trkpt lat="46.01612" lon="4.37687">
        <ele>463</ele>
        <time>2025-09-08T12:37:45Z</time>
      </trkpt>
      <trkpt lat="46.01608" lon="4.37686">
        <ele>463</ele>
        <time>2025-09-08T12:37:46Z</time>
      </trkpt>
      <trkpt lat="46.01605" lon="4.37685">
        <ele>463</ele>
        <time>2025-09-08T12:37:47Z</time>
      </trkpt>
      <trkpt lat="46.01602" lon="4.37683">
        <ele>463.2</ele>
        <time>2025-09-08T12:37:48Z</time>
      </trkpt>
      <trkpt lat="46.01599" lon="4.37682">
        <ele>463.2</ele>
        <time>2025-09-08T12:37:49Z</time>
      </trkpt>
      <trkpt lat="46.01596" lon="4.3768">
        <ele>463.2</ele>
        <time>2025-09-08T12:37:50Z</time>
      </trkpt>
      <trkpt lat="46.01593" lon="4.37679">
        <ele>463.2</ele>
        <time>2025-09-08T12:37:51Z</time>
      </trkpt>
      <trkpt lat="46.0159" lon="4.37678">
        <ele>463.2</ele>
        <time>2025-09-08T12:37:52Z</time>
      </trkpt>
      <trkpt lat="46.01587" lon="4.37677">
        <ele>463.2</ele>
        <time>2025-09-08T12:37:53Z</time>
      </trkpt>
      <trkpt lat="46.01584" lon="4.37676">
        <ele>463.2</ele>
        <time>2025-09-08T12:37:54Z</time>
      </trkpt>
      <trkpt lat="46.0158" lon="4.37675">
        <ele>463.2</ele>
        <time>2025-09-08T12:37:55Z</time>
      </trkpt>
      <trkpt lat="46.01577" lon="4.37674">
        <ele>463.2</ele>
        <time>2025-09-08T12:37:56Z</time>
      </trkpt>
      <trkpt lat="46.01574" lon="4.37672">
        <ele>463.2</ele>
        <time>2025-09-08T12:37:57Z</time>
      </trkpt>
      <trkpt lat="46.0157" lon="4.37671">
        <ele>463.6</ele>
        <time>2025-09-08T12:37:58Z</time>
      </trkpt>
      <trkpt lat="46.01567" lon="4.37669">
        <ele>463.6</ele>
        <time>2025-09-08T12:37:59Z</time>
      </trkpt>
      <trkpt lat="46.01564" lon="4.37668">
        <ele>463.2</ele>
        <time>2025-09-08T12:38:00Z</time>
      </trkpt>
      <trkpt lat="46.01561" lon="4.37667">
        <ele>463.2</ele>
        <time>2025-09-08T12:38:01Z</time>
      </trkpt>
      <trkpt lat="46.01558" lon="4.37667">
        <ele>463.6</ele>
        <time>2025-09-08T12:38:02Z</time>
      </trkpt>
      <trkpt lat="46.01554" lon="4.37666">
        <ele>463.6</ele>
        <time>2025-09-08T12:38:03Z</time>
      </trkpt>
      <trkpt lat="46.01551" lon="4.37664">
        <ele>463.6</ele>
        <time>2025-09-08T12:38:04Z</time>
      </trkpt>
      <trkpt lat="46.01548" lon="4.37661">
        <ele>463.6</ele>
        <time>2025-09-08T12:38:05Z</time>
      </trkpt>
      <trkpt lat="46.01545" lon="4.37659">
        <ele>463.6</ele>
        <time>2025-09-08T12:38:06Z</time>
      </trkpt>
      <trkpt lat="46.01542" lon="4.37657">
        <ele>464</ele>
        <time>2025-09-08T12:38:07Z</time>
      </trkpt>
      <trkpt lat="46.01539" lon="4.37657">
        <ele>464</ele>
        <time>2025-09-08T12:38:08Z</time>
      </trkpt>
      <trkpt lat="46.01536" lon="4.37656">
        <ele>464</ele>
        <time>2025-09-08T12:38:09Z</time>
      </trkpt>
      <trkpt lat="46.01533" lon="4.37655">
        <ele>464.2</ele>
        <time>2025-09-08T12:38:10Z</time>
      </trkpt>
      <trkpt lat="46.0153" lon="4.37655">
        <ele>464.2</ele>
        <time>2025-09-08T12:38:11Z</time>
      </trkpt>
      <trkpt lat="46.01527" lon="4.37653">
        <ele>464.2</ele>
        <time>2025-09-08T12:38:12Z</time>
      </trkpt>
      <trkpt lat="46.01524" lon="4.37652">
        <ele>464.4</ele>
        <time>2025-09-08T12:38:13Z</time>
      </trkpt>
      <trkpt lat="46.01521" lon="4.3765">
        <ele>464.4</ele>
        <time>2025-09-08T12:38:14Z</time>
      </trkpt>
      <trkpt lat="46.01518" lon="4.37649">
        <ele>464.4</ele>
        <time>2025-09-08T12:38:15Z</time>
      </trkpt>
      <trkpt lat="46.01515" lon="4.37647">
        <ele>464.4</ele>
        <time>2025-09-08T12:38:16Z</time>
      </trkpt>
      <trkpt lat="46.01512" lon="4.37646">
        <ele>464.4</ele>
        <time>2025-09-08T12:38:17Z</time>
      </trkpt>
      <trkpt lat="46.01509" lon="4.37644">
        <ele>464.4</ele>
        <time>2025-09-08T12:38:18Z</time>
      </trkpt>
      <trkpt lat="46.01505" lon="4.37642">
        <ele>464.8</ele>
        <time>2025-09-08T12:38:19Z</time>
      </trkpt>
      <trkpt lat="46.01502" lon="4.37642">
        <ele>464.8</ele>
        <time>2025-09-08T12:38:20Z</time>
      </trkpt>
      <trkpt lat="46.01498" lon="4.37642">
        <ele>464.4</ele>
        <time>2025-09-08T12:38:21Z</time>
      </trkpt>
      <trkpt lat="46.01495" lon="4.37641">
        <ele>464.4</ele>
        <time>2025-09-08T12:38:22Z</time>
      </trkpt>
      <trkpt lat="46.01492" lon="4.37641">
        <ele>464.4</ele>
        <time>2025-09-08T12:38:23Z</time>
      </trkpt>
      <trkpt lat="46.01489" lon="4.3764">
        <ele>464.4</ele>
        <time>2025-09-08T12:38:24Z</time>
      </trkpt>
      <trkpt lat="46.01485" lon="4.3764">
        <ele>464.4</ele>
        <time>2025-09-08T12:38:25Z</time>
      </trkpt>
      <trkpt lat="46.01482" lon="4.3764">
        <ele>464.6</ele>
        <time>2025-09-08T12:38:26Z</time>
      </trkpt>
      <trkpt lat="46.01478" lon="4.3764">
        <ele>464.6</ele>
        <time>2025-09-08T12:38:27Z</time>
      </trkpt>
      <trkpt lat="46.01475" lon="4.3764">
        <ele>464.8</ele>
        <time>2025-09-08T12:38:28Z</time>
      </trkpt>
      <trkpt lat="46.01472" lon="4.37641">
        <ele>464.8</ele>
        <time>2025-09-08T12:38:29Z</time>
      </trkpt>
      <trkpt lat="46.01469" lon="4.37642">
        <ele>464.8</ele>
        <time>2025-09-08T12:38:30Z</time>
      </trkpt>
      <trkpt lat="46.01466" lon="4.37644">
        <ele>464.8</ele>
        <time>2025-09-08T12:38:31Z</time>
      </trkpt>
      <trkpt lat="46.01463" lon="4.37647">
        <ele>464.8</ele>
        <time>2025-09-08T12:38:32Z</time>
      </trkpt>
      <trkpt lat="46.0146" lon="4.37649">
        <ele>464.8</ele>
        <time>2025-09-08T12:38:33Z</time>
      </trkpt>
      <trkpt lat="46.01457" lon="4.3765">
        <ele>464.8</ele>
        <time>2025-09-08T12:38:34Z</time>
      </trkpt>
      <trkpt lat="46.01454" lon="4.37652">
        <ele>465.2</ele>
        <time>2025-09-08T12:38:35Z</time>
      </trkpt>
      <trkpt lat="46.01451" lon="4.37653">
        <ele>465.2</ele>
        <time>2025-09-08T12:38:36Z</time>
      </trkpt>
      <trkpt lat="46.01448" lon="4.37656">
        <ele>465.2</ele>
        <time>2025-09-08T12:38:37Z</time>
      </trkpt>
      <trkpt lat="46.01445" lon="4.37658">
        <ele>465.2</ele>
        <time>2025-09-08T12:38:38Z</time>
      </trkpt>
      <trkpt lat="46.01442" lon="4.3766">
        <ele>465.2</ele>
        <time>2025-09-08T12:38:39Z</time>
      </trkpt>
      <trkpt lat="46.01439" lon="4.37663">
        <ele>465.4</ele>
        <time>2025-09-08T12:38:40Z</time>
      </trkpt>
      <trkpt lat="46.01436" lon="4.37666">
        <ele>465.4</ele>
        <time>2025-09-08T12:38:41Z</time>
      </trkpt>
      <trkpt lat="46.01433" lon="4.37669">
        <ele>465.6</ele>
        <time>2025-09-08T12:38:42Z</time>
      </trkpt>
      <trkpt lat="46.01431" lon="4.37672">
        <ele>465.6</ele>
        <time>2025-09-08T12:38:43Z</time>
      </trkpt>
      <trkpt lat="46.01429" lon="4.37675">
        <ele>465.6</ele>
        <time>2025-09-08T12:38:44Z</time>
      </trkpt>
      <trkpt lat="46.01426" lon="4.37678">
        <ele>465.8</ele>
        <time>2025-09-08T12:38:45Z</time>
      </trkpt>
      <trkpt lat="46.01424" lon="4.37682">
        <ele>465.8</ele>
        <time>2025-09-08T12:38:46Z</time>
      </trkpt>
      <trkpt lat="46.01422" lon="4.37685">
        <ele>465.8</ele>
        <time>2025-09-08T12:38:47Z</time>
      </trkpt>
      <trkpt lat="46.0142" lon="4.37689">
        <ele>465.8</ele>
        <time>2025-09-08T12:38:48Z</time>
      </trkpt>
      <trkpt lat="46.01418" lon="4.37693">
        <ele>465.8</ele>
        <time>2025-09-08T12:38:49Z</time>
      </trkpt>
      <trkpt lat="46.01417" lon="4.37697">
        <ele>465.8</ele>
        <time>2025-09-08T12:38:50Z</time>
      </trkpt>
      <trkpt lat="46.01416" lon="4.377">
        <ele>466</ele>
        <time>2025-09-08T12:38:51Z</time>
      </trkpt>
      <trkpt lat="46.01415" lon="4.37704">
        <ele>466</ele>
        <time>2025-09-08T12:38:52Z</time>
      </trkpt>
      <trkpt lat="46.01414" lon="4.37707">
        <ele>466</ele>
        <time>2025-09-08T12:38:53Z</time>
      </trkpt>
      <trkpt lat="46.01413" lon="4.3771">
        <ele>466</ele>
        <time>2025-09-08T12:38:54Z</time>
      </trkpt>
    </trkseg>
  </trk>
</gpx>